<?xml version="1.0" encoding="UTF-8"?>
<gpx creator="Wikiloc - http://www.wikiloc.com" version="1.1" xmlns="http://www.topografix.com/GPX/1/1" xmlns:xsi="http://www.w3.org/2001/XMLSchema-instance" xsi:schemaLocation="http://www.topografix.com/GPX/1/1 http://www.topografix.com/GPX/1/1/gpx.xsd">
  <trk>
    <name>T2067676-0</name>
    <cmt>saida con compañeiros do C.C.Arteixo polos arredores da Coruña</cmt>
    <desc>saida con compañeiros do C.C.Arteixo polos arredores da Coruña</desc>
    <trkseg>
      <trkpt lat="43.369272" lon="-8.403967">
        <ele>124.5</ele>
        <time>2011-06-25T09:00:28Z</time>
      </trkpt>
      <trkpt lat="43.369272" lon="-8.403967">
        <ele>124.5</ele>
        <time>2011-06-25T09:06:19Z</time>
      </trkpt>
      <trkpt lat="43.369178" lon="-8.404235">
        <ele>111.0</ele>
        <time>2011-06-25T09:06:22Z</time>
      </trkpt>
      <trkpt lat="43.369110" lon="-8.404360">
        <ele>100.0</ele>
        <time>2011-06-25T09:06:24Z</time>
      </trkpt>
      <trkpt lat="43.369025" lon="-8.404412">
        <ele>92.0</ele>
        <time>2011-06-25T09:06:26Z</time>
      </trkpt>
      <trkpt lat="43.368960" lon="-8.404432">
        <ele>87.0</ele>
        <time>2011-06-25T09:06:28Z</time>
      </trkpt>
      <trkpt lat="43.368937" lon="-8.404457">
        <ele>84.5</ele>
        <time>2011-06-25T09:06:29Z</time>
      </trkpt>
      <trkpt lat="43.368913" lon="-8.404478">
        <ele>83.0</ele>
        <time>2011-06-25T09:06:30Z</time>
      </trkpt>
      <trkpt lat="43.368892" lon="-8.404505">
        <ele>82.0</ele>
        <time>2011-06-25T09:06:31Z</time>
      </trkpt>
      <trkpt lat="43.368868" lon="-8.404533">
        <ele>80.5</ele>
        <time>2011-06-25T09:06:32Z</time>
      </trkpt>
      <trkpt lat="43.368847" lon="-8.404567">
        <ele>79.5</ele>
        <time>2011-06-25T09:06:33Z</time>
      </trkpt>
      <trkpt lat="43.368822" lon="-8.404602">
        <ele>77.5</ele>
        <time>2011-06-25T09:06:34Z</time>
      </trkpt>
      <trkpt lat="43.368800" lon="-8.404637">
        <ele>75.5</ele>
        <time>2011-06-25T09:06:35Z</time>
      </trkpt>
      <trkpt lat="43.368780" lon="-8.404678">
        <ele>73.5</ele>
        <time>2011-06-25T09:06:36Z</time>
      </trkpt>
      <trkpt lat="43.368760" lon="-8.404713">
        <ele>71.5</ele>
        <time>2011-06-25T09:06:37Z</time>
      </trkpt>
      <trkpt lat="43.368753" lon="-8.404742">
        <ele>71.5</ele>
        <time>2011-06-25T09:06:38Z</time>
      </trkpt>
      <trkpt lat="43.368748" lon="-8.404768">
        <ele>71.5</ele>
        <time>2011-06-25T09:06:39Z</time>
      </trkpt>
      <trkpt lat="43.368740" lon="-8.404795">
        <ele>72.0</ele>
        <time>2011-06-25T09:06:40Z</time>
      </trkpt>
      <trkpt lat="43.368727" lon="-8.404815">
        <ele>71.5</ele>
        <time>2011-06-25T09:06:41Z</time>
      </trkpt>
      <trkpt lat="43.368715" lon="-8.404840">
        <ele>71.5</ele>
        <time>2011-06-25T09:06:42Z</time>
      </trkpt>
      <trkpt lat="43.368707" lon="-8.404868">
        <ele>72.0</ele>
        <time>2011-06-25T09:06:43Z</time>
      </trkpt>
      <trkpt lat="43.368692" lon="-8.404898">
        <ele>72.0</ele>
        <time>2011-06-25T09:06:44Z</time>
      </trkpt>
      <trkpt lat="43.368678" lon="-8.404932">
        <ele>71.5</ele>
        <time>2011-06-25T09:06:45Z</time>
      </trkpt>
      <trkpt lat="43.368665" lon="-8.404967">
        <ele>71.5</ele>
        <time>2011-06-25T09:06:46Z</time>
      </trkpt>
      <trkpt lat="43.368648" lon="-8.405002">
        <ele>71.0</ele>
        <time>2011-06-25T09:06:47Z</time>
      </trkpt>
      <trkpt lat="43.368635" lon="-8.405038">
        <ele>71.0</ele>
        <time>2011-06-25T09:06:48Z</time>
      </trkpt>
      <trkpt lat="43.368622" lon="-8.405080">
        <ele>71.0</ele>
        <time>2011-06-25T09:06:49Z</time>
      </trkpt>
      <trkpt lat="43.368608" lon="-8.405122">
        <ele>71.0</ele>
        <time>2011-06-25T09:06:50Z</time>
      </trkpt>
      <trkpt lat="43.368592" lon="-8.405162">
        <ele>70.5</ele>
        <time>2011-06-25T09:06:51Z</time>
      </trkpt>
      <trkpt lat="43.368572" lon="-8.405198">
        <ele>70.5</ele>
        <time>2011-06-25T09:06:52Z</time>
      </trkpt>
      <trkpt lat="43.368557" lon="-8.405238">
        <ele>71.0</ele>
        <time>2011-06-25T09:06:53Z</time>
      </trkpt>
      <trkpt lat="43.368538" lon="-8.405275">
        <ele>71.0</ele>
        <time>2011-06-25T09:06:54Z</time>
      </trkpt>
      <trkpt lat="43.368520" lon="-8.405320">
        <ele>71.0</ele>
        <time>2011-06-25T09:06:55Z</time>
      </trkpt>
      <trkpt lat="43.368497" lon="-8.405355">
        <ele>70.5</ele>
        <time>2011-06-25T09:06:56Z</time>
      </trkpt>
      <trkpt lat="43.368475" lon="-8.405398">
        <ele>70.5</ele>
        <time>2011-06-25T09:06:57Z</time>
      </trkpt>
      <trkpt lat="43.368453" lon="-8.405442">
        <ele>70.0</ele>
        <time>2011-06-25T09:06:58Z</time>
      </trkpt>
      <trkpt lat="43.368433" lon="-8.405485">
        <ele>70.0</ele>
        <time>2011-06-25T09:06:59Z</time>
      </trkpt>
      <trkpt lat="43.368412" lon="-8.405527">
        <ele>70.0</ele>
        <time>2011-06-25T09:07:00Z</time>
      </trkpt>
      <trkpt lat="43.368390" lon="-8.405565">
        <ele>69.5</ele>
        <time>2011-06-25T09:07:02Z</time>
      </trkpt>
      <trkpt lat="43.368370" lon="-8.405602">
        <ele>69.5</ele>
        <time>2011-06-25T09:07:02Z</time>
      </trkpt>
      <trkpt lat="43.368350" lon="-8.405637">
        <ele>69.5</ele>
        <time>2011-06-25T09:07:03Z</time>
      </trkpt>
      <trkpt lat="43.368333" lon="-8.405668">
        <ele>69.5</ele>
        <time>2011-06-25T09:07:04Z</time>
      </trkpt>
      <trkpt lat="43.368318" lon="-8.405698">
        <ele>69.0</ele>
        <time>2011-06-25T09:07:05Z</time>
      </trkpt>
      <trkpt lat="43.368302" lon="-8.405723">
        <ele>69.0</ele>
        <time>2011-06-25T09:07:06Z</time>
      </trkpt>
      <trkpt lat="43.368287" lon="-8.405743">
        <ele>69.0</ele>
        <time>2011-06-25T09:07:07Z</time>
      </trkpt>
      <trkpt lat="43.368273" lon="-8.405763">
        <ele>68.5</ele>
        <time>2011-06-25T09:07:08Z</time>
      </trkpt>
      <trkpt lat="43.368267" lon="-8.405780">
        <ele>68.5</ele>
        <time>2011-06-25T09:07:09Z</time>
      </trkpt>
      <trkpt lat="43.368262" lon="-8.405795">
        <ele>68.5</ele>
        <time>2011-06-25T09:07:10Z</time>
      </trkpt>
      <trkpt lat="43.368260" lon="-8.405805">
        <ele>68.5</ele>
        <time>2011-06-25T09:07:11Z</time>
      </trkpt>
      <trkpt lat="43.368258" lon="-8.405807">
        <ele>68.5</ele>
        <time>2011-06-25T09:07:12Z</time>
      </trkpt>
      <trkpt lat="43.368258" lon="-8.405810">
        <ele>68.5</ele>
        <time>2011-06-25T09:07:13Z</time>
      </trkpt>
      <trkpt lat="43.368255" lon="-8.405810">
        <ele>68.5</ele>
        <time>2011-06-25T09:07:14Z</time>
      </trkpt>
      <trkpt lat="43.368260" lon="-8.405810">
        <ele>68.5</ele>
        <time>2011-06-25T09:07:15Z</time>
      </trkpt>
      <trkpt lat="43.368257" lon="-8.405810">
        <ele>68.5</ele>
        <time>2011-06-25T09:07:16Z</time>
      </trkpt>
      <trkpt lat="43.368253" lon="-8.405808">
        <ele>68.5</ele>
        <time>2011-06-25T09:07:17Z</time>
      </trkpt>
      <trkpt lat="43.368255" lon="-8.405810">
        <ele>68.5</ele>
        <time>2011-06-25T09:07:18Z</time>
      </trkpt>
      <trkpt lat="43.368250" lon="-8.405812">
        <ele>68.5</ele>
        <time>2011-06-25T09:07:19Z</time>
      </trkpt>
      <trkpt lat="43.368248" lon="-8.405812">
        <ele>68.5</ele>
        <time>2011-06-25T09:07:20Z</time>
      </trkpt>
      <trkpt lat="43.368247" lon="-8.405813">
        <ele>68.5</ele>
        <time>2011-06-25T09:07:21Z</time>
      </trkpt>
      <trkpt lat="43.368247" lon="-8.405815">
        <ele>68.5</ele>
        <time>2011-06-25T09:07:22Z</time>
      </trkpt>
      <trkpt lat="43.368245" lon="-8.405823">
        <ele>69.0</ele>
        <time>2011-06-25T09:07:23Z</time>
      </trkpt>
      <trkpt lat="43.368233" lon="-8.405818">
        <ele>69.0</ele>
        <time>2011-06-25T09:07:24Z</time>
      </trkpt>
      <trkpt lat="43.368228" lon="-8.405818">
        <ele>69.0</ele>
        <time>2011-06-25T09:07:25Z</time>
      </trkpt>
      <trkpt lat="43.368225" lon="-8.405822">
        <ele>69.0</ele>
        <time>2011-06-25T09:07:26Z</time>
      </trkpt>
      <trkpt lat="43.368223" lon="-8.405820">
        <ele>69.0</ele>
        <time>2011-06-25T09:07:27Z</time>
      </trkpt>
      <trkpt lat="43.368220" lon="-8.405823">
        <ele>69.0</ele>
        <time>2011-06-25T09:07:28Z</time>
      </trkpt>
      <trkpt lat="43.368217" lon="-8.405818">
        <ele>69.0</ele>
        <time>2011-06-25T09:07:29Z</time>
      </trkpt>
      <trkpt lat="43.368212" lon="-8.405813">
        <ele>69.5</ele>
        <time>2011-06-25T09:07:30Z</time>
      </trkpt>
      <trkpt lat="43.368200" lon="-8.405807">
        <ele>69.5</ele>
        <time>2011-06-25T09:07:31Z</time>
      </trkpt>
      <trkpt lat="43.368183" lon="-8.405805">
        <ele>69.5</ele>
        <time>2011-06-25T09:07:32Z</time>
      </trkpt>
      <trkpt lat="43.368168" lon="-8.405818">
        <ele>69.5</ele>
        <time>2011-06-25T09:07:33Z</time>
      </trkpt>
      <trkpt lat="43.368157" lon="-8.405838">
        <ele>69.5</ele>
        <time>2011-06-25T09:07:34Z</time>
      </trkpt>
      <trkpt lat="43.368142" lon="-8.405845">
        <ele>69.5</ele>
        <time>2011-06-25T09:07:35Z</time>
      </trkpt>
      <trkpt lat="43.368135" lon="-8.405862">
        <ele>69.5</ele>
        <time>2011-06-25T09:07:36Z</time>
      </trkpt>
      <trkpt lat="43.368127" lon="-8.405872">
        <ele>69.5</ele>
        <time>2011-06-25T09:07:37Z</time>
      </trkpt>
      <trkpt lat="43.368120" lon="-8.405880">
        <ele>69.5</ele>
        <time>2011-06-25T09:07:38Z</time>
      </trkpt>
      <trkpt lat="43.368110" lon="-8.405878">
        <ele>69.5</ele>
        <time>2011-06-25T09:07:39Z</time>
      </trkpt>
      <trkpt lat="43.368100" lon="-8.405877">
        <ele>69.5</ele>
        <time>2011-06-25T09:07:40Z</time>
      </trkpt>
      <trkpt lat="43.368093" lon="-8.405877">
        <ele>69.5</ele>
        <time>2011-06-25T09:07:41Z</time>
      </trkpt>
      <trkpt lat="43.368088" lon="-8.405878">
        <ele>69.5</ele>
        <time>2011-06-25T09:07:42Z</time>
      </trkpt>
      <trkpt lat="43.368083" lon="-8.405878">
        <ele>69.5</ele>
        <time>2011-06-25T09:07:43Z</time>
      </trkpt>
      <trkpt lat="43.368080" lon="-8.405878">
        <ele>69.5</ele>
        <time>2011-06-25T09:07:44Z</time>
      </trkpt>
      <trkpt lat="43.367628" lon="-8.406093">
        <ele>70.0</ele>
        <time>2011-06-25T09:07:49Z</time>
      </trkpt>
      <trkpt lat="43.367460" lon="-8.406057">
        <ele>70.0</ele>
        <time>2011-06-25T09:07:53Z</time>
      </trkpt>
      <trkpt lat="43.367460" lon="-8.406047">
        <ele>70.0</ele>
        <time>2011-06-25T09:07:53Z</time>
      </trkpt>
      <trkpt lat="43.367478" lon="-8.406022">
        <ele>70.0</ele>
        <time>2011-06-25T09:07:54Z</time>
      </trkpt>
      <trkpt lat="43.367562" lon="-8.406005">
        <ele>70.0</ele>
        <time>2011-06-25T09:07:57Z</time>
      </trkpt>
      <trkpt lat="43.367662" lon="-8.406012">
        <ele>70.0</ele>
        <time>2011-06-25T09:08:00Z</time>
      </trkpt>
      <trkpt lat="43.367672" lon="-8.406030">
        <ele>70.0</ele>
        <time>2011-06-25T09:08:01Z</time>
      </trkpt>
      <trkpt lat="43.367827" lon="-8.406108">
        <ele>70.0</ele>
        <time>2011-06-25T09:08:04Z</time>
      </trkpt>
      <trkpt lat="43.367858" lon="-8.406142">
        <ele>70.0</ele>
        <time>2011-06-25T09:08:04Z</time>
      </trkpt>
      <trkpt lat="43.367863" lon="-8.406165">
        <ele>70.0</ele>
        <time>2011-06-25T09:08:06Z</time>
      </trkpt>
      <trkpt lat="43.367865" lon="-8.406188">
        <ele>70.0</ele>
        <time>2011-06-25T09:08:07Z</time>
      </trkpt>
      <trkpt lat="43.367868" lon="-8.406218">
        <ele>70.0</ele>
        <time>2011-06-25T09:08:08Z</time>
      </trkpt>
      <trkpt lat="43.367913" lon="-8.406293">
        <ele>70.0</ele>
        <time>2011-06-25T09:08:10Z</time>
      </trkpt>
      <trkpt lat="43.368098" lon="-8.406402">
        <ele>70.0</ele>
        <time>2011-06-25T09:08:13Z</time>
      </trkpt>
      <trkpt lat="43.368240" lon="-8.406473">
        <ele>70.0</ele>
        <time>2011-06-25T09:08:14Z</time>
      </trkpt>
      <trkpt lat="43.368312" lon="-8.406497">
        <ele>70.0</ele>
        <time>2011-06-25T09:08:16Z</time>
      </trkpt>
      <trkpt lat="43.368375" lon="-8.406592">
        <ele>70.0</ele>
        <time>2011-06-25T09:08:19Z</time>
      </trkpt>
      <trkpt lat="43.368422" lon="-8.406627">
        <ele>70.0</ele>
        <time>2011-06-25T09:08:20Z</time>
      </trkpt>
      <trkpt lat="43.368458" lon="-8.406658">
        <ele>70.0</ele>
        <time>2011-06-25T09:08:21Z</time>
      </trkpt>
      <trkpt lat="43.368498" lon="-8.406695">
        <ele>70.0</ele>
        <time>2011-06-25T09:08:22Z</time>
      </trkpt>
      <trkpt lat="43.368537" lon="-8.406728">
        <ele>70.0</ele>
        <time>2011-06-25T09:08:23Z</time>
      </trkpt>
      <trkpt lat="43.368500" lon="-8.406773">
        <ele>70.0</ele>
        <time>2011-06-25T09:08:23Z</time>
      </trkpt>
      <trkpt lat="43.368477" lon="-8.406815">
        <ele>70.0</ele>
        <time>2011-06-25T09:08:24Z</time>
      </trkpt>
      <trkpt lat="43.368390" lon="-8.406890">
        <ele>70.0</ele>
        <time>2011-06-25T09:08:26Z</time>
      </trkpt>
      <trkpt lat="43.368362" lon="-8.406933">
        <ele>70.0</ele>
        <time>2011-06-25T09:08:28Z</time>
      </trkpt>
      <trkpt lat="43.368345" lon="-8.406983">
        <ele>70.0</ele>
        <time>2011-06-25T09:08:28Z</time>
      </trkpt>
      <trkpt lat="43.368230" lon="-8.407063">
        <ele>70.0</ele>
        <time>2011-06-25T09:08:31Z</time>
      </trkpt>
      <trkpt lat="43.368207" lon="-8.407098">
        <ele>70.0</ele>
        <time>2011-06-25T09:08:31Z</time>
      </trkpt>
      <trkpt lat="43.368187" lon="-8.407135">
        <ele>70.0</ele>
        <time>2011-06-25T09:08:32Z</time>
      </trkpt>
      <trkpt lat="43.368095" lon="-8.407197">
        <ele>70.0</ele>
        <time>2011-06-25T09:08:35Z</time>
      </trkpt>
      <trkpt lat="43.368088" lon="-8.407228">
        <ele>70.0</ele>
        <time>2011-06-25T09:08:35Z</time>
      </trkpt>
      <trkpt lat="43.368090" lon="-8.407245">
        <ele>70.0</ele>
        <time>2011-06-25T09:08:36Z</time>
      </trkpt>
      <trkpt lat="43.368075" lon="-8.407262">
        <ele>70.0</ele>
        <time>2011-06-25T09:08:38Z</time>
      </trkpt>
      <trkpt lat="43.368065" lon="-8.407302">
        <ele>70.0</ele>
        <time>2011-06-25T09:08:40Z</time>
      </trkpt>
      <trkpt lat="43.368057" lon="-8.407337">
        <ele>70.0</ele>
        <time>2011-06-25T09:08:40Z</time>
      </trkpt>
      <trkpt lat="43.368023" lon="-8.407362">
        <ele>70.0</ele>
        <time>2011-06-25T09:08:41Z</time>
      </trkpt>
      <trkpt lat="43.367985" lon="-8.407390">
        <ele>70.0</ele>
        <time>2011-06-25T09:08:43Z</time>
      </trkpt>
      <trkpt lat="43.367687" lon="-8.407440">
        <ele>70.0</ele>
        <time>2011-06-25T09:08:47Z</time>
      </trkpt>
      <trkpt lat="43.367675" lon="-8.407462">
        <ele>70.0</ele>
        <time>2011-06-25T09:08:48Z</time>
      </trkpt>
      <trkpt lat="43.367665" lon="-8.407490">
        <ele>70.0</ele>
        <time>2011-06-25T09:08:49Z</time>
      </trkpt>
      <trkpt lat="43.367667" lon="-8.407528">
        <ele>70.0</ele>
        <time>2011-06-25T09:08:49Z</time>
      </trkpt>
      <trkpt lat="43.367663" lon="-8.407562">
        <ele>70.0</ele>
        <time>2011-06-25T09:08:51Z</time>
      </trkpt>
      <trkpt lat="43.367655" lon="-8.407590">
        <ele>70.0</ele>
        <time>2011-06-25T09:08:52Z</time>
      </trkpt>
      <trkpt lat="43.367643" lon="-8.407612">
        <ele>70.0</ele>
        <time>2011-06-25T09:08:53Z</time>
      </trkpt>
      <trkpt lat="43.367635" lon="-8.407637">
        <ele>70.0</ele>
        <time>2011-06-25T09:08:54Z</time>
      </trkpt>
      <trkpt lat="43.367628" lon="-8.407663">
        <ele>70.0</ele>
        <time>2011-06-25T09:08:55Z</time>
      </trkpt>
      <trkpt lat="43.367618" lon="-8.407670">
        <ele>70.0</ele>
        <time>2011-06-25T09:08:56Z</time>
      </trkpt>
      <trkpt lat="43.367637" lon="-8.407760">
        <ele>70.0</ele>
        <time>2011-06-25T09:08:58Z</time>
      </trkpt>
      <trkpt lat="43.367642" lon="-8.407805">
        <ele>70.0</ele>
        <time>2011-06-25T09:08:59Z</time>
      </trkpt>
      <trkpt lat="43.367643" lon="-8.407847">
        <ele>70.0</ele>
        <time>2011-06-25T09:09:00Z</time>
      </trkpt>
      <trkpt lat="43.367640" lon="-8.407885">
        <ele>70.0</ele>
        <time>2011-06-25T09:09:01Z</time>
      </trkpt>
      <trkpt lat="43.367630" lon="-8.407915">
        <ele>70.0</ele>
        <time>2011-06-25T09:09:01Z</time>
      </trkpt>
      <trkpt lat="43.367617" lon="-8.407942">
        <ele>70.0</ele>
        <time>2011-06-25T09:09:03Z</time>
      </trkpt>
      <trkpt lat="43.367603" lon="-8.407975">
        <ele>70.0</ele>
        <time>2011-06-25T09:09:04Z</time>
      </trkpt>
      <trkpt lat="43.367588" lon="-8.408007">
        <ele>70.0</ele>
        <time>2011-06-25T09:09:05Z</time>
      </trkpt>
      <trkpt lat="43.367568" lon="-8.408033">
        <ele>70.0</ele>
        <time>2011-06-25T09:09:05Z</time>
      </trkpt>
      <trkpt lat="43.367548" lon="-8.408058">
        <ele>70.0</ele>
        <time>2011-06-25T09:09:06Z</time>
      </trkpt>
      <trkpt lat="43.367545" lon="-8.408077">
        <ele>70.0</ele>
        <time>2011-06-25T09:09:08Z</time>
      </trkpt>
      <trkpt lat="43.367543" lon="-8.408102">
        <ele>70.0</ele>
        <time>2011-06-25T09:09:09Z</time>
      </trkpt>
      <trkpt lat="43.367475" lon="-8.408162">
        <ele>70.0</ele>
        <time>2011-06-25T09:09:10Z</time>
      </trkpt>
      <trkpt lat="43.367443" lon="-8.408175">
        <ele>70.0</ele>
        <time>2011-06-25T09:09:11Z</time>
      </trkpt>
      <trkpt lat="43.367418" lon="-8.408192">
        <ele>70.0</ele>
        <time>2011-06-25T09:09:12Z</time>
      </trkpt>
      <trkpt lat="43.367325" lon="-8.408102">
        <ele>70.0</ele>
        <time>2011-06-25T09:09:15Z</time>
      </trkpt>
      <trkpt lat="43.367298" lon="-8.408112">
        <ele>70.0</ele>
        <time>2011-06-25T09:09:16Z</time>
      </trkpt>
      <trkpt lat="43.367242" lon="-8.408217">
        <ele>70.0</ele>
        <time>2011-06-25T09:09:19Z</time>
      </trkpt>
      <trkpt lat="43.367237" lon="-8.408252">
        <ele>70.0</ele>
        <time>2011-06-25T09:09:20Z</time>
      </trkpt>
      <trkpt lat="43.367215" lon="-8.408337">
        <ele>70.0</ele>
        <time>2011-06-25T09:09:22Z</time>
      </trkpt>
      <trkpt lat="43.367213" lon="-8.408358">
        <ele>70.0</ele>
        <time>2011-06-25T09:09:23Z</time>
      </trkpt>
      <trkpt lat="43.367217" lon="-8.408372">
        <ele>70.0</ele>
        <time>2011-06-25T09:09:25Z</time>
      </trkpt>
      <trkpt lat="43.367215" lon="-8.408368">
        <ele>70.0</ele>
        <time>2011-06-25T09:09:26Z</time>
      </trkpt>
      <trkpt lat="43.367217" lon="-8.408375">
        <ele>70.0</ele>
        <time>2011-06-25T09:09:27Z</time>
      </trkpt>
      <trkpt lat="43.367223" lon="-8.408385">
        <ele>70.0</ele>
        <time>2011-06-25T09:09:28Z</time>
      </trkpt>
      <trkpt lat="43.367223" lon="-8.408393">
        <ele>70.0</ele>
        <time>2011-06-25T09:09:29Z</time>
      </trkpt>
      <trkpt lat="43.367220" lon="-8.408402">
        <ele>70.0</ele>
        <time>2011-06-25T09:09:30Z</time>
      </trkpt>
      <trkpt lat="43.367218" lon="-8.408407">
        <ele>70.0</ele>
        <time>2011-06-25T09:09:31Z</time>
      </trkpt>
      <trkpt lat="43.367218" lon="-8.408408">
        <ele>70.0</ele>
        <time>2011-06-25T09:09:32Z</time>
      </trkpt>
      <trkpt lat="43.367218" lon="-8.408408">
        <ele>70.0</ele>
        <time>2011-06-25T09:09:32Z</time>
      </trkpt>
      <trkpt lat="43.367218" lon="-8.408410">
        <ele>70.0</ele>
        <time>2011-06-25T09:09:33Z</time>
      </trkpt>
      <trkpt lat="43.367220" lon="-8.408418">
        <ele>70.0</ele>
        <time>2011-06-25T09:09:35Z</time>
      </trkpt>
      <trkpt lat="43.367218" lon="-8.408428">
        <ele>70.0</ele>
        <time>2011-06-25T09:09:36Z</time>
      </trkpt>
      <trkpt lat="43.367217" lon="-8.408432">
        <ele>70.0</ele>
        <time>2011-06-25T09:09:37Z</time>
      </trkpt>
      <trkpt lat="43.367218" lon="-8.408438">
        <ele>70.0</ele>
        <time>2011-06-25T09:09:38Z</time>
      </trkpt>
      <trkpt lat="43.367215" lon="-8.408452">
        <ele>70.0</ele>
        <time>2011-06-25T09:09:39Z</time>
      </trkpt>
      <trkpt lat="43.367203" lon="-8.408470">
        <ele>70.0</ele>
        <time>2011-06-25T09:09:40Z</time>
      </trkpt>
      <trkpt lat="43.367202" lon="-8.408492">
        <ele>70.0</ele>
        <time>2011-06-25T09:09:41Z</time>
      </trkpt>
      <trkpt lat="43.367210" lon="-8.408510">
        <ele>70.0</ele>
        <time>2011-06-25T09:09:41Z</time>
      </trkpt>
      <trkpt lat="43.367222" lon="-8.408543">
        <ele>70.0</ele>
        <time>2011-06-25T09:09:43Z</time>
      </trkpt>
      <trkpt lat="43.367228" lon="-8.408582">
        <ele>70.0</ele>
        <time>2011-06-25T09:09:44Z</time>
      </trkpt>
      <trkpt lat="43.367223" lon="-8.408727">
        <ele>70.0</ele>
        <time>2011-06-25T09:09:46Z</time>
      </trkpt>
      <trkpt lat="43.367193" lon="-8.408750">
        <ele>70.0</ele>
        <time>2011-06-25T09:09:47Z</time>
      </trkpt>
      <trkpt lat="43.367172" lon="-8.408783">
        <ele>70.0</ele>
        <time>2011-06-25T09:09:48Z</time>
      </trkpt>
      <trkpt lat="43.366833" lon="-8.408603">
        <ele>70.0</ele>
        <time>2011-06-25T09:09:53Z</time>
      </trkpt>
      <trkpt lat="43.366883" lon="-8.408577">
        <ele>70.0</ele>
        <time>2011-06-25T09:09:56Z</time>
      </trkpt>
      <trkpt lat="43.366898" lon="-8.408555">
        <ele>70.0</ele>
        <time>2011-06-25T09:09:57Z</time>
      </trkpt>
      <trkpt lat="43.366908" lon="-8.408517">
        <ele>70.0</ele>
        <time>2011-06-25T09:09:59Z</time>
      </trkpt>
      <trkpt lat="43.366877" lon="-8.408480">
        <ele>70.0</ele>
        <time>2011-06-25T09:10:00Z</time>
      </trkpt>
      <trkpt lat="43.366875" lon="-8.408457">
        <ele>70.0</ele>
        <time>2011-06-25T09:10:01Z</time>
      </trkpt>
      <trkpt lat="43.366885" lon="-8.408443">
        <ele>70.0</ele>
        <time>2011-06-25T09:10:02Z</time>
      </trkpt>
      <trkpt lat="43.366898" lon="-8.408435">
        <ele>70.0</ele>
        <time>2011-06-25T09:10:03Z</time>
      </trkpt>
      <trkpt lat="43.366897" lon="-8.408417">
        <ele>70.0</ele>
        <time>2011-06-25T09:10:05Z</time>
      </trkpt>
      <trkpt lat="43.366882" lon="-8.408413">
        <ele>70.0</ele>
        <time>2011-06-25T09:10:06Z</time>
      </trkpt>
      <trkpt lat="43.366853" lon="-8.408413">
        <ele>70.0</ele>
        <time>2011-06-25T09:10:07Z</time>
      </trkpt>
      <trkpt lat="43.366818" lon="-8.408413">
        <ele>70.0</ele>
        <time>2011-06-25T09:10:08Z</time>
      </trkpt>
      <trkpt lat="43.366703" lon="-8.408433">
        <ele>70.0</ele>
        <time>2011-06-25T09:10:10Z</time>
      </trkpt>
      <trkpt lat="43.366668" lon="-8.408425">
        <ele>70.0</ele>
        <time>2011-06-25T09:10:11Z</time>
      </trkpt>
      <trkpt lat="43.366658" lon="-8.408413">
        <ele>70.0</ele>
        <time>2011-06-25T09:10:12Z</time>
      </trkpt>
      <trkpt lat="43.366652" lon="-8.408395">
        <ele>70.0</ele>
        <time>2011-06-25T09:10:13Z</time>
      </trkpt>
      <trkpt lat="43.366650" lon="-8.408377">
        <ele>70.0</ele>
        <time>2011-06-25T09:10:13Z</time>
      </trkpt>
      <trkpt lat="43.366652" lon="-8.408392">
        <ele>70.0</ele>
        <time>2011-06-25T09:10:15Z</time>
      </trkpt>
      <trkpt lat="43.366640" lon="-8.408402">
        <ele>70.0</ele>
        <time>2011-06-25T09:10:17Z</time>
      </trkpt>
      <trkpt lat="43.366522" lon="-8.408385">
        <ele>70.0</ele>
        <time>2011-06-25T09:10:20Z</time>
      </trkpt>
      <trkpt lat="43.366553" lon="-8.408378">
        <ele>70.0</ele>
        <time>2011-06-25T09:10:21Z</time>
      </trkpt>
      <trkpt lat="43.366510" lon="-8.408378">
        <ele>70.0</ele>
        <time>2011-06-25T09:10:22Z</time>
      </trkpt>
      <trkpt lat="43.366482" lon="-8.408383">
        <ele>70.0</ele>
        <time>2011-06-25T09:10:23Z</time>
      </trkpt>
      <trkpt lat="43.366453" lon="-8.408382">
        <ele>70.0</ele>
        <time>2011-06-25T09:10:24Z</time>
      </trkpt>
      <trkpt lat="43.366437" lon="-8.408382">
        <ele>70.0</ele>
        <time>2011-06-25T09:10:24Z</time>
      </trkpt>
      <trkpt lat="43.366415" lon="-8.408387">
        <ele>70.0</ele>
        <time>2011-06-25T09:10:25Z</time>
      </trkpt>
      <trkpt lat="43.366337" lon="-8.408420">
        <ele>70.0</ele>
        <time>2011-06-25T09:10:28Z</time>
      </trkpt>
      <trkpt lat="43.365865" lon="-8.408357">
        <ele>70.5</ele>
        <time>2011-06-25T09:10:33Z</time>
      </trkpt>
      <trkpt lat="43.365832" lon="-8.408353">
        <ele>70.5</ele>
        <time>2011-06-25T09:10:33Z</time>
      </trkpt>
      <trkpt lat="43.365627" lon="-8.408325">
        <ele>70.5</ele>
        <time>2011-06-25T09:10:37Z</time>
      </trkpt>
      <trkpt lat="43.365392" lon="-8.408258">
        <ele>70.5</ele>
        <time>2011-06-25T09:10:41Z</time>
      </trkpt>
      <trkpt lat="43.365338" lon="-8.408268">
        <ele>70.5</ele>
        <time>2011-06-25T09:10:44Z</time>
      </trkpt>
      <trkpt lat="43.365297" lon="-8.408257">
        <ele>70.5</ele>
        <time>2011-06-25T09:10:46Z</time>
      </trkpt>
      <trkpt lat="43.365285" lon="-8.408265">
        <ele>70.5</ele>
        <time>2011-06-25T09:10:47Z</time>
      </trkpt>
      <trkpt lat="43.365282" lon="-8.408273">
        <ele>70.5</ele>
        <time>2011-06-25T09:10:48Z</time>
      </trkpt>
      <trkpt lat="43.365003" lon="-8.408170">
        <ele>70.5</ele>
        <time>2011-06-25T09:10:52Z</time>
      </trkpt>
      <trkpt lat="43.364987" lon="-8.408167">
        <ele>70.5</ele>
        <time>2011-06-25T09:10:53Z</time>
      </trkpt>
      <trkpt lat="43.364968" lon="-8.408163">
        <ele>70.5</ele>
        <time>2011-06-25T09:10:54Z</time>
      </trkpt>
      <trkpt lat="43.364945" lon="-8.408158">
        <ele>70.5</ele>
        <time>2011-06-25T09:10:55Z</time>
      </trkpt>
      <trkpt lat="43.364917" lon="-8.408153">
        <ele>70.5</ele>
        <time>2011-06-25T09:10:56Z</time>
      </trkpt>
      <trkpt lat="43.364878" lon="-8.408150">
        <ele>70.5</ele>
        <time>2011-06-25T09:10:57Z</time>
      </trkpt>
      <trkpt lat="43.364842" lon="-8.408148">
        <ele>70.5</ele>
        <time>2011-06-25T09:10:58Z</time>
      </trkpt>
      <trkpt lat="43.364807" lon="-8.408148">
        <ele>70.5</ele>
        <time>2011-06-25T09:10:59Z</time>
      </trkpt>
      <trkpt lat="43.364697" lon="-8.408110">
        <ele>70.5</ele>
        <time>2011-06-25T09:11:01Z</time>
      </trkpt>
      <trkpt lat="43.364643" lon="-8.408088">
        <ele>70.5</ele>
        <time>2011-06-25T09:11:02Z</time>
      </trkpt>
      <trkpt lat="43.364600" lon="-8.408072">
        <ele>70.5</ele>
        <time>2011-06-25T09:11:03Z</time>
      </trkpt>
      <trkpt lat="43.364555" lon="-8.408070">
        <ele>70.5</ele>
        <time>2011-06-25T09:11:04Z</time>
      </trkpt>
      <trkpt lat="43.364427" lon="-8.408015">
        <ele>70.5</ele>
        <time>2011-06-25T09:11:07Z</time>
      </trkpt>
      <trkpt lat="43.364367" lon="-8.408003">
        <ele>70.5</ele>
        <time>2011-06-25T09:11:08Z</time>
      </trkpt>
      <trkpt lat="43.364323" lon="-8.407993">
        <ele>70.5</ele>
        <time>2011-06-25T09:11:09Z</time>
      </trkpt>
      <trkpt lat="43.364293" lon="-8.407985">
        <ele>70.5</ele>
        <time>2011-06-25T09:11:10Z</time>
      </trkpt>
      <trkpt lat="43.364270" lon="-8.407973">
        <ele>70.5</ele>
        <time>2011-06-25T09:11:10Z</time>
      </trkpt>
      <trkpt lat="43.364235" lon="-8.407958">
        <ele>70.5</ele>
        <time>2011-06-25T09:11:13Z</time>
      </trkpt>
      <trkpt lat="43.364217" lon="-8.407952">
        <ele>70.5</ele>
        <time>2011-06-25T09:11:14Z</time>
      </trkpt>
      <trkpt lat="43.364183" lon="-8.407952">
        <ele>70.5</ele>
        <time>2011-06-25T09:11:16Z</time>
      </trkpt>
      <trkpt lat="43.364173" lon="-8.407953">
        <ele>70.5</ele>
        <time>2011-06-25T09:11:18Z</time>
      </trkpt>
      <trkpt lat="43.364162" lon="-8.407960">
        <ele>70.5</ele>
        <time>2011-06-25T09:11:21Z</time>
      </trkpt>
      <trkpt lat="43.364082" lon="-8.407965">
        <ele>70.5</ele>
        <time>2011-06-25T09:11:23Z</time>
      </trkpt>
      <trkpt lat="43.363858" lon="-8.407975">
        <ele>70.5</ele>
        <time>2011-06-25T09:11:26Z</time>
      </trkpt>
      <trkpt lat="43.363823" lon="-8.407975">
        <ele>70.5</ele>
        <time>2011-06-25T09:11:28Z</time>
      </trkpt>
      <trkpt lat="43.363748" lon="-8.407983">
        <ele>70.5</ele>
        <time>2011-06-25T09:11:30Z</time>
      </trkpt>
      <trkpt lat="43.363713" lon="-8.407988">
        <ele>70.5</ele>
        <time>2011-06-25T09:11:30Z</time>
      </trkpt>
      <trkpt lat="43.363670" lon="-8.407997">
        <ele>70.5</ele>
        <time>2011-06-25T09:11:32Z</time>
      </trkpt>
      <trkpt lat="43.363548" lon="-8.408010">
        <ele>70.5</ele>
        <time>2011-06-25T09:11:34Z</time>
      </trkpt>
      <trkpt lat="43.363508" lon="-8.408003">
        <ele>70.5</ele>
        <time>2011-06-25T09:11:35Z</time>
      </trkpt>
      <trkpt lat="43.363475" lon="-8.407992">
        <ele>70.5</ele>
        <time>2011-06-25T09:11:35Z</time>
      </trkpt>
      <trkpt lat="43.363438" lon="-8.407988">
        <ele>70.5</ele>
        <time>2011-06-25T09:11:37Z</time>
      </trkpt>
      <trkpt lat="43.363332" lon="-8.407993">
        <ele>70.5</ele>
        <time>2011-06-25T09:11:40Z</time>
      </trkpt>
      <trkpt lat="43.363268" lon="-8.408000">
        <ele>70.5</ele>
        <time>2011-06-25T09:11:41Z</time>
      </trkpt>
      <trkpt lat="43.363223" lon="-8.408005">
        <ele>70.5</ele>
        <time>2011-06-25T09:11:41Z</time>
      </trkpt>
      <trkpt lat="43.363172" lon="-8.408018">
        <ele>70.5</ele>
        <time>2011-06-25T09:11:43Z</time>
      </trkpt>
      <trkpt lat="43.363102" lon="-8.408022">
        <ele>70.5</ele>
        <time>2011-06-25T09:11:46Z</time>
      </trkpt>
      <trkpt lat="43.363030" lon="-8.408013">
        <ele>70.5</ele>
        <time>2011-06-25T09:11:48Z</time>
      </trkpt>
      <trkpt lat="43.363002" lon="-8.408012">
        <ele>70.5</ele>
        <time>2011-06-25T09:11:53Z</time>
      </trkpt>
      <trkpt lat="43.363087" lon="-8.407988">
        <ele>70.5</ele>
        <time>2011-06-25T09:11:55Z</time>
      </trkpt>
      <trkpt lat="43.363117" lon="-8.407968">
        <ele>70.5</ele>
        <time>2011-06-25T09:11:59Z</time>
      </trkpt>
      <trkpt lat="43.363147" lon="-8.407962">
        <ele>70.5</ele>
        <time>2011-06-25T09:11:59Z</time>
      </trkpt>
      <trkpt lat="43.362507" lon="-8.407838">
        <ele>70.5</ele>
        <time>2011-06-25T09:12:05Z</time>
      </trkpt>
      <trkpt lat="43.362258" lon="-8.407783">
        <ele>70.5</ele>
        <time>2011-06-25T09:12:08Z</time>
      </trkpt>
      <trkpt lat="43.361995" lon="-8.407735">
        <ele>70.5</ele>
        <time>2011-06-25T09:12:11Z</time>
      </trkpt>
      <trkpt lat="43.361932" lon="-8.407677">
        <ele>70.5</ele>
        <time>2011-06-25T09:12:13Z</time>
      </trkpt>
      <trkpt lat="43.361892" lon="-8.407652">
        <ele>70.5</ele>
        <time>2011-06-25T09:12:15Z</time>
      </trkpt>
      <trkpt lat="43.361798" lon="-8.407662">
        <ele>70.5</ele>
        <time>2011-06-25T09:12:17Z</time>
      </trkpt>
      <trkpt lat="43.361562" lon="-8.407620">
        <ele>70.5</ele>
        <time>2011-06-25T09:12:20Z</time>
      </trkpt>
      <trkpt lat="43.361468" lon="-8.407597">
        <ele>70.5</ele>
        <time>2011-06-25T09:12:22Z</time>
      </trkpt>
      <trkpt lat="43.361595" lon="-8.407618">
        <ele>70.5</ele>
        <time>2011-06-25T09:12:24Z</time>
      </trkpt>
      <trkpt lat="43.361525" lon="-8.407603">
        <ele>70.5</ele>
        <time>2011-06-25T09:12:27Z</time>
      </trkpt>
      <trkpt lat="43.361137" lon="-8.407560">
        <ele>70.5</ele>
        <time>2011-06-25T09:12:33Z</time>
      </trkpt>
      <trkpt lat="43.361128" lon="-8.407558">
        <ele>70.5</ele>
        <time>2011-06-25T09:12:34Z</time>
      </trkpt>
      <trkpt lat="43.360780" lon="-8.407507">
        <ele>70.5</ele>
        <time>2011-06-25T09:12:38Z</time>
      </trkpt>
      <trkpt lat="43.360638" lon="-8.407468">
        <ele>70.5</ele>
        <time>2011-06-25T09:12:42Z</time>
      </trkpt>
      <trkpt lat="43.360413" lon="-8.407345">
        <ele>70.5</ele>
        <time>2011-06-25T09:12:46Z</time>
      </trkpt>
      <trkpt lat="43.360398" lon="-8.407327">
        <ele>70.5</ele>
        <time>2011-06-25T09:12:46Z</time>
      </trkpt>
      <trkpt lat="43.360325" lon="-8.407262">
        <ele>70.5</ele>
        <time>2011-06-25T09:12:48Z</time>
      </trkpt>
      <trkpt lat="43.360138" lon="-8.407073">
        <ele>70.5</ele>
        <time>2011-06-25T09:12:52Z</time>
      </trkpt>
      <trkpt lat="43.360050" lon="-8.406958">
        <ele>70.5</ele>
        <time>2011-06-25T09:12:54Z</time>
      </trkpt>
      <trkpt lat="43.360150" lon="-8.407143">
        <ele>70.5</ele>
        <time>2011-06-25T09:12:58Z</time>
      </trkpt>
      <trkpt lat="43.360015" lon="-8.407045">
        <ele>70.5</ele>
        <time>2011-06-25T09:13:01Z</time>
      </trkpt>
      <trkpt lat="43.359958" lon="-8.406863">
        <ele>70.5</ele>
        <time>2011-06-25T09:13:04Z</time>
      </trkpt>
      <trkpt lat="43.360182" lon="-8.407008">
        <ele>70.5</ele>
        <time>2011-06-25T09:13:08Z</time>
      </trkpt>
      <trkpt lat="43.360177" lon="-8.406985">
        <ele>70.5</ele>
        <time>2011-06-25T09:13:09Z</time>
      </trkpt>
      <trkpt lat="43.360328" lon="-8.406820">
        <ele>70.5</ele>
        <time>2011-06-25T09:13:12Z</time>
      </trkpt>
      <trkpt lat="43.360373" lon="-8.406805">
        <ele>70.5</ele>
        <time>2011-06-25T09:13:13Z</time>
      </trkpt>
      <trkpt lat="43.360377" lon="-8.406787">
        <ele>70.5</ele>
        <time>2011-06-25T09:13:14Z</time>
      </trkpt>
      <trkpt lat="43.360230" lon="-8.406730">
        <ele>70.5</ele>
        <time>2011-06-25T09:13:17Z</time>
      </trkpt>
      <trkpt lat="43.360147" lon="-8.406678">
        <ele>70.5</ele>
        <time>2011-06-25T09:13:20Z</time>
      </trkpt>
      <trkpt lat="43.360117" lon="-8.406645">
        <ele>70.5</ele>
        <time>2011-06-25T09:13:21Z</time>
      </trkpt>
      <trkpt lat="43.360078" lon="-8.406618">
        <ele>70.5</ele>
        <time>2011-06-25T09:13:22Z</time>
      </trkpt>
      <trkpt lat="43.360037" lon="-8.406588">
        <ele>70.5</ele>
        <time>2011-06-25T09:13:23Z</time>
      </trkpt>
      <trkpt lat="43.360013" lon="-8.406562">
        <ele>70.5</ele>
        <time>2011-06-25T09:13:23Z</time>
      </trkpt>
      <trkpt lat="43.360007" lon="-8.406520">
        <ele>70.5</ele>
        <time>2011-06-25T09:13:26Z</time>
      </trkpt>
      <trkpt lat="43.360013" lon="-8.406505">
        <ele>70.5</ele>
        <time>2011-06-25T09:13:27Z</time>
      </trkpt>
      <trkpt lat="43.360027" lon="-8.406480">
        <ele>70.5</ele>
        <time>2011-06-25T09:13:27Z</time>
      </trkpt>
      <trkpt lat="43.360037" lon="-8.406455">
        <ele>70.5</ele>
        <time>2011-06-25T09:13:29Z</time>
      </trkpt>
      <trkpt lat="43.360030" lon="-8.406433">
        <ele>70.5</ele>
        <time>2011-06-25T09:13:30Z</time>
      </trkpt>
      <trkpt lat="43.360008" lon="-8.406422">
        <ele>70.5</ele>
        <time>2011-06-25T09:13:31Z</time>
      </trkpt>
      <trkpt lat="43.359778" lon="-8.406230">
        <ele>70.5</ele>
        <time>2011-06-25T09:13:35Z</time>
      </trkpt>
      <trkpt lat="43.359678" lon="-8.406145">
        <ele>70.5</ele>
        <time>2011-06-25T09:13:37Z</time>
      </trkpt>
      <trkpt lat="43.359557" lon="-8.405992">
        <ele>70.5</ele>
        <time>2011-06-25T09:13:39Z</time>
      </trkpt>
      <trkpt lat="43.359493" lon="-8.405937">
        <ele>71.0</ele>
        <time>2011-06-25T09:13:42Z</time>
      </trkpt>
      <trkpt lat="43.359502" lon="-8.405892">
        <ele>71.0</ele>
        <time>2011-06-25T09:13:43Z</time>
      </trkpt>
      <trkpt lat="43.359500" lon="-8.405848">
        <ele>71.0</ele>
        <time>2011-06-25T09:13:44Z</time>
      </trkpt>
      <trkpt lat="43.359512" lon="-8.405802">
        <ele>71.0</ele>
        <time>2011-06-25T09:13:45Z</time>
      </trkpt>
      <trkpt lat="43.359422" lon="-8.405740">
        <ele>71.0</ele>
        <time>2011-06-25T09:13:46Z</time>
      </trkpt>
      <trkpt lat="43.359405" lon="-8.405702">
        <ele>71.0</ele>
        <time>2011-06-25T09:13:48Z</time>
      </trkpt>
      <trkpt lat="43.359378" lon="-8.405688">
        <ele>71.0</ele>
        <time>2011-06-25T09:13:49Z</time>
      </trkpt>
      <trkpt lat="43.359373" lon="-8.405648">
        <ele>71.0</ele>
        <time>2011-06-25T09:13:50Z</time>
      </trkpt>
      <trkpt lat="43.359363" lon="-8.405638">
        <ele>71.0</ele>
        <time>2011-06-25T09:13:52Z</time>
      </trkpt>
      <trkpt lat="43.359375" lon="-8.405682">
        <ele>71.0</ele>
        <time>2011-06-25T09:13:52Z</time>
      </trkpt>
      <trkpt lat="43.359355" lon="-8.405665">
        <ele>71.0</ele>
        <time>2011-06-25T09:13:54Z</time>
      </trkpt>
      <trkpt lat="43.359140" lon="-8.405633">
        <ele>71.0</ele>
        <time>2011-06-25T09:13:57Z</time>
      </trkpt>
      <trkpt lat="43.359002" lon="-8.405650">
        <ele>71.0</ele>
        <time>2011-06-25T09:13:59Z</time>
      </trkpt>
      <trkpt lat="43.358855" lon="-8.405668">
        <ele>71.0</ele>
        <time>2011-06-25T09:14:01Z</time>
      </trkpt>
      <trkpt lat="43.358783" lon="-8.405650">
        <ele>71.0</ele>
        <time>2011-06-25T09:14:02Z</time>
      </trkpt>
      <trkpt lat="43.358728" lon="-8.405720">
        <ele>71.0</ele>
        <time>2011-06-25T09:14:04Z</time>
      </trkpt>
      <trkpt lat="43.358680" lon="-8.405733">
        <ele>71.0</ele>
        <time>2011-06-25T09:14:05Z</time>
      </trkpt>
      <trkpt lat="43.358515" lon="-8.405725">
        <ele>71.0</ele>
        <time>2011-06-25T09:14:07Z</time>
      </trkpt>
      <trkpt lat="43.358408" lon="-8.405700">
        <ele>71.0</ele>
        <time>2011-06-25T09:14:11Z</time>
      </trkpt>
      <trkpt lat="43.358415" lon="-8.405740">
        <ele>71.0</ele>
        <time>2011-06-25T09:14:12Z</time>
      </trkpt>
      <trkpt lat="43.358420" lon="-8.405770">
        <ele>71.0</ele>
        <time>2011-06-25T09:14:13Z</time>
      </trkpt>
      <trkpt lat="43.358203" lon="-8.405770">
        <ele>71.0</ele>
        <time>2011-06-25T09:14:16Z</time>
      </trkpt>
      <trkpt lat="43.358158" lon="-8.405762">
        <ele>71.0</ele>
        <time>2011-06-25T09:14:17Z</time>
      </trkpt>
      <trkpt lat="43.358127" lon="-8.405765">
        <ele>71.0</ele>
        <time>2011-06-25T09:14:18Z</time>
      </trkpt>
      <trkpt lat="43.358092" lon="-8.405770">
        <ele>71.0</ele>
        <time>2011-06-25T09:14:19Z</time>
      </trkpt>
      <trkpt lat="43.358055" lon="-8.405788">
        <ele>71.0</ele>
        <time>2011-06-25T09:14:20Z</time>
      </trkpt>
      <trkpt lat="43.358013" lon="-8.405795">
        <ele>71.0</ele>
        <time>2011-06-25T09:14:20Z</time>
      </trkpt>
      <trkpt lat="43.357972" lon="-8.405812">
        <ele>71.0</ele>
        <time>2011-06-25T09:14:21Z</time>
      </trkpt>
      <trkpt lat="43.357928" lon="-8.405832">
        <ele>71.0</ele>
        <time>2011-06-25T09:14:23Z</time>
      </trkpt>
      <trkpt lat="43.357882" lon="-8.405852">
        <ele>71.0</ele>
        <time>2011-06-25T09:14:24Z</time>
      </trkpt>
      <trkpt lat="43.357837" lon="-8.405862">
        <ele>71.0</ele>
        <time>2011-06-25T09:14:25Z</time>
      </trkpt>
      <trkpt lat="43.357798" lon="-8.405867">
        <ele>71.0</ele>
        <time>2011-06-25T09:14:25Z</time>
      </trkpt>
      <trkpt lat="43.357758" lon="-8.405873">
        <ele>71.0</ele>
        <time>2011-06-25T09:14:27Z</time>
      </trkpt>
      <trkpt lat="43.357718" lon="-8.405880">
        <ele>71.0</ele>
        <time>2011-06-25T09:14:28Z</time>
      </trkpt>
      <trkpt lat="43.357677" lon="-8.405888">
        <ele>71.0</ele>
        <time>2011-06-25T09:14:29Z</time>
      </trkpt>
      <trkpt lat="43.357635" lon="-8.405900">
        <ele>71.0</ele>
        <time>2011-06-25T09:14:30Z</time>
      </trkpt>
      <trkpt lat="43.357595" lon="-8.405913">
        <ele>71.0</ele>
        <time>2011-06-25T09:14:31Z</time>
      </trkpt>
      <trkpt lat="43.357555" lon="-8.405928">
        <ele>71.0</ele>
        <time>2011-06-25T09:14:32Z</time>
      </trkpt>
      <trkpt lat="43.357513" lon="-8.405942">
        <ele>71.0</ele>
        <time>2011-06-25T09:14:32Z</time>
      </trkpt>
      <trkpt lat="43.357472" lon="-8.405953">
        <ele>71.0</ele>
        <time>2011-06-25T09:14:34Z</time>
      </trkpt>
      <trkpt lat="43.357428" lon="-8.405963">
        <ele>71.0</ele>
        <time>2011-06-25T09:14:35Z</time>
      </trkpt>
      <trkpt lat="43.357385" lon="-8.405973">
        <ele>71.0</ele>
        <time>2011-06-25T09:14:36Z</time>
      </trkpt>
      <trkpt lat="43.357342" lon="-8.405982">
        <ele>71.0</ele>
        <time>2011-06-25T09:14:37Z</time>
      </trkpt>
      <trkpt lat="43.357298" lon="-8.405997">
        <ele>71.0</ele>
        <time>2011-06-25T09:14:38Z</time>
      </trkpt>
      <trkpt lat="43.357255" lon="-8.406015">
        <ele>71.0</ele>
        <time>2011-06-25T09:14:39Z</time>
      </trkpt>
      <trkpt lat="43.357215" lon="-8.406028">
        <ele>71.0</ele>
        <time>2011-06-25T09:14:40Z</time>
      </trkpt>
      <trkpt lat="43.357180" lon="-8.406040">
        <ele>71.0</ele>
        <time>2011-06-25T09:14:41Z</time>
      </trkpt>
      <trkpt lat="43.357147" lon="-8.406050">
        <ele>71.0</ele>
        <time>2011-06-25T09:14:42Z</time>
      </trkpt>
      <trkpt lat="43.357113" lon="-8.406057">
        <ele>71.0</ele>
        <time>2011-06-25T09:14:43Z</time>
      </trkpt>
      <trkpt lat="43.357088" lon="-8.406040">
        <ele>71.0</ele>
        <time>2011-06-25T09:14:45Z</time>
      </trkpt>
      <trkpt lat="43.357057" lon="-8.406047">
        <ele>71.0</ele>
        <time>2011-06-25T09:14:46Z</time>
      </trkpt>
      <trkpt lat="43.357012" lon="-8.406060">
        <ele>71.0</ele>
        <time>2011-06-25T09:14:47Z</time>
      </trkpt>
      <trkpt lat="43.356985" lon="-8.406063">
        <ele>71.0</ele>
        <time>2011-06-25T09:14:47Z</time>
      </trkpt>
      <trkpt lat="43.356955" lon="-8.406070">
        <ele>71.0</ele>
        <time>2011-06-25T09:14:49Z</time>
      </trkpt>
      <trkpt lat="43.356923" lon="-8.406080">
        <ele>71.0</ele>
        <time>2011-06-25T09:14:49Z</time>
      </trkpt>
      <trkpt lat="43.356908" lon="-8.406068">
        <ele>71.0</ele>
        <time>2011-06-25T09:14:51Z</time>
      </trkpt>
      <trkpt lat="43.356885" lon="-8.406088">
        <ele>71.0</ele>
        <time>2011-06-25T09:14:52Z</time>
      </trkpt>
      <trkpt lat="43.356847" lon="-8.406097">
        <ele>71.0</ele>
        <time>2011-06-25T09:14:53Z</time>
      </trkpt>
      <trkpt lat="43.356808" lon="-8.406108">
        <ele>71.0</ele>
        <time>2011-06-25T09:14:54Z</time>
      </trkpt>
      <trkpt lat="43.356630" lon="-8.405987">
        <ele>71.0</ele>
        <time>2011-06-25T09:14:57Z</time>
      </trkpt>
      <trkpt lat="43.356537" lon="-8.405940">
        <ele>71.0</ele>
        <time>2011-06-25T09:14:59Z</time>
      </trkpt>
      <trkpt lat="43.356507" lon="-8.405943">
        <ele>71.0</ele>
        <time>2011-06-25T09:15:00Z</time>
      </trkpt>
      <trkpt lat="43.356477" lon="-8.405945">
        <ele>71.0</ele>
        <time>2011-06-25T09:15:01Z</time>
      </trkpt>
      <trkpt lat="43.356450" lon="-8.405945">
        <ele>71.0</ele>
        <time>2011-06-25T09:15:02Z</time>
      </trkpt>
      <trkpt lat="43.356415" lon="-8.405940">
        <ele>71.0</ele>
        <time>2011-06-25T09:15:03Z</time>
      </trkpt>
      <trkpt lat="43.356373" lon="-8.405942">
        <ele>71.0</ele>
        <time>2011-06-25T09:15:04Z</time>
      </trkpt>
      <trkpt lat="43.356323" lon="-8.405935">
        <ele>71.0</ele>
        <time>2011-06-25T09:15:04Z</time>
      </trkpt>
      <trkpt lat="43.356278" lon="-8.405935">
        <ele>71.0</ele>
        <time>2011-06-25T09:15:06Z</time>
      </trkpt>
      <trkpt lat="43.356173" lon="-8.405905">
        <ele>71.0</ele>
        <time>2011-06-25T09:15:08Z</time>
      </trkpt>
      <trkpt lat="43.356132" lon="-8.405910">
        <ele>71.0</ele>
        <time>2011-06-25T09:15:09Z</time>
      </trkpt>
      <trkpt lat="43.356090" lon="-8.405908">
        <ele>71.0</ele>
        <time>2011-06-25T09:15:10Z</time>
      </trkpt>
      <trkpt lat="43.356045" lon="-8.405902">
        <ele>71.0</ele>
        <time>2011-06-25T09:15:11Z</time>
      </trkpt>
      <trkpt lat="43.356003" lon="-8.405905">
        <ele>71.0</ele>
        <time>2011-06-25T09:15:12Z</time>
      </trkpt>
      <trkpt lat="43.355905" lon="-8.405902">
        <ele>71.0</ele>
        <time>2011-06-25T09:15:14Z</time>
      </trkpt>
      <trkpt lat="43.355875" lon="-8.405917">
        <ele>71.0</ele>
        <time>2011-06-25T09:15:15Z</time>
      </trkpt>
      <trkpt lat="43.355835" lon="-8.405928">
        <ele>71.0</ele>
        <time>2011-06-25T09:15:16Z</time>
      </trkpt>
      <trkpt lat="43.355793" lon="-8.405933">
        <ele>71.0</ele>
        <time>2011-06-25T09:15:17Z</time>
      </trkpt>
      <trkpt lat="43.355758" lon="-8.405950">
        <ele>71.0</ele>
        <time>2011-06-25T09:15:18Z</time>
      </trkpt>
      <trkpt lat="43.355723" lon="-8.405968">
        <ele>71.0</ele>
        <time>2011-06-25T09:15:19Z</time>
      </trkpt>
      <trkpt lat="43.355685" lon="-8.405992">
        <ele>71.0</ele>
        <time>2011-06-25T09:15:20Z</time>
      </trkpt>
      <trkpt lat="43.355650" lon="-8.406022">
        <ele>71.0</ele>
        <time>2011-06-25T09:15:21Z</time>
      </trkpt>
      <trkpt lat="43.355618" lon="-8.406055">
        <ele>71.0</ele>
        <time>2011-06-25T09:15:22Z</time>
      </trkpt>
      <trkpt lat="43.355585" lon="-8.406093">
        <ele>71.0</ele>
        <time>2011-06-25T09:15:23Z</time>
      </trkpt>
      <trkpt lat="43.355540" lon="-8.406145">
        <ele>71.0</ele>
        <time>2011-06-25T09:15:24Z</time>
      </trkpt>
      <trkpt lat="43.355493" lon="-8.406162">
        <ele>71.0</ele>
        <time>2011-06-25T09:15:25Z</time>
      </trkpt>
      <trkpt lat="43.355435" lon="-8.406173">
        <ele>71.0</ele>
        <time>2011-06-25T09:15:27Z</time>
      </trkpt>
      <trkpt lat="43.355372" lon="-8.406185">
        <ele>71.0</ele>
        <time>2011-06-25T09:15:28Z</time>
      </trkpt>
      <trkpt lat="43.355335" lon="-8.406213">
        <ele>71.0</ele>
        <time>2011-06-25T09:15:28Z</time>
      </trkpt>
      <trkpt lat="43.355283" lon="-8.406233">
        <ele>71.0</ele>
        <time>2011-06-25T09:15:29Z</time>
      </trkpt>
      <trkpt lat="43.355230" lon="-8.406252">
        <ele>71.0</ele>
        <time>2011-06-25T09:15:31Z</time>
      </trkpt>
      <trkpt lat="43.355172" lon="-8.406265">
        <ele>71.0</ele>
        <time>2011-06-25T09:15:31Z</time>
      </trkpt>
      <trkpt lat="43.355143" lon="-8.406293">
        <ele>71.0</ele>
        <time>2011-06-25T09:15:32Z</time>
      </trkpt>
      <trkpt lat="43.355138" lon="-8.406342">
        <ele>71.0</ele>
        <time>2011-06-25T09:15:34Z</time>
      </trkpt>
      <trkpt lat="43.355115" lon="-8.406378">
        <ele>71.0</ele>
        <time>2011-06-25T09:15:35Z</time>
      </trkpt>
      <trkpt lat="43.355083" lon="-8.406408">
        <ele>71.0</ele>
        <time>2011-06-25T09:15:36Z</time>
      </trkpt>
      <trkpt lat="43.355043" lon="-8.406425">
        <ele>71.0</ele>
        <time>2011-06-25T09:15:37Z</time>
      </trkpt>
      <trkpt lat="43.355002" lon="-8.406443">
        <ele>71.0</ele>
        <time>2011-06-25T09:15:37Z</time>
      </trkpt>
      <trkpt lat="43.354958" lon="-8.406462">
        <ele>71.0</ele>
        <time>2011-06-25T09:15:39Z</time>
      </trkpt>
      <trkpt lat="43.354907" lon="-8.406472">
        <ele>71.0</ele>
        <time>2011-06-25T09:15:39Z</time>
      </trkpt>
      <trkpt lat="43.354852" lon="-8.406483">
        <ele>71.0</ele>
        <time>2011-06-25T09:15:41Z</time>
      </trkpt>
      <trkpt lat="43.354803" lon="-8.406498">
        <ele>71.0</ele>
        <time>2011-06-25T09:15:41Z</time>
      </trkpt>
      <trkpt lat="43.354757" lon="-8.406513">
        <ele>71.0</ele>
        <time>2011-06-25T09:15:43Z</time>
      </trkpt>
      <trkpt lat="43.354710" lon="-8.406527">
        <ele>71.0</ele>
        <time>2011-06-25T09:15:44Z</time>
      </trkpt>
      <trkpt lat="43.354662" lon="-8.406538">
        <ele>71.0</ele>
        <time>2011-06-25T09:15:45Z</time>
      </trkpt>
      <trkpt lat="43.354620" lon="-8.406550">
        <ele>71.0</ele>
        <time>2011-06-25T09:15:45Z</time>
      </trkpt>
      <trkpt lat="43.354577" lon="-8.406563">
        <ele>71.0</ele>
        <time>2011-06-25T09:15:47Z</time>
      </trkpt>
      <trkpt lat="43.354533" lon="-8.406577">
        <ele>71.0</ele>
        <time>2011-06-25T09:15:48Z</time>
      </trkpt>
      <trkpt lat="43.354495" lon="-8.406588">
        <ele>71.0</ele>
        <time>2011-06-25T09:15:48Z</time>
      </trkpt>
      <trkpt lat="43.354453" lon="-8.406600">
        <ele>71.0</ele>
        <time>2011-06-25T09:15:50Z</time>
      </trkpt>
      <trkpt lat="43.354413" lon="-8.406613">
        <ele>71.0</ele>
        <time>2011-06-25T09:15:51Z</time>
      </trkpt>
      <trkpt lat="43.354368" lon="-8.406628">
        <ele>71.0</ele>
        <time>2011-06-25T09:15:52Z</time>
      </trkpt>
      <trkpt lat="43.354328" lon="-8.406642">
        <ele>71.0</ele>
        <time>2011-06-25T09:15:53Z</time>
      </trkpt>
      <trkpt lat="43.354280" lon="-8.406655">
        <ele>71.0</ele>
        <time>2011-06-25T09:15:54Z</time>
      </trkpt>
      <trkpt lat="43.354232" lon="-8.406665">
        <ele>71.0</ele>
        <time>2011-06-25T09:15:54Z</time>
      </trkpt>
      <trkpt lat="43.354187" lon="-8.406672">
        <ele>71.0</ele>
        <time>2011-06-25T09:15:56Z</time>
      </trkpt>
      <trkpt lat="43.354143" lon="-8.406680">
        <ele>71.0</ele>
        <time>2011-06-25T09:15:57Z</time>
      </trkpt>
      <trkpt lat="43.354098" lon="-8.406688">
        <ele>71.0</ele>
        <time>2011-06-25T09:15:58Z</time>
      </trkpt>
      <trkpt lat="43.354053" lon="-8.406703">
        <ele>71.0</ele>
        <time>2011-06-25T09:15:59Z</time>
      </trkpt>
      <trkpt lat="43.354008" lon="-8.406715">
        <ele>71.0</ele>
        <time>2011-06-25T09:16:00Z</time>
      </trkpt>
      <trkpt lat="43.353965" lon="-8.406727">
        <ele>71.0</ele>
        <time>2011-06-25T09:16:01Z</time>
      </trkpt>
      <trkpt lat="43.353922" lon="-8.406737">
        <ele>71.0</ele>
        <time>2011-06-25T09:16:02Z</time>
      </trkpt>
      <trkpt lat="43.353875" lon="-8.406752">
        <ele>71.0</ele>
        <time>2011-06-25T09:16:03Z</time>
      </trkpt>
      <trkpt lat="43.353832" lon="-8.406760">
        <ele>71.0</ele>
        <time>2011-06-25T09:16:04Z</time>
      </trkpt>
      <trkpt lat="43.353788" lon="-8.406772">
        <ele>71.0</ele>
        <time>2011-06-25T09:16:05Z</time>
      </trkpt>
      <trkpt lat="43.353742" lon="-8.406785">
        <ele>71.0</ele>
        <time>2011-06-25T09:16:06Z</time>
      </trkpt>
      <trkpt lat="43.353697" lon="-8.406798">
        <ele>71.0</ele>
        <time>2011-06-25T09:16:06Z</time>
      </trkpt>
      <trkpt lat="43.353652" lon="-8.406813">
        <ele>71.0</ele>
        <time>2011-06-25T09:16:07Z</time>
      </trkpt>
      <trkpt lat="43.353605" lon="-8.406827">
        <ele>71.0</ele>
        <time>2011-06-25T09:16:08Z</time>
      </trkpt>
      <trkpt lat="43.353555" lon="-8.406838">
        <ele>71.0</ele>
        <time>2011-06-25T09:16:09Z</time>
      </trkpt>
      <trkpt lat="43.353503" lon="-8.406852">
        <ele>71.0</ele>
        <time>2011-06-25T09:16:11Z</time>
      </trkpt>
      <trkpt lat="43.353438" lon="-8.406853">
        <ele>71.0</ele>
        <time>2011-06-25T09:16:13Z</time>
      </trkpt>
      <trkpt lat="43.353390" lon="-8.406865">
        <ele>71.0</ele>
        <time>2011-06-25T09:16:13Z</time>
      </trkpt>
      <trkpt lat="43.353342" lon="-8.406877">
        <ele>71.0</ele>
        <time>2011-06-25T09:16:15Z</time>
      </trkpt>
      <trkpt lat="43.353293" lon="-8.406890">
        <ele>71.0</ele>
        <time>2011-06-25T09:16:16Z</time>
      </trkpt>
      <trkpt lat="43.353245" lon="-8.406903">
        <ele>71.0</ele>
        <time>2011-06-25T09:16:16Z</time>
      </trkpt>
      <trkpt lat="43.353197" lon="-8.406915">
        <ele>71.0</ele>
        <time>2011-06-25T09:16:18Z</time>
      </trkpt>
      <trkpt lat="43.353148" lon="-8.406925">
        <ele>71.0</ele>
        <time>2011-06-25T09:16:18Z</time>
      </trkpt>
      <trkpt lat="43.353100" lon="-8.406935">
        <ele>71.0</ele>
        <time>2011-06-25T09:16:19Z</time>
      </trkpt>
      <trkpt lat="43.353055" lon="-8.406945">
        <ele>71.0</ele>
        <time>2011-06-25T09:16:21Z</time>
      </trkpt>
      <trkpt lat="43.353007" lon="-8.406957">
        <ele>71.0</ele>
        <time>2011-06-25T09:16:21Z</time>
      </trkpt>
      <trkpt lat="43.352962" lon="-8.406968">
        <ele>71.0</ele>
        <time>2011-06-25T09:16:23Z</time>
      </trkpt>
      <trkpt lat="43.352908" lon="-8.406985">
        <ele>71.0</ele>
        <time>2011-06-25T09:16:23Z</time>
      </trkpt>
      <trkpt lat="43.352862" lon="-8.406997">
        <ele>71.0</ele>
        <time>2011-06-25T09:16:24Z</time>
      </trkpt>
      <trkpt lat="43.352817" lon="-8.407010">
        <ele>71.0</ele>
        <time>2011-06-25T09:16:26Z</time>
      </trkpt>
      <trkpt lat="43.352770" lon="-8.407023">
        <ele>71.0</ele>
        <time>2011-06-25T09:16:27Z</time>
      </trkpt>
      <trkpt lat="43.352723" lon="-8.407035">
        <ele>71.0</ele>
        <time>2011-06-25T09:16:28Z</time>
      </trkpt>
      <trkpt lat="43.352677" lon="-8.407047">
        <ele>71.0</ele>
        <time>2011-06-25T09:16:29Z</time>
      </trkpt>
      <trkpt lat="43.352627" lon="-8.407058">
        <ele>71.0</ele>
        <time>2011-06-25T09:16:30Z</time>
      </trkpt>
      <trkpt lat="43.352580" lon="-8.407070">
        <ele>71.0</ele>
        <time>2011-06-25T09:16:30Z</time>
      </trkpt>
      <trkpt lat="43.352532" lon="-8.407080">
        <ele>71.0</ele>
        <time>2011-06-25T09:16:32Z</time>
      </trkpt>
      <trkpt lat="43.352480" lon="-8.407090">
        <ele>71.0</ele>
        <time>2011-06-25T09:16:32Z</time>
      </trkpt>
      <trkpt lat="43.352430" lon="-8.407100">
        <ele>71.0</ele>
        <time>2011-06-25T09:16:33Z</time>
      </trkpt>
      <trkpt lat="43.352380" lon="-8.407115">
        <ele>71.0</ele>
        <time>2011-06-25T09:16:34Z</time>
      </trkpt>
      <trkpt lat="43.352330" lon="-8.407132">
        <ele>71.0</ele>
        <time>2011-06-25T09:16:36Z</time>
      </trkpt>
      <trkpt lat="43.352278" lon="-8.407148">
        <ele>71.0</ele>
        <time>2011-06-25T09:16:37Z</time>
      </trkpt>
      <trkpt lat="43.352227" lon="-8.407170">
        <ele>71.0</ele>
        <time>2011-06-25T09:16:38Z</time>
      </trkpt>
      <trkpt lat="43.352177" lon="-8.407193">
        <ele>71.0</ele>
        <time>2011-06-25T09:16:38Z</time>
      </trkpt>
      <trkpt lat="43.352127" lon="-8.407208">
        <ele>71.0</ele>
        <time>2011-06-25T09:16:39Z</time>
      </trkpt>
      <trkpt lat="43.352073" lon="-8.407217">
        <ele>71.0</ele>
        <time>2011-06-25T09:16:40Z</time>
      </trkpt>
      <trkpt lat="43.352023" lon="-8.407220">
        <ele>71.0</ele>
        <time>2011-06-25T09:16:42Z</time>
      </trkpt>
      <trkpt lat="43.351982" lon="-8.407222">
        <ele>71.0</ele>
        <time>2011-06-25T09:16:43Z</time>
      </trkpt>
      <trkpt lat="43.351922" lon="-8.407227">
        <ele>71.0</ele>
        <time>2011-06-25T09:16:44Z</time>
      </trkpt>
      <trkpt lat="43.351882" lon="-8.407228">
        <ele>71.0</ele>
        <time>2011-06-25T09:16:46Z</time>
      </trkpt>
      <trkpt lat="43.351835" lon="-8.407258">
        <ele>71.0</ele>
        <time>2011-06-25T09:16:49Z</time>
      </trkpt>
      <trkpt lat="43.351772" lon="-8.407303">
        <ele>71.0</ele>
        <time>2011-06-25T09:16:50Z</time>
      </trkpt>
      <trkpt lat="43.351712" lon="-8.407327">
        <ele>71.0</ele>
        <time>2011-06-25T09:16:51Z</time>
      </trkpt>
      <trkpt lat="43.351648" lon="-8.407347">
        <ele>71.5</ele>
        <time>2011-06-25T09:16:52Z</time>
      </trkpt>
      <trkpt lat="43.351585" lon="-8.407362">
        <ele>71.5</ele>
        <time>2011-06-25T09:16:52Z</time>
      </trkpt>
      <trkpt lat="43.351523" lon="-8.407372">
        <ele>71.5</ele>
        <time>2011-06-25T09:16:54Z</time>
      </trkpt>
      <trkpt lat="43.351462" lon="-8.407385">
        <ele>71.5</ele>
        <time>2011-06-25T09:16:55Z</time>
      </trkpt>
      <trkpt lat="43.351400" lon="-8.407397">
        <ele>71.5</ele>
        <time>2011-06-25T09:16:56Z</time>
      </trkpt>
      <trkpt lat="43.351270" lon="-8.407417">
        <ele>71.5</ele>
        <time>2011-06-25T09:16:58Z</time>
      </trkpt>
      <trkpt lat="43.351212" lon="-8.407425">
        <ele>71.5</ele>
        <time>2011-06-25T09:16:58Z</time>
      </trkpt>
      <trkpt lat="43.351155" lon="-8.407435">
        <ele>71.5</ele>
        <time>2011-06-25T09:17:00Z</time>
      </trkpt>
      <trkpt lat="43.351098" lon="-8.407450">
        <ele>71.5</ele>
        <time>2011-06-25T09:17:00Z</time>
      </trkpt>
      <trkpt lat="43.351037" lon="-8.407475">
        <ele>71.5</ele>
        <time>2011-06-25T09:17:02Z</time>
      </trkpt>
      <trkpt lat="43.350998" lon="-8.407510">
        <ele>71.5</ele>
        <time>2011-06-25T09:17:02Z</time>
      </trkpt>
      <trkpt lat="43.350962" lon="-8.407545">
        <ele>71.5</ele>
        <time>2011-06-25T09:17:04Z</time>
      </trkpt>
      <trkpt lat="43.350908" lon="-8.407562">
        <ele>71.5</ele>
        <time>2011-06-25T09:17:04Z</time>
      </trkpt>
      <trkpt lat="43.350857" lon="-8.407580">
        <ele>71.5</ele>
        <time>2011-06-25T09:17:06Z</time>
      </trkpt>
      <trkpt lat="43.350798" lon="-8.407590">
        <ele>71.5</ele>
        <time>2011-06-25T09:17:07Z</time>
      </trkpt>
      <trkpt lat="43.350742" lon="-8.407590">
        <ele>71.5</ele>
        <time>2011-06-25T09:17:08Z</time>
      </trkpt>
      <trkpt lat="43.350670" lon="-8.407637">
        <ele>71.5</ele>
        <time>2011-06-25T09:17:10Z</time>
      </trkpt>
      <trkpt lat="43.350537" lon="-8.407672">
        <ele>71.5</ele>
        <time>2011-06-25T09:17:12Z</time>
      </trkpt>
      <trkpt lat="43.350395" lon="-8.407702">
        <ele>71.5</ele>
        <time>2011-06-25T09:17:14Z</time>
      </trkpt>
      <trkpt lat="43.350337" lon="-8.407708">
        <ele>71.5</ele>
        <time>2011-06-25T09:17:15Z</time>
      </trkpt>
      <trkpt lat="43.350277" lon="-8.407718">
        <ele>71.5</ele>
        <time>2011-06-25T09:17:16Z</time>
      </trkpt>
      <trkpt lat="43.350212" lon="-8.407727">
        <ele>71.5</ele>
        <time>2011-06-25T09:17:17Z</time>
      </trkpt>
      <trkpt lat="43.350155" lon="-8.407737">
        <ele>71.5</ele>
        <time>2011-06-25T09:17:18Z</time>
      </trkpt>
      <trkpt lat="43.349988" lon="-8.407718">
        <ele>71.5</ele>
        <time>2011-06-25T09:17:20Z</time>
      </trkpt>
      <trkpt lat="43.349930" lon="-8.407727">
        <ele>71.5</ele>
        <time>2011-06-25T09:17:21Z</time>
      </trkpt>
      <trkpt lat="43.349873" lon="-8.407730">
        <ele>71.5</ele>
        <time>2011-06-25T09:17:22Z</time>
      </trkpt>
      <trkpt lat="43.349710" lon="-8.407695">
        <ele>71.5</ele>
        <time>2011-06-25T09:17:24Z</time>
      </trkpt>
      <trkpt lat="43.349528" lon="-8.407743">
        <ele>71.5</ele>
        <time>2011-06-25T09:17:26Z</time>
      </trkpt>
      <trkpt lat="43.349473" lon="-8.407755">
        <ele>71.5</ele>
        <time>2011-06-25T09:17:28Z</time>
      </trkpt>
      <trkpt lat="43.349423" lon="-8.407765">
        <ele>71.5</ele>
        <time>2011-06-25T09:17:29Z</time>
      </trkpt>
      <trkpt lat="43.349372" lon="-8.407782">
        <ele>71.5</ele>
        <time>2011-06-25T09:17:30Z</time>
      </trkpt>
      <trkpt lat="43.349323" lon="-8.407797">
        <ele>71.5</ele>
        <time>2011-06-25T09:17:31Z</time>
      </trkpt>
      <trkpt lat="43.349277" lon="-8.407815">
        <ele>71.5</ele>
        <time>2011-06-25T09:17:32Z</time>
      </trkpt>
      <trkpt lat="43.349232" lon="-8.407833">
        <ele>71.5</ele>
        <time>2011-06-25T09:17:33Z</time>
      </trkpt>
      <trkpt lat="43.349187" lon="-8.407850">
        <ele>71.5</ele>
        <time>2011-06-25T09:17:34Z</time>
      </trkpt>
      <trkpt lat="43.349140" lon="-8.407868">
        <ele>71.5</ele>
        <time>2011-06-25T09:17:35Z</time>
      </trkpt>
      <trkpt lat="43.349092" lon="-8.407888">
        <ele>71.5</ele>
        <time>2011-06-25T09:17:35Z</time>
      </trkpt>
      <trkpt lat="43.349047" lon="-8.407902">
        <ele>71.5</ele>
        <time>2011-06-25T09:17:37Z</time>
      </trkpt>
      <trkpt lat="43.348998" lon="-8.407912">
        <ele>71.5</ele>
        <time>2011-06-25T09:17:38Z</time>
      </trkpt>
      <trkpt lat="43.348947" lon="-8.407923">
        <ele>71.5</ele>
        <time>2011-06-25T09:17:39Z</time>
      </trkpt>
      <trkpt lat="43.348897" lon="-8.407935">
        <ele>71.5</ele>
        <time>2011-06-25T09:17:39Z</time>
      </trkpt>
      <trkpt lat="43.348845" lon="-8.407948">
        <ele>71.5</ele>
        <time>2011-06-25T09:17:41Z</time>
      </trkpt>
    </trkseg>
  </trk>
  <trk>
    <name>T2067676-1</name>
    <cmt>saida con compañeiros do C.C.Arteixo polos arredores da Coruña</cmt>
    <desc>saida con compañeiros do C.C.Arteixo polos arredores da Coruña</desc>
    <trkseg>
      <trkpt lat="43.348793" lon="-8.407963">
        <ele>71.5</ele>
        <time>2011-06-25T09:17:42Z</time>
      </trkpt>
      <trkpt lat="43.348740" lon="-8.407977">
        <ele>71.5</ele>
        <time>2011-06-25T09:17:43Z</time>
      </trkpt>
      <trkpt lat="43.348687" lon="-8.407990">
        <ele>71.5</ele>
        <time>2011-06-25T09:17:44Z</time>
      </trkpt>
      <trkpt lat="43.348630" lon="-8.408005">
        <ele>71.5</ele>
        <time>2011-06-25T09:17:44Z</time>
      </trkpt>
      <trkpt lat="43.348575" lon="-8.408020">
        <ele>71.5</ele>
        <time>2011-06-25T09:17:46Z</time>
      </trkpt>
      <trkpt lat="43.348518" lon="-8.408037">
        <ele>71.5</ele>
        <time>2011-06-25T09:17:46Z</time>
      </trkpt>
      <trkpt lat="43.348463" lon="-8.408050">
        <ele>71.5</ele>
        <time>2011-06-25T09:17:48Z</time>
      </trkpt>
      <trkpt lat="43.348405" lon="-8.408063">
        <ele>71.5</ele>
        <time>2011-06-25T09:17:49Z</time>
      </trkpt>
      <trkpt lat="43.348348" lon="-8.408078">
        <ele>71.5</ele>
        <time>2011-06-25T09:17:50Z</time>
      </trkpt>
      <trkpt lat="43.348292" lon="-8.408090">
        <ele>71.5</ele>
        <time>2011-06-25T09:17:51Z</time>
      </trkpt>
      <trkpt lat="43.348237" lon="-8.408107">
        <ele>71.5</ele>
        <time>2011-06-25T09:17:52Z</time>
      </trkpt>
      <trkpt lat="43.348183" lon="-8.408122">
        <ele>71.5</ele>
        <time>2011-06-25T09:17:53Z</time>
      </trkpt>
      <trkpt lat="43.348128" lon="-8.408137">
        <ele>71.5</ele>
        <time>2011-06-25T09:17:53Z</time>
      </trkpt>
      <trkpt lat="43.348075" lon="-8.408150">
        <ele>71.5</ele>
        <time>2011-06-25T09:17:55Z</time>
      </trkpt>
      <trkpt lat="43.348022" lon="-8.408163">
        <ele>71.5</ele>
        <time>2011-06-25T09:17:56Z</time>
      </trkpt>
      <trkpt lat="43.347968" lon="-8.408175">
        <ele>71.5</ele>
        <time>2011-06-25T09:17:57Z</time>
      </trkpt>
      <trkpt lat="43.347920" lon="-8.408190">
        <ele>71.5</ele>
        <time>2011-06-25T09:17:57Z</time>
      </trkpt>
      <trkpt lat="43.347870" lon="-8.408203">
        <ele>71.5</ele>
        <time>2011-06-25T09:17:59Z</time>
      </trkpt>
      <trkpt lat="43.347817" lon="-8.408213">
        <ele>71.5</ele>
        <time>2011-06-25T09:17:59Z</time>
      </trkpt>
      <trkpt lat="43.347763" lon="-8.408225">
        <ele>71.5</ele>
        <time>2011-06-25T09:18:00Z</time>
      </trkpt>
      <trkpt lat="43.347708" lon="-8.408235">
        <ele>71.5</ele>
        <time>2011-06-25T09:18:02Z</time>
      </trkpt>
      <trkpt lat="43.347653" lon="-8.408250">
        <ele>71.5</ele>
        <time>2011-06-25T09:18:03Z</time>
      </trkpt>
      <trkpt lat="43.347597" lon="-8.408263">
        <ele>71.5</ele>
        <time>2011-06-25T09:18:04Z</time>
      </trkpt>
      <trkpt lat="43.347538" lon="-8.408275">
        <ele>71.5</ele>
        <time>2011-06-25T09:18:05Z</time>
      </trkpt>
      <trkpt lat="43.347478" lon="-8.408288">
        <ele>71.5</ele>
        <time>2011-06-25T09:18:06Z</time>
      </trkpt>
      <trkpt lat="43.347422" lon="-8.408302">
        <ele>71.5</ele>
        <time>2011-06-25T09:18:07Z</time>
      </trkpt>
      <trkpt lat="43.347365" lon="-8.408315">
        <ele>71.5</ele>
        <time>2011-06-25T09:18:08Z</time>
      </trkpt>
      <trkpt lat="43.347308" lon="-8.408330">
        <ele>72.0</ele>
        <time>2011-06-25T09:18:09Z</time>
      </trkpt>
      <trkpt lat="43.347250" lon="-8.408343">
        <ele>72.0</ele>
        <time>2011-06-25T09:18:10Z</time>
      </trkpt>
      <trkpt lat="43.347193" lon="-8.408358">
        <ele>72.0</ele>
        <time>2011-06-25T09:18:11Z</time>
      </trkpt>
      <trkpt lat="43.347137" lon="-8.408372">
        <ele>72.0</ele>
        <time>2011-06-25T09:18:12Z</time>
      </trkpt>
      <trkpt lat="43.347083" lon="-8.408383">
        <ele>72.0</ele>
        <time>2011-06-25T09:18:12Z</time>
      </trkpt>
      <trkpt lat="43.347033" lon="-8.408395">
        <ele>72.0</ele>
        <time>2011-06-25T09:18:14Z</time>
      </trkpt>
      <trkpt lat="43.346980" lon="-8.408410">
        <ele>72.0</ele>
        <time>2011-06-25T09:18:15Z</time>
      </trkpt>
      <trkpt lat="43.346925" lon="-8.408422">
        <ele>72.0</ele>
        <time>2011-06-25T09:18:16Z</time>
      </trkpt>
      <trkpt lat="43.346868" lon="-8.408435">
        <ele>72.0</ele>
        <time>2011-06-25T09:18:16Z</time>
      </trkpt>
      <trkpt lat="43.346810" lon="-8.408452">
        <ele>72.0</ele>
        <time>2011-06-25T09:18:18Z</time>
      </trkpt>
      <trkpt lat="43.346748" lon="-8.408465">
        <ele>72.0</ele>
        <time>2011-06-25T09:18:18Z</time>
      </trkpt>
      <trkpt lat="43.346687" lon="-8.408480">
        <ele>72.0</ele>
        <time>2011-06-25T09:18:20Z</time>
      </trkpt>
      <trkpt lat="43.346627" lon="-8.408495">
        <ele>72.0</ele>
        <time>2011-06-25T09:18:21Z</time>
      </trkpt>
      <trkpt lat="43.346567" lon="-8.408510">
        <ele>72.0</ele>
        <time>2011-06-25T09:18:22Z</time>
      </trkpt>
      <trkpt lat="43.346507" lon="-8.408523">
        <ele>72.0</ele>
        <time>2011-06-25T09:18:23Z</time>
      </trkpt>
      <trkpt lat="43.346447" lon="-8.408538">
        <ele>72.0</ele>
        <time>2011-06-25T09:18:24Z</time>
      </trkpt>
      <trkpt lat="43.346328" lon="-8.408567">
        <ele>72.0</ele>
        <time>2011-06-25T09:18:28Z</time>
      </trkpt>
      <trkpt lat="43.346270" lon="-8.408582">
        <ele>72.0</ele>
        <time>2011-06-25T09:18:29Z</time>
      </trkpt>
      <trkpt lat="43.346212" lon="-8.408597">
        <ele>72.0</ele>
        <time>2011-06-25T09:18:30Z</time>
      </trkpt>
      <trkpt lat="43.346157" lon="-8.408612">
        <ele>72.0</ele>
        <time>2011-06-25T09:18:31Z</time>
      </trkpt>
      <trkpt lat="43.346100" lon="-8.408627">
        <ele>72.0</ele>
        <time>2011-06-25T09:18:32Z</time>
      </trkpt>
      <trkpt lat="43.346038" lon="-8.408640">
        <ele>72.0</ele>
        <time>2011-06-25T09:18:33Z</time>
      </trkpt>
      <trkpt lat="43.345982" lon="-8.408655">
        <ele>72.0</ele>
        <time>2011-06-25T09:18:34Z</time>
      </trkpt>
      <trkpt lat="43.345927" lon="-8.408665">
        <ele>72.0</ele>
        <time>2011-06-25T09:18:35Z</time>
      </trkpt>
      <trkpt lat="43.345873" lon="-8.408675">
        <ele>72.0</ele>
        <time>2011-06-25T09:18:36Z</time>
      </trkpt>
      <trkpt lat="43.345818" lon="-8.408683">
        <ele>72.0</ele>
        <time>2011-06-25T09:18:37Z</time>
      </trkpt>
      <trkpt lat="43.345765" lon="-8.408695">
        <ele>72.0</ele>
        <time>2011-06-25T09:18:38Z</time>
      </trkpt>
      <trkpt lat="43.345693" lon="-8.408742">
        <ele>72.0</ele>
        <time>2011-06-25T09:18:40Z</time>
      </trkpt>
      <trkpt lat="43.345645" lon="-8.408757">
        <ele>72.0</ele>
        <time>2011-06-25T09:18:41Z</time>
      </trkpt>
      <trkpt lat="43.345593" lon="-8.408772">
        <ele>72.0</ele>
        <time>2011-06-25T09:18:42Z</time>
      </trkpt>
      <trkpt lat="43.345542" lon="-8.408783">
        <ele>72.0</ele>
        <time>2011-06-25T09:18:43Z</time>
      </trkpt>
      <trkpt lat="43.345487" lon="-8.408795">
        <ele>72.0</ele>
        <time>2011-06-25T09:18:44Z</time>
      </trkpt>
      <trkpt lat="43.345432" lon="-8.408803">
        <ele>72.0</ele>
        <time>2011-06-25T09:18:45Z</time>
      </trkpt>
      <trkpt lat="43.345373" lon="-8.408813">
        <ele>72.0</ele>
        <time>2011-06-25T09:18:46Z</time>
      </trkpt>
      <trkpt lat="43.345312" lon="-8.408822">
        <ele>72.0</ele>
        <time>2011-06-25T09:18:47Z</time>
      </trkpt>
      <trkpt lat="43.345252" lon="-8.408835">
        <ele>72.0</ele>
        <time>2011-06-25T09:18:48Z</time>
      </trkpt>
      <trkpt lat="43.345190" lon="-8.408848">
        <ele>72.0</ele>
        <time>2011-06-25T09:18:49Z</time>
      </trkpt>
      <trkpt lat="43.345130" lon="-8.408862">
        <ele>72.0</ele>
        <time>2011-06-25T09:18:50Z</time>
      </trkpt>
      <trkpt lat="43.345068" lon="-8.408877">
        <ele>72.0</ele>
        <time>2011-06-25T09:18:51Z</time>
      </trkpt>
      <trkpt lat="43.345005" lon="-8.408888">
        <ele>72.0</ele>
        <time>2011-06-25T09:18:52Z</time>
      </trkpt>
      <trkpt lat="43.344942" lon="-8.408903">
        <ele>72.0</ele>
        <time>2011-06-25T09:18:53Z</time>
      </trkpt>
      <trkpt lat="43.344880" lon="-8.408917">
        <ele>72.0</ele>
        <time>2011-06-25T09:18:54Z</time>
      </trkpt>
      <trkpt lat="43.344818" lon="-8.408932">
        <ele>72.0</ele>
        <time>2011-06-25T09:18:55Z</time>
      </trkpt>
      <trkpt lat="43.344758" lon="-8.408945">
        <ele>72.0</ele>
        <time>2011-06-25T09:18:56Z</time>
      </trkpt>
      <trkpt lat="43.344697" lon="-8.408957">
        <ele>72.0</ele>
        <time>2011-06-25T09:18:57Z</time>
      </trkpt>
      <trkpt lat="43.344637" lon="-8.408968">
        <ele>72.5</ele>
        <time>2011-06-25T09:18:58Z</time>
      </trkpt>
      <trkpt lat="43.344580" lon="-8.408980">
        <ele>72.5</ele>
        <time>2011-06-25T09:18:59Z</time>
      </trkpt>
      <trkpt lat="43.344527" lon="-8.408992">
        <ele>72.5</ele>
        <time>2011-06-25T09:19:00Z</time>
      </trkpt>
      <trkpt lat="43.344475" lon="-8.409005">
        <ele>72.5</ele>
        <time>2011-06-25T09:19:01Z</time>
      </trkpt>
      <trkpt lat="43.344425" lon="-8.409015">
        <ele>72.5</ele>
        <time>2011-06-25T09:19:02Z</time>
      </trkpt>
      <trkpt lat="43.344377" lon="-8.409023">
        <ele>72.5</ele>
        <time>2011-06-25T09:19:03Z</time>
      </trkpt>
      <trkpt lat="43.344327" lon="-8.409030">
        <ele>72.5</ele>
        <time>2011-06-25T09:19:04Z</time>
      </trkpt>
      <trkpt lat="43.344280" lon="-8.409037">
        <ele>72.5</ele>
        <time>2011-06-25T09:19:05Z</time>
      </trkpt>
      <trkpt lat="43.344233" lon="-8.409043">
        <ele>72.5</ele>
        <time>2011-06-25T09:19:06Z</time>
      </trkpt>
      <trkpt lat="43.344187" lon="-8.409050">
        <ele>72.5</ele>
        <time>2011-06-25T09:19:07Z</time>
      </trkpt>
      <trkpt lat="43.344142" lon="-8.409058">
        <ele>72.5</ele>
        <time>2011-06-25T09:19:08Z</time>
      </trkpt>
      <trkpt lat="43.344097" lon="-8.409063">
        <ele>72.5</ele>
        <time>2011-06-25T09:19:09Z</time>
      </trkpt>
      <trkpt lat="43.344053" lon="-8.409067">
        <ele>72.5</ele>
        <time>2011-06-25T09:19:10Z</time>
      </trkpt>
      <trkpt lat="43.344008" lon="-8.409068">
        <ele>72.5</ele>
        <time>2011-06-25T09:19:11Z</time>
      </trkpt>
      <trkpt lat="43.343963" lon="-8.409072">
        <ele>72.5</ele>
        <time>2011-06-25T09:19:12Z</time>
      </trkpt>
      <trkpt lat="43.343918" lon="-8.409073">
        <ele>72.5</ele>
        <time>2011-06-25T09:19:13Z</time>
      </trkpt>
      <trkpt lat="43.343875" lon="-8.409075">
        <ele>72.5</ele>
        <time>2011-06-25T09:19:14Z</time>
      </trkpt>
      <trkpt lat="43.343828" lon="-8.409077">
        <ele>72.5</ele>
        <time>2011-06-25T09:19:15Z</time>
      </trkpt>
      <trkpt lat="43.343785" lon="-8.409073">
        <ele>72.5</ele>
        <time>2011-06-25T09:19:16Z</time>
      </trkpt>
      <trkpt lat="43.343740" lon="-8.409070">
        <ele>72.5</ele>
        <time>2011-06-25T09:19:17Z</time>
      </trkpt>
      <trkpt lat="43.343697" lon="-8.409067">
        <ele>72.5</ele>
        <time>2011-06-25T09:19:18Z</time>
      </trkpt>
      <trkpt lat="43.343652" lon="-8.409062">
        <ele>72.5</ele>
        <time>2011-06-25T09:19:19Z</time>
      </trkpt>
      <trkpt lat="43.343607" lon="-8.409055">
        <ele>72.5</ele>
        <time>2011-06-25T09:19:20Z</time>
      </trkpt>
      <trkpt lat="43.343562" lon="-8.409048">
        <ele>72.5</ele>
        <time>2011-06-25T09:19:21Z</time>
      </trkpt>
      <trkpt lat="43.343517" lon="-8.409042">
        <ele>72.5</ele>
        <time>2011-06-25T09:19:22Z</time>
      </trkpt>
      <trkpt lat="43.343470" lon="-8.409030">
        <ele>72.5</ele>
        <time>2011-06-25T09:19:23Z</time>
      </trkpt>
      <trkpt lat="43.343423" lon="-8.409020">
        <ele>72.5</ele>
        <time>2011-06-25T09:19:24Z</time>
      </trkpt>
      <trkpt lat="43.343377" lon="-8.409013">
        <ele>72.5</ele>
        <time>2011-06-25T09:19:25Z</time>
      </trkpt>
      <trkpt lat="43.343330" lon="-8.409007">
        <ele>72.5</ele>
        <time>2011-06-25T09:19:26Z</time>
      </trkpt>
      <trkpt lat="43.343285" lon="-8.408998">
        <ele>72.5</ele>
        <time>2011-06-25T09:19:27Z</time>
      </trkpt>
      <trkpt lat="43.343240" lon="-8.408990">
        <ele>72.5</ele>
        <time>2011-06-25T09:19:28Z</time>
      </trkpt>
      <trkpt lat="43.343197" lon="-8.408983">
        <ele>72.5</ele>
        <time>2011-06-25T09:19:29Z</time>
      </trkpt>
      <trkpt lat="43.343155" lon="-8.408975">
        <ele>72.5</ele>
        <time>2011-06-25T09:19:30Z</time>
      </trkpt>
      <trkpt lat="43.343115" lon="-8.408967">
        <ele>72.5</ele>
        <time>2011-06-25T09:19:31Z</time>
      </trkpt>
      <trkpt lat="43.343073" lon="-8.408957">
        <ele>72.5</ele>
        <time>2011-06-25T09:19:32Z</time>
      </trkpt>
      <trkpt lat="43.343033" lon="-8.408940">
        <ele>72.5</ele>
        <time>2011-06-25T09:19:33Z</time>
      </trkpt>
      <trkpt lat="43.342993" lon="-8.408925">
        <ele>72.5</ele>
        <time>2011-06-25T09:19:34Z</time>
      </trkpt>
      <trkpt lat="43.342955" lon="-8.408910">
        <ele>72.5</ele>
        <time>2011-06-25T09:19:35Z</time>
      </trkpt>
      <trkpt lat="43.342917" lon="-8.408893">
        <ele>72.5</ele>
        <time>2011-06-25T09:19:36Z</time>
      </trkpt>
      <trkpt lat="43.342887" lon="-8.408880">
        <ele>72.5</ele>
        <time>2011-06-25T09:19:37Z</time>
      </trkpt>
      <trkpt lat="43.342862" lon="-8.408870">
        <ele>72.5</ele>
        <time>2011-06-25T09:19:38Z</time>
      </trkpt>
      <trkpt lat="43.342827" lon="-8.408853">
        <ele>72.5</ele>
        <time>2011-06-25T09:19:40Z</time>
      </trkpt>
      <trkpt lat="43.342807" lon="-8.408847">
        <ele>72.5</ele>
        <time>2011-06-25T09:19:42Z</time>
      </trkpt>
      <trkpt lat="43.342802" lon="-8.408808">
        <ele>72.5</ele>
        <time>2011-06-25T09:19:44Z</time>
      </trkpt>
      <trkpt lat="43.342727" lon="-8.408752">
        <ele>72.5</ele>
        <time>2011-06-25T09:19:46Z</time>
      </trkpt>
      <trkpt lat="43.342603" lon="-8.408692">
        <ele>72.5</ele>
        <time>2011-06-25T09:19:48Z</time>
      </trkpt>
      <trkpt lat="43.342547" lon="-8.408660">
        <ele>72.5</ele>
        <time>2011-06-25T09:19:49Z</time>
      </trkpt>
      <trkpt lat="43.342488" lon="-8.408632">
        <ele>72.5</ele>
        <time>2011-06-25T09:19:50Z</time>
      </trkpt>
      <trkpt lat="43.342437" lon="-8.408603">
        <ele>72.5</ele>
        <time>2011-06-25T09:19:51Z</time>
      </trkpt>
      <trkpt lat="43.342385" lon="-8.408572">
        <ele>72.5</ele>
        <time>2011-06-25T09:19:52Z</time>
      </trkpt>
      <trkpt lat="43.342335" lon="-8.408533">
        <ele>72.5</ele>
        <time>2011-06-25T09:19:53Z</time>
      </trkpt>
      <trkpt lat="43.342285" lon="-8.408492">
        <ele>72.5</ele>
        <time>2011-06-25T09:19:54Z</time>
      </trkpt>
      <trkpt lat="43.342233" lon="-8.408453">
        <ele>72.5</ele>
        <time>2011-06-25T09:19:55Z</time>
      </trkpt>
      <trkpt lat="43.342183" lon="-8.408415">
        <ele>72.5</ele>
        <time>2011-06-25T09:19:56Z</time>
      </trkpt>
      <trkpt lat="43.342137" lon="-8.408378">
        <ele>72.5</ele>
        <time>2011-06-25T09:19:57Z</time>
      </trkpt>
      <trkpt lat="43.342090" lon="-8.408347">
        <ele>72.5</ele>
        <time>2011-06-25T09:19:58Z</time>
      </trkpt>
      <trkpt lat="43.342045" lon="-8.408315">
        <ele>72.5</ele>
        <time>2011-06-25T09:19:59Z</time>
      </trkpt>
      <trkpt lat="43.342003" lon="-8.408285">
        <ele>72.5</ele>
        <time>2011-06-25T09:20:00Z</time>
      </trkpt>
      <trkpt lat="43.341958" lon="-8.408257">
        <ele>72.5</ele>
        <time>2011-06-25T09:20:01Z</time>
      </trkpt>
      <trkpt lat="43.341917" lon="-8.408227">
        <ele>72.5</ele>
        <time>2011-06-25T09:20:02Z</time>
      </trkpt>
      <trkpt lat="43.341882" lon="-8.408192">
        <ele>72.5</ele>
        <time>2011-06-25T09:20:03Z</time>
      </trkpt>
      <trkpt lat="43.341842" lon="-8.408162">
        <ele>72.5</ele>
        <time>2011-06-25T09:20:04Z</time>
      </trkpt>
      <trkpt lat="43.341800" lon="-8.408133">
        <ele>72.5</ele>
        <time>2011-06-25T09:20:05Z</time>
      </trkpt>
      <trkpt lat="43.341760" lon="-8.408105">
        <ele>72.5</ele>
        <time>2011-06-25T09:20:06Z</time>
      </trkpt>
      <trkpt lat="43.341718" lon="-8.408075">
        <ele>72.5</ele>
        <time>2011-06-25T09:20:07Z</time>
      </trkpt>
      <trkpt lat="43.341677" lon="-8.408047">
        <ele>72.5</ele>
        <time>2011-06-25T09:20:08Z</time>
      </trkpt>
      <trkpt lat="43.341637" lon="-8.408018">
        <ele>72.5</ele>
        <time>2011-06-25T09:20:09Z</time>
      </trkpt>
      <trkpt lat="43.341595" lon="-8.407985">
        <ele>72.5</ele>
        <time>2011-06-25T09:20:10Z</time>
      </trkpt>
      <trkpt lat="43.341555" lon="-8.407955">
        <ele>72.5</ele>
        <time>2011-06-25T09:20:11Z</time>
      </trkpt>
      <trkpt lat="43.341517" lon="-8.407930">
        <ele>72.5</ele>
        <time>2011-06-25T09:20:12Z</time>
      </trkpt>
      <trkpt lat="43.341478" lon="-8.407905">
        <ele>72.5</ele>
        <time>2011-06-25T09:20:13Z</time>
      </trkpt>
      <trkpt lat="43.341437" lon="-8.407877">
        <ele>72.5</ele>
        <time>2011-06-25T09:20:14Z</time>
      </trkpt>
      <trkpt lat="43.341397" lon="-8.407852">
        <ele>73.0</ele>
        <time>2011-06-25T09:20:15Z</time>
      </trkpt>
      <trkpt lat="43.341358" lon="-8.407825">
        <ele>73.0</ele>
        <time>2011-06-25T09:20:16Z</time>
      </trkpt>
      <trkpt lat="43.341320" lon="-8.407800">
        <ele>72.5</ele>
        <time>2011-06-25T09:20:17Z</time>
      </trkpt>
      <trkpt lat="43.341283" lon="-8.407773">
        <ele>72.0</ele>
        <time>2011-06-25T09:20:18Z</time>
      </trkpt>
      <trkpt lat="43.341247" lon="-8.407747">
        <ele>72.0</ele>
        <time>2011-06-25T09:20:19Z</time>
      </trkpt>
      <trkpt lat="43.341210" lon="-8.407722">
        <ele>72.5</ele>
        <time>2011-06-25T09:20:20Z</time>
      </trkpt>
      <trkpt lat="43.341172" lon="-8.407697">
        <ele>72.5</ele>
        <time>2011-06-25T09:20:21Z</time>
      </trkpt>
      <trkpt lat="43.341135" lon="-8.407672">
        <ele>72.5</ele>
        <time>2011-06-25T09:20:22Z</time>
      </trkpt>
      <trkpt lat="43.341100" lon="-8.407643">
        <ele>72.5</ele>
        <time>2011-06-25T09:20:23Z</time>
      </trkpt>
      <trkpt lat="43.341065" lon="-8.407617">
        <ele>72.5</ele>
        <time>2011-06-25T09:20:24Z</time>
      </trkpt>
      <trkpt lat="43.341032" lon="-8.407588">
        <ele>73.0</ele>
        <time>2011-06-25T09:20:25Z</time>
      </trkpt>
      <trkpt lat="43.341000" lon="-8.407562">
        <ele>73.5</ele>
        <time>2011-06-25T09:20:26Z</time>
      </trkpt>
      <trkpt lat="43.340967" lon="-8.407535">
        <ele>74.0</ele>
        <time>2011-06-25T09:20:27Z</time>
      </trkpt>
      <trkpt lat="43.340935" lon="-8.407508">
        <ele>74.5</ele>
        <time>2011-06-25T09:20:28Z</time>
      </trkpt>
      <trkpt lat="43.340903" lon="-8.407485">
        <ele>75.5</ele>
        <time>2011-06-25T09:20:29Z</time>
      </trkpt>
      <trkpt lat="43.340872" lon="-8.407460">
        <ele>76.0</ele>
        <time>2011-06-25T09:20:30Z</time>
      </trkpt>
      <trkpt lat="43.340838" lon="-8.407437">
        <ele>76.5</ele>
        <time>2011-06-25T09:20:31Z</time>
      </trkpt>
      <trkpt lat="43.340807" lon="-8.407412">
        <ele>77.0</ele>
        <time>2011-06-25T09:20:32Z</time>
      </trkpt>
      <trkpt lat="43.340775" lon="-8.407388">
        <ele>77.5</ele>
        <time>2011-06-25T09:20:33Z</time>
      </trkpt>
      <trkpt lat="43.340745" lon="-8.407365">
        <ele>78.0</ele>
        <time>2011-06-25T09:20:34Z</time>
      </trkpt>
      <trkpt lat="43.340713" lon="-8.407343">
        <ele>78.0</ele>
        <time>2011-06-25T09:20:35Z</time>
      </trkpt>
      <trkpt lat="43.340692" lon="-8.407332">
        <ele>78.0</ele>
        <time>2011-06-25T09:20:36Z</time>
      </trkpt>
      <trkpt lat="43.340670" lon="-8.407363">
        <ele>78.0</ele>
        <time>2011-06-25T09:20:37Z</time>
      </trkpt>
      <trkpt lat="43.340633" lon="-8.407393">
        <ele>78.5</ele>
        <time>2011-06-25T09:20:38Z</time>
      </trkpt>
      <trkpt lat="43.340618" lon="-8.407432">
        <ele>78.5</ele>
        <time>2011-06-25T09:20:39Z</time>
      </trkpt>
      <trkpt lat="43.340605" lon="-8.407470">
        <ele>78.5</ele>
        <time>2011-06-25T09:20:40Z</time>
      </trkpt>
      <trkpt lat="43.340585" lon="-8.407505">
        <ele>78.5</ele>
        <time>2011-06-25T09:20:41Z</time>
      </trkpt>
      <trkpt lat="43.340562" lon="-8.407535">
        <ele>78.0</ele>
        <time>2011-06-25T09:20:42Z</time>
      </trkpt>
      <trkpt lat="43.340548" lon="-8.407560">
        <ele>77.5</ele>
        <time>2011-06-25T09:20:43Z</time>
      </trkpt>
      <trkpt lat="43.340538" lon="-8.407580">
        <ele>78.5</ele>
        <time>2011-06-25T09:20:44Z</time>
      </trkpt>
      <trkpt lat="43.340532" lon="-8.407597">
        <ele>78.5</ele>
        <time>2011-06-25T09:20:45Z</time>
      </trkpt>
      <trkpt lat="43.340528" lon="-8.407608">
        <ele>79.5</ele>
        <time>2011-06-25T09:20:46Z</time>
      </trkpt>
      <trkpt lat="43.340522" lon="-8.407623">
        <ele>79.5</ele>
        <time>2011-06-25T09:20:47Z</time>
      </trkpt>
      <trkpt lat="43.340508" lon="-8.407640">
        <ele>79.5</ele>
        <time>2011-06-25T09:20:48Z</time>
      </trkpt>
      <trkpt lat="43.340492" lon="-8.407658">
        <ele>79.0</ele>
        <time>2011-06-25T09:20:49Z</time>
      </trkpt>
      <trkpt lat="43.340477" lon="-8.407682">
        <ele>79.0</ele>
        <time>2011-06-25T09:20:50Z</time>
      </trkpt>
      <trkpt lat="43.340458" lon="-8.407702">
        <ele>79.0</ele>
        <time>2011-06-25T09:20:51Z</time>
      </trkpt>
      <trkpt lat="43.340432" lon="-8.407718">
        <ele>79.0</ele>
        <time>2011-06-25T09:20:52Z</time>
      </trkpt>
      <trkpt lat="43.340405" lon="-8.407743">
        <ele>78.5</ele>
        <time>2011-06-25T09:20:53Z</time>
      </trkpt>
      <trkpt lat="43.340378" lon="-8.407773">
        <ele>78.5</ele>
        <time>2011-06-25T09:20:54Z</time>
      </trkpt>
      <trkpt lat="43.340347" lon="-8.407808">
        <ele>78.0</ele>
        <time>2011-06-25T09:20:55Z</time>
      </trkpt>
      <trkpt lat="43.340313" lon="-8.407847">
        <ele>78.0</ele>
        <time>2011-06-25T09:20:56Z</time>
      </trkpt>
      <trkpt lat="43.340277" lon="-8.407885">
        <ele>77.0</ele>
        <time>2011-06-25T09:20:57Z</time>
      </trkpt>
      <trkpt lat="43.340238" lon="-8.407918">
        <ele>76.5</ele>
        <time>2011-06-25T09:20:58Z</time>
      </trkpt>
      <trkpt lat="43.340212" lon="-8.407948">
        <ele>77.0</ele>
        <time>2011-06-25T09:20:59Z</time>
      </trkpt>
      <trkpt lat="43.340180" lon="-8.407982">
        <ele>77.0</ele>
        <time>2011-06-25T09:21:00Z</time>
      </trkpt>
      <trkpt lat="43.340147" lon="-8.408013">
        <ele>75.5</ele>
        <time>2011-06-25T09:21:01Z</time>
      </trkpt>
      <trkpt lat="43.340107" lon="-8.408007">
        <ele>76.0</ele>
        <time>2011-06-25T09:21:02Z</time>
      </trkpt>
      <trkpt lat="43.340078" lon="-8.408033">
        <ele>76.0</ele>
        <time>2011-06-25T09:21:03Z</time>
      </trkpt>
      <trkpt lat="43.340052" lon="-8.408063">
        <ele>76.0</ele>
        <time>2011-06-25T09:21:04Z</time>
      </trkpt>
      <trkpt lat="43.340015" lon="-8.408088">
        <ele>75.5</ele>
        <time>2011-06-25T09:21:06Z</time>
      </trkpt>
      <trkpt lat="43.339992" lon="-8.408103">
        <ele>77.0</ele>
        <time>2011-06-25T09:21:07Z</time>
      </trkpt>
      <trkpt lat="43.339958" lon="-8.408122">
        <ele>77.0</ele>
        <time>2011-06-25T09:21:08Z</time>
      </trkpt>
      <trkpt lat="43.339927" lon="-8.408138">
        <ele>77.0</ele>
        <time>2011-06-25T09:21:09Z</time>
      </trkpt>
      <trkpt lat="43.339897" lon="-8.408158">
        <ele>77.0</ele>
        <time>2011-06-25T09:21:10Z</time>
      </trkpt>
      <trkpt lat="43.339888" lon="-8.408190">
        <ele>78.0</ele>
        <time>2011-06-25T09:21:11Z</time>
      </trkpt>
      <trkpt lat="43.339897" lon="-8.408225">
        <ele>80.0</ele>
        <time>2011-06-25T09:21:12Z</time>
      </trkpt>
      <trkpt lat="43.339900" lon="-8.408263">
        <ele>81.5</ele>
        <time>2011-06-25T09:21:13Z</time>
      </trkpt>
      <trkpt lat="43.339903" lon="-8.408300">
        <ele>83.0</ele>
        <time>2011-06-25T09:21:14Z</time>
      </trkpt>
      <trkpt lat="43.339908" lon="-8.408335">
        <ele>85.0</ele>
        <time>2011-06-25T09:21:15Z</time>
      </trkpt>
      <trkpt lat="43.339912" lon="-8.408370">
        <ele>87.0</ele>
        <time>2011-06-25T09:21:16Z</time>
      </trkpt>
      <trkpt lat="43.339917" lon="-8.408405">
        <ele>88.5</ele>
        <time>2011-06-25T09:21:17Z</time>
      </trkpt>
      <trkpt lat="43.339917" lon="-8.408445">
        <ele>89.5</ele>
        <time>2011-06-25T09:21:18Z</time>
      </trkpt>
      <trkpt lat="43.339913" lon="-8.408490">
        <ele>90.0</ele>
        <time>2011-06-25T09:21:19Z</time>
      </trkpt>
      <trkpt lat="43.339910" lon="-8.408535">
        <ele>90.5</ele>
        <time>2011-06-25T09:21:20Z</time>
      </trkpt>
      <trkpt lat="43.339903" lon="-8.408577">
        <ele>90.5</ele>
        <time>2011-06-25T09:21:21Z</time>
      </trkpt>
      <trkpt lat="43.339893" lon="-8.408620">
        <ele>90.5</ele>
        <time>2011-06-25T09:21:22Z</time>
      </trkpt>
      <trkpt lat="43.339882" lon="-8.408663">
        <ele>90.5</ele>
        <time>2011-06-25T09:21:23Z</time>
      </trkpt>
      <trkpt lat="43.339875" lon="-8.408708">
        <ele>90.5</ele>
        <time>2011-06-25T09:21:24Z</time>
      </trkpt>
      <trkpt lat="43.339867" lon="-8.408752">
        <ele>91.0</ele>
        <time>2011-06-25T09:21:25Z</time>
      </trkpt>
      <trkpt lat="43.339860" lon="-8.408793">
        <ele>91.0</ele>
        <time>2011-06-25T09:21:26Z</time>
      </trkpt>
      <trkpt lat="43.339848" lon="-8.408833">
        <ele>91.5</ele>
        <time>2011-06-25T09:21:27Z</time>
      </trkpt>
      <trkpt lat="43.339840" lon="-8.408873">
        <ele>91.5</ele>
        <time>2011-06-25T09:21:28Z</time>
      </trkpt>
      <trkpt lat="43.339830" lon="-8.408910">
        <ele>91.5</ele>
        <time>2011-06-25T09:21:29Z</time>
      </trkpt>
      <trkpt lat="43.339825" lon="-8.408945">
        <ele>91.5</ele>
        <time>2011-06-25T09:21:30Z</time>
      </trkpt>
      <trkpt lat="43.339823" lon="-8.408980">
        <ele>91.5</ele>
        <time>2011-06-25T09:21:31Z</time>
      </trkpt>
      <trkpt lat="43.339822" lon="-8.409010">
        <ele>92.0</ele>
        <time>2011-06-25T09:21:32Z</time>
      </trkpt>
      <trkpt lat="43.339817" lon="-8.409037">
        <ele>91.5</ele>
        <time>2011-06-25T09:21:33Z</time>
      </trkpt>
      <trkpt lat="43.339817" lon="-8.409053">
        <ele>92.0</ele>
        <time>2011-06-25T09:21:34Z</time>
      </trkpt>
      <trkpt lat="43.339815" lon="-8.409057">
        <ele>91.5</ele>
        <time>2011-06-25T09:21:35Z</time>
      </trkpt>
      <trkpt lat="43.339813" lon="-8.409055">
        <ele>91.5</ele>
        <time>2011-06-25T09:21:36Z</time>
      </trkpt>
      <trkpt lat="43.339832" lon="-8.409057">
        <ele>92.5</ele>
        <time>2011-06-25T09:21:37Z</time>
      </trkpt>
      <trkpt lat="43.339833" lon="-8.409057">
        <ele>92.5</ele>
        <time>2011-06-25T09:21:38Z</time>
      </trkpt>
      <trkpt lat="43.339833" lon="-8.409057">
        <ele>92.5</ele>
        <time>2011-06-25T09:21:39Z</time>
      </trkpt>
      <trkpt lat="43.339832" lon="-8.409057">
        <ele>92.5</ele>
        <time>2011-06-25T09:21:40Z</time>
      </trkpt>
      <trkpt lat="43.339832" lon="-8.409057">
        <ele>92.5</ele>
        <time>2011-06-25T09:21:41Z</time>
      </trkpt>
      <trkpt lat="43.339832" lon="-8.409057">
        <ele>92.5</ele>
        <time>2011-06-25T09:21:42Z</time>
      </trkpt>
      <trkpt lat="43.339833" lon="-8.409055">
        <ele>92.0</ele>
        <time>2011-06-25T09:21:43Z</time>
      </trkpt>
      <trkpt lat="43.339832" lon="-8.409053">
        <ele>92.0</ele>
        <time>2011-06-25T09:21:44Z</time>
      </trkpt>
      <trkpt lat="43.339833" lon="-8.409057">
        <ele>92.5</ele>
        <time>2011-06-25T09:21:45Z</time>
      </trkpt>
      <trkpt lat="43.339828" lon="-8.409058">
        <ele>92.5</ele>
        <time>2011-06-25T09:21:46Z</time>
      </trkpt>
      <trkpt lat="43.339825" lon="-8.409058">
        <ele>92.0</ele>
        <time>2011-06-25T09:21:47Z</time>
      </trkpt>
      <trkpt lat="43.339823" lon="-8.409057">
        <ele>92.0</ele>
        <time>2011-06-25T09:21:48Z</time>
      </trkpt>
      <trkpt lat="43.339825" lon="-8.409057">
        <ele>92.0</ele>
        <time>2011-06-25T09:21:49Z</time>
      </trkpt>
      <trkpt lat="43.339825" lon="-8.409057">
        <ele>92.0</ele>
        <time>2011-06-25T09:21:50Z</time>
      </trkpt>
      <trkpt lat="43.339825" lon="-8.409055">
        <ele>92.0</ele>
        <time>2011-06-25T09:21:51Z</time>
      </trkpt>
      <trkpt lat="43.339822" lon="-8.409053">
        <ele>92.0</ele>
        <time>2011-06-25T09:21:52Z</time>
      </trkpt>
      <trkpt lat="43.339817" lon="-8.409050">
        <ele>92.0</ele>
        <time>2011-06-25T09:21:53Z</time>
      </trkpt>
      <trkpt lat="43.339817" lon="-8.409050">
        <ele>92.5</ele>
        <time>2011-06-25T09:21:54Z</time>
      </trkpt>
      <trkpt lat="43.339815" lon="-8.409050">
        <ele>92.5</ele>
        <time>2011-06-25T09:21:55Z</time>
      </trkpt>
      <trkpt lat="43.339810" lon="-8.409042">
        <ele>92.5</ele>
        <time>2011-06-25T09:21:57Z</time>
      </trkpt>
      <trkpt lat="43.339807" lon="-8.409037">
        <ele>92.5</ele>
        <time>2011-06-25T09:21:58Z</time>
      </trkpt>
      <trkpt lat="43.339802" lon="-8.409030">
        <ele>92.5</ele>
        <time>2011-06-25T09:21:59Z</time>
      </trkpt>
      <trkpt lat="43.339798" lon="-8.409027">
        <ele>92.5</ele>
        <time>2011-06-25T09:22:00Z</time>
      </trkpt>
      <trkpt lat="43.339793" lon="-8.409017">
        <ele>92.5</ele>
        <time>2011-06-25T09:22:01Z</time>
      </trkpt>
      <trkpt lat="43.339792" lon="-8.409013">
        <ele>92.5</ele>
        <time>2011-06-25T09:22:02Z</time>
      </trkpt>
      <trkpt lat="43.339792" lon="-8.409015">
        <ele>92.0</ele>
        <time>2011-06-25T09:22:03Z</time>
      </trkpt>
      <trkpt lat="43.339788" lon="-8.409008">
        <ele>92.0</ele>
        <time>2011-06-25T09:22:04Z</time>
      </trkpt>
      <trkpt lat="43.339787" lon="-8.409007">
        <ele>92.0</ele>
        <time>2011-06-25T09:22:05Z</time>
      </trkpt>
      <trkpt lat="43.339788" lon="-8.409008">
        <ele>92.0</ele>
        <time>2011-06-25T09:22:06Z</time>
      </trkpt>
      <trkpt lat="43.339787" lon="-8.409007">
        <ele>92.0</ele>
        <time>2011-06-25T09:22:07Z</time>
      </trkpt>
      <trkpt lat="43.339785" lon="-8.409007">
        <ele>92.0</ele>
        <time>2011-06-25T09:22:08Z</time>
      </trkpt>
      <trkpt lat="43.339785" lon="-8.409007">
        <ele>92.0</ele>
        <time>2011-06-25T09:22:09Z</time>
      </trkpt>
      <trkpt lat="43.339785" lon="-8.409007">
        <ele>92.0</ele>
        <time>2011-06-25T09:22:10Z</time>
      </trkpt>
      <trkpt lat="43.339792" lon="-8.409018">
        <ele>92.0</ele>
        <time>2011-06-25T09:22:11Z</time>
      </trkpt>
      <trkpt lat="43.339793" lon="-8.409022">
        <ele>92.0</ele>
        <time>2011-06-25T09:22:12Z</time>
      </trkpt>
      <trkpt lat="43.339795" lon="-8.409023">
        <ele>92.0</ele>
        <time>2011-06-25T09:22:13Z</time>
      </trkpt>
      <trkpt lat="43.339797" lon="-8.409032">
        <ele>92.0</ele>
        <time>2011-06-25T09:22:14Z</time>
      </trkpt>
      <trkpt lat="43.339802" lon="-8.409040">
        <ele>92.5</ele>
        <time>2011-06-25T09:22:15Z</time>
      </trkpt>
      <trkpt lat="43.339802" lon="-8.409043">
        <ele>92.5</ele>
        <time>2011-06-25T09:22:16Z</time>
      </trkpt>
      <trkpt lat="43.339802" lon="-8.409043">
        <ele>92.5</ele>
        <time>2011-06-25T09:22:17Z</time>
      </trkpt>
      <trkpt lat="43.339802" lon="-8.409043">
        <ele>92.5</ele>
        <time>2011-06-25T09:22:18Z</time>
      </trkpt>
      <trkpt lat="43.339802" lon="-8.409045">
        <ele>92.5</ele>
        <time>2011-06-25T09:22:19Z</time>
      </trkpt>
      <trkpt lat="43.339802" lon="-8.409047">
        <ele>92.5</ele>
        <time>2011-06-25T09:22:20Z</time>
      </trkpt>
      <trkpt lat="43.339802" lon="-8.409047">
        <ele>92.5</ele>
        <time>2011-06-25T09:22:22Z</time>
      </trkpt>
      <trkpt lat="43.339802" lon="-8.409047">
        <ele>92.5</ele>
        <time>2011-06-25T09:22:22Z</time>
      </trkpt>
      <trkpt lat="43.339802" lon="-8.409045">
        <ele>92.5</ele>
        <time>2011-06-25T09:22:23Z</time>
      </trkpt>
      <trkpt lat="43.339800" lon="-8.409043">
        <ele>92.0</ele>
        <time>2011-06-25T09:22:24Z</time>
      </trkpt>
      <trkpt lat="43.339798" lon="-8.409042">
        <ele>92.0</ele>
        <time>2011-06-25T09:22:25Z</time>
      </trkpt>
      <trkpt lat="43.339798" lon="-8.409040">
        <ele>92.0</ele>
        <time>2011-06-25T09:22:26Z</time>
      </trkpt>
      <trkpt lat="43.339797" lon="-8.409040">
        <ele>92.0</ele>
        <time>2011-06-25T09:22:27Z</time>
      </trkpt>
      <trkpt lat="43.339797" lon="-8.409038">
        <ele>92.0</ele>
        <time>2011-06-25T09:22:29Z</time>
      </trkpt>
      <trkpt lat="43.339797" lon="-8.409037">
        <ele>92.0</ele>
        <time>2011-06-25T09:22:30Z</time>
      </trkpt>
      <trkpt lat="43.339795" lon="-8.409035">
        <ele>92.0</ele>
        <time>2011-06-25T09:22:30Z</time>
      </trkpt>
      <trkpt lat="43.339795" lon="-8.409035">
        <ele>92.0</ele>
        <time>2011-06-25T09:22:31Z</time>
      </trkpt>
      <trkpt lat="43.339783" lon="-8.409033">
        <ele>92.0</ele>
        <time>2011-06-25T09:22:32Z</time>
      </trkpt>
      <trkpt lat="43.339785" lon="-8.409032">
        <ele>92.0</ele>
        <time>2011-06-25T09:22:33Z</time>
      </trkpt>
      <trkpt lat="43.339785" lon="-8.409032">
        <ele>92.0</ele>
        <time>2011-06-25T09:22:34Z</time>
      </trkpt>
      <trkpt lat="43.339785" lon="-8.409032">
        <ele>92.0</ele>
        <time>2011-06-25T09:22:35Z</time>
      </trkpt>
      <trkpt lat="43.339787" lon="-8.409032">
        <ele>92.0</ele>
        <time>2011-06-25T09:22:36Z</time>
      </trkpt>
      <trkpt lat="43.339787" lon="-8.409033">
        <ele>92.0</ele>
        <time>2011-06-25T09:22:37Z</time>
      </trkpt>
      <trkpt lat="43.339787" lon="-8.409033">
        <ele>92.0</ele>
        <time>2011-06-25T09:22:38Z</time>
      </trkpt>
      <trkpt lat="43.339787" lon="-8.409033">
        <ele>92.0</ele>
        <time>2011-06-25T09:22:39Z</time>
      </trkpt>
      <trkpt lat="43.339783" lon="-8.409033">
        <ele>91.5</ele>
        <time>2011-06-25T09:22:40Z</time>
      </trkpt>
      <trkpt lat="43.339783" lon="-8.409030">
        <ele>92.0</ele>
        <time>2011-06-25T09:22:41Z</time>
      </trkpt>
      <trkpt lat="43.339783" lon="-8.409027">
        <ele>92.0</ele>
        <time>2011-06-25T09:22:42Z</time>
      </trkpt>
      <trkpt lat="43.339785" lon="-8.409022">
        <ele>92.5</ele>
        <time>2011-06-25T09:22:43Z</time>
      </trkpt>
      <trkpt lat="43.339787" lon="-8.409023">
        <ele>93.0</ele>
        <time>2011-06-25T09:22:44Z</time>
      </trkpt>
      <trkpt lat="43.339787" lon="-8.409022">
        <ele>92.5</ele>
        <time>2011-06-25T09:22:45Z</time>
      </trkpt>
      <trkpt lat="43.339792" lon="-8.409022">
        <ele>92.5</ele>
        <time>2011-06-25T09:22:47Z</time>
      </trkpt>
      <trkpt lat="43.339792" lon="-8.409020">
        <ele>92.5</ele>
        <time>2011-06-25T09:22:47Z</time>
      </trkpt>
      <trkpt lat="43.339792" lon="-8.409020">
        <ele>92.5</ele>
        <time>2011-06-25T09:22:48Z</time>
      </trkpt>
      <trkpt lat="43.339788" lon="-8.409020">
        <ele>92.0</ele>
        <time>2011-06-25T09:22:49Z</time>
      </trkpt>
      <trkpt lat="43.339782" lon="-8.409022">
        <ele>92.0</ele>
        <time>2011-06-25T09:22:51Z</time>
      </trkpt>
      <trkpt lat="43.339773" lon="-8.409027">
        <ele>91.5</ele>
        <time>2011-06-25T09:22:51Z</time>
      </trkpt>
      <trkpt lat="43.339770" lon="-8.409030">
        <ele>91.5</ele>
        <time>2011-06-25T09:22:52Z</time>
      </trkpt>
      <trkpt lat="43.339772" lon="-8.409033">
        <ele>91.5</ele>
        <time>2011-06-25T09:22:54Z</time>
      </trkpt>
      <trkpt lat="43.339772" lon="-8.409032">
        <ele>91.5</ele>
        <time>2011-06-25T09:22:55Z</time>
      </trkpt>
      <trkpt lat="43.339772" lon="-8.409033">
        <ele>91.5</ele>
        <time>2011-06-25T09:22:55Z</time>
      </trkpt>
      <trkpt lat="43.339772" lon="-8.409033">
        <ele>91.5</ele>
        <time>2011-06-25T09:22:56Z</time>
      </trkpt>
      <trkpt lat="43.339773" lon="-8.409035">
        <ele>91.5</ele>
        <time>2011-06-25T09:22:57Z</time>
      </trkpt>
      <trkpt lat="43.339773" lon="-8.409035">
        <ele>91.5</ele>
        <time>2011-06-25T09:22:58Z</time>
      </trkpt>
      <trkpt lat="43.339773" lon="-8.409037">
        <ele>91.5</ele>
        <time>2011-06-25T09:22:59Z</time>
      </trkpt>
      <trkpt lat="43.339773" lon="-8.409037">
        <ele>91.5</ele>
        <time>2011-06-25T09:23:00Z</time>
      </trkpt>
      <trkpt lat="43.339775" lon="-8.409037">
        <ele>91.5</ele>
        <time>2011-06-25T09:23:01Z</time>
      </trkpt>
      <trkpt lat="43.339775" lon="-8.409037">
        <ele>92.0</ele>
        <time>2011-06-25T09:23:02Z</time>
      </trkpt>
      <trkpt lat="43.339777" lon="-8.409038">
        <ele>92.0</ele>
        <time>2011-06-25T09:23:03Z</time>
      </trkpt>
      <trkpt lat="43.339778" lon="-8.409040">
        <ele>92.0</ele>
        <time>2011-06-25T09:23:04Z</time>
      </trkpt>
      <trkpt lat="43.339780" lon="-8.409042">
        <ele>92.0</ele>
        <time>2011-06-25T09:23:05Z</time>
      </trkpt>
      <trkpt lat="43.339780" lon="-8.409042">
        <ele>92.0</ele>
        <time>2011-06-25T09:23:06Z</time>
      </trkpt>
      <trkpt lat="43.339782" lon="-8.409042">
        <ele>92.0</ele>
        <time>2011-06-25T09:23:07Z</time>
      </trkpt>
      <trkpt lat="43.339782" lon="-8.409042">
        <ele>92.0</ele>
        <time>2011-06-25T09:23:08Z</time>
      </trkpt>
      <trkpt lat="43.339782" lon="-8.409043">
        <ele>92.0</ele>
        <time>2011-06-25T09:23:09Z</time>
      </trkpt>
      <trkpt lat="43.339783" lon="-8.409043">
        <ele>92.0</ele>
        <time>2011-06-25T09:23:10Z</time>
      </trkpt>
      <trkpt lat="43.339783" lon="-8.409045">
        <ele>92.0</ele>
        <time>2011-06-25T09:23:11Z</time>
      </trkpt>
      <trkpt lat="43.339783" lon="-8.409048">
        <ele>92.0</ele>
        <time>2011-06-25T09:23:12Z</time>
      </trkpt>
      <trkpt lat="43.339783" lon="-8.409052">
        <ele>91.5</ele>
        <time>2011-06-25T09:23:13Z</time>
      </trkpt>
      <trkpt lat="43.339785" lon="-8.409053">
        <ele>91.5</ele>
        <time>2011-06-25T09:23:14Z</time>
      </trkpt>
      <trkpt lat="43.339788" lon="-8.409055">
        <ele>91.5</ele>
        <time>2011-06-25T09:23:15Z</time>
      </trkpt>
      <trkpt lat="43.339785" lon="-8.409052">
        <ele>91.5</ele>
        <time>2011-06-25T09:23:16Z</time>
      </trkpt>
      <trkpt lat="43.339787" lon="-8.409052">
        <ele>91.5</ele>
        <time>2011-06-25T09:23:17Z</time>
      </trkpt>
      <trkpt lat="43.339787" lon="-8.409057">
        <ele>91.5</ele>
        <time>2011-06-25T09:23:18Z</time>
      </trkpt>
      <trkpt lat="43.339787" lon="-8.409058">
        <ele>91.5</ele>
        <time>2011-06-25T09:23:19Z</time>
      </trkpt>
      <trkpt lat="43.339788" lon="-8.409057">
        <ele>91.5</ele>
        <time>2011-06-25T09:23:20Z</time>
      </trkpt>
      <trkpt lat="43.339792" lon="-8.409057">
        <ele>91.5</ele>
        <time>2011-06-25T09:23:21Z</time>
      </trkpt>
      <trkpt lat="43.339795" lon="-8.409060">
        <ele>91.5</ele>
        <time>2011-06-25T09:23:22Z</time>
      </trkpt>
      <trkpt lat="43.339795" lon="-8.409060">
        <ele>91.5</ele>
        <time>2011-06-25T09:23:23Z</time>
      </trkpt>
      <trkpt lat="43.339795" lon="-8.409062">
        <ele>91.5</ele>
        <time>2011-06-25T09:23:24Z</time>
      </trkpt>
      <trkpt lat="43.339795" lon="-8.409062">
        <ele>91.5</ele>
        <time>2011-06-25T09:23:25Z</time>
      </trkpt>
      <trkpt lat="43.339795" lon="-8.409062">
        <ele>91.5</ele>
        <time>2011-06-25T09:23:26Z</time>
      </trkpt>
      <trkpt lat="43.339795" lon="-8.409060">
        <ele>91.5</ele>
        <time>2011-06-25T09:23:27Z</time>
      </trkpt>
      <trkpt lat="43.339795" lon="-8.409060">
        <ele>91.5</ele>
        <time>2011-06-25T09:23:28Z</time>
      </trkpt>
      <trkpt lat="43.339800" lon="-8.409062">
        <ele>91.5</ele>
        <time>2011-06-25T09:23:30Z</time>
      </trkpt>
      <trkpt lat="43.339800" lon="-8.409060">
        <ele>91.5</ele>
        <time>2011-06-25T09:23:30Z</time>
      </trkpt>
      <trkpt lat="43.339798" lon="-8.409060">
        <ele>91.5</ele>
        <time>2011-06-25T09:23:31Z</time>
      </trkpt>
      <trkpt lat="43.339797" lon="-8.409062">
        <ele>91.0</ele>
        <time>2011-06-25T09:23:32Z</time>
      </trkpt>
      <trkpt lat="43.339793" lon="-8.409063">
        <ele>91.0</ele>
        <time>2011-06-25T09:23:33Z</time>
      </trkpt>
      <trkpt lat="43.339793" lon="-8.409063">
        <ele>91.0</ele>
        <time>2011-06-25T09:23:34Z</time>
      </trkpt>
      <trkpt lat="43.339792" lon="-8.409062">
        <ele>91.5</ele>
        <time>2011-06-25T09:23:35Z</time>
      </trkpt>
      <trkpt lat="43.339788" lon="-8.409062">
        <ele>91.5</ele>
        <time>2011-06-25T09:23:36Z</time>
      </trkpt>
      <trkpt lat="43.339790" lon="-8.409062">
        <ele>91.5</ele>
        <time>2011-06-25T09:23:37Z</time>
      </trkpt>
      <trkpt lat="43.339790" lon="-8.409062">
        <ele>91.5</ele>
        <time>2011-06-25T09:23:39Z</time>
      </trkpt>
      <trkpt lat="43.339790" lon="-8.409062">
        <ele>92.0</ele>
        <time>2011-06-25T09:23:40Z</time>
      </trkpt>
      <trkpt lat="43.339792" lon="-8.409062">
        <ele>92.0</ele>
        <time>2011-06-25T09:23:40Z</time>
      </trkpt>
      <trkpt lat="43.339793" lon="-8.409060">
        <ele>92.0</ele>
        <time>2011-06-25T09:23:41Z</time>
      </trkpt>
      <trkpt lat="43.339792" lon="-8.409060">
        <ele>92.0</ele>
        <time>2011-06-25T09:23:42Z</time>
      </trkpt>
      <trkpt lat="43.339792" lon="-8.409060">
        <ele>92.0</ele>
        <time>2011-06-25T09:23:43Z</time>
      </trkpt>
      <trkpt lat="43.339790" lon="-8.409060">
        <ele>92.0</ele>
        <time>2011-06-25T09:23:45Z</time>
      </trkpt>
      <trkpt lat="43.339793" lon="-8.409058">
        <ele>92.5</ele>
        <time>2011-06-25T09:23:46Z</time>
      </trkpt>
      <trkpt lat="43.339792" lon="-8.409058">
        <ele>92.5</ele>
        <time>2011-06-25T09:23:46Z</time>
      </trkpt>
      <trkpt lat="43.339792" lon="-8.409058">
        <ele>92.5</ele>
        <time>2011-06-25T09:23:47Z</time>
      </trkpt>
      <trkpt lat="43.339792" lon="-8.409058">
        <ele>92.5</ele>
        <time>2011-06-25T09:23:48Z</time>
      </trkpt>
      <trkpt lat="43.339792" lon="-8.409058">
        <ele>92.5</ele>
        <time>2011-06-25T09:23:49Z</time>
      </trkpt>
      <trkpt lat="43.339792" lon="-8.409058">
        <ele>92.5</ele>
        <time>2011-06-25T09:23:50Z</time>
      </trkpt>
      <trkpt lat="43.339792" lon="-8.409060">
        <ele>92.0</ele>
        <time>2011-06-25T09:23:51Z</time>
      </trkpt>
      <trkpt lat="43.339798" lon="-8.409062">
        <ele>93.0</ele>
        <time>2011-06-25T09:23:53Z</time>
      </trkpt>
      <trkpt lat="43.339800" lon="-8.409062">
        <ele>93.0</ele>
        <time>2011-06-25T09:23:54Z</time>
      </trkpt>
      <trkpt lat="43.339802" lon="-8.409058">
        <ele>93.5</ele>
        <time>2011-06-25T09:23:54Z</time>
      </trkpt>
      <trkpt lat="43.339803" lon="-8.409058">
        <ele>93.5</ele>
        <time>2011-06-25T09:23:55Z</time>
      </trkpt>
      <trkpt lat="43.339803" lon="-8.409058">
        <ele>93.5</ele>
        <time>2011-06-25T09:23:57Z</time>
      </trkpt>
      <trkpt lat="43.339803" lon="-8.409058">
        <ele>93.5</ele>
        <time>2011-06-25T09:23:57Z</time>
      </trkpt>
      <trkpt lat="43.339803" lon="-8.409058">
        <ele>93.0</ele>
        <time>2011-06-25T09:23:58Z</time>
      </trkpt>
      <trkpt lat="43.339802" lon="-8.409058">
        <ele>93.0</ele>
        <time>2011-06-25T09:23:59Z</time>
      </trkpt>
      <trkpt lat="43.339802" lon="-8.409058">
        <ele>93.0</ele>
        <time>2011-06-25T09:24:00Z</time>
      </trkpt>
      <trkpt lat="43.339800" lon="-8.409058">
        <ele>93.0</ele>
        <time>2011-06-25T09:24:02Z</time>
      </trkpt>
      <trkpt lat="43.339798" lon="-8.409058">
        <ele>93.0</ele>
        <time>2011-06-25T09:24:02Z</time>
      </trkpt>
      <trkpt lat="43.339793" lon="-8.409053">
        <ele>92.5</ele>
        <time>2011-06-25T09:24:03Z</time>
      </trkpt>
      <trkpt lat="43.339793" lon="-8.409053">
        <ele>92.0</ele>
        <time>2011-06-25T09:24:04Z</time>
      </trkpt>
      <trkpt lat="43.339792" lon="-8.409053">
        <ele>92.0</ele>
        <time>2011-06-25T09:24:05Z</time>
      </trkpt>
      <trkpt lat="43.339785" lon="-8.409060">
        <ele>91.0</ele>
        <time>2011-06-25T09:24:06Z</time>
      </trkpt>
      <trkpt lat="43.339788" lon="-8.409050">
        <ele>92.0</ele>
        <time>2011-06-25T09:24:07Z</time>
      </trkpt>
      <trkpt lat="43.339790" lon="-8.409052">
        <ele>92.0</ele>
        <time>2011-06-25T09:24:08Z</time>
      </trkpt>
      <trkpt lat="43.339778" lon="-8.409043">
        <ele>91.5</ele>
        <time>2011-06-25T09:24:09Z</time>
      </trkpt>
      <trkpt lat="43.339777" lon="-8.409042">
        <ele>91.0</ele>
        <time>2011-06-25T09:24:11Z</time>
      </trkpt>
      <trkpt lat="43.339775" lon="-8.409042">
        <ele>91.0</ele>
        <time>2011-06-25T09:24:11Z</time>
      </trkpt>
      <trkpt lat="43.339775" lon="-8.409042">
        <ele>91.0</ele>
        <time>2011-06-25T09:24:13Z</time>
      </trkpt>
      <trkpt lat="43.339775" lon="-8.409040">
        <ele>91.0</ele>
        <time>2011-06-25T09:24:13Z</time>
      </trkpt>
      <trkpt lat="43.339773" lon="-8.409040">
        <ele>91.0</ele>
        <time>2011-06-25T09:24:14Z</time>
      </trkpt>
      <trkpt lat="43.339773" lon="-8.409042">
        <ele>91.0</ele>
        <time>2011-06-25T09:24:16Z</time>
      </trkpt>
      <trkpt lat="43.339773" lon="-8.409042">
        <ele>91.0</ele>
        <time>2011-06-25T09:24:16Z</time>
      </trkpt>
      <trkpt lat="43.339778" lon="-8.409047">
        <ele>91.0</ele>
        <time>2011-06-25T09:24:18Z</time>
      </trkpt>
      <trkpt lat="43.339775" lon="-8.409050">
        <ele>90.5</ele>
        <time>2011-06-25T09:24:18Z</time>
      </trkpt>
      <trkpt lat="43.339772" lon="-8.409053">
        <ele>89.5</ele>
        <time>2011-06-25T09:24:20Z</time>
      </trkpt>
      <trkpt lat="43.339768" lon="-8.409058">
        <ele>88.5</ele>
        <time>2011-06-25T09:24:21Z</time>
      </trkpt>
      <trkpt lat="43.339767" lon="-8.409058">
        <ele>88.0</ele>
        <time>2011-06-25T09:24:21Z</time>
      </trkpt>
      <trkpt lat="43.339767" lon="-8.409060">
        <ele>88.0</ele>
        <time>2011-06-25T09:24:22Z</time>
      </trkpt>
      <trkpt lat="43.339765" lon="-8.409062">
        <ele>87.5</ele>
        <time>2011-06-25T09:24:23Z</time>
      </trkpt>
      <trkpt lat="43.339765" lon="-8.409062">
        <ele>87.5</ele>
        <time>2011-06-25T09:24:25Z</time>
      </trkpt>
      <trkpt lat="43.339765" lon="-8.409062">
        <ele>87.5</ele>
        <time>2011-06-25T09:24:25Z</time>
      </trkpt>
      <trkpt lat="43.339765" lon="-8.409062">
        <ele>87.5</ele>
        <time>2011-06-25T09:24:26Z</time>
      </trkpt>
      <trkpt lat="43.339767" lon="-8.409062">
        <ele>87.5</ele>
        <time>2011-06-25T09:24:27Z</time>
      </trkpt>
      <trkpt lat="43.339768" lon="-8.409062">
        <ele>87.5</ele>
        <time>2011-06-25T09:24:28Z</time>
      </trkpt>
      <trkpt lat="43.339768" lon="-8.409063">
        <ele>87.5</ele>
        <time>2011-06-25T09:24:29Z</time>
      </trkpt>
      <trkpt lat="43.339768" lon="-8.409062">
        <ele>87.5</ele>
        <time>2011-06-25T09:24:30Z</time>
      </trkpt>
      <trkpt lat="43.339768" lon="-8.409062">
        <ele>87.5</ele>
        <time>2011-06-25T09:24:32Z</time>
      </trkpt>
      <trkpt lat="43.339768" lon="-8.409062">
        <ele>87.5</ele>
        <time>2011-06-25T09:24:32Z</time>
      </trkpt>
      <trkpt lat="43.339770" lon="-8.409062">
        <ele>87.5</ele>
        <time>2011-06-25T09:24:34Z</time>
      </trkpt>
      <trkpt lat="43.339770" lon="-8.409062">
        <ele>87.5</ele>
        <time>2011-06-25T09:24:35Z</time>
      </trkpt>
      <trkpt lat="43.339772" lon="-8.409063">
        <ele>87.5</ele>
        <time>2011-06-25T09:24:36Z</time>
      </trkpt>
      <trkpt lat="43.339772" lon="-8.409063">
        <ele>87.5</ele>
        <time>2011-06-25T09:24:36Z</time>
      </trkpt>
      <trkpt lat="43.339773" lon="-8.409063">
        <ele>87.5</ele>
        <time>2011-06-25T09:24:38Z</time>
      </trkpt>
      <trkpt lat="43.339773" lon="-8.409063">
        <ele>87.5</ele>
        <time>2011-06-25T09:24:38Z</time>
      </trkpt>
      <trkpt lat="43.339773" lon="-8.409063">
        <ele>87.5</ele>
        <time>2011-06-25T09:24:39Z</time>
      </trkpt>
      <trkpt lat="43.339773" lon="-8.409063">
        <ele>87.5</ele>
        <time>2011-06-25T09:24:41Z</time>
      </trkpt>
      <trkpt lat="43.339773" lon="-8.409065">
        <ele>87.5</ele>
        <time>2011-06-25T09:24:41Z</time>
      </trkpt>
      <trkpt lat="43.339775" lon="-8.409065">
        <ele>87.5</ele>
        <time>2011-06-25T09:24:42Z</time>
      </trkpt>
      <trkpt lat="43.339775" lon="-8.409065">
        <ele>87.5</ele>
        <time>2011-06-25T09:24:44Z</time>
      </trkpt>
      <trkpt lat="43.339775" lon="-8.409067">
        <ele>87.5</ele>
        <time>2011-06-25T09:24:45Z</time>
      </trkpt>
      <trkpt lat="43.339777" lon="-8.409067">
        <ele>87.5</ele>
        <time>2011-06-25T09:24:46Z</time>
      </trkpt>
      <trkpt lat="43.339777" lon="-8.409068">
        <ele>87.5</ele>
        <time>2011-06-25T09:24:47Z</time>
      </trkpt>
      <trkpt lat="43.339777" lon="-8.409068">
        <ele>87.5</ele>
        <time>2011-06-25T09:24:48Z</time>
      </trkpt>
      <trkpt lat="43.339777" lon="-8.409068">
        <ele>87.5</ele>
        <time>2011-06-25T09:24:48Z</time>
      </trkpt>
      <trkpt lat="43.339777" lon="-8.409068">
        <ele>87.5</ele>
        <time>2011-06-25T09:24:50Z</time>
      </trkpt>
      <trkpt lat="43.339777" lon="-8.409068">
        <ele>87.5</ele>
        <time>2011-06-25T09:24:50Z</time>
      </trkpt>
      <trkpt lat="43.339777" lon="-8.409068">
        <ele>87.5</ele>
        <time>2011-06-25T09:24:52Z</time>
      </trkpt>
      <trkpt lat="43.339777" lon="-8.409068">
        <ele>87.5</ele>
        <time>2011-06-25T09:24:53Z</time>
      </trkpt>
      <trkpt lat="43.339777" lon="-8.409068">
        <ele>88.0</ele>
        <time>2011-06-25T09:24:54Z</time>
      </trkpt>
      <trkpt lat="43.339777" lon="-8.409068">
        <ele>88.0</ele>
        <time>2011-06-25T09:24:54Z</time>
      </trkpt>
      <trkpt lat="43.339777" lon="-8.409068">
        <ele>88.0</ele>
        <time>2011-06-25T09:24:56Z</time>
      </trkpt>
      <trkpt lat="43.339777" lon="-8.409068">
        <ele>88.0</ele>
        <time>2011-06-25T09:24:57Z</time>
      </trkpt>
      <trkpt lat="43.339777" lon="-8.409068">
        <ele>88.0</ele>
        <time>2011-06-25T09:24:57Z</time>
      </trkpt>
      <trkpt lat="43.339777" lon="-8.409068">
        <ele>88.0</ele>
        <time>2011-06-25T09:24:59Z</time>
      </trkpt>
      <trkpt lat="43.339777" lon="-8.409068">
        <ele>88.0</ele>
        <time>2011-06-25T09:24:59Z</time>
      </trkpt>
      <trkpt lat="43.339777" lon="-8.409068">
        <ele>88.0</ele>
        <time>2011-06-25T09:25:00Z</time>
      </trkpt>
      <trkpt lat="43.339777" lon="-8.409068">
        <ele>88.0</ele>
        <time>2011-06-25T09:25:01Z</time>
      </trkpt>
      <trkpt lat="43.339777" lon="-8.409068">
        <ele>88.0</ele>
        <time>2011-06-25T09:25:02Z</time>
      </trkpt>
      <trkpt lat="43.339777" lon="-8.409073">
        <ele>87.5</ele>
        <time>2011-06-25T09:25:04Z</time>
      </trkpt>
      <trkpt lat="43.339773" lon="-8.409072">
        <ele>87.5</ele>
        <time>2011-06-25T09:25:05Z</time>
      </trkpt>
      <trkpt lat="43.339770" lon="-8.409070">
        <ele>87.5</ele>
        <time>2011-06-25T09:25:06Z</time>
      </trkpt>
      <trkpt lat="43.339768" lon="-8.409068">
        <ele>87.5</ele>
        <time>2011-06-25T09:25:06Z</time>
      </trkpt>
      <trkpt lat="43.339768" lon="-8.409067">
        <ele>87.0</ele>
        <time>2011-06-25T09:25:07Z</time>
      </trkpt>
      <trkpt lat="43.339768" lon="-8.409067">
        <ele>87.0</ele>
        <time>2011-06-25T09:25:09Z</time>
      </trkpt>
      <trkpt lat="43.339768" lon="-8.409065">
        <ele>87.0</ele>
        <time>2011-06-25T09:25:09Z</time>
      </trkpt>
      <trkpt lat="43.339768" lon="-8.409063">
        <ele>87.0</ele>
        <time>2011-06-25T09:25:11Z</time>
      </trkpt>
      <trkpt lat="43.339767" lon="-8.409062">
        <ele>87.0</ele>
        <time>2011-06-25T09:25:11Z</time>
      </trkpt>
      <trkpt lat="43.339765" lon="-8.409060">
        <ele>87.0</ele>
        <time>2011-06-25T09:25:13Z</time>
      </trkpt>
      <trkpt lat="43.339765" lon="-8.409058">
        <ele>87.0</ele>
        <time>2011-06-25T09:25:14Z</time>
      </trkpt>
      <trkpt lat="43.339765" lon="-8.409057">
        <ele>87.0</ele>
        <time>2011-06-25T09:25:15Z</time>
      </trkpt>
      <trkpt lat="43.339765" lon="-8.409057">
        <ele>87.0</ele>
        <time>2011-06-25T09:25:15Z</time>
      </trkpt>
      <trkpt lat="43.339765" lon="-8.409057">
        <ele>87.5</ele>
        <time>2011-06-25T09:25:17Z</time>
      </trkpt>
      <trkpt lat="43.339767" lon="-8.409057">
        <ele>87.5</ele>
        <time>2011-06-25T09:25:17Z</time>
      </trkpt>
      <trkpt lat="43.339767" lon="-8.409057">
        <ele>87.5</ele>
        <time>2011-06-25T09:25:19Z</time>
      </trkpt>
      <trkpt lat="43.339767" lon="-8.409040">
        <ele>87.5</ele>
        <time>2011-06-25T09:25:20Z</time>
      </trkpt>
      <trkpt lat="43.339758" lon="-8.409050">
        <ele>86.0</ele>
        <time>2011-06-25T09:25:20Z</time>
      </trkpt>
      <trkpt lat="43.339758" lon="-8.409053">
        <ele>85.5</ele>
        <time>2011-06-25T09:25:21Z</time>
      </trkpt>
      <trkpt lat="43.339758" lon="-8.409053">
        <ele>85.5</ele>
        <time>2011-06-25T09:25:23Z</time>
      </trkpt>
      <trkpt lat="43.339757" lon="-8.409053">
        <ele>85.5</ele>
        <time>2011-06-25T09:25:24Z</time>
      </trkpt>
      <trkpt lat="43.339752" lon="-8.409048">
        <ele>85.5</ele>
        <time>2011-06-25T09:25:25Z</time>
      </trkpt>
      <trkpt lat="43.339748" lon="-8.409047">
        <ele>85.0</ele>
        <time>2011-06-25T09:25:25Z</time>
      </trkpt>
      <trkpt lat="43.339743" lon="-8.409047">
        <ele>85.5</ele>
        <time>2011-06-25T09:25:26Z</time>
      </trkpt>
      <trkpt lat="43.339742" lon="-8.409060">
        <ele>85.0</ele>
        <time>2011-06-25T09:25:27Z</time>
      </trkpt>
      <trkpt lat="43.339742" lon="-8.409067">
        <ele>85.0</ele>
        <time>2011-06-25T09:25:29Z</time>
      </trkpt>
      <trkpt lat="43.339745" lon="-8.409072">
        <ele>85.5</ele>
        <time>2011-06-25T09:25:30Z</time>
      </trkpt>
      <trkpt lat="43.339748" lon="-8.409073">
        <ele>85.5</ele>
        <time>2011-06-25T09:25:31Z</time>
      </trkpt>
      <trkpt lat="43.339750" lon="-8.409075">
        <ele>85.5</ele>
        <time>2011-06-25T09:25:31Z</time>
      </trkpt>
      <trkpt lat="43.339750" lon="-8.409077">
        <ele>85.5</ele>
        <time>2011-06-25T09:25:32Z</time>
      </trkpt>
      <trkpt lat="43.339752" lon="-8.409078">
        <ele>85.5</ele>
        <time>2011-06-25T09:25:33Z</time>
      </trkpt>
      <trkpt lat="43.339753" lon="-8.409083">
        <ele>85.5</ele>
        <time>2011-06-25T09:25:34Z</time>
      </trkpt>
      <trkpt lat="43.339757" lon="-8.409088">
        <ele>85.5</ele>
        <time>2011-06-25T09:25:35Z</time>
      </trkpt>
      <trkpt lat="43.339758" lon="-8.409092">
        <ele>85.5</ele>
        <time>2011-06-25T09:25:36Z</time>
      </trkpt>
      <trkpt lat="43.339758" lon="-8.409093">
        <ele>85.5</ele>
        <time>2011-06-25T09:25:37Z</time>
      </trkpt>
      <trkpt lat="43.339758" lon="-8.409095">
        <ele>85.5</ele>
        <time>2011-06-25T09:25:38Z</time>
      </trkpt>
      <trkpt lat="43.339758" lon="-8.409097">
        <ele>85.0</ele>
        <time>2011-06-25T09:25:39Z</time>
      </trkpt>
      <trkpt lat="43.339757" lon="-8.409100">
        <ele>85.0</ele>
        <time>2011-06-25T09:25:40Z</time>
      </trkpt>
      <trkpt lat="43.339755" lon="-8.409098">
        <ele>85.0</ele>
        <time>2011-06-25T09:25:41Z</time>
      </trkpt>
      <trkpt lat="43.339755" lon="-8.409102">
        <ele>84.5</ele>
        <time>2011-06-25T09:25:42Z</time>
      </trkpt>
      <trkpt lat="43.339755" lon="-8.409103">
        <ele>84.5</ele>
        <time>2011-06-25T09:25:43Z</time>
      </trkpt>
      <trkpt lat="43.339753" lon="-8.409103">
        <ele>84.5</ele>
        <time>2011-06-25T09:25:44Z</time>
      </trkpt>
      <trkpt lat="43.339753" lon="-8.409105">
        <ele>84.5</ele>
        <time>2011-06-25T09:25:45Z</time>
      </trkpt>
      <trkpt lat="43.339753" lon="-8.409105">
        <ele>84.5</ele>
        <time>2011-06-25T09:25:47Z</time>
      </trkpt>
      <trkpt lat="43.339753" lon="-8.409105">
        <ele>84.5</ele>
        <time>2011-06-25T09:25:47Z</time>
      </trkpt>
      <trkpt lat="43.339753" lon="-8.409105">
        <ele>84.5</ele>
        <time>2011-06-25T09:25:49Z</time>
      </trkpt>
      <trkpt lat="43.339753" lon="-8.409105">
        <ele>84.5</ele>
        <time>2011-06-25T09:25:49Z</time>
      </trkpt>
      <trkpt lat="43.339753" lon="-8.409107">
        <ele>84.5</ele>
        <time>2011-06-25T09:25:51Z</time>
      </trkpt>
      <trkpt lat="43.339753" lon="-8.409105">
        <ele>84.5</ele>
        <time>2011-06-25T09:25:51Z</time>
      </trkpt>
      <trkpt lat="43.339752" lon="-8.409107">
        <ele>84.5</ele>
        <time>2011-06-25T09:25:52Z</time>
      </trkpt>
      <trkpt lat="43.339752" lon="-8.409105">
        <ele>84.5</ele>
        <time>2011-06-25T09:25:54Z</time>
      </trkpt>
      <trkpt lat="43.339752" lon="-8.409105">
        <ele>84.5</ele>
        <time>2011-06-25T09:25:54Z</time>
      </trkpt>
      <trkpt lat="43.339752" lon="-8.409105">
        <ele>84.5</ele>
        <time>2011-06-25T09:25:56Z</time>
      </trkpt>
      <trkpt lat="43.339752" lon="-8.409105">
        <ele>84.5</ele>
        <time>2011-06-25T09:25:56Z</time>
      </trkpt>
      <trkpt lat="43.339752" lon="-8.409105">
        <ele>84.5</ele>
        <time>2011-06-25T09:25:57Z</time>
      </trkpt>
      <trkpt lat="43.339752" lon="-8.409105">
        <ele>84.5</ele>
        <time>2011-06-25T09:25:59Z</time>
      </trkpt>
      <trkpt lat="43.339752" lon="-8.409105">
        <ele>84.5</ele>
        <time>2011-06-25T09:25:59Z</time>
      </trkpt>
      <trkpt lat="43.339752" lon="-8.409105">
        <ele>84.5</ele>
        <time>2011-06-25T09:26:01Z</time>
      </trkpt>
      <trkpt lat="43.339752" lon="-8.409107">
        <ele>84.5</ele>
        <time>2011-06-25T09:26:02Z</time>
      </trkpt>
      <trkpt lat="43.339753" lon="-8.409107">
        <ele>84.5</ele>
        <time>2011-06-25T09:26:02Z</time>
      </trkpt>
      <trkpt lat="43.339753" lon="-8.409107">
        <ele>84.5</ele>
        <time>2011-06-25T09:26:04Z</time>
      </trkpt>
      <trkpt lat="43.339753" lon="-8.409107">
        <ele>84.5</ele>
        <time>2011-06-25T09:26:04Z</time>
      </trkpt>
      <trkpt lat="43.339753" lon="-8.409107">
        <ele>84.5</ele>
        <time>2011-06-25T09:26:06Z</time>
      </trkpt>
      <trkpt lat="43.339753" lon="-8.409107">
        <ele>85.0</ele>
        <time>2011-06-25T09:26:07Z</time>
      </trkpt>
      <trkpt lat="43.339753" lon="-8.409107">
        <ele>85.0</ele>
        <time>2011-06-25T09:26:08Z</time>
      </trkpt>
      <trkpt lat="43.339753" lon="-8.409107">
        <ele>85.0</ele>
        <time>2011-06-25T09:26:09Z</time>
      </trkpt>
      <trkpt lat="43.339752" lon="-8.409107">
        <ele>85.0</ele>
        <time>2011-06-25T09:26:10Z</time>
      </trkpt>
      <trkpt lat="43.339753" lon="-8.409107">
        <ele>85.0</ele>
        <time>2011-06-25T09:26:10Z</time>
      </trkpt>
      <trkpt lat="43.339753" lon="-8.409107">
        <ele>85.0</ele>
        <time>2011-06-25T09:26:11Z</time>
      </trkpt>
      <trkpt lat="43.339753" lon="-8.409107">
        <ele>85.0</ele>
        <time>2011-06-25T09:26:13Z</time>
      </trkpt>
    </trkseg>
  </trk>
  <trk>
    <name>T2067676-2</name>
    <cmt>saida con compañeiros do C.C.Arteixo polos arredores da Coruña</cmt>
    <desc>saida con compañeiros do C.C.Arteixo polos arredores da Coruña</desc>
    <trkseg>
      <trkpt lat="43.339753" lon="-8.409107">
        <ele>85.0</ele>
        <time>2011-06-25T09:26:14Z</time>
      </trkpt>
      <trkpt lat="43.339753" lon="-8.409107">
        <ele>84.5</ele>
        <time>2011-06-25T09:26:15Z</time>
      </trkpt>
      <trkpt lat="43.339752" lon="-8.409107">
        <ele>84.5</ele>
        <time>2011-06-25T09:26:15Z</time>
      </trkpt>
      <trkpt lat="43.339752" lon="-8.409107">
        <ele>84.5</ele>
        <time>2011-06-25T09:26:16Z</time>
      </trkpt>
      <trkpt lat="43.339752" lon="-8.409107">
        <ele>84.5</ele>
        <time>2011-06-25T09:26:18Z</time>
      </trkpt>
      <trkpt lat="43.339752" lon="-8.409107">
        <ele>84.5</ele>
        <time>2011-06-25T09:26:19Z</time>
      </trkpt>
      <trkpt lat="43.339752" lon="-8.409107">
        <ele>84.5</ele>
        <time>2011-06-25T09:26:20Z</time>
      </trkpt>
      <trkpt lat="43.339752" lon="-8.409107">
        <ele>84.5</ele>
        <time>2011-06-25T09:26:21Z</time>
      </trkpt>
      <trkpt lat="43.339752" lon="-8.409107">
        <ele>84.5</ele>
        <time>2011-06-25T09:26:22Z</time>
      </trkpt>
      <trkpt lat="43.339752" lon="-8.409107">
        <ele>84.5</ele>
        <time>2011-06-25T09:26:23Z</time>
      </trkpt>
      <trkpt lat="43.339752" lon="-8.409107">
        <ele>84.5</ele>
        <time>2011-06-25T09:26:23Z</time>
      </trkpt>
      <trkpt lat="43.339752" lon="-8.409107">
        <ele>84.5</ele>
        <time>2011-06-25T09:26:25Z</time>
      </trkpt>
      <trkpt lat="43.339752" lon="-8.409107">
        <ele>84.5</ele>
        <time>2011-06-25T09:26:26Z</time>
      </trkpt>
      <trkpt lat="43.339752" lon="-8.409107">
        <ele>84.5</ele>
        <time>2011-06-25T09:26:27Z</time>
      </trkpt>
      <trkpt lat="43.339752" lon="-8.409107">
        <ele>84.5</ele>
        <time>2011-06-25T09:26:28Z</time>
      </trkpt>
      <trkpt lat="43.339752" lon="-8.409107">
        <ele>84.5</ele>
        <time>2011-06-25T09:26:29Z</time>
      </trkpt>
      <trkpt lat="43.339752" lon="-8.409107">
        <ele>84.5</ele>
        <time>2011-06-25T09:26:30Z</time>
      </trkpt>
      <trkpt lat="43.339752" lon="-8.409107">
        <ele>84.5</ele>
        <time>2011-06-25T09:26:31Z</time>
      </trkpt>
      <trkpt lat="43.339752" lon="-8.409107">
        <ele>84.5</ele>
        <time>2011-06-25T09:26:32Z</time>
      </trkpt>
      <trkpt lat="43.339752" lon="-8.409107">
        <ele>84.5</ele>
        <time>2011-06-25T09:26:33Z</time>
      </trkpt>
      <trkpt lat="43.339752" lon="-8.409107">
        <ele>84.5</ele>
        <time>2011-06-25T09:26:34Z</time>
      </trkpt>
      <trkpt lat="43.339752" lon="-8.409107">
        <ele>84.5</ele>
        <time>2011-06-25T09:26:35Z</time>
      </trkpt>
      <trkpt lat="43.339752" lon="-8.409107">
        <ele>84.5</ele>
        <time>2011-06-25T09:26:35Z</time>
      </trkpt>
      <trkpt lat="43.339752" lon="-8.409107">
        <ele>84.5</ele>
        <time>2011-06-25T09:26:37Z</time>
      </trkpt>
      <trkpt lat="43.339752" lon="-8.409107">
        <ele>84.5</ele>
        <time>2011-06-25T09:26:37Z</time>
      </trkpt>
      <trkpt lat="43.339750" lon="-8.409107">
        <ele>84.5</ele>
        <time>2011-06-25T09:26:39Z</time>
      </trkpt>
      <trkpt lat="43.339750" lon="-8.409107">
        <ele>84.5</ele>
        <time>2011-06-25T09:26:40Z</time>
      </trkpt>
      <trkpt lat="43.339750" lon="-8.409107">
        <ele>84.5</ele>
        <time>2011-06-25T09:26:41Z</time>
      </trkpt>
      <trkpt lat="43.339750" lon="-8.409107">
        <ele>84.5</ele>
        <time>2011-06-25T09:26:42Z</time>
      </trkpt>
      <trkpt lat="43.339750" lon="-8.409107">
        <ele>84.5</ele>
        <time>2011-06-25T09:26:42Z</time>
      </trkpt>
      <trkpt lat="43.339750" lon="-8.409107">
        <ele>84.5</ele>
        <time>2011-06-25T09:26:44Z</time>
      </trkpt>
      <trkpt lat="43.339750" lon="-8.409107">
        <ele>84.5</ele>
        <time>2011-06-25T09:26:45Z</time>
      </trkpt>
      <trkpt lat="43.339750" lon="-8.409107">
        <ele>84.5</ele>
        <time>2011-06-25T09:26:46Z</time>
      </trkpt>
      <trkpt lat="43.339750" lon="-8.409107">
        <ele>84.5</ele>
        <time>2011-06-25T09:26:47Z</time>
      </trkpt>
      <trkpt lat="43.339750" lon="-8.409107">
        <ele>84.0</ele>
        <time>2011-06-25T09:26:47Z</time>
      </trkpt>
      <trkpt lat="43.339748" lon="-8.409107">
        <ele>84.0</ele>
        <time>2011-06-25T09:26:48Z</time>
      </trkpt>
      <trkpt lat="43.339748" lon="-8.409107">
        <ele>84.0</ele>
        <time>2011-06-25T09:26:50Z</time>
      </trkpt>
      <trkpt lat="43.339748" lon="-8.409107">
        <ele>84.0</ele>
        <time>2011-06-25T09:26:51Z</time>
      </trkpt>
      <trkpt lat="43.339748" lon="-8.409107">
        <ele>84.0</ele>
        <time>2011-06-25T09:26:51Z</time>
      </trkpt>
      <trkpt lat="43.339748" lon="-8.409107">
        <ele>84.0</ele>
        <time>2011-06-25T09:26:52Z</time>
      </trkpt>
      <trkpt lat="43.339748" lon="-8.409107">
        <ele>84.0</ele>
        <time>2011-06-25T09:26:54Z</time>
      </trkpt>
      <trkpt lat="43.339748" lon="-8.409108">
        <ele>84.0</ele>
        <time>2011-06-25T09:26:55Z</time>
      </trkpt>
      <trkpt lat="43.339747" lon="-8.409108">
        <ele>84.0</ele>
        <time>2011-06-25T09:26:56Z</time>
      </trkpt>
      <trkpt lat="43.339747" lon="-8.409108">
        <ele>84.0</ele>
        <time>2011-06-25T09:26:57Z</time>
      </trkpt>
      <trkpt lat="43.339747" lon="-8.409108">
        <ele>84.0</ele>
        <time>2011-06-25T09:26:58Z</time>
      </trkpt>
      <trkpt lat="43.339747" lon="-8.409108">
        <ele>84.0</ele>
        <time>2011-06-25T09:26:58Z</time>
      </trkpt>
      <trkpt lat="43.339747" lon="-8.409108">
        <ele>84.0</ele>
        <time>2011-06-25T09:26:59Z</time>
      </trkpt>
      <trkpt lat="43.339747" lon="-8.409108">
        <ele>84.0</ele>
        <time>2011-06-25T09:27:00Z</time>
      </trkpt>
      <trkpt lat="43.339745" lon="-8.409113">
        <ele>85.5</ele>
        <time>2011-06-25T09:27:02Z</time>
      </trkpt>
      <trkpt lat="43.339743" lon="-8.409115">
        <ele>85.0</ele>
        <time>2011-06-25T09:27:02Z</time>
      </trkpt>
      <trkpt lat="43.339740" lon="-8.409113">
        <ele>85.0</ele>
        <time>2011-06-25T09:27:04Z</time>
      </trkpt>
      <trkpt lat="43.339740" lon="-8.409115">
        <ele>85.5</ele>
        <time>2011-06-25T09:27:05Z</time>
      </trkpt>
      <trkpt lat="43.339740" lon="-8.409117">
        <ele>85.5</ele>
        <time>2011-06-25T09:27:05Z</time>
      </trkpt>
      <trkpt lat="43.339740" lon="-8.409117">
        <ele>85.5</ele>
        <time>2011-06-25T09:27:07Z</time>
      </trkpt>
      <trkpt lat="43.339738" lon="-8.409117">
        <ele>85.0</ele>
        <time>2011-06-25T09:27:07Z</time>
      </trkpt>
      <trkpt lat="43.339738" lon="-8.409117">
        <ele>85.0</ele>
        <time>2011-06-25T09:27:08Z</time>
      </trkpt>
      <trkpt lat="43.339738" lon="-8.409118">
        <ele>85.0</ele>
        <time>2011-06-25T09:27:10Z</time>
      </trkpt>
      <trkpt lat="43.339738" lon="-8.409118">
        <ele>85.0</ele>
        <time>2011-06-25T09:27:11Z</time>
      </trkpt>
      <trkpt lat="43.339738" lon="-8.409118">
        <ele>85.0</ele>
        <time>2011-06-25T09:27:11Z</time>
      </trkpt>
      <trkpt lat="43.339738" lon="-8.409118">
        <ele>85.0</ele>
        <time>2011-06-25T09:27:13Z</time>
      </trkpt>
      <trkpt lat="43.339737" lon="-8.409118">
        <ele>85.0</ele>
        <time>2011-06-25T09:27:14Z</time>
      </trkpt>
      <trkpt lat="43.339737" lon="-8.409118">
        <ele>85.0</ele>
        <time>2011-06-25T09:27:15Z</time>
      </trkpt>
      <trkpt lat="43.339737" lon="-8.409118">
        <ele>85.0</ele>
        <time>2011-06-25T09:27:16Z</time>
      </trkpt>
      <trkpt lat="43.339737" lon="-8.409118">
        <ele>85.0</ele>
        <time>2011-06-25T09:27:17Z</time>
      </trkpt>
      <trkpt lat="43.339737" lon="-8.409120">
        <ele>85.0</ele>
        <time>2011-06-25T09:27:18Z</time>
      </trkpt>
      <trkpt lat="43.339737" lon="-8.409120">
        <ele>85.0</ele>
        <time>2011-06-25T09:27:19Z</time>
      </trkpt>
      <trkpt lat="43.339737" lon="-8.409120">
        <ele>85.0</ele>
        <time>2011-06-25T09:27:20Z</time>
      </trkpt>
      <trkpt lat="43.339737" lon="-8.409120">
        <ele>85.0</ele>
        <time>2011-06-25T09:27:21Z</time>
      </trkpt>
      <trkpt lat="43.339737" lon="-8.409120">
        <ele>85.0</ele>
        <time>2011-06-25T09:27:22Z</time>
      </trkpt>
      <trkpt lat="43.339737" lon="-8.409120">
        <ele>85.0</ele>
        <time>2011-06-25T09:27:23Z</time>
      </trkpt>
      <trkpt lat="43.339737" lon="-8.409120">
        <ele>84.5</ele>
        <time>2011-06-25T09:27:23Z</time>
      </trkpt>
      <trkpt lat="43.339737" lon="-8.409120">
        <ele>84.5</ele>
        <time>2011-06-25T09:27:25Z</time>
      </trkpt>
      <trkpt lat="43.339737" lon="-8.409120">
        <ele>84.5</ele>
        <time>2011-06-25T09:27:26Z</time>
      </trkpt>
      <trkpt lat="43.339737" lon="-8.409120">
        <ele>84.5</ele>
        <time>2011-06-25T09:27:27Z</time>
      </trkpt>
      <trkpt lat="43.339737" lon="-8.409120">
        <ele>84.5</ele>
        <time>2011-06-25T09:27:28Z</time>
      </trkpt>
      <trkpt lat="43.339737" lon="-8.409120">
        <ele>84.5</ele>
        <time>2011-06-25T09:27:29Z</time>
      </trkpt>
      <trkpt lat="43.339737" lon="-8.409120">
        <ele>84.5</ele>
        <time>2011-06-25T09:27:30Z</time>
      </trkpt>
      <trkpt lat="43.339737" lon="-8.409120">
        <ele>84.5</ele>
        <time>2011-06-25T09:27:31Z</time>
      </trkpt>
      <trkpt lat="43.339737" lon="-8.409120">
        <ele>84.5</ele>
        <time>2011-06-25T09:27:32Z</time>
      </trkpt>
      <trkpt lat="43.339737" lon="-8.409120">
        <ele>84.5</ele>
        <time>2011-06-25T09:27:33Z</time>
      </trkpt>
      <trkpt lat="43.339737" lon="-8.409120">
        <ele>84.5</ele>
        <time>2011-06-25T09:27:34Z</time>
      </trkpt>
      <trkpt lat="43.339737" lon="-8.409122">
        <ele>84.5</ele>
        <time>2011-06-25T09:27:35Z</time>
      </trkpt>
      <trkpt lat="43.339737" lon="-8.409122">
        <ele>84.5</ele>
        <time>2011-06-25T09:27:36Z</time>
      </trkpt>
      <trkpt lat="43.339737" lon="-8.409122">
        <ele>84.5</ele>
        <time>2011-06-25T09:27:37Z</time>
      </trkpt>
      <trkpt lat="43.339737" lon="-8.409122">
        <ele>84.5</ele>
        <time>2011-06-25T09:27:38Z</time>
      </trkpt>
      <trkpt lat="43.339737" lon="-8.409122">
        <ele>84.5</ele>
        <time>2011-06-25T09:27:39Z</time>
      </trkpt>
      <trkpt lat="43.339737" lon="-8.409122">
        <ele>84.5</ele>
        <time>2011-06-25T09:27:40Z</time>
      </trkpt>
      <trkpt lat="43.339737" lon="-8.409122">
        <ele>84.5</ele>
        <time>2011-06-25T09:27:41Z</time>
      </trkpt>
      <trkpt lat="43.339737" lon="-8.409122">
        <ele>84.5</ele>
        <time>2011-06-25T09:27:42Z</time>
      </trkpt>
      <trkpt lat="43.339737" lon="-8.409122">
        <ele>84.5</ele>
        <time>2011-06-25T09:27:42Z</time>
      </trkpt>
      <trkpt lat="43.339737" lon="-8.409122">
        <ele>84.5</ele>
        <time>2011-06-25T09:27:44Z</time>
      </trkpt>
      <trkpt lat="43.339737" lon="-8.409122">
        <ele>84.5</ele>
        <time>2011-06-25T09:27:45Z</time>
      </trkpt>
      <trkpt lat="43.339737" lon="-8.409122">
        <ele>84.5</ele>
        <time>2011-06-25T09:27:46Z</time>
      </trkpt>
      <trkpt lat="43.339737" lon="-8.409122">
        <ele>84.5</ele>
        <time>2011-06-25T09:27:46Z</time>
      </trkpt>
      <trkpt lat="43.339737" lon="-8.409122">
        <ele>84.5</ele>
        <time>2011-06-25T09:27:48Z</time>
      </trkpt>
      <trkpt lat="43.339737" lon="-8.409122">
        <ele>84.5</ele>
        <time>2011-06-25T09:27:49Z</time>
      </trkpt>
      <trkpt lat="43.339737" lon="-8.409122">
        <ele>84.5</ele>
        <time>2011-06-25T09:27:50Z</time>
      </trkpt>
      <trkpt lat="43.339737" lon="-8.409122">
        <ele>84.5</ele>
        <time>2011-06-25T09:27:51Z</time>
      </trkpt>
      <trkpt lat="43.339737" lon="-8.409122">
        <ele>84.5</ele>
        <time>2011-06-25T09:27:52Z</time>
      </trkpt>
      <trkpt lat="43.339737" lon="-8.409122">
        <ele>84.0</ele>
        <time>2011-06-25T09:27:53Z</time>
      </trkpt>
      <trkpt lat="43.339737" lon="-8.409122">
        <ele>84.0</ele>
        <time>2011-06-25T09:27:54Z</time>
      </trkpt>
      <trkpt lat="43.339737" lon="-8.409122">
        <ele>84.0</ele>
        <time>2011-06-25T09:27:55Z</time>
      </trkpt>
      <trkpt lat="43.339737" lon="-8.409122">
        <ele>84.0</ele>
        <time>2011-06-25T09:27:55Z</time>
      </trkpt>
      <trkpt lat="43.339737" lon="-8.409122">
        <ele>84.0</ele>
        <time>2011-06-25T09:27:57Z</time>
      </trkpt>
      <trkpt lat="43.339737" lon="-8.409122">
        <ele>84.0</ele>
        <time>2011-06-25T09:27:57Z</time>
      </trkpt>
      <trkpt lat="43.339742" lon="-8.409122">
        <ele>83.5</ele>
        <time>2011-06-25T09:27:58Z</time>
      </trkpt>
      <trkpt lat="43.339742" lon="-8.409120">
        <ele>83.0</ele>
        <time>2011-06-25T09:28:00Z</time>
      </trkpt>
      <trkpt lat="43.339742" lon="-8.409120">
        <ele>83.0</ele>
        <time>2011-06-25T09:28:00Z</time>
      </trkpt>
      <trkpt lat="43.339742" lon="-8.409120">
        <ele>82.5</ele>
        <time>2011-06-25T09:28:02Z</time>
      </trkpt>
      <trkpt lat="43.339743" lon="-8.409120">
        <ele>82.5</ele>
        <time>2011-06-25T09:28:03Z</time>
      </trkpt>
      <trkpt lat="43.339743" lon="-8.409122">
        <ele>82.5</ele>
        <time>2011-06-25T09:28:04Z</time>
      </trkpt>
      <trkpt lat="43.339743" lon="-8.409122">
        <ele>82.5</ele>
        <time>2011-06-25T09:28:05Z</time>
      </trkpt>
      <trkpt lat="43.339745" lon="-8.409122">
        <ele>82.0</ele>
        <time>2011-06-25T09:28:06Z</time>
      </trkpt>
      <trkpt lat="43.339745" lon="-8.409123">
        <ele>82.0</ele>
        <time>2011-06-25T09:28:06Z</time>
      </trkpt>
      <trkpt lat="43.339745" lon="-8.409123">
        <ele>82.0</ele>
        <time>2011-06-25T09:28:07Z</time>
      </trkpt>
      <trkpt lat="43.339745" lon="-8.409123">
        <ele>82.0</ele>
        <time>2011-06-25T09:28:09Z</time>
      </trkpt>
      <trkpt lat="43.339745" lon="-8.409123">
        <ele>82.0</ele>
        <time>2011-06-25T09:28:10Z</time>
      </trkpt>
      <trkpt lat="43.339745" lon="-8.409123">
        <ele>82.0</ele>
        <time>2011-06-25T09:28:11Z</time>
      </trkpt>
      <trkpt lat="43.339745" lon="-8.409123">
        <ele>82.0</ele>
        <time>2011-06-25T09:28:12Z</time>
      </trkpt>
      <trkpt lat="43.339745" lon="-8.409123">
        <ele>82.0</ele>
        <time>2011-06-25T09:28:13Z</time>
      </trkpt>
      <trkpt lat="43.339745" lon="-8.409123">
        <ele>82.0</ele>
        <time>2011-06-25T09:28:13Z</time>
      </trkpt>
      <trkpt lat="43.339745" lon="-8.409123">
        <ele>82.0</ele>
        <time>2011-06-25T09:28:14Z</time>
      </trkpt>
      <trkpt lat="43.339745" lon="-8.409123">
        <ele>82.0</ele>
        <time>2011-06-25T09:28:16Z</time>
      </trkpt>
      <trkpt lat="43.339743" lon="-8.409123">
        <ele>82.0</ele>
        <time>2011-06-25T09:28:16Z</time>
      </trkpt>
      <trkpt lat="43.339745" lon="-8.409125">
        <ele>81.5</ele>
        <time>2011-06-25T09:28:18Z</time>
      </trkpt>
      <trkpt lat="43.339745" lon="-8.409125">
        <ele>81.5</ele>
        <time>2011-06-25T09:28:18Z</time>
      </trkpt>
      <trkpt lat="43.339745" lon="-8.409125">
        <ele>81.5</ele>
        <time>2011-06-25T09:28:20Z</time>
      </trkpt>
      <trkpt lat="43.339745" lon="-8.409125">
        <ele>81.5</ele>
        <time>2011-06-25T09:28:21Z</time>
      </trkpt>
      <trkpt lat="43.339745" lon="-8.409125">
        <ele>81.5</ele>
        <time>2011-06-25T09:28:22Z</time>
      </trkpt>
      <trkpt lat="43.339745" lon="-8.409125">
        <ele>81.5</ele>
        <time>2011-06-25T09:28:22Z</time>
      </trkpt>
      <trkpt lat="43.339745" lon="-8.409125">
        <ele>81.5</ele>
        <time>2011-06-25T09:28:23Z</time>
      </trkpt>
      <trkpt lat="43.339745" lon="-8.409125">
        <ele>81.5</ele>
        <time>2011-06-25T09:28:24Z</time>
      </trkpt>
      <trkpt lat="43.339745" lon="-8.409127">
        <ele>81.5</ele>
        <time>2011-06-25T09:28:26Z</time>
      </trkpt>
      <trkpt lat="43.339745" lon="-8.409127">
        <ele>81.5</ele>
        <time>2011-06-25T09:28:27Z</time>
      </trkpt>
      <trkpt lat="43.339745" lon="-8.409127">
        <ele>81.5</ele>
        <time>2011-06-25T09:28:27Z</time>
      </trkpt>
      <trkpt lat="43.339745" lon="-8.409127">
        <ele>81.5</ele>
        <time>2011-06-25T09:28:28Z</time>
      </trkpt>
      <trkpt lat="43.339745" lon="-8.409127">
        <ele>81.5</ele>
        <time>2011-06-25T09:28:29Z</time>
      </trkpt>
      <trkpt lat="43.339745" lon="-8.409127">
        <ele>81.5</ele>
        <time>2011-06-25T09:28:30Z</time>
      </trkpt>
      <trkpt lat="43.339745" lon="-8.409127">
        <ele>81.5</ele>
        <time>2011-06-25T09:28:32Z</time>
      </trkpt>
      <trkpt lat="43.339745" lon="-8.409127">
        <ele>81.5</ele>
        <time>2011-06-25T09:28:33Z</time>
      </trkpt>
      <trkpt lat="43.339745" lon="-8.409128">
        <ele>81.5</ele>
        <time>2011-06-25T09:28:34Z</time>
      </trkpt>
      <trkpt lat="43.339745" lon="-8.409128">
        <ele>82.0</ele>
        <time>2011-06-25T09:28:34Z</time>
      </trkpt>
      <trkpt lat="43.339745" lon="-8.409128">
        <ele>82.0</ele>
        <time>2011-06-25T09:28:35Z</time>
      </trkpt>
      <trkpt lat="43.339745" lon="-8.409130">
        <ele>82.0</ele>
        <time>2011-06-25T09:28:37Z</time>
      </trkpt>
      <trkpt lat="43.339745" lon="-8.409130">
        <ele>82.0</ele>
        <time>2011-06-25T09:28:38Z</time>
      </trkpt>
      <trkpt lat="43.339745" lon="-8.409130">
        <ele>82.0</ele>
        <time>2011-06-25T09:28:39Z</time>
      </trkpt>
      <trkpt lat="43.339748" lon="-8.409132">
        <ele>82.0</ele>
        <time>2011-06-25T09:28:39Z</time>
      </trkpt>
      <trkpt lat="43.339748" lon="-8.409140">
        <ele>83.5</ele>
        <time>2011-06-25T09:28:41Z</time>
      </trkpt>
      <trkpt lat="43.339752" lon="-8.409142">
        <ele>83.5</ele>
        <time>2011-06-25T09:28:41Z</time>
      </trkpt>
      <trkpt lat="43.339753" lon="-8.409142">
        <ele>83.5</ele>
        <time>2011-06-25T09:28:42Z</time>
      </trkpt>
      <trkpt lat="43.339753" lon="-8.409142">
        <ele>83.5</ele>
        <time>2011-06-25T09:28:44Z</time>
      </trkpt>
      <trkpt lat="43.339753" lon="-8.409142">
        <ele>83.5</ele>
        <time>2011-06-25T09:28:44Z</time>
      </trkpt>
      <trkpt lat="43.339753" lon="-8.409142">
        <ele>83.0</ele>
        <time>2011-06-25T09:28:46Z</time>
      </trkpt>
      <trkpt lat="43.339753" lon="-8.409142">
        <ele>83.0</ele>
        <time>2011-06-25T09:28:47Z</time>
      </trkpt>
      <trkpt lat="43.339753" lon="-8.409142">
        <ele>83.0</ele>
        <time>2011-06-25T09:28:48Z</time>
      </trkpt>
      <trkpt lat="43.339753" lon="-8.409142">
        <ele>83.0</ele>
        <time>2011-06-25T09:28:48Z</time>
      </trkpt>
      <trkpt lat="43.339753" lon="-8.409142">
        <ele>83.0</ele>
        <time>2011-06-25T09:28:50Z</time>
      </trkpt>
      <trkpt lat="43.339753" lon="-8.409142">
        <ele>83.0</ele>
        <time>2011-06-25T09:28:51Z</time>
      </trkpt>
      <trkpt lat="43.339755" lon="-8.409142">
        <ele>83.0</ele>
        <time>2011-06-25T09:28:52Z</time>
      </trkpt>
      <trkpt lat="43.339755" lon="-8.409142">
        <ele>83.0</ele>
        <time>2011-06-25T09:28:52Z</time>
      </trkpt>
      <trkpt lat="43.339755" lon="-8.409142">
        <ele>83.0</ele>
        <time>2011-06-25T09:28:54Z</time>
      </trkpt>
      <trkpt lat="43.339755" lon="-8.409142">
        <ele>83.0</ele>
        <time>2011-06-25T09:28:55Z</time>
      </trkpt>
      <trkpt lat="43.339755" lon="-8.409142">
        <ele>83.0</ele>
        <time>2011-06-25T09:28:55Z</time>
      </trkpt>
      <trkpt lat="43.339755" lon="-8.409142">
        <ele>83.0</ele>
        <time>2011-06-25T09:28:57Z</time>
      </trkpt>
      <trkpt lat="43.339755" lon="-8.409143">
        <ele>83.0</ele>
        <time>2011-06-25T09:28:57Z</time>
      </trkpt>
      <trkpt lat="43.339757" lon="-8.409145">
        <ele>83.5</ele>
        <time>2011-06-25T09:28:58Z</time>
      </trkpt>
      <trkpt lat="43.339757" lon="-8.409148">
        <ele>83.5</ele>
        <time>2011-06-25T09:29:00Z</time>
      </trkpt>
      <trkpt lat="43.339758" lon="-8.409150">
        <ele>84.0</ele>
        <time>2011-06-25T09:29:01Z</time>
      </trkpt>
      <trkpt lat="43.339752" lon="-8.409148">
        <ele>83.5</ele>
        <time>2011-06-25T09:29:01Z</time>
      </trkpt>
      <trkpt lat="43.339755" lon="-8.409152">
        <ele>83.5</ele>
        <time>2011-06-25T09:29:02Z</time>
      </trkpt>
      <trkpt lat="43.339758" lon="-8.409153">
        <ele>83.5</ele>
        <time>2011-06-25T09:29:04Z</time>
      </trkpt>
      <trkpt lat="43.339758" lon="-8.409155">
        <ele>83.5</ele>
        <time>2011-06-25T09:29:05Z</time>
      </trkpt>
      <trkpt lat="43.339760" lon="-8.409158">
        <ele>83.5</ele>
        <time>2011-06-25T09:29:06Z</time>
      </trkpt>
      <trkpt lat="43.339758" lon="-8.409162">
        <ele>84.0</ele>
        <time>2011-06-25T09:29:06Z</time>
      </trkpt>
      <trkpt lat="43.339758" lon="-8.409162">
        <ele>84.0</ele>
        <time>2011-06-25T09:29:08Z</time>
      </trkpt>
      <trkpt lat="43.339758" lon="-8.409162">
        <ele>84.0</ele>
        <time>2011-06-25T09:29:09Z</time>
      </trkpt>
      <trkpt lat="43.339757" lon="-8.409162">
        <ele>83.5</ele>
        <time>2011-06-25T09:29:10Z</time>
      </trkpt>
      <trkpt lat="43.339757" lon="-8.409162">
        <ele>83.5</ele>
        <time>2011-06-25T09:29:11Z</time>
      </trkpt>
      <trkpt lat="43.339757" lon="-8.409165">
        <ele>84.0</ele>
        <time>2011-06-25T09:29:12Z</time>
      </trkpt>
      <trkpt lat="43.339757" lon="-8.409167">
        <ele>84.5</ele>
        <time>2011-06-25T09:29:12Z</time>
      </trkpt>
      <trkpt lat="43.339757" lon="-8.409172">
        <ele>85.0</ele>
        <time>2011-06-25T09:29:14Z</time>
      </trkpt>
      <trkpt lat="43.339757" lon="-8.409177">
        <ele>86.0</ele>
        <time>2011-06-25T09:29:14Z</time>
      </trkpt>
      <trkpt lat="43.339753" lon="-8.409177">
        <ele>86.0</ele>
        <time>2011-06-25T09:29:16Z</time>
      </trkpt>
      <trkpt lat="43.339752" lon="-8.409175">
        <ele>86.0</ele>
        <time>2011-06-25T09:29:17Z</time>
      </trkpt>
      <trkpt lat="43.339748" lon="-8.409175">
        <ele>85.5</ele>
        <time>2011-06-25T09:29:18Z</time>
      </trkpt>
      <trkpt lat="43.339748" lon="-8.409177">
        <ele>86.0</ele>
        <time>2011-06-25T09:29:18Z</time>
      </trkpt>
      <trkpt lat="43.339742" lon="-8.409173">
        <ele>85.5</ele>
        <time>2011-06-25T09:29:19Z</time>
      </trkpt>
      <trkpt lat="43.339737" lon="-8.409172">
        <ele>85.0</ele>
        <time>2011-06-25T09:29:20Z</time>
      </trkpt>
      <trkpt lat="43.339735" lon="-8.409172">
        <ele>85.0</ele>
        <time>2011-06-25T09:29:21Z</time>
      </trkpt>
      <trkpt lat="43.339735" lon="-8.409172">
        <ele>85.0</ele>
        <time>2011-06-25T09:29:22Z</time>
      </trkpt>
      <trkpt lat="43.339735" lon="-8.409173">
        <ele>85.0</ele>
        <time>2011-06-25T09:29:24Z</time>
      </trkpt>
      <trkpt lat="43.339735" lon="-8.409173">
        <ele>85.0</ele>
        <time>2011-06-25T09:29:24Z</time>
      </trkpt>
      <trkpt lat="43.339733" lon="-8.409173">
        <ele>85.0</ele>
        <time>2011-06-25T09:29:26Z</time>
      </trkpt>
      <trkpt lat="43.339733" lon="-8.409173">
        <ele>85.0</ele>
        <time>2011-06-25T09:29:26Z</time>
      </trkpt>
      <trkpt lat="43.339733" lon="-8.409173">
        <ele>85.0</ele>
        <time>2011-06-25T09:29:27Z</time>
      </trkpt>
      <trkpt lat="43.339733" lon="-8.409173">
        <ele>85.0</ele>
        <time>2011-06-25T09:29:29Z</time>
      </trkpt>
      <trkpt lat="43.339733" lon="-8.409173">
        <ele>85.0</ele>
        <time>2011-06-25T09:29:30Z</time>
      </trkpt>
      <trkpt lat="43.339733" lon="-8.409173">
        <ele>85.0</ele>
        <time>2011-06-25T09:29:31Z</time>
      </trkpt>
      <trkpt lat="43.339733" lon="-8.409173">
        <ele>85.0</ele>
        <time>2011-06-25T09:29:31Z</time>
      </trkpt>
      <trkpt lat="43.339733" lon="-8.409173">
        <ele>85.0</ele>
        <time>2011-06-25T09:29:32Z</time>
      </trkpt>
      <trkpt lat="43.339733" lon="-8.409173">
        <ele>85.0</ele>
        <time>2011-06-25T09:29:33Z</time>
      </trkpt>
      <trkpt lat="43.339733" lon="-8.409173">
        <ele>85.0</ele>
        <time>2011-06-25T09:29:35Z</time>
      </trkpt>
      <trkpt lat="43.339733" lon="-8.409173">
        <ele>85.0</ele>
        <time>2011-06-25T09:29:35Z</time>
      </trkpt>
      <trkpt lat="43.339733" lon="-8.409173">
        <ele>85.0</ele>
        <time>2011-06-25T09:29:37Z</time>
      </trkpt>
      <trkpt lat="43.339728" lon="-8.409173">
        <ele>84.5</ele>
        <time>2011-06-25T09:29:37Z</time>
      </trkpt>
      <trkpt lat="43.339728" lon="-8.409173">
        <ele>84.5</ele>
        <time>2011-06-25T09:29:39Z</time>
      </trkpt>
      <trkpt lat="43.339728" lon="-8.409173">
        <ele>84.0</ele>
        <time>2011-06-25T09:29:40Z</time>
      </trkpt>
      <trkpt lat="43.339728" lon="-8.409173">
        <ele>84.0</ele>
        <time>2011-06-25T09:29:41Z</time>
      </trkpt>
      <trkpt lat="43.339728" lon="-8.409175">
        <ele>84.5</ele>
        <time>2011-06-25T09:29:41Z</time>
      </trkpt>
      <trkpt lat="43.339732" lon="-8.409175">
        <ele>84.5</ele>
        <time>2011-06-25T09:29:42Z</time>
      </trkpt>
      <trkpt lat="43.339732" lon="-8.409175">
        <ele>84.5</ele>
        <time>2011-06-25T09:29:43Z</time>
      </trkpt>
      <trkpt lat="43.339730" lon="-8.409175">
        <ele>84.0</ele>
        <time>2011-06-25T09:29:44Z</time>
      </trkpt>
      <trkpt lat="43.339730" lon="-8.409175">
        <ele>83.5</ele>
        <time>2011-06-25T09:29:45Z</time>
      </trkpt>
      <trkpt lat="43.339730" lon="-8.409177">
        <ele>84.0</ele>
        <time>2011-06-25T09:29:46Z</time>
      </trkpt>
      <trkpt lat="43.339732" lon="-8.409178">
        <ele>84.0</ele>
        <time>2011-06-25T09:29:48Z</time>
      </trkpt>
      <trkpt lat="43.339730" lon="-8.409177">
        <ele>84.0</ele>
        <time>2011-06-25T09:29:48Z</time>
      </trkpt>
      <trkpt lat="43.339730" lon="-8.409177">
        <ele>83.5</ele>
        <time>2011-06-25T09:29:49Z</time>
      </trkpt>
      <trkpt lat="43.339727" lon="-8.409175">
        <ele>83.5</ele>
        <time>2011-06-25T09:29:51Z</time>
      </trkpt>
      <trkpt lat="43.339720" lon="-8.409167">
        <ele>82.0</ele>
        <time>2011-06-25T09:29:51Z</time>
      </trkpt>
      <trkpt lat="43.339710" lon="-8.409160">
        <ele>80.5</ele>
        <time>2011-06-25T09:29:52Z</time>
      </trkpt>
      <trkpt lat="43.339697" lon="-8.409152">
        <ele>79.0</ele>
        <time>2011-06-25T09:29:53Z</time>
      </trkpt>
      <trkpt lat="43.339697" lon="-8.409152">
        <ele>79.0</ele>
        <time>2011-06-25T09:29:54Z</time>
      </trkpt>
      <trkpt lat="43.339697" lon="-8.409158">
        <ele>80.5</ele>
        <time>2011-06-25T09:29:55Z</time>
      </trkpt>
      <trkpt lat="43.339697" lon="-8.409165">
        <ele>81.5</ele>
        <time>2011-06-25T09:29:56Z</time>
      </trkpt>
      <trkpt lat="43.339695" lon="-8.409163">
        <ele>81.5</ele>
        <time>2011-06-25T09:29:57Z</time>
      </trkpt>
      <trkpt lat="43.339695" lon="-8.409163">
        <ele>81.0</ele>
        <time>2011-06-25T09:29:58Z</time>
      </trkpt>
      <trkpt lat="43.339695" lon="-8.409163">
        <ele>81.0</ele>
        <time>2011-06-25T09:30:00Z</time>
      </trkpt>
      <trkpt lat="43.339695" lon="-8.409163">
        <ele>81.5</ele>
        <time>2011-06-25T09:30:00Z</time>
      </trkpt>
      <trkpt lat="43.339698" lon="-8.409165">
        <ele>81.5</ele>
        <time>2011-06-25T09:30:02Z</time>
      </trkpt>
      <trkpt lat="43.339698" lon="-8.409167">
        <ele>81.5</ele>
        <time>2011-06-25T09:30:03Z</time>
      </trkpt>
      <trkpt lat="43.339703" lon="-8.409168">
        <ele>82.5</ele>
        <time>2011-06-25T09:30:03Z</time>
      </trkpt>
      <trkpt lat="43.339708" lon="-8.409172">
        <ele>83.0</ele>
        <time>2011-06-25T09:30:05Z</time>
      </trkpt>
      <trkpt lat="43.339710" lon="-8.409173">
        <ele>83.0</ele>
        <time>2011-06-25T09:30:05Z</time>
      </trkpt>
      <trkpt lat="43.339715" lon="-8.409175">
        <ele>83.5</ele>
        <time>2011-06-25T09:30:06Z</time>
      </trkpt>
      <trkpt lat="43.339720" lon="-8.409178">
        <ele>84.0</ele>
        <time>2011-06-25T09:30:07Z</time>
      </trkpt>
      <trkpt lat="43.339722" lon="-8.409180">
        <ele>84.5</ele>
        <time>2011-06-25T09:30:09Z</time>
      </trkpt>
      <trkpt lat="43.339722" lon="-8.409180">
        <ele>84.5</ele>
        <time>2011-06-25T09:30:10Z</time>
      </trkpt>
      <trkpt lat="43.339723" lon="-8.409180">
        <ele>84.5</ele>
        <time>2011-06-25T09:30:10Z</time>
      </trkpt>
      <trkpt lat="43.339723" lon="-8.409185">
        <ele>85.0</ele>
        <time>2011-06-25T09:30:11Z</time>
      </trkpt>
      <trkpt lat="43.339725" lon="-8.409188">
        <ele>85.0</ele>
        <time>2011-06-25T09:30:13Z</time>
      </trkpt>
      <trkpt lat="43.339725" lon="-8.409193">
        <ele>86.0</ele>
        <time>2011-06-25T09:30:14Z</time>
      </trkpt>
      <trkpt lat="43.339728" lon="-8.409197">
        <ele>86.5</ele>
        <time>2011-06-25T09:30:15Z</time>
      </trkpt>
      <trkpt lat="43.339728" lon="-8.409197">
        <ele>86.5</ele>
        <time>2011-06-25T09:30:16Z</time>
      </trkpt>
      <trkpt lat="43.339728" lon="-8.409197">
        <ele>86.5</ele>
        <time>2011-06-25T09:30:16Z</time>
      </trkpt>
      <trkpt lat="43.339732" lon="-8.409198">
        <ele>87.0</ele>
        <time>2011-06-25T09:30:17Z</time>
      </trkpt>
      <trkpt lat="43.339733" lon="-8.409198">
        <ele>87.0</ele>
        <time>2011-06-25T09:30:18Z</time>
      </trkpt>
      <trkpt lat="43.339733" lon="-8.409200">
        <ele>87.0</ele>
        <time>2011-06-25T09:30:19Z</time>
      </trkpt>
      <trkpt lat="43.339735" lon="-8.409200">
        <ele>87.0</ele>
        <time>2011-06-25T09:30:20Z</time>
      </trkpt>
      <trkpt lat="43.339737" lon="-8.409202">
        <ele>87.5</ele>
        <time>2011-06-25T09:30:21Z</time>
      </trkpt>
      <trkpt lat="43.339738" lon="-8.409202">
        <ele>87.5</ele>
        <time>2011-06-25T09:30:22Z</time>
      </trkpt>
      <trkpt lat="43.339738" lon="-8.409202">
        <ele>87.5</ele>
        <time>2011-06-25T09:30:23Z</time>
      </trkpt>
      <trkpt lat="43.339740" lon="-8.409198">
        <ele>87.0</ele>
        <time>2011-06-25T09:30:24Z</time>
      </trkpt>
      <trkpt lat="43.339740" lon="-8.409198">
        <ele>87.0</ele>
        <time>2011-06-25T09:30:25Z</time>
      </trkpt>
      <trkpt lat="43.339740" lon="-8.409198">
        <ele>87.0</ele>
        <time>2011-06-25T09:30:26Z</time>
      </trkpt>
      <trkpt lat="43.339740" lon="-8.409198">
        <ele>87.0</ele>
        <time>2011-06-25T09:30:27Z</time>
      </trkpt>
      <trkpt lat="43.339740" lon="-8.409198">
        <ele>86.5</ele>
        <time>2011-06-25T09:30:28Z</time>
      </trkpt>
      <trkpt lat="43.339742" lon="-8.409197">
        <ele>86.5</ele>
        <time>2011-06-25T09:30:29Z</time>
      </trkpt>
      <trkpt lat="43.339742" lon="-8.409197">
        <ele>86.5</ele>
        <time>2011-06-25T09:30:30Z</time>
      </trkpt>
      <trkpt lat="43.339742" lon="-8.409197">
        <ele>86.5</ele>
        <time>2011-06-25T09:30:31Z</time>
      </trkpt>
      <trkpt lat="43.339742" lon="-8.409197">
        <ele>86.5</ele>
        <time>2011-06-25T09:30:32Z</time>
      </trkpt>
      <trkpt lat="43.339742" lon="-8.409197">
        <ele>86.5</ele>
        <time>2011-06-25T09:30:33Z</time>
      </trkpt>
      <trkpt lat="43.339742" lon="-8.409197">
        <ele>86.5</ele>
        <time>2011-06-25T09:30:34Z</time>
      </trkpt>
      <trkpt lat="43.339742" lon="-8.409197">
        <ele>86.5</ele>
        <time>2011-06-25T09:30:35Z</time>
      </trkpt>
      <trkpt lat="43.339742" lon="-8.409197">
        <ele>86.5</ele>
        <time>2011-06-25T09:30:36Z</time>
      </trkpt>
      <trkpt lat="43.339742" lon="-8.409195">
        <ele>86.5</ele>
        <time>2011-06-25T09:30:37Z</time>
      </trkpt>
      <trkpt lat="43.339742" lon="-8.409195">
        <ele>86.0</ele>
        <time>2011-06-25T09:30:38Z</time>
      </trkpt>
      <trkpt lat="43.339742" lon="-8.409195">
        <ele>86.0</ele>
        <time>2011-06-25T09:30:39Z</time>
      </trkpt>
      <trkpt lat="43.339742" lon="-8.409195">
        <ele>86.0</ele>
        <time>2011-06-25T09:30:40Z</time>
      </trkpt>
      <trkpt lat="43.339742" lon="-8.409195">
        <ele>86.0</ele>
        <time>2011-06-25T09:30:42Z</time>
      </trkpt>
      <trkpt lat="43.339742" lon="-8.409195">
        <ele>86.0</ele>
        <time>2011-06-25T09:30:42Z</time>
      </trkpt>
      <trkpt lat="43.339742" lon="-8.409195">
        <ele>86.0</ele>
        <time>2011-06-25T09:30:43Z</time>
      </trkpt>
      <trkpt lat="43.339742" lon="-8.409195">
        <ele>86.0</ele>
        <time>2011-06-25T09:30:44Z</time>
      </trkpt>
      <trkpt lat="43.339742" lon="-8.409195">
        <ele>86.0</ele>
        <time>2011-06-25T09:30:45Z</time>
      </trkpt>
      <trkpt lat="43.339742" lon="-8.409195">
        <ele>86.0</ele>
        <time>2011-06-25T09:30:46Z</time>
      </trkpt>
      <trkpt lat="43.339742" lon="-8.409195">
        <ele>86.0</ele>
        <time>2011-06-25T09:30:47Z</time>
      </trkpt>
      <trkpt lat="43.339742" lon="-8.409195">
        <ele>86.0</ele>
        <time>2011-06-25T09:30:48Z</time>
      </trkpt>
      <trkpt lat="43.339742" lon="-8.409195">
        <ele>86.0</ele>
        <time>2011-06-25T09:30:49Z</time>
      </trkpt>
      <trkpt lat="43.339740" lon="-8.409195">
        <ele>86.0</ele>
        <time>2011-06-25T09:30:50Z</time>
      </trkpt>
      <trkpt lat="43.339740" lon="-8.409195">
        <ele>86.0</ele>
        <time>2011-06-25T09:30:51Z</time>
      </trkpt>
      <trkpt lat="43.339740" lon="-8.409195">
        <ele>86.0</ele>
        <time>2011-06-25T09:30:52Z</time>
      </trkpt>
      <trkpt lat="43.339740" lon="-8.409195">
        <ele>86.0</ele>
        <time>2011-06-25T09:30:54Z</time>
      </trkpt>
      <trkpt lat="43.339740" lon="-8.409195">
        <ele>86.0</ele>
        <time>2011-06-25T09:30:54Z</time>
      </trkpt>
      <trkpt lat="43.339740" lon="-8.409195">
        <ele>86.0</ele>
        <time>2011-06-25T09:30:55Z</time>
      </trkpt>
      <trkpt lat="43.339740" lon="-8.409195">
        <ele>86.0</ele>
        <time>2011-06-25T09:30:56Z</time>
      </trkpt>
      <trkpt lat="43.339740" lon="-8.409195">
        <ele>86.0</ele>
        <time>2011-06-25T09:30:57Z</time>
      </trkpt>
      <trkpt lat="43.339740" lon="-8.409195">
        <ele>86.0</ele>
        <time>2011-06-25T09:30:58Z</time>
      </trkpt>
      <trkpt lat="43.339740" lon="-8.409195">
        <ele>86.0</ele>
        <time>2011-06-25T09:30:59Z</time>
      </trkpt>
      <trkpt lat="43.339740" lon="-8.409197">
        <ele>86.0</ele>
        <time>2011-06-25T09:31:00Z</time>
      </trkpt>
      <trkpt lat="43.339740" lon="-8.409197">
        <ele>86.0</ele>
        <time>2011-06-25T09:31:01Z</time>
      </trkpt>
      <trkpt lat="43.339740" lon="-8.409197">
        <ele>86.0</ele>
        <time>2011-06-25T09:31:02Z</time>
      </trkpt>
      <trkpt lat="43.339738" lon="-8.409197">
        <ele>86.0</ele>
        <time>2011-06-25T09:31:03Z</time>
      </trkpt>
      <trkpt lat="43.339738" lon="-8.409197">
        <ele>86.0</ele>
        <time>2011-06-25T09:31:04Z</time>
      </trkpt>
      <trkpt lat="43.339738" lon="-8.409197">
        <ele>86.0</ele>
        <time>2011-06-25T09:31:05Z</time>
      </trkpt>
      <trkpt lat="43.339738" lon="-8.409197">
        <ele>86.0</ele>
        <time>2011-06-25T09:31:06Z</time>
      </trkpt>
      <trkpt lat="43.339738" lon="-8.409197">
        <ele>86.0</ele>
        <time>2011-06-25T09:31:07Z</time>
      </trkpt>
      <trkpt lat="43.339738" lon="-8.409197">
        <ele>86.0</ele>
        <time>2011-06-25T09:31:08Z</time>
      </trkpt>
      <trkpt lat="43.339738" lon="-8.409197">
        <ele>86.0</ele>
        <time>2011-06-25T09:31:09Z</time>
      </trkpt>
      <trkpt lat="43.339738" lon="-8.409197">
        <ele>86.0</ele>
        <time>2011-06-25T09:31:11Z</time>
      </trkpt>
      <trkpt lat="43.339738" lon="-8.409197">
        <ele>86.0</ele>
        <time>2011-06-25T09:31:11Z</time>
      </trkpt>
      <trkpt lat="43.339738" lon="-8.409198">
        <ele>86.0</ele>
        <time>2011-06-25T09:31:12Z</time>
      </trkpt>
      <trkpt lat="43.339737" lon="-8.409198">
        <ele>86.0</ele>
        <time>2011-06-25T09:31:13Z</time>
      </trkpt>
      <trkpt lat="43.339737" lon="-8.409198">
        <ele>86.0</ele>
        <time>2011-06-25T09:31:14Z</time>
      </trkpt>
      <trkpt lat="43.339737" lon="-8.409198">
        <ele>86.0</ele>
        <time>2011-06-25T09:31:15Z</time>
      </trkpt>
      <trkpt lat="43.339737" lon="-8.409198">
        <ele>86.0</ele>
        <time>2011-06-25T09:31:16Z</time>
      </trkpt>
      <trkpt lat="43.339737" lon="-8.409198">
        <ele>86.0</ele>
        <time>2011-06-25T09:31:17Z</time>
      </trkpt>
      <trkpt lat="43.339737" lon="-8.409198">
        <ele>86.0</ele>
        <time>2011-06-25T09:31:18Z</time>
      </trkpt>
      <trkpt lat="43.339737" lon="-8.409200">
        <ele>86.0</ele>
        <time>2011-06-25T09:31:19Z</time>
      </trkpt>
      <trkpt lat="43.339737" lon="-8.409200">
        <ele>86.0</ele>
        <time>2011-06-25T09:31:20Z</time>
      </trkpt>
      <trkpt lat="43.339737" lon="-8.409200">
        <ele>86.0</ele>
        <time>2011-06-25T09:31:22Z</time>
      </trkpt>
      <trkpt lat="43.339737" lon="-8.409200">
        <ele>86.0</ele>
        <time>2011-06-25T09:31:22Z</time>
      </trkpt>
      <trkpt lat="43.339737" lon="-8.409200">
        <ele>86.0</ele>
        <time>2011-06-25T09:31:23Z</time>
      </trkpt>
      <trkpt lat="43.339735" lon="-8.409202">
        <ele>86.0</ele>
        <time>2011-06-25T09:31:24Z</time>
      </trkpt>
      <trkpt lat="43.339735" lon="-8.409202">
        <ele>86.0</ele>
        <time>2011-06-25T09:31:25Z</time>
      </trkpt>
      <trkpt lat="43.339735" lon="-8.409202">
        <ele>86.0</ele>
        <time>2011-06-25T09:31:26Z</time>
      </trkpt>
      <trkpt lat="43.339735" lon="-8.409202">
        <ele>86.0</ele>
        <time>2011-06-25T09:31:27Z</time>
      </trkpt>
      <trkpt lat="43.339735" lon="-8.409202">
        <ele>86.0</ele>
        <time>2011-06-25T09:31:28Z</time>
      </trkpt>
      <trkpt lat="43.339735" lon="-8.409202">
        <ele>86.0</ele>
        <time>2011-06-25T09:31:29Z</time>
      </trkpt>
      <trkpt lat="43.339735" lon="-8.409202">
        <ele>86.0</ele>
        <time>2011-06-25T09:31:31Z</time>
      </trkpt>
      <trkpt lat="43.339735" lon="-8.409202">
        <ele>86.0</ele>
        <time>2011-06-25T09:31:31Z</time>
      </trkpt>
      <trkpt lat="43.339735" lon="-8.409202">
        <ele>86.0</ele>
        <time>2011-06-25T09:31:32Z</time>
      </trkpt>
      <trkpt lat="43.339735" lon="-8.409202">
        <ele>86.0</ele>
        <time>2011-06-25T09:31:33Z</time>
      </trkpt>
      <trkpt lat="43.339735" lon="-8.409202">
        <ele>86.0</ele>
        <time>2011-06-25T09:31:35Z</time>
      </trkpt>
      <trkpt lat="43.339735" lon="-8.409202">
        <ele>86.0</ele>
        <time>2011-06-25T09:31:35Z</time>
      </trkpt>
      <trkpt lat="43.339735" lon="-8.409202">
        <ele>86.0</ele>
        <time>2011-06-25T09:31:37Z</time>
      </trkpt>
      <trkpt lat="43.339735" lon="-8.409202">
        <ele>86.0</ele>
        <time>2011-06-25T09:31:37Z</time>
      </trkpt>
      <trkpt lat="43.339735" lon="-8.409202">
        <ele>86.0</ele>
        <time>2011-06-25T09:31:38Z</time>
      </trkpt>
      <trkpt lat="43.339735" lon="-8.409202">
        <ele>86.0</ele>
        <time>2011-06-25T09:31:39Z</time>
      </trkpt>
      <trkpt lat="43.339733" lon="-8.409202">
        <ele>86.0</ele>
        <time>2011-06-25T09:31:40Z</time>
      </trkpt>
      <trkpt lat="43.339733" lon="-8.409202">
        <ele>86.0</ele>
        <time>2011-06-25T09:31:41Z</time>
      </trkpt>
      <trkpt lat="43.339733" lon="-8.409202">
        <ele>86.0</ele>
        <time>2011-06-25T09:31:42Z</time>
      </trkpt>
      <trkpt lat="43.339733" lon="-8.409202">
        <ele>86.0</ele>
        <time>2011-06-25T09:31:44Z</time>
      </trkpt>
      <trkpt lat="43.339733" lon="-8.409202">
        <ele>86.0</ele>
        <time>2011-06-25T09:31:44Z</time>
      </trkpt>
      <trkpt lat="43.339735" lon="-8.409203">
        <ele>86.0</ele>
        <time>2011-06-25T09:31:45Z</time>
      </trkpt>
      <trkpt lat="43.339733" lon="-8.409203">
        <ele>86.0</ele>
        <time>2011-06-25T09:31:46Z</time>
      </trkpt>
      <trkpt lat="43.339733" lon="-8.409203">
        <ele>86.0</ele>
        <time>2011-06-25T09:31:47Z</time>
      </trkpt>
      <trkpt lat="43.339733" lon="-8.409203">
        <ele>86.0</ele>
        <time>2011-06-25T09:31:48Z</time>
      </trkpt>
      <trkpt lat="43.339733" lon="-8.409203">
        <ele>86.0</ele>
        <time>2011-06-25T09:31:49Z</time>
      </trkpt>
      <trkpt lat="43.339733" lon="-8.409203">
        <ele>86.0</ele>
        <time>2011-06-25T09:31:50Z</time>
      </trkpt>
      <trkpt lat="43.339733" lon="-8.409203">
        <ele>86.0</ele>
        <time>2011-06-25T09:31:51Z</time>
      </trkpt>
      <trkpt lat="43.339733" lon="-8.409203">
        <ele>86.0</ele>
        <time>2011-06-25T09:31:52Z</time>
      </trkpt>
      <trkpt lat="43.339733" lon="-8.409203">
        <ele>86.0</ele>
        <time>2011-06-25T09:31:54Z</time>
      </trkpt>
      <trkpt lat="43.339733" lon="-8.409203">
        <ele>86.0</ele>
        <time>2011-06-25T09:31:54Z</time>
      </trkpt>
      <trkpt lat="43.339733" lon="-8.409203">
        <ele>86.0</ele>
        <time>2011-06-25T09:31:55Z</time>
      </trkpt>
      <trkpt lat="43.339733" lon="-8.409203">
        <ele>86.0</ele>
        <time>2011-06-25T09:31:56Z</time>
      </trkpt>
      <trkpt lat="43.339733" lon="-8.409203">
        <ele>86.0</ele>
        <time>2011-06-25T09:31:57Z</time>
      </trkpt>
      <trkpt lat="43.339733" lon="-8.409203">
        <ele>86.0</ele>
        <time>2011-06-25T09:31:58Z</time>
      </trkpt>
      <trkpt lat="43.339733" lon="-8.409203">
        <ele>86.0</ele>
        <time>2011-06-25T09:31:59Z</time>
      </trkpt>
      <trkpt lat="43.339733" lon="-8.409203">
        <ele>86.0</ele>
        <time>2011-06-25T09:32:00Z</time>
      </trkpt>
      <trkpt lat="43.339733" lon="-8.409203">
        <ele>86.0</ele>
        <time>2011-06-25T09:32:01Z</time>
      </trkpt>
      <trkpt lat="43.339733" lon="-8.409203">
        <ele>86.0</ele>
        <time>2011-06-25T09:32:02Z</time>
      </trkpt>
      <trkpt lat="43.339733" lon="-8.409203">
        <ele>86.0</ele>
        <time>2011-06-25T09:32:03Z</time>
      </trkpt>
      <trkpt lat="43.339733" lon="-8.409203">
        <ele>86.0</ele>
        <time>2011-06-25T09:32:04Z</time>
      </trkpt>
      <trkpt lat="43.339733" lon="-8.409203">
        <ele>86.0</ele>
        <time>2011-06-25T09:32:06Z</time>
      </trkpt>
      <trkpt lat="43.339733" lon="-8.409203">
        <ele>86.0</ele>
        <time>2011-06-25T09:32:06Z</time>
      </trkpt>
      <trkpt lat="43.339733" lon="-8.409203">
        <ele>86.0</ele>
        <time>2011-06-25T09:32:07Z</time>
      </trkpt>
      <trkpt lat="43.339733" lon="-8.409203">
        <ele>86.0</ele>
        <time>2011-06-25T09:32:08Z</time>
      </trkpt>
      <trkpt lat="43.339730" lon="-8.409200">
        <ele>86.0</ele>
        <time>2011-06-25T09:32:09Z</time>
      </trkpt>
      <trkpt lat="43.339728" lon="-8.409198">
        <ele>86.0</ele>
        <time>2011-06-25T09:32:10Z</time>
      </trkpt>
      <trkpt lat="43.339728" lon="-8.409200">
        <ele>86.0</ele>
        <time>2011-06-25T09:32:11Z</time>
      </trkpt>
      <trkpt lat="43.339728" lon="-8.409200">
        <ele>86.0</ele>
        <time>2011-06-25T09:32:12Z</time>
      </trkpt>
      <trkpt lat="43.339725" lon="-8.409202">
        <ele>86.5</ele>
        <time>2011-06-25T09:32:13Z</time>
      </trkpt>
      <trkpt lat="43.339725" lon="-8.409205">
        <ele>86.5</ele>
        <time>2011-06-25T09:32:14Z</time>
      </trkpt>
      <trkpt lat="43.339723" lon="-8.409210">
        <ele>86.5</ele>
        <time>2011-06-25T09:32:15Z</time>
      </trkpt>
      <trkpt lat="43.339722" lon="-8.409210">
        <ele>86.5</ele>
        <time>2011-06-25T09:32:16Z</time>
      </trkpt>
      <trkpt lat="43.339722" lon="-8.409212">
        <ele>86.5</ele>
        <time>2011-06-25T09:32:17Z</time>
      </trkpt>
      <trkpt lat="43.339720" lon="-8.409212">
        <ele>86.5</ele>
        <time>2011-06-25T09:32:18Z</time>
      </trkpt>
      <trkpt lat="43.339720" lon="-8.409213">
        <ele>87.0</ele>
        <time>2011-06-25T09:32:19Z</time>
      </trkpt>
      <trkpt lat="43.339718" lon="-8.409213">
        <ele>87.0</ele>
        <time>2011-06-25T09:32:20Z</time>
      </trkpt>
      <trkpt lat="43.339718" lon="-8.409215">
        <ele>87.0</ele>
        <time>2011-06-25T09:32:21Z</time>
      </trkpt>
      <trkpt lat="43.339718" lon="-8.409215">
        <ele>87.0</ele>
        <time>2011-06-25T09:32:22Z</time>
      </trkpt>
      <trkpt lat="43.339718" lon="-8.409215">
        <ele>87.0</ele>
        <time>2011-06-25T09:32:23Z</time>
      </trkpt>
      <trkpt lat="43.339717" lon="-8.409215">
        <ele>87.0</ele>
        <time>2011-06-25T09:32:24Z</time>
      </trkpt>
      <trkpt lat="43.339717" lon="-8.409215">
        <ele>87.0</ele>
        <time>2011-06-25T09:32:26Z</time>
      </trkpt>
      <trkpt lat="43.339717" lon="-8.409213">
        <ele>87.0</ele>
        <time>2011-06-25T09:32:26Z</time>
      </trkpt>
      <trkpt lat="43.339717" lon="-8.409213">
        <ele>87.0</ele>
        <time>2011-06-25T09:32:27Z</time>
      </trkpt>
      <trkpt lat="43.339717" lon="-8.409212">
        <ele>87.0</ele>
        <time>2011-06-25T09:32:29Z</time>
      </trkpt>
      <trkpt lat="43.339715" lon="-8.409212">
        <ele>87.0</ele>
        <time>2011-06-25T09:32:29Z</time>
      </trkpt>
      <trkpt lat="43.339715" lon="-8.409212">
        <ele>87.0</ele>
        <time>2011-06-25T09:32:30Z</time>
      </trkpt>
      <trkpt lat="43.339715" lon="-8.409212">
        <ele>87.0</ele>
        <time>2011-06-25T09:32:31Z</time>
      </trkpt>
      <trkpt lat="43.339715" lon="-8.409210">
        <ele>87.5</ele>
        <time>2011-06-25T09:32:33Z</time>
      </trkpt>
      <trkpt lat="43.339715" lon="-8.409210">
        <ele>87.5</ele>
        <time>2011-06-25T09:32:33Z</time>
      </trkpt>
      <trkpt lat="43.339715" lon="-8.409210">
        <ele>87.5</ele>
        <time>2011-06-25T09:32:34Z</time>
      </trkpt>
      <trkpt lat="43.339715" lon="-8.409210">
        <ele>87.5</ele>
        <time>2011-06-25T09:32:35Z</time>
      </trkpt>
      <trkpt lat="43.339715" lon="-8.409210">
        <ele>87.5</ele>
        <time>2011-06-25T09:32:36Z</time>
      </trkpt>
      <trkpt lat="43.339715" lon="-8.409210">
        <ele>87.5</ele>
        <time>2011-06-25T09:32:37Z</time>
      </trkpt>
      <trkpt lat="43.339715" lon="-8.409210">
        <ele>87.0</ele>
        <time>2011-06-25T09:32:38Z</time>
      </trkpt>
      <trkpt lat="43.339715" lon="-8.409210">
        <ele>87.0</ele>
        <time>2011-06-25T09:32:39Z</time>
      </trkpt>
      <trkpt lat="43.339715" lon="-8.409210">
        <ele>87.0</ele>
        <time>2011-06-25T09:32:40Z</time>
      </trkpt>
      <trkpt lat="43.339715" lon="-8.409210">
        <ele>87.0</ele>
        <time>2011-06-25T09:32:41Z</time>
      </trkpt>
      <trkpt lat="43.339715" lon="-8.409210">
        <ele>87.0</ele>
        <time>2011-06-25T09:32:42Z</time>
      </trkpt>
      <trkpt lat="43.339715" lon="-8.409210">
        <ele>87.0</ele>
        <time>2011-06-25T09:32:43Z</time>
      </trkpt>
      <trkpt lat="43.339715" lon="-8.409210">
        <ele>87.0</ele>
        <time>2011-06-25T09:32:44Z</time>
      </trkpt>
      <trkpt lat="43.339715" lon="-8.409210">
        <ele>87.0</ele>
        <time>2011-06-25T09:32:45Z</time>
      </trkpt>
      <trkpt lat="43.339715" lon="-8.409210">
        <ele>87.0</ele>
        <time>2011-06-25T09:32:46Z</time>
      </trkpt>
      <trkpt lat="43.339715" lon="-8.409210">
        <ele>87.0</ele>
        <time>2011-06-25T09:32:47Z</time>
      </trkpt>
      <trkpt lat="43.339715" lon="-8.409210">
        <ele>87.0</ele>
        <time>2011-06-25T09:32:48Z</time>
      </trkpt>
      <trkpt lat="43.339715" lon="-8.409210">
        <ele>87.0</ele>
        <time>2011-06-25T09:32:49Z</time>
      </trkpt>
      <trkpt lat="43.339715" lon="-8.409210">
        <ele>87.0</ele>
        <time>2011-06-25T09:32:50Z</time>
      </trkpt>
      <trkpt lat="43.339715" lon="-8.409210">
        <ele>87.0</ele>
        <time>2011-06-25T09:32:51Z</time>
      </trkpt>
      <trkpt lat="43.339715" lon="-8.409210">
        <ele>87.0</ele>
        <time>2011-06-25T09:32:52Z</time>
      </trkpt>
      <trkpt lat="43.339715" lon="-8.409210">
        <ele>87.0</ele>
        <time>2011-06-25T09:32:54Z</time>
      </trkpt>
      <trkpt lat="43.339715" lon="-8.409210">
        <ele>87.0</ele>
        <time>2011-06-25T09:32:54Z</time>
      </trkpt>
      <trkpt lat="43.339715" lon="-8.409210">
        <ele>87.0</ele>
        <time>2011-06-25T09:32:55Z</time>
      </trkpt>
      <trkpt lat="43.339715" lon="-8.409210">
        <ele>87.0</ele>
        <time>2011-06-25T09:32:56Z</time>
      </trkpt>
      <trkpt lat="43.339715" lon="-8.409210">
        <ele>87.0</ele>
        <time>2011-06-25T09:32:57Z</time>
      </trkpt>
      <trkpt lat="43.339715" lon="-8.409210">
        <ele>87.0</ele>
        <time>2011-06-25T09:32:58Z</time>
      </trkpt>
      <trkpt lat="43.339715" lon="-8.409210">
        <ele>87.0</ele>
        <time>2011-06-25T09:32:59Z</time>
      </trkpt>
      <trkpt lat="43.339715" lon="-8.409210">
        <ele>87.0</ele>
        <time>2011-06-25T09:33:00Z</time>
      </trkpt>
      <trkpt lat="43.339715" lon="-8.409210">
        <ele>87.0</ele>
        <time>2011-06-25T09:33:01Z</time>
      </trkpt>
      <trkpt lat="43.339715" lon="-8.409210">
        <ele>87.0</ele>
        <time>2011-06-25T09:33:02Z</time>
      </trkpt>
      <trkpt lat="43.339715" lon="-8.409210">
        <ele>87.0</ele>
        <time>2011-06-25T09:33:03Z</time>
      </trkpt>
      <trkpt lat="43.339715" lon="-8.409210">
        <ele>87.0</ele>
        <time>2011-06-25T09:33:04Z</time>
      </trkpt>
      <trkpt lat="43.339713" lon="-8.409210">
        <ele>87.0</ele>
        <time>2011-06-25T09:33:05Z</time>
      </trkpt>
      <trkpt lat="43.339713" lon="-8.409210">
        <ele>87.0</ele>
        <time>2011-06-25T09:33:06Z</time>
      </trkpt>
      <trkpt lat="43.339713" lon="-8.409210">
        <ele>87.0</ele>
        <time>2011-06-25T09:33:07Z</time>
      </trkpt>
      <trkpt lat="43.339713" lon="-8.409210">
        <ele>87.0</ele>
        <time>2011-06-25T09:33:08Z</time>
      </trkpt>
      <trkpt lat="43.339713" lon="-8.409210">
        <ele>87.0</ele>
        <time>2011-06-25T09:33:09Z</time>
      </trkpt>
      <trkpt lat="43.339713" lon="-8.409210">
        <ele>87.0</ele>
        <time>2011-06-25T09:33:10Z</time>
      </trkpt>
      <trkpt lat="43.339713" lon="-8.409210">
        <ele>87.0</ele>
        <time>2011-06-25T09:33:11Z</time>
      </trkpt>
      <trkpt lat="43.339713" lon="-8.409210">
        <ele>87.0</ele>
        <time>2011-06-25T09:33:12Z</time>
      </trkpt>
      <trkpt lat="43.339713" lon="-8.409210">
        <ele>87.0</ele>
        <time>2011-06-25T09:33:13Z</time>
      </trkpt>
      <trkpt lat="43.339713" lon="-8.409210">
        <ele>87.0</ele>
        <time>2011-06-25T09:33:14Z</time>
      </trkpt>
      <trkpt lat="43.339713" lon="-8.409210">
        <ele>87.0</ele>
        <time>2011-06-25T09:33:15Z</time>
      </trkpt>
      <trkpt lat="43.339713" lon="-8.409210">
        <ele>87.0</ele>
        <time>2011-06-25T09:33:16Z</time>
      </trkpt>
      <trkpt lat="43.339713" lon="-8.409208">
        <ele>87.0</ele>
        <time>2011-06-25T09:33:17Z</time>
      </trkpt>
      <trkpt lat="43.339713" lon="-8.409208">
        <ele>87.0</ele>
        <time>2011-06-25T09:33:18Z</time>
      </trkpt>
      <trkpt lat="43.339713" lon="-8.409208">
        <ele>87.0</ele>
        <time>2011-06-25T09:33:19Z</time>
      </trkpt>
      <trkpt lat="43.339713" lon="-8.409208">
        <ele>87.0</ele>
        <time>2011-06-25T09:33:20Z</time>
      </trkpt>
      <trkpt lat="43.339713" lon="-8.409208">
        <ele>87.0</ele>
        <time>2011-06-25T09:33:21Z</time>
      </trkpt>
      <trkpt lat="43.339713" lon="-8.409208">
        <ele>87.0</ele>
        <time>2011-06-25T09:33:22Z</time>
      </trkpt>
      <trkpt lat="43.339710" lon="-8.409205">
        <ele>87.0</ele>
        <time>2011-06-25T09:33:23Z</time>
      </trkpt>
      <trkpt lat="43.339707" lon="-8.409197">
        <ele>87.0</ele>
        <time>2011-06-25T09:33:24Z</time>
      </trkpt>
      <trkpt lat="43.339703" lon="-8.409192">
        <ele>87.0</ele>
        <time>2011-06-25T09:33:25Z</time>
      </trkpt>
      <trkpt lat="43.339702" lon="-8.409190">
        <ele>87.0</ele>
        <time>2011-06-25T09:33:26Z</time>
      </trkpt>
      <trkpt lat="43.339702" lon="-8.409190">
        <ele>87.0</ele>
        <time>2011-06-25T09:33:27Z</time>
      </trkpt>
      <trkpt lat="43.339700" lon="-8.409188">
        <ele>86.5</ele>
        <time>2011-06-25T09:33:28Z</time>
      </trkpt>
      <trkpt lat="43.339700" lon="-8.409188">
        <ele>86.5</ele>
        <time>2011-06-25T09:33:29Z</time>
      </trkpt>
      <trkpt lat="43.339702" lon="-8.409187">
        <ele>86.5</ele>
        <time>2011-06-25T09:33:30Z</time>
      </trkpt>
      <trkpt lat="43.339702" lon="-8.409187">
        <ele>86.5</ele>
        <time>2011-06-25T09:33:31Z</time>
      </trkpt>
      <trkpt lat="43.339702" lon="-8.409187">
        <ele>86.5</ele>
        <time>2011-06-25T09:33:32Z</time>
      </trkpt>
      <trkpt lat="43.339702" lon="-8.409187">
        <ele>86.0</ele>
        <time>2011-06-25T09:33:34Z</time>
      </trkpt>
      <trkpt lat="43.339702" lon="-8.409185">
        <ele>86.0</ele>
        <time>2011-06-25T09:33:34Z</time>
      </trkpt>
      <trkpt lat="43.339702" lon="-8.409185">
        <ele>86.0</ele>
        <time>2011-06-25T09:33:35Z</time>
      </trkpt>
      <trkpt lat="43.339702" lon="-8.409185">
        <ele>86.0</ele>
        <time>2011-06-25T09:33:36Z</time>
      </trkpt>
      <trkpt lat="43.339702" lon="-8.409185">
        <ele>86.0</ele>
        <time>2011-06-25T09:33:37Z</time>
      </trkpt>
      <trkpt lat="43.339702" lon="-8.409185">
        <ele>86.0</ele>
        <time>2011-06-25T09:33:38Z</time>
      </trkpt>
      <trkpt lat="43.339702" lon="-8.409185">
        <ele>86.0</ele>
        <time>2011-06-25T09:33:40Z</time>
      </trkpt>
      <trkpt lat="43.339702" lon="-8.409185">
        <ele>86.0</ele>
        <time>2011-06-25T09:33:40Z</time>
      </trkpt>
      <trkpt lat="43.339702" lon="-8.409185">
        <ele>86.0</ele>
        <time>2011-06-25T09:33:41Z</time>
      </trkpt>
      <trkpt lat="43.339702" lon="-8.409185">
        <ele>86.0</ele>
        <time>2011-06-25T09:33:42Z</time>
      </trkpt>
      <trkpt lat="43.339702" lon="-8.409185">
        <ele>86.0</ele>
        <time>2011-06-25T09:33:43Z</time>
      </trkpt>
      <trkpt lat="43.339702" lon="-8.409185">
        <ele>86.0</ele>
        <time>2011-06-25T09:33:44Z</time>
      </trkpt>
      <trkpt lat="43.339702" lon="-8.409183">
        <ele>85.5</ele>
        <time>2011-06-25T09:33:45Z</time>
      </trkpt>
      <trkpt lat="43.339702" lon="-8.409183">
        <ele>85.5</ele>
        <time>2011-06-25T09:33:46Z</time>
      </trkpt>
      <trkpt lat="43.339702" lon="-8.409183">
        <ele>85.5</ele>
        <time>2011-06-25T09:33:47Z</time>
      </trkpt>
      <trkpt lat="43.339702" lon="-8.409183">
        <ele>85.5</ele>
        <time>2011-06-25T09:33:48Z</time>
      </trkpt>
      <trkpt lat="43.339702" lon="-8.409183">
        <ele>85.5</ele>
        <time>2011-06-25T09:33:49Z</time>
      </trkpt>
      <trkpt lat="43.339702" lon="-8.409183">
        <ele>85.5</ele>
        <time>2011-06-25T09:33:51Z</time>
      </trkpt>
      <trkpt lat="43.339702" lon="-8.409183">
        <ele>85.5</ele>
        <time>2011-06-25T09:33:51Z</time>
      </trkpt>
      <trkpt lat="43.339702" lon="-8.409183">
        <ele>85.5</ele>
        <time>2011-06-25T09:33:52Z</time>
      </trkpt>
      <trkpt lat="43.339702" lon="-8.409183">
        <ele>85.5</ele>
        <time>2011-06-25T09:33:54Z</time>
      </trkpt>
      <trkpt lat="43.339702" lon="-8.409183">
        <ele>85.5</ele>
        <time>2011-06-25T09:33:55Z</time>
      </trkpt>
      <trkpt lat="43.339702" lon="-8.409183">
        <ele>85.5</ele>
        <time>2011-06-25T09:33:55Z</time>
      </trkpt>
      <trkpt lat="43.339702" lon="-8.409182">
        <ele>85.5</ele>
        <time>2011-06-25T09:33:56Z</time>
      </trkpt>
      <trkpt lat="43.339702" lon="-8.409182">
        <ele>85.5</ele>
        <time>2011-06-25T09:33:57Z</time>
      </trkpt>
      <trkpt lat="43.339702" lon="-8.409182">
        <ele>85.5</ele>
        <time>2011-06-25T09:33:58Z</time>
      </trkpt>
      <trkpt lat="43.339702" lon="-8.409182">
        <ele>85.5</ele>
        <time>2011-06-25T09:33:59Z</time>
      </trkpt>
      <trkpt lat="43.339700" lon="-8.409182">
        <ele>85.5</ele>
        <time>2011-06-25T09:34:01Z</time>
      </trkpt>
      <trkpt lat="43.339700" lon="-8.409182">
        <ele>85.5</ele>
        <time>2011-06-25T09:34:02Z</time>
      </trkpt>
      <trkpt lat="43.339700" lon="-8.409180">
        <ele>85.5</ele>
        <time>2011-06-25T09:34:02Z</time>
      </trkpt>
      <trkpt lat="43.339700" lon="-8.409180">
        <ele>85.5</ele>
        <time>2011-06-25T09:34:03Z</time>
      </trkpt>
      <trkpt lat="43.339700" lon="-8.409180">
        <ele>85.5</ele>
        <time>2011-06-25T09:34:04Z</time>
      </trkpt>
      <trkpt lat="43.339700" lon="-8.409180">
        <ele>85.5</ele>
        <time>2011-06-25T09:34:05Z</time>
      </trkpt>
      <trkpt lat="43.339700" lon="-8.409180">
        <ele>85.5</ele>
        <time>2011-06-25T09:34:06Z</time>
      </trkpt>
      <trkpt lat="43.339700" lon="-8.409180">
        <ele>85.5</ele>
        <time>2011-06-25T09:34:07Z</time>
      </trkpt>
      <trkpt lat="43.339700" lon="-8.409180">
        <ele>85.5</ele>
        <time>2011-06-25T09:34:08Z</time>
      </trkpt>
      <trkpt lat="43.339700" lon="-8.409178">
        <ele>85.5</ele>
        <time>2011-06-25T09:34:09Z</time>
      </trkpt>
      <trkpt lat="43.339700" lon="-8.409178">
        <ele>85.5</ele>
        <time>2011-06-25T09:34:10Z</time>
      </trkpt>
      <trkpt lat="43.339700" lon="-8.409178">
        <ele>85.5</ele>
        <time>2011-06-25T09:34:12Z</time>
      </trkpt>
      <trkpt lat="43.339700" lon="-8.409178">
        <ele>85.5</ele>
        <time>2011-06-25T09:34:12Z</time>
      </trkpt>
      <trkpt lat="43.339700" lon="-8.409178">
        <ele>85.5</ele>
        <time>2011-06-25T09:34:13Z</time>
      </trkpt>
      <trkpt lat="43.339700" lon="-8.409178">
        <ele>85.5</ele>
        <time>2011-06-25T09:34:14Z</time>
      </trkpt>
      <trkpt lat="43.339700" lon="-8.409178">
        <ele>85.0</ele>
        <time>2011-06-25T09:34:15Z</time>
      </trkpt>
      <trkpt lat="43.339700" lon="-8.409178">
        <ele>85.0</ele>
        <time>2011-06-25T09:34:16Z</time>
      </trkpt>
      <trkpt lat="43.339698" lon="-8.409177">
        <ele>85.0</ele>
        <time>2011-06-25T09:34:17Z</time>
      </trkpt>
      <trkpt lat="43.339698" lon="-8.409177">
        <ele>85.0</ele>
        <time>2011-06-25T09:34:18Z</time>
      </trkpt>
      <trkpt lat="43.339698" lon="-8.409177">
        <ele>85.0</ele>
        <time>2011-06-25T09:34:19Z</time>
      </trkpt>
      <trkpt lat="43.339702" lon="-8.409177">
        <ele>85.0</ele>
        <time>2011-06-25T09:34:20Z</time>
      </trkpt>
      <trkpt lat="43.339702" lon="-8.409177">
        <ele>85.5</ele>
        <time>2011-06-25T09:34:21Z</time>
      </trkpt>
      <trkpt lat="43.339703" lon="-8.409183">
        <ele>85.5</ele>
        <time>2011-06-25T09:34:23Z</time>
      </trkpt>
      <trkpt lat="43.339703" lon="-8.409185">
        <ele>85.5</ele>
        <time>2011-06-25T09:34:23Z</time>
      </trkpt>
      <trkpt lat="43.339703" lon="-8.409183">
        <ele>85.5</ele>
        <time>2011-06-25T09:34:24Z</time>
      </trkpt>
      <trkpt lat="43.339703" lon="-8.409183">
        <ele>85.5</ele>
        <time>2011-06-25T09:34:25Z</time>
      </trkpt>
      <trkpt lat="43.339703" lon="-8.409183">
        <ele>85.5</ele>
        <time>2011-06-25T09:34:26Z</time>
      </trkpt>
      <trkpt lat="43.339703" lon="-8.409183">
        <ele>85.5</ele>
        <time>2011-06-25T09:34:27Z</time>
      </trkpt>
      <trkpt lat="43.339703" lon="-8.409183">
        <ele>85.5</ele>
        <time>2011-06-25T09:34:28Z</time>
      </trkpt>
      <trkpt lat="43.339703" lon="-8.409183">
        <ele>85.5</ele>
        <time>2011-06-25T09:34:29Z</time>
      </trkpt>
      <trkpt lat="43.339702" lon="-8.409182">
        <ele>85.5</ele>
        <time>2011-06-25T09:34:30Z</time>
      </trkpt>
      <trkpt lat="43.339702" lon="-8.409182">
        <ele>85.5</ele>
        <time>2011-06-25T09:34:31Z</time>
      </trkpt>
      <trkpt lat="43.339702" lon="-8.409182">
        <ele>85.0</ele>
        <time>2011-06-25T09:34:32Z</time>
      </trkpt>
    </trkseg>
  </trk>
  <trk>
    <name>T2067676-3</name>
    <cmt>saida con compañeiros do C.C.Arteixo polos arredores da Coruña</cmt>
    <desc>saida con compañeiros do C.C.Arteixo polos arredores da Coruña</desc>
    <trkseg>
      <trkpt lat="43.339702" lon="-8.409180">
        <ele>85.0</ele>
        <time>2011-06-25T09:34:33Z</time>
      </trkpt>
      <trkpt lat="43.339700" lon="-8.409178">
        <ele>85.0</ele>
        <time>2011-06-25T09:34:34Z</time>
      </trkpt>
      <trkpt lat="43.339700" lon="-8.409178">
        <ele>85.0</ele>
        <time>2011-06-25T09:34:35Z</time>
      </trkpt>
      <trkpt lat="43.339700" lon="-8.409178">
        <ele>85.0</ele>
        <time>2011-06-25T09:34:37Z</time>
      </trkpt>
      <trkpt lat="43.339700" lon="-8.409178">
        <ele>85.0</ele>
        <time>2011-06-25T09:34:37Z</time>
      </trkpt>
      <trkpt lat="43.339700" lon="-8.409178">
        <ele>85.0</ele>
        <time>2011-06-25T09:34:38Z</time>
      </trkpt>
      <trkpt lat="43.339700" lon="-8.409178">
        <ele>85.0</ele>
        <time>2011-06-25T09:34:39Z</time>
      </trkpt>
      <trkpt lat="43.339700" lon="-8.409183">
        <ele>84.5</ele>
        <time>2011-06-25T09:34:40Z</time>
      </trkpt>
      <trkpt lat="43.339700" lon="-8.409178">
        <ele>85.0</ele>
        <time>2011-06-25T09:34:41Z</time>
      </trkpt>
      <trkpt lat="43.339700" lon="-8.409178">
        <ele>85.0</ele>
        <time>2011-06-25T09:34:42Z</time>
      </trkpt>
      <trkpt lat="43.339703" lon="-8.409182">
        <ele>85.0</ele>
        <time>2011-06-25T09:34:43Z</time>
      </trkpt>
      <trkpt lat="43.339703" lon="-8.409182">
        <ele>85.0</ele>
        <time>2011-06-25T09:34:44Z</time>
      </trkpt>
      <trkpt lat="43.339705" lon="-8.409183">
        <ele>85.0</ele>
        <time>2011-06-25T09:34:45Z</time>
      </trkpt>
      <trkpt lat="43.339705" lon="-8.409183">
        <ele>85.0</ele>
        <time>2011-06-25T09:34:46Z</time>
      </trkpt>
      <trkpt lat="43.339705" lon="-8.409185">
        <ele>85.0</ele>
        <time>2011-06-25T09:34:48Z</time>
      </trkpt>
      <trkpt lat="43.339707" lon="-8.409185">
        <ele>85.0</ele>
        <time>2011-06-25T09:34:48Z</time>
      </trkpt>
      <trkpt lat="43.339707" lon="-8.409185">
        <ele>85.0</ele>
        <time>2011-06-25T09:34:49Z</time>
      </trkpt>
      <trkpt lat="43.339707" lon="-8.409185">
        <ele>85.0</ele>
        <time>2011-06-25T09:34:50Z</time>
      </trkpt>
      <trkpt lat="43.339707" lon="-8.409185">
        <ele>85.0</ele>
        <time>2011-06-25T09:34:51Z</time>
      </trkpt>
      <trkpt lat="43.339707" lon="-8.409185">
        <ele>85.0</ele>
        <time>2011-06-25T09:34:52Z</time>
      </trkpt>
      <trkpt lat="43.339707" lon="-8.409185">
        <ele>85.0</ele>
        <time>2011-06-25T09:34:53Z</time>
      </trkpt>
      <trkpt lat="43.339707" lon="-8.409185">
        <ele>85.0</ele>
        <time>2011-06-25T09:34:54Z</time>
      </trkpt>
      <trkpt lat="43.339707" lon="-8.409185">
        <ele>85.0</ele>
        <time>2011-06-25T09:34:55Z</time>
      </trkpt>
      <trkpt lat="43.339707" lon="-8.409185">
        <ele>85.0</ele>
        <time>2011-06-25T09:34:56Z</time>
      </trkpt>
      <trkpt lat="43.339707" lon="-8.409183">
        <ele>85.0</ele>
        <time>2011-06-25T09:34:57Z</time>
      </trkpt>
      <trkpt lat="43.339707" lon="-8.409183">
        <ele>85.0</ele>
        <time>2011-06-25T09:34:58Z</time>
      </trkpt>
      <trkpt lat="43.339707" lon="-8.409183">
        <ele>85.0</ele>
        <time>2011-06-25T09:34:59Z</time>
      </trkpt>
      <trkpt lat="43.339707" lon="-8.409183">
        <ele>85.0</ele>
        <time>2011-06-25T09:35:00Z</time>
      </trkpt>
      <trkpt lat="43.339707" lon="-8.409183">
        <ele>85.0</ele>
        <time>2011-06-25T09:35:01Z</time>
      </trkpt>
      <trkpt lat="43.339707" lon="-8.409183">
        <ele>85.0</ele>
        <time>2011-06-25T09:35:02Z</time>
      </trkpt>
      <trkpt lat="43.339707" lon="-8.409183">
        <ele>85.0</ele>
        <time>2011-06-25T09:35:03Z</time>
      </trkpt>
      <trkpt lat="43.339707" lon="-8.409183">
        <ele>85.0</ele>
        <time>2011-06-25T09:35:04Z</time>
      </trkpt>
      <trkpt lat="43.339705" lon="-8.409183">
        <ele>84.5</ele>
        <time>2011-06-25T09:35:05Z</time>
      </trkpt>
      <trkpt lat="43.339705" lon="-8.409183">
        <ele>84.5</ele>
        <time>2011-06-25T09:35:06Z</time>
      </trkpt>
      <trkpt lat="43.339705" lon="-8.409183">
        <ele>84.5</ele>
        <time>2011-06-25T09:35:07Z</time>
      </trkpt>
      <trkpt lat="43.339705" lon="-8.409183">
        <ele>84.5</ele>
        <time>2011-06-25T09:35:08Z</time>
      </trkpt>
      <trkpt lat="43.339705" lon="-8.409183">
        <ele>84.5</ele>
        <time>2011-06-25T09:35:09Z</time>
      </trkpt>
      <trkpt lat="43.339705" lon="-8.409182">
        <ele>84.5</ele>
        <time>2011-06-25T09:35:10Z</time>
      </trkpt>
      <trkpt lat="43.339705" lon="-8.409182">
        <ele>84.5</ele>
        <time>2011-06-25T09:35:11Z</time>
      </trkpt>
      <trkpt lat="43.339703" lon="-8.409182">
        <ele>84.5</ele>
        <time>2011-06-25T09:35:12Z</time>
      </trkpt>
      <trkpt lat="43.339703" lon="-8.409182">
        <ele>84.5</ele>
        <time>2011-06-25T09:35:13Z</time>
      </trkpt>
      <trkpt lat="43.339703" lon="-8.409182">
        <ele>84.5</ele>
        <time>2011-06-25T09:35:14Z</time>
      </trkpt>
      <trkpt lat="43.339703" lon="-8.409182">
        <ele>84.5</ele>
        <time>2011-06-25T09:35:15Z</time>
      </trkpt>
      <trkpt lat="43.339703" lon="-8.409182">
        <ele>84.0</ele>
        <time>2011-06-25T09:35:16Z</time>
      </trkpt>
      <trkpt lat="43.339703" lon="-8.409182">
        <ele>84.0</ele>
        <time>2011-06-25T09:35:17Z</time>
      </trkpt>
      <trkpt lat="43.339703" lon="-8.409182">
        <ele>84.0</ele>
        <time>2011-06-25T09:35:18Z</time>
      </trkpt>
      <trkpt lat="43.339703" lon="-8.409182">
        <ele>84.0</ele>
        <time>2011-06-25T09:35:19Z</time>
      </trkpt>
      <trkpt lat="43.339703" lon="-8.409182">
        <ele>84.0</ele>
        <time>2011-06-25T09:35:20Z</time>
      </trkpt>
      <trkpt lat="43.339703" lon="-8.409183">
        <ele>84.0</ele>
        <time>2011-06-25T09:35:21Z</time>
      </trkpt>
      <trkpt lat="43.339703" lon="-8.409183">
        <ele>84.0</ele>
        <time>2011-06-25T09:35:22Z</time>
      </trkpt>
      <trkpt lat="43.339703" lon="-8.409183">
        <ele>84.0</ele>
        <time>2011-06-25T09:35:23Z</time>
      </trkpt>
      <trkpt lat="43.339703" lon="-8.409183">
        <ele>84.0</ele>
        <time>2011-06-25T09:35:24Z</time>
      </trkpt>
      <trkpt lat="43.339703" lon="-8.409183">
        <ele>84.0</ele>
        <time>2011-06-25T09:35:25Z</time>
      </trkpt>
      <trkpt lat="43.339703" lon="-8.409185">
        <ele>84.0</ele>
        <time>2011-06-25T09:35:26Z</time>
      </trkpt>
      <trkpt lat="43.339703" lon="-8.409185">
        <ele>83.5</ele>
        <time>2011-06-25T09:35:27Z</time>
      </trkpt>
      <trkpt lat="43.339703" lon="-8.409185">
        <ele>83.5</ele>
        <time>2011-06-25T09:35:28Z</time>
      </trkpt>
      <trkpt lat="43.339703" lon="-8.409185">
        <ele>83.5</ele>
        <time>2011-06-25T09:35:29Z</time>
      </trkpt>
      <trkpt lat="43.339703" lon="-8.409185">
        <ele>83.5</ele>
        <time>2011-06-25T09:35:30Z</time>
      </trkpt>
      <trkpt lat="43.339703" lon="-8.409185">
        <ele>83.5</ele>
        <time>2011-06-25T09:35:31Z</time>
      </trkpt>
      <trkpt lat="43.339703" lon="-8.409185">
        <ele>83.5</ele>
        <time>2011-06-25T09:35:32Z</time>
      </trkpt>
      <trkpt lat="43.339703" lon="-8.409185">
        <ele>83.5</ele>
        <time>2011-06-25T09:35:33Z</time>
      </trkpt>
      <trkpt lat="43.339703" lon="-8.409185">
        <ele>83.5</ele>
        <time>2011-06-25T09:35:34Z</time>
      </trkpt>
      <trkpt lat="43.339703" lon="-8.409185">
        <ele>83.5</ele>
        <time>2011-06-25T09:35:35Z</time>
      </trkpt>
      <trkpt lat="43.339703" lon="-8.409185">
        <ele>83.5</ele>
        <time>2011-06-25T09:35:36Z</time>
      </trkpt>
      <trkpt lat="43.339703" lon="-8.409185">
        <ele>83.5</ele>
        <time>2011-06-25T09:35:37Z</time>
      </trkpt>
      <trkpt lat="43.339703" lon="-8.409185">
        <ele>83.5</ele>
        <time>2011-06-25T09:35:38Z</time>
      </trkpt>
      <trkpt lat="43.339703" lon="-8.409187">
        <ele>83.5</ele>
        <time>2011-06-25T09:35:39Z</time>
      </trkpt>
      <trkpt lat="43.339703" lon="-8.409187">
        <ele>83.5</ele>
        <time>2011-06-25T09:35:40Z</time>
      </trkpt>
      <trkpt lat="43.339703" lon="-8.409187">
        <ele>83.5</ele>
        <time>2011-06-25T09:35:41Z</time>
      </trkpt>
      <trkpt lat="43.339703" lon="-8.409187">
        <ele>83.5</ele>
        <time>2011-06-25T09:35:42Z</time>
      </trkpt>
      <trkpt lat="43.339703" lon="-8.409187">
        <ele>83.5</ele>
        <time>2011-06-25T09:35:43Z</time>
      </trkpt>
      <trkpt lat="43.339703" lon="-8.409187">
        <ele>83.5</ele>
        <time>2011-06-25T09:35:44Z</time>
      </trkpt>
      <trkpt lat="43.339703" lon="-8.409187">
        <ele>83.5</ele>
        <time>2011-06-25T09:35:45Z</time>
      </trkpt>
      <trkpt lat="43.339703" lon="-8.409187">
        <ele>83.5</ele>
        <time>2011-06-25T09:35:46Z</time>
      </trkpt>
      <trkpt lat="43.339703" lon="-8.409187">
        <ele>83.5</ele>
        <time>2011-06-25T09:35:47Z</time>
      </trkpt>
      <trkpt lat="43.339703" lon="-8.409187">
        <ele>83.5</ele>
        <time>2011-06-25T09:35:48Z</time>
      </trkpt>
      <trkpt lat="43.339703" lon="-8.409187">
        <ele>83.5</ele>
        <time>2011-06-25T09:35:49Z</time>
      </trkpt>
      <trkpt lat="43.339703" lon="-8.409187">
        <ele>83.5</ele>
        <time>2011-06-25T09:35:50Z</time>
      </trkpt>
      <trkpt lat="43.339703" lon="-8.409187">
        <ele>83.5</ele>
        <time>2011-06-25T09:35:51Z</time>
      </trkpt>
      <trkpt lat="43.339703" lon="-8.409188">
        <ele>83.5</ele>
        <time>2011-06-25T09:35:52Z</time>
      </trkpt>
      <trkpt lat="43.339703" lon="-8.409187">
        <ele>83.0</ele>
        <time>2011-06-25T09:35:53Z</time>
      </trkpt>
      <trkpt lat="43.339703" lon="-8.409188">
        <ele>83.0</ele>
        <time>2011-06-25T09:35:54Z</time>
      </trkpt>
      <trkpt lat="43.339703" lon="-8.409188">
        <ele>83.0</ele>
        <time>2011-06-25T09:35:55Z</time>
      </trkpt>
      <trkpt lat="43.339703" lon="-8.409188">
        <ele>83.0</ele>
        <time>2011-06-25T09:35:56Z</time>
      </trkpt>
      <trkpt lat="43.339703" lon="-8.409188">
        <ele>83.0</ele>
        <time>2011-06-25T09:35:57Z</time>
      </trkpt>
      <trkpt lat="43.339703" lon="-8.409188">
        <ele>83.0</ele>
        <time>2011-06-25T09:35:58Z</time>
      </trkpt>
      <trkpt lat="43.339703" lon="-8.409188">
        <ele>83.0</ele>
        <time>2011-06-25T09:35:59Z</time>
      </trkpt>
      <trkpt lat="43.339703" lon="-8.409190">
        <ele>83.0</ele>
        <time>2011-06-25T09:36:00Z</time>
      </trkpt>
      <trkpt lat="43.339703" lon="-8.409190">
        <ele>83.0</ele>
        <time>2011-06-25T09:36:01Z</time>
      </trkpt>
      <trkpt lat="43.339703" lon="-8.409190">
        <ele>83.0</ele>
        <time>2011-06-25T09:36:03Z</time>
      </trkpt>
      <trkpt lat="43.339703" lon="-8.409190">
        <ele>83.0</ele>
        <time>2011-06-25T09:36:03Z</time>
      </trkpt>
      <trkpt lat="43.339703" lon="-8.409190">
        <ele>82.5</ele>
        <time>2011-06-25T09:36:04Z</time>
      </trkpt>
      <trkpt lat="43.339703" lon="-8.409190">
        <ele>82.5</ele>
        <time>2011-06-25T09:36:05Z</time>
      </trkpt>
      <trkpt lat="43.339703" lon="-8.409190">
        <ele>82.5</ele>
        <time>2011-06-25T09:36:06Z</time>
      </trkpt>
      <trkpt lat="43.339703" lon="-8.409190">
        <ele>82.5</ele>
        <time>2011-06-25T09:36:07Z</time>
      </trkpt>
      <trkpt lat="43.339703" lon="-8.409190">
        <ele>82.5</ele>
        <time>2011-06-25T09:36:08Z</time>
      </trkpt>
      <trkpt lat="43.339703" lon="-8.409190">
        <ele>82.5</ele>
        <time>2011-06-25T09:36:09Z</time>
      </trkpt>
      <trkpt lat="43.339703" lon="-8.409190">
        <ele>82.5</ele>
        <time>2011-06-25T09:36:10Z</time>
      </trkpt>
      <trkpt lat="43.339703" lon="-8.409190">
        <ele>82.5</ele>
        <time>2011-06-25T09:36:11Z</time>
      </trkpt>
      <trkpt lat="43.339703" lon="-8.409190">
        <ele>82.5</ele>
        <time>2011-06-25T09:36:12Z</time>
      </trkpt>
      <trkpt lat="43.339703" lon="-8.409190">
        <ele>82.5</ele>
        <time>2011-06-25T09:36:13Z</time>
      </trkpt>
      <trkpt lat="43.339703" lon="-8.409190">
        <ele>82.5</ele>
        <time>2011-06-25T09:36:14Z</time>
      </trkpt>
      <trkpt lat="43.339692" lon="-8.409210">
        <ele>82.5</ele>
        <time>2011-06-25T09:36:16Z</time>
      </trkpt>
      <trkpt lat="43.339693" lon="-8.409210">
        <ele>82.0</ele>
        <time>2011-06-25T09:36:17Z</time>
      </trkpt>
      <trkpt lat="43.339693" lon="-8.409210">
        <ele>82.0</ele>
        <time>2011-06-25T09:36:18Z</time>
      </trkpt>
      <trkpt lat="43.339693" lon="-8.409210">
        <ele>82.0</ele>
        <time>2011-06-25T09:36:19Z</time>
      </trkpt>
      <trkpt lat="43.339693" lon="-8.409210">
        <ele>81.5</ele>
        <time>2011-06-25T09:36:20Z</time>
      </trkpt>
      <trkpt lat="43.339695" lon="-8.409210">
        <ele>81.5</ele>
        <time>2011-06-25T09:36:21Z</time>
      </trkpt>
      <trkpt lat="43.339695" lon="-8.409210">
        <ele>81.5</ele>
        <time>2011-06-25T09:36:22Z</time>
      </trkpt>
      <trkpt lat="43.339695" lon="-8.409210">
        <ele>81.5</ele>
        <time>2011-06-25T09:36:23Z</time>
      </trkpt>
      <trkpt lat="43.339695" lon="-8.409210">
        <ele>81.5</ele>
        <time>2011-06-25T09:36:24Z</time>
      </trkpt>
      <trkpt lat="43.339695" lon="-8.409210">
        <ele>81.5</ele>
        <time>2011-06-25T09:36:25Z</time>
      </trkpt>
      <trkpt lat="43.339695" lon="-8.409210">
        <ele>81.0</ele>
        <time>2011-06-25T09:36:27Z</time>
      </trkpt>
      <trkpt lat="43.339695" lon="-8.409210">
        <ele>81.0</ele>
        <time>2011-06-25T09:36:27Z</time>
      </trkpt>
      <trkpt lat="43.339695" lon="-8.409210">
        <ele>81.0</ele>
        <time>2011-06-25T09:36:28Z</time>
      </trkpt>
      <trkpt lat="43.339695" lon="-8.409212">
        <ele>81.0</ele>
        <time>2011-06-25T09:36:29Z</time>
      </trkpt>
      <trkpt lat="43.339695" lon="-8.409212">
        <ele>81.0</ele>
        <time>2011-06-25T09:36:30Z</time>
      </trkpt>
      <trkpt lat="43.339695" lon="-8.409212">
        <ele>81.0</ele>
        <time>2011-06-25T09:36:31Z</time>
      </trkpt>
      <trkpt lat="43.339695" lon="-8.409212">
        <ele>81.0</ele>
        <time>2011-06-25T09:36:32Z</time>
      </trkpt>
      <trkpt lat="43.339695" lon="-8.409212">
        <ele>81.0</ele>
        <time>2011-06-25T09:36:33Z</time>
      </trkpt>
      <trkpt lat="43.339695" lon="-8.409212">
        <ele>81.0</ele>
        <time>2011-06-25T09:36:34Z</time>
      </trkpt>
      <trkpt lat="43.339695" lon="-8.409213">
        <ele>81.0</ele>
        <time>2011-06-25T09:36:35Z</time>
      </trkpt>
      <trkpt lat="43.339695" lon="-8.409213">
        <ele>81.0</ele>
        <time>2011-06-25T09:36:36Z</time>
      </trkpt>
      <trkpt lat="43.339695" lon="-8.409213">
        <ele>81.0</ele>
        <time>2011-06-25T09:36:37Z</time>
      </trkpt>
      <trkpt lat="43.339695" lon="-8.409213">
        <ele>81.0</ele>
        <time>2011-06-25T09:36:38Z</time>
      </trkpt>
      <trkpt lat="43.339695" lon="-8.409213">
        <ele>81.0</ele>
        <time>2011-06-25T09:36:39Z</time>
      </trkpt>
      <trkpt lat="43.339695" lon="-8.409213">
        <ele>81.0</ele>
        <time>2011-06-25T09:36:40Z</time>
      </trkpt>
      <trkpt lat="43.339695" lon="-8.409213">
        <ele>81.0</ele>
        <time>2011-06-25T09:36:41Z</time>
      </trkpt>
      <trkpt lat="43.339695" lon="-8.409213">
        <ele>81.0</ele>
        <time>2011-06-25T09:36:42Z</time>
      </trkpt>
      <trkpt lat="43.339695" lon="-8.409213">
        <ele>81.0</ele>
        <time>2011-06-25T09:36:43Z</time>
      </trkpt>
      <trkpt lat="43.339695" lon="-8.409213">
        <ele>81.0</ele>
        <time>2011-06-25T09:36:44Z</time>
      </trkpt>
      <trkpt lat="43.339695" lon="-8.409213">
        <ele>81.0</ele>
        <time>2011-06-25T09:36:45Z</time>
      </trkpt>
      <trkpt lat="43.339695" lon="-8.409213">
        <ele>81.0</ele>
        <time>2011-06-25T09:36:46Z</time>
      </trkpt>
      <trkpt lat="43.339697" lon="-8.409213">
        <ele>81.0</ele>
        <time>2011-06-25T09:36:47Z</time>
      </trkpt>
      <trkpt lat="43.339697" lon="-8.409213">
        <ele>81.5</ele>
        <time>2011-06-25T09:36:48Z</time>
      </trkpt>
      <trkpt lat="43.339697" lon="-8.409213">
        <ele>81.5</ele>
        <time>2011-06-25T09:36:49Z</time>
      </trkpt>
      <trkpt lat="43.339697" lon="-8.409213">
        <ele>81.5</ele>
        <time>2011-06-25T09:36:50Z</time>
      </trkpt>
      <trkpt lat="43.339697" lon="-8.409213">
        <ele>81.5</ele>
        <time>2011-06-25T09:36:51Z</time>
      </trkpt>
      <trkpt lat="43.339698" lon="-8.409213">
        <ele>81.5</ele>
        <time>2011-06-25T09:36:52Z</time>
      </trkpt>
      <trkpt lat="43.339698" lon="-8.409213">
        <ele>81.5</ele>
        <time>2011-06-25T09:36:53Z</time>
      </trkpt>
      <trkpt lat="43.339698" lon="-8.409213">
        <ele>81.5</ele>
        <time>2011-06-25T09:36:54Z</time>
      </trkpt>
      <trkpt lat="43.339698" lon="-8.409213">
        <ele>81.5</ele>
        <time>2011-06-25T09:36:55Z</time>
      </trkpt>
      <trkpt lat="43.339698" lon="-8.409213">
        <ele>81.5</ele>
        <time>2011-06-25T09:36:56Z</time>
      </trkpt>
      <trkpt lat="43.339698" lon="-8.409213">
        <ele>81.5</ele>
        <time>2011-06-25T09:36:57Z</time>
      </trkpt>
      <trkpt lat="43.339698" lon="-8.409213">
        <ele>81.5</ele>
        <time>2011-06-25T09:36:58Z</time>
      </trkpt>
      <trkpt lat="43.339700" lon="-8.409213">
        <ele>81.5</ele>
        <time>2011-06-25T09:36:59Z</time>
      </trkpt>
      <trkpt lat="43.339700" lon="-8.409213">
        <ele>81.5</ele>
        <time>2011-06-25T09:37:00Z</time>
      </trkpt>
      <trkpt lat="43.339700" lon="-8.409213">
        <ele>81.5</ele>
        <time>2011-06-25T09:37:01Z</time>
      </trkpt>
      <trkpt lat="43.339700" lon="-8.409213">
        <ele>81.5</ele>
        <time>2011-06-25T09:37:02Z</time>
      </trkpt>
      <trkpt lat="43.339702" lon="-8.409213">
        <ele>81.5</ele>
        <time>2011-06-25T09:37:03Z</time>
      </trkpt>
      <trkpt lat="43.339702" lon="-8.409212">
        <ele>81.5</ele>
        <time>2011-06-25T09:37:04Z</time>
      </trkpt>
      <trkpt lat="43.339702" lon="-8.409212">
        <ele>81.5</ele>
        <time>2011-06-25T09:37:05Z</time>
      </trkpt>
      <trkpt lat="43.339703" lon="-8.409212">
        <ele>82.0</ele>
        <time>2011-06-25T09:37:06Z</time>
      </trkpt>
      <trkpt lat="43.339703" lon="-8.409212">
        <ele>82.0</ele>
        <time>2011-06-25T09:37:07Z</time>
      </trkpt>
      <trkpt lat="43.339703" lon="-8.409212">
        <ele>82.0</ele>
        <time>2011-06-25T09:37:08Z</time>
      </trkpt>
      <trkpt lat="43.339705" lon="-8.409212">
        <ele>82.0</ele>
        <time>2011-06-25T09:37:09Z</time>
      </trkpt>
      <trkpt lat="43.339705" lon="-8.409212">
        <ele>82.0</ele>
        <time>2011-06-25T09:37:10Z</time>
      </trkpt>
      <trkpt lat="43.339705" lon="-8.409212">
        <ele>82.0</ele>
        <time>2011-06-25T09:37:11Z</time>
      </trkpt>
      <trkpt lat="43.339705" lon="-8.409212">
        <ele>82.0</ele>
        <time>2011-06-25T09:37:12Z</time>
      </trkpt>
      <trkpt lat="43.339705" lon="-8.409212">
        <ele>82.0</ele>
        <time>2011-06-25T09:37:13Z</time>
      </trkpt>
      <trkpt lat="43.339705" lon="-8.409212">
        <ele>82.0</ele>
        <time>2011-06-25T09:37:14Z</time>
      </trkpt>
      <trkpt lat="43.339705" lon="-8.409212">
        <ele>82.0</ele>
        <time>2011-06-25T09:37:15Z</time>
      </trkpt>
      <trkpt lat="43.339705" lon="-8.409212">
        <ele>82.0</ele>
        <time>2011-06-25T09:37:16Z</time>
      </trkpt>
      <trkpt lat="43.339705" lon="-8.409212">
        <ele>82.0</ele>
        <time>2011-06-25T09:37:17Z</time>
      </trkpt>
      <trkpt lat="43.339705" lon="-8.409212">
        <ele>82.0</ele>
        <time>2011-06-25T09:37:18Z</time>
      </trkpt>
      <trkpt lat="43.339705" lon="-8.409212">
        <ele>82.0</ele>
        <time>2011-06-25T09:37:19Z</time>
      </trkpt>
      <trkpt lat="43.339705" lon="-8.409212">
        <ele>82.0</ele>
        <time>2011-06-25T09:37:20Z</time>
      </trkpt>
      <trkpt lat="43.339705" lon="-8.409212">
        <ele>82.0</ele>
        <time>2011-06-25T09:37:21Z</time>
      </trkpt>
      <trkpt lat="43.339705" lon="-8.409212">
        <ele>82.0</ele>
        <time>2011-06-25T09:37:22Z</time>
      </trkpt>
      <trkpt lat="43.339707" lon="-8.409212">
        <ele>82.0</ele>
        <time>2011-06-25T09:37:23Z</time>
      </trkpt>
      <trkpt lat="43.339707" lon="-8.409212">
        <ele>82.0</ele>
        <time>2011-06-25T09:37:24Z</time>
      </trkpt>
      <trkpt lat="43.339707" lon="-8.409212">
        <ele>82.0</ele>
        <time>2011-06-25T09:37:25Z</time>
      </trkpt>
      <trkpt lat="43.339707" lon="-8.409212">
        <ele>82.0</ele>
        <time>2011-06-25T09:37:26Z</time>
      </trkpt>
      <trkpt lat="43.339707" lon="-8.409212">
        <ele>82.0</ele>
        <time>2011-06-25T09:37:27Z</time>
      </trkpt>
      <trkpt lat="43.339707" lon="-8.409212">
        <ele>82.0</ele>
        <time>2011-06-25T09:37:28Z</time>
      </trkpt>
      <trkpt lat="43.339708" lon="-8.409212">
        <ele>82.0</ele>
        <time>2011-06-25T09:37:29Z</time>
      </trkpt>
      <trkpt lat="43.339708" lon="-8.409212">
        <ele>82.0</ele>
        <time>2011-06-25T09:37:30Z</time>
      </trkpt>
      <trkpt lat="43.339708" lon="-8.409212">
        <ele>82.0</ele>
        <time>2011-06-25T09:37:31Z</time>
      </trkpt>
      <trkpt lat="43.339708" lon="-8.409212">
        <ele>82.0</ele>
        <time>2011-06-25T09:37:32Z</time>
      </trkpt>
      <trkpt lat="43.339708" lon="-8.409212">
        <ele>82.0</ele>
        <time>2011-06-25T09:37:33Z</time>
      </trkpt>
      <trkpt lat="43.339708" lon="-8.409212">
        <ele>82.0</ele>
        <time>2011-06-25T09:37:34Z</time>
      </trkpt>
      <trkpt lat="43.339710" lon="-8.409212">
        <ele>82.0</ele>
        <time>2011-06-25T09:37:35Z</time>
      </trkpt>
      <trkpt lat="43.339710" lon="-8.409212">
        <ele>82.0</ele>
        <time>2011-06-25T09:37:36Z</time>
      </trkpt>
      <trkpt lat="43.339710" lon="-8.409212">
        <ele>82.0</ele>
        <time>2011-06-25T09:37:37Z</time>
      </trkpt>
      <trkpt lat="43.339710" lon="-8.409212">
        <ele>82.0</ele>
        <time>2011-06-25T09:37:38Z</time>
      </trkpt>
      <trkpt lat="43.339710" lon="-8.409212">
        <ele>82.0</ele>
        <time>2011-06-25T09:37:39Z</time>
      </trkpt>
      <trkpt lat="43.339710" lon="-8.409212">
        <ele>82.0</ele>
        <time>2011-06-25T09:37:40Z</time>
      </trkpt>
      <trkpt lat="43.339710" lon="-8.409210">
        <ele>82.0</ele>
        <time>2011-06-25T09:37:41Z</time>
      </trkpt>
      <trkpt lat="43.339712" lon="-8.409210">
        <ele>82.0</ele>
        <time>2011-06-25T09:37:42Z</time>
      </trkpt>
      <trkpt lat="43.339712" lon="-8.409210">
        <ele>82.0</ele>
        <time>2011-06-25T09:37:43Z</time>
      </trkpt>
      <trkpt lat="43.339712" lon="-8.409210">
        <ele>82.0</ele>
        <time>2011-06-25T09:37:44Z</time>
      </trkpt>
      <trkpt lat="43.339712" lon="-8.409210">
        <ele>82.0</ele>
        <time>2011-06-25T09:37:45Z</time>
      </trkpt>
      <trkpt lat="43.339712" lon="-8.409210">
        <ele>82.0</ele>
        <time>2011-06-25T09:37:46Z</time>
      </trkpt>
      <trkpt lat="43.339712" lon="-8.409210">
        <ele>82.0</ele>
        <time>2011-06-25T09:37:47Z</time>
      </trkpt>
      <trkpt lat="43.339712" lon="-8.409210">
        <ele>82.0</ele>
        <time>2011-06-25T09:37:48Z</time>
      </trkpt>
      <trkpt lat="43.339712" lon="-8.409210">
        <ele>82.0</ele>
        <time>2011-06-25T09:37:49Z</time>
      </trkpt>
      <trkpt lat="43.339712" lon="-8.409210">
        <ele>82.0</ele>
        <time>2011-06-25T09:37:50Z</time>
      </trkpt>
      <trkpt lat="43.339712" lon="-8.409210">
        <ele>82.0</ele>
        <time>2011-06-25T09:37:51Z</time>
      </trkpt>
      <trkpt lat="43.339712" lon="-8.409210">
        <ele>82.0</ele>
        <time>2011-06-25T09:37:52Z</time>
      </trkpt>
      <trkpt lat="43.339712" lon="-8.409210">
        <ele>82.0</ele>
        <time>2011-06-25T09:37:54Z</time>
      </trkpt>
      <trkpt lat="43.339712" lon="-8.409210">
        <ele>81.5</ele>
        <time>2011-06-25T09:37:54Z</time>
      </trkpt>
      <trkpt lat="43.339712" lon="-8.409210">
        <ele>81.5</ele>
        <time>2011-06-25T09:37:55Z</time>
      </trkpt>
      <trkpt lat="43.339712" lon="-8.409210">
        <ele>81.5</ele>
        <time>2011-06-25T09:37:56Z</time>
      </trkpt>
      <trkpt lat="43.339712" lon="-8.409210">
        <ele>81.5</ele>
        <time>2011-06-25T09:37:57Z</time>
      </trkpt>
      <trkpt lat="43.339712" lon="-8.409210">
        <ele>81.5</ele>
        <time>2011-06-25T09:37:58Z</time>
      </trkpt>
      <trkpt lat="43.339712" lon="-8.409210">
        <ele>81.5</ele>
        <time>2011-06-25T09:37:59Z</time>
      </trkpt>
      <trkpt lat="43.339712" lon="-8.409210">
        <ele>81.5</ele>
        <time>2011-06-25T09:38:00Z</time>
      </trkpt>
      <trkpt lat="43.339712" lon="-8.409210">
        <ele>81.5</ele>
        <time>2011-06-25T09:38:01Z</time>
      </trkpt>
      <trkpt lat="43.339712" lon="-8.409210">
        <ele>81.5</ele>
        <time>2011-06-25T09:38:02Z</time>
      </trkpt>
      <trkpt lat="43.339712" lon="-8.409210">
        <ele>81.5</ele>
        <time>2011-06-25T09:38:03Z</time>
      </trkpt>
      <trkpt lat="43.339712" lon="-8.409210">
        <ele>81.5</ele>
        <time>2011-06-25T09:38:04Z</time>
      </trkpt>
      <trkpt lat="43.339712" lon="-8.409210">
        <ele>82.0</ele>
        <time>2011-06-25T09:38:05Z</time>
      </trkpt>
      <trkpt lat="43.339712" lon="-8.409210">
        <ele>82.0</ele>
        <time>2011-06-25T09:38:06Z</time>
      </trkpt>
      <trkpt lat="43.339712" lon="-8.409210">
        <ele>82.0</ele>
        <time>2011-06-25T09:38:07Z</time>
      </trkpt>
      <trkpt lat="43.339712" lon="-8.409210">
        <ele>82.0</ele>
        <time>2011-06-25T09:38:08Z</time>
      </trkpt>
      <trkpt lat="43.339712" lon="-8.409210">
        <ele>82.0</ele>
        <time>2011-06-25T09:38:09Z</time>
      </trkpt>
      <trkpt lat="43.339712" lon="-8.409210">
        <ele>82.0</ele>
        <time>2011-06-25T09:38:10Z</time>
      </trkpt>
      <trkpt lat="43.339712" lon="-8.409210">
        <ele>82.0</ele>
        <time>2011-06-25T09:38:11Z</time>
      </trkpt>
      <trkpt lat="43.339712" lon="-8.409210">
        <ele>82.0</ele>
        <time>2011-06-25T09:38:12Z</time>
      </trkpt>
      <trkpt lat="43.339712" lon="-8.409210">
        <ele>82.0</ele>
        <time>2011-06-25T09:38:13Z</time>
      </trkpt>
      <trkpt lat="43.339712" lon="-8.409210">
        <ele>82.0</ele>
        <time>2011-06-25T09:38:14Z</time>
      </trkpt>
      <trkpt lat="43.339712" lon="-8.409210">
        <ele>82.0</ele>
        <time>2011-06-25T09:38:15Z</time>
      </trkpt>
      <trkpt lat="43.339712" lon="-8.409210">
        <ele>82.0</ele>
        <time>2011-06-25T09:38:16Z</time>
      </trkpt>
      <trkpt lat="43.339712" lon="-8.409210">
        <ele>82.0</ele>
        <time>2011-06-25T09:38:17Z</time>
      </trkpt>
      <trkpt lat="43.339712" lon="-8.409212">
        <ele>82.0</ele>
        <time>2011-06-25T09:38:18Z</time>
      </trkpt>
      <trkpt lat="43.339712" lon="-8.409213">
        <ele>82.0</ele>
        <time>2011-06-25T09:38:19Z</time>
      </trkpt>
      <trkpt lat="43.339713" lon="-8.409215">
        <ele>82.0</ele>
        <time>2011-06-25T09:38:20Z</time>
      </trkpt>
      <trkpt lat="43.339713" lon="-8.409215">
        <ele>82.0</ele>
        <time>2011-06-25T09:38:21Z</time>
      </trkpt>
      <trkpt lat="43.339713" lon="-8.409215">
        <ele>82.0</ele>
        <time>2011-06-25T09:38:23Z</time>
      </trkpt>
      <trkpt lat="43.339713" lon="-8.409215">
        <ele>82.0</ele>
        <time>2011-06-25T09:38:23Z</time>
      </trkpt>
      <trkpt lat="43.339713" lon="-8.409215">
        <ele>82.0</ele>
        <time>2011-06-25T09:38:24Z</time>
      </trkpt>
      <trkpt lat="43.339713" lon="-8.409217">
        <ele>81.5</ele>
        <time>2011-06-25T09:38:25Z</time>
      </trkpt>
      <trkpt lat="43.339715" lon="-8.409220">
        <ele>81.5</ele>
        <time>2011-06-25T09:38:26Z</time>
      </trkpt>
      <trkpt lat="43.339717" lon="-8.409222">
        <ele>81.5</ele>
        <time>2011-06-25T09:38:27Z</time>
      </trkpt>
      <trkpt lat="43.339717" lon="-8.409223">
        <ele>81.5</ele>
        <time>2011-06-25T09:38:28Z</time>
      </trkpt>
      <trkpt lat="43.339717" lon="-8.409223">
        <ele>81.5</ele>
        <time>2011-06-25T09:38:29Z</time>
      </trkpt>
      <trkpt lat="43.339717" lon="-8.409223">
        <ele>81.5</ele>
        <time>2011-06-25T09:38:30Z</time>
      </trkpt>
      <trkpt lat="43.339717" lon="-8.409225">
        <ele>81.5</ele>
        <time>2011-06-25T09:38:31Z</time>
      </trkpt>
      <trkpt lat="43.339717" lon="-8.409225">
        <ele>81.5</ele>
        <time>2011-06-25T09:38:32Z</time>
      </trkpt>
      <trkpt lat="43.339718" lon="-8.409225">
        <ele>81.5</ele>
        <time>2011-06-25T09:38:33Z</time>
      </trkpt>
      <trkpt lat="43.339718" lon="-8.409225">
        <ele>81.5</ele>
        <time>2011-06-25T09:38:34Z</time>
      </trkpt>
      <trkpt lat="43.339718" lon="-8.409227">
        <ele>81.5</ele>
        <time>2011-06-25T09:38:35Z</time>
      </trkpt>
      <trkpt lat="43.339718" lon="-8.409227">
        <ele>81.5</ele>
        <time>2011-06-25T09:38:36Z</time>
      </trkpt>
      <trkpt lat="43.339718" lon="-8.409228">
        <ele>81.5</ele>
        <time>2011-06-25T09:38:37Z</time>
      </trkpt>
      <trkpt lat="43.339718" lon="-8.409230">
        <ele>81.5</ele>
        <time>2011-06-25T09:38:38Z</time>
      </trkpt>
      <trkpt lat="43.339718" lon="-8.409232">
        <ele>81.5</ele>
        <time>2011-06-25T09:38:39Z</time>
      </trkpt>
      <trkpt lat="43.339718" lon="-8.409232">
        <ele>81.5</ele>
        <time>2011-06-25T09:38:40Z</time>
      </trkpt>
      <trkpt lat="43.339718" lon="-8.409232">
        <ele>81.5</ele>
        <time>2011-06-25T09:38:41Z</time>
      </trkpt>
      <trkpt lat="43.339718" lon="-8.409232">
        <ele>81.5</ele>
        <time>2011-06-25T09:38:42Z</time>
      </trkpt>
      <trkpt lat="43.339718" lon="-8.409233">
        <ele>81.5</ele>
        <time>2011-06-25T09:38:43Z</time>
      </trkpt>
      <trkpt lat="43.339718" lon="-8.409233">
        <ele>81.5</ele>
        <time>2011-06-25T09:38:44Z</time>
      </trkpt>
      <trkpt lat="43.339718" lon="-8.409233">
        <ele>81.5</ele>
        <time>2011-06-25T09:38:45Z</time>
      </trkpt>
      <trkpt lat="43.339718" lon="-8.409233">
        <ele>81.5</ele>
        <time>2011-06-25T09:38:46Z</time>
      </trkpt>
      <trkpt lat="43.339718" lon="-8.409233">
        <ele>81.5</ele>
        <time>2011-06-25T09:38:47Z</time>
      </trkpt>
      <trkpt lat="43.339718" lon="-8.409233">
        <ele>81.5</ele>
        <time>2011-06-25T09:38:48Z</time>
      </trkpt>
      <trkpt lat="43.339718" lon="-8.409233">
        <ele>81.5</ele>
        <time>2011-06-25T09:38:49Z</time>
      </trkpt>
      <trkpt lat="43.339718" lon="-8.409233">
        <ele>81.5</ele>
        <time>2011-06-25T09:38:50Z</time>
      </trkpt>
      <trkpt lat="43.339718" lon="-8.409233">
        <ele>81.5</ele>
        <time>2011-06-25T09:38:51Z</time>
      </trkpt>
      <trkpt lat="43.339718" lon="-8.409233">
        <ele>81.5</ele>
        <time>2011-06-25T09:38:52Z</time>
      </trkpt>
      <trkpt lat="43.339718" lon="-8.409233">
        <ele>81.5</ele>
        <time>2011-06-25T09:38:53Z</time>
      </trkpt>
      <trkpt lat="43.339718" lon="-8.409233">
        <ele>81.0</ele>
        <time>2011-06-25T09:38:54Z</time>
      </trkpt>
      <trkpt lat="43.339718" lon="-8.409233">
        <ele>81.0</ele>
        <time>2011-06-25T09:38:55Z</time>
      </trkpt>
      <trkpt lat="43.339718" lon="-8.409233">
        <ele>81.0</ele>
        <time>2011-06-25T09:38:56Z</time>
      </trkpt>
      <trkpt lat="43.339718" lon="-8.409233">
        <ele>81.0</ele>
        <time>2011-06-25T09:38:57Z</time>
      </trkpt>
      <trkpt lat="43.339718" lon="-8.409232">
        <ele>80.5</ele>
        <time>2011-06-25T09:38:58Z</time>
      </trkpt>
      <trkpt lat="43.339717" lon="-8.409233">
        <ele>80.0</ele>
        <time>2011-06-25T09:38:59Z</time>
      </trkpt>
      <trkpt lat="43.339717" lon="-8.409235">
        <ele>80.0</ele>
        <time>2011-06-25T09:39:00Z</time>
      </trkpt>
      <trkpt lat="43.339718" lon="-8.409240">
        <ele>80.0</ele>
        <time>2011-06-25T09:39:01Z</time>
      </trkpt>
      <trkpt lat="43.339717" lon="-8.409242">
        <ele>80.0</ele>
        <time>2011-06-25T09:39:02Z</time>
      </trkpt>
      <trkpt lat="43.339717" lon="-8.409243">
        <ele>79.5</ele>
        <time>2011-06-25T09:39:03Z</time>
      </trkpt>
      <trkpt lat="43.339717" lon="-8.409247">
        <ele>79.5</ele>
        <time>2011-06-25T09:39:04Z</time>
      </trkpt>
      <trkpt lat="43.339717" lon="-8.409252">
        <ele>79.5</ele>
        <time>2011-06-25T09:39:05Z</time>
      </trkpt>
      <trkpt lat="43.339717" lon="-8.409258">
        <ele>80.0</ele>
        <time>2011-06-25T09:39:06Z</time>
      </trkpt>
      <trkpt lat="43.339715" lon="-8.409258">
        <ele>80.0</ele>
        <time>2011-06-25T09:39:07Z</time>
      </trkpt>
      <trkpt lat="43.339713" lon="-8.409258">
        <ele>80.0</ele>
        <time>2011-06-25T09:39:08Z</time>
      </trkpt>
      <trkpt lat="43.339713" lon="-8.409258">
        <ele>79.5</ele>
        <time>2011-06-25T09:39:09Z</time>
      </trkpt>
      <trkpt lat="43.339713" lon="-8.409257">
        <ele>79.5</ele>
        <time>2011-06-25T09:39:10Z</time>
      </trkpt>
      <trkpt lat="43.339713" lon="-8.409257">
        <ele>79.5</ele>
        <time>2011-06-25T09:39:11Z</time>
      </trkpt>
      <trkpt lat="43.339712" lon="-8.409257">
        <ele>79.0</ele>
        <time>2011-06-25T09:39:12Z</time>
      </trkpt>
      <trkpt lat="43.339712" lon="-8.409257">
        <ele>79.0</ele>
        <time>2011-06-25T09:39:13Z</time>
      </trkpt>
      <trkpt lat="43.339712" lon="-8.409255">
        <ele>79.0</ele>
        <time>2011-06-25T09:39:14Z</time>
      </trkpt>
      <trkpt lat="43.339712" lon="-8.409255">
        <ele>79.0</ele>
        <time>2011-06-25T09:39:15Z</time>
      </trkpt>
      <trkpt lat="43.339712" lon="-8.409255">
        <ele>79.0</ele>
        <time>2011-06-25T09:39:16Z</time>
      </trkpt>
      <trkpt lat="43.339712" lon="-8.409255">
        <ele>79.0</ele>
        <time>2011-06-25T09:39:17Z</time>
      </trkpt>
      <trkpt lat="43.339712" lon="-8.409255">
        <ele>79.0</ele>
        <time>2011-06-25T09:39:18Z</time>
      </trkpt>
      <trkpt lat="43.339712" lon="-8.409255">
        <ele>79.0</ele>
        <time>2011-06-25T09:39:19Z</time>
      </trkpt>
      <trkpt lat="43.339712" lon="-8.409257">
        <ele>79.0</ele>
        <time>2011-06-25T09:39:20Z</time>
      </trkpt>
      <trkpt lat="43.339712" lon="-8.409255">
        <ele>78.5</ele>
        <time>2011-06-25T09:39:21Z</time>
      </trkpt>
      <trkpt lat="43.339712" lon="-8.409255">
        <ele>78.5</ele>
        <time>2011-06-25T09:39:22Z</time>
      </trkpt>
      <trkpt lat="43.339712" lon="-8.409255">
        <ele>78.5</ele>
        <time>2011-06-25T09:39:23Z</time>
      </trkpt>
      <trkpt lat="43.339712" lon="-8.409255">
        <ele>78.5</ele>
        <time>2011-06-25T09:39:24Z</time>
      </trkpt>
      <trkpt lat="43.339712" lon="-8.409255">
        <ele>78.5</ele>
        <time>2011-06-25T09:39:25Z</time>
      </trkpt>
      <trkpt lat="43.339712" lon="-8.409257">
        <ele>78.5</ele>
        <time>2011-06-25T09:39:26Z</time>
      </trkpt>
      <trkpt lat="43.339712" lon="-8.409255">
        <ele>78.5</ele>
        <time>2011-06-25T09:39:27Z</time>
      </trkpt>
      <trkpt lat="43.339712" lon="-8.409257">
        <ele>78.5</ele>
        <time>2011-06-25T09:39:28Z</time>
      </trkpt>
      <trkpt lat="43.339712" lon="-8.409257">
        <ele>78.5</ele>
        <time>2011-06-25T09:39:29Z</time>
      </trkpt>
      <trkpt lat="43.339712" lon="-8.409257">
        <ele>78.5</ele>
        <time>2011-06-25T09:39:30Z</time>
      </trkpt>
      <trkpt lat="43.339712" lon="-8.409258">
        <ele>78.5</ele>
        <time>2011-06-25T09:39:31Z</time>
      </trkpt>
      <trkpt lat="43.339710" lon="-8.409258">
        <ele>79.0</ele>
        <time>2011-06-25T09:39:32Z</time>
      </trkpt>
      <trkpt lat="43.339710" lon="-8.409260">
        <ele>78.5</ele>
        <time>2011-06-25T09:39:33Z</time>
      </trkpt>
      <trkpt lat="43.339710" lon="-8.409260">
        <ele>78.5</ele>
        <time>2011-06-25T09:39:34Z</time>
      </trkpt>
      <trkpt lat="43.339710" lon="-8.409260">
        <ele>79.0</ele>
        <time>2011-06-25T09:39:35Z</time>
      </trkpt>
      <trkpt lat="43.339710" lon="-8.409262">
        <ele>79.0</ele>
        <time>2011-06-25T09:39:36Z</time>
      </trkpt>
      <trkpt lat="43.339710" lon="-8.409263">
        <ele>79.0</ele>
        <time>2011-06-25T09:39:37Z</time>
      </trkpt>
      <trkpt lat="43.339710" lon="-8.409265">
        <ele>79.0</ele>
        <time>2011-06-25T09:39:38Z</time>
      </trkpt>
      <trkpt lat="43.339710" lon="-8.409265">
        <ele>79.0</ele>
        <time>2011-06-25T09:39:39Z</time>
      </trkpt>
      <trkpt lat="43.339710" lon="-8.409267">
        <ele>79.5</ele>
        <time>2011-06-25T09:39:40Z</time>
      </trkpt>
      <trkpt lat="43.339708" lon="-8.409268">
        <ele>79.5</ele>
        <time>2011-06-25T09:39:41Z</time>
      </trkpt>
      <trkpt lat="43.339708" lon="-8.409268">
        <ele>79.5</ele>
        <time>2011-06-25T09:39:42Z</time>
      </trkpt>
      <trkpt lat="43.339708" lon="-8.409268">
        <ele>79.5</ele>
        <time>2011-06-25T09:39:43Z</time>
      </trkpt>
      <trkpt lat="43.339708" lon="-8.409268">
        <ele>79.0</ele>
        <time>2011-06-25T09:39:44Z</time>
      </trkpt>
      <trkpt lat="43.339708" lon="-8.409267">
        <ele>79.0</ele>
        <time>2011-06-25T09:39:45Z</time>
      </trkpt>
      <trkpt lat="43.339708" lon="-8.409268">
        <ele>79.0</ele>
        <time>2011-06-25T09:39:46Z</time>
      </trkpt>
      <trkpt lat="43.339708" lon="-8.409268">
        <ele>79.0</ele>
        <time>2011-06-25T09:39:47Z</time>
      </trkpt>
      <trkpt lat="43.339708" lon="-8.409268">
        <ele>79.0</ele>
        <time>2011-06-25T09:39:48Z</time>
      </trkpt>
      <trkpt lat="43.339708" lon="-8.409265">
        <ele>78.5</ele>
        <time>2011-06-25T09:39:49Z</time>
      </trkpt>
      <trkpt lat="43.339708" lon="-8.409265">
        <ele>78.5</ele>
        <time>2011-06-25T09:39:50Z</time>
      </trkpt>
      <trkpt lat="43.339708" lon="-8.409267">
        <ele>78.5</ele>
        <time>2011-06-25T09:39:51Z</time>
      </trkpt>
      <trkpt lat="43.339708" lon="-8.409267">
        <ele>78.5</ele>
        <time>2011-06-25T09:39:52Z</time>
      </trkpt>
      <trkpt lat="43.339708" lon="-8.409268">
        <ele>79.0</ele>
        <time>2011-06-25T09:39:54Z</time>
      </trkpt>
      <trkpt lat="43.339708" lon="-8.409268">
        <ele>79.0</ele>
        <time>2011-06-25T09:39:54Z</time>
      </trkpt>
      <trkpt lat="43.339705" lon="-8.409282">
        <ele>81.0</ele>
        <time>2011-06-25T09:39:55Z</time>
      </trkpt>
      <trkpt lat="43.339705" lon="-8.409282">
        <ele>81.0</ele>
        <time>2011-06-25T09:39:56Z</time>
      </trkpt>
      <trkpt lat="43.339705" lon="-8.409282">
        <ele>81.5</ele>
        <time>2011-06-25T09:39:57Z</time>
      </trkpt>
      <trkpt lat="43.339702" lon="-8.409283">
        <ele>81.5</ele>
        <time>2011-06-25T09:39:58Z</time>
      </trkpt>
      <trkpt lat="43.339700" lon="-8.409283">
        <ele>82.0</ele>
        <time>2011-06-25T09:39:59Z</time>
      </trkpt>
      <trkpt lat="43.339700" lon="-8.409283">
        <ele>82.0</ele>
        <time>2011-06-25T09:40:00Z</time>
      </trkpt>
      <trkpt lat="43.339702" lon="-8.409283">
        <ele>82.0</ele>
        <time>2011-06-25T09:40:01Z</time>
      </trkpt>
      <trkpt lat="43.339702" lon="-8.409283">
        <ele>82.0</ele>
        <time>2011-06-25T09:40:02Z</time>
      </trkpt>
      <trkpt lat="43.339702" lon="-8.409283">
        <ele>82.0</ele>
        <time>2011-06-25T09:40:03Z</time>
      </trkpt>
      <trkpt lat="43.339702" lon="-8.409283">
        <ele>82.0</ele>
        <time>2011-06-25T09:40:04Z</time>
      </trkpt>
      <trkpt lat="43.339702" lon="-8.409282">
        <ele>82.0</ele>
        <time>2011-06-25T09:40:05Z</time>
      </trkpt>
      <trkpt lat="43.339702" lon="-8.409282">
        <ele>82.0</ele>
        <time>2011-06-25T09:40:06Z</time>
      </trkpt>
      <trkpt lat="43.339700" lon="-8.409275">
        <ele>80.5</ele>
        <time>2011-06-25T09:40:07Z</time>
      </trkpt>
      <trkpt lat="43.339700" lon="-8.409275">
        <ele>81.0</ele>
        <time>2011-06-25T09:40:08Z</time>
      </trkpt>
      <trkpt lat="43.339698" lon="-8.409272">
        <ele>80.5</ele>
        <time>2011-06-25T09:40:09Z</time>
      </trkpt>
      <trkpt lat="43.339698" lon="-8.409270">
        <ele>80.0</ele>
        <time>2011-06-25T09:40:10Z</time>
      </trkpt>
      <trkpt lat="43.339698" lon="-8.409268">
        <ele>79.5</ele>
        <time>2011-06-25T09:40:11Z</time>
      </trkpt>
      <trkpt lat="43.339698" lon="-8.409268">
        <ele>79.5</ele>
        <time>2011-06-25T09:40:12Z</time>
      </trkpt>
      <trkpt lat="43.339698" lon="-8.409268">
        <ele>79.5</ele>
        <time>2011-06-25T09:40:13Z</time>
      </trkpt>
      <trkpt lat="43.339700" lon="-8.409267">
        <ele>80.0</ele>
        <time>2011-06-25T09:40:14Z</time>
      </trkpt>
      <trkpt lat="43.339702" lon="-8.409267">
        <ele>80.5</ele>
        <time>2011-06-25T09:40:15Z</time>
      </trkpt>
      <trkpt lat="43.339705" lon="-8.409265">
        <ele>80.0</ele>
        <time>2011-06-25T09:40:16Z</time>
      </trkpt>
      <trkpt lat="43.339705" lon="-8.409263">
        <ele>79.5</ele>
        <time>2011-06-25T09:40:17Z</time>
      </trkpt>
      <trkpt lat="43.339702" lon="-8.409257">
        <ele>79.5</ele>
        <time>2011-06-25T09:40:18Z</time>
      </trkpt>
      <trkpt lat="43.339700" lon="-8.409252">
        <ele>80.0</ele>
        <time>2011-06-25T09:40:19Z</time>
      </trkpt>
      <trkpt lat="43.339695" lon="-8.409248">
        <ele>79.5</ele>
        <time>2011-06-25T09:40:21Z</time>
      </trkpt>
      <trkpt lat="43.339693" lon="-8.409247">
        <ele>79.5</ele>
        <time>2011-06-25T09:40:21Z</time>
      </trkpt>
      <trkpt lat="43.339693" lon="-8.409247">
        <ele>79.5</ele>
        <time>2011-06-25T09:40:22Z</time>
      </trkpt>
      <trkpt lat="43.339695" lon="-8.409247">
        <ele>80.0</ele>
        <time>2011-06-25T09:40:23Z</time>
      </trkpt>
      <trkpt lat="43.339695" lon="-8.409245">
        <ele>80.0</ele>
        <time>2011-06-25T09:40:24Z</time>
      </trkpt>
      <trkpt lat="43.339695" lon="-8.409245">
        <ele>80.0</ele>
        <time>2011-06-25T09:40:25Z</time>
      </trkpt>
      <trkpt lat="43.339695" lon="-8.409245">
        <ele>80.0</ele>
        <time>2011-06-25T09:40:27Z</time>
      </trkpt>
      <trkpt lat="43.339695" lon="-8.409243">
        <ele>80.0</ele>
        <time>2011-06-25T09:40:27Z</time>
      </trkpt>
      <trkpt lat="43.339693" lon="-8.409243">
        <ele>80.5</ele>
        <time>2011-06-25T09:40:29Z</time>
      </trkpt>
      <trkpt lat="43.339690" lon="-8.409242">
        <ele>80.5</ele>
        <time>2011-06-25T09:40:29Z</time>
      </trkpt>
      <trkpt lat="43.339688" lon="-8.409240">
        <ele>80.5</ele>
        <time>2011-06-25T09:40:30Z</time>
      </trkpt>
      <trkpt lat="43.339688" lon="-8.409238">
        <ele>80.5</ele>
        <time>2011-06-25T09:40:32Z</time>
      </trkpt>
      <trkpt lat="43.339688" lon="-8.409237">
        <ele>80.5</ele>
        <time>2011-06-25T09:40:32Z</time>
      </trkpt>
      <trkpt lat="43.339688" lon="-8.409228">
        <ele>80.0</ele>
        <time>2011-06-25T09:40:33Z</time>
      </trkpt>
      <trkpt lat="43.339690" lon="-8.409225">
        <ele>79.5</ele>
        <time>2011-06-25T09:40:34Z</time>
      </trkpt>
      <trkpt lat="43.339692" lon="-8.409222">
        <ele>79.0</ele>
        <time>2011-06-25T09:40:35Z</time>
      </trkpt>
      <trkpt lat="43.339693" lon="-8.409218">
        <ele>78.5</ele>
        <time>2011-06-25T09:40:36Z</time>
      </trkpt>
      <trkpt lat="43.339692" lon="-8.409215">
        <ele>77.5</ele>
        <time>2011-06-25T09:40:37Z</time>
      </trkpt>
      <trkpt lat="43.339693" lon="-8.409215">
        <ele>77.5</ele>
        <time>2011-06-25T09:40:38Z</time>
      </trkpt>
      <trkpt lat="43.339693" lon="-8.409213">
        <ele>77.0</ele>
        <time>2011-06-25T09:40:40Z</time>
      </trkpt>
      <trkpt lat="43.339695" lon="-8.409212">
        <ele>76.5</ele>
        <time>2011-06-25T09:40:41Z</time>
      </trkpt>
      <trkpt lat="43.339697" lon="-8.409210">
        <ele>76.5</ele>
        <time>2011-06-25T09:40:41Z</time>
      </trkpt>
      <trkpt lat="43.339697" lon="-8.409208">
        <ele>76.0</ele>
        <time>2011-06-25T09:40:42Z</time>
      </trkpt>
      <trkpt lat="43.339697" lon="-8.409207">
        <ele>76.0</ele>
        <time>2011-06-25T09:40:43Z</time>
      </trkpt>
      <trkpt lat="43.339695" lon="-8.409205">
        <ele>76.0</ele>
        <time>2011-06-25T09:40:44Z</time>
      </trkpt>
      <trkpt lat="43.339695" lon="-8.409203">
        <ele>75.5</ele>
        <time>2011-06-25T09:40:45Z</time>
      </trkpt>
      <trkpt lat="43.339695" lon="-8.409202">
        <ele>75.5</ele>
        <time>2011-06-25T09:40:47Z</time>
      </trkpt>
      <trkpt lat="43.339693" lon="-8.409202">
        <ele>75.5</ele>
        <time>2011-06-25T09:40:47Z</time>
      </trkpt>
      <trkpt lat="43.339693" lon="-8.409200">
        <ele>75.5</ele>
        <time>2011-06-25T09:40:48Z</time>
      </trkpt>
      <trkpt lat="43.339693" lon="-8.409198">
        <ele>75.5</ele>
        <time>2011-06-25T09:40:49Z</time>
      </trkpt>
      <trkpt lat="43.339693" lon="-8.409198">
        <ele>75.5</ele>
        <time>2011-06-25T09:40:50Z</time>
      </trkpt>
      <trkpt lat="43.339693" lon="-8.409198">
        <ele>75.5</ele>
        <time>2011-06-25T09:40:52Z</time>
      </trkpt>
      <trkpt lat="43.339693" lon="-8.409198">
        <ele>75.5</ele>
        <time>2011-06-25T09:40:52Z</time>
      </trkpt>
      <trkpt lat="43.339693" lon="-8.409197">
        <ele>75.0</ele>
        <time>2011-06-25T09:40:54Z</time>
      </trkpt>
      <trkpt lat="43.339693" lon="-8.409197">
        <ele>75.0</ele>
        <time>2011-06-25T09:40:54Z</time>
      </trkpt>
      <trkpt lat="43.339693" lon="-8.409197">
        <ele>75.0</ele>
        <time>2011-06-25T09:40:56Z</time>
      </trkpt>
      <trkpt lat="43.339693" lon="-8.409197">
        <ele>75.0</ele>
        <time>2011-06-25T09:40:57Z</time>
      </trkpt>
      <trkpt lat="43.339693" lon="-8.409197">
        <ele>75.0</ele>
        <time>2011-06-25T09:40:57Z</time>
      </trkpt>
      <trkpt lat="43.339693" lon="-8.409197">
        <ele>75.0</ele>
        <time>2011-06-25T09:40:58Z</time>
      </trkpt>
      <trkpt lat="43.339693" lon="-8.409197">
        <ele>75.0</ele>
        <time>2011-06-25T09:40:59Z</time>
      </trkpt>
      <trkpt lat="43.339693" lon="-8.409197">
        <ele>75.0</ele>
        <time>2011-06-25T09:41:00Z</time>
      </trkpt>
      <trkpt lat="43.339693" lon="-8.409195">
        <ele>75.0</ele>
        <time>2011-06-25T09:41:01Z</time>
      </trkpt>
      <trkpt lat="43.339693" lon="-8.409195">
        <ele>75.0</ele>
        <time>2011-06-25T09:41:02Z</time>
      </trkpt>
      <trkpt lat="43.339693" lon="-8.409195">
        <ele>75.0</ele>
        <time>2011-06-25T09:41:04Z</time>
      </trkpt>
      <trkpt lat="43.339693" lon="-8.409195">
        <ele>75.0</ele>
        <time>2011-06-25T09:41:04Z</time>
      </trkpt>
      <trkpt lat="43.339693" lon="-8.409195">
        <ele>75.0</ele>
        <time>2011-06-25T09:41:05Z</time>
      </trkpt>
      <trkpt lat="43.339693" lon="-8.409195">
        <ele>75.0</ele>
        <time>2011-06-25T09:41:06Z</time>
      </trkpt>
      <trkpt lat="43.339693" lon="-8.409195">
        <ele>75.0</ele>
        <time>2011-06-25T09:41:07Z</time>
      </trkpt>
      <trkpt lat="43.339693" lon="-8.409195">
        <ele>75.0</ele>
        <time>2011-06-25T09:41:08Z</time>
      </trkpt>
      <trkpt lat="43.339693" lon="-8.409195">
        <ele>75.0</ele>
        <time>2011-06-25T09:41:09Z</time>
      </trkpt>
      <trkpt lat="43.339693" lon="-8.409193">
        <ele>75.0</ele>
        <time>2011-06-25T09:41:11Z</time>
      </trkpt>
      <trkpt lat="43.339693" lon="-8.409193">
        <ele>75.0</ele>
        <time>2011-06-25T09:41:11Z</time>
      </trkpt>
      <trkpt lat="43.339693" lon="-8.409193">
        <ele>75.0</ele>
        <time>2011-06-25T09:41:13Z</time>
      </trkpt>
      <trkpt lat="43.339693" lon="-8.409193">
        <ele>75.0</ele>
        <time>2011-06-25T09:41:14Z</time>
      </trkpt>
      <trkpt lat="43.339693" lon="-8.409193">
        <ele>75.0</ele>
        <time>2011-06-25T09:41:14Z</time>
      </trkpt>
      <trkpt lat="43.339693" lon="-8.409193">
        <ele>75.0</ele>
        <time>2011-06-25T09:41:15Z</time>
      </trkpt>
      <trkpt lat="43.339693" lon="-8.409193">
        <ele>75.0</ele>
        <time>2011-06-25T09:41:16Z</time>
      </trkpt>
      <trkpt lat="43.339693" lon="-8.409193">
        <ele>75.0</ele>
        <time>2011-06-25T09:41:17Z</time>
      </trkpt>
      <trkpt lat="43.339693" lon="-8.409193">
        <ele>75.0</ele>
        <time>2011-06-25T09:41:18Z</time>
      </trkpt>
      <trkpt lat="43.339693" lon="-8.409193">
        <ele>75.0</ele>
        <time>2011-06-25T09:41:20Z</time>
      </trkpt>
      <trkpt lat="43.339692" lon="-8.409192">
        <ele>75.0</ele>
        <time>2011-06-25T09:41:21Z</time>
      </trkpt>
      <trkpt lat="43.339693" lon="-8.409192">
        <ele>75.0</ele>
        <time>2011-06-25T09:41:21Z</time>
      </trkpt>
      <trkpt lat="43.339693" lon="-8.409192">
        <ele>75.0</ele>
        <time>2011-06-25T09:41:23Z</time>
      </trkpt>
      <trkpt lat="43.339693" lon="-8.409192">
        <ele>74.5</ele>
        <time>2011-06-25T09:41:23Z</time>
      </trkpt>
      <trkpt lat="43.339693" lon="-8.409192">
        <ele>74.5</ele>
        <time>2011-06-25T09:41:24Z</time>
      </trkpt>
      <trkpt lat="43.339693" lon="-8.409192">
        <ele>74.5</ele>
        <time>2011-06-25T09:41:25Z</time>
      </trkpt>
      <trkpt lat="43.339693" lon="-8.409192">
        <ele>74.5</ele>
        <time>2011-06-25T09:41:27Z</time>
      </trkpt>
      <trkpt lat="43.339693" lon="-8.409192">
        <ele>74.5</ele>
        <time>2011-06-25T09:41:28Z</time>
      </trkpt>
      <trkpt lat="43.339693" lon="-8.409192">
        <ele>74.5</ele>
        <time>2011-06-25T09:41:28Z</time>
      </trkpt>
      <trkpt lat="43.339693" lon="-8.409192">
        <ele>74.5</ele>
        <time>2011-06-25T09:41:29Z</time>
      </trkpt>
      <trkpt lat="43.339693" lon="-8.409190">
        <ele>74.5</ele>
        <time>2011-06-25T09:41:30Z</time>
      </trkpt>
      <trkpt lat="43.339693" lon="-8.409190">
        <ele>74.5</ele>
        <time>2011-06-25T09:41:31Z</time>
      </trkpt>
      <trkpt lat="43.339693" lon="-8.409190">
        <ele>74.5</ele>
        <time>2011-06-25T09:41:32Z</time>
      </trkpt>
      <trkpt lat="43.339692" lon="-8.409192">
        <ele>74.5</ele>
        <time>2011-06-25T09:41:33Z</time>
      </trkpt>
      <trkpt lat="43.339690" lon="-8.409188">
        <ele>74.5</ele>
        <time>2011-06-25T09:41:35Z</time>
      </trkpt>
      <trkpt lat="43.339688" lon="-8.409187">
        <ele>74.5</ele>
        <time>2011-06-25T09:41:35Z</time>
      </trkpt>
      <trkpt lat="43.339688" lon="-8.409187">
        <ele>74.5</ele>
        <time>2011-06-25T09:41:36Z</time>
      </trkpt>
      <trkpt lat="43.339688" lon="-8.409185">
        <ele>74.5</ele>
        <time>2011-06-25T09:41:37Z</time>
      </trkpt>
      <trkpt lat="43.339688" lon="-8.409185">
        <ele>74.5</ele>
        <time>2011-06-25T09:41:39Z</time>
      </trkpt>
      <trkpt lat="43.339688" lon="-8.409185">
        <ele>74.5</ele>
        <time>2011-06-25T09:41:39Z</time>
      </trkpt>
      <trkpt lat="43.339688" lon="-8.409183">
        <ele>74.5</ele>
        <time>2011-06-25T09:41:40Z</time>
      </trkpt>
      <trkpt lat="43.339688" lon="-8.409183">
        <ele>74.5</ele>
        <time>2011-06-25T09:41:41Z</time>
      </trkpt>
      <trkpt lat="43.339688" lon="-8.409183">
        <ele>74.5</ele>
        <time>2011-06-25T09:41:42Z</time>
      </trkpt>
      <trkpt lat="43.339688" lon="-8.409183">
        <ele>74.5</ele>
        <time>2011-06-25T09:41:43Z</time>
      </trkpt>
      <trkpt lat="43.339688" lon="-8.409182">
        <ele>74.5</ele>
        <time>2011-06-25T09:41:44Z</time>
      </trkpt>
      <trkpt lat="43.339688" lon="-8.409182">
        <ele>74.5</ele>
        <time>2011-06-25T09:41:45Z</time>
      </trkpt>
      <trkpt lat="43.339688" lon="-8.409182">
        <ele>74.5</ele>
        <time>2011-06-25T09:41:46Z</time>
      </trkpt>
      <trkpt lat="43.339688" lon="-8.409182">
        <ele>75.0</ele>
        <time>2011-06-25T09:41:47Z</time>
      </trkpt>
      <trkpt lat="43.339688" lon="-8.409182">
        <ele>75.0</ele>
        <time>2011-06-25T09:41:48Z</time>
      </trkpt>
      <trkpt lat="43.339688" lon="-8.409182">
        <ele>75.0</ele>
        <time>2011-06-25T09:41:49Z</time>
      </trkpt>
      <trkpt lat="43.339688" lon="-8.409182">
        <ele>75.0</ele>
        <time>2011-06-25T09:41:50Z</time>
      </trkpt>
      <trkpt lat="43.339688" lon="-8.409182">
        <ele>75.0</ele>
        <time>2011-06-25T09:41:51Z</time>
      </trkpt>
      <trkpt lat="43.339688" lon="-8.409182">
        <ele>75.0</ele>
        <time>2011-06-25T09:41:53Z</time>
      </trkpt>
      <trkpt lat="43.339688" lon="-8.409180">
        <ele>75.0</ele>
        <time>2011-06-25T09:41:53Z</time>
      </trkpt>
      <trkpt lat="43.339682" lon="-8.409183">
        <ele>75.5</ele>
        <time>2011-06-25T09:41:54Z</time>
      </trkpt>
      <trkpt lat="43.339680" lon="-8.409167">
        <ele>78.0</ele>
        <time>2011-06-25T09:41:56Z</time>
      </trkpt>
      <trkpt lat="43.339675" lon="-8.409165">
        <ele>78.5</ele>
        <time>2011-06-25T09:41:56Z</time>
      </trkpt>
      <trkpt lat="43.339667" lon="-8.409160">
        <ele>79.0</ele>
        <time>2011-06-25T09:41:57Z</time>
      </trkpt>
      <trkpt lat="43.339662" lon="-8.409158">
        <ele>79.5</ele>
        <time>2011-06-25T09:41:58Z</time>
      </trkpt>
      <trkpt lat="43.339650" lon="-8.409158">
        <ele>80.0</ele>
        <time>2011-06-25T09:41:59Z</time>
      </trkpt>
      <trkpt lat="43.339638" lon="-8.409160">
        <ele>81.0</ele>
        <time>2011-06-25T09:42:01Z</time>
      </trkpt>
      <trkpt lat="43.339623" lon="-8.409157">
        <ele>81.0</ele>
        <time>2011-06-25T09:42:01Z</time>
      </trkpt>
      <trkpt lat="43.339607" lon="-8.409157">
        <ele>81.5</ele>
        <time>2011-06-25T09:42:02Z</time>
      </trkpt>
      <trkpt lat="43.339590" lon="-8.409158">
        <ele>82.5</ele>
        <time>2011-06-25T09:42:03Z</time>
      </trkpt>
      <trkpt lat="43.339575" lon="-8.409160">
        <ele>83.0</ele>
        <time>2011-06-25T09:42:04Z</time>
      </trkpt>
      <trkpt lat="43.339560" lon="-8.409162">
        <ele>83.0</ele>
        <time>2011-06-25T09:42:05Z</time>
      </trkpt>
      <trkpt lat="43.339545" lon="-8.409165">
        <ele>83.5</ele>
        <time>2011-06-25T09:42:06Z</time>
      </trkpt>
      <trkpt lat="43.339527" lon="-8.409168">
        <ele>84.0</ele>
        <time>2011-06-25T09:42:07Z</time>
      </trkpt>
      <trkpt lat="43.339508" lon="-8.409165">
        <ele>84.0</ele>
        <time>2011-06-25T09:42:08Z</time>
      </trkpt>
      <trkpt lat="43.339488" lon="-8.409158">
        <ele>84.0</ele>
        <time>2011-06-25T09:42:09Z</time>
      </trkpt>
      <trkpt lat="43.339467" lon="-8.409153">
        <ele>84.5</ele>
        <time>2011-06-25T09:42:10Z</time>
      </trkpt>
      <trkpt lat="43.339445" lon="-8.409143">
        <ele>84.5</ele>
        <time>2011-06-25T09:42:11Z</time>
      </trkpt>
      <trkpt lat="43.339425" lon="-8.409132">
        <ele>84.5</ele>
        <time>2011-06-25T09:42:12Z</time>
      </trkpt>
      <trkpt lat="43.339407" lon="-8.409120">
        <ele>84.5</ele>
        <time>2011-06-25T09:42:13Z</time>
      </trkpt>
      <trkpt lat="43.339387" lon="-8.409107">
        <ele>84.5</ele>
        <time>2011-06-25T09:42:14Z</time>
      </trkpt>
      <trkpt lat="43.339367" lon="-8.409090">
        <ele>84.0</ele>
        <time>2011-06-25T09:42:15Z</time>
      </trkpt>
      <trkpt lat="43.339352" lon="-8.409072">
        <ele>84.0</ele>
        <time>2011-06-25T09:42:16Z</time>
      </trkpt>
      <trkpt lat="43.339337" lon="-8.409053">
        <ele>85.0</ele>
        <time>2011-06-25T09:42:17Z</time>
      </trkpt>
      <trkpt lat="43.339322" lon="-8.409037">
        <ele>86.5</ele>
        <time>2011-06-25T09:42:18Z</time>
      </trkpt>
      <trkpt lat="43.339305" lon="-8.409017">
        <ele>87.0</ele>
        <time>2011-06-25T09:42:20Z</time>
      </trkpt>
      <trkpt lat="43.339290" lon="-8.408997">
        <ele>88.0</ele>
        <time>2011-06-25T09:42:20Z</time>
      </trkpt>
      <trkpt lat="43.339278" lon="-8.408973">
        <ele>90.0</ele>
        <time>2011-06-25T09:42:21Z</time>
      </trkpt>
      <trkpt lat="43.339267" lon="-8.408948">
        <ele>91.5</ele>
        <time>2011-06-25T09:42:22Z</time>
      </trkpt>
      <trkpt lat="43.339257" lon="-8.408923">
        <ele>93.0</ele>
        <time>2011-06-25T09:42:23Z</time>
      </trkpt>
      <trkpt lat="43.339245" lon="-8.408900">
        <ele>94.0</ele>
        <time>2011-06-25T09:42:24Z</time>
      </trkpt>
      <trkpt lat="43.339228" lon="-8.408880">
        <ele>94.5</ele>
        <time>2011-06-25T09:42:26Z</time>
      </trkpt>
      <trkpt lat="43.339212" lon="-8.408857">
        <ele>95.0</ele>
        <time>2011-06-25T09:42:26Z</time>
      </trkpt>
      <trkpt lat="43.339197" lon="-8.408835">
        <ele>95.0</ele>
        <time>2011-06-25T09:42:27Z</time>
      </trkpt>
      <trkpt lat="43.339175" lon="-8.408818">
        <ele>94.0</ele>
        <time>2011-06-25T09:42:28Z</time>
      </trkpt>
      <trkpt lat="43.339152" lon="-8.408815">
        <ele>95.5</ele>
        <time>2011-06-25T09:42:29Z</time>
      </trkpt>
      <trkpt lat="43.339128" lon="-8.408815">
        <ele>95.5</ele>
        <time>2011-06-25T09:42:30Z</time>
      </trkpt>
      <trkpt lat="43.339098" lon="-8.408817">
        <ele>96.5</ele>
        <time>2011-06-25T09:42:31Z</time>
      </trkpt>
      <trkpt lat="43.339080" lon="-8.408825">
        <ele>98.5</ele>
        <time>2011-06-25T09:42:32Z</time>
      </trkpt>
      <trkpt lat="43.339058" lon="-8.408838">
        <ele>99.0</ele>
        <time>2011-06-25T09:42:33Z</time>
      </trkpt>
      <trkpt lat="43.338970" lon="-8.408893">
        <ele>100.5</ele>
        <time>2011-06-25T09:42:35Z</time>
      </trkpt>
      <trkpt lat="43.338930" lon="-8.408912">
        <ele>100.5</ele>
        <time>2011-06-25T09:42:36Z</time>
      </trkpt>
      <trkpt lat="43.338893" lon="-8.408927">
        <ele>100.5</ele>
        <time>2011-06-25T09:42:37Z</time>
      </trkpt>
      <trkpt lat="43.338858" lon="-8.408947">
        <ele>100.5</ele>
        <time>2011-06-25T09:42:38Z</time>
      </trkpt>
      <trkpt lat="43.338820" lon="-8.408970">
        <ele>101.5</ele>
        <time>2011-06-25T09:42:39Z</time>
      </trkpt>
      <trkpt lat="43.338783" lon="-8.408990">
        <ele>100.5</ele>
        <time>2011-06-25T09:42:40Z</time>
      </trkpt>
      <trkpt lat="43.338757" lon="-8.409007">
        <ele>100.5</ele>
        <time>2011-06-25T09:42:41Z</time>
      </trkpt>
      <trkpt lat="43.338727" lon="-8.409020">
        <ele>98.5</ele>
        <time>2011-06-25T09:42:42Z</time>
      </trkpt>
      <trkpt lat="43.338693" lon="-8.409025">
        <ele>96.5</ele>
        <time>2011-06-25T09:42:44Z</time>
      </trkpt>
      <trkpt lat="43.338613" lon="-8.408957">
        <ele>96.5</ele>
        <time>2011-06-25T09:42:45Z</time>
      </trkpt>
      <trkpt lat="43.338583" lon="-8.408928">
        <ele>97.0</ele>
        <time>2011-06-25T09:42:46Z</time>
      </trkpt>
      <trkpt lat="43.338552" lon="-8.408907">
        <ele>97.5</ele>
        <time>2011-06-25T09:42:47Z</time>
      </trkpt>
      <trkpt lat="43.338533" lon="-8.408898">
        <ele>98.0</ele>
        <time>2011-06-25T09:42:48Z</time>
      </trkpt>
      <trkpt lat="43.338502" lon="-8.408900">
        <ele>99.0</ele>
        <time>2011-06-25T09:42:49Z</time>
      </trkpt>
      <trkpt lat="43.338475" lon="-8.408905">
        <ele>100.5</ele>
        <time>2011-06-25T09:42:50Z</time>
      </trkpt>
      <trkpt lat="43.338457" lon="-8.408922">
        <ele>101.5</ele>
        <time>2011-06-25T09:42:51Z</time>
      </trkpt>
      <trkpt lat="43.338445" lon="-8.408962">
        <ele>103.0</ele>
        <time>2011-06-25T09:42:52Z</time>
      </trkpt>
      <trkpt lat="43.338435" lon="-8.409002">
        <ele>104.0</ele>
        <time>2011-06-25T09:42:53Z</time>
      </trkpt>
      <trkpt lat="43.338422" lon="-8.409033">
        <ele>106.0</ele>
        <time>2011-06-25T09:42:54Z</time>
      </trkpt>
      <trkpt lat="43.338412" lon="-8.409068">
        <ele>106.5</ele>
        <time>2011-06-25T09:42:57Z</time>
      </trkpt>
    </trkseg>
  </trk>
  <trk>
    <name>T2067676-4</name>
    <cmt>saida con compañeiros do C.C.Arteixo polos arredores da Coruña</cmt>
    <desc>saida con compañeiros do C.C.Arteixo polos arredores da Coruña</desc>
    <trkseg>
      <trkpt lat="43.338410" lon="-8.409092">
        <ele>106.5</ele>
        <time>2011-06-25T09:42:57Z</time>
      </trkpt>
      <trkpt lat="43.338402" lon="-8.409107">
        <ele>107.0</ele>
        <time>2011-06-25T09:42:59Z</time>
      </trkpt>
      <trkpt lat="43.338393" lon="-8.409122">
        <ele>107.5</ele>
        <time>2011-06-25T09:43:00Z</time>
      </trkpt>
      <trkpt lat="43.338387" lon="-8.409137">
        <ele>108.0</ele>
        <time>2011-06-25T09:43:00Z</time>
      </trkpt>
      <trkpt lat="43.338383" lon="-8.409143">
        <ele>108.5</ele>
        <time>2011-06-25T09:43:01Z</time>
      </trkpt>
      <trkpt lat="43.338377" lon="-8.409137">
        <ele>108.5</ele>
        <time>2011-06-25T09:43:02Z</time>
      </trkpt>
      <trkpt lat="43.338372" lon="-8.409130">
        <ele>109.0</ele>
        <time>2011-06-25T09:43:03Z</time>
      </trkpt>
      <trkpt lat="43.338358" lon="-8.409132">
        <ele>109.0</ele>
        <time>2011-06-25T09:43:04Z</time>
      </trkpt>
      <trkpt lat="43.338342" lon="-8.409138">
        <ele>109.5</ele>
        <time>2011-06-25T09:43:06Z</time>
      </trkpt>
      <trkpt lat="43.338330" lon="-8.409148">
        <ele>110.0</ele>
        <time>2011-06-25T09:43:06Z</time>
      </trkpt>
      <trkpt lat="43.338315" lon="-8.409163">
        <ele>112.0</ele>
        <time>2011-06-25T09:43:07Z</time>
      </trkpt>
      <trkpt lat="43.338285" lon="-8.409188">
        <ele>112.0</ele>
        <time>2011-06-25T09:43:08Z</time>
      </trkpt>
      <trkpt lat="43.338253" lon="-8.409212">
        <ele>113.0</ele>
        <time>2011-06-25T09:43:09Z</time>
      </trkpt>
      <trkpt lat="43.338222" lon="-8.409232">
        <ele>112.5</ele>
        <time>2011-06-25T09:43:10Z</time>
      </trkpt>
      <trkpt lat="43.338192" lon="-8.409257">
        <ele>112.5</ele>
        <time>2011-06-25T09:43:11Z</time>
      </trkpt>
      <trkpt lat="43.338165" lon="-8.409288">
        <ele>112.5</ele>
        <time>2011-06-25T09:43:12Z</time>
      </trkpt>
      <trkpt lat="43.338135" lon="-8.409322">
        <ele>112.0</ele>
        <time>2011-06-25T09:43:14Z</time>
      </trkpt>
      <trkpt lat="43.338103" lon="-8.409345">
        <ele>112.5</ele>
        <time>2011-06-25T09:43:15Z</time>
      </trkpt>
      <trkpt lat="43.338075" lon="-8.409372">
        <ele>112.5</ele>
        <time>2011-06-25T09:43:15Z</time>
      </trkpt>
      <trkpt lat="43.338042" lon="-8.409387">
        <ele>112.5</ele>
        <time>2011-06-25T09:43:16Z</time>
      </trkpt>
      <trkpt lat="43.338015" lon="-8.409408">
        <ele>112.5</ele>
        <time>2011-06-25T09:43:17Z</time>
      </trkpt>
      <trkpt lat="43.337992" lon="-8.409415">
        <ele>114.5</ele>
        <time>2011-06-25T09:43:18Z</time>
      </trkpt>
      <trkpt lat="43.337968" lon="-8.409420">
        <ele>116.5</ele>
        <time>2011-06-25T09:43:19Z</time>
      </trkpt>
      <trkpt lat="43.337950" lon="-8.409403">
        <ele>116.5</ele>
        <time>2011-06-25T09:43:20Z</time>
      </trkpt>
      <trkpt lat="43.337945" lon="-8.409400">
        <ele>116.5</ele>
        <time>2011-06-25T09:43:22Z</time>
      </trkpt>
      <trkpt lat="43.337948" lon="-8.409398">
        <ele>116.5</ele>
        <time>2011-06-25T09:43:23Z</time>
      </trkpt>
      <trkpt lat="43.337987" lon="-8.409463">
        <ele>117.0</ele>
        <time>2011-06-25T09:43:24Z</time>
      </trkpt>
      <trkpt lat="43.337997" lon="-8.409477">
        <ele>116.5</ele>
        <time>2011-06-25T09:43:26Z</time>
      </trkpt>
      <trkpt lat="43.337952" lon="-8.409522">
        <ele>115.0</ele>
        <time>2011-06-25T09:43:27Z</time>
      </trkpt>
      <trkpt lat="43.337952" lon="-8.409548">
        <ele>115.0</ele>
        <time>2011-06-25T09:43:28Z</time>
      </trkpt>
      <trkpt lat="43.337948" lon="-8.409553">
        <ele>115.0</ele>
        <time>2011-06-25T09:43:30Z</time>
      </trkpt>
      <trkpt lat="43.337985" lon="-8.409688">
        <ele>115.0</ele>
        <time>2011-06-25T09:43:31Z</time>
      </trkpt>
      <trkpt lat="43.337988" lon="-8.409708">
        <ele>115.0</ele>
        <time>2011-06-25T09:43:32Z</time>
      </trkpt>
      <trkpt lat="43.337990" lon="-8.409745">
        <ele>114.5</ele>
        <time>2011-06-25T09:43:33Z</time>
      </trkpt>
      <trkpt lat="43.337995" lon="-8.409793">
        <ele>114.5</ele>
        <time>2011-06-25T09:43:34Z</time>
      </trkpt>
      <trkpt lat="43.337993" lon="-8.409805">
        <ele>114.5</ele>
        <time>2011-06-25T09:43:35Z</time>
      </trkpt>
      <trkpt lat="43.337983" lon="-8.409810">
        <ele>114.5</ele>
        <time>2011-06-25T09:43:37Z</time>
      </trkpt>
      <trkpt lat="43.337970" lon="-8.409805">
        <ele>115.0</ele>
        <time>2011-06-25T09:43:38Z</time>
      </trkpt>
      <trkpt lat="43.337972" lon="-8.409838">
        <ele>115.0</ele>
        <time>2011-06-25T09:43:38Z</time>
      </trkpt>
      <trkpt lat="43.337945" lon="-8.409790">
        <ele>115.0</ele>
        <time>2011-06-25T09:43:39Z</time>
      </trkpt>
      <trkpt lat="43.337915" lon="-8.409760">
        <ele>115.0</ele>
        <time>2011-06-25T09:43:40Z</time>
      </trkpt>
      <trkpt lat="43.337803" lon="-8.409720">
        <ele>115.5</ele>
        <time>2011-06-25T09:43:42Z</time>
      </trkpt>
      <trkpt lat="43.337632" lon="-8.409623">
        <ele>118.0</ele>
        <time>2011-06-25T09:43:45Z</time>
      </trkpt>
      <trkpt lat="43.337282" lon="-8.409440">
        <ele>118.5</ele>
        <time>2011-06-25T09:43:50Z</time>
      </trkpt>
      <trkpt lat="43.337188" lon="-8.409395">
        <ele>117.5</ele>
        <time>2011-06-25T09:43:52Z</time>
      </trkpt>
      <trkpt lat="43.337095" lon="-8.409333">
        <ele>118.0</ele>
        <time>2011-06-25T09:43:54Z</time>
      </trkpt>
      <trkpt lat="43.337013" lon="-8.409272">
        <ele>118.0</ele>
        <time>2011-06-25T09:43:57Z</time>
      </trkpt>
      <trkpt lat="43.336923" lon="-8.409235">
        <ele>119.0</ele>
        <time>2011-06-25T09:43:58Z</time>
      </trkpt>
      <trkpt lat="43.336825" lon="-8.409192">
        <ele>118.0</ele>
        <time>2011-06-25T09:44:01Z</time>
      </trkpt>
      <trkpt lat="43.336790" lon="-8.409128">
        <ele>118.0</ele>
        <time>2011-06-25T09:44:02Z</time>
      </trkpt>
      <trkpt lat="43.336712" lon="-8.409098">
        <ele>118.0</ele>
        <time>2011-06-25T09:44:04Z</time>
      </trkpt>
      <trkpt lat="43.336673" lon="-8.409085">
        <ele>119.5</ele>
        <time>2011-06-25T09:44:06Z</time>
      </trkpt>
      <trkpt lat="43.336645" lon="-8.409075">
        <ele>120.5</ele>
        <time>2011-06-25T09:44:06Z</time>
      </trkpt>
      <trkpt lat="43.336613" lon="-8.409067">
        <ele>121.5</ele>
        <time>2011-06-25T09:44:07Z</time>
      </trkpt>
      <trkpt lat="43.336575" lon="-8.409053">
        <ele>121.5</ele>
        <time>2011-06-25T09:44:08Z</time>
      </trkpt>
      <trkpt lat="43.336537" lon="-8.409043">
        <ele>122.0</ele>
        <time>2011-06-25T09:44:09Z</time>
      </trkpt>
      <trkpt lat="43.336503" lon="-8.409042">
        <ele>123.0</ele>
        <time>2011-06-25T09:44:10Z</time>
      </trkpt>
      <trkpt lat="43.336468" lon="-8.409038">
        <ele>124.0</ele>
        <time>2011-06-25T09:44:11Z</time>
      </trkpt>
      <trkpt lat="43.336438" lon="-8.409033">
        <ele>123.5</ele>
        <time>2011-06-25T09:44:12Z</time>
      </trkpt>
      <trkpt lat="43.336405" lon="-8.409028">
        <ele>123.0</ele>
        <time>2011-06-25T09:44:13Z</time>
      </trkpt>
      <trkpt lat="43.336373" lon="-8.409030">
        <ele>122.5</ele>
        <time>2011-06-25T09:44:15Z</time>
      </trkpt>
      <trkpt lat="43.336348" lon="-8.409040">
        <ele>122.0</ele>
        <time>2011-06-25T09:44:15Z</time>
      </trkpt>
      <trkpt lat="43.336322" lon="-8.409053">
        <ele>121.5</ele>
        <time>2011-06-25T09:44:16Z</time>
      </trkpt>
      <trkpt lat="43.336283" lon="-8.409078">
        <ele>125.0</ele>
        <time>2011-06-25T09:44:17Z</time>
      </trkpt>
      <trkpt lat="43.336248" lon="-8.409088">
        <ele>124.5</ele>
        <time>2011-06-25T09:44:18Z</time>
      </trkpt>
      <trkpt lat="43.336217" lon="-8.409100">
        <ele>124.0</ele>
        <time>2011-06-25T09:44:19Z</time>
      </trkpt>
      <trkpt lat="43.336187" lon="-8.409112">
        <ele>123.0</ele>
        <time>2011-06-25T09:44:21Z</time>
      </trkpt>
      <trkpt lat="43.336155" lon="-8.409128">
        <ele>123.0</ele>
        <time>2011-06-25T09:44:22Z</time>
      </trkpt>
      <trkpt lat="43.336123" lon="-8.409147">
        <ele>122.5</ele>
        <time>2011-06-25T09:44:23Z</time>
      </trkpt>
      <trkpt lat="43.336087" lon="-8.409165">
        <ele>122.5</ele>
        <time>2011-06-25T09:44:23Z</time>
      </trkpt>
      <trkpt lat="43.336053" lon="-8.409187">
        <ele>122.0</ele>
        <time>2011-06-25T09:44:24Z</time>
      </trkpt>
      <trkpt lat="43.336027" lon="-8.409208">
        <ele>122.0</ele>
        <time>2011-06-25T09:44:25Z</time>
      </trkpt>
      <trkpt lat="43.335997" lon="-8.409233">
        <ele>121.5</ele>
        <time>2011-06-25T09:44:26Z</time>
      </trkpt>
      <trkpt lat="43.335967" lon="-8.409262">
        <ele>121.0</ele>
        <time>2011-06-25T09:44:27Z</time>
      </trkpt>
      <trkpt lat="43.335940" lon="-8.409290">
        <ele>120.5</ele>
        <time>2011-06-25T09:44:28Z</time>
      </trkpt>
      <trkpt lat="43.335913" lon="-8.409318">
        <ele>119.5</ele>
        <time>2011-06-25T09:44:29Z</time>
      </trkpt>
      <trkpt lat="43.335887" lon="-8.409343">
        <ele>119.0</ele>
        <time>2011-06-25T09:44:30Z</time>
      </trkpt>
      <trkpt lat="43.335860" lon="-8.409368">
        <ele>117.5</ele>
        <time>2011-06-25T09:44:31Z</time>
      </trkpt>
      <trkpt lat="43.335833" lon="-8.409393">
        <ele>116.5</ele>
        <time>2011-06-25T09:44:33Z</time>
      </trkpt>
      <trkpt lat="43.335808" lon="-8.409420">
        <ele>116.0</ele>
        <time>2011-06-25T09:44:33Z</time>
      </trkpt>
      <trkpt lat="43.335783" lon="-8.409452">
        <ele>115.5</ele>
        <time>2011-06-25T09:44:35Z</time>
      </trkpt>
      <trkpt lat="43.335758" lon="-8.409483">
        <ele>115.0</ele>
        <time>2011-06-25T09:44:36Z</time>
      </trkpt>
      <trkpt lat="43.335733" lon="-8.409517">
        <ele>114.5</ele>
        <time>2011-06-25T09:44:36Z</time>
      </trkpt>
      <trkpt lat="43.335710" lon="-8.409547">
        <ele>111.5</ele>
        <time>2011-06-25T09:44:37Z</time>
      </trkpt>
      <trkpt lat="43.335688" lon="-8.409582">
        <ele>111.0</ele>
        <time>2011-06-25T09:44:38Z</time>
      </trkpt>
      <trkpt lat="43.335673" lon="-8.409612">
        <ele>107.5</ele>
        <time>2011-06-25T09:44:39Z</time>
      </trkpt>
      <trkpt lat="43.335655" lon="-8.409642">
        <ele>105.0</ele>
        <time>2011-06-25T09:44:40Z</time>
      </trkpt>
      <trkpt lat="43.335635" lon="-8.409675">
        <ele>104.0</ele>
        <time>2011-06-25T09:44:41Z</time>
      </trkpt>
      <trkpt lat="43.335618" lon="-8.409707">
        <ele>102.5</ele>
        <time>2011-06-25T09:44:42Z</time>
      </trkpt>
      <trkpt lat="43.335602" lon="-8.409743">
        <ele>101.5</ele>
        <time>2011-06-25T09:44:43Z</time>
      </trkpt>
      <trkpt lat="43.335587" lon="-8.409785">
        <ele>100.0</ele>
        <time>2011-06-25T09:44:44Z</time>
      </trkpt>
      <trkpt lat="43.335573" lon="-8.409832">
        <ele>99.5</ele>
        <time>2011-06-25T09:44:45Z</time>
      </trkpt>
      <trkpt lat="43.335558" lon="-8.409877">
        <ele>98.5</ele>
        <time>2011-06-25T09:44:46Z</time>
      </trkpt>
      <trkpt lat="43.335545" lon="-8.409923">
        <ele>97.5</ele>
        <time>2011-06-25T09:44:47Z</time>
      </trkpt>
      <trkpt lat="43.335535" lon="-8.409970">
        <ele>97.0</ele>
        <time>2011-06-25T09:44:48Z</time>
      </trkpt>
      <trkpt lat="43.335523" lon="-8.410017">
        <ele>96.0</ele>
        <time>2011-06-25T09:44:49Z</time>
      </trkpt>
      <trkpt lat="43.335512" lon="-8.410065">
        <ele>96.0</ele>
        <time>2011-06-25T09:44:50Z</time>
      </trkpt>
      <trkpt lat="43.335500" lon="-8.410113">
        <ele>95.5</ele>
        <time>2011-06-25T09:44:51Z</time>
      </trkpt>
      <trkpt lat="43.335490" lon="-8.410162">
        <ele>95.0</ele>
        <time>2011-06-25T09:44:52Z</time>
      </trkpt>
      <trkpt lat="43.335482" lon="-8.410210">
        <ele>94.5</ele>
        <time>2011-06-25T09:44:53Z</time>
      </trkpt>
      <trkpt lat="43.335473" lon="-8.410258">
        <ele>94.0</ele>
        <time>2011-06-25T09:44:54Z</time>
      </trkpt>
      <trkpt lat="43.335470" lon="-8.410310">
        <ele>93.5</ele>
        <time>2011-06-25T09:44:56Z</time>
      </trkpt>
      <trkpt lat="43.335465" lon="-8.410365">
        <ele>93.0</ele>
        <time>2011-06-25T09:44:56Z</time>
      </trkpt>
      <trkpt lat="43.335465" lon="-8.410418">
        <ele>93.0</ele>
        <time>2011-06-25T09:44:57Z</time>
      </trkpt>
      <trkpt lat="43.335462" lon="-8.410470">
        <ele>92.5</ele>
        <time>2011-06-25T09:44:58Z</time>
      </trkpt>
      <trkpt lat="43.335462" lon="-8.410523">
        <ele>92.5</ele>
        <time>2011-06-25T09:44:59Z</time>
      </trkpt>
      <trkpt lat="43.335463" lon="-8.410575">
        <ele>92.0</ele>
        <time>2011-06-25T09:45:00Z</time>
      </trkpt>
      <trkpt lat="43.335465" lon="-8.410627">
        <ele>92.0</ele>
        <time>2011-06-25T09:45:01Z</time>
      </trkpt>
      <trkpt lat="43.335468" lon="-8.410680">
        <ele>91.5</ele>
        <time>2011-06-25T09:45:02Z</time>
      </trkpt>
      <trkpt lat="43.335473" lon="-8.410733">
        <ele>91.0</ele>
        <time>2011-06-25T09:45:03Z</time>
      </trkpt>
      <trkpt lat="43.335478" lon="-8.410783">
        <ele>90.5</ele>
        <time>2011-06-25T09:45:04Z</time>
      </trkpt>
      <trkpt lat="43.335485" lon="-8.410833">
        <ele>90.5</ele>
        <time>2011-06-25T09:45:05Z</time>
      </trkpt>
      <trkpt lat="43.335490" lon="-8.410883">
        <ele>90.0</ele>
        <time>2011-06-25T09:45:06Z</time>
      </trkpt>
      <trkpt lat="43.335497" lon="-8.410932">
        <ele>90.0</ele>
        <time>2011-06-25T09:45:07Z</time>
      </trkpt>
      <trkpt lat="43.335503" lon="-8.410982">
        <ele>89.5</ele>
        <time>2011-06-25T09:45:08Z</time>
      </trkpt>
      <trkpt lat="43.335510" lon="-8.411030">
        <ele>89.5</ele>
        <time>2011-06-25T09:45:09Z</time>
      </trkpt>
      <trkpt lat="43.335517" lon="-8.411078">
        <ele>89.5</ele>
        <time>2011-06-25T09:45:10Z</time>
      </trkpt>
      <trkpt lat="43.335525" lon="-8.411127">
        <ele>89.0</ele>
        <time>2011-06-25T09:45:11Z</time>
      </trkpt>
      <trkpt lat="43.335533" lon="-8.411177">
        <ele>89.0</ele>
        <time>2011-06-25T09:45:13Z</time>
      </trkpt>
      <trkpt lat="43.335543" lon="-8.411227">
        <ele>89.0</ele>
        <time>2011-06-25T09:45:13Z</time>
      </trkpt>
      <trkpt lat="43.335553" lon="-8.411277">
        <ele>88.5</ele>
        <time>2011-06-25T09:45:14Z</time>
      </trkpt>
      <trkpt lat="43.335563" lon="-8.411325">
        <ele>89.0</ele>
        <time>2011-06-25T09:45:15Z</time>
      </trkpt>
      <trkpt lat="43.335573" lon="-8.411375">
        <ele>89.0</ele>
        <time>2011-06-25T09:45:16Z</time>
      </trkpt>
      <trkpt lat="43.335585" lon="-8.411427">
        <ele>88.5</ele>
        <time>2011-06-25T09:45:17Z</time>
      </trkpt>
      <trkpt lat="43.335597" lon="-8.411480">
        <ele>88.5</ele>
        <time>2011-06-25T09:45:18Z</time>
      </trkpt>
      <trkpt lat="43.335608" lon="-8.411533">
        <ele>88.5</ele>
        <time>2011-06-25T09:45:19Z</time>
      </trkpt>
      <trkpt lat="43.335623" lon="-8.411587">
        <ele>88.5</ele>
        <time>2011-06-25T09:45:20Z</time>
      </trkpt>
      <trkpt lat="43.335640" lon="-8.411642">
        <ele>88.5</ele>
        <time>2011-06-25T09:45:21Z</time>
      </trkpt>
      <trkpt lat="43.335657" lon="-8.411698">
        <ele>88.5</ele>
        <time>2011-06-25T09:45:22Z</time>
      </trkpt>
      <trkpt lat="43.335673" lon="-8.411753">
        <ele>88.5</ele>
        <time>2011-06-25T09:45:23Z</time>
      </trkpt>
      <trkpt lat="43.335692" lon="-8.411810">
        <ele>88.0</ele>
        <time>2011-06-25T09:45:24Z</time>
      </trkpt>
      <trkpt lat="43.335710" lon="-8.411865">
        <ele>88.0</ele>
        <time>2011-06-25T09:45:25Z</time>
      </trkpt>
      <trkpt lat="43.335728" lon="-8.411920">
        <ele>88.0</ele>
        <time>2011-06-25T09:45:26Z</time>
      </trkpt>
      <trkpt lat="43.335747" lon="-8.411975">
        <ele>88.0</ele>
        <time>2011-06-25T09:45:27Z</time>
      </trkpt>
      <trkpt lat="43.335765" lon="-8.412030">
        <ele>88.0</ele>
        <time>2011-06-25T09:45:28Z</time>
      </trkpt>
      <trkpt lat="43.335780" lon="-8.412085">
        <ele>87.5</ele>
        <time>2011-06-25T09:45:29Z</time>
      </trkpt>
      <trkpt lat="43.335797" lon="-8.412140">
        <ele>88.0</ele>
        <time>2011-06-25T09:45:30Z</time>
      </trkpt>
      <trkpt lat="43.335812" lon="-8.412193">
        <ele>88.0</ele>
        <time>2011-06-25T09:45:31Z</time>
      </trkpt>
      <trkpt lat="43.335827" lon="-8.412242">
        <ele>88.0</ele>
        <time>2011-06-25T09:45:32Z</time>
      </trkpt>
      <trkpt lat="43.335847" lon="-8.412287">
        <ele>88.0</ele>
        <time>2011-06-25T09:45:33Z</time>
      </trkpt>
      <trkpt lat="43.335865" lon="-8.412335">
        <ele>88.0</ele>
        <time>2011-06-25T09:45:35Z</time>
      </trkpt>
      <trkpt lat="43.335885" lon="-8.412387">
        <ele>88.5</ele>
        <time>2011-06-25T09:45:35Z</time>
      </trkpt>
      <trkpt lat="43.335902" lon="-8.412440">
        <ele>88.5</ele>
        <time>2011-06-25T09:45:36Z</time>
      </trkpt>
      <trkpt lat="43.335912" lon="-8.412495">
        <ele>88.5</ele>
        <time>2011-06-25T09:45:37Z</time>
      </trkpt>
      <trkpt lat="43.335912" lon="-8.412550">
        <ele>88.0</ele>
        <time>2011-06-25T09:45:38Z</time>
      </trkpt>
      <trkpt lat="43.335895" lon="-8.412598">
        <ele>88.0</ele>
        <time>2011-06-25T09:45:39Z</time>
      </trkpt>
      <trkpt lat="43.335867" lon="-8.412637">
        <ele>88.0</ele>
        <time>2011-06-25T09:45:40Z</time>
      </trkpt>
      <trkpt lat="43.335875" lon="-8.412688">
        <ele>88.0</ele>
        <time>2011-06-25T09:45:42Z</time>
      </trkpt>
      <trkpt lat="43.335883" lon="-8.412732">
        <ele>88.0</ele>
        <time>2011-06-25T09:45:42Z</time>
      </trkpt>
      <trkpt lat="43.335890" lon="-8.412765">
        <ele>88.0</ele>
        <time>2011-06-25T09:45:44Z</time>
      </trkpt>
      <trkpt lat="43.335845" lon="-8.412780">
        <ele>88.0</ele>
        <time>2011-06-25T09:45:45Z</time>
      </trkpt>
      <trkpt lat="43.335698" lon="-8.412710">
        <ele>88.0</ele>
        <time>2011-06-25T09:45:47Z</time>
      </trkpt>
      <trkpt lat="43.335653" lon="-8.412678">
        <ele>87.5</ele>
        <time>2011-06-25T09:45:48Z</time>
      </trkpt>
      <trkpt lat="43.335652" lon="-8.412645">
        <ele>87.0</ele>
        <time>2011-06-25T09:45:49Z</time>
      </trkpt>
      <trkpt lat="43.335670" lon="-8.412667">
        <ele>86.5</ele>
        <time>2011-06-25T09:45:52Z</time>
      </trkpt>
      <trkpt lat="43.335672" lon="-8.412723">
        <ele>86.5</ele>
        <time>2011-06-25T09:45:52Z</time>
      </trkpt>
      <trkpt lat="43.335670" lon="-8.412767">
        <ele>87.5</ele>
        <time>2011-06-25T09:45:53Z</time>
      </trkpt>
      <trkpt lat="43.335675" lon="-8.412800">
        <ele>88.5</ele>
        <time>2011-06-25T09:45:54Z</time>
      </trkpt>
      <trkpt lat="43.335678" lon="-8.412833">
        <ele>90.0</ele>
        <time>2011-06-25T09:45:55Z</time>
      </trkpt>
      <trkpt lat="43.335675" lon="-8.412873">
        <ele>91.0</ele>
        <time>2011-06-25T09:45:56Z</time>
      </trkpt>
      <trkpt lat="43.335673" lon="-8.412917">
        <ele>91.0</ele>
        <time>2011-06-25T09:45:57Z</time>
      </trkpt>
      <trkpt lat="43.335670" lon="-8.412963">
        <ele>91.5</ele>
        <time>2011-06-25T09:45:58Z</time>
      </trkpt>
      <trkpt lat="43.335662" lon="-8.413008">
        <ele>92.0</ele>
        <time>2011-06-25T09:45:59Z</time>
      </trkpt>
      <trkpt lat="43.335655" lon="-8.413047">
        <ele>92.0</ele>
        <time>2011-06-25T09:46:00Z</time>
      </trkpt>
      <trkpt lat="43.335642" lon="-8.413082">
        <ele>92.5</ele>
        <time>2011-06-25T09:46:01Z</time>
      </trkpt>
      <trkpt lat="43.335628" lon="-8.413110">
        <ele>92.5</ele>
        <time>2011-06-25T09:46:02Z</time>
      </trkpt>
      <trkpt lat="43.335612" lon="-8.413137">
        <ele>92.0</ele>
        <time>2011-06-25T09:46:03Z</time>
      </trkpt>
      <trkpt lat="43.335593" lon="-8.413167">
        <ele>92.0</ele>
        <time>2011-06-25T09:46:04Z</time>
      </trkpt>
      <trkpt lat="43.335572" lon="-8.413197">
        <ele>91.5</ele>
        <time>2011-06-25T09:46:05Z</time>
      </trkpt>
      <trkpt lat="43.335547" lon="-8.413222">
        <ele>91.0</ele>
        <time>2011-06-25T09:46:07Z</time>
      </trkpt>
      <trkpt lat="43.335523" lon="-8.413233">
        <ele>91.0</ele>
        <time>2011-06-25T09:46:07Z</time>
      </trkpt>
      <trkpt lat="43.335500" lon="-8.413240">
        <ele>91.5</ele>
        <time>2011-06-25T09:46:09Z</time>
      </trkpt>
      <trkpt lat="43.335477" lon="-8.413248">
        <ele>91.0</ele>
        <time>2011-06-25T09:46:09Z</time>
      </trkpt>
      <trkpt lat="43.335460" lon="-8.413257">
        <ele>91.0</ele>
        <time>2011-06-25T09:46:10Z</time>
      </trkpt>
      <trkpt lat="43.335445" lon="-8.413262">
        <ele>91.0</ele>
        <time>2011-06-25T09:46:11Z</time>
      </trkpt>
      <trkpt lat="43.335433" lon="-8.413267">
        <ele>91.0</ele>
        <time>2011-06-25T09:46:12Z</time>
      </trkpt>
      <trkpt lat="43.335423" lon="-8.413272">
        <ele>91.0</ele>
        <time>2011-06-25T09:46:13Z</time>
      </trkpt>
      <trkpt lat="43.335417" lon="-8.413275">
        <ele>91.0</ele>
        <time>2011-06-25T09:46:15Z</time>
      </trkpt>
      <trkpt lat="43.335415" lon="-8.413277">
        <ele>91.0</ele>
        <time>2011-06-25T09:46:16Z</time>
      </trkpt>
      <trkpt lat="43.335357" lon="-8.413242">
        <ele>91.0</ele>
        <time>2011-06-25T09:46:20Z</time>
      </trkpt>
      <trkpt lat="43.335060" lon="-8.413378">
        <ele>91.5</ele>
        <time>2011-06-25T09:46:25Z</time>
      </trkpt>
      <trkpt lat="43.335027" lon="-8.413392">
        <ele>92.0</ele>
        <time>2011-06-25T09:46:26Z</time>
      </trkpt>
      <trkpt lat="43.334993" lon="-8.413405">
        <ele>92.5</ele>
        <time>2011-06-25T09:46:27Z</time>
      </trkpt>
      <trkpt lat="43.334963" lon="-8.413417">
        <ele>93.0</ele>
        <time>2011-06-25T09:46:28Z</time>
      </trkpt>
      <trkpt lat="43.334940" lon="-8.413432">
        <ele>93.0</ele>
        <time>2011-06-25T09:46:29Z</time>
      </trkpt>
      <trkpt lat="43.334918" lon="-8.413458">
        <ele>93.5</ele>
        <time>2011-06-25T09:46:30Z</time>
      </trkpt>
      <trkpt lat="43.334890" lon="-8.413487">
        <ele>94.5</ele>
        <time>2011-06-25T09:46:31Z</time>
      </trkpt>
      <trkpt lat="43.334870" lon="-8.413515">
        <ele>95.0</ele>
        <time>2011-06-25T09:46:32Z</time>
      </trkpt>
      <trkpt lat="43.334850" lon="-8.413542">
        <ele>95.0</ele>
        <time>2011-06-25T09:46:33Z</time>
      </trkpt>
      <trkpt lat="43.334833" lon="-8.413570">
        <ele>95.5</ele>
        <time>2011-06-25T09:46:34Z</time>
      </trkpt>
      <trkpt lat="43.334818" lon="-8.413595">
        <ele>95.5</ele>
        <time>2011-06-25T09:46:34Z</time>
      </trkpt>
      <trkpt lat="43.334805" lon="-8.413615">
        <ele>96.0</ele>
        <time>2011-06-25T09:46:36Z</time>
      </trkpt>
      <trkpt lat="43.334788" lon="-8.413635">
        <ele>96.5</ele>
        <time>2011-06-25T09:46:37Z</time>
      </trkpt>
      <trkpt lat="43.334775" lon="-8.413658">
        <ele>96.5</ele>
        <time>2011-06-25T09:46:38Z</time>
      </trkpt>
      <trkpt lat="43.334763" lon="-8.413685">
        <ele>97.0</ele>
        <time>2011-06-25T09:46:39Z</time>
      </trkpt>
      <trkpt lat="43.334753" lon="-8.413712">
        <ele>96.5</ele>
        <time>2011-06-25T09:46:40Z</time>
      </trkpt>
      <trkpt lat="43.334738" lon="-8.413738">
        <ele>97.0</ele>
        <time>2011-06-25T09:46:41Z</time>
      </trkpt>
      <trkpt lat="43.334723" lon="-8.413765">
        <ele>97.5</ele>
        <time>2011-06-25T09:46:42Z</time>
      </trkpt>
      <trkpt lat="43.334708" lon="-8.413793">
        <ele>97.5</ele>
        <time>2011-06-25T09:46:43Z</time>
      </trkpt>
      <trkpt lat="43.334695" lon="-8.413820">
        <ele>98.0</ele>
        <time>2011-06-25T09:46:44Z</time>
      </trkpt>
      <trkpt lat="43.334682" lon="-8.413850">
        <ele>98.0</ele>
        <time>2011-06-25T09:46:45Z</time>
      </trkpt>
      <trkpt lat="43.334668" lon="-8.413878">
        <ele>98.5</ele>
        <time>2011-06-25T09:46:46Z</time>
      </trkpt>
      <trkpt lat="43.334655" lon="-8.413910">
        <ele>99.0</ele>
        <time>2011-06-25T09:46:47Z</time>
      </trkpt>
      <trkpt lat="43.334640" lon="-8.413940">
        <ele>99.5</ele>
        <time>2011-06-25T09:46:48Z</time>
      </trkpt>
      <trkpt lat="43.334627" lon="-8.413967">
        <ele>101.0</ele>
        <time>2011-06-25T09:46:49Z</time>
      </trkpt>
      <trkpt lat="43.334612" lon="-8.413992">
        <ele>101.5</ele>
        <time>2011-06-25T09:46:50Z</time>
      </trkpt>
      <trkpt lat="43.334595" lon="-8.414018">
        <ele>101.5</ele>
        <time>2011-06-25T09:46:51Z</time>
      </trkpt>
      <trkpt lat="43.334583" lon="-8.414045">
        <ele>101.5</ele>
        <time>2011-06-25T09:46:51Z</time>
      </trkpt>
      <trkpt lat="43.334572" lon="-8.414070">
        <ele>102.0</ele>
        <time>2011-06-25T09:46:53Z</time>
      </trkpt>
      <trkpt lat="43.334558" lon="-8.414097">
        <ele>102.0</ele>
        <time>2011-06-25T09:46:54Z</time>
      </trkpt>
      <trkpt lat="43.334547" lon="-8.414122">
        <ele>102.0</ele>
        <time>2011-06-25T09:46:55Z</time>
      </trkpt>
      <trkpt lat="43.334533" lon="-8.414150">
        <ele>101.5</ele>
        <time>2011-06-25T09:46:56Z</time>
      </trkpt>
      <trkpt lat="43.334522" lon="-8.414175">
        <ele>101.5</ele>
        <time>2011-06-25T09:46:57Z</time>
      </trkpt>
      <trkpt lat="43.334507" lon="-8.414200">
        <ele>101.5</ele>
        <time>2011-06-25T09:46:58Z</time>
      </trkpt>
      <trkpt lat="43.334492" lon="-8.414223">
        <ele>101.5</ele>
        <time>2011-06-25T09:46:59Z</time>
      </trkpt>
      <trkpt lat="43.334475" lon="-8.414248">
        <ele>101.5</ele>
        <time>2011-06-25T09:47:00Z</time>
      </trkpt>
      <trkpt lat="43.334455" lon="-8.414275">
        <ele>101.5</ele>
        <time>2011-06-25T09:47:01Z</time>
      </trkpt>
      <trkpt lat="43.334437" lon="-8.414300">
        <ele>102.0</ele>
        <time>2011-06-25T09:47:02Z</time>
      </trkpt>
      <trkpt lat="43.334422" lon="-8.414327">
        <ele>102.0</ele>
        <time>2011-06-25T09:47:03Z</time>
      </trkpt>
      <trkpt lat="43.334408" lon="-8.414353">
        <ele>102.5</ele>
        <time>2011-06-25T09:47:04Z</time>
      </trkpt>
      <trkpt lat="43.334398" lon="-8.414377">
        <ele>103.0</ele>
        <time>2011-06-25T09:47:05Z</time>
      </trkpt>
      <trkpt lat="43.334388" lon="-8.414403">
        <ele>103.5</ele>
        <time>2011-06-25T09:47:06Z</time>
      </trkpt>
      <trkpt lat="43.334380" lon="-8.414427">
        <ele>104.0</ele>
        <time>2011-06-25T09:47:07Z</time>
      </trkpt>
      <trkpt lat="43.334370" lon="-8.414448">
        <ele>104.5</ele>
        <time>2011-06-25T09:47:08Z</time>
      </trkpt>
      <trkpt lat="43.334362" lon="-8.414470">
        <ele>105.0</ele>
        <time>2011-06-25T09:47:08Z</time>
      </trkpt>
      <trkpt lat="43.334352" lon="-8.414492">
        <ele>104.5</ele>
        <time>2011-06-25T09:47:10Z</time>
      </trkpt>
      <trkpt lat="43.334343" lon="-8.414510">
        <ele>104.5</ele>
        <time>2011-06-25T09:47:11Z</time>
      </trkpt>
      <trkpt lat="43.334338" lon="-8.414528">
        <ele>105.0</ele>
        <time>2011-06-25T09:47:12Z</time>
      </trkpt>
      <trkpt lat="43.334333" lon="-8.414548">
        <ele>105.0</ele>
        <time>2011-06-25T09:47:13Z</time>
      </trkpt>
      <trkpt lat="43.334328" lon="-8.414568">
        <ele>105.0</ele>
        <time>2011-06-25T09:47:14Z</time>
      </trkpt>
      <trkpt lat="43.334322" lon="-8.414590">
        <ele>104.5</ele>
        <time>2011-06-25T09:47:15Z</time>
      </trkpt>
      <trkpt lat="43.334318" lon="-8.414615">
        <ele>104.5</ele>
        <time>2011-06-25T09:47:16Z</time>
      </trkpt>
      <trkpt lat="43.334312" lon="-8.414638">
        <ele>105.0</ele>
        <time>2011-06-25T09:47:17Z</time>
      </trkpt>
      <trkpt lat="43.334302" lon="-8.414660">
        <ele>105.0</ele>
        <time>2011-06-25T09:47:18Z</time>
      </trkpt>
      <trkpt lat="43.334292" lon="-8.414680">
        <ele>104.5</ele>
        <time>2011-06-25T09:47:19Z</time>
      </trkpt>
      <trkpt lat="43.334280" lon="-8.414698">
        <ele>104.5</ele>
        <time>2011-06-25T09:47:20Z</time>
      </trkpt>
      <trkpt lat="43.334268" lon="-8.414717">
        <ele>105.0</ele>
        <time>2011-06-25T09:47:21Z</time>
      </trkpt>
      <trkpt lat="43.334255" lon="-8.414733">
        <ele>105.0</ele>
        <time>2011-06-25T09:47:22Z</time>
      </trkpt>
      <trkpt lat="43.334245" lon="-8.414750">
        <ele>105.5</ele>
        <time>2011-06-25T09:47:23Z</time>
      </trkpt>
      <trkpt lat="43.334233" lon="-8.414768">
        <ele>106.0</ele>
        <time>2011-06-25T09:47:24Z</time>
      </trkpt>
      <trkpt lat="43.334223" lon="-8.414788">
        <ele>106.0</ele>
        <time>2011-06-25T09:47:25Z</time>
      </trkpt>
      <trkpt lat="43.334213" lon="-8.414805">
        <ele>106.5</ele>
        <time>2011-06-25T09:47:25Z</time>
      </trkpt>
      <trkpt lat="43.334203" lon="-8.414820">
        <ele>107.5</ele>
        <time>2011-06-25T09:47:27Z</time>
      </trkpt>
      <trkpt lat="43.334193" lon="-8.414832">
        <ele>108.0</ele>
        <time>2011-06-25T09:47:28Z</time>
      </trkpt>
      <trkpt lat="43.334185" lon="-8.414845">
        <ele>108.5</ele>
        <time>2011-06-25T09:47:29Z</time>
      </trkpt>
      <trkpt lat="43.334175" lon="-8.414860">
        <ele>109.5</ele>
        <time>2011-06-25T09:47:30Z</time>
      </trkpt>
      <trkpt lat="43.334167" lon="-8.414873">
        <ele>110.0</ele>
        <time>2011-06-25T09:47:31Z</time>
      </trkpt>
      <trkpt lat="43.334158" lon="-8.414888">
        <ele>110.5</ele>
        <time>2011-06-25T09:47:32Z</time>
      </trkpt>
      <trkpt lat="43.334150" lon="-8.414903">
        <ele>111.0</ele>
        <time>2011-06-25T09:47:33Z</time>
      </trkpt>
      <trkpt lat="43.334142" lon="-8.414917">
        <ele>112.0</ele>
        <time>2011-06-25T09:47:34Z</time>
      </trkpt>
      <trkpt lat="43.334132" lon="-8.414928">
        <ele>112.5</ele>
        <time>2011-06-25T09:47:35Z</time>
      </trkpt>
      <trkpt lat="43.334123" lon="-8.414940">
        <ele>113.0</ele>
        <time>2011-06-25T09:47:36Z</time>
      </trkpt>
      <trkpt lat="43.334115" lon="-8.414955">
        <ele>113.5</ele>
        <time>2011-06-25T09:47:37Z</time>
      </trkpt>
      <trkpt lat="43.334107" lon="-8.414968">
        <ele>114.0</ele>
        <time>2011-06-25T09:47:38Z</time>
      </trkpt>
      <trkpt lat="43.334102" lon="-8.414982">
        <ele>115.0</ele>
        <time>2011-06-25T09:47:39Z</time>
      </trkpt>
      <trkpt lat="43.334095" lon="-8.414997">
        <ele>115.5</ele>
        <time>2011-06-25T09:47:40Z</time>
      </trkpt>
      <trkpt lat="43.334088" lon="-8.415010">
        <ele>116.0</ele>
        <time>2011-06-25T09:47:41Z</time>
      </trkpt>
      <trkpt lat="43.334085" lon="-8.415023">
        <ele>117.0</ele>
        <time>2011-06-25T09:47:42Z</time>
      </trkpt>
      <trkpt lat="43.334083" lon="-8.415035">
        <ele>117.5</ele>
        <time>2011-06-25T09:47:43Z</time>
      </trkpt>
      <trkpt lat="43.334078" lon="-8.415050">
        <ele>118.5</ele>
        <time>2011-06-25T09:47:44Z</time>
      </trkpt>
      <trkpt lat="43.334075" lon="-8.415062">
        <ele>119.5</ele>
        <time>2011-06-25T09:47:45Z</time>
      </trkpt>
      <trkpt lat="43.334068" lon="-8.415075">
        <ele>120.0</ele>
        <time>2011-06-25T09:47:46Z</time>
      </trkpt>
      <trkpt lat="43.334065" lon="-8.415092">
        <ele>120.5</ele>
        <time>2011-06-25T09:47:47Z</time>
      </trkpt>
      <trkpt lat="43.334060" lon="-8.415112">
        <ele>121.5</ele>
        <time>2011-06-25T09:47:48Z</time>
      </trkpt>
      <trkpt lat="43.334050" lon="-8.415132">
        <ele>122.0</ele>
        <time>2011-06-25T09:47:49Z</time>
      </trkpt>
      <trkpt lat="43.334037" lon="-8.415147">
        <ele>121.5</ele>
        <time>2011-06-25T09:47:50Z</time>
      </trkpt>
      <trkpt lat="43.334020" lon="-8.415165">
        <ele>121.5</ele>
        <time>2011-06-25T09:47:51Z</time>
      </trkpt>
      <trkpt lat="43.334003" lon="-8.415182">
        <ele>121.0</ele>
        <time>2011-06-25T09:47:52Z</time>
      </trkpt>
      <trkpt lat="43.333987" lon="-8.415200">
        <ele>120.0</ele>
        <time>2011-06-25T09:47:53Z</time>
      </trkpt>
      <trkpt lat="43.333977" lon="-8.415217">
        <ele>120.0</ele>
        <time>2011-06-25T09:47:54Z</time>
      </trkpt>
      <trkpt lat="43.333963" lon="-8.415232">
        <ele>120.0</ele>
        <time>2011-06-25T09:47:55Z</time>
      </trkpt>
      <trkpt lat="43.333952" lon="-8.415247">
        <ele>119.5</ele>
        <time>2011-06-25T09:47:56Z</time>
      </trkpt>
      <trkpt lat="43.333938" lon="-8.415262">
        <ele>119.0</ele>
        <time>2011-06-25T09:47:57Z</time>
      </trkpt>
      <trkpt lat="43.333928" lon="-8.415277">
        <ele>119.0</ele>
        <time>2011-06-25T09:47:58Z</time>
      </trkpt>
      <trkpt lat="43.333918" lon="-8.415293">
        <ele>119.5</ele>
        <time>2011-06-25T09:47:59Z</time>
      </trkpt>
      <trkpt lat="43.333908" lon="-8.415312">
        <ele>119.5</ele>
        <time>2011-06-25T09:48:00Z</time>
      </trkpt>
      <trkpt lat="43.333898" lon="-8.415328">
        <ele>119.5</ele>
        <time>2011-06-25T09:48:01Z</time>
      </trkpt>
      <trkpt lat="43.333888" lon="-8.415347">
        <ele>119.5</ele>
        <time>2011-06-25T09:48:02Z</time>
      </trkpt>
      <trkpt lat="43.333878" lon="-8.415365">
        <ele>119.5</ele>
        <time>2011-06-25T09:48:03Z</time>
      </trkpt>
      <trkpt lat="43.333868" lon="-8.415380">
        <ele>119.5</ele>
        <time>2011-06-25T09:48:04Z</time>
      </trkpt>
      <trkpt lat="43.333857" lon="-8.415398">
        <ele>119.5</ele>
        <time>2011-06-25T09:48:05Z</time>
      </trkpt>
      <trkpt lat="43.333847" lon="-8.415417">
        <ele>119.5</ele>
        <time>2011-06-25T09:48:06Z</time>
      </trkpt>
      <trkpt lat="43.333837" lon="-8.415428">
        <ele>119.5</ele>
        <time>2011-06-25T09:48:07Z</time>
      </trkpt>
      <trkpt lat="43.333827" lon="-8.415437">
        <ele>119.5</ele>
        <time>2011-06-25T09:48:08Z</time>
      </trkpt>
      <trkpt lat="43.333810" lon="-8.415442">
        <ele>119.0</ele>
        <time>2011-06-25T09:48:09Z</time>
      </trkpt>
      <trkpt lat="43.333790" lon="-8.415437">
        <ele>118.5</ele>
        <time>2011-06-25T09:48:10Z</time>
      </trkpt>
      <trkpt lat="43.333768" lon="-8.415423">
        <ele>118.0</ele>
        <time>2011-06-25T09:48:11Z</time>
      </trkpt>
      <trkpt lat="43.333750" lon="-8.415410">
        <ele>118.0</ele>
        <time>2011-06-25T09:48:12Z</time>
      </trkpt>
      <trkpt lat="43.333730" lon="-8.415395">
        <ele>118.0</ele>
        <time>2011-06-25T09:48:13Z</time>
      </trkpt>
      <trkpt lat="43.333710" lon="-8.415380">
        <ele>117.5</ele>
        <time>2011-06-25T09:48:13Z</time>
      </trkpt>
      <trkpt lat="43.333690" lon="-8.415370">
        <ele>117.5</ele>
        <time>2011-06-25T09:48:15Z</time>
      </trkpt>
      <trkpt lat="43.333670" lon="-8.415355">
        <ele>117.0</ele>
        <time>2011-06-25T09:48:15Z</time>
      </trkpt>
      <trkpt lat="43.333652" lon="-8.415340">
        <ele>116.0</ele>
        <time>2011-06-25T09:48:17Z</time>
      </trkpt>
      <trkpt lat="43.333630" lon="-8.415325">
        <ele>115.0</ele>
        <time>2011-06-25T09:48:18Z</time>
      </trkpt>
      <trkpt lat="43.333610" lon="-8.415307">
        <ele>114.5</ele>
        <time>2011-06-25T09:48:19Z</time>
      </trkpt>
      <trkpt lat="43.333592" lon="-8.415288">
        <ele>114.0</ele>
        <time>2011-06-25T09:48:20Z</time>
      </trkpt>
      <trkpt lat="43.333570" lon="-8.415275">
        <ele>113.5</ele>
        <time>2011-06-25T09:48:21Z</time>
      </trkpt>
      <trkpt lat="43.333550" lon="-8.415260">
        <ele>113.0</ele>
        <time>2011-06-25T09:48:22Z</time>
      </trkpt>
      <trkpt lat="43.333532" lon="-8.415245">
        <ele>112.5</ele>
        <time>2011-06-25T09:48:23Z</time>
      </trkpt>
      <trkpt lat="43.333515" lon="-8.415228">
        <ele>112.0</ele>
        <time>2011-06-25T09:48:24Z</time>
      </trkpt>
      <trkpt lat="43.333502" lon="-8.415213">
        <ele>112.0</ele>
        <time>2011-06-25T09:48:25Z</time>
      </trkpt>
      <trkpt lat="43.333475" lon="-8.415182">
        <ele>111.0</ele>
        <time>2011-06-25T09:48:28Z</time>
      </trkpt>
      <trkpt lat="43.333460" lon="-8.415170">
        <ele>110.5</ele>
        <time>2011-06-25T09:48:29Z</time>
      </trkpt>
      <trkpt lat="43.333443" lon="-8.415163">
        <ele>110.0</ele>
        <time>2011-06-25T09:48:30Z</time>
      </trkpt>
      <trkpt lat="43.333427" lon="-8.415167">
        <ele>109.5</ele>
        <time>2011-06-25T09:48:31Z</time>
      </trkpt>
      <trkpt lat="43.333408" lon="-8.415178">
        <ele>109.0</ele>
        <time>2011-06-25T09:48:32Z</time>
      </trkpt>
      <trkpt lat="43.333393" lon="-8.415197">
        <ele>109.0</ele>
        <time>2011-06-25T09:48:33Z</time>
      </trkpt>
      <trkpt lat="43.333382" lon="-8.415205">
        <ele>109.0</ele>
        <time>2011-06-25T09:48:34Z</time>
      </trkpt>
      <trkpt lat="43.333367" lon="-8.415213">
        <ele>109.0</ele>
        <time>2011-06-25T09:48:35Z</time>
      </trkpt>
      <trkpt lat="43.333348" lon="-8.415215">
        <ele>108.5</ele>
        <time>2011-06-25T09:48:36Z</time>
      </trkpt>
      <trkpt lat="43.333332" lon="-8.415207">
        <ele>108.5</ele>
        <time>2011-06-25T09:48:37Z</time>
      </trkpt>
      <trkpt lat="43.333315" lon="-8.415195">
        <ele>109.0</ele>
        <time>2011-06-25T09:48:38Z</time>
      </trkpt>
      <trkpt lat="43.333302" lon="-8.415175">
        <ele>111.0</ele>
        <time>2011-06-25T09:48:39Z</time>
      </trkpt>
      <trkpt lat="43.333288" lon="-8.415160">
        <ele>111.0</ele>
        <time>2011-06-25T09:48:40Z</time>
      </trkpt>
      <trkpt lat="43.333272" lon="-8.415153">
        <ele>113.0</ele>
        <time>2011-06-25T09:48:41Z</time>
      </trkpt>
      <trkpt lat="43.333262" lon="-8.415148">
        <ele>116.0</ele>
        <time>2011-06-25T09:48:42Z</time>
      </trkpt>
      <trkpt lat="43.333245" lon="-8.415140">
        <ele>117.5</ele>
        <time>2011-06-25T09:48:43Z</time>
      </trkpt>
      <trkpt lat="43.333228" lon="-8.415133">
        <ele>119.0</ele>
        <time>2011-06-25T09:48:44Z</time>
      </trkpt>
      <trkpt lat="43.333210" lon="-8.415120">
        <ele>120.0</ele>
        <time>2011-06-25T09:48:45Z</time>
      </trkpt>
      <trkpt lat="43.333197" lon="-8.415108">
        <ele>121.5</ele>
        <time>2011-06-25T09:48:46Z</time>
      </trkpt>
      <trkpt lat="43.333182" lon="-8.415102">
        <ele>122.5</ele>
        <time>2011-06-25T09:48:47Z</time>
      </trkpt>
      <trkpt lat="43.333168" lon="-8.415095">
        <ele>123.5</ele>
        <time>2011-06-25T09:48:48Z</time>
      </trkpt>
      <trkpt lat="43.333147" lon="-8.415082">
        <ele>125.0</ele>
        <time>2011-06-25T09:48:49Z</time>
      </trkpt>
      <trkpt lat="43.333132" lon="-8.415085">
        <ele>124.5</ele>
        <time>2011-06-25T09:48:50Z</time>
      </trkpt>
      <trkpt lat="43.333118" lon="-8.415090">
        <ele>124.5</ele>
        <time>2011-06-25T09:48:51Z</time>
      </trkpt>
      <trkpt lat="43.333112" lon="-8.415097">
        <ele>126.0</ele>
        <time>2011-06-25T09:48:52Z</time>
      </trkpt>
      <trkpt lat="43.333103" lon="-8.415105">
        <ele>127.5</ele>
        <time>2011-06-25T09:48:53Z</time>
      </trkpt>
      <trkpt lat="43.333088" lon="-8.415120">
        <ele>128.0</ele>
        <time>2011-06-25T09:48:54Z</time>
      </trkpt>
      <trkpt lat="43.333080" lon="-8.415133">
        <ele>129.5</ele>
        <time>2011-06-25T09:48:55Z</time>
      </trkpt>
      <trkpt lat="43.333087" lon="-8.415150">
        <ele>131.0</ele>
        <time>2011-06-25T09:48:56Z</time>
      </trkpt>
      <trkpt lat="43.333090" lon="-8.415158">
        <ele>131.0</ele>
        <time>2011-06-25T09:48:57Z</time>
      </trkpt>
      <trkpt lat="43.333098" lon="-8.415173">
        <ele>131.0</ele>
        <time>2011-06-25T09:48:58Z</time>
      </trkpt>
      <trkpt lat="43.333107" lon="-8.415193">
        <ele>131.5</ele>
        <time>2011-06-25T09:48:59Z</time>
      </trkpt>
      <trkpt lat="43.333120" lon="-8.415207">
        <ele>131.5</ele>
        <time>2011-06-25T09:49:00Z</time>
      </trkpt>
      <trkpt lat="43.333147" lon="-8.415213">
        <ele>131.5</ele>
        <time>2011-06-25T09:49:01Z</time>
      </trkpt>
      <trkpt lat="43.333167" lon="-8.415222">
        <ele>132.0</ele>
        <time>2011-06-25T09:49:02Z</time>
      </trkpt>
      <trkpt lat="43.333203" lon="-8.415223">
        <ele>132.0</ele>
        <time>2011-06-25T09:49:03Z</time>
      </trkpt>
      <trkpt lat="43.333218" lon="-8.415250">
        <ele>133.5</ele>
        <time>2011-06-25T09:49:05Z</time>
      </trkpt>
      <trkpt lat="43.333230" lon="-8.415260">
        <ele>134.5</ele>
        <time>2011-06-25T09:49:06Z</time>
      </trkpt>
      <trkpt lat="43.333242" lon="-8.415273">
        <ele>135.0</ele>
        <time>2011-06-25T09:49:07Z</time>
      </trkpt>
      <trkpt lat="43.333250" lon="-8.415287">
        <ele>136.0</ele>
        <time>2011-06-25T09:49:08Z</time>
      </trkpt>
      <trkpt lat="43.333258" lon="-8.415303">
        <ele>138.0</ele>
        <time>2011-06-25T09:49:09Z</time>
      </trkpt>
      <trkpt lat="43.333263" lon="-8.415322">
        <ele>138.0</ele>
        <time>2011-06-25T09:49:10Z</time>
      </trkpt>
      <trkpt lat="43.333268" lon="-8.415338">
        <ele>138.0</ele>
        <time>2011-06-25T09:49:11Z</time>
      </trkpt>
      <trkpt lat="43.333272" lon="-8.415355">
        <ele>138.5</ele>
        <time>2011-06-25T09:49:12Z</time>
      </trkpt>
      <trkpt lat="43.333278" lon="-8.415367">
        <ele>140.0</ele>
        <time>2011-06-25T09:49:13Z</time>
      </trkpt>
      <trkpt lat="43.333275" lon="-8.415392">
        <ele>139.5</ele>
        <time>2011-06-25T09:49:14Z</time>
      </trkpt>
      <trkpt lat="43.333265" lon="-8.415413">
        <ele>139.5</ele>
        <time>2011-06-25T09:49:15Z</time>
      </trkpt>
      <trkpt lat="43.333253" lon="-8.415435">
        <ele>140.0</ele>
        <time>2011-06-25T09:49:16Z</time>
      </trkpt>
      <trkpt lat="43.333238" lon="-8.415460">
        <ele>140.0</ele>
        <time>2011-06-25T09:49:17Z</time>
      </trkpt>
      <trkpt lat="43.333225" lon="-8.415482">
        <ele>141.0</ele>
        <time>2011-06-25T09:49:18Z</time>
      </trkpt>
      <trkpt lat="43.333213" lon="-8.415500">
        <ele>141.0</ele>
        <time>2011-06-25T09:49:19Z</time>
      </trkpt>
      <trkpt lat="43.333198" lon="-8.415518">
        <ele>141.5</ele>
        <time>2011-06-25T09:49:20Z</time>
      </trkpt>
      <trkpt lat="43.333185" lon="-8.415528">
        <ele>141.5</ele>
        <time>2011-06-25T09:49:21Z</time>
      </trkpt>
      <trkpt lat="43.333170" lon="-8.415542">
        <ele>141.5</ele>
        <time>2011-06-25T09:49:22Z</time>
      </trkpt>
      <trkpt lat="43.333158" lon="-8.415545">
        <ele>141.5</ele>
        <time>2011-06-25T09:49:23Z</time>
      </trkpt>
      <trkpt lat="43.333150" lon="-8.415542">
        <ele>141.5</ele>
        <time>2011-06-25T09:49:24Z</time>
      </trkpt>
      <trkpt lat="43.333133" lon="-8.415543">
        <ele>141.0</ele>
        <time>2011-06-25T09:49:25Z</time>
      </trkpt>
      <trkpt lat="43.333123" lon="-8.415545">
        <ele>141.0</ele>
        <time>2011-06-25T09:49:26Z</time>
      </trkpt>
      <trkpt lat="43.333108" lon="-8.415542">
        <ele>141.0</ele>
        <time>2011-06-25T09:49:27Z</time>
      </trkpt>
      <trkpt lat="43.333102" lon="-8.415537">
        <ele>140.5</ele>
        <time>2011-06-25T09:49:28Z</time>
      </trkpt>
      <trkpt lat="43.333098" lon="-8.415523">
        <ele>140.0</ele>
        <time>2011-06-25T09:49:29Z</time>
      </trkpt>
      <trkpt lat="43.333083" lon="-8.415513">
        <ele>140.0</ele>
        <time>2011-06-25T09:49:30Z</time>
      </trkpt>
      <trkpt lat="43.333068" lon="-8.415505">
        <ele>140.5</ele>
        <time>2011-06-25T09:49:31Z</time>
      </trkpt>
      <trkpt lat="43.333055" lon="-8.415500">
        <ele>142.0</ele>
        <time>2011-06-25T09:49:32Z</time>
      </trkpt>
      <trkpt lat="43.333045" lon="-8.415497">
        <ele>144.0</ele>
        <time>2011-06-25T09:49:33Z</time>
      </trkpt>
      <trkpt lat="43.333027" lon="-8.415487">
        <ele>144.0</ele>
        <time>2011-06-25T09:49:34Z</time>
      </trkpt>
      <trkpt lat="43.333037" lon="-8.415485">
        <ele>143.0</ele>
        <time>2011-06-25T09:49:35Z</time>
      </trkpt>
      <trkpt lat="43.333035" lon="-8.415483">
        <ele>141.5</ele>
        <time>2011-06-25T09:49:36Z</time>
      </trkpt>
      <trkpt lat="43.333023" lon="-8.415480">
        <ele>142.5</ele>
        <time>2011-06-25T09:49:37Z</time>
      </trkpt>
      <trkpt lat="43.333018" lon="-8.415477">
        <ele>141.5</ele>
        <time>2011-06-25T09:49:38Z</time>
      </trkpt>
      <trkpt lat="43.333005" lon="-8.415473">
        <ele>142.5</ele>
        <time>2011-06-25T09:49:39Z</time>
      </trkpt>
      <trkpt lat="43.332993" lon="-8.415468">
        <ele>142.5</ele>
        <time>2011-06-25T09:49:40Z</time>
      </trkpt>
      <trkpt lat="43.332980" lon="-8.415462">
        <ele>142.5</ele>
        <time>2011-06-25T09:49:41Z</time>
      </trkpt>
      <trkpt lat="43.332957" lon="-8.415463">
        <ele>143.0</ele>
        <time>2011-06-25T09:49:42Z</time>
      </trkpt>
      <trkpt lat="43.332937" lon="-8.415472">
        <ele>142.5</ele>
        <time>2011-06-25T09:49:43Z</time>
      </trkpt>
      <trkpt lat="43.332920" lon="-8.415487">
        <ele>144.0</ele>
        <time>2011-06-25T09:49:44Z</time>
      </trkpt>
      <trkpt lat="43.332912" lon="-8.415510">
        <ele>146.0</ele>
        <time>2011-06-25T09:49:45Z</time>
      </trkpt>
      <trkpt lat="43.332902" lon="-8.415532">
        <ele>147.5</ele>
        <time>2011-06-25T09:49:46Z</time>
      </trkpt>
      <trkpt lat="43.332903" lon="-8.415558">
        <ele>149.0</ele>
        <time>2011-06-25T09:49:47Z</time>
      </trkpt>
      <trkpt lat="43.332910" lon="-8.415583">
        <ele>150.0</ele>
        <time>2011-06-25T09:49:48Z</time>
      </trkpt>
      <trkpt lat="43.332913" lon="-8.415610">
        <ele>151.0</ele>
        <time>2011-06-25T09:49:49Z</time>
      </trkpt>
      <trkpt lat="43.332910" lon="-8.415633">
        <ele>151.0</ele>
        <time>2011-06-25T09:49:50Z</time>
      </trkpt>
      <trkpt lat="43.332902" lon="-8.415647">
        <ele>151.5</ele>
        <time>2011-06-25T09:49:51Z</time>
      </trkpt>
      <trkpt lat="43.332888" lon="-8.415660">
        <ele>152.5</ele>
        <time>2011-06-25T09:49:52Z</time>
      </trkpt>
      <trkpt lat="43.332875" lon="-8.415673">
        <ele>153.0</ele>
        <time>2011-06-25T09:49:53Z</time>
      </trkpt>
      <trkpt lat="43.332867" lon="-8.415693">
        <ele>154.5</ele>
        <time>2011-06-25T09:49:54Z</time>
      </trkpt>
      <trkpt lat="43.332860" lon="-8.415712">
        <ele>156.0</ele>
        <time>2011-06-25T09:49:55Z</time>
      </trkpt>
      <trkpt lat="43.332863" lon="-8.415718">
        <ele>156.0</ele>
        <time>2011-06-25T09:49:56Z</time>
      </trkpt>
      <trkpt lat="43.332862" lon="-8.415728">
        <ele>155.5</ele>
        <time>2011-06-25T09:49:57Z</time>
      </trkpt>
      <trkpt lat="43.332850" lon="-8.415753">
        <ele>157.0</ele>
        <time>2011-06-25T09:49:58Z</time>
      </trkpt>
      <trkpt lat="43.332835" lon="-8.415783">
        <ele>157.5</ele>
        <time>2011-06-25T09:49:59Z</time>
      </trkpt>
      <trkpt lat="43.332813" lon="-8.415807">
        <ele>159.5</ele>
        <time>2011-06-25T09:50:00Z</time>
      </trkpt>
      <trkpt lat="43.332792" lon="-8.415830">
        <ele>161.0</ele>
        <time>2011-06-25T09:50:01Z</time>
      </trkpt>
      <trkpt lat="43.332775" lon="-8.415852">
        <ele>163.5</ele>
        <time>2011-06-25T09:50:02Z</time>
      </trkpt>
      <trkpt lat="43.332763" lon="-8.415875">
        <ele>166.0</ele>
        <time>2011-06-25T09:50:03Z</time>
      </trkpt>
      <trkpt lat="43.332752" lon="-8.415898">
        <ele>168.0</ele>
        <time>2011-06-25T09:50:04Z</time>
      </trkpt>
      <trkpt lat="43.332740" lon="-8.415913">
        <ele>167.5</ele>
        <time>2011-06-25T09:50:05Z</time>
      </trkpt>
      <trkpt lat="43.332725" lon="-8.415930">
        <ele>168.0</ele>
        <time>2011-06-25T09:50:06Z</time>
      </trkpt>
      <trkpt lat="43.332710" lon="-8.415945">
        <ele>168.0</ele>
        <time>2011-06-25T09:50:07Z</time>
      </trkpt>
      <trkpt lat="43.332690" lon="-8.415958">
        <ele>168.0</ele>
        <time>2011-06-25T09:50:08Z</time>
      </trkpt>
      <trkpt lat="43.332667" lon="-8.415980">
        <ele>166.5</ele>
        <time>2011-06-25T09:50:09Z</time>
      </trkpt>
      <trkpt lat="43.332645" lon="-8.415993">
        <ele>163.5</ele>
        <time>2011-06-25T09:50:10Z</time>
      </trkpt>
      <trkpt lat="43.332620" lon="-8.416000">
        <ele>160.0</ele>
        <time>2011-06-25T09:50:11Z</time>
      </trkpt>
      <trkpt lat="43.332597" lon="-8.416005">
        <ele>156.5</ele>
        <time>2011-06-25T09:50:12Z</time>
      </trkpt>
      <trkpt lat="43.332575" lon="-8.416002">
        <ele>151.5</ele>
        <time>2011-06-25T09:50:13Z</time>
      </trkpt>
      <trkpt lat="43.332557" lon="-8.416000">
        <ele>152.0</ele>
        <time>2011-06-25T09:50:14Z</time>
      </trkpt>
      <trkpt lat="43.332537" lon="-8.416000">
        <ele>152.5</ele>
        <time>2011-06-25T09:50:15Z</time>
      </trkpt>
      <trkpt lat="43.332512" lon="-8.416008">
        <ele>151.0</ele>
        <time>2011-06-25T09:50:16Z</time>
      </trkpt>
      <trkpt lat="43.332487" lon="-8.416018">
        <ele>149.5</ele>
        <time>2011-06-25T09:50:17Z</time>
      </trkpt>
      <trkpt lat="43.332463" lon="-8.416032">
        <ele>148.5</ele>
        <time>2011-06-25T09:50:18Z</time>
      </trkpt>
      <trkpt lat="43.332435" lon="-8.416048">
        <ele>147.0</ele>
        <time>2011-06-25T09:50:19Z</time>
      </trkpt>
      <trkpt lat="43.332412" lon="-8.416062">
        <ele>146.5</ele>
        <time>2011-06-25T09:50:20Z</time>
      </trkpt>
      <trkpt lat="43.332390" lon="-8.416070">
        <ele>145.5</ele>
        <time>2011-06-25T09:50:21Z</time>
      </trkpt>
      <trkpt lat="43.332363" lon="-8.416083">
        <ele>145.5</ele>
        <time>2011-06-25T09:50:22Z</time>
      </trkpt>
      <trkpt lat="43.332340" lon="-8.416085">
        <ele>145.0</ele>
        <time>2011-06-25T09:50:23Z</time>
      </trkpt>
      <trkpt lat="43.332320" lon="-8.416087">
        <ele>144.5</ele>
        <time>2011-06-25T09:50:24Z</time>
      </trkpt>
      <trkpt lat="43.332300" lon="-8.416082">
        <ele>144.0</ele>
        <time>2011-06-25T09:50:25Z</time>
      </trkpt>
      <trkpt lat="43.332280" lon="-8.416078">
        <ele>145.0</ele>
        <time>2011-06-25T09:50:26Z</time>
      </trkpt>
      <trkpt lat="43.332257" lon="-8.416072">
        <ele>145.5</ele>
        <time>2011-06-25T09:50:27Z</time>
      </trkpt>
      <trkpt lat="43.332233" lon="-8.416055">
        <ele>145.5</ele>
        <time>2011-06-25T09:50:28Z</time>
      </trkpt>
      <trkpt lat="43.332208" lon="-8.416035">
        <ele>145.0</ele>
        <time>2011-06-25T09:50:29Z</time>
      </trkpt>
      <trkpt lat="43.332183" lon="-8.416013">
        <ele>144.0</ele>
        <time>2011-06-25T09:50:30Z</time>
      </trkpt>
      <trkpt lat="43.332158" lon="-8.415990">
        <ele>143.5</ele>
        <time>2011-06-25T09:50:31Z</time>
      </trkpt>
      <trkpt lat="43.332133" lon="-8.415963">
        <ele>142.0</ele>
        <time>2011-06-25T09:50:32Z</time>
      </trkpt>
      <trkpt lat="43.332108" lon="-8.415940">
        <ele>142.0</ele>
        <time>2011-06-25T09:50:33Z</time>
      </trkpt>
      <trkpt lat="43.332088" lon="-8.415918">
        <ele>141.5</ele>
        <time>2011-06-25T09:50:34Z</time>
      </trkpt>
      <trkpt lat="43.332067" lon="-8.415893">
        <ele>142.0</ele>
        <time>2011-06-25T09:50:35Z</time>
      </trkpt>
      <trkpt lat="43.332017" lon="-8.415847">
        <ele>142.5</ele>
        <time>2011-06-25T09:50:37Z</time>
      </trkpt>
      <trkpt lat="43.331990" lon="-8.415832">
        <ele>144.0</ele>
        <time>2011-06-25T09:50:38Z</time>
      </trkpt>
      <trkpt lat="43.331963" lon="-8.415812">
        <ele>143.5</ele>
        <time>2011-06-25T09:50:39Z</time>
      </trkpt>
      <trkpt lat="43.331932" lon="-8.415793">
        <ele>143.5</ele>
        <time>2011-06-25T09:50:40Z</time>
      </trkpt>
      <trkpt lat="43.331898" lon="-8.415773">
        <ele>144.0</ele>
        <time>2011-06-25T09:50:41Z</time>
      </trkpt>
      <trkpt lat="43.331865" lon="-8.415743">
        <ele>143.5</ele>
        <time>2011-06-25T09:50:42Z</time>
      </trkpt>
      <trkpt lat="43.331832" lon="-8.415708">
        <ele>142.5</ele>
        <time>2011-06-25T09:50:43Z</time>
      </trkpt>
      <trkpt lat="43.331798" lon="-8.415672">
        <ele>142.0</ele>
        <time>2011-06-25T09:50:44Z</time>
      </trkpt>
      <trkpt lat="43.331762" lon="-8.415635">
        <ele>142.5</ele>
        <time>2011-06-25T09:50:45Z</time>
      </trkpt>
      <trkpt lat="43.331727" lon="-8.415597">
        <ele>142.5</ele>
        <time>2011-06-25T09:50:46Z</time>
      </trkpt>
      <trkpt lat="43.331693" lon="-8.415555">
        <ele>142.0</ele>
        <time>2011-06-25T09:50:47Z</time>
      </trkpt>
      <trkpt lat="43.331655" lon="-8.415518">
        <ele>143.5</ele>
        <time>2011-06-25T09:50:48Z</time>
      </trkpt>
      <trkpt lat="43.331620" lon="-8.415482">
        <ele>144.0</ele>
        <time>2011-06-25T09:50:49Z</time>
      </trkpt>
      <trkpt lat="43.331588" lon="-8.415442">
        <ele>143.5</ele>
        <time>2011-06-25T09:50:50Z</time>
      </trkpt>
      <trkpt lat="43.331555" lon="-8.415398">
        <ele>143.0</ele>
        <time>2011-06-25T09:50:51Z</time>
      </trkpt>
      <trkpt lat="43.331522" lon="-8.415357">
        <ele>142.5</ele>
        <time>2011-06-25T09:50:52Z</time>
      </trkpt>
      <trkpt lat="43.331492" lon="-8.415317">
        <ele>142.5</ele>
        <time>2011-06-25T09:50:53Z</time>
      </trkpt>
      <trkpt lat="43.331462" lon="-8.415277">
        <ele>142.5</ele>
        <time>2011-06-25T09:50:54Z</time>
      </trkpt>
      <trkpt lat="43.331433" lon="-8.415235">
        <ele>142.0</ele>
        <time>2011-06-25T09:50:55Z</time>
      </trkpt>
      <trkpt lat="43.331405" lon="-8.415198">
        <ele>142.0</ele>
        <time>2011-06-25T09:50:56Z</time>
      </trkpt>
      <trkpt lat="43.331375" lon="-8.415163">
        <ele>142.0</ele>
        <time>2011-06-25T09:50:57Z</time>
      </trkpt>
      <trkpt lat="43.331342" lon="-8.415130">
        <ele>142.5</ele>
        <time>2011-06-25T09:50:58Z</time>
      </trkpt>
      <trkpt lat="43.331310" lon="-8.415097">
        <ele>142.0</ele>
        <time>2011-06-25T09:50:59Z</time>
      </trkpt>
      <trkpt lat="43.331280" lon="-8.415065">
        <ele>142.0</ele>
        <time>2011-06-25T09:51:00Z</time>
      </trkpt>
      <trkpt lat="43.331252" lon="-8.415033">
        <ele>142.0</ele>
        <time>2011-06-25T09:51:01Z</time>
      </trkpt>
      <trkpt lat="43.331228" lon="-8.415000">
        <ele>142.0</ele>
        <time>2011-06-25T09:51:02Z</time>
      </trkpt>
      <trkpt lat="43.331205" lon="-8.414967">
        <ele>142.0</ele>
        <time>2011-06-25T09:51:03Z</time>
      </trkpt>
      <trkpt lat="43.331180" lon="-8.414930">
        <ele>142.0</ele>
        <time>2011-06-25T09:51:04Z</time>
      </trkpt>
      <trkpt lat="43.331157" lon="-8.414890">
        <ele>141.5</ele>
        <time>2011-06-25T09:51:05Z</time>
      </trkpt>
      <trkpt lat="43.331135" lon="-8.414852">
        <ele>141.5</ele>
        <time>2011-06-25T09:51:06Z</time>
      </trkpt>
      <trkpt lat="43.331115" lon="-8.414817">
        <ele>141.5</ele>
        <time>2011-06-25T09:51:07Z</time>
      </trkpt>
      <trkpt lat="43.331093" lon="-8.414798">
        <ele>143.0</ele>
        <time>2011-06-25T09:51:08Z</time>
      </trkpt>
      <trkpt lat="43.331063" lon="-8.414765">
        <ele>143.5</ele>
        <time>2011-06-25T09:51:09Z</time>
      </trkpt>
      <trkpt lat="43.331033" lon="-8.414745">
        <ele>143.5</ele>
        <time>2011-06-25T09:51:10Z</time>
      </trkpt>
      <trkpt lat="43.331000" lon="-8.414732">
        <ele>143.5</ele>
        <time>2011-06-25T09:51:11Z</time>
      </trkpt>
      <trkpt lat="43.330967" lon="-8.414725">
        <ele>144.0</ele>
        <time>2011-06-25T09:51:12Z</time>
      </trkpt>
      <trkpt lat="43.330935" lon="-8.414717">
        <ele>144.0</ele>
        <time>2011-06-25T09:51:13Z</time>
      </trkpt>
      <trkpt lat="43.330903" lon="-8.414705">
        <ele>144.0</ele>
        <time>2011-06-25T09:51:14Z</time>
      </trkpt>
      <trkpt lat="43.330872" lon="-8.414690">
        <ele>144.0</ele>
        <time>2011-06-25T09:51:15Z</time>
      </trkpt>
      <trkpt lat="43.330840" lon="-8.414677">
        <ele>144.5</ele>
        <time>2011-06-25T09:51:16Z</time>
      </trkpt>
      <trkpt lat="43.330827" lon="-8.414672">
        <ele>143.5</ele>
        <time>2011-06-25T09:51:17Z</time>
      </trkpt>
      <trkpt lat="43.330812" lon="-8.414678">
        <ele>145.0</ele>
        <time>2011-06-25T09:51:18Z</time>
      </trkpt>
      <trkpt lat="43.330797" lon="-8.414688">
        <ele>144.0</ele>
        <time>2011-06-25T09:51:19Z</time>
      </trkpt>
      <trkpt lat="43.330782" lon="-8.414702">
        <ele>143.5</ele>
        <time>2011-06-25T09:51:20Z</time>
      </trkpt>
      <trkpt lat="43.330755" lon="-8.414717">
        <ele>143.0</ele>
        <time>2011-06-25T09:51:21Z</time>
      </trkpt>
      <trkpt lat="43.330748" lon="-8.414733">
        <ele>142.5</ele>
        <time>2011-06-25T09:51:22Z</time>
      </trkpt>
      <trkpt lat="43.330725" lon="-8.414753">
        <ele>142.0</ele>
        <time>2011-06-25T09:51:23Z</time>
      </trkpt>
      <trkpt lat="43.330705" lon="-8.414775">
        <ele>142.0</ele>
        <time>2011-06-25T09:51:24Z</time>
      </trkpt>
      <trkpt lat="43.330683" lon="-8.414797">
        <ele>141.5</ele>
        <time>2011-06-25T09:51:25Z</time>
      </trkpt>
      <trkpt lat="43.330662" lon="-8.414817">
        <ele>141.5</ele>
        <time>2011-06-25T09:51:26Z</time>
      </trkpt>
      <trkpt lat="43.330637" lon="-8.414837">
        <ele>141.5</ele>
        <time>2011-06-25T09:51:27Z</time>
      </trkpt>
      <trkpt lat="43.330612" lon="-8.414855">
        <ele>141.5</ele>
        <time>2011-06-25T09:51:28Z</time>
      </trkpt>
      <trkpt lat="43.330585" lon="-8.414867">
        <ele>141.5</ele>
        <time>2011-06-25T09:51:29Z</time>
      </trkpt>
      <trkpt lat="43.330560" lon="-8.414877">
        <ele>141.5</ele>
        <time>2011-06-25T09:51:30Z</time>
      </trkpt>
      <trkpt lat="43.330533" lon="-8.414882">
        <ele>141.0</ele>
        <time>2011-06-25T09:51:31Z</time>
      </trkpt>
      <trkpt lat="43.330507" lon="-8.414880">
        <ele>141.5</ele>
        <time>2011-06-25T09:51:32Z</time>
      </trkpt>
      <trkpt lat="43.330480" lon="-8.414875">
        <ele>141.5</ele>
        <time>2011-06-25T09:51:33Z</time>
      </trkpt>
      <trkpt lat="43.330457" lon="-8.414868">
        <ele>142.0</ele>
        <time>2011-06-25T09:51:34Z</time>
      </trkpt>
      <trkpt lat="43.330430" lon="-8.414857">
        <ele>141.5</ele>
        <time>2011-06-25T09:51:35Z</time>
      </trkpt>
      <trkpt lat="43.330402" lon="-8.414842">
        <ele>142.0</ele>
        <time>2011-06-25T09:51:36Z</time>
      </trkpt>
      <trkpt lat="43.330390" lon="-8.414828">
        <ele>143.5</ele>
        <time>2011-06-25T09:51:37Z</time>
      </trkpt>
      <trkpt lat="43.330368" lon="-8.414810">
        <ele>143.5</ele>
        <time>2011-06-25T09:51:38Z</time>
      </trkpt>
      <trkpt lat="43.330343" lon="-8.414792">
        <ele>143.5</ele>
        <time>2011-06-25T09:51:39Z</time>
      </trkpt>
      <trkpt lat="43.330315" lon="-8.414773">
        <ele>144.0</ele>
        <time>2011-06-25T09:51:40Z</time>
      </trkpt>
      <trkpt lat="43.330287" lon="-8.414757">
        <ele>144.5</ele>
        <time>2011-06-25T09:51:41Z</time>
      </trkpt>
      <trkpt lat="43.330257" lon="-8.414742">
        <ele>144.5</ele>
        <time>2011-06-25T09:51:42Z</time>
      </trkpt>
      <trkpt lat="43.330228" lon="-8.414728">
        <ele>143.5</ele>
        <time>2011-06-25T09:51:43Z</time>
      </trkpt>
      <trkpt lat="43.330203" lon="-8.414717">
        <ele>143.5</ele>
        <time>2011-06-25T09:51:44Z</time>
      </trkpt>
      <trkpt lat="43.330178" lon="-8.414707">
        <ele>143.5</ele>
        <time>2011-06-25T09:51:45Z</time>
      </trkpt>
      <trkpt lat="43.330153" lon="-8.414695">
        <ele>144.0</ele>
        <time>2011-06-25T09:51:46Z</time>
      </trkpt>
      <trkpt lat="43.330125" lon="-8.414680">
        <ele>144.0</ele>
        <time>2011-06-25T09:51:47Z</time>
      </trkpt>
      <trkpt lat="43.330095" lon="-8.414658">
        <ele>143.5</ele>
        <time>2011-06-25T09:51:48Z</time>
      </trkpt>
    </trkseg>
  </trk>
  <trk>
    <name>T2067676-5</name>
    <cmt>saida con compañeiros do C.C.Arteixo polos arredores da Coruña</cmt>
    <desc>saida con compañeiros do C.C.Arteixo polos arredores da Coruña</desc>
    <trkseg>
      <trkpt lat="43.330063" lon="-8.414633">
        <ele>143.5</ele>
        <time>2011-06-25T09:51:49Z</time>
      </trkpt>
      <trkpt lat="43.330030" lon="-8.414608">
        <ele>143.5</ele>
        <time>2011-06-25T09:51:50Z</time>
      </trkpt>
      <trkpt lat="43.329993" lon="-8.414585">
        <ele>144.0</ele>
        <time>2011-06-25T09:51:51Z</time>
      </trkpt>
      <trkpt lat="43.329958" lon="-8.414558">
        <ele>144.5</ele>
        <time>2011-06-25T09:51:52Z</time>
      </trkpt>
      <trkpt lat="43.329935" lon="-8.414538">
        <ele>145.0</ele>
        <time>2011-06-25T09:51:53Z</time>
      </trkpt>
      <trkpt lat="43.329912" lon="-8.414518">
        <ele>144.5</ele>
        <time>2011-06-25T09:51:54Z</time>
      </trkpt>
      <trkpt lat="43.329880" lon="-8.414510">
        <ele>146.0</ele>
        <time>2011-06-25T09:51:55Z</time>
      </trkpt>
      <trkpt lat="43.329847" lon="-8.414498">
        <ele>146.0</ele>
        <time>2011-06-25T09:51:56Z</time>
      </trkpt>
      <trkpt lat="43.329817" lon="-8.414493">
        <ele>146.0</ele>
        <time>2011-06-25T09:51:57Z</time>
      </trkpt>
      <trkpt lat="43.329787" lon="-8.414488">
        <ele>146.0</ele>
        <time>2011-06-25T09:51:58Z</time>
      </trkpt>
      <trkpt lat="43.329762" lon="-8.414488">
        <ele>145.5</ele>
        <time>2011-06-25T09:51:59Z</time>
      </trkpt>
      <trkpt lat="43.329735" lon="-8.414493">
        <ele>145.5</ele>
        <time>2011-06-25T09:52:00Z</time>
      </trkpt>
      <trkpt lat="43.329707" lon="-8.414497">
        <ele>145.5</ele>
        <time>2011-06-25T09:52:01Z</time>
      </trkpt>
      <trkpt lat="43.329683" lon="-8.414500">
        <ele>145.5</ele>
        <time>2011-06-25T09:52:02Z</time>
      </trkpt>
      <trkpt lat="43.329657" lon="-8.414498">
        <ele>145.5</ele>
        <time>2011-06-25T09:52:03Z</time>
      </trkpt>
      <trkpt lat="43.329627" lon="-8.414490">
        <ele>146.0</ele>
        <time>2011-06-25T09:52:04Z</time>
      </trkpt>
      <trkpt lat="43.329600" lon="-8.414480">
        <ele>146.5</ele>
        <time>2011-06-25T09:52:05Z</time>
      </trkpt>
      <trkpt lat="43.329572" lon="-8.414467">
        <ele>146.5</ele>
        <time>2011-06-25T09:52:06Z</time>
      </trkpt>
      <trkpt lat="43.329543" lon="-8.414455">
        <ele>147.5</ele>
        <time>2011-06-25T09:52:07Z</time>
      </trkpt>
      <trkpt lat="43.329515" lon="-8.414447">
        <ele>148.0</ele>
        <time>2011-06-25T09:52:08Z</time>
      </trkpt>
      <trkpt lat="43.329488" lon="-8.414438">
        <ele>148.5</ele>
        <time>2011-06-25T09:52:09Z</time>
      </trkpt>
      <trkpt lat="43.329462" lon="-8.414428">
        <ele>148.5</ele>
        <time>2011-06-25T09:52:10Z</time>
      </trkpt>
      <trkpt lat="43.329432" lon="-8.414418">
        <ele>148.5</ele>
        <time>2011-06-25T09:52:11Z</time>
      </trkpt>
      <trkpt lat="43.329403" lon="-8.414408">
        <ele>148.5</ele>
        <time>2011-06-25T09:52:12Z</time>
      </trkpt>
      <trkpt lat="43.329375" lon="-8.414410">
        <ele>149.5</ele>
        <time>2011-06-25T09:52:13Z</time>
      </trkpt>
      <trkpt lat="43.329352" lon="-8.414422">
        <ele>149.0</ele>
        <time>2011-06-25T09:52:14Z</time>
      </trkpt>
      <trkpt lat="43.329332" lon="-8.414437">
        <ele>149.0</ele>
        <time>2011-06-25T09:52:15Z</time>
      </trkpt>
      <trkpt lat="43.329307" lon="-8.414447">
        <ele>149.5</ele>
        <time>2011-06-25T09:52:16Z</time>
      </trkpt>
      <trkpt lat="43.329278" lon="-8.414458">
        <ele>151.0</ele>
        <time>2011-06-25T09:52:17Z</time>
      </trkpt>
      <trkpt lat="43.329250" lon="-8.414462">
        <ele>152.0</ele>
        <time>2011-06-25T09:52:18Z</time>
      </trkpt>
      <trkpt lat="43.329218" lon="-8.414457">
        <ele>152.0</ele>
        <time>2011-06-25T09:52:19Z</time>
      </trkpt>
      <trkpt lat="43.329188" lon="-8.414453">
        <ele>151.5</ele>
        <time>2011-06-25T09:52:20Z</time>
      </trkpt>
      <trkpt lat="43.329157" lon="-8.414450">
        <ele>152.5</ele>
        <time>2011-06-25T09:52:21Z</time>
      </trkpt>
      <trkpt lat="43.329123" lon="-8.414448">
        <ele>153.0</ele>
        <time>2011-06-25T09:52:22Z</time>
      </trkpt>
      <trkpt lat="43.329095" lon="-8.414443">
        <ele>153.0</ele>
        <time>2011-06-25T09:52:23Z</time>
      </trkpt>
      <trkpt lat="43.329070" lon="-8.414443">
        <ele>153.5</ele>
        <time>2011-06-25T09:52:24Z</time>
      </trkpt>
      <trkpt lat="43.329038" lon="-8.414437">
        <ele>154.0</ele>
        <time>2011-06-25T09:52:25Z</time>
      </trkpt>
      <trkpt lat="43.329007" lon="-8.414430">
        <ele>156.0</ele>
        <time>2011-06-25T09:52:26Z</time>
      </trkpt>
      <trkpt lat="43.328975" lon="-8.414425">
        <ele>157.0</ele>
        <time>2011-06-25T09:52:27Z</time>
      </trkpt>
      <trkpt lat="43.328943" lon="-8.414413">
        <ele>156.5</ele>
        <time>2011-06-25T09:52:28Z</time>
      </trkpt>
      <trkpt lat="43.328912" lon="-8.414403">
        <ele>156.0</ele>
        <time>2011-06-25T09:52:29Z</time>
      </trkpt>
      <trkpt lat="43.328880" lon="-8.414395">
        <ele>155.5</ele>
        <time>2011-06-25T09:52:30Z</time>
      </trkpt>
      <trkpt lat="43.328845" lon="-8.414385">
        <ele>155.5</ele>
        <time>2011-06-25T09:52:31Z</time>
      </trkpt>
      <trkpt lat="43.328812" lon="-8.414382">
        <ele>155.0</ele>
        <time>2011-06-25T09:52:32Z</time>
      </trkpt>
      <trkpt lat="43.328778" lon="-8.414375">
        <ele>154.5</ele>
        <time>2011-06-25T09:52:33Z</time>
      </trkpt>
      <trkpt lat="43.328742" lon="-8.414357">
        <ele>154.5</ele>
        <time>2011-06-25T09:52:34Z</time>
      </trkpt>
      <trkpt lat="43.328708" lon="-8.414343">
        <ele>154.0</ele>
        <time>2011-06-25T09:52:35Z</time>
      </trkpt>
      <trkpt lat="43.328675" lon="-8.414328">
        <ele>154.0</ele>
        <time>2011-06-25T09:52:36Z</time>
      </trkpt>
      <trkpt lat="43.328642" lon="-8.414312">
        <ele>154.0</ele>
        <time>2011-06-25T09:52:37Z</time>
      </trkpt>
      <trkpt lat="43.328607" lon="-8.414288">
        <ele>154.0</ele>
        <time>2011-06-25T09:52:38Z</time>
      </trkpt>
      <trkpt lat="43.328573" lon="-8.414265">
        <ele>154.0</ele>
        <time>2011-06-25T09:52:39Z</time>
      </trkpt>
      <trkpt lat="43.328542" lon="-8.414240">
        <ele>153.5</ele>
        <time>2011-06-25T09:52:40Z</time>
      </trkpt>
      <trkpt lat="43.328510" lon="-8.414218">
        <ele>154.0</ele>
        <time>2011-06-25T09:52:41Z</time>
      </trkpt>
      <trkpt lat="43.328477" lon="-8.414200">
        <ele>154.0</ele>
        <time>2011-06-25T09:52:42Z</time>
      </trkpt>
      <trkpt lat="43.328447" lon="-8.414180">
        <ele>154.0</ele>
        <time>2011-06-25T09:52:43Z</time>
      </trkpt>
      <trkpt lat="43.328418" lon="-8.414163">
        <ele>154.0</ele>
        <time>2011-06-25T09:52:44Z</time>
      </trkpt>
      <trkpt lat="43.328393" lon="-8.414152">
        <ele>154.0</ele>
        <time>2011-06-25T09:52:45Z</time>
      </trkpt>
      <trkpt lat="43.328367" lon="-8.414138">
        <ele>153.5</ele>
        <time>2011-06-25T09:52:46Z</time>
      </trkpt>
      <trkpt lat="43.328337" lon="-8.414123">
        <ele>153.0</ele>
        <time>2011-06-25T09:52:47Z</time>
      </trkpt>
      <trkpt lat="43.328310" lon="-8.414115">
        <ele>153.0</ele>
        <time>2011-06-25T09:52:48Z</time>
      </trkpt>
      <trkpt lat="43.328282" lon="-8.414107">
        <ele>153.0</ele>
        <time>2011-06-25T09:52:49Z</time>
      </trkpt>
      <trkpt lat="43.328255" lon="-8.414107">
        <ele>152.5</ele>
        <time>2011-06-25T09:52:50Z</time>
      </trkpt>
      <trkpt lat="43.328230" lon="-8.414110">
        <ele>152.5</ele>
        <time>2011-06-25T09:52:51Z</time>
      </trkpt>
      <trkpt lat="43.328200" lon="-8.414117">
        <ele>152.5</ele>
        <time>2011-06-25T09:52:52Z</time>
      </trkpt>
      <trkpt lat="43.328168" lon="-8.414127">
        <ele>152.5</ele>
        <time>2011-06-25T09:52:53Z</time>
      </trkpt>
      <trkpt lat="43.328138" lon="-8.414140">
        <ele>152.5</ele>
        <time>2011-06-25T09:52:54Z</time>
      </trkpt>
      <trkpt lat="43.328117" lon="-8.414162">
        <ele>153.0</ele>
        <time>2011-06-25T09:52:55Z</time>
      </trkpt>
      <trkpt lat="43.328107" lon="-8.414183">
        <ele>153.5</ele>
        <time>2011-06-25T09:52:56Z</time>
      </trkpt>
      <trkpt lat="43.328098" lon="-8.414210">
        <ele>154.0</ele>
        <time>2011-06-25T09:52:57Z</time>
      </trkpt>
      <trkpt lat="43.328087" lon="-8.414233">
        <ele>154.0</ele>
        <time>2011-06-25T09:52:58Z</time>
      </trkpt>
      <trkpt lat="43.328075" lon="-8.414253">
        <ele>153.5</ele>
        <time>2011-06-25T09:52:59Z</time>
      </trkpt>
      <trkpt lat="43.328063" lon="-8.414275">
        <ele>153.0</ele>
        <time>2011-06-25T09:53:00Z</time>
      </trkpt>
      <trkpt lat="43.328050" lon="-8.414297">
        <ele>153.0</ele>
        <time>2011-06-25T09:53:01Z</time>
      </trkpt>
      <trkpt lat="43.328037" lon="-8.414318">
        <ele>153.0</ele>
        <time>2011-06-25T09:53:02Z</time>
      </trkpt>
      <trkpt lat="43.328025" lon="-8.414338">
        <ele>153.5</ele>
        <time>2011-06-25T09:53:03Z</time>
      </trkpt>
      <trkpt lat="43.328017" lon="-8.414357">
        <ele>153.0</ele>
        <time>2011-06-25T09:53:04Z</time>
      </trkpt>
      <trkpt lat="43.328005" lon="-8.414375">
        <ele>153.0</ele>
        <time>2011-06-25T09:53:05Z</time>
      </trkpt>
      <trkpt lat="43.327995" lon="-8.414392">
        <ele>152.5</ele>
        <time>2011-06-25T09:53:06Z</time>
      </trkpt>
      <trkpt lat="43.327987" lon="-8.414410">
        <ele>152.0</ele>
        <time>2011-06-25T09:53:07Z</time>
      </trkpt>
      <trkpt lat="43.327978" lon="-8.414427">
        <ele>152.0</ele>
        <time>2011-06-25T09:53:08Z</time>
      </trkpt>
      <trkpt lat="43.327972" lon="-8.414443">
        <ele>151.5</ele>
        <time>2011-06-25T09:53:09Z</time>
      </trkpt>
      <trkpt lat="43.327970" lon="-8.414467">
        <ele>151.5</ele>
        <time>2011-06-25T09:53:10Z</time>
      </trkpt>
      <trkpt lat="43.327972" lon="-8.414485">
        <ele>151.5</ele>
        <time>2011-06-25T09:53:11Z</time>
      </trkpt>
      <trkpt lat="43.327972" lon="-8.414507">
        <ele>151.5</ele>
        <time>2011-06-25T09:53:12Z</time>
      </trkpt>
      <trkpt lat="43.327972" lon="-8.414523">
        <ele>151.5</ele>
        <time>2011-06-25T09:53:13Z</time>
      </trkpt>
      <trkpt lat="43.327968" lon="-8.414548">
        <ele>152.0</ele>
        <time>2011-06-25T09:53:14Z</time>
      </trkpt>
      <trkpt lat="43.327960" lon="-8.414575">
        <ele>152.0</ele>
        <time>2011-06-25T09:53:15Z</time>
      </trkpt>
      <trkpt lat="43.327952" lon="-8.414598">
        <ele>152.0</ele>
        <time>2011-06-25T09:53:16Z</time>
      </trkpt>
      <trkpt lat="43.327943" lon="-8.414613">
        <ele>152.5</ele>
        <time>2011-06-25T09:53:17Z</time>
      </trkpt>
      <trkpt lat="43.327927" lon="-8.414625">
        <ele>152.5</ele>
        <time>2011-06-25T09:53:18Z</time>
      </trkpt>
      <trkpt lat="43.327920" lon="-8.414645">
        <ele>152.5</ele>
        <time>2011-06-25T09:53:19Z</time>
      </trkpt>
      <trkpt lat="43.327907" lon="-8.414658">
        <ele>152.5</ele>
        <time>2011-06-25T09:53:20Z</time>
      </trkpt>
      <trkpt lat="43.327890" lon="-8.414672">
        <ele>152.5</ele>
        <time>2011-06-25T09:53:21Z</time>
      </trkpt>
      <trkpt lat="43.327877" lon="-8.414683">
        <ele>153.0</ele>
        <time>2011-06-25T09:53:22Z</time>
      </trkpt>
      <trkpt lat="43.327862" lon="-8.414693">
        <ele>153.0</ele>
        <time>2011-06-25T09:53:23Z</time>
      </trkpt>
      <trkpt lat="43.327842" lon="-8.414708">
        <ele>152.5</ele>
        <time>2011-06-25T09:53:24Z</time>
      </trkpt>
      <trkpt lat="43.327828" lon="-8.414727">
        <ele>152.5</ele>
        <time>2011-06-25T09:53:25Z</time>
      </trkpt>
      <trkpt lat="43.327813" lon="-8.414745">
        <ele>152.5</ele>
        <time>2011-06-25T09:53:26Z</time>
      </trkpt>
      <trkpt lat="43.327818" lon="-8.414767">
        <ele>152.5</ele>
        <time>2011-06-25T09:53:27Z</time>
      </trkpt>
      <trkpt lat="43.327812" lon="-8.414783">
        <ele>152.5</ele>
        <time>2011-06-25T09:53:28Z</time>
      </trkpt>
      <trkpt lat="43.327797" lon="-8.414795">
        <ele>153.0</ele>
        <time>2011-06-25T09:53:29Z</time>
      </trkpt>
      <trkpt lat="43.327783" lon="-8.414805">
        <ele>152.5</ele>
        <time>2011-06-25T09:53:30Z</time>
      </trkpt>
      <trkpt lat="43.327770" lon="-8.414820">
        <ele>152.5</ele>
        <time>2011-06-25T09:53:31Z</time>
      </trkpt>
      <trkpt lat="43.327745" lon="-8.414838">
        <ele>152.5</ele>
        <time>2011-06-25T09:53:32Z</time>
      </trkpt>
      <trkpt lat="43.327732" lon="-8.414857">
        <ele>152.5</ele>
        <time>2011-06-25T09:53:33Z</time>
      </trkpt>
      <trkpt lat="43.327718" lon="-8.414875">
        <ele>152.5</ele>
        <time>2011-06-25T09:53:34Z</time>
      </trkpt>
      <trkpt lat="43.327703" lon="-8.414895">
        <ele>153.0</ele>
        <time>2011-06-25T09:53:35Z</time>
      </trkpt>
      <trkpt lat="43.327687" lon="-8.414920">
        <ele>152.5</ele>
        <time>2011-06-25T09:53:36Z</time>
      </trkpt>
      <trkpt lat="43.327667" lon="-8.414945">
        <ele>152.0</ele>
        <time>2011-06-25T09:53:37Z</time>
      </trkpt>
      <trkpt lat="43.327648" lon="-8.414973">
        <ele>152.0</ele>
        <time>2011-06-25T09:53:38Z</time>
      </trkpt>
      <trkpt lat="43.327632" lon="-8.415000">
        <ele>152.0</ele>
        <time>2011-06-25T09:53:39Z</time>
      </trkpt>
      <trkpt lat="43.327617" lon="-8.415025">
        <ele>152.0</ele>
        <time>2011-06-25T09:53:40Z</time>
      </trkpt>
      <trkpt lat="43.327610" lon="-8.415047">
        <ele>152.0</ele>
        <time>2011-06-25T09:53:41Z</time>
      </trkpt>
      <trkpt lat="43.327592" lon="-8.415070">
        <ele>152.0</ele>
        <time>2011-06-25T09:53:42Z</time>
      </trkpt>
      <trkpt lat="43.327577" lon="-8.415092">
        <ele>152.0</ele>
        <time>2011-06-25T09:53:43Z</time>
      </trkpt>
      <trkpt lat="43.327562" lon="-8.415113">
        <ele>152.0</ele>
        <time>2011-06-25T09:53:44Z</time>
      </trkpt>
      <trkpt lat="43.327548" lon="-8.415135">
        <ele>152.0</ele>
        <time>2011-06-25T09:53:45Z</time>
      </trkpt>
      <trkpt lat="43.327542" lon="-8.415158">
        <ele>152.0</ele>
        <time>2011-06-25T09:53:46Z</time>
      </trkpt>
      <trkpt lat="43.327530" lon="-8.415182">
        <ele>152.0</ele>
        <time>2011-06-25T09:53:47Z</time>
      </trkpt>
      <trkpt lat="43.327522" lon="-8.415207">
        <ele>152.0</ele>
        <time>2011-06-25T09:53:48Z</time>
      </trkpt>
      <trkpt lat="43.327508" lon="-8.415227">
        <ele>152.5</ele>
        <time>2011-06-25T09:53:49Z</time>
      </trkpt>
      <trkpt lat="43.327497" lon="-8.415243">
        <ele>152.5</ele>
        <time>2011-06-25T09:53:50Z</time>
      </trkpt>
      <trkpt lat="43.327483" lon="-8.415263">
        <ele>153.0</ele>
        <time>2011-06-25T09:53:51Z</time>
      </trkpt>
      <trkpt lat="43.327475" lon="-8.415282">
        <ele>153.0</ele>
        <time>2011-06-25T09:53:52Z</time>
      </trkpt>
      <trkpt lat="43.327468" lon="-8.415302">
        <ele>153.0</ele>
        <time>2011-06-25T09:53:53Z</time>
      </trkpt>
      <trkpt lat="43.327455" lon="-8.415320">
        <ele>153.0</ele>
        <time>2011-06-25T09:53:54Z</time>
      </trkpt>
      <trkpt lat="43.327442" lon="-8.415342">
        <ele>153.0</ele>
        <time>2011-06-25T09:53:55Z</time>
      </trkpt>
      <trkpt lat="43.327430" lon="-8.415360">
        <ele>153.0</ele>
        <time>2011-06-25T09:53:56Z</time>
      </trkpt>
      <trkpt lat="43.327415" lon="-8.415382">
        <ele>153.0</ele>
        <time>2011-06-25T09:53:57Z</time>
      </trkpt>
      <trkpt lat="43.327400" lon="-8.415402">
        <ele>154.0</ele>
        <time>2011-06-25T09:53:58Z</time>
      </trkpt>
      <trkpt lat="43.327402" lon="-8.415417">
        <ele>156.0</ele>
        <time>2011-06-25T09:53:59Z</time>
      </trkpt>
      <trkpt lat="43.327397" lon="-8.415433">
        <ele>157.0</ele>
        <time>2011-06-25T09:54:00Z</time>
      </trkpt>
      <trkpt lat="43.327395" lon="-8.415453">
        <ele>158.5</ele>
        <time>2011-06-25T09:54:01Z</time>
      </trkpt>
      <trkpt lat="43.327385" lon="-8.415473">
        <ele>159.5</ele>
        <time>2011-06-25T09:54:02Z</time>
      </trkpt>
      <trkpt lat="43.327380" lon="-8.415497">
        <ele>160.0</ele>
        <time>2011-06-25T09:54:03Z</time>
      </trkpt>
      <trkpt lat="43.327387" lon="-8.415518">
        <ele>161.0</ele>
        <time>2011-06-25T09:54:04Z</time>
      </trkpt>
      <trkpt lat="43.327388" lon="-8.415528">
        <ele>162.0</ele>
        <time>2011-06-25T09:54:05Z</time>
      </trkpt>
      <trkpt lat="43.327385" lon="-8.415535">
        <ele>162.0</ele>
        <time>2011-06-25T09:54:06Z</time>
      </trkpt>
      <trkpt lat="43.327385" lon="-8.415542">
        <ele>161.5</ele>
        <time>2011-06-25T09:54:07Z</time>
      </trkpt>
      <trkpt lat="43.327380" lon="-8.415548">
        <ele>161.0</ele>
        <time>2011-06-25T09:54:08Z</time>
      </trkpt>
      <trkpt lat="43.327382" lon="-8.415548">
        <ele>160.5</ele>
        <time>2011-06-25T09:54:09Z</time>
      </trkpt>
      <trkpt lat="43.327385" lon="-8.415547">
        <ele>160.5</ele>
        <time>2011-06-25T09:54:10Z</time>
      </trkpt>
      <trkpt lat="43.327387" lon="-8.415547">
        <ele>160.5</ele>
        <time>2011-06-25T09:54:11Z</time>
      </trkpt>
      <trkpt lat="43.327387" lon="-8.415547">
        <ele>160.5</ele>
        <time>2011-06-25T09:54:12Z</time>
      </trkpt>
      <trkpt lat="43.327387" lon="-8.415542">
        <ele>160.5</ele>
        <time>2011-06-25T09:54:13Z</time>
      </trkpt>
      <trkpt lat="43.327388" lon="-8.415543">
        <ele>160.5</ele>
        <time>2011-06-25T09:54:14Z</time>
      </trkpt>
      <trkpt lat="43.327392" lon="-8.415543">
        <ele>160.5</ele>
        <time>2011-06-25T09:54:15Z</time>
      </trkpt>
      <trkpt lat="43.327392" lon="-8.415543">
        <ele>160.5</ele>
        <time>2011-06-25T09:54:16Z</time>
      </trkpt>
      <trkpt lat="43.327390" lon="-8.415547">
        <ele>160.5</ele>
        <time>2011-06-25T09:54:17Z</time>
      </trkpt>
      <trkpt lat="43.327387" lon="-8.415545">
        <ele>160.5</ele>
        <time>2011-06-25T09:54:18Z</time>
      </trkpt>
      <trkpt lat="43.327383" lon="-8.415545">
        <ele>160.5</ele>
        <time>2011-06-25T09:54:19Z</time>
      </trkpt>
      <trkpt lat="43.327375" lon="-8.415545">
        <ele>161.0</ele>
        <time>2011-06-25T09:54:20Z</time>
      </trkpt>
      <trkpt lat="43.327377" lon="-8.415547">
        <ele>160.5</ele>
        <time>2011-06-25T09:54:21Z</time>
      </trkpt>
      <trkpt lat="43.327375" lon="-8.415550">
        <ele>160.0</ele>
        <time>2011-06-25T09:54:22Z</time>
      </trkpt>
      <trkpt lat="43.327373" lon="-8.415552">
        <ele>159.5</ele>
        <time>2011-06-25T09:54:23Z</time>
      </trkpt>
      <trkpt lat="43.327363" lon="-8.415550">
        <ele>159.5</ele>
        <time>2011-06-25T09:54:24Z</time>
      </trkpt>
      <trkpt lat="43.327367" lon="-8.415550">
        <ele>159.0</ele>
        <time>2011-06-25T09:54:25Z</time>
      </trkpt>
      <trkpt lat="43.327372" lon="-8.415553">
        <ele>158.5</ele>
        <time>2011-06-25T09:54:26Z</time>
      </trkpt>
      <trkpt lat="43.327372" lon="-8.415553">
        <ele>158.5</ele>
        <time>2011-06-25T09:54:27Z</time>
      </trkpt>
      <trkpt lat="43.327373" lon="-8.415553">
        <ele>158.0</ele>
        <time>2011-06-25T09:54:28Z</time>
      </trkpt>
      <trkpt lat="43.327375" lon="-8.415555">
        <ele>158.0</ele>
        <time>2011-06-25T09:54:29Z</time>
      </trkpt>
      <trkpt lat="43.327375" lon="-8.415555">
        <ele>157.5</ele>
        <time>2011-06-25T09:54:30Z</time>
      </trkpt>
      <trkpt lat="43.327373" lon="-8.415555">
        <ele>157.0</ele>
        <time>2011-06-25T09:54:31Z</time>
      </trkpt>
      <trkpt lat="43.327373" lon="-8.415555">
        <ele>156.5</ele>
        <time>2011-06-25T09:54:32Z</time>
      </trkpt>
      <trkpt lat="43.327377" lon="-8.415557">
        <ele>156.0</ele>
        <time>2011-06-25T09:54:33Z</time>
      </trkpt>
      <trkpt lat="43.327377" lon="-8.415558">
        <ele>155.5</ele>
        <time>2011-06-25T09:54:34Z</time>
      </trkpt>
      <trkpt lat="43.327392" lon="-8.415562">
        <ele>155.0</ele>
        <time>2011-06-25T09:54:35Z</time>
      </trkpt>
      <trkpt lat="43.327390" lon="-8.415562">
        <ele>154.5</ele>
        <time>2011-06-25T09:54:36Z</time>
      </trkpt>
      <trkpt lat="43.327388" lon="-8.415560">
        <ele>154.5</ele>
        <time>2011-06-25T09:54:37Z</time>
      </trkpt>
      <trkpt lat="43.327385" lon="-8.415560">
        <ele>154.5</ele>
        <time>2011-06-25T09:54:38Z</time>
      </trkpt>
      <trkpt lat="43.327383" lon="-8.415560">
        <ele>154.5</ele>
        <time>2011-06-25T09:54:39Z</time>
      </trkpt>
      <trkpt lat="43.327380" lon="-8.415562">
        <ele>154.5</ele>
        <time>2011-06-25T09:54:40Z</time>
      </trkpt>
      <trkpt lat="43.327380" lon="-8.415562">
        <ele>154.5</ele>
        <time>2011-06-25T09:54:41Z</time>
      </trkpt>
      <trkpt lat="43.327378" lon="-8.415562">
        <ele>154.5</ele>
        <time>2011-06-25T09:54:42Z</time>
      </trkpt>
      <trkpt lat="43.327378" lon="-8.415563">
        <ele>154.5</ele>
        <time>2011-06-25T09:54:43Z</time>
      </trkpt>
      <trkpt lat="43.327373" lon="-8.415560">
        <ele>155.0</ele>
        <time>2011-06-25T09:54:44Z</time>
      </trkpt>
      <trkpt lat="43.327377" lon="-8.415562">
        <ele>154.5</ele>
        <time>2011-06-25T09:54:45Z</time>
      </trkpt>
      <trkpt lat="43.327380" lon="-8.415563">
        <ele>154.5</ele>
        <time>2011-06-25T09:54:46Z</time>
      </trkpt>
      <trkpt lat="43.327380" lon="-8.415563">
        <ele>154.5</ele>
        <time>2011-06-25T09:54:47Z</time>
      </trkpt>
      <trkpt lat="43.327377" lon="-8.415567">
        <ele>155.0</ele>
        <time>2011-06-25T09:54:48Z</time>
      </trkpt>
      <trkpt lat="43.327368" lon="-8.415567">
        <ele>155.5</ele>
        <time>2011-06-25T09:54:49Z</time>
      </trkpt>
      <trkpt lat="43.327365" lon="-8.415578">
        <ele>156.5</ele>
        <time>2011-06-25T09:54:50Z</time>
      </trkpt>
      <trkpt lat="43.327355" lon="-8.415590">
        <ele>157.5</ele>
        <time>2011-06-25T09:54:51Z</time>
      </trkpt>
      <trkpt lat="43.327347" lon="-8.415603">
        <ele>158.0</ele>
        <time>2011-06-25T09:54:52Z</time>
      </trkpt>
      <trkpt lat="43.327330" lon="-8.415612">
        <ele>158.5</ele>
        <time>2011-06-25T09:54:53Z</time>
      </trkpt>
      <trkpt lat="43.327303" lon="-8.415605">
        <ele>159.0</ele>
        <time>2011-06-25T09:54:54Z</time>
      </trkpt>
      <trkpt lat="43.327275" lon="-8.415598">
        <ele>160.5</ele>
        <time>2011-06-25T09:54:55Z</time>
      </trkpt>
      <trkpt lat="43.327255" lon="-8.415597">
        <ele>161.0</ele>
        <time>2011-06-25T09:54:56Z</time>
      </trkpt>
      <trkpt lat="43.327232" lon="-8.415598">
        <ele>161.0</ele>
        <time>2011-06-25T09:54:57Z</time>
      </trkpt>
      <trkpt lat="43.327212" lon="-8.415598">
        <ele>161.5</ele>
        <time>2011-06-25T09:54:58Z</time>
      </trkpt>
      <trkpt lat="43.327188" lon="-8.415593">
        <ele>162.5</ele>
        <time>2011-06-25T09:54:59Z</time>
      </trkpt>
      <trkpt lat="43.327170" lon="-8.415588">
        <ele>162.0</ele>
        <time>2011-06-25T09:55:00Z</time>
      </trkpt>
      <trkpt lat="43.327148" lon="-8.415588">
        <ele>162.0</ele>
        <time>2011-06-25T09:55:01Z</time>
      </trkpt>
      <trkpt lat="43.327127" lon="-8.415590">
        <ele>162.0</ele>
        <time>2011-06-25T09:55:02Z</time>
      </trkpt>
      <trkpt lat="43.327110" lon="-8.415593">
        <ele>161.5</ele>
        <time>2011-06-25T09:55:03Z</time>
      </trkpt>
      <trkpt lat="43.327093" lon="-8.415608">
        <ele>162.0</ele>
        <time>2011-06-25T09:55:04Z</time>
      </trkpt>
      <trkpt lat="43.327078" lon="-8.415627">
        <ele>162.5</ele>
        <time>2011-06-25T09:55:05Z</time>
      </trkpt>
      <trkpt lat="43.327065" lon="-8.415647">
        <ele>163.0</ele>
        <time>2011-06-25T09:55:06Z</time>
      </trkpt>
      <trkpt lat="43.327043" lon="-8.415662">
        <ele>163.0</ele>
        <time>2011-06-25T09:55:07Z</time>
      </trkpt>
      <trkpt lat="43.327022" lon="-8.415678">
        <ele>163.0</ele>
        <time>2011-06-25T09:55:08Z</time>
      </trkpt>
      <trkpt lat="43.327012" lon="-8.415695">
        <ele>164.0</ele>
        <time>2011-06-25T09:55:09Z</time>
      </trkpt>
      <trkpt lat="43.326985" lon="-8.415712">
        <ele>164.0</ele>
        <time>2011-06-25T09:55:10Z</time>
      </trkpt>
      <trkpt lat="43.326963" lon="-8.415730">
        <ele>164.0</ele>
        <time>2011-06-25T09:55:11Z</time>
      </trkpt>
      <trkpt lat="43.326943" lon="-8.415745">
        <ele>164.0</ele>
        <time>2011-06-25T09:55:12Z</time>
      </trkpt>
      <trkpt lat="43.326922" lon="-8.415755">
        <ele>164.0</ele>
        <time>2011-06-25T09:55:13Z</time>
      </trkpt>
      <trkpt lat="43.326903" lon="-8.415763">
        <ele>164.5</ele>
        <time>2011-06-25T09:55:14Z</time>
      </trkpt>
      <trkpt lat="43.326883" lon="-8.415770">
        <ele>164.0</ele>
        <time>2011-06-25T09:55:15Z</time>
      </trkpt>
      <trkpt lat="43.326865" lon="-8.415778">
        <ele>164.0</ele>
        <time>2011-06-25T09:55:16Z</time>
      </trkpt>
      <trkpt lat="43.326850" lon="-8.415785">
        <ele>163.5</ele>
        <time>2011-06-25T09:55:17Z</time>
      </trkpt>
      <trkpt lat="43.326833" lon="-8.415792">
        <ele>164.0</ele>
        <time>2011-06-25T09:55:18Z</time>
      </trkpt>
      <trkpt lat="43.326822" lon="-8.415795">
        <ele>163.5</ele>
        <time>2011-06-25T09:55:19Z</time>
      </trkpt>
      <trkpt lat="43.326812" lon="-8.415798">
        <ele>163.5</ele>
        <time>2011-06-25T09:55:20Z</time>
      </trkpt>
      <trkpt lat="43.326800" lon="-8.415805">
        <ele>164.0</ele>
        <time>2011-06-25T09:55:21Z</time>
      </trkpt>
      <trkpt lat="43.326785" lon="-8.415817">
        <ele>164.0</ele>
        <time>2011-06-25T09:55:22Z</time>
      </trkpt>
      <trkpt lat="43.326772" lon="-8.415825">
        <ele>164.0</ele>
        <time>2011-06-25T09:55:23Z</time>
      </trkpt>
      <trkpt lat="43.326755" lon="-8.415837">
        <ele>164.5</ele>
        <time>2011-06-25T09:55:24Z</time>
      </trkpt>
      <trkpt lat="43.326740" lon="-8.415848">
        <ele>164.5</ele>
        <time>2011-06-25T09:55:25Z</time>
      </trkpt>
      <trkpt lat="43.326725" lon="-8.415858">
        <ele>164.5</ele>
        <time>2011-06-25T09:55:26Z</time>
      </trkpt>
      <trkpt lat="43.326713" lon="-8.415868">
        <ele>164.5</ele>
        <time>2011-06-25T09:55:27Z</time>
      </trkpt>
      <trkpt lat="43.326702" lon="-8.415878">
        <ele>164.5</ele>
        <time>2011-06-25T09:55:28Z</time>
      </trkpt>
      <trkpt lat="43.326688" lon="-8.415890">
        <ele>164.5</ele>
        <time>2011-06-25T09:55:29Z</time>
      </trkpt>
      <trkpt lat="43.326675" lon="-8.415900">
        <ele>164.5</ele>
        <time>2011-06-25T09:55:30Z</time>
      </trkpt>
      <trkpt lat="43.326665" lon="-8.415907">
        <ele>164.5</ele>
        <time>2011-06-25T09:55:31Z</time>
      </trkpt>
      <trkpt lat="43.326655" lon="-8.415913">
        <ele>164.5</ele>
        <time>2011-06-25T09:55:32Z</time>
      </trkpt>
      <trkpt lat="43.326645" lon="-8.415920">
        <ele>164.5</ele>
        <time>2011-06-25T09:55:33Z</time>
      </trkpt>
      <trkpt lat="43.326635" lon="-8.415932">
        <ele>164.5</ele>
        <time>2011-06-25T09:55:34Z</time>
      </trkpt>
      <trkpt lat="43.326625" lon="-8.415940">
        <ele>164.5</ele>
        <time>2011-06-25T09:55:35Z</time>
      </trkpt>
      <trkpt lat="43.326615" lon="-8.415947">
        <ele>164.5</ele>
        <time>2011-06-25T09:55:36Z</time>
      </trkpt>
      <trkpt lat="43.326605" lon="-8.415950">
        <ele>164.0</ele>
        <time>2011-06-25T09:55:37Z</time>
      </trkpt>
      <trkpt lat="43.326597" lon="-8.415952">
        <ele>163.5</ele>
        <time>2011-06-25T09:55:38Z</time>
      </trkpt>
      <trkpt lat="43.326588" lon="-8.415947">
        <ele>163.0</ele>
        <time>2011-06-25T09:55:39Z</time>
      </trkpt>
      <trkpt lat="43.326575" lon="-8.415937">
        <ele>162.0</ele>
        <time>2011-06-25T09:55:40Z</time>
      </trkpt>
      <trkpt lat="43.326560" lon="-8.415927">
        <ele>161.5</ele>
        <time>2011-06-25T09:55:41Z</time>
      </trkpt>
      <trkpt lat="43.326547" lon="-8.415910">
        <ele>162.0</ele>
        <time>2011-06-25T09:55:42Z</time>
      </trkpt>
      <trkpt lat="43.326535" lon="-8.415895">
        <ele>162.5</ele>
        <time>2011-06-25T09:55:43Z</time>
      </trkpt>
      <trkpt lat="43.326530" lon="-8.415888">
        <ele>162.5</ele>
        <time>2011-06-25T09:55:44Z</time>
      </trkpt>
      <trkpt lat="43.326527" lon="-8.415880">
        <ele>162.5</ele>
        <time>2011-06-25T09:55:45Z</time>
      </trkpt>
      <trkpt lat="43.326522" lon="-8.415877">
        <ele>162.0</ele>
        <time>2011-06-25T09:55:46Z</time>
      </trkpt>
      <trkpt lat="43.326512" lon="-8.415873">
        <ele>162.0</ele>
        <time>2011-06-25T09:55:47Z</time>
      </trkpt>
      <trkpt lat="43.326507" lon="-8.415870">
        <ele>162.0</ele>
        <time>2011-06-25T09:55:48Z</time>
      </trkpt>
      <trkpt lat="43.326505" lon="-8.415868">
        <ele>162.0</ele>
        <time>2011-06-25T09:55:49Z</time>
      </trkpt>
      <trkpt lat="43.326503" lon="-8.415868">
        <ele>161.5</ele>
        <time>2011-06-25T09:55:50Z</time>
      </trkpt>
      <trkpt lat="43.326500" lon="-8.415868">
        <ele>162.0</ele>
        <time>2011-06-25T09:55:51Z</time>
      </trkpt>
      <trkpt lat="43.326498" lon="-8.415870">
        <ele>162.0</ele>
        <time>2011-06-25T09:55:52Z</time>
      </trkpt>
      <trkpt lat="43.326497" lon="-8.415868">
        <ele>162.0</ele>
        <time>2011-06-25T09:55:53Z</time>
      </trkpt>
      <trkpt lat="43.326495" lon="-8.415868">
        <ele>162.0</ele>
        <time>2011-06-25T09:55:54Z</time>
      </trkpt>
      <trkpt lat="43.326487" lon="-8.415860">
        <ele>161.5</ele>
        <time>2011-06-25T09:55:55Z</time>
      </trkpt>
      <trkpt lat="43.326478" lon="-8.415850">
        <ele>162.0</ele>
        <time>2011-06-25T09:55:56Z</time>
      </trkpt>
      <trkpt lat="43.326465" lon="-8.415835">
        <ele>162.5</ele>
        <time>2011-06-25T09:55:57Z</time>
      </trkpt>
      <trkpt lat="43.326453" lon="-8.415818">
        <ele>162.5</ele>
        <time>2011-06-25T09:55:58Z</time>
      </trkpt>
      <trkpt lat="43.326443" lon="-8.415805">
        <ele>163.0</ele>
        <time>2011-06-25T09:55:59Z</time>
      </trkpt>
      <trkpt lat="43.326430" lon="-8.415795">
        <ele>163.5</ele>
        <time>2011-06-25T09:56:00Z</time>
      </trkpt>
      <trkpt lat="43.326417" lon="-8.415788">
        <ele>164.0</ele>
        <time>2011-06-25T09:56:01Z</time>
      </trkpt>
      <trkpt lat="43.326405" lon="-8.415783">
        <ele>164.0</ele>
        <time>2011-06-25T09:56:02Z</time>
      </trkpt>
      <trkpt lat="43.326395" lon="-8.415780">
        <ele>164.5</ele>
        <time>2011-06-25T09:56:03Z</time>
      </trkpt>
      <trkpt lat="43.326390" lon="-8.415778">
        <ele>164.5</ele>
        <time>2011-06-25T09:56:04Z</time>
      </trkpt>
      <trkpt lat="43.326390" lon="-8.415778">
        <ele>164.5</ele>
        <time>2011-06-25T09:56:05Z</time>
      </trkpt>
      <trkpt lat="43.326390" lon="-8.415777">
        <ele>164.5</ele>
        <time>2011-06-25T09:56:06Z</time>
      </trkpt>
      <trkpt lat="43.326388" lon="-8.415777">
        <ele>164.5</ele>
        <time>2011-06-25T09:56:07Z</time>
      </trkpt>
      <trkpt lat="43.326388" lon="-8.415777">
        <ele>164.5</ele>
        <time>2011-06-25T09:56:08Z</time>
      </trkpt>
      <trkpt lat="43.326388" lon="-8.415777">
        <ele>164.5</ele>
        <time>2011-06-25T09:56:09Z</time>
      </trkpt>
      <trkpt lat="43.326388" lon="-8.415777">
        <ele>164.5</ele>
        <time>2011-06-25T09:56:10Z</time>
      </trkpt>
      <trkpt lat="43.326388" lon="-8.415777">
        <ele>164.0</ele>
        <time>2011-06-25T09:56:11Z</time>
      </trkpt>
      <trkpt lat="43.326388" lon="-8.415775">
        <ele>164.0</ele>
        <time>2011-06-25T09:56:12Z</time>
      </trkpt>
      <trkpt lat="43.326387" lon="-8.415775">
        <ele>164.0</ele>
        <time>2011-06-25T09:56:13Z</time>
      </trkpt>
      <trkpt lat="43.326387" lon="-8.415775">
        <ele>164.0</ele>
        <time>2011-06-25T09:56:14Z</time>
      </trkpt>
      <trkpt lat="43.326387" lon="-8.415775">
        <ele>164.0</ele>
        <time>2011-06-25T09:56:15Z</time>
      </trkpt>
      <trkpt lat="43.326387" lon="-8.415773">
        <ele>164.0</ele>
        <time>2011-06-25T09:56:16Z</time>
      </trkpt>
      <trkpt lat="43.326387" lon="-8.415773">
        <ele>164.0</ele>
        <time>2011-06-25T09:56:17Z</time>
      </trkpt>
      <trkpt lat="43.326387" lon="-8.415773">
        <ele>164.0</ele>
        <time>2011-06-25T09:56:18Z</time>
      </trkpt>
      <trkpt lat="43.326387" lon="-8.415773">
        <ele>164.0</ele>
        <time>2011-06-25T09:56:19Z</time>
      </trkpt>
      <trkpt lat="43.326387" lon="-8.415773">
        <ele>164.0</ele>
        <time>2011-06-25T09:56:20Z</time>
      </trkpt>
      <trkpt lat="43.326387" lon="-8.415773">
        <ele>164.0</ele>
        <time>2011-06-25T09:56:21Z</time>
      </trkpt>
      <trkpt lat="43.326387" lon="-8.415773">
        <ele>164.0</ele>
        <time>2011-06-25T09:56:22Z</time>
      </trkpt>
      <trkpt lat="43.326385" lon="-8.415773">
        <ele>164.0</ele>
        <time>2011-06-25T09:56:23Z</time>
      </trkpt>
      <trkpt lat="43.326385" lon="-8.415773">
        <ele>164.0</ele>
        <time>2011-06-25T09:56:24Z</time>
      </trkpt>
      <trkpt lat="43.326385" lon="-8.415773">
        <ele>164.0</ele>
        <time>2011-06-25T09:56:25Z</time>
      </trkpt>
      <trkpt lat="43.326385" lon="-8.415773">
        <ele>164.0</ele>
        <time>2011-06-25T09:56:26Z</time>
      </trkpt>
      <trkpt lat="43.326385" lon="-8.415773">
        <ele>164.0</ele>
        <time>2011-06-25T09:56:27Z</time>
      </trkpt>
      <trkpt lat="43.326385" lon="-8.415773">
        <ele>164.0</ele>
        <time>2011-06-25T09:56:28Z</time>
      </trkpt>
      <trkpt lat="43.326385" lon="-8.415773">
        <ele>164.0</ele>
        <time>2011-06-25T09:56:29Z</time>
      </trkpt>
      <trkpt lat="43.326385" lon="-8.415773">
        <ele>164.0</ele>
        <time>2011-06-25T09:56:30Z</time>
      </trkpt>
      <trkpt lat="43.326385" lon="-8.415773">
        <ele>164.0</ele>
        <time>2011-06-25T09:56:31Z</time>
      </trkpt>
      <trkpt lat="43.326385" lon="-8.415773">
        <ele>164.0</ele>
        <time>2011-06-25T09:56:32Z</time>
      </trkpt>
      <trkpt lat="43.326385" lon="-8.415773">
        <ele>164.0</ele>
        <time>2011-06-25T09:56:33Z</time>
      </trkpt>
      <trkpt lat="43.326385" lon="-8.415773">
        <ele>164.0</ele>
        <time>2011-06-25T09:56:34Z</time>
      </trkpt>
      <trkpt lat="43.326385" lon="-8.415773">
        <ele>164.0</ele>
        <time>2011-06-25T09:56:35Z</time>
      </trkpt>
      <trkpt lat="43.326385" lon="-8.415773">
        <ele>164.0</ele>
        <time>2011-06-25T09:56:36Z</time>
      </trkpt>
      <trkpt lat="43.326385" lon="-8.415773">
        <ele>164.0</ele>
        <time>2011-06-25T09:56:37Z</time>
      </trkpt>
      <trkpt lat="43.326385" lon="-8.415773">
        <ele>164.0</ele>
        <time>2011-06-25T09:56:38Z</time>
      </trkpt>
      <trkpt lat="43.326385" lon="-8.415772">
        <ele>164.0</ele>
        <time>2011-06-25T09:56:39Z</time>
      </trkpt>
      <trkpt lat="43.326385" lon="-8.415772">
        <ele>163.5</ele>
        <time>2011-06-25T09:56:40Z</time>
      </trkpt>
      <trkpt lat="43.326385" lon="-8.415772">
        <ele>163.5</ele>
        <time>2011-06-25T09:56:41Z</time>
      </trkpt>
      <trkpt lat="43.326385" lon="-8.415772">
        <ele>163.5</ele>
        <time>2011-06-25T09:56:42Z</time>
      </trkpt>
      <trkpt lat="43.326385" lon="-8.415772">
        <ele>163.5</ele>
        <time>2011-06-25T09:56:43Z</time>
      </trkpt>
      <trkpt lat="43.326385" lon="-8.415772">
        <ele>163.5</ele>
        <time>2011-06-25T09:56:44Z</time>
      </trkpt>
      <trkpt lat="43.326383" lon="-8.415772">
        <ele>163.5</ele>
        <time>2011-06-25T09:56:45Z</time>
      </trkpt>
      <trkpt lat="43.326383" lon="-8.415772">
        <ele>163.5</ele>
        <time>2011-06-25T09:56:46Z</time>
      </trkpt>
      <trkpt lat="43.326383" lon="-8.415772">
        <ele>163.5</ele>
        <time>2011-06-25T09:56:47Z</time>
      </trkpt>
      <trkpt lat="43.326383" lon="-8.415772">
        <ele>163.5</ele>
        <time>2011-06-25T09:56:48Z</time>
      </trkpt>
      <trkpt lat="43.326383" lon="-8.415772">
        <ele>163.5</ele>
        <time>2011-06-25T09:56:49Z</time>
      </trkpt>
      <trkpt lat="43.326383" lon="-8.415772">
        <ele>163.5</ele>
        <time>2011-06-25T09:56:50Z</time>
      </trkpt>
      <trkpt lat="43.326383" lon="-8.415772">
        <ele>163.5</ele>
        <time>2011-06-25T09:56:51Z</time>
      </trkpt>
      <trkpt lat="43.326383" lon="-8.415772">
        <ele>163.5</ele>
        <time>2011-06-25T09:56:52Z</time>
      </trkpt>
      <trkpt lat="43.326383" lon="-8.415772">
        <ele>163.5</ele>
        <time>2011-06-25T09:56:53Z</time>
      </trkpt>
      <trkpt lat="43.326383" lon="-8.415772">
        <ele>163.5</ele>
        <time>2011-06-25T09:56:54Z</time>
      </trkpt>
      <trkpt lat="43.326383" lon="-8.415772">
        <ele>163.5</ele>
        <time>2011-06-25T09:56:55Z</time>
      </trkpt>
      <trkpt lat="43.326383" lon="-8.415772">
        <ele>163.5</ele>
        <time>2011-06-25T09:56:56Z</time>
      </trkpt>
      <trkpt lat="43.326383" lon="-8.415772">
        <ele>163.5</ele>
        <time>2011-06-25T09:56:57Z</time>
      </trkpt>
      <trkpt lat="43.326383" lon="-8.415772">
        <ele>163.5</ele>
        <time>2011-06-25T09:56:58Z</time>
      </trkpt>
      <trkpt lat="43.326383" lon="-8.415772">
        <ele>163.5</ele>
        <time>2011-06-25T09:56:59Z</time>
      </trkpt>
      <trkpt lat="43.326383" lon="-8.415772">
        <ele>163.5</ele>
        <time>2011-06-25T09:57:00Z</time>
      </trkpt>
      <trkpt lat="43.326383" lon="-8.415772">
        <ele>163.5</ele>
        <time>2011-06-25T09:57:01Z</time>
      </trkpt>
      <trkpt lat="43.326383" lon="-8.415772">
        <ele>163.5</ele>
        <time>2011-06-25T09:57:02Z</time>
      </trkpt>
      <trkpt lat="43.326383" lon="-8.415772">
        <ele>163.5</ele>
        <time>2011-06-25T09:57:03Z</time>
      </trkpt>
      <trkpt lat="43.326383" lon="-8.415772">
        <ele>163.5</ele>
        <time>2011-06-25T09:57:04Z</time>
      </trkpt>
      <trkpt lat="43.326383" lon="-8.415772">
        <ele>163.5</ele>
        <time>2011-06-25T09:57:05Z</time>
      </trkpt>
      <trkpt lat="43.326383" lon="-8.415772">
        <ele>163.5</ele>
        <time>2011-06-25T09:57:06Z</time>
      </trkpt>
      <trkpt lat="43.326383" lon="-8.415772">
        <ele>163.5</ele>
        <time>2011-06-25T09:57:07Z</time>
      </trkpt>
      <trkpt lat="43.326383" lon="-8.415772">
        <ele>163.5</ele>
        <time>2011-06-25T09:57:08Z</time>
      </trkpt>
      <trkpt lat="43.326383" lon="-8.415772">
        <ele>163.5</ele>
        <time>2011-06-25T09:57:09Z</time>
      </trkpt>
      <trkpt lat="43.326383" lon="-8.415772">
        <ele>163.5</ele>
        <time>2011-06-25T09:57:10Z</time>
      </trkpt>
      <trkpt lat="43.326383" lon="-8.415772">
        <ele>163.5</ele>
        <time>2011-06-25T09:57:11Z</time>
      </trkpt>
      <trkpt lat="43.326383" lon="-8.415772">
        <ele>164.0</ele>
        <time>2011-06-25T09:57:12Z</time>
      </trkpt>
      <trkpt lat="43.326373" lon="-8.415770">
        <ele>164.0</ele>
        <time>2011-06-25T09:57:13Z</time>
      </trkpt>
      <trkpt lat="43.326362" lon="-8.415770">
        <ele>164.0</ele>
        <time>2011-06-25T09:57:14Z</time>
      </trkpt>
      <trkpt lat="43.326350" lon="-8.415767">
        <ele>163.5</ele>
        <time>2011-06-25T09:57:15Z</time>
      </trkpt>
      <trkpt lat="43.326332" lon="-8.415768">
        <ele>164.0</ele>
        <time>2011-06-25T09:57:16Z</time>
      </trkpt>
      <trkpt lat="43.326312" lon="-8.415767">
        <ele>164.0</ele>
        <time>2011-06-25T09:57:17Z</time>
      </trkpt>
      <trkpt lat="43.326290" lon="-8.415768">
        <ele>164.0</ele>
        <time>2011-06-25T09:57:18Z</time>
      </trkpt>
      <trkpt lat="43.326267" lon="-8.415770">
        <ele>164.0</ele>
        <time>2011-06-25T09:57:19Z</time>
      </trkpt>
      <trkpt lat="43.326242" lon="-8.415773">
        <ele>164.5</ele>
        <time>2011-06-25T09:57:20Z</time>
      </trkpt>
      <trkpt lat="43.326218" lon="-8.415777">
        <ele>164.0</ele>
        <time>2011-06-25T09:57:21Z</time>
      </trkpt>
      <trkpt lat="43.326195" lon="-8.415783">
        <ele>164.5</ele>
        <time>2011-06-25T09:57:22Z</time>
      </trkpt>
      <trkpt lat="43.326172" lon="-8.415793">
        <ele>164.5</ele>
        <time>2011-06-25T09:57:23Z</time>
      </trkpt>
      <trkpt lat="43.326148" lon="-8.415803">
        <ele>165.0</ele>
        <time>2011-06-25T09:57:24Z</time>
      </trkpt>
      <trkpt lat="43.326125" lon="-8.415813">
        <ele>165.5</ele>
        <time>2011-06-25T09:57:25Z</time>
      </trkpt>
      <trkpt lat="43.326107" lon="-8.415823">
        <ele>166.0</ele>
        <time>2011-06-25T09:57:26Z</time>
      </trkpt>
      <trkpt lat="43.326088" lon="-8.415833">
        <ele>166.0</ele>
        <time>2011-06-25T09:57:27Z</time>
      </trkpt>
      <trkpt lat="43.326068" lon="-8.415842">
        <ele>166.5</ele>
        <time>2011-06-25T09:57:28Z</time>
      </trkpt>
      <trkpt lat="43.326050" lon="-8.415857">
        <ele>167.0</ele>
        <time>2011-06-25T09:57:29Z</time>
      </trkpt>
      <trkpt lat="43.326032" lon="-8.415873">
        <ele>167.5</ele>
        <time>2011-06-25T09:57:30Z</time>
      </trkpt>
      <trkpt lat="43.326012" lon="-8.415888">
        <ele>168.0</ele>
        <time>2011-06-25T09:57:31Z</time>
      </trkpt>
      <trkpt lat="43.325990" lon="-8.415903">
        <ele>168.5</ele>
        <time>2011-06-25T09:57:32Z</time>
      </trkpt>
      <trkpt lat="43.325968" lon="-8.415920">
        <ele>168.5</ele>
        <time>2011-06-25T09:57:33Z</time>
      </trkpt>
      <trkpt lat="43.325948" lon="-8.415933">
        <ele>169.0</ele>
        <time>2011-06-25T09:57:34Z</time>
      </trkpt>
      <trkpt lat="43.325930" lon="-8.415947">
        <ele>168.5</ele>
        <time>2011-06-25T09:57:35Z</time>
      </trkpt>
      <trkpt lat="43.325910" lon="-8.415963">
        <ele>169.0</ele>
        <time>2011-06-25T09:57:36Z</time>
      </trkpt>
      <trkpt lat="43.325890" lon="-8.415983">
        <ele>169.0</ele>
        <time>2011-06-25T09:57:37Z</time>
      </trkpt>
      <trkpt lat="43.325868" lon="-8.416003">
        <ele>169.0</ele>
        <time>2011-06-25T09:57:38Z</time>
      </trkpt>
      <trkpt lat="43.325848" lon="-8.416025">
        <ele>169.0</ele>
        <time>2011-06-25T09:57:39Z</time>
      </trkpt>
      <trkpt lat="43.325827" lon="-8.416045">
        <ele>169.5</ele>
        <time>2011-06-25T09:57:40Z</time>
      </trkpt>
      <trkpt lat="43.325805" lon="-8.416060">
        <ele>169.5</ele>
        <time>2011-06-25T09:57:41Z</time>
      </trkpt>
      <trkpt lat="43.325787" lon="-8.416077">
        <ele>169.5</ele>
        <time>2011-06-25T09:57:42Z</time>
      </trkpt>
      <trkpt lat="43.325767" lon="-8.416093">
        <ele>168.5</ele>
        <time>2011-06-25T09:57:43Z</time>
      </trkpt>
      <trkpt lat="43.325752" lon="-8.416110">
        <ele>168.5</ele>
        <time>2011-06-25T09:57:44Z</time>
      </trkpt>
      <trkpt lat="43.325735" lon="-8.416123">
        <ele>169.0</ele>
        <time>2011-06-25T09:57:45Z</time>
      </trkpt>
      <trkpt lat="43.325717" lon="-8.416138">
        <ele>169.5</ele>
        <time>2011-06-25T09:57:46Z</time>
      </trkpt>
      <trkpt lat="43.325695" lon="-8.416145">
        <ele>170.0</ele>
        <time>2011-06-25T09:57:47Z</time>
      </trkpt>
      <trkpt lat="43.325682" lon="-8.416148">
        <ele>170.5</ele>
        <time>2011-06-25T09:57:48Z</time>
      </trkpt>
      <trkpt lat="43.325673" lon="-8.416153">
        <ele>170.5</ele>
        <time>2011-06-25T09:57:49Z</time>
      </trkpt>
      <trkpt lat="43.325660" lon="-8.416158">
        <ele>171.0</ele>
        <time>2011-06-25T09:57:50Z</time>
      </trkpt>
      <trkpt lat="43.325645" lon="-8.416167">
        <ele>172.0</ele>
        <time>2011-06-25T09:57:51Z</time>
      </trkpt>
      <trkpt lat="43.325632" lon="-8.416175">
        <ele>172.5</ele>
        <time>2011-06-25T09:57:52Z</time>
      </trkpt>
      <trkpt lat="43.325622" lon="-8.416190">
        <ele>172.5</ele>
        <time>2011-06-25T09:57:53Z</time>
      </trkpt>
      <trkpt lat="43.325612" lon="-8.416207">
        <ele>172.5</ele>
        <time>2011-06-25T09:57:54Z</time>
      </trkpt>
      <trkpt lat="43.325605" lon="-8.416218">
        <ele>173.0</ele>
        <time>2011-06-25T09:57:55Z</time>
      </trkpt>
      <trkpt lat="43.325598" lon="-8.416228">
        <ele>173.0</ele>
        <time>2011-06-25T09:57:56Z</time>
      </trkpt>
      <trkpt lat="43.325597" lon="-8.416237">
        <ele>173.5</ele>
        <time>2011-06-25T09:57:57Z</time>
      </trkpt>
      <trkpt lat="43.325590" lon="-8.416253">
        <ele>173.5</ele>
        <time>2011-06-25T09:57:58Z</time>
      </trkpt>
      <trkpt lat="43.325582" lon="-8.416265">
        <ele>174.0</ele>
        <time>2011-06-25T09:57:59Z</time>
      </trkpt>
      <trkpt lat="43.325573" lon="-8.416273">
        <ele>174.0</ele>
        <time>2011-06-25T09:58:00Z</time>
      </trkpt>
      <trkpt lat="43.325567" lon="-8.416282">
        <ele>174.0</ele>
        <time>2011-06-25T09:58:01Z</time>
      </trkpt>
      <trkpt lat="43.325557" lon="-8.416290">
        <ele>174.0</ele>
        <time>2011-06-25T09:58:02Z</time>
      </trkpt>
      <trkpt lat="43.325547" lon="-8.416297">
        <ele>174.0</ele>
        <time>2011-06-25T09:58:03Z</time>
      </trkpt>
      <trkpt lat="43.325548" lon="-8.416303">
        <ele>174.5</ele>
        <time>2011-06-25T09:58:04Z</time>
      </trkpt>
      <trkpt lat="43.325547" lon="-8.416310">
        <ele>175.5</ele>
        <time>2011-06-25T09:58:05Z</time>
      </trkpt>
      <trkpt lat="43.325540" lon="-8.416313">
        <ele>177.0</ele>
        <time>2011-06-25T09:58:06Z</time>
      </trkpt>
      <trkpt lat="43.325542" lon="-8.416323">
        <ele>177.0</ele>
        <time>2011-06-25T09:58:07Z</time>
      </trkpt>
      <trkpt lat="43.325532" lon="-8.416335">
        <ele>177.0</ele>
        <time>2011-06-25T09:58:08Z</time>
      </trkpt>
      <trkpt lat="43.325518" lon="-8.416338">
        <ele>177.0</ele>
        <time>2011-06-25T09:58:09Z</time>
      </trkpt>
      <trkpt lat="43.325510" lon="-8.416342">
        <ele>178.5</ele>
        <time>2011-06-25T09:58:10Z</time>
      </trkpt>
      <trkpt lat="43.325500" lon="-8.416347">
        <ele>177.5</ele>
        <time>2011-06-25T09:58:11Z</time>
      </trkpt>
      <trkpt lat="43.325488" lon="-8.416352">
        <ele>177.5</ele>
        <time>2011-06-25T09:58:12Z</time>
      </trkpt>
      <trkpt lat="43.325488" lon="-8.416357">
        <ele>177.5</ele>
        <time>2011-06-25T09:58:13Z</time>
      </trkpt>
      <trkpt lat="43.325497" lon="-8.416373">
        <ele>177.0</ele>
        <time>2011-06-25T09:58:14Z</time>
      </trkpt>
      <trkpt lat="43.325485" lon="-8.416388">
        <ele>176.5</ele>
        <time>2011-06-25T09:58:15Z</time>
      </trkpt>
      <trkpt lat="43.325472" lon="-8.416400">
        <ele>176.0</ele>
        <time>2011-06-25T09:58:16Z</time>
      </trkpt>
      <trkpt lat="43.325467" lon="-8.416420">
        <ele>177.5</ele>
        <time>2011-06-25T09:58:17Z</time>
      </trkpt>
      <trkpt lat="43.325468" lon="-8.416437">
        <ele>177.0</ele>
        <time>2011-06-25T09:58:18Z</time>
      </trkpt>
      <trkpt lat="43.325460" lon="-8.416448">
        <ele>176.5</ele>
        <time>2011-06-25T09:58:19Z</time>
      </trkpt>
      <trkpt lat="43.325460" lon="-8.416468">
        <ele>177.5</ele>
        <time>2011-06-25T09:58:20Z</time>
      </trkpt>
      <trkpt lat="43.325462" lon="-8.416495">
        <ele>177.5</ele>
        <time>2011-06-25T09:58:21Z</time>
      </trkpt>
      <trkpt lat="43.325453" lon="-8.416527">
        <ele>177.5</ele>
        <time>2011-06-25T09:58:22Z</time>
      </trkpt>
      <trkpt lat="43.325437" lon="-8.416558">
        <ele>178.0</ele>
        <time>2011-06-25T09:58:23Z</time>
      </trkpt>
      <trkpt lat="43.325413" lon="-8.416587">
        <ele>178.0</ele>
        <time>2011-06-25T09:58:24Z</time>
      </trkpt>
      <trkpt lat="43.325395" lon="-8.416607">
        <ele>179.5</ele>
        <time>2011-06-25T09:58:25Z</time>
      </trkpt>
      <trkpt lat="43.325382" lon="-8.416623">
        <ele>180.5</ele>
        <time>2011-06-25T09:58:26Z</time>
      </trkpt>
      <trkpt lat="43.325362" lon="-8.416643">
        <ele>182.5</ele>
        <time>2011-06-25T09:58:27Z</time>
      </trkpt>
      <trkpt lat="43.325347" lon="-8.416668">
        <ele>185.5</ele>
        <time>2011-06-25T09:58:28Z</time>
      </trkpt>
      <trkpt lat="43.325337" lon="-8.416700">
        <ele>189.0</ele>
        <time>2011-06-25T09:58:29Z</time>
      </trkpt>
      <trkpt lat="43.325320" lon="-8.416737">
        <ele>191.5</ele>
        <time>2011-06-25T09:58:30Z</time>
      </trkpt>
      <trkpt lat="43.325297" lon="-8.416773">
        <ele>193.5</ele>
        <time>2011-06-25T09:58:31Z</time>
      </trkpt>
      <trkpt lat="43.325280" lon="-8.416797">
        <ele>194.5</ele>
        <time>2011-06-25T09:58:32Z</time>
      </trkpt>
      <trkpt lat="43.325268" lon="-8.416820">
        <ele>195.5</ele>
        <time>2011-06-25T09:58:33Z</time>
      </trkpt>
      <trkpt lat="43.325258" lon="-8.416847">
        <ele>198.0</ele>
        <time>2011-06-25T09:58:34Z</time>
      </trkpt>
      <trkpt lat="43.325245" lon="-8.416880">
        <ele>199.5</ele>
        <time>2011-06-25T09:58:35Z</time>
      </trkpt>
      <trkpt lat="43.325237" lon="-8.416907">
        <ele>200.5</ele>
        <time>2011-06-25T09:58:36Z</time>
      </trkpt>
      <trkpt lat="43.325210" lon="-8.416935">
        <ele>201.5</ele>
        <time>2011-06-25T09:58:37Z</time>
      </trkpt>
      <trkpt lat="43.325198" lon="-8.416962">
        <ele>203.0</ele>
        <time>2011-06-25T09:58:38Z</time>
      </trkpt>
      <trkpt lat="43.325180" lon="-8.417140">
        <ele>204.0</ele>
        <time>2011-06-25T09:58:41Z</time>
      </trkpt>
      <trkpt lat="43.325182" lon="-8.417205">
        <ele>205.5</ele>
        <time>2011-06-25T09:58:42Z</time>
      </trkpt>
      <trkpt lat="43.325182" lon="-8.417262">
        <ele>207.0</ele>
        <time>2011-06-25T09:58:43Z</time>
      </trkpt>
      <trkpt lat="43.325165" lon="-8.417305">
        <ele>208.5</ele>
        <time>2011-06-25T09:58:44Z</time>
      </trkpt>
      <trkpt lat="43.325148" lon="-8.417343">
        <ele>210.0</ele>
        <time>2011-06-25T09:58:45Z</time>
      </trkpt>
      <trkpt lat="43.325128" lon="-8.417383">
        <ele>212.0</ele>
        <time>2011-06-25T09:58:46Z</time>
      </trkpt>
      <trkpt lat="43.325115" lon="-8.417422">
        <ele>213.5</ele>
        <time>2011-06-25T09:58:47Z</time>
      </trkpt>
      <trkpt lat="43.325105" lon="-8.417445">
        <ele>215.0</ele>
        <time>2011-06-25T09:58:48Z</time>
      </trkpt>
      <trkpt lat="43.325093" lon="-8.417490">
        <ele>217.0</ele>
        <time>2011-06-25T09:58:49Z</time>
      </trkpt>
      <trkpt lat="43.325083" lon="-8.417532">
        <ele>217.0</ele>
        <time>2011-06-25T09:58:50Z</time>
      </trkpt>
      <trkpt lat="43.325075" lon="-8.417575">
        <ele>220.0</ele>
        <time>2011-06-25T09:58:51Z</time>
      </trkpt>
      <trkpt lat="43.325062" lon="-8.417615">
        <ele>222.5</ele>
        <time>2011-06-25T09:58:52Z</time>
      </trkpt>
      <trkpt lat="43.325042" lon="-8.417655">
        <ele>223.0</ele>
        <time>2011-06-25T09:58:53Z</time>
      </trkpt>
      <trkpt lat="43.325025" lon="-8.417692">
        <ele>222.5</ele>
        <time>2011-06-25T09:58:54Z</time>
      </trkpt>
      <trkpt lat="43.325008" lon="-8.417718">
        <ele>221.5</ele>
        <time>2011-06-25T09:58:55Z</time>
      </trkpt>
      <trkpt lat="43.324992" lon="-8.417743">
        <ele>220.5</ele>
        <time>2011-06-25T09:58:56Z</time>
      </trkpt>
      <trkpt lat="43.324977" lon="-8.417770">
        <ele>219.0</ele>
        <time>2011-06-25T09:58:57Z</time>
      </trkpt>
      <trkpt lat="43.324968" lon="-8.417798">
        <ele>217.5</ele>
        <time>2011-06-25T09:58:58Z</time>
      </trkpt>
      <trkpt lat="43.324963" lon="-8.417822">
        <ele>215.5</ele>
        <time>2011-06-25T09:58:59Z</time>
      </trkpt>
      <trkpt lat="43.324953" lon="-8.417847">
        <ele>214.5</ele>
        <time>2011-06-25T09:59:00Z</time>
      </trkpt>
      <trkpt lat="43.324947" lon="-8.417877">
        <ele>215.0</ele>
        <time>2011-06-25T09:59:01Z</time>
      </trkpt>
      <trkpt lat="43.324937" lon="-8.417903">
        <ele>215.0</ele>
        <time>2011-06-25T09:59:02Z</time>
      </trkpt>
      <trkpt lat="43.324928" lon="-8.417925">
        <ele>216.0</ele>
        <time>2011-06-25T09:59:03Z</time>
      </trkpt>
      <trkpt lat="43.324927" lon="-8.417948">
        <ele>216.0</ele>
        <time>2011-06-25T09:59:04Z</time>
      </trkpt>
      <trkpt lat="43.324923" lon="-8.417968">
        <ele>216.0</ele>
        <time>2011-06-25T09:59:05Z</time>
      </trkpt>
      <trkpt lat="43.324917" lon="-8.417995">
        <ele>216.5</ele>
        <time>2011-06-25T09:59:06Z</time>
      </trkpt>
      <trkpt lat="43.324908" lon="-8.418022">
        <ele>215.5</ele>
        <time>2011-06-25T09:59:07Z</time>
      </trkpt>
      <trkpt lat="43.324903" lon="-8.418048">
        <ele>216.0</ele>
        <time>2011-06-25T09:59:08Z</time>
      </trkpt>
      <trkpt lat="43.324900" lon="-8.418073">
        <ele>216.5</ele>
        <time>2011-06-25T09:59:09Z</time>
      </trkpt>
      <trkpt lat="43.324895" lon="-8.418100">
        <ele>217.0</ele>
        <time>2011-06-25T09:59:10Z</time>
      </trkpt>
      <trkpt lat="43.324893" lon="-8.418133">
        <ele>217.5</ele>
        <time>2011-06-25T09:59:11Z</time>
      </trkpt>
      <trkpt lat="43.324883" lon="-8.418155">
        <ele>217.5</ele>
        <time>2011-06-25T09:59:12Z</time>
      </trkpt>
      <trkpt lat="43.324872" lon="-8.418175">
        <ele>218.5</ele>
        <time>2011-06-25T09:59:13Z</time>
      </trkpt>
      <trkpt lat="43.324862" lon="-8.418197">
        <ele>219.0</ele>
        <time>2011-06-25T09:59:14Z</time>
      </trkpt>
      <trkpt lat="43.324850" lon="-8.418217">
        <ele>219.5</ele>
        <time>2011-06-25T09:59:15Z</time>
      </trkpt>
      <trkpt lat="43.324838" lon="-8.418238">
        <ele>220.0</ele>
        <time>2011-06-25T09:59:16Z</time>
      </trkpt>
      <trkpt lat="43.324827" lon="-8.418260">
        <ele>220.5</ele>
        <time>2011-06-25T09:59:17Z</time>
      </trkpt>
      <trkpt lat="43.324815" lon="-8.418278">
        <ele>221.0</ele>
        <time>2011-06-25T09:59:18Z</time>
      </trkpt>
      <trkpt lat="43.324800" lon="-8.418295">
        <ele>221.0</ele>
        <time>2011-06-25T09:59:19Z</time>
      </trkpt>
      <trkpt lat="43.324785" lon="-8.418312">
        <ele>221.5</ele>
        <time>2011-06-25T09:59:20Z</time>
      </trkpt>
      <trkpt lat="43.324770" lon="-8.418327">
        <ele>221.5</ele>
        <time>2011-06-25T09:59:21Z</time>
      </trkpt>
      <trkpt lat="43.324753" lon="-8.418343">
        <ele>221.5</ele>
        <time>2011-06-25T09:59:22Z</time>
      </trkpt>
      <trkpt lat="43.324748" lon="-8.418360">
        <ele>222.0</ele>
        <time>2011-06-25T09:59:23Z</time>
      </trkpt>
      <trkpt lat="43.324738" lon="-8.418375">
        <ele>222.0</ele>
        <time>2011-06-25T09:59:24Z</time>
      </trkpt>
      <trkpt lat="43.324722" lon="-8.418393">
        <ele>221.5</ele>
        <time>2011-06-25T09:59:25Z</time>
      </trkpt>
      <trkpt lat="43.324707" lon="-8.418415">
        <ele>221.0</ele>
        <time>2011-06-25T09:59:26Z</time>
      </trkpt>
      <trkpt lat="43.324693" lon="-8.418430">
        <ele>221.0</ele>
        <time>2011-06-25T09:59:27Z</time>
      </trkpt>
      <trkpt lat="43.324678" lon="-8.418442">
        <ele>221.5</ele>
        <time>2011-06-25T09:59:28Z</time>
      </trkpt>
      <trkpt lat="43.324663" lon="-8.418457">
        <ele>221.5</ele>
        <time>2011-06-25T09:59:29Z</time>
      </trkpt>
      <trkpt lat="43.324648" lon="-8.418470">
        <ele>222.0</ele>
        <time>2011-06-25T09:59:30Z</time>
      </trkpt>
      <trkpt lat="43.324635" lon="-8.418485">
        <ele>222.0</ele>
        <time>2011-06-25T09:59:31Z</time>
      </trkpt>
      <trkpt lat="43.324623" lon="-8.418500">
        <ele>222.5</ele>
        <time>2011-06-25T09:59:32Z</time>
      </trkpt>
      <trkpt lat="43.324610" lon="-8.418515">
        <ele>223.0</ele>
        <time>2011-06-25T09:59:33Z</time>
      </trkpt>
      <trkpt lat="43.324593" lon="-8.418530">
        <ele>223.0</ele>
        <time>2011-06-25T09:59:34Z</time>
      </trkpt>
      <trkpt lat="43.324578" lon="-8.418543">
        <ele>223.5</ele>
        <time>2011-06-25T09:59:35Z</time>
      </trkpt>
      <trkpt lat="43.324560" lon="-8.418557">
        <ele>224.0</ele>
        <time>2011-06-25T09:59:36Z</time>
      </trkpt>
      <trkpt lat="43.324547" lon="-8.418568">
        <ele>224.0</ele>
        <time>2011-06-25T09:59:37Z</time>
      </trkpt>
      <trkpt lat="43.324537" lon="-8.418582">
        <ele>224.0</ele>
        <time>2011-06-25T09:59:38Z</time>
      </trkpt>
      <trkpt lat="43.324525" lon="-8.418600">
        <ele>224.5</ele>
        <time>2011-06-25T09:59:39Z</time>
      </trkpt>
      <trkpt lat="43.324508" lon="-8.418613">
        <ele>225.0</ele>
        <time>2011-06-25T09:59:40Z</time>
      </trkpt>
      <trkpt lat="43.324500" lon="-8.418627">
        <ele>226.0</ele>
        <time>2011-06-25T09:59:41Z</time>
      </trkpt>
      <trkpt lat="43.324483" lon="-8.418642">
        <ele>226.0</ele>
        <time>2011-06-25T09:59:42Z</time>
      </trkpt>
      <trkpt lat="43.324467" lon="-8.418658">
        <ele>226.0</ele>
        <time>2011-06-25T09:59:43Z</time>
      </trkpt>
      <trkpt lat="43.324448" lon="-8.418688">
        <ele>224.0</ele>
        <time>2011-06-25T09:59:44Z</time>
      </trkpt>
      <trkpt lat="43.324442" lon="-8.418698">
        <ele>224.5</ele>
        <time>2011-06-25T09:59:45Z</time>
      </trkpt>
      <trkpt lat="43.324425" lon="-8.418707">
        <ele>225.0</ele>
        <time>2011-06-25T09:59:46Z</time>
      </trkpt>
      <trkpt lat="43.324408" lon="-8.418718">
        <ele>225.0</ele>
        <time>2011-06-25T09:59:47Z</time>
      </trkpt>
      <trkpt lat="43.324393" lon="-8.418728">
        <ele>226.0</ele>
        <time>2011-06-25T09:59:48Z</time>
      </trkpt>
      <trkpt lat="43.324370" lon="-8.418755">
        <ele>225.0</ele>
        <time>2011-06-25T09:59:49Z</time>
      </trkpt>
      <trkpt lat="43.324353" lon="-8.418765">
        <ele>225.0</ele>
        <time>2011-06-25T09:59:50Z</time>
      </trkpt>
      <trkpt lat="43.324325" lon="-8.418782">
        <ele>223.5</ele>
        <time>2011-06-25T09:59:51Z</time>
      </trkpt>
      <trkpt lat="43.324232" lon="-8.418788">
        <ele>218.0</ele>
        <time>2011-06-25T09:59:53Z</time>
      </trkpt>
      <trkpt lat="43.324158" lon="-8.418787">
        <ele>215.0</ele>
        <time>2011-06-25T09:59:55Z</time>
      </trkpt>
      <trkpt lat="43.324093" lon="-8.418772">
        <ele>210.5</ele>
        <time>2011-06-25T09:59:57Z</time>
      </trkpt>
      <trkpt lat="43.324070" lon="-8.418755">
        <ele>210.5</ele>
        <time>2011-06-25T09:59:58Z</time>
      </trkpt>
      <trkpt lat="43.324045" lon="-8.418737">
        <ele>210.5</ele>
        <time>2011-06-25T09:59:59Z</time>
      </trkpt>
      <trkpt lat="43.324023" lon="-8.418730">
        <ele>212.0</ele>
        <time>2011-06-25T10:00:00Z</time>
      </trkpt>
      <trkpt lat="43.324002" lon="-8.418725">
        <ele>212.5</ele>
        <time>2011-06-25T10:00:01Z</time>
      </trkpt>
      <trkpt lat="43.323973" lon="-8.418720">
        <ele>212.5</ele>
        <time>2011-06-25T10:00:02Z</time>
      </trkpt>
      <trkpt lat="43.323952" lon="-8.418712">
        <ele>212.0</ele>
        <time>2011-06-25T10:00:03Z</time>
      </trkpt>
      <trkpt lat="43.323938" lon="-8.418712">
        <ele>212.0</ele>
        <time>2011-06-25T10:00:04Z</time>
      </trkpt>
      <trkpt lat="43.323925" lon="-8.418717">
        <ele>212.5</ele>
        <time>2011-06-25T10:00:05Z</time>
      </trkpt>
      <trkpt lat="43.323910" lon="-8.418723">
        <ele>212.0</ele>
        <time>2011-06-25T10:00:06Z</time>
      </trkpt>
      <trkpt lat="43.323892" lon="-8.418733">
        <ele>212.5</ele>
        <time>2011-06-25T10:00:07Z</time>
      </trkpt>
      <trkpt lat="43.323875" lon="-8.418745">
        <ele>213.0</ele>
        <time>2011-06-25T10:00:08Z</time>
      </trkpt>
      <trkpt lat="43.323863" lon="-8.418743">
        <ele>212.5</ele>
        <time>2011-06-25T10:00:09Z</time>
      </trkpt>
      <trkpt lat="43.323848" lon="-8.418752">
        <ele>212.0</ele>
        <time>2011-06-25T10:00:10Z</time>
      </trkpt>
      <trkpt lat="43.323838" lon="-8.418755">
        <ele>212.5</ele>
        <time>2011-06-25T10:00:11Z</time>
      </trkpt>
      <trkpt lat="43.323827" lon="-8.418757">
        <ele>212.5</ele>
        <time>2011-06-25T10:00:12Z</time>
      </trkpt>
      <trkpt lat="43.323810" lon="-8.418753">
        <ele>213.5</ele>
        <time>2011-06-25T10:00:13Z</time>
      </trkpt>
    </trkseg>
  </trk>
  <trk>
    <name>T2067676-6</name>
    <cmt>saida con compañeiros do C.C.Arteixo polos arredores da Coruña</cmt>
    <desc>saida con compañeiros do C.C.Arteixo polos arredores da Coruña</desc>
    <trkseg>
      <trkpt lat="43.323800" lon="-8.418753">
        <ele>215.0</ele>
        <time>2011-06-25T10:00:14Z</time>
      </trkpt>
      <trkpt lat="43.323788" lon="-8.418748">
        <ele>216.0</ele>
        <time>2011-06-25T10:00:15Z</time>
      </trkpt>
      <trkpt lat="43.323775" lon="-8.418743">
        <ele>216.5</ele>
        <time>2011-06-25T10:00:16Z</time>
      </trkpt>
      <trkpt lat="43.323762" lon="-8.418738">
        <ele>218.0</ele>
        <time>2011-06-25T10:00:17Z</time>
      </trkpt>
      <trkpt lat="43.323743" lon="-8.418735">
        <ele>218.5</ele>
        <time>2011-06-25T10:00:18Z</time>
      </trkpt>
      <trkpt lat="43.323730" lon="-8.418728">
        <ele>219.0</ele>
        <time>2011-06-25T10:00:19Z</time>
      </trkpt>
      <trkpt lat="43.323722" lon="-8.418728">
        <ele>220.0</ele>
        <time>2011-06-25T10:00:20Z</time>
      </trkpt>
      <trkpt lat="43.323707" lon="-8.418723">
        <ele>220.0</ele>
        <time>2011-06-25T10:00:21Z</time>
      </trkpt>
      <trkpt lat="43.323692" lon="-8.418717">
        <ele>219.5</ele>
        <time>2011-06-25T10:00:22Z</time>
      </trkpt>
      <trkpt lat="43.323635" lon="-8.418715">
        <ele>218.5</ele>
        <time>2011-06-25T10:00:24Z</time>
      </trkpt>
      <trkpt lat="43.323627" lon="-8.418705">
        <ele>218.5</ele>
        <time>2011-06-25T10:00:25Z</time>
      </trkpt>
      <trkpt lat="43.323615" lon="-8.418703">
        <ele>218.5</ele>
        <time>2011-06-25T10:00:26Z</time>
      </trkpt>
      <trkpt lat="43.323593" lon="-8.418703">
        <ele>219.5</ele>
        <time>2011-06-25T10:00:27Z</time>
      </trkpt>
      <trkpt lat="43.323592" lon="-8.418703">
        <ele>221.0</ele>
        <time>2011-06-25T10:00:28Z</time>
      </trkpt>
      <trkpt lat="43.323577" lon="-8.418702">
        <ele>221.5</ele>
        <time>2011-06-25T10:00:29Z</time>
      </trkpt>
      <trkpt lat="43.323560" lon="-8.418695">
        <ele>222.0</ele>
        <time>2011-06-25T10:00:30Z</time>
      </trkpt>
      <trkpt lat="43.323538" lon="-8.418685">
        <ele>221.0</ele>
        <time>2011-06-25T10:00:31Z</time>
      </trkpt>
      <trkpt lat="43.323528" lon="-8.418672">
        <ele>221.0</ele>
        <time>2011-06-25T10:00:32Z</time>
      </trkpt>
      <trkpt lat="43.323505" lon="-8.418662">
        <ele>219.5</ele>
        <time>2011-06-25T10:00:33Z</time>
      </trkpt>
      <trkpt lat="43.323493" lon="-8.418653">
        <ele>217.5</ele>
        <time>2011-06-25T10:00:34Z</time>
      </trkpt>
      <trkpt lat="43.323477" lon="-8.418645">
        <ele>217.0</ele>
        <time>2011-06-25T10:00:35Z</time>
      </trkpt>
      <trkpt lat="43.323460" lon="-8.418638">
        <ele>219.5</ele>
        <time>2011-06-25T10:00:36Z</time>
      </trkpt>
      <trkpt lat="43.323452" lon="-8.418630">
        <ele>220.5</ele>
        <time>2011-06-25T10:00:37Z</time>
      </trkpt>
      <trkpt lat="43.323440" lon="-8.418620">
        <ele>221.5</ele>
        <time>2011-06-25T10:00:38Z</time>
      </trkpt>
      <trkpt lat="43.323427" lon="-8.418612">
        <ele>222.5</ele>
        <time>2011-06-25T10:00:39Z</time>
      </trkpt>
      <trkpt lat="43.323417" lon="-8.418600">
        <ele>222.0</ele>
        <time>2011-06-25T10:00:40Z</time>
      </trkpt>
      <trkpt lat="43.323405" lon="-8.418597">
        <ele>221.0</ele>
        <time>2011-06-25T10:00:41Z</time>
      </trkpt>
      <trkpt lat="43.323390" lon="-8.418593">
        <ele>220.0</ele>
        <time>2011-06-25T10:00:42Z</time>
      </trkpt>
      <trkpt lat="43.323380" lon="-8.418590">
        <ele>220.5</ele>
        <time>2011-06-25T10:00:43Z</time>
      </trkpt>
      <trkpt lat="43.323377" lon="-8.418590">
        <ele>221.0</ele>
        <time>2011-06-25T10:00:44Z</time>
      </trkpt>
      <trkpt lat="43.323363" lon="-8.418580">
        <ele>220.0</ele>
        <time>2011-06-25T10:00:45Z</time>
      </trkpt>
      <trkpt lat="43.323362" lon="-8.418577">
        <ele>220.5</ele>
        <time>2011-06-25T10:00:46Z</time>
      </trkpt>
      <trkpt lat="43.323362" lon="-8.418577">
        <ele>220.5</ele>
        <time>2011-06-25T10:00:47Z</time>
      </trkpt>
      <trkpt lat="43.323355" lon="-8.418572">
        <ele>220.0</ele>
        <time>2011-06-25T10:00:48Z</time>
      </trkpt>
      <trkpt lat="43.323353" lon="-8.418570">
        <ele>220.0</ele>
        <time>2011-06-25T10:00:49Z</time>
      </trkpt>
      <trkpt lat="43.323350" lon="-8.418568">
        <ele>220.0</ele>
        <time>2011-06-25T10:00:50Z</time>
      </trkpt>
      <trkpt lat="43.323347" lon="-8.418567">
        <ele>220.0</ele>
        <time>2011-06-25T10:00:51Z</time>
      </trkpt>
      <trkpt lat="43.323343" lon="-8.418565">
        <ele>220.0</ele>
        <time>2011-06-25T10:00:52Z</time>
      </trkpt>
      <trkpt lat="43.323342" lon="-8.418562">
        <ele>219.5</ele>
        <time>2011-06-25T10:00:53Z</time>
      </trkpt>
      <trkpt lat="43.323337" lon="-8.418558">
        <ele>219.0</ele>
        <time>2011-06-25T10:00:54Z</time>
      </trkpt>
      <trkpt lat="43.323335" lon="-8.418558">
        <ele>219.0</ele>
        <time>2011-06-25T10:00:55Z</time>
      </trkpt>
      <trkpt lat="43.323335" lon="-8.418557">
        <ele>219.0</ele>
        <time>2011-06-25T10:00:56Z</time>
      </trkpt>
      <trkpt lat="43.323335" lon="-8.418555">
        <ele>218.5</ele>
        <time>2011-06-25T10:00:57Z</time>
      </trkpt>
      <trkpt lat="43.323325" lon="-8.418548">
        <ele>218.5</ele>
        <time>2011-06-25T10:00:58Z</time>
      </trkpt>
      <trkpt lat="43.323318" lon="-8.418538">
        <ele>218.5</ele>
        <time>2011-06-25T10:00:59Z</time>
      </trkpt>
      <trkpt lat="43.323318" lon="-8.418537">
        <ele>219.5</ele>
        <time>2011-06-25T10:01:00Z</time>
      </trkpt>
      <trkpt lat="43.323317" lon="-8.418537">
        <ele>219.5</ele>
        <time>2011-06-25T10:01:01Z</time>
      </trkpt>
      <trkpt lat="43.323308" lon="-8.418535">
        <ele>220.0</ele>
        <time>2011-06-25T10:01:02Z</time>
      </trkpt>
      <trkpt lat="43.323307" lon="-8.418530">
        <ele>219.5</ele>
        <time>2011-06-25T10:01:03Z</time>
      </trkpt>
      <trkpt lat="43.323307" lon="-8.418530">
        <ele>219.0</ele>
        <time>2011-06-25T10:01:04Z</time>
      </trkpt>
      <trkpt lat="43.323302" lon="-8.418528">
        <ele>219.0</ele>
        <time>2011-06-25T10:01:05Z</time>
      </trkpt>
      <trkpt lat="43.323302" lon="-8.418528">
        <ele>219.0</ele>
        <time>2011-06-25T10:01:06Z</time>
      </trkpt>
      <trkpt lat="43.323290" lon="-8.418527">
        <ele>218.5</ele>
        <time>2011-06-25T10:01:07Z</time>
      </trkpt>
      <trkpt lat="43.323272" lon="-8.418530">
        <ele>219.5</ele>
        <time>2011-06-25T10:01:08Z</time>
      </trkpt>
      <trkpt lat="43.323253" lon="-8.418527">
        <ele>222.0</ele>
        <time>2011-06-25T10:01:09Z</time>
      </trkpt>
      <trkpt lat="43.323245" lon="-8.418503">
        <ele>222.5</ele>
        <time>2011-06-25T10:01:10Z</time>
      </trkpt>
      <trkpt lat="43.323233" lon="-8.418477">
        <ele>223.0</ele>
        <time>2011-06-25T10:01:11Z</time>
      </trkpt>
      <trkpt lat="43.323220" lon="-8.418445">
        <ele>224.0</ele>
        <time>2011-06-25T10:01:12Z</time>
      </trkpt>
      <trkpt lat="43.323205" lon="-8.418417">
        <ele>225.5</ele>
        <time>2011-06-25T10:01:13Z</time>
      </trkpt>
      <trkpt lat="43.323190" lon="-8.418408">
        <ele>225.5</ele>
        <time>2011-06-25T10:01:14Z</time>
      </trkpt>
      <trkpt lat="43.323153" lon="-8.418368">
        <ele>225.0</ele>
        <time>2011-06-25T10:01:16Z</time>
      </trkpt>
      <trkpt lat="43.323133" lon="-8.418362">
        <ele>226.5</ele>
        <time>2011-06-25T10:01:17Z</time>
      </trkpt>
      <trkpt lat="43.323113" lon="-8.418350">
        <ele>226.5</ele>
        <time>2011-06-25T10:01:18Z</time>
      </trkpt>
      <trkpt lat="43.323098" lon="-8.418337">
        <ele>226.5</ele>
        <time>2011-06-25T10:01:19Z</time>
      </trkpt>
      <trkpt lat="43.323083" lon="-8.418322">
        <ele>227.5</ele>
        <time>2011-06-25T10:01:20Z</time>
      </trkpt>
      <trkpt lat="43.323070" lon="-8.418305">
        <ele>227.0</ele>
        <time>2011-06-25T10:01:21Z</time>
      </trkpt>
      <trkpt lat="43.323055" lon="-8.418295">
        <ele>227.0</ele>
        <time>2011-06-25T10:01:22Z</time>
      </trkpt>
      <trkpt lat="43.323047" lon="-8.418270">
        <ele>226.0</ele>
        <time>2011-06-25T10:01:23Z</time>
      </trkpt>
      <trkpt lat="43.323035" lon="-8.418257">
        <ele>226.5</ele>
        <time>2011-06-25T10:01:24Z</time>
      </trkpt>
      <trkpt lat="43.323023" lon="-8.418245">
        <ele>226.5</ele>
        <time>2011-06-25T10:01:25Z</time>
      </trkpt>
      <trkpt lat="43.323007" lon="-8.418250">
        <ele>227.5</ele>
        <time>2011-06-25T10:01:26Z</time>
      </trkpt>
      <trkpt lat="43.322997" lon="-8.418242">
        <ele>226.5</ele>
        <time>2011-06-25T10:01:27Z</time>
      </trkpt>
      <trkpt lat="43.322982" lon="-8.418242">
        <ele>227.0</ele>
        <time>2011-06-25T10:01:28Z</time>
      </trkpt>
      <trkpt lat="43.322967" lon="-8.418238">
        <ele>228.0</ele>
        <time>2011-06-25T10:01:29Z</time>
      </trkpt>
      <trkpt lat="43.322953" lon="-8.418230">
        <ele>229.5</ele>
        <time>2011-06-25T10:01:30Z</time>
      </trkpt>
      <trkpt lat="43.322943" lon="-8.418215">
        <ele>228.5</ele>
        <time>2011-06-25T10:01:31Z</time>
      </trkpt>
      <trkpt lat="43.322930" lon="-8.418207">
        <ele>229.0</ele>
        <time>2011-06-25T10:01:32Z</time>
      </trkpt>
      <trkpt lat="43.322915" lon="-8.418203">
        <ele>229.5</ele>
        <time>2011-06-25T10:01:33Z</time>
      </trkpt>
      <trkpt lat="43.322900" lon="-8.418195">
        <ele>230.0</ele>
        <time>2011-06-25T10:01:34Z</time>
      </trkpt>
      <trkpt lat="43.322887" lon="-8.418183">
        <ele>230.5</ele>
        <time>2011-06-25T10:01:35Z</time>
      </trkpt>
      <trkpt lat="43.322878" lon="-8.418178">
        <ele>230.5</ele>
        <time>2011-06-25T10:01:36Z</time>
      </trkpt>
      <trkpt lat="43.322865" lon="-8.418167">
        <ele>230.5</ele>
        <time>2011-06-25T10:01:37Z</time>
      </trkpt>
      <trkpt lat="43.322855" lon="-8.418152">
        <ele>231.0</ele>
        <time>2011-06-25T10:01:38Z</time>
      </trkpt>
      <trkpt lat="43.322845" lon="-8.418140">
        <ele>231.5</ele>
        <time>2011-06-25T10:01:39Z</time>
      </trkpt>
      <trkpt lat="43.322835" lon="-8.418127">
        <ele>232.0</ele>
        <time>2011-06-25T10:01:40Z</time>
      </trkpt>
      <trkpt lat="43.322827" lon="-8.418120">
        <ele>232.0</ele>
        <time>2011-06-25T10:01:41Z</time>
      </trkpt>
      <trkpt lat="43.322815" lon="-8.418115">
        <ele>234.0</ele>
        <time>2011-06-25T10:01:42Z</time>
      </trkpt>
      <trkpt lat="43.322802" lon="-8.418115">
        <ele>236.5</ele>
        <time>2011-06-25T10:01:43Z</time>
      </trkpt>
      <trkpt lat="43.322790" lon="-8.418113">
        <ele>238.5</ele>
        <time>2011-06-25T10:01:44Z</time>
      </trkpt>
      <trkpt lat="43.322777" lon="-8.418112">
        <ele>240.5</ele>
        <time>2011-06-25T10:01:45Z</time>
      </trkpt>
      <trkpt lat="43.322767" lon="-8.418103">
        <ele>241.0</ele>
        <time>2011-06-25T10:01:46Z</time>
      </trkpt>
      <trkpt lat="43.322757" lon="-8.418093">
        <ele>241.5</ele>
        <time>2011-06-25T10:01:47Z</time>
      </trkpt>
      <trkpt lat="43.322743" lon="-8.418100">
        <ele>242.5</ele>
        <time>2011-06-25T10:01:48Z</time>
      </trkpt>
      <trkpt lat="43.322730" lon="-8.418098">
        <ele>243.5</ele>
        <time>2011-06-25T10:01:49Z</time>
      </trkpt>
      <trkpt lat="43.322720" lon="-8.418087">
        <ele>243.5</ele>
        <time>2011-06-25T10:01:50Z</time>
      </trkpt>
      <trkpt lat="43.322715" lon="-8.418068">
        <ele>243.0</ele>
        <time>2011-06-25T10:01:51Z</time>
      </trkpt>
      <trkpt lat="43.322707" lon="-8.418050">
        <ele>242.5</ele>
        <time>2011-06-25T10:01:52Z</time>
      </trkpt>
      <trkpt lat="43.322693" lon="-8.418038">
        <ele>243.5</ele>
        <time>2011-06-25T10:01:53Z</time>
      </trkpt>
      <trkpt lat="43.322682" lon="-8.418025">
        <ele>244.0</ele>
        <time>2011-06-25T10:01:54Z</time>
      </trkpt>
      <trkpt lat="43.322670" lon="-8.418012">
        <ele>244.0</ele>
        <time>2011-06-25T10:01:55Z</time>
      </trkpt>
      <trkpt lat="43.322663" lon="-8.417992">
        <ele>243.5</ele>
        <time>2011-06-25T10:01:56Z</time>
      </trkpt>
      <trkpt lat="43.322652" lon="-8.417977">
        <ele>244.0</ele>
        <time>2011-06-25T10:01:57Z</time>
      </trkpt>
      <trkpt lat="43.322645" lon="-8.417952">
        <ele>242.5</ele>
        <time>2011-06-25T10:01:58Z</time>
      </trkpt>
      <trkpt lat="43.322642" lon="-8.417923">
        <ele>240.0</ele>
        <time>2011-06-25T10:01:59Z</time>
      </trkpt>
      <trkpt lat="43.322635" lon="-8.417902">
        <ele>240.5</ele>
        <time>2011-06-25T10:02:00Z</time>
      </trkpt>
      <trkpt lat="43.322623" lon="-8.417887">
        <ele>242.0</ele>
        <time>2011-06-25T10:02:01Z</time>
      </trkpt>
      <trkpt lat="43.322617" lon="-8.417863">
        <ele>242.0</ele>
        <time>2011-06-25T10:02:02Z</time>
      </trkpt>
      <trkpt lat="43.322612" lon="-8.417843">
        <ele>242.0</ele>
        <time>2011-06-25T10:02:03Z</time>
      </trkpt>
      <trkpt lat="43.322602" lon="-8.417825">
        <ele>242.5</ele>
        <time>2011-06-25T10:02:04Z</time>
      </trkpt>
      <trkpt lat="43.322592" lon="-8.417812">
        <ele>243.5</ele>
        <time>2011-06-25T10:02:05Z</time>
      </trkpt>
      <trkpt lat="43.322587" lon="-8.417792">
        <ele>242.5</ele>
        <time>2011-06-25T10:02:06Z</time>
      </trkpt>
      <trkpt lat="43.322583" lon="-8.417768">
        <ele>240.5</ele>
        <time>2011-06-25T10:02:07Z</time>
      </trkpt>
      <trkpt lat="43.322583" lon="-8.417738">
        <ele>238.0</ele>
        <time>2011-06-25T10:02:08Z</time>
      </trkpt>
      <trkpt lat="43.322573" lon="-8.417725">
        <ele>239.5</ele>
        <time>2011-06-25T10:02:09Z</time>
      </trkpt>
      <trkpt lat="43.322567" lon="-8.417705">
        <ele>239.5</ele>
        <time>2011-06-25T10:02:10Z</time>
      </trkpt>
      <trkpt lat="43.322563" lon="-8.417683">
        <ele>239.5</ele>
        <time>2011-06-25T10:02:11Z</time>
      </trkpt>
      <trkpt lat="43.322563" lon="-8.417662">
        <ele>238.5</ele>
        <time>2011-06-25T10:02:12Z</time>
      </trkpt>
      <trkpt lat="43.322558" lon="-8.417640">
        <ele>240.0</ele>
        <time>2011-06-25T10:02:13Z</time>
      </trkpt>
      <trkpt lat="43.322557" lon="-8.417625">
        <ele>240.5</ele>
        <time>2011-06-25T10:02:14Z</time>
      </trkpt>
      <trkpt lat="43.322553" lon="-8.417617">
        <ele>241.0</ele>
        <time>2011-06-25T10:02:15Z</time>
      </trkpt>
      <trkpt lat="43.322550" lon="-8.417608">
        <ele>242.0</ele>
        <time>2011-06-25T10:02:16Z</time>
      </trkpt>
      <trkpt lat="43.322548" lon="-8.417595">
        <ele>243.0</ele>
        <time>2011-06-25T10:02:17Z</time>
      </trkpt>
      <trkpt lat="43.322550" lon="-8.417572">
        <ele>240.5</ele>
        <time>2011-06-25T10:02:18Z</time>
      </trkpt>
      <trkpt lat="43.322548" lon="-8.417547">
        <ele>239.0</ele>
        <time>2011-06-25T10:02:19Z</time>
      </trkpt>
      <trkpt lat="43.322545" lon="-8.417525">
        <ele>238.0</ele>
        <time>2011-06-25T10:02:20Z</time>
      </trkpt>
      <trkpt lat="43.322540" lon="-8.417510">
        <ele>239.5</ele>
        <time>2011-06-25T10:02:21Z</time>
      </trkpt>
      <trkpt lat="43.322553" lon="-8.417477">
        <ele>236.0</ele>
        <time>2011-06-25T10:02:22Z</time>
      </trkpt>
      <trkpt lat="43.322552" lon="-8.417452">
        <ele>236.5</ele>
        <time>2011-06-25T10:02:23Z</time>
      </trkpt>
      <trkpt lat="43.322553" lon="-8.417425">
        <ele>237.0</ele>
        <time>2011-06-25T10:02:24Z</time>
      </trkpt>
      <trkpt lat="43.322547" lon="-8.417412">
        <ele>239.0</ele>
        <time>2011-06-25T10:02:25Z</time>
      </trkpt>
      <trkpt lat="43.322542" lon="-8.417390">
        <ele>239.0</ele>
        <time>2011-06-25T10:02:26Z</time>
      </trkpt>
      <trkpt lat="43.322542" lon="-8.417362">
        <ele>238.5</ele>
        <time>2011-06-25T10:02:27Z</time>
      </trkpt>
      <trkpt lat="43.322548" lon="-8.417322">
        <ele>236.5</ele>
        <time>2011-06-25T10:02:28Z</time>
      </trkpt>
      <trkpt lat="43.322552" lon="-8.417288">
        <ele>234.5</ele>
        <time>2011-06-25T10:02:29Z</time>
      </trkpt>
      <trkpt lat="43.322550" lon="-8.417267">
        <ele>235.0</ele>
        <time>2011-06-25T10:02:30Z</time>
      </trkpt>
      <trkpt lat="43.322550" lon="-8.417228">
        <ele>233.5</ele>
        <time>2011-06-25T10:02:31Z</time>
      </trkpt>
      <trkpt lat="43.322542" lon="-8.417202">
        <ele>235.0</ele>
        <time>2011-06-25T10:02:32Z</time>
      </trkpt>
      <trkpt lat="43.322543" lon="-8.417180">
        <ele>234.0</ele>
        <time>2011-06-25T10:02:33Z</time>
      </trkpt>
      <trkpt lat="43.322540" lon="-8.417168">
        <ele>235.0</ele>
        <time>2011-06-25T10:02:34Z</time>
      </trkpt>
      <trkpt lat="43.322538" lon="-8.417152">
        <ele>235.0</ele>
        <time>2011-06-25T10:02:35Z</time>
      </trkpt>
      <trkpt lat="43.322538" lon="-8.417133">
        <ele>235.5</ele>
        <time>2011-06-25T10:02:36Z</time>
      </trkpt>
      <trkpt lat="43.322537" lon="-8.417113">
        <ele>235.5</ele>
        <time>2011-06-25T10:02:37Z</time>
      </trkpt>
      <trkpt lat="43.322537" lon="-8.417092">
        <ele>235.0</ele>
        <time>2011-06-25T10:02:38Z</time>
      </trkpt>
      <trkpt lat="43.322537" lon="-8.417068">
        <ele>234.5</ele>
        <time>2011-06-25T10:02:39Z</time>
      </trkpt>
      <trkpt lat="43.322537" lon="-8.417045">
        <ele>234.5</ele>
        <time>2011-06-25T10:02:40Z</time>
      </trkpt>
      <trkpt lat="43.322532" lon="-8.417023">
        <ele>234.5</ele>
        <time>2011-06-25T10:02:41Z</time>
      </trkpt>
      <trkpt lat="43.322527" lon="-8.417005">
        <ele>235.0</ele>
        <time>2011-06-25T10:02:42Z</time>
      </trkpt>
      <trkpt lat="43.322528" lon="-8.416985">
        <ele>234.5</ele>
        <time>2011-06-25T10:02:43Z</time>
      </trkpt>
      <trkpt lat="43.322523" lon="-8.416957">
        <ele>234.5</ele>
        <time>2011-06-25T10:02:44Z</time>
      </trkpt>
      <trkpt lat="43.322520" lon="-8.416927">
        <ele>235.0</ele>
        <time>2011-06-25T10:02:45Z</time>
      </trkpt>
      <trkpt lat="43.322518" lon="-8.416903">
        <ele>235.0</ele>
        <time>2011-06-25T10:02:46Z</time>
      </trkpt>
      <trkpt lat="43.322517" lon="-8.416880">
        <ele>234.5</ele>
        <time>2011-06-25T10:02:47Z</time>
      </trkpt>
      <trkpt lat="43.322513" lon="-8.416857">
        <ele>234.5</ele>
        <time>2011-06-25T10:02:48Z</time>
      </trkpt>
      <trkpt lat="43.322512" lon="-8.416840">
        <ele>234.5</ele>
        <time>2011-06-25T10:02:49Z</time>
      </trkpt>
      <trkpt lat="43.322508" lon="-8.416823">
        <ele>234.5</ele>
        <time>2011-06-25T10:02:50Z</time>
      </trkpt>
      <trkpt lat="43.322502" lon="-8.416808">
        <ele>234.0</ele>
        <time>2011-06-25T10:02:51Z</time>
      </trkpt>
      <trkpt lat="43.322490" lon="-8.416797">
        <ele>235.0</ele>
        <time>2011-06-25T10:02:52Z</time>
      </trkpt>
      <trkpt lat="43.322478" lon="-8.416792">
        <ele>235.0</ele>
        <time>2011-06-25T10:02:53Z</time>
      </trkpt>
      <trkpt lat="43.322468" lon="-8.416783">
        <ele>235.0</ele>
        <time>2011-06-25T10:02:54Z</time>
      </trkpt>
      <trkpt lat="43.322455" lon="-8.416778">
        <ele>235.0</ele>
        <time>2011-06-25T10:02:55Z</time>
      </trkpt>
      <trkpt lat="43.322442" lon="-8.416782">
        <ele>235.5</ele>
        <time>2011-06-25T10:02:56Z</time>
      </trkpt>
      <trkpt lat="43.322440" lon="-8.416763">
        <ele>233.0</ele>
        <time>2011-06-25T10:02:57Z</time>
      </trkpt>
      <trkpt lat="43.322437" lon="-8.416745">
        <ele>230.5</ele>
        <time>2011-06-25T10:02:58Z</time>
      </trkpt>
      <trkpt lat="43.322432" lon="-8.416725">
        <ele>228.0</ele>
        <time>2011-06-25T10:02:59Z</time>
      </trkpt>
      <trkpt lat="43.322422" lon="-8.416720">
        <ele>226.0</ele>
        <time>2011-06-25T10:03:00Z</time>
      </trkpt>
      <trkpt lat="43.322408" lon="-8.416707">
        <ele>224.5</ele>
        <time>2011-06-25T10:03:01Z</time>
      </trkpt>
      <trkpt lat="43.322385" lon="-8.416705">
        <ele>225.5</ele>
        <time>2011-06-25T10:03:02Z</time>
      </trkpt>
      <trkpt lat="43.322368" lon="-8.416703">
        <ele>224.5</ele>
        <time>2011-06-25T10:03:03Z</time>
      </trkpt>
      <trkpt lat="43.322348" lon="-8.416708">
        <ele>224.5</ele>
        <time>2011-06-25T10:03:04Z</time>
      </trkpt>
      <trkpt lat="43.322325" lon="-8.416712">
        <ele>224.5</ele>
        <time>2011-06-25T10:03:05Z</time>
      </trkpt>
      <trkpt lat="43.322302" lon="-8.416710">
        <ele>224.0</ele>
        <time>2011-06-25T10:03:06Z</time>
      </trkpt>
      <trkpt lat="43.322280" lon="-8.416707">
        <ele>224.0</ele>
        <time>2011-06-25T10:03:07Z</time>
      </trkpt>
      <trkpt lat="43.322258" lon="-8.416695">
        <ele>224.0</ele>
        <time>2011-06-25T10:03:08Z</time>
      </trkpt>
      <trkpt lat="43.322228" lon="-8.416675">
        <ele>224.0</ele>
        <time>2011-06-25T10:03:09Z</time>
      </trkpt>
      <trkpt lat="43.322202" lon="-8.416647">
        <ele>224.0</ele>
        <time>2011-06-25T10:03:10Z</time>
      </trkpt>
      <trkpt lat="43.322177" lon="-8.416623">
        <ele>224.0</ele>
        <time>2011-06-25T10:03:11Z</time>
      </trkpt>
      <trkpt lat="43.322155" lon="-8.416595">
        <ele>223.5</ele>
        <time>2011-06-25T10:03:12Z</time>
      </trkpt>
      <trkpt lat="43.322142" lon="-8.416578">
        <ele>223.0</ele>
        <time>2011-06-25T10:03:13Z</time>
      </trkpt>
      <trkpt lat="43.322122" lon="-8.416572">
        <ele>223.0</ele>
        <time>2011-06-25T10:03:14Z</time>
      </trkpt>
      <trkpt lat="43.322098" lon="-8.416570">
        <ele>223.0</ele>
        <time>2011-06-25T10:03:15Z</time>
      </trkpt>
      <trkpt lat="43.322075" lon="-8.416563">
        <ele>222.5</ele>
        <time>2011-06-25T10:03:16Z</time>
      </trkpt>
      <trkpt lat="43.322052" lon="-8.416560">
        <ele>222.5</ele>
        <time>2011-06-25T10:03:17Z</time>
      </trkpt>
      <trkpt lat="43.322028" lon="-8.416557">
        <ele>222.5</ele>
        <time>2011-06-25T10:03:18Z</time>
      </trkpt>
      <trkpt lat="43.322008" lon="-8.416560">
        <ele>223.0</ele>
        <time>2011-06-25T10:03:19Z</time>
      </trkpt>
      <trkpt lat="43.321985" lon="-8.416562">
        <ele>223.5</ele>
        <time>2011-06-25T10:03:20Z</time>
      </trkpt>
      <trkpt lat="43.321958" lon="-8.416562">
        <ele>223.5</ele>
        <time>2011-06-25T10:03:21Z</time>
      </trkpt>
      <trkpt lat="43.321937" lon="-8.416562">
        <ele>223.5</ele>
        <time>2011-06-25T10:03:22Z</time>
      </trkpt>
      <trkpt lat="43.321917" lon="-8.416563">
        <ele>223.0</ele>
        <time>2011-06-25T10:03:23Z</time>
      </trkpt>
      <trkpt lat="43.321898" lon="-8.416572">
        <ele>223.5</ele>
        <time>2011-06-25T10:03:24Z</time>
      </trkpt>
      <trkpt lat="43.321883" lon="-8.416575">
        <ele>223.5</ele>
        <time>2011-06-25T10:03:25Z</time>
      </trkpt>
      <trkpt lat="43.321868" lon="-8.416578">
        <ele>223.0</ele>
        <time>2011-06-25T10:03:26Z</time>
      </trkpt>
      <trkpt lat="43.321858" lon="-8.416587">
        <ele>223.0</ele>
        <time>2011-06-25T10:03:27Z</time>
      </trkpt>
      <trkpt lat="43.321845" lon="-8.416595">
        <ele>223.0</ele>
        <time>2011-06-25T10:03:28Z</time>
      </trkpt>
      <trkpt lat="43.321832" lon="-8.416602">
        <ele>223.0</ele>
        <time>2011-06-25T10:03:29Z</time>
      </trkpt>
      <trkpt lat="43.321818" lon="-8.416608">
        <ele>223.0</ele>
        <time>2011-06-25T10:03:30Z</time>
      </trkpt>
      <trkpt lat="43.321808" lon="-8.416612">
        <ele>222.5</ele>
        <time>2011-06-25T10:03:31Z</time>
      </trkpt>
      <trkpt lat="43.321795" lon="-8.416613">
        <ele>222.0</ele>
        <time>2011-06-25T10:03:32Z</time>
      </trkpt>
      <trkpt lat="43.321785" lon="-8.416617">
        <ele>222.0</ele>
        <time>2011-06-25T10:03:33Z</time>
      </trkpt>
      <trkpt lat="43.321772" lon="-8.416620">
        <ele>221.5</ele>
        <time>2011-06-25T10:03:34Z</time>
      </trkpt>
      <trkpt lat="43.321755" lon="-8.416627">
        <ele>221.0</ele>
        <time>2011-06-25T10:03:35Z</time>
      </trkpt>
      <trkpt lat="43.321737" lon="-8.416635">
        <ele>221.0</ele>
        <time>2011-06-25T10:03:36Z</time>
      </trkpt>
      <trkpt lat="43.321720" lon="-8.416647">
        <ele>221.0</ele>
        <time>2011-06-25T10:03:37Z</time>
      </trkpt>
      <trkpt lat="43.321707" lon="-8.416662">
        <ele>221.0</ele>
        <time>2011-06-25T10:03:38Z</time>
      </trkpt>
      <trkpt lat="43.321698" lon="-8.416677">
        <ele>221.0</ele>
        <time>2011-06-25T10:03:39Z</time>
      </trkpt>
      <trkpt lat="43.321682" lon="-8.416692">
        <ele>220.0</ele>
        <time>2011-06-25T10:03:40Z</time>
      </trkpt>
      <trkpt lat="43.321653" lon="-8.416713">
        <ele>220.0</ele>
        <time>2011-06-25T10:03:41Z</time>
      </trkpt>
      <trkpt lat="43.321623" lon="-8.416732">
        <ele>219.5</ele>
        <time>2011-06-25T10:03:42Z</time>
      </trkpt>
      <trkpt lat="43.321592" lon="-8.416750">
        <ele>219.5</ele>
        <time>2011-06-25T10:03:43Z</time>
      </trkpt>
      <trkpt lat="43.321565" lon="-8.416767">
        <ele>219.0</ele>
        <time>2011-06-25T10:03:44Z</time>
      </trkpt>
      <trkpt lat="43.321537" lon="-8.416780">
        <ele>219.0</ele>
        <time>2011-06-25T10:03:45Z</time>
      </trkpt>
      <trkpt lat="43.321510" lon="-8.416790">
        <ele>219.0</ele>
        <time>2011-06-25T10:03:46Z</time>
      </trkpt>
      <trkpt lat="43.321488" lon="-8.416800">
        <ele>219.0</ele>
        <time>2011-06-25T10:03:47Z</time>
      </trkpt>
      <trkpt lat="43.321468" lon="-8.416808">
        <ele>219.5</ele>
        <time>2011-06-25T10:03:48Z</time>
      </trkpt>
      <trkpt lat="43.321445" lon="-8.416812">
        <ele>220.0</ele>
        <time>2011-06-25T10:03:49Z</time>
      </trkpt>
      <trkpt lat="43.321423" lon="-8.416815">
        <ele>220.5</ele>
        <time>2011-06-25T10:03:50Z</time>
      </trkpt>
      <trkpt lat="43.321400" lon="-8.416810">
        <ele>220.5</ele>
        <time>2011-06-25T10:03:51Z</time>
      </trkpt>
      <trkpt lat="43.321382" lon="-8.416802">
        <ele>220.0</ele>
        <time>2011-06-25T10:03:52Z</time>
      </trkpt>
      <trkpt lat="43.321363" lon="-8.416802">
        <ele>220.5</ele>
        <time>2011-06-25T10:03:53Z</time>
      </trkpt>
      <trkpt lat="43.321347" lon="-8.416787">
        <ele>220.5</ele>
        <time>2011-06-25T10:03:54Z</time>
      </trkpt>
      <trkpt lat="43.321330" lon="-8.416778">
        <ele>221.0</ele>
        <time>2011-06-25T10:03:55Z</time>
      </trkpt>
      <trkpt lat="43.321312" lon="-8.416770">
        <ele>221.0</ele>
        <time>2011-06-25T10:03:56Z</time>
      </trkpt>
      <trkpt lat="43.321290" lon="-8.416760">
        <ele>221.0</ele>
        <time>2011-06-25T10:03:57Z</time>
      </trkpt>
      <trkpt lat="43.321262" lon="-8.416752">
        <ele>221.0</ele>
        <time>2011-06-25T10:03:58Z</time>
      </trkpt>
      <trkpt lat="43.321228" lon="-8.416743">
        <ele>221.5</ele>
        <time>2011-06-25T10:03:59Z</time>
      </trkpt>
      <trkpt lat="43.321200" lon="-8.416728">
        <ele>221.5</ele>
        <time>2011-06-25T10:04:00Z</time>
      </trkpt>
      <trkpt lat="43.321172" lon="-8.416718">
        <ele>221.0</ele>
        <time>2011-06-25T10:04:01Z</time>
      </trkpt>
      <trkpt lat="43.321135" lon="-8.416718">
        <ele>221.0</ele>
        <time>2011-06-25T10:04:02Z</time>
      </trkpt>
      <trkpt lat="43.321090" lon="-8.416737">
        <ele>221.0</ele>
        <time>2011-06-25T10:04:03Z</time>
      </trkpt>
      <trkpt lat="43.321050" lon="-8.416755">
        <ele>220.0</ele>
        <time>2011-06-25T10:04:04Z</time>
      </trkpt>
      <trkpt lat="43.321008" lon="-8.416768">
        <ele>219.5</ele>
        <time>2011-06-25T10:04:05Z</time>
      </trkpt>
      <trkpt lat="43.320975" lon="-8.416788">
        <ele>218.5</ele>
        <time>2011-06-25T10:04:06Z</time>
      </trkpt>
      <trkpt lat="43.320950" lon="-8.416812">
        <ele>218.0</ele>
        <time>2011-06-25T10:04:07Z</time>
      </trkpt>
      <trkpt lat="43.320952" lon="-8.416835">
        <ele>218.0</ele>
        <time>2011-06-25T10:04:08Z</time>
      </trkpt>
      <trkpt lat="43.321032" lon="-8.417023">
        <ele>216.0</ele>
        <time>2011-06-25T10:04:11Z</time>
      </trkpt>
      <trkpt lat="43.321005" lon="-8.417073">
        <ele>215.5</ele>
        <time>2011-06-25T10:04:12Z</time>
      </trkpt>
      <trkpt lat="43.320975" lon="-8.417115">
        <ele>216.0</ele>
        <time>2011-06-25T10:04:13Z</time>
      </trkpt>
      <trkpt lat="43.320933" lon="-8.417135">
        <ele>215.5</ele>
        <time>2011-06-25T10:04:14Z</time>
      </trkpt>
      <trkpt lat="43.320888" lon="-8.417157">
        <ele>215.5</ele>
        <time>2011-06-25T10:04:15Z</time>
      </trkpt>
      <trkpt lat="43.320842" lon="-8.417182">
        <ele>215.5</ele>
        <time>2011-06-25T10:04:16Z</time>
      </trkpt>
      <trkpt lat="43.320803" lon="-8.417213">
        <ele>215.0</ele>
        <time>2011-06-25T10:04:17Z</time>
      </trkpt>
      <trkpt lat="43.320762" lon="-8.417242">
        <ele>215.0</ele>
        <time>2011-06-25T10:04:18Z</time>
      </trkpt>
      <trkpt lat="43.320720" lon="-8.417267">
        <ele>215.0</ele>
        <time>2011-06-25T10:04:19Z</time>
      </trkpt>
      <trkpt lat="43.320683" lon="-8.417283">
        <ele>214.5</ele>
        <time>2011-06-25T10:04:20Z</time>
      </trkpt>
      <trkpt lat="43.320647" lon="-8.417303">
        <ele>215.5</ele>
        <time>2011-06-25T10:04:21Z</time>
      </trkpt>
      <trkpt lat="43.320607" lon="-8.417302">
        <ele>215.5</ele>
        <time>2011-06-25T10:04:22Z</time>
      </trkpt>
      <trkpt lat="43.320575" lon="-8.417310">
        <ele>215.5</ele>
        <time>2011-06-25T10:04:23Z</time>
      </trkpt>
      <trkpt lat="43.320540" lon="-8.417317">
        <ele>215.5</ele>
        <time>2011-06-25T10:04:24Z</time>
      </trkpt>
      <trkpt lat="43.320508" lon="-8.417352">
        <ele>214.0</ele>
        <time>2011-06-25T10:04:25Z</time>
      </trkpt>
      <trkpt lat="43.320472" lon="-8.417383">
        <ele>215.0</ele>
        <time>2011-06-25T10:04:26Z</time>
      </trkpt>
      <trkpt lat="43.320435" lon="-8.417415">
        <ele>215.0</ele>
        <time>2011-06-25T10:04:27Z</time>
      </trkpt>
      <trkpt lat="43.320397" lon="-8.417443">
        <ele>216.5</ele>
        <time>2011-06-25T10:04:28Z</time>
      </trkpt>
      <trkpt lat="43.320365" lon="-8.417477">
        <ele>217.0</ele>
        <time>2011-06-25T10:04:29Z</time>
      </trkpt>
      <trkpt lat="43.320352" lon="-8.417513">
        <ele>217.0</ele>
        <time>2011-06-25T10:04:30Z</time>
      </trkpt>
      <trkpt lat="43.320322" lon="-8.417540">
        <ele>217.5</ele>
        <time>2011-06-25T10:04:31Z</time>
      </trkpt>
      <trkpt lat="43.320312" lon="-8.417567">
        <ele>217.5</ele>
        <time>2011-06-25T10:04:32Z</time>
      </trkpt>
      <trkpt lat="43.320273" lon="-8.417577">
        <ele>217.5</ele>
        <time>2011-06-25T10:04:33Z</time>
      </trkpt>
      <trkpt lat="43.320242" lon="-8.417587">
        <ele>217.5</ele>
        <time>2011-06-25T10:04:34Z</time>
      </trkpt>
      <trkpt lat="43.320228" lon="-8.417605">
        <ele>217.5</ele>
        <time>2011-06-25T10:04:35Z</time>
      </trkpt>
      <trkpt lat="43.320178" lon="-8.417625">
        <ele>217.5</ele>
        <time>2011-06-25T10:04:37Z</time>
      </trkpt>
      <trkpt lat="43.320153" lon="-8.417633">
        <ele>219.0</ele>
        <time>2011-06-25T10:04:38Z</time>
      </trkpt>
      <trkpt lat="43.320150" lon="-8.417672">
        <ele>217.5</ele>
        <time>2011-06-25T10:04:39Z</time>
      </trkpt>
      <trkpt lat="43.320140" lon="-8.417698">
        <ele>217.5</ele>
        <time>2011-06-25T10:04:40Z</time>
      </trkpt>
      <trkpt lat="43.320133" lon="-8.417727">
        <ele>217.5</ele>
        <time>2011-06-25T10:04:41Z</time>
      </trkpt>
      <trkpt lat="43.320105" lon="-8.417747">
        <ele>217.5</ele>
        <time>2011-06-25T10:04:42Z</time>
      </trkpt>
      <trkpt lat="43.320070" lon="-8.417762">
        <ele>217.0</ele>
        <time>2011-06-25T10:04:43Z</time>
      </trkpt>
      <trkpt lat="43.320032" lon="-8.417780">
        <ele>216.5</ele>
        <time>2011-06-25T10:04:44Z</time>
      </trkpt>
      <trkpt lat="43.320013" lon="-8.417803">
        <ele>217.5</ele>
        <time>2011-06-25T10:04:45Z</time>
      </trkpt>
      <trkpt lat="43.319993" lon="-8.417823">
        <ele>217.5</ele>
        <time>2011-06-25T10:04:46Z</time>
      </trkpt>
      <trkpt lat="43.319965" lon="-8.417838">
        <ele>217.5</ele>
        <time>2011-06-25T10:04:47Z</time>
      </trkpt>
      <trkpt lat="43.319937" lon="-8.417847">
        <ele>217.0</ele>
        <time>2011-06-25T10:04:48Z</time>
      </trkpt>
      <trkpt lat="43.319910" lon="-8.417868">
        <ele>217.0</ele>
        <time>2011-06-25T10:04:49Z</time>
      </trkpt>
      <trkpt lat="43.319895" lon="-8.417895">
        <ele>216.0</ele>
        <time>2011-06-25T10:04:50Z</time>
      </trkpt>
      <trkpt lat="43.319878" lon="-8.417922">
        <ele>215.5</ele>
        <time>2011-06-25T10:04:51Z</time>
      </trkpt>
      <trkpt lat="43.319852" lon="-8.417950">
        <ele>215.0</ele>
        <time>2011-06-25T10:04:52Z</time>
      </trkpt>
      <trkpt lat="43.319840" lon="-8.417982">
        <ele>215.0</ele>
        <time>2011-06-25T10:04:53Z</time>
      </trkpt>
      <trkpt lat="43.319813" lon="-8.418003">
        <ele>215.0</ele>
        <time>2011-06-25T10:04:54Z</time>
      </trkpt>
      <trkpt lat="43.319753" lon="-8.418030">
        <ele>215.0</ele>
        <time>2011-06-25T10:04:56Z</time>
      </trkpt>
      <trkpt lat="43.319728" lon="-8.418047">
        <ele>215.5</ele>
        <time>2011-06-25T10:04:57Z</time>
      </trkpt>
      <trkpt lat="43.319702" lon="-8.418062">
        <ele>215.5</ele>
        <time>2011-06-25T10:04:58Z</time>
      </trkpt>
      <trkpt lat="43.319668" lon="-8.418092">
        <ele>216.0</ele>
        <time>2011-06-25T10:05:00Z</time>
      </trkpt>
      <trkpt lat="43.319645" lon="-8.418108">
        <ele>216.0</ele>
        <time>2011-06-25T10:05:01Z</time>
      </trkpt>
      <trkpt lat="43.319627" lon="-8.418117">
        <ele>216.0</ele>
        <time>2011-06-25T10:05:02Z</time>
      </trkpt>
      <trkpt lat="43.319598" lon="-8.418120">
        <ele>216.5</ele>
        <time>2011-06-25T10:05:03Z</time>
      </trkpt>
      <trkpt lat="43.319573" lon="-8.418127">
        <ele>215.5</ele>
        <time>2011-06-25T10:05:04Z</time>
      </trkpt>
      <trkpt lat="43.319548" lon="-8.418143">
        <ele>215.0</ele>
        <time>2011-06-25T10:05:05Z</time>
      </trkpt>
      <trkpt lat="43.319480" lon="-8.418190">
        <ele>214.5</ele>
        <time>2011-06-25T10:05:07Z</time>
      </trkpt>
      <trkpt lat="43.319483" lon="-8.418235">
        <ele>214.0</ele>
        <time>2011-06-25T10:05:08Z</time>
      </trkpt>
      <trkpt lat="43.319473" lon="-8.418278">
        <ele>214.0</ele>
        <time>2011-06-25T10:05:09Z</time>
      </trkpt>
      <trkpt lat="43.319462" lon="-8.418325">
        <ele>214.0</ele>
        <time>2011-06-25T10:05:10Z</time>
      </trkpt>
      <trkpt lat="43.319445" lon="-8.418367">
        <ele>215.0</ele>
        <time>2011-06-25T10:05:11Z</time>
      </trkpt>
      <trkpt lat="43.319420" lon="-8.418408">
        <ele>216.5</ele>
        <time>2011-06-25T10:05:12Z</time>
      </trkpt>
      <trkpt lat="43.319402" lon="-8.418447">
        <ele>218.5</ele>
        <time>2011-06-25T10:05:13Z</time>
      </trkpt>
      <trkpt lat="43.319400" lon="-8.418483">
        <ele>218.5</ele>
        <time>2011-06-25T10:05:14Z</time>
      </trkpt>
      <trkpt lat="43.319395" lon="-8.418517">
        <ele>218.5</ele>
        <time>2011-06-25T10:05:15Z</time>
      </trkpt>
      <trkpt lat="43.319388" lon="-8.418560">
        <ele>221.0</ele>
        <time>2011-06-25T10:05:16Z</time>
      </trkpt>
      <trkpt lat="43.319368" lon="-8.418603">
        <ele>224.5</ele>
        <time>2011-06-25T10:05:17Z</time>
      </trkpt>
      <trkpt lat="43.319343" lon="-8.418648">
        <ele>227.5</ele>
        <time>2011-06-25T10:05:18Z</time>
      </trkpt>
      <trkpt lat="43.319328" lon="-8.418695">
        <ele>228.0</ele>
        <time>2011-06-25T10:05:19Z</time>
      </trkpt>
      <trkpt lat="43.319300" lon="-8.418723">
        <ele>228.5</ele>
        <time>2011-06-25T10:05:20Z</time>
      </trkpt>
      <trkpt lat="43.319268" lon="-8.418763">
        <ele>229.5</ele>
        <time>2011-06-25T10:05:21Z</time>
      </trkpt>
      <trkpt lat="43.319187" lon="-8.418833">
        <ele>230.0</ele>
        <time>2011-06-25T10:05:23Z</time>
      </trkpt>
      <trkpt lat="43.319165" lon="-8.418873">
        <ele>231.0</ele>
        <time>2011-06-25T10:05:24Z</time>
      </trkpt>
      <trkpt lat="43.319143" lon="-8.418913">
        <ele>233.5</ele>
        <time>2011-06-25T10:05:25Z</time>
      </trkpt>
      <trkpt lat="43.319128" lon="-8.418957">
        <ele>234.0</ele>
        <time>2011-06-25T10:05:26Z</time>
      </trkpt>
      <trkpt lat="43.319112" lon="-8.419000">
        <ele>235.0</ele>
        <time>2011-06-25T10:05:27Z</time>
      </trkpt>
      <trkpt lat="43.319093" lon="-8.419040">
        <ele>236.0</ele>
        <time>2011-06-25T10:05:28Z</time>
      </trkpt>
      <trkpt lat="43.319090" lon="-8.419068">
        <ele>238.0</ele>
        <time>2011-06-25T10:05:29Z</time>
      </trkpt>
      <trkpt lat="43.319077" lon="-8.419095">
        <ele>239.0</ele>
        <time>2011-06-25T10:05:30Z</time>
      </trkpt>
      <trkpt lat="43.319065" lon="-8.419117">
        <ele>239.5</ele>
        <time>2011-06-25T10:05:31Z</time>
      </trkpt>
      <trkpt lat="43.319058" lon="-8.419147">
        <ele>239.0</ele>
        <time>2011-06-25T10:05:32Z</time>
      </trkpt>
      <trkpt lat="43.319042" lon="-8.419177">
        <ele>239.0</ele>
        <time>2011-06-25T10:05:33Z</time>
      </trkpt>
      <trkpt lat="43.319030" lon="-8.419210">
        <ele>239.0</ele>
        <time>2011-06-25T10:05:34Z</time>
      </trkpt>
      <trkpt lat="43.318998" lon="-8.419242">
        <ele>238.5</ele>
        <time>2011-06-25T10:05:35Z</time>
      </trkpt>
      <trkpt lat="43.318967" lon="-8.419265">
        <ele>239.0</ele>
        <time>2011-06-25T10:05:36Z</time>
      </trkpt>
      <trkpt lat="43.318973" lon="-8.419305">
        <ele>238.5</ele>
        <time>2011-06-25T10:05:37Z</time>
      </trkpt>
      <trkpt lat="43.318952" lon="-8.419343">
        <ele>238.5</ele>
        <time>2011-06-25T10:05:38Z</time>
      </trkpt>
      <trkpt lat="43.318942" lon="-8.419383">
        <ele>238.0</ele>
        <time>2011-06-25T10:05:39Z</time>
      </trkpt>
      <trkpt lat="43.318920" lon="-8.419415">
        <ele>238.5</ele>
        <time>2011-06-25T10:05:40Z</time>
      </trkpt>
      <trkpt lat="43.318903" lon="-8.419447">
        <ele>238.5</ele>
        <time>2011-06-25T10:05:41Z</time>
      </trkpt>
      <trkpt lat="43.318887" lon="-8.419475">
        <ele>239.5</ele>
        <time>2011-06-25T10:05:42Z</time>
      </trkpt>
      <trkpt lat="43.318870" lon="-8.419498">
        <ele>241.5</ele>
        <time>2011-06-25T10:05:43Z</time>
      </trkpt>
      <trkpt lat="43.318848" lon="-8.419510">
        <ele>241.5</ele>
        <time>2011-06-25T10:05:44Z</time>
      </trkpt>
      <trkpt lat="43.318828" lon="-8.419520">
        <ele>243.0</ele>
        <time>2011-06-25T10:05:45Z</time>
      </trkpt>
      <trkpt lat="43.318815" lon="-8.419530">
        <ele>244.0</ele>
        <time>2011-06-25T10:05:46Z</time>
      </trkpt>
      <trkpt lat="43.318803" lon="-8.419538">
        <ele>244.0</ele>
        <time>2011-06-25T10:05:47Z</time>
      </trkpt>
      <trkpt lat="43.318792" lon="-8.419555">
        <ele>241.5</ele>
        <time>2011-06-25T10:05:48Z</time>
      </trkpt>
      <trkpt lat="43.318782" lon="-8.419567">
        <ele>241.5</ele>
        <time>2011-06-25T10:05:49Z</time>
      </trkpt>
      <trkpt lat="43.318770" lon="-8.419568">
        <ele>242.0</ele>
        <time>2011-06-25T10:05:50Z</time>
      </trkpt>
      <trkpt lat="43.318757" lon="-8.419580">
        <ele>239.5</ele>
        <time>2011-06-25T10:05:51Z</time>
      </trkpt>
      <trkpt lat="43.318735" lon="-8.419593">
        <ele>236.5</ele>
        <time>2011-06-25T10:05:52Z</time>
      </trkpt>
      <trkpt lat="43.318738" lon="-8.419615">
        <ele>233.0</ele>
        <time>2011-06-25T10:05:53Z</time>
      </trkpt>
      <trkpt lat="43.318733" lon="-8.419617">
        <ele>232.5</ele>
        <time>2011-06-25T10:05:54Z</time>
      </trkpt>
      <trkpt lat="43.318713" lon="-8.419623">
        <ele>232.5</ele>
        <time>2011-06-25T10:05:55Z</time>
      </trkpt>
      <trkpt lat="43.318705" lon="-8.419638">
        <ele>231.5</ele>
        <time>2011-06-25T10:05:56Z</time>
      </trkpt>
      <trkpt lat="43.318680" lon="-8.419648">
        <ele>231.0</ele>
        <time>2011-06-25T10:05:57Z</time>
      </trkpt>
      <trkpt lat="43.318617" lon="-8.419668">
        <ele>231.0</ele>
        <time>2011-06-25T10:05:59Z</time>
      </trkpt>
      <trkpt lat="43.318568" lon="-8.419687">
        <ele>232.0</ele>
        <time>2011-06-25T10:06:01Z</time>
      </trkpt>
      <trkpt lat="43.318565" lon="-8.419698">
        <ele>231.0</ele>
        <time>2011-06-25T10:06:02Z</time>
      </trkpt>
      <trkpt lat="43.318557" lon="-8.419725">
        <ele>231.5</ele>
        <time>2011-06-25T10:06:03Z</time>
      </trkpt>
      <trkpt lat="43.318487" lon="-8.419795">
        <ele>237.0</ele>
        <time>2011-06-25T10:06:05Z</time>
      </trkpt>
      <trkpt lat="43.318357" lon="-8.419888">
        <ele>244.5</ele>
        <time>2011-06-25T10:06:08Z</time>
      </trkpt>
      <trkpt lat="43.318293" lon="-8.419918">
        <ele>247.0</ele>
        <time>2011-06-25T10:06:10Z</time>
      </trkpt>
      <trkpt lat="43.318278" lon="-8.419937">
        <ele>246.0</ele>
        <time>2011-06-25T10:06:11Z</time>
      </trkpt>
      <trkpt lat="43.318255" lon="-8.419955">
        <ele>245.0</ele>
        <time>2011-06-25T10:06:12Z</time>
      </trkpt>
      <trkpt lat="43.318238" lon="-8.419970">
        <ele>245.0</ele>
        <time>2011-06-25T10:06:13Z</time>
      </trkpt>
      <trkpt lat="43.318212" lon="-8.419980">
        <ele>245.0</ele>
        <time>2011-06-25T10:06:14Z</time>
      </trkpt>
      <trkpt lat="43.318198" lon="-8.419988">
        <ele>239.5</ele>
        <time>2011-06-25T10:06:15Z</time>
      </trkpt>
      <trkpt lat="43.318182" lon="-8.419993">
        <ele>235.5</ele>
        <time>2011-06-25T10:06:16Z</time>
      </trkpt>
      <trkpt lat="43.318178" lon="-8.419998">
        <ele>236.0</ele>
        <time>2011-06-25T10:06:17Z</time>
      </trkpt>
      <trkpt lat="43.318165" lon="-8.420003">
        <ele>236.5</ele>
        <time>2011-06-25T10:06:18Z</time>
      </trkpt>
      <trkpt lat="43.318163" lon="-8.420003">
        <ele>236.0</ele>
        <time>2011-06-25T10:06:19Z</time>
      </trkpt>
      <trkpt lat="43.318158" lon="-8.420010">
        <ele>235.0</ele>
        <time>2011-06-25T10:06:20Z</time>
      </trkpt>
      <trkpt lat="43.318150" lon="-8.420022">
        <ele>236.5</ele>
        <time>2011-06-25T10:06:21Z</time>
      </trkpt>
      <trkpt lat="43.318138" lon="-8.420037">
        <ele>240.0</ele>
        <time>2011-06-25T10:06:22Z</time>
      </trkpt>
      <trkpt lat="43.318100" lon="-8.420052">
        <ele>241.5</ele>
        <time>2011-06-25T10:06:24Z</time>
      </trkpt>
      <trkpt lat="43.318085" lon="-8.420050">
        <ele>242.0</ele>
        <time>2011-06-25T10:06:25Z</time>
      </trkpt>
      <trkpt lat="43.318072" lon="-8.420042">
        <ele>242.5</ele>
        <time>2011-06-25T10:06:26Z</time>
      </trkpt>
      <trkpt lat="43.318070" lon="-8.420038">
        <ele>243.0</ele>
        <time>2011-06-25T10:06:27Z</time>
      </trkpt>
      <trkpt lat="43.318062" lon="-8.420037">
        <ele>243.0</ele>
        <time>2011-06-25T10:06:28Z</time>
      </trkpt>
      <trkpt lat="43.318050" lon="-8.420025">
        <ele>242.0</ele>
        <time>2011-06-25T10:06:29Z</time>
      </trkpt>
      <trkpt lat="43.318032" lon="-8.420023">
        <ele>242.0</ele>
        <time>2011-06-25T10:06:30Z</time>
      </trkpt>
      <trkpt lat="43.318015" lon="-8.420020">
        <ele>242.0</ele>
        <time>2011-06-25T10:06:31Z</time>
      </trkpt>
      <trkpt lat="43.318005" lon="-8.420012">
        <ele>241.0</ele>
        <time>2011-06-25T10:06:32Z</time>
      </trkpt>
      <trkpt lat="43.317995" lon="-8.420008">
        <ele>241.0</ele>
        <time>2011-06-25T10:06:33Z</time>
      </trkpt>
      <trkpt lat="43.317983" lon="-8.420002">
        <ele>241.0</ele>
        <time>2011-06-25T10:06:34Z</time>
      </trkpt>
      <trkpt lat="43.317973" lon="-8.419993">
        <ele>240.5</ele>
        <time>2011-06-25T10:06:35Z</time>
      </trkpt>
      <trkpt lat="43.317950" lon="-8.419983">
        <ele>240.5</ele>
        <time>2011-06-25T10:06:36Z</time>
      </trkpt>
      <trkpt lat="43.317943" lon="-8.419975">
        <ele>241.0</ele>
        <time>2011-06-25T10:06:37Z</time>
      </trkpt>
      <trkpt lat="43.317942" lon="-8.419970">
        <ele>241.0</ele>
        <time>2011-06-25T10:06:38Z</time>
      </trkpt>
      <trkpt lat="43.317928" lon="-8.419965">
        <ele>241.0</ele>
        <time>2011-06-25T10:06:39Z</time>
      </trkpt>
      <trkpt lat="43.317918" lon="-8.419952">
        <ele>241.0</ele>
        <time>2011-06-25T10:06:40Z</time>
      </trkpt>
      <trkpt lat="43.317908" lon="-8.419942">
        <ele>241.5</ele>
        <time>2011-06-25T10:06:41Z</time>
      </trkpt>
      <trkpt lat="43.317897" lon="-8.419930">
        <ele>242.0</ele>
        <time>2011-06-25T10:06:42Z</time>
      </trkpt>
      <trkpt lat="43.317885" lon="-8.419917">
        <ele>242.0</ele>
        <time>2011-06-25T10:06:43Z</time>
      </trkpt>
      <trkpt lat="43.317865" lon="-8.419910">
        <ele>243.0</ele>
        <time>2011-06-25T10:06:44Z</time>
      </trkpt>
      <trkpt lat="43.317852" lon="-8.419902">
        <ele>243.0</ele>
        <time>2011-06-25T10:06:45Z</time>
      </trkpt>
      <trkpt lat="43.317843" lon="-8.419893">
        <ele>244.0</ele>
        <time>2011-06-25T10:06:46Z</time>
      </trkpt>
      <trkpt lat="43.317837" lon="-8.419885">
        <ele>244.5</ele>
        <time>2011-06-25T10:06:47Z</time>
      </trkpt>
      <trkpt lat="43.317830" lon="-8.419875">
        <ele>244.5</ele>
        <time>2011-06-25T10:06:48Z</time>
      </trkpt>
      <trkpt lat="43.317817" lon="-8.419868">
        <ele>245.5</ele>
        <time>2011-06-25T10:06:49Z</time>
      </trkpt>
      <trkpt lat="43.317810" lon="-8.419862">
        <ele>245.5</ele>
        <time>2011-06-25T10:06:50Z</time>
      </trkpt>
      <trkpt lat="43.317803" lon="-8.419848">
        <ele>245.5</ele>
        <time>2011-06-25T10:06:51Z</time>
      </trkpt>
      <trkpt lat="43.317798" lon="-8.419840">
        <ele>246.5</ele>
        <time>2011-06-25T10:06:52Z</time>
      </trkpt>
      <trkpt lat="43.317793" lon="-8.419828">
        <ele>247.5</ele>
        <time>2011-06-25T10:06:53Z</time>
      </trkpt>
      <trkpt lat="43.317788" lon="-8.419810">
        <ele>246.5</ele>
        <time>2011-06-25T10:06:54Z</time>
      </trkpt>
      <trkpt lat="43.317778" lon="-8.419802">
        <ele>247.5</ele>
        <time>2011-06-25T10:06:55Z</time>
      </trkpt>
      <trkpt lat="43.317772" lon="-8.419793">
        <ele>248.0</ele>
        <time>2011-06-25T10:06:56Z</time>
      </trkpt>
      <trkpt lat="43.317765" lon="-8.419787">
        <ele>248.5</ele>
        <time>2011-06-25T10:06:57Z</time>
      </trkpt>
      <trkpt lat="43.317757" lon="-8.419778">
        <ele>249.5</ele>
        <time>2011-06-25T10:06:58Z</time>
      </trkpt>
      <trkpt lat="43.317745" lon="-8.419758">
        <ele>249.0</ele>
        <time>2011-06-25T10:06:59Z</time>
      </trkpt>
      <trkpt lat="43.317738" lon="-8.419747">
        <ele>249.5</ele>
        <time>2011-06-25T10:07:00Z</time>
      </trkpt>
      <trkpt lat="43.317732" lon="-8.419738">
        <ele>250.5</ele>
        <time>2011-06-25T10:07:01Z</time>
      </trkpt>
      <trkpt lat="43.317725" lon="-8.419728">
        <ele>251.0</ele>
        <time>2011-06-25T10:07:02Z</time>
      </trkpt>
      <trkpt lat="43.317708" lon="-8.419708">
        <ele>250.0</ele>
        <time>2011-06-25T10:07:03Z</time>
      </trkpt>
      <trkpt lat="43.317702" lon="-8.419697">
        <ele>250.5</ele>
        <time>2011-06-25T10:07:04Z</time>
      </trkpt>
      <trkpt lat="43.317697" lon="-8.419683">
        <ele>251.5</ele>
        <time>2011-06-25T10:07:05Z</time>
      </trkpt>
      <trkpt lat="43.317687" lon="-8.419673">
        <ele>252.5</ele>
        <time>2011-06-25T10:07:06Z</time>
      </trkpt>
      <trkpt lat="43.317670" lon="-8.419650">
        <ele>252.0</ele>
        <time>2011-06-25T10:07:07Z</time>
      </trkpt>
      <trkpt lat="43.317662" lon="-8.419635">
        <ele>253.0</ele>
        <time>2011-06-25T10:07:08Z</time>
      </trkpt>
      <trkpt lat="43.317653" lon="-8.419623">
        <ele>254.0</ele>
        <time>2011-06-25T10:07:09Z</time>
      </trkpt>
      <trkpt lat="43.317640" lon="-8.419615">
        <ele>254.5</ele>
        <time>2011-06-25T10:07:10Z</time>
      </trkpt>
      <trkpt lat="43.317630" lon="-8.419598">
        <ele>254.5</ele>
        <time>2011-06-25T10:07:11Z</time>
      </trkpt>
      <trkpt lat="43.317622" lon="-8.419580">
        <ele>254.0</ele>
        <time>2011-06-25T10:07:12Z</time>
      </trkpt>
      <trkpt lat="43.317613" lon="-8.419557">
        <ele>252.5</ele>
        <time>2011-06-25T10:07:13Z</time>
      </trkpt>
      <trkpt lat="43.317607" lon="-8.419542">
        <ele>253.0</ele>
        <time>2011-06-25T10:07:14Z</time>
      </trkpt>
      <trkpt lat="43.317603" lon="-8.419525">
        <ele>253.0</ele>
        <time>2011-06-25T10:07:15Z</time>
      </trkpt>
      <trkpt lat="43.317600" lon="-8.419510">
        <ele>253.0</ele>
        <time>2011-06-25T10:07:16Z</time>
      </trkpt>
      <trkpt lat="43.317595" lon="-8.419495">
        <ele>253.0</ele>
        <time>2011-06-25T10:07:17Z</time>
      </trkpt>
      <trkpt lat="43.317590" lon="-8.419477">
        <ele>252.5</ele>
        <time>2011-06-25T10:07:18Z</time>
      </trkpt>
      <trkpt lat="43.317587" lon="-8.419460">
        <ele>252.0</ele>
        <time>2011-06-25T10:07:19Z</time>
      </trkpt>
      <trkpt lat="43.317583" lon="-8.419442">
        <ele>252.0</ele>
        <time>2011-06-25T10:07:20Z</time>
      </trkpt>
      <trkpt lat="43.317578" lon="-8.419427">
        <ele>251.5</ele>
        <time>2011-06-25T10:07:21Z</time>
      </trkpt>
      <trkpt lat="43.317573" lon="-8.419410">
        <ele>252.0</ele>
        <time>2011-06-25T10:07:22Z</time>
      </trkpt>
      <trkpt lat="43.317568" lon="-8.419392">
        <ele>251.5</ele>
        <time>2011-06-25T10:07:23Z</time>
      </trkpt>
      <trkpt lat="43.317563" lon="-8.419373">
        <ele>251.5</ele>
        <time>2011-06-25T10:07:24Z</time>
      </trkpt>
      <trkpt lat="43.317557" lon="-8.419353">
        <ele>251.0</ele>
        <time>2011-06-25T10:07:25Z</time>
      </trkpt>
      <trkpt lat="43.317548" lon="-8.419335">
        <ele>250.5</ele>
        <time>2011-06-25T10:07:26Z</time>
      </trkpt>
      <trkpt lat="43.317543" lon="-8.419317">
        <ele>250.5</ele>
        <time>2011-06-25T10:07:27Z</time>
      </trkpt>
      <trkpt lat="43.317540" lon="-8.419298">
        <ele>251.0</ele>
        <time>2011-06-25T10:07:28Z</time>
      </trkpt>
      <trkpt lat="43.317535" lon="-8.419280">
        <ele>251.0</ele>
        <time>2011-06-25T10:07:29Z</time>
      </trkpt>
      <trkpt lat="43.317528" lon="-8.419263">
        <ele>251.0</ele>
        <time>2011-06-25T10:07:30Z</time>
      </trkpt>
      <trkpt lat="43.317523" lon="-8.419245">
        <ele>251.0</ele>
        <time>2011-06-25T10:07:31Z</time>
      </trkpt>
      <trkpt lat="43.317518" lon="-8.419228">
        <ele>251.0</ele>
        <time>2011-06-25T10:07:32Z</time>
      </trkpt>
      <trkpt lat="43.317513" lon="-8.419210">
        <ele>251.5</ele>
        <time>2011-06-25T10:07:33Z</time>
      </trkpt>
      <trkpt lat="43.317510" lon="-8.419188">
        <ele>251.0</ele>
        <time>2011-06-25T10:07:34Z</time>
      </trkpt>
      <trkpt lat="43.317505" lon="-8.419172">
        <ele>251.5</ele>
        <time>2011-06-25T10:07:35Z</time>
      </trkpt>
      <trkpt lat="43.317500" lon="-8.419153">
        <ele>252.0</ele>
        <time>2011-06-25T10:07:36Z</time>
      </trkpt>
      <trkpt lat="43.317497" lon="-8.419132">
        <ele>252.0</ele>
        <time>2011-06-25T10:07:37Z</time>
      </trkpt>
      <trkpt lat="43.317493" lon="-8.419110">
        <ele>252.0</ele>
        <time>2011-06-25T10:07:38Z</time>
      </trkpt>
      <trkpt lat="43.317492" lon="-8.419092">
        <ele>252.5</ele>
        <time>2011-06-25T10:07:39Z</time>
      </trkpt>
      <trkpt lat="43.317488" lon="-8.419073">
        <ele>253.0</ele>
        <time>2011-06-25T10:07:40Z</time>
      </trkpt>
      <trkpt lat="43.317490" lon="-8.419053">
        <ele>253.0</ele>
        <time>2011-06-25T10:07:41Z</time>
      </trkpt>
      <trkpt lat="43.317488" lon="-8.419033">
        <ele>253.5</ele>
        <time>2011-06-25T10:07:42Z</time>
      </trkpt>
      <trkpt lat="43.317490" lon="-8.419012">
        <ele>254.0</ele>
        <time>2011-06-25T10:07:43Z</time>
      </trkpt>
      <trkpt lat="43.317492" lon="-8.418992">
        <ele>254.0</ele>
        <time>2011-06-25T10:07:44Z</time>
      </trkpt>
      <trkpt lat="43.317493" lon="-8.418973">
        <ele>254.5</ele>
        <time>2011-06-25T10:07:45Z</time>
      </trkpt>
      <trkpt lat="43.317495" lon="-8.418950">
        <ele>254.5</ele>
        <time>2011-06-25T10:07:46Z</time>
      </trkpt>
      <trkpt lat="43.317500" lon="-8.418928">
        <ele>255.0</ele>
        <time>2011-06-25T10:07:47Z</time>
      </trkpt>
      <trkpt lat="43.317507" lon="-8.418905">
        <ele>255.0</ele>
        <time>2011-06-25T10:07:48Z</time>
      </trkpt>
      <trkpt lat="43.317513" lon="-8.418883">
        <ele>255.0</ele>
        <time>2011-06-25T10:07:49Z</time>
      </trkpt>
      <trkpt lat="43.317520" lon="-8.418862">
        <ele>255.0</ele>
        <time>2011-06-25T10:07:50Z</time>
      </trkpt>
      <trkpt lat="43.317527" lon="-8.418842">
        <ele>255.5</ele>
        <time>2011-06-25T10:07:51Z</time>
      </trkpt>
      <trkpt lat="43.317533" lon="-8.418825">
        <ele>255.5</ele>
        <time>2011-06-25T10:07:52Z</time>
      </trkpt>
      <trkpt lat="43.317542" lon="-8.418805">
        <ele>255.5</ele>
        <time>2011-06-25T10:07:53Z</time>
      </trkpt>
      <trkpt lat="43.317548" lon="-8.418783">
        <ele>255.5</ele>
        <time>2011-06-25T10:07:54Z</time>
      </trkpt>
      <trkpt lat="43.317557" lon="-8.418752">
        <ele>255.0</ele>
        <time>2011-06-25T10:07:55Z</time>
      </trkpt>
      <trkpt lat="43.317565" lon="-8.418723">
        <ele>255.5</ele>
        <time>2011-06-25T10:07:56Z</time>
      </trkpt>
      <trkpt lat="43.317575" lon="-8.418695">
        <ele>255.0</ele>
        <time>2011-06-25T10:07:57Z</time>
      </trkpt>
      <trkpt lat="43.317585" lon="-8.418667">
        <ele>255.0</ele>
        <time>2011-06-25T10:07:58Z</time>
      </trkpt>
      <trkpt lat="43.317595" lon="-8.418633">
        <ele>254.5</ele>
        <time>2011-06-25T10:07:59Z</time>
      </trkpt>
      <trkpt lat="43.317603" lon="-8.418605">
        <ele>255.0</ele>
        <time>2011-06-25T10:08:00Z</time>
      </trkpt>
      <trkpt lat="43.317608" lon="-8.418577">
        <ele>255.0</ele>
        <time>2011-06-25T10:08:01Z</time>
      </trkpt>
      <trkpt lat="43.317615" lon="-8.418552">
        <ele>254.5</ele>
        <time>2011-06-25T10:08:02Z</time>
      </trkpt>
      <trkpt lat="43.317620" lon="-8.418530">
        <ele>255.0</ele>
        <time>2011-06-25T10:08:03Z</time>
      </trkpt>
      <trkpt lat="43.317625" lon="-8.418508">
        <ele>255.0</ele>
        <time>2011-06-25T10:08:04Z</time>
      </trkpt>
      <trkpt lat="43.317628" lon="-8.418487">
        <ele>255.0</ele>
        <time>2011-06-25T10:08:05Z</time>
      </trkpt>
      <trkpt lat="43.317633" lon="-8.418463">
        <ele>255.0</ele>
        <time>2011-06-25T10:08:06Z</time>
      </trkpt>
      <trkpt lat="43.317638" lon="-8.418440">
        <ele>255.0</ele>
        <time>2011-06-25T10:08:07Z</time>
      </trkpt>
      <trkpt lat="43.317642" lon="-8.418410">
        <ele>255.0</ele>
        <time>2011-06-25T10:08:08Z</time>
      </trkpt>
      <trkpt lat="43.317648" lon="-8.418383">
        <ele>255.0</ele>
        <time>2011-06-25T10:08:09Z</time>
      </trkpt>
      <trkpt lat="43.317652" lon="-8.418358">
        <ele>255.0</ele>
        <time>2011-06-25T10:08:10Z</time>
      </trkpt>
      <trkpt lat="43.317655" lon="-8.418333">
        <ele>255.0</ele>
        <time>2011-06-25T10:08:11Z</time>
      </trkpt>
      <trkpt lat="43.317658" lon="-8.418310">
        <ele>255.5</ele>
        <time>2011-06-25T10:08:12Z</time>
      </trkpt>
      <trkpt lat="43.317662" lon="-8.418285">
        <ele>255.5</ele>
        <time>2011-06-25T10:08:13Z</time>
      </trkpt>
      <trkpt lat="43.317662" lon="-8.418258">
        <ele>256.0</ele>
        <time>2011-06-25T10:08:14Z</time>
      </trkpt>
      <trkpt lat="43.317667" lon="-8.418230">
        <ele>256.0</ele>
        <time>2011-06-25T10:08:15Z</time>
      </trkpt>
      <trkpt lat="43.317672" lon="-8.418202">
        <ele>256.0</ele>
        <time>2011-06-25T10:08:16Z</time>
      </trkpt>
      <trkpt lat="43.317677" lon="-8.418173">
        <ele>256.0</ele>
        <time>2011-06-25T10:08:17Z</time>
      </trkpt>
      <trkpt lat="43.317680" lon="-8.418137">
        <ele>255.5</ele>
        <time>2011-06-25T10:08:18Z</time>
      </trkpt>
      <trkpt lat="43.317685" lon="-8.418107">
        <ele>255.0</ele>
        <time>2011-06-25T10:08:19Z</time>
      </trkpt>
      <trkpt lat="43.317688" lon="-8.418077">
        <ele>255.0</ele>
        <time>2011-06-25T10:08:20Z</time>
      </trkpt>
      <trkpt lat="43.317692" lon="-8.418048">
        <ele>255.0</ele>
        <time>2011-06-25T10:08:21Z</time>
      </trkpt>
      <trkpt lat="43.317695" lon="-8.418022">
        <ele>255.5</ele>
        <time>2011-06-25T10:08:22Z</time>
      </trkpt>
      <trkpt lat="43.317698" lon="-8.417992">
        <ele>255.5</ele>
        <time>2011-06-25T10:08:23Z</time>
      </trkpt>
      <trkpt lat="43.317702" lon="-8.417965">
        <ele>256.0</ele>
        <time>2011-06-25T10:08:24Z</time>
      </trkpt>
      <trkpt lat="43.317707" lon="-8.417937">
        <ele>256.0</ele>
        <time>2011-06-25T10:08:25Z</time>
      </trkpt>
      <trkpt lat="43.317710" lon="-8.417908">
        <ele>256.0</ele>
        <time>2011-06-25T10:08:26Z</time>
      </trkpt>
      <trkpt lat="43.317712" lon="-8.417882">
        <ele>256.5</ele>
        <time>2011-06-25T10:08:27Z</time>
      </trkpt>
      <trkpt lat="43.317713" lon="-8.417853">
        <ele>256.5</ele>
        <time>2011-06-25T10:08:28Z</time>
      </trkpt>
      <trkpt lat="43.317715" lon="-8.417827">
        <ele>256.5</ele>
        <time>2011-06-25T10:08:29Z</time>
      </trkpt>
      <trkpt lat="43.317717" lon="-8.417800">
        <ele>257.0</ele>
        <time>2011-06-25T10:08:30Z</time>
      </trkpt>
      <trkpt lat="43.317718" lon="-8.417772">
        <ele>256.5</ele>
        <time>2011-06-25T10:08:31Z</time>
      </trkpt>
      <trkpt lat="43.317722" lon="-8.417743">
        <ele>256.5</ele>
        <time>2011-06-25T10:08:32Z</time>
      </trkpt>
      <trkpt lat="43.317723" lon="-8.417718">
        <ele>257.0</ele>
        <time>2011-06-25T10:08:33Z</time>
      </trkpt>
      <trkpt lat="43.317725" lon="-8.417692">
        <ele>257.0</ele>
        <time>2011-06-25T10:08:34Z</time>
      </trkpt>
      <trkpt lat="43.317728" lon="-8.417663">
        <ele>257.0</ele>
        <time>2011-06-25T10:08:35Z</time>
      </trkpt>
      <trkpt lat="43.317733" lon="-8.417635">
        <ele>257.0</ele>
        <time>2011-06-25T10:08:36Z</time>
      </trkpt>
      <trkpt lat="43.317737" lon="-8.417612">
        <ele>257.5</ele>
        <time>2011-06-25T10:08:37Z</time>
      </trkpt>
      <trkpt lat="43.317742" lon="-8.417585">
        <ele>257.5</ele>
        <time>2011-06-25T10:08:38Z</time>
      </trkpt>
      <trkpt lat="43.317745" lon="-8.417558">
        <ele>257.5</ele>
        <time>2011-06-25T10:08:39Z</time>
      </trkpt>
      <trkpt lat="43.317748" lon="-8.417532">
        <ele>257.5</ele>
        <time>2011-06-25T10:08:40Z</time>
      </trkpt>
      <trkpt lat="43.317753" lon="-8.417505">
        <ele>257.5</ele>
        <time>2011-06-25T10:08:41Z</time>
      </trkpt>
      <trkpt lat="43.317760" lon="-8.417478">
        <ele>257.5</ele>
        <time>2011-06-25T10:08:42Z</time>
      </trkpt>
      <trkpt lat="43.317765" lon="-8.417457">
        <ele>257.5</ele>
        <time>2011-06-25T10:08:43Z</time>
      </trkpt>
      <trkpt lat="43.317768" lon="-8.417442">
        <ele>257.5</ele>
        <time>2011-06-25T10:08:44Z</time>
      </trkpt>
      <trkpt lat="43.317770" lon="-8.417427">
        <ele>257.5</ele>
        <time>2011-06-25T10:08:45Z</time>
      </trkpt>
      <trkpt lat="43.317767" lon="-8.417413">
        <ele>258.0</ele>
        <time>2011-06-25T10:08:46Z</time>
      </trkpt>
      <trkpt lat="43.317757" lon="-8.417403">
        <ele>258.0</ele>
        <time>2011-06-25T10:08:47Z</time>
      </trkpt>
      <trkpt lat="43.317737" lon="-8.417393">
        <ele>259.0</ele>
        <time>2011-06-25T10:08:48Z</time>
      </trkpt>
      <trkpt lat="43.317718" lon="-8.417390">
        <ele>260.0</ele>
        <time>2011-06-25T10:08:49Z</time>
      </trkpt>
    </trkseg>
  </trk>
  <trk>
    <name>T2067676-7</name>
    <cmt>saida con compañeiros do C.C.Arteixo polos arredores da Coruña</cmt>
    <desc>saida con compañeiros do C.C.Arteixo polos arredores da Coruña</desc>
    <trkseg>
      <trkpt lat="43.317700" lon="-8.417382">
        <ele>260.5</ele>
        <time>2011-06-25T10:08:50Z</time>
      </trkpt>
      <trkpt lat="43.317683" lon="-8.417372">
        <ele>261.0</ele>
        <time>2011-06-25T10:08:51Z</time>
      </trkpt>
      <trkpt lat="43.317670" lon="-8.417358">
        <ele>261.0</ele>
        <time>2011-06-25T10:08:52Z</time>
      </trkpt>
      <trkpt lat="43.317657" lon="-8.417352">
        <ele>261.0</ele>
        <time>2011-06-25T10:08:53Z</time>
      </trkpt>
      <trkpt lat="43.317640" lon="-8.417348">
        <ele>261.0</ele>
        <time>2011-06-25T10:08:54Z</time>
      </trkpt>
      <trkpt lat="43.317623" lon="-8.417345">
        <ele>261.0</ele>
        <time>2011-06-25T10:08:55Z</time>
      </trkpt>
      <trkpt lat="43.317608" lon="-8.417340">
        <ele>261.0</ele>
        <time>2011-06-25T10:08:56Z</time>
      </trkpt>
      <trkpt lat="43.317595" lon="-8.417343">
        <ele>261.0</ele>
        <time>2011-06-25T10:08:57Z</time>
      </trkpt>
      <trkpt lat="43.317583" lon="-8.417347">
        <ele>261.0</ele>
        <time>2011-06-25T10:08:58Z</time>
      </trkpt>
      <trkpt lat="43.317570" lon="-8.417350">
        <ele>261.5</ele>
        <time>2011-06-25T10:08:59Z</time>
      </trkpt>
      <trkpt lat="43.317555" lon="-8.417360">
        <ele>261.5</ele>
        <time>2011-06-25T10:09:00Z</time>
      </trkpt>
      <trkpt lat="43.317538" lon="-8.417367">
        <ele>261.5</ele>
        <time>2011-06-25T10:09:01Z</time>
      </trkpt>
      <trkpt lat="43.317522" lon="-8.417370">
        <ele>261.0</ele>
        <time>2011-06-25T10:09:02Z</time>
      </trkpt>
      <trkpt lat="43.317507" lon="-8.417378">
        <ele>260.5</ele>
        <time>2011-06-25T10:09:03Z</time>
      </trkpt>
      <trkpt lat="43.317495" lon="-8.417388">
        <ele>260.0</ele>
        <time>2011-06-25T10:09:04Z</time>
      </trkpt>
      <trkpt lat="43.317485" lon="-8.417400">
        <ele>259.5</ele>
        <time>2011-06-25T10:09:05Z</time>
      </trkpt>
      <trkpt lat="43.317473" lon="-8.417410">
        <ele>258.5</ele>
        <time>2011-06-25T10:09:06Z</time>
      </trkpt>
      <trkpt lat="43.317463" lon="-8.417427">
        <ele>258.5</ele>
        <time>2011-06-25T10:09:07Z</time>
      </trkpt>
      <trkpt lat="43.317452" lon="-8.417440">
        <ele>258.0</ele>
        <time>2011-06-25T10:09:08Z</time>
      </trkpt>
      <trkpt lat="43.317442" lon="-8.417455">
        <ele>257.5</ele>
        <time>2011-06-25T10:09:09Z</time>
      </trkpt>
      <trkpt lat="43.317432" lon="-8.417473">
        <ele>257.0</ele>
        <time>2011-06-25T10:09:10Z</time>
      </trkpt>
      <trkpt lat="43.317425" lon="-8.417490">
        <ele>256.5</ele>
        <time>2011-06-25T10:09:11Z</time>
      </trkpt>
      <trkpt lat="43.317422" lon="-8.417505">
        <ele>256.0</ele>
        <time>2011-06-25T10:09:12Z</time>
      </trkpt>
      <trkpt lat="43.317413" lon="-8.417518">
        <ele>255.5</ele>
        <time>2011-06-25T10:09:13Z</time>
      </trkpt>
      <trkpt lat="43.317402" lon="-8.417538">
        <ele>255.5</ele>
        <time>2011-06-25T10:09:14Z</time>
      </trkpt>
      <trkpt lat="43.317390" lon="-8.417558">
        <ele>255.5</ele>
        <time>2011-06-25T10:09:15Z</time>
      </trkpt>
      <trkpt lat="43.317380" lon="-8.417577">
        <ele>255.0</ele>
        <time>2011-06-25T10:09:16Z</time>
      </trkpt>
      <trkpt lat="43.317372" lon="-8.417595">
        <ele>254.5</ele>
        <time>2011-06-25T10:09:17Z</time>
      </trkpt>
      <trkpt lat="43.317362" lon="-8.417613">
        <ele>254.5</ele>
        <time>2011-06-25T10:09:18Z</time>
      </trkpt>
      <trkpt lat="43.317353" lon="-8.417633">
        <ele>254.5</ele>
        <time>2011-06-25T10:09:19Z</time>
      </trkpt>
      <trkpt lat="43.317342" lon="-8.417652">
        <ele>254.0</ele>
        <time>2011-06-25T10:09:20Z</time>
      </trkpt>
      <trkpt lat="43.317330" lon="-8.417672">
        <ele>254.0</ele>
        <time>2011-06-25T10:09:21Z</time>
      </trkpt>
      <trkpt lat="43.317323" lon="-8.417692">
        <ele>254.5</ele>
        <time>2011-06-25T10:09:22Z</time>
      </trkpt>
      <trkpt lat="43.317317" lon="-8.417708">
        <ele>255.0</ele>
        <time>2011-06-25T10:09:23Z</time>
      </trkpt>
      <trkpt lat="43.317307" lon="-8.417730">
        <ele>255.0</ele>
        <time>2011-06-25T10:09:24Z</time>
      </trkpt>
      <trkpt lat="43.317297" lon="-8.417748">
        <ele>255.0</ele>
        <time>2011-06-25T10:09:25Z</time>
      </trkpt>
      <trkpt lat="43.317283" lon="-8.417768">
        <ele>255.5</ele>
        <time>2011-06-25T10:09:26Z</time>
      </trkpt>
      <trkpt lat="43.317272" lon="-8.417787">
        <ele>256.0</ele>
        <time>2011-06-25T10:09:27Z</time>
      </trkpt>
      <trkpt lat="43.317258" lon="-8.417807">
        <ele>256.0</ele>
        <time>2011-06-25T10:09:28Z</time>
      </trkpt>
      <trkpt lat="43.317248" lon="-8.417828">
        <ele>256.0</ele>
        <time>2011-06-25T10:09:29Z</time>
      </trkpt>
      <trkpt lat="43.317238" lon="-8.417850">
        <ele>256.5</ele>
        <time>2011-06-25T10:09:30Z</time>
      </trkpt>
      <trkpt lat="43.317223" lon="-8.417868">
        <ele>257.0</ele>
        <time>2011-06-25T10:09:31Z</time>
      </trkpt>
      <trkpt lat="43.317210" lon="-8.417888">
        <ele>257.0</ele>
        <time>2011-06-25T10:09:32Z</time>
      </trkpt>
      <trkpt lat="43.317195" lon="-8.417907">
        <ele>257.0</ele>
        <time>2011-06-25T10:09:33Z</time>
      </trkpt>
      <trkpt lat="43.317185" lon="-8.417925">
        <ele>257.5</ele>
        <time>2011-06-25T10:09:34Z</time>
      </trkpt>
      <trkpt lat="43.317173" lon="-8.417943">
        <ele>258.0</ele>
        <time>2011-06-25T10:09:35Z</time>
      </trkpt>
      <trkpt lat="43.317162" lon="-8.417963">
        <ele>258.0</ele>
        <time>2011-06-25T10:09:36Z</time>
      </trkpt>
      <trkpt lat="43.317155" lon="-8.417985">
        <ele>258.5</ele>
        <time>2011-06-25T10:09:37Z</time>
      </trkpt>
      <trkpt lat="43.317142" lon="-8.418007">
        <ele>258.5</ele>
        <time>2011-06-25T10:09:38Z</time>
      </trkpt>
      <trkpt lat="43.317132" lon="-8.418027">
        <ele>258.5</ele>
        <time>2011-06-25T10:09:39Z</time>
      </trkpt>
      <trkpt lat="43.317118" lon="-8.418048">
        <ele>259.0</ele>
        <time>2011-06-25T10:09:40Z</time>
      </trkpt>
      <trkpt lat="43.317105" lon="-8.418068">
        <ele>259.5</ele>
        <time>2011-06-25T10:09:41Z</time>
      </trkpt>
      <trkpt lat="43.317093" lon="-8.418088">
        <ele>260.0</ele>
        <time>2011-06-25T10:09:42Z</time>
      </trkpt>
      <trkpt lat="43.317080" lon="-8.418110">
        <ele>260.0</ele>
        <time>2011-06-25T10:09:43Z</time>
      </trkpt>
      <trkpt lat="43.317063" lon="-8.418128">
        <ele>260.5</ele>
        <time>2011-06-25T10:09:44Z</time>
      </trkpt>
      <trkpt lat="43.317047" lon="-8.418143">
        <ele>260.5</ele>
        <time>2011-06-25T10:09:45Z</time>
      </trkpt>
      <trkpt lat="43.317032" lon="-8.418157">
        <ele>261.0</ele>
        <time>2011-06-25T10:09:46Z</time>
      </trkpt>
      <trkpt lat="43.317017" lon="-8.418168">
        <ele>261.5</ele>
        <time>2011-06-25T10:09:47Z</time>
      </trkpt>
      <trkpt lat="43.317000" lon="-8.418178">
        <ele>262.0</ele>
        <time>2011-06-25T10:09:48Z</time>
      </trkpt>
      <trkpt lat="43.316985" lon="-8.418188">
        <ele>262.0</ele>
        <time>2011-06-25T10:09:49Z</time>
      </trkpt>
      <trkpt lat="43.316967" lon="-8.418197">
        <ele>262.5</ele>
        <time>2011-06-25T10:09:50Z</time>
      </trkpt>
      <trkpt lat="43.316947" lon="-8.418205">
        <ele>263.0</ele>
        <time>2011-06-25T10:09:51Z</time>
      </trkpt>
      <trkpt lat="43.316932" lon="-8.418210">
        <ele>263.0</ele>
        <time>2011-06-25T10:09:52Z</time>
      </trkpt>
      <trkpt lat="43.316917" lon="-8.418217">
        <ele>263.0</ele>
        <time>2011-06-25T10:09:53Z</time>
      </trkpt>
      <trkpt lat="43.316905" lon="-8.418220">
        <ele>263.5</ele>
        <time>2011-06-25T10:09:54Z</time>
      </trkpt>
      <trkpt lat="43.316895" lon="-8.418223">
        <ele>264.0</ele>
        <time>2011-06-25T10:09:55Z</time>
      </trkpt>
      <trkpt lat="43.316883" lon="-8.418227">
        <ele>264.0</ele>
        <time>2011-06-25T10:09:56Z</time>
      </trkpt>
      <trkpt lat="43.316870" lon="-8.418227">
        <ele>264.0</ele>
        <time>2011-06-25T10:09:57Z</time>
      </trkpt>
      <trkpt lat="43.316858" lon="-8.418230">
        <ele>263.5</ele>
        <time>2011-06-25T10:09:58Z</time>
      </trkpt>
      <trkpt lat="43.316843" lon="-8.418233">
        <ele>264.0</ele>
        <time>2011-06-25T10:09:59Z</time>
      </trkpt>
      <trkpt lat="43.316827" lon="-8.418233">
        <ele>264.0</ele>
        <time>2011-06-25T10:10:00Z</time>
      </trkpt>
      <trkpt lat="43.316812" lon="-8.418228">
        <ele>264.0</ele>
        <time>2011-06-25T10:10:01Z</time>
      </trkpt>
      <trkpt lat="43.316793" lon="-8.418225">
        <ele>264.0</ele>
        <time>2011-06-25T10:10:02Z</time>
      </trkpt>
      <trkpt lat="43.316773" lon="-8.418222">
        <ele>264.5</ele>
        <time>2011-06-25T10:10:03Z</time>
      </trkpt>
      <trkpt lat="43.316755" lon="-8.418217">
        <ele>264.5</ele>
        <time>2011-06-25T10:10:04Z</time>
      </trkpt>
      <trkpt lat="43.316737" lon="-8.418208">
        <ele>264.5</ele>
        <time>2011-06-25T10:10:05Z</time>
      </trkpt>
      <trkpt lat="43.316722" lon="-8.418200">
        <ele>265.0</ele>
        <time>2011-06-25T10:10:06Z</time>
      </trkpt>
      <trkpt lat="43.316708" lon="-8.418187">
        <ele>265.0</ele>
        <time>2011-06-25T10:10:07Z</time>
      </trkpt>
      <trkpt lat="43.316697" lon="-8.418170">
        <ele>265.0</ele>
        <time>2011-06-25T10:10:08Z</time>
      </trkpt>
      <trkpt lat="43.316685" lon="-8.418150">
        <ele>265.0</ele>
        <time>2011-06-25T10:10:09Z</time>
      </trkpt>
      <trkpt lat="43.316675" lon="-8.418133">
        <ele>265.5</ele>
        <time>2011-06-25T10:10:10Z</time>
      </trkpt>
      <trkpt lat="43.316667" lon="-8.418117">
        <ele>266.0</ele>
        <time>2011-06-25T10:10:11Z</time>
      </trkpt>
      <trkpt lat="43.316655" lon="-8.418100">
        <ele>266.5</ele>
        <time>2011-06-25T10:10:12Z</time>
      </trkpt>
      <trkpt lat="43.316643" lon="-8.418082">
        <ele>266.5</ele>
        <time>2011-06-25T10:10:13Z</time>
      </trkpt>
      <trkpt lat="43.316632" lon="-8.418063">
        <ele>267.0</ele>
        <time>2011-06-25T10:10:14Z</time>
      </trkpt>
      <trkpt lat="43.316617" lon="-8.418047">
        <ele>267.5</ele>
        <time>2011-06-25T10:10:15Z</time>
      </trkpt>
      <trkpt lat="43.316600" lon="-8.418033">
        <ele>268.0</ele>
        <time>2011-06-25T10:10:16Z</time>
      </trkpt>
      <trkpt lat="43.316580" lon="-8.418018">
        <ele>268.0</ele>
        <time>2011-06-25T10:10:17Z</time>
      </trkpt>
      <trkpt lat="43.316562" lon="-8.418007">
        <ele>268.5</ele>
        <time>2011-06-25T10:10:18Z</time>
      </trkpt>
      <trkpt lat="43.316548" lon="-8.417995">
        <ele>268.5</ele>
        <time>2011-06-25T10:10:19Z</time>
      </trkpt>
      <trkpt lat="43.316535" lon="-8.417988">
        <ele>268.5</ele>
        <time>2011-06-25T10:10:20Z</time>
      </trkpt>
      <trkpt lat="43.316522" lon="-8.417980">
        <ele>268.5</ele>
        <time>2011-06-25T10:10:21Z</time>
      </trkpt>
      <trkpt lat="43.316507" lon="-8.417975">
        <ele>268.5</ele>
        <time>2011-06-25T10:10:22Z</time>
      </trkpt>
      <trkpt lat="43.316493" lon="-8.417972">
        <ele>268.5</ele>
        <time>2011-06-25T10:10:23Z</time>
      </trkpt>
      <trkpt lat="43.316480" lon="-8.417973">
        <ele>268.5</ele>
        <time>2011-06-25T10:10:24Z</time>
      </trkpt>
      <trkpt lat="43.316470" lon="-8.417982">
        <ele>268.5</ele>
        <time>2011-06-25T10:10:25Z</time>
      </trkpt>
      <trkpt lat="43.316462" lon="-8.417988">
        <ele>268.0</ele>
        <time>2011-06-25T10:10:26Z</time>
      </trkpt>
      <trkpt lat="43.316455" lon="-8.417997">
        <ele>268.0</ele>
        <time>2011-06-25T10:10:27Z</time>
      </trkpt>
      <trkpt lat="43.316452" lon="-8.418005">
        <ele>267.5</ele>
        <time>2011-06-25T10:10:28Z</time>
      </trkpt>
      <trkpt lat="43.316450" lon="-8.418012">
        <ele>267.5</ele>
        <time>2011-06-25T10:10:29Z</time>
      </trkpt>
      <trkpt lat="43.316445" lon="-8.418017">
        <ele>267.5</ele>
        <time>2011-06-25T10:10:30Z</time>
      </trkpt>
      <trkpt lat="43.316452" lon="-8.418028">
        <ele>267.0</ele>
        <time>2011-06-25T10:10:31Z</time>
      </trkpt>
      <trkpt lat="43.316462" lon="-8.418043">
        <ele>268.0</ele>
        <time>2011-06-25T10:10:32Z</time>
      </trkpt>
      <trkpt lat="43.316463" lon="-8.418053">
        <ele>268.5</ele>
        <time>2011-06-25T10:10:33Z</time>
      </trkpt>
      <trkpt lat="43.316458" lon="-8.418060">
        <ele>268.5</ele>
        <time>2011-06-25T10:10:34Z</time>
      </trkpt>
      <trkpt lat="43.316453" lon="-8.418063">
        <ele>268.5</ele>
        <time>2011-06-25T10:10:35Z</time>
      </trkpt>
      <trkpt lat="43.316452" lon="-8.418067">
        <ele>268.0</ele>
        <time>2011-06-25T10:10:36Z</time>
      </trkpt>
      <trkpt lat="43.316448" lon="-8.418070">
        <ele>267.0</ele>
        <time>2011-06-25T10:10:37Z</time>
      </trkpt>
      <trkpt lat="43.316450" lon="-8.418075">
        <ele>267.0</ele>
        <time>2011-06-25T10:10:38Z</time>
      </trkpt>
      <trkpt lat="43.316450" lon="-8.418075">
        <ele>267.0</ele>
        <time>2011-06-25T10:10:39Z</time>
      </trkpt>
      <trkpt lat="43.316450" lon="-8.418073">
        <ele>266.5</ele>
        <time>2011-06-25T10:10:40Z</time>
      </trkpt>
      <trkpt lat="43.316448" lon="-8.418072">
        <ele>266.5</ele>
        <time>2011-06-25T10:10:41Z</time>
      </trkpt>
      <trkpt lat="43.316448" lon="-8.418072">
        <ele>266.5</ele>
        <time>2011-06-25T10:10:42Z</time>
      </trkpt>
      <trkpt lat="43.316448" lon="-8.418070">
        <ele>266.5</ele>
        <time>2011-06-25T10:10:43Z</time>
      </trkpt>
      <trkpt lat="43.316448" lon="-8.418068">
        <ele>266.5</ele>
        <time>2011-06-25T10:10:44Z</time>
      </trkpt>
      <trkpt lat="43.316448" lon="-8.418068">
        <ele>266.5</ele>
        <time>2011-06-25T10:10:45Z</time>
      </trkpt>
      <trkpt lat="43.316447" lon="-8.418067">
        <ele>266.5</ele>
        <time>2011-06-25T10:10:46Z</time>
      </trkpt>
      <trkpt lat="43.316447" lon="-8.418067">
        <ele>266.5</ele>
        <time>2011-06-25T10:10:47Z</time>
      </trkpt>
      <trkpt lat="43.316447" lon="-8.418067">
        <ele>266.5</ele>
        <time>2011-06-25T10:10:48Z</time>
      </trkpt>
      <trkpt lat="43.316445" lon="-8.418067">
        <ele>266.0</ele>
        <time>2011-06-25T10:10:49Z</time>
      </trkpt>
      <trkpt lat="43.316445" lon="-8.418067">
        <ele>266.0</ele>
        <time>2011-06-25T10:10:50Z</time>
      </trkpt>
      <trkpt lat="43.316445" lon="-8.418067">
        <ele>266.0</ele>
        <time>2011-06-25T10:10:51Z</time>
      </trkpt>
      <trkpt lat="43.316445" lon="-8.418068">
        <ele>266.0</ele>
        <time>2011-06-25T10:10:52Z</time>
      </trkpt>
      <trkpt lat="43.316447" lon="-8.418068">
        <ele>266.0</ele>
        <time>2011-06-25T10:10:53Z</time>
      </trkpt>
      <trkpt lat="43.316445" lon="-8.418068">
        <ele>266.0</ele>
        <time>2011-06-25T10:10:54Z</time>
      </trkpt>
      <trkpt lat="43.316445" lon="-8.418067">
        <ele>266.0</ele>
        <time>2011-06-25T10:10:55Z</time>
      </trkpt>
      <trkpt lat="43.316440" lon="-8.418065">
        <ele>266.5</ele>
        <time>2011-06-25T10:10:56Z</time>
      </trkpt>
      <trkpt lat="43.316438" lon="-8.418065">
        <ele>266.5</ele>
        <time>2011-06-25T10:10:57Z</time>
      </trkpt>
      <trkpt lat="43.316438" lon="-8.418065">
        <ele>266.5</ele>
        <time>2011-06-25T10:10:58Z</time>
      </trkpt>
      <trkpt lat="43.316435" lon="-8.418063">
        <ele>267.0</ele>
        <time>2011-06-25T10:10:59Z</time>
      </trkpt>
      <trkpt lat="43.316435" lon="-8.418063">
        <ele>267.0</ele>
        <time>2011-06-25T10:11:00Z</time>
      </trkpt>
      <trkpt lat="43.316433" lon="-8.418062">
        <ele>267.0</ele>
        <time>2011-06-25T10:11:01Z</time>
      </trkpt>
      <trkpt lat="43.316433" lon="-8.418062">
        <ele>267.0</ele>
        <time>2011-06-25T10:11:02Z</time>
      </trkpt>
      <trkpt lat="43.316433" lon="-8.418062">
        <ele>267.0</ele>
        <time>2011-06-25T10:11:03Z</time>
      </trkpt>
      <trkpt lat="43.316433" lon="-8.418062">
        <ele>267.0</ele>
        <time>2011-06-25T10:11:04Z</time>
      </trkpt>
      <trkpt lat="43.316433" lon="-8.418062">
        <ele>267.5</ele>
        <time>2011-06-25T10:11:05Z</time>
      </trkpt>
      <trkpt lat="43.316432" lon="-8.418062">
        <ele>267.5</ele>
        <time>2011-06-25T10:11:06Z</time>
      </trkpt>
      <trkpt lat="43.316432" lon="-8.418060">
        <ele>267.5</ele>
        <time>2011-06-25T10:11:07Z</time>
      </trkpt>
      <trkpt lat="43.316432" lon="-8.418060">
        <ele>267.5</ele>
        <time>2011-06-25T10:11:08Z</time>
      </trkpt>
      <trkpt lat="43.316432" lon="-8.418060">
        <ele>267.5</ele>
        <time>2011-06-25T10:11:09Z</time>
      </trkpt>
      <trkpt lat="43.316432" lon="-8.418060">
        <ele>267.5</ele>
        <time>2011-06-25T10:11:10Z</time>
      </trkpt>
      <trkpt lat="43.316432" lon="-8.418060">
        <ele>267.5</ele>
        <time>2011-06-25T10:11:11Z</time>
      </trkpt>
      <trkpt lat="43.316432" lon="-8.418060">
        <ele>267.5</ele>
        <time>2011-06-25T10:11:12Z</time>
      </trkpt>
      <trkpt lat="43.316432" lon="-8.418060">
        <ele>267.5</ele>
        <time>2011-06-25T10:11:13Z</time>
      </trkpt>
      <trkpt lat="43.316433" lon="-8.418060">
        <ele>267.5</ele>
        <time>2011-06-25T10:11:14Z</time>
      </trkpt>
      <trkpt lat="43.316433" lon="-8.418060">
        <ele>267.5</ele>
        <time>2011-06-25T10:11:15Z</time>
      </trkpt>
      <trkpt lat="43.316433" lon="-8.418060">
        <ele>267.5</ele>
        <time>2011-06-25T10:11:16Z</time>
      </trkpt>
      <trkpt lat="43.316433" lon="-8.418060">
        <ele>267.5</ele>
        <time>2011-06-25T10:11:17Z</time>
      </trkpt>
      <trkpt lat="43.316433" lon="-8.418060">
        <ele>267.5</ele>
        <time>2011-06-25T10:11:18Z</time>
      </trkpt>
      <trkpt lat="43.316433" lon="-8.418060">
        <ele>267.5</ele>
        <time>2011-06-25T10:11:19Z</time>
      </trkpt>
      <trkpt lat="43.316432" lon="-8.418060">
        <ele>267.5</ele>
        <time>2011-06-25T10:11:20Z</time>
      </trkpt>
      <trkpt lat="43.316432" lon="-8.418060">
        <ele>267.5</ele>
        <time>2011-06-25T10:11:21Z</time>
      </trkpt>
      <trkpt lat="43.316432" lon="-8.418060">
        <ele>267.5</ele>
        <time>2011-06-25T10:11:22Z</time>
      </trkpt>
      <trkpt lat="43.316432" lon="-8.418060">
        <ele>267.5</ele>
        <time>2011-06-25T10:11:23Z</time>
      </trkpt>
      <trkpt lat="43.316432" lon="-8.418060">
        <ele>267.5</ele>
        <time>2011-06-25T10:11:24Z</time>
      </trkpt>
      <trkpt lat="43.316432" lon="-8.418060">
        <ele>267.5</ele>
        <time>2011-06-25T10:11:25Z</time>
      </trkpt>
      <trkpt lat="43.316432" lon="-8.418060">
        <ele>267.5</ele>
        <time>2011-06-25T10:11:26Z</time>
      </trkpt>
      <trkpt lat="43.316432" lon="-8.418060">
        <ele>267.5</ele>
        <time>2011-06-25T10:11:27Z</time>
      </trkpt>
      <trkpt lat="43.316432" lon="-8.418060">
        <ele>267.5</ele>
        <time>2011-06-25T10:11:28Z</time>
      </trkpt>
      <trkpt lat="43.316432" lon="-8.418060">
        <ele>267.5</ele>
        <time>2011-06-25T10:11:29Z</time>
      </trkpt>
      <trkpt lat="43.316427" lon="-8.418057">
        <ele>267.5</ele>
        <time>2011-06-25T10:11:30Z</time>
      </trkpt>
      <trkpt lat="43.316423" lon="-8.418057">
        <ele>267.0</ele>
        <time>2011-06-25T10:11:31Z</time>
      </trkpt>
      <trkpt lat="43.316423" lon="-8.418057">
        <ele>267.0</ele>
        <time>2011-06-25T10:11:32Z</time>
      </trkpt>
      <trkpt lat="43.316423" lon="-8.418055">
        <ele>267.0</ele>
        <time>2011-06-25T10:11:33Z</time>
      </trkpt>
      <trkpt lat="43.316423" lon="-8.418055">
        <ele>267.0</ele>
        <time>2011-06-25T10:11:34Z</time>
      </trkpt>
      <trkpt lat="43.316420" lon="-8.418055">
        <ele>267.0</ele>
        <time>2011-06-25T10:11:35Z</time>
      </trkpt>
      <trkpt lat="43.316420" lon="-8.418058">
        <ele>267.0</ele>
        <time>2011-06-25T10:11:36Z</time>
      </trkpt>
      <trkpt lat="43.316418" lon="-8.418058">
        <ele>267.0</ele>
        <time>2011-06-25T10:11:37Z</time>
      </trkpt>
      <trkpt lat="43.316418" lon="-8.418057">
        <ele>267.0</ele>
        <time>2011-06-25T10:11:38Z</time>
      </trkpt>
      <trkpt lat="43.316413" lon="-8.418057">
        <ele>267.0</ele>
        <time>2011-06-25T10:11:39Z</time>
      </trkpt>
      <trkpt lat="43.316412" lon="-8.418053">
        <ele>267.0</ele>
        <time>2011-06-25T10:11:40Z</time>
      </trkpt>
      <trkpt lat="43.316410" lon="-8.418063">
        <ele>267.5</ele>
        <time>2011-06-25T10:11:41Z</time>
      </trkpt>
      <trkpt lat="43.316410" lon="-8.418073">
        <ele>268.5</ele>
        <time>2011-06-25T10:11:42Z</time>
      </trkpt>
      <trkpt lat="43.316412" lon="-8.418088">
        <ele>270.0</ele>
        <time>2011-06-25T10:11:43Z</time>
      </trkpt>
      <trkpt lat="43.316405" lon="-8.418105">
        <ele>270.5</ele>
        <time>2011-06-25T10:11:44Z</time>
      </trkpt>
      <trkpt lat="43.316395" lon="-8.418125">
        <ele>270.5</ele>
        <time>2011-06-25T10:11:45Z</time>
      </trkpt>
      <trkpt lat="43.316385" lon="-8.418150">
        <ele>270.5</ele>
        <time>2011-06-25T10:11:46Z</time>
      </trkpt>
      <trkpt lat="43.316377" lon="-8.418177">
        <ele>271.0</ele>
        <time>2011-06-25T10:11:47Z</time>
      </trkpt>
      <trkpt lat="43.316367" lon="-8.418202">
        <ele>271.5</ele>
        <time>2011-06-25T10:11:48Z</time>
      </trkpt>
      <trkpt lat="43.316360" lon="-8.418225">
        <ele>273.5</ele>
        <time>2011-06-25T10:11:49Z</time>
      </trkpt>
      <trkpt lat="43.316355" lon="-8.418250">
        <ele>274.0</ele>
        <time>2011-06-25T10:11:50Z</time>
      </trkpt>
      <trkpt lat="43.316350" lon="-8.418280">
        <ele>275.0</ele>
        <time>2011-06-25T10:11:51Z</time>
      </trkpt>
      <trkpt lat="43.316338" lon="-8.418305">
        <ele>275.5</ele>
        <time>2011-06-25T10:11:52Z</time>
      </trkpt>
      <trkpt lat="43.316327" lon="-8.418330">
        <ele>275.5</ele>
        <time>2011-06-25T10:11:53Z</time>
      </trkpt>
      <trkpt lat="43.316318" lon="-8.418355">
        <ele>275.5</ele>
        <time>2011-06-25T10:11:54Z</time>
      </trkpt>
      <trkpt lat="43.316315" lon="-8.418378">
        <ele>276.0</ele>
        <time>2011-06-25T10:11:55Z</time>
      </trkpt>
      <trkpt lat="43.316312" lon="-8.418395">
        <ele>277.0</ele>
        <time>2011-06-25T10:11:56Z</time>
      </trkpt>
      <trkpt lat="43.316305" lon="-8.418413">
        <ele>277.5</ele>
        <time>2011-06-25T10:11:57Z</time>
      </trkpt>
      <trkpt lat="43.316293" lon="-8.418433">
        <ele>277.0</ele>
        <time>2011-06-25T10:11:58Z</time>
      </trkpt>
      <trkpt lat="43.316285" lon="-8.418455">
        <ele>277.5</ele>
        <time>2011-06-25T10:11:59Z</time>
      </trkpt>
      <trkpt lat="43.316275" lon="-8.418478">
        <ele>278.0</ele>
        <time>2011-06-25T10:12:00Z</time>
      </trkpt>
      <trkpt lat="43.316265" lon="-8.418502">
        <ele>279.0</ele>
        <time>2011-06-25T10:12:01Z</time>
      </trkpt>
      <trkpt lat="43.316265" lon="-8.418523">
        <ele>280.0</ele>
        <time>2011-06-25T10:12:02Z</time>
      </trkpt>
      <trkpt lat="43.316270" lon="-8.418548">
        <ele>280.5</ele>
        <time>2011-06-25T10:12:03Z</time>
      </trkpt>
      <trkpt lat="43.316270" lon="-8.418568">
        <ele>282.5</ele>
        <time>2011-06-25T10:12:04Z</time>
      </trkpt>
      <trkpt lat="43.316262" lon="-8.418590">
        <ele>283.0</ele>
        <time>2011-06-25T10:12:05Z</time>
      </trkpt>
      <trkpt lat="43.316253" lon="-8.418610">
        <ele>283.5</ele>
        <time>2011-06-25T10:12:06Z</time>
      </trkpt>
      <trkpt lat="43.316245" lon="-8.418633">
        <ele>283.0</ele>
        <time>2011-06-25T10:12:07Z</time>
      </trkpt>
      <trkpt lat="43.316233" lon="-8.418652">
        <ele>283.0</ele>
        <time>2011-06-25T10:12:08Z</time>
      </trkpt>
      <trkpt lat="43.316235" lon="-8.418667">
        <ele>283.0</ele>
        <time>2011-06-25T10:12:09Z</time>
      </trkpt>
      <trkpt lat="43.316220" lon="-8.418675">
        <ele>283.0</ele>
        <time>2011-06-25T10:12:10Z</time>
      </trkpt>
      <trkpt lat="43.316227" lon="-8.418695">
        <ele>285.0</ele>
        <time>2011-06-25T10:12:11Z</time>
      </trkpt>
      <trkpt lat="43.316225" lon="-8.418713">
        <ele>285.5</ele>
        <time>2011-06-25T10:12:12Z</time>
      </trkpt>
      <trkpt lat="43.316215" lon="-8.418730">
        <ele>286.0</ele>
        <time>2011-06-25T10:12:13Z</time>
      </trkpt>
      <trkpt lat="43.316205" lon="-8.418745">
        <ele>286.0</ele>
        <time>2011-06-25T10:12:14Z</time>
      </trkpt>
      <trkpt lat="43.316200" lon="-8.418760">
        <ele>286.5</ele>
        <time>2011-06-25T10:12:15Z</time>
      </trkpt>
      <trkpt lat="43.316192" lon="-8.418773">
        <ele>287.0</ele>
        <time>2011-06-25T10:12:16Z</time>
      </trkpt>
      <trkpt lat="43.316178" lon="-8.418787">
        <ele>287.0</ele>
        <time>2011-06-25T10:12:17Z</time>
      </trkpt>
      <trkpt lat="43.316177" lon="-8.418805">
        <ele>287.5</ele>
        <time>2011-06-25T10:12:18Z</time>
      </trkpt>
      <trkpt lat="43.316165" lon="-8.418822">
        <ele>287.5</ele>
        <time>2011-06-25T10:12:19Z</time>
      </trkpt>
      <trkpt lat="43.316165" lon="-8.418843">
        <ele>289.0</ele>
        <time>2011-06-25T10:12:20Z</time>
      </trkpt>
      <trkpt lat="43.316157" lon="-8.418852">
        <ele>288.5</ele>
        <time>2011-06-25T10:12:21Z</time>
      </trkpt>
      <trkpt lat="43.316145" lon="-8.418858">
        <ele>288.5</ele>
        <time>2011-06-25T10:12:22Z</time>
      </trkpt>
      <trkpt lat="43.316140" lon="-8.418868">
        <ele>288.5</ele>
        <time>2011-06-25T10:12:23Z</time>
      </trkpt>
      <trkpt lat="43.316133" lon="-8.418887">
        <ele>290.0</ele>
        <time>2011-06-25T10:12:24Z</time>
      </trkpt>
      <trkpt lat="43.316128" lon="-8.418907">
        <ele>291.0</ele>
        <time>2011-06-25T10:12:25Z</time>
      </trkpt>
      <trkpt lat="43.316130" lon="-8.418932">
        <ele>292.5</ele>
        <time>2011-06-25T10:12:26Z</time>
      </trkpt>
      <trkpt lat="43.316120" lon="-8.418952">
        <ele>292.5</ele>
        <time>2011-06-25T10:12:27Z</time>
      </trkpt>
      <trkpt lat="43.316108" lon="-8.418972">
        <ele>293.0</ele>
        <time>2011-06-25T10:12:28Z</time>
      </trkpt>
      <trkpt lat="43.316097" lon="-8.418990">
        <ele>293.0</ele>
        <time>2011-06-25T10:12:29Z</time>
      </trkpt>
      <trkpt lat="43.316085" lon="-8.419008">
        <ele>293.5</ele>
        <time>2011-06-25T10:12:30Z</time>
      </trkpt>
      <trkpt lat="43.316075" lon="-8.419025">
        <ele>293.5</ele>
        <time>2011-06-25T10:12:31Z</time>
      </trkpt>
      <trkpt lat="43.316067" lon="-8.419045">
        <ele>294.0</ele>
        <time>2011-06-25T10:12:32Z</time>
      </trkpt>
      <trkpt lat="43.316053" lon="-8.419063">
        <ele>294.0</ele>
        <time>2011-06-25T10:12:33Z</time>
      </trkpt>
      <trkpt lat="43.316038" lon="-8.419082">
        <ele>294.0</ele>
        <time>2011-06-25T10:12:34Z</time>
      </trkpt>
      <trkpt lat="43.316028" lon="-8.419100">
        <ele>294.0</ele>
        <time>2011-06-25T10:12:35Z</time>
      </trkpt>
      <trkpt lat="43.316022" lon="-8.419122">
        <ele>294.5</ele>
        <time>2011-06-25T10:12:36Z</time>
      </trkpt>
      <trkpt lat="43.316008" lon="-8.419138">
        <ele>294.5</ele>
        <time>2011-06-25T10:12:37Z</time>
      </trkpt>
      <trkpt lat="43.315998" lon="-8.419155">
        <ele>295.0</ele>
        <time>2011-06-25T10:12:38Z</time>
      </trkpt>
      <trkpt lat="43.315987" lon="-8.419177">
        <ele>294.0</ele>
        <time>2011-06-25T10:12:39Z</time>
      </trkpt>
      <trkpt lat="43.315980" lon="-8.419200">
        <ele>293.5</ele>
        <time>2011-06-25T10:12:40Z</time>
      </trkpt>
      <trkpt lat="43.315968" lon="-8.419220">
        <ele>293.5</ele>
        <time>2011-06-25T10:12:41Z</time>
      </trkpt>
      <trkpt lat="43.315957" lon="-8.419238">
        <ele>293.5</ele>
        <time>2011-06-25T10:12:42Z</time>
      </trkpt>
      <trkpt lat="43.315942" lon="-8.419258">
        <ele>293.0</ele>
        <time>2011-06-25T10:12:43Z</time>
      </trkpt>
      <trkpt lat="43.315930" lon="-8.419277">
        <ele>293.0</ele>
        <time>2011-06-25T10:12:44Z</time>
      </trkpt>
      <trkpt lat="43.315922" lon="-8.419298">
        <ele>292.5</ele>
        <time>2011-06-25T10:12:45Z</time>
      </trkpt>
      <trkpt lat="43.315912" lon="-8.419322">
        <ele>293.0</ele>
        <time>2011-06-25T10:12:46Z</time>
      </trkpt>
      <trkpt lat="43.315902" lon="-8.419342">
        <ele>293.0</ele>
        <time>2011-06-25T10:12:47Z</time>
      </trkpt>
      <trkpt lat="43.315895" lon="-8.419363">
        <ele>293.0</ele>
        <time>2011-06-25T10:12:48Z</time>
      </trkpt>
      <trkpt lat="43.315883" lon="-8.419385">
        <ele>293.0</ele>
        <time>2011-06-25T10:12:49Z</time>
      </trkpt>
      <trkpt lat="43.315873" lon="-8.419408">
        <ele>292.5</ele>
        <time>2011-06-25T10:12:50Z</time>
      </trkpt>
      <trkpt lat="43.315860" lon="-8.419430">
        <ele>292.0</ele>
        <time>2011-06-25T10:12:51Z</time>
      </trkpt>
      <trkpt lat="43.315850" lon="-8.419450">
        <ele>291.0</ele>
        <time>2011-06-25T10:12:52Z</time>
      </trkpt>
      <trkpt lat="43.315835" lon="-8.419470">
        <ele>290.5</ele>
        <time>2011-06-25T10:12:53Z</time>
      </trkpt>
      <trkpt lat="43.315822" lon="-8.419488">
        <ele>290.5</ele>
        <time>2011-06-25T10:12:54Z</time>
      </trkpt>
      <trkpt lat="43.315813" lon="-8.419510">
        <ele>290.5</ele>
        <time>2011-06-25T10:12:55Z</time>
      </trkpt>
      <trkpt lat="43.315805" lon="-8.419533">
        <ele>290.0</ele>
        <time>2011-06-25T10:12:56Z</time>
      </trkpt>
      <trkpt lat="43.315795" lon="-8.419558">
        <ele>290.0</ele>
        <time>2011-06-25T10:12:57Z</time>
      </trkpt>
      <trkpt lat="43.315782" lon="-8.419582">
        <ele>289.5</ele>
        <time>2011-06-25T10:12:58Z</time>
      </trkpt>
      <trkpt lat="43.315773" lon="-8.419605">
        <ele>289.0</ele>
        <time>2011-06-25T10:12:59Z</time>
      </trkpt>
      <trkpt lat="43.315762" lon="-8.419630">
        <ele>289.0</ele>
        <time>2011-06-25T10:13:00Z</time>
      </trkpt>
      <trkpt lat="43.315750" lon="-8.419657">
        <ele>289.5</ele>
        <time>2011-06-25T10:13:01Z</time>
      </trkpt>
      <trkpt lat="43.315737" lon="-8.419685">
        <ele>289.5</ele>
        <time>2011-06-25T10:13:02Z</time>
      </trkpt>
      <trkpt lat="43.315722" lon="-8.419710">
        <ele>289.5</ele>
        <time>2011-06-25T10:13:03Z</time>
      </trkpt>
      <trkpt lat="43.315703" lon="-8.419735">
        <ele>289.5</ele>
        <time>2011-06-25T10:13:04Z</time>
      </trkpt>
      <trkpt lat="43.315690" lon="-8.419763">
        <ele>289.5</ele>
        <time>2011-06-25T10:13:05Z</time>
      </trkpt>
      <trkpt lat="43.315678" lon="-8.419797">
        <ele>289.5</ele>
        <time>2011-06-25T10:13:06Z</time>
      </trkpt>
      <trkpt lat="43.315663" lon="-8.419828">
        <ele>289.5</ele>
        <time>2011-06-25T10:13:07Z</time>
      </trkpt>
      <trkpt lat="43.315650" lon="-8.419865">
        <ele>289.5</ele>
        <time>2011-06-25T10:13:08Z</time>
      </trkpt>
      <trkpt lat="43.315635" lon="-8.419898">
        <ele>289.0</ele>
        <time>2011-06-25T10:13:09Z</time>
      </trkpt>
      <trkpt lat="43.315617" lon="-8.419932">
        <ele>289.0</ele>
        <time>2011-06-25T10:13:10Z</time>
      </trkpt>
      <trkpt lat="43.315600" lon="-8.419965">
        <ele>288.5</ele>
        <time>2011-06-25T10:13:11Z</time>
      </trkpt>
      <trkpt lat="43.315585" lon="-8.419998">
        <ele>288.0</ele>
        <time>2011-06-25T10:13:12Z</time>
      </trkpt>
      <trkpt lat="43.315570" lon="-8.420030">
        <ele>288.0</ele>
        <time>2011-06-25T10:13:13Z</time>
      </trkpt>
      <trkpt lat="43.315553" lon="-8.420062">
        <ele>288.0</ele>
        <time>2011-06-25T10:13:14Z</time>
      </trkpt>
      <trkpt lat="43.315540" lon="-8.420093">
        <ele>287.5</ele>
        <time>2011-06-25T10:13:15Z</time>
      </trkpt>
      <trkpt lat="43.315525" lon="-8.420123">
        <ele>288.0</ele>
        <time>2011-06-25T10:13:16Z</time>
      </trkpt>
      <trkpt lat="43.315510" lon="-8.420152">
        <ele>287.5</ele>
        <time>2011-06-25T10:13:17Z</time>
      </trkpt>
      <trkpt lat="43.315493" lon="-8.420178">
        <ele>287.5</ele>
        <time>2011-06-25T10:13:18Z</time>
      </trkpt>
      <trkpt lat="43.315480" lon="-8.420203">
        <ele>287.0</ele>
        <time>2011-06-25T10:13:19Z</time>
      </trkpt>
      <trkpt lat="43.315465" lon="-8.420227">
        <ele>287.0</ele>
        <time>2011-06-25T10:13:20Z</time>
      </trkpt>
      <trkpt lat="43.315452" lon="-8.420252">
        <ele>286.5</ele>
        <time>2011-06-25T10:13:21Z</time>
      </trkpt>
      <trkpt lat="43.315440" lon="-8.420275">
        <ele>286.5</ele>
        <time>2011-06-25T10:13:22Z</time>
      </trkpt>
      <trkpt lat="43.315427" lon="-8.420297">
        <ele>286.5</ele>
        <time>2011-06-25T10:13:23Z</time>
      </trkpt>
      <trkpt lat="43.315412" lon="-8.420320">
        <ele>286.0</ele>
        <time>2011-06-25T10:13:24Z</time>
      </trkpt>
      <trkpt lat="43.315393" lon="-8.420342">
        <ele>286.0</ele>
        <time>2011-06-25T10:13:25Z</time>
      </trkpt>
      <trkpt lat="43.315377" lon="-8.420365">
        <ele>286.0</ele>
        <time>2011-06-25T10:13:26Z</time>
      </trkpt>
      <trkpt lat="43.315362" lon="-8.420392">
        <ele>285.5</ele>
        <time>2011-06-25T10:13:27Z</time>
      </trkpt>
      <trkpt lat="43.315343" lon="-8.420420">
        <ele>285.5</ele>
        <time>2011-06-25T10:13:28Z</time>
      </trkpt>
      <trkpt lat="43.315327" lon="-8.420448">
        <ele>285.5</ele>
        <time>2011-06-25T10:13:29Z</time>
      </trkpt>
      <trkpt lat="43.315308" lon="-8.420483">
        <ele>285.0</ele>
        <time>2011-06-25T10:13:30Z</time>
      </trkpt>
      <trkpt lat="43.315292" lon="-8.420515">
        <ele>284.5</ele>
        <time>2011-06-25T10:13:31Z</time>
      </trkpt>
      <trkpt lat="43.315275" lon="-8.420545">
        <ele>284.5</ele>
        <time>2011-06-25T10:13:32Z</time>
      </trkpt>
      <trkpt lat="43.315277" lon="-8.420582">
        <ele>285.5</ele>
        <time>2011-06-25T10:13:33Z</time>
      </trkpt>
      <trkpt lat="43.315258" lon="-8.420617">
        <ele>284.5</ele>
        <time>2011-06-25T10:13:34Z</time>
      </trkpt>
      <trkpt lat="43.315240" lon="-8.420650">
        <ele>283.5</ele>
        <time>2011-06-25T10:13:35Z</time>
      </trkpt>
      <trkpt lat="43.315223" lon="-8.420683">
        <ele>283.0</ele>
        <time>2011-06-25T10:13:36Z</time>
      </trkpt>
      <trkpt lat="43.315205" lon="-8.420713">
        <ele>282.5</ele>
        <time>2011-06-25T10:13:37Z</time>
      </trkpt>
      <trkpt lat="43.315185" lon="-8.420745">
        <ele>282.5</ele>
        <time>2011-06-25T10:13:38Z</time>
      </trkpt>
      <trkpt lat="43.315168" lon="-8.420778">
        <ele>282.0</ele>
        <time>2011-06-25T10:13:39Z</time>
      </trkpt>
      <trkpt lat="43.315150" lon="-8.420810">
        <ele>282.0</ele>
        <time>2011-06-25T10:13:40Z</time>
      </trkpt>
      <trkpt lat="43.315128" lon="-8.420840">
        <ele>282.0</ele>
        <time>2011-06-25T10:13:41Z</time>
      </trkpt>
      <trkpt lat="43.315115" lon="-8.420873">
        <ele>282.0</ele>
        <time>2011-06-25T10:13:42Z</time>
      </trkpt>
      <trkpt lat="43.315102" lon="-8.420908">
        <ele>281.5</ele>
        <time>2011-06-25T10:13:43Z</time>
      </trkpt>
      <trkpt lat="43.315083" lon="-8.420943">
        <ele>281.5</ele>
        <time>2011-06-25T10:13:44Z</time>
      </trkpt>
      <trkpt lat="43.315062" lon="-8.420978">
        <ele>281.5</ele>
        <time>2011-06-25T10:13:45Z</time>
      </trkpt>
      <trkpt lat="43.315042" lon="-8.421013">
        <ele>281.5</ele>
        <time>2011-06-25T10:13:46Z</time>
      </trkpt>
      <trkpt lat="43.315020" lon="-8.421050">
        <ele>281.5</ele>
        <time>2011-06-25T10:13:47Z</time>
      </trkpt>
      <trkpt lat="43.315000" lon="-8.421087">
        <ele>281.5</ele>
        <time>2011-06-25T10:13:48Z</time>
      </trkpt>
      <trkpt lat="43.314980" lon="-8.421123">
        <ele>282.0</ele>
        <time>2011-06-25T10:13:49Z</time>
      </trkpt>
      <trkpt lat="43.314960" lon="-8.421158">
        <ele>282.0</ele>
        <time>2011-06-25T10:13:50Z</time>
      </trkpt>
      <trkpt lat="43.314940" lon="-8.421193">
        <ele>282.0</ele>
        <time>2011-06-25T10:13:51Z</time>
      </trkpt>
      <trkpt lat="43.314922" lon="-8.421227">
        <ele>282.5</ele>
        <time>2011-06-25T10:13:52Z</time>
      </trkpt>
      <trkpt lat="43.314920" lon="-8.421267">
        <ele>282.5</ele>
        <time>2011-06-25T10:13:53Z</time>
      </trkpt>
      <trkpt lat="43.314898" lon="-8.421303">
        <ele>282.0</ele>
        <time>2011-06-25T10:13:54Z</time>
      </trkpt>
      <trkpt lat="43.314875" lon="-8.421337">
        <ele>282.0</ele>
        <time>2011-06-25T10:13:55Z</time>
      </trkpt>
      <trkpt lat="43.314855" lon="-8.421370">
        <ele>282.0</ele>
        <time>2011-06-25T10:13:56Z</time>
      </trkpt>
      <trkpt lat="43.314837" lon="-8.421403">
        <ele>282.0</ele>
        <time>2011-06-25T10:13:57Z</time>
      </trkpt>
      <trkpt lat="43.314812" lon="-8.421438">
        <ele>282.0</ele>
        <time>2011-06-25T10:13:58Z</time>
      </trkpt>
      <trkpt lat="43.314792" lon="-8.421473">
        <ele>282.0</ele>
        <time>2011-06-25T10:13:59Z</time>
      </trkpt>
      <trkpt lat="43.314770" lon="-8.421507">
        <ele>282.0</ele>
        <time>2011-06-25T10:14:00Z</time>
      </trkpt>
      <trkpt lat="43.314748" lon="-8.421537">
        <ele>282.0</ele>
        <time>2011-06-25T10:14:01Z</time>
      </trkpt>
      <trkpt lat="43.314728" lon="-8.421565">
        <ele>282.0</ele>
        <time>2011-06-25T10:14:02Z</time>
      </trkpt>
      <trkpt lat="43.314708" lon="-8.421590">
        <ele>282.0</ele>
        <time>2011-06-25T10:14:03Z</time>
      </trkpt>
      <trkpt lat="43.314685" lon="-8.421615">
        <ele>281.5</ele>
        <time>2011-06-25T10:14:04Z</time>
      </trkpt>
      <trkpt lat="43.314663" lon="-8.421640">
        <ele>281.5</ele>
        <time>2011-06-25T10:14:05Z</time>
      </trkpt>
      <trkpt lat="43.314635" lon="-8.421657">
        <ele>281.5</ele>
        <time>2011-06-25T10:14:06Z</time>
      </trkpt>
      <trkpt lat="43.314627" lon="-8.421678">
        <ele>283.5</ele>
        <time>2011-06-25T10:14:07Z</time>
      </trkpt>
      <trkpt lat="43.314608" lon="-8.421700">
        <ele>283.5</ele>
        <time>2011-06-25T10:14:08Z</time>
      </trkpt>
      <trkpt lat="43.314590" lon="-8.421722">
        <ele>284.0</ele>
        <time>2011-06-25T10:14:09Z</time>
      </trkpt>
      <trkpt lat="43.314580" lon="-8.421748">
        <ele>284.5</ele>
        <time>2011-06-25T10:14:10Z</time>
      </trkpt>
      <trkpt lat="43.314557" lon="-8.421768">
        <ele>284.5</ele>
        <time>2011-06-25T10:14:11Z</time>
      </trkpt>
      <trkpt lat="43.314535" lon="-8.421785">
        <ele>284.5</ele>
        <time>2011-06-25T10:14:12Z</time>
      </trkpt>
      <trkpt lat="43.314523" lon="-8.421808">
        <ele>284.5</ele>
        <time>2011-06-25T10:14:13Z</time>
      </trkpt>
      <trkpt lat="43.314502" lon="-8.421828">
        <ele>285.0</ele>
        <time>2011-06-25T10:14:14Z</time>
      </trkpt>
      <trkpt lat="43.314463" lon="-8.421845">
        <ele>284.5</ele>
        <time>2011-06-25T10:14:15Z</time>
      </trkpt>
      <trkpt lat="43.314435" lon="-8.421862">
        <ele>285.0</ele>
        <time>2011-06-25T10:14:16Z</time>
      </trkpt>
      <trkpt lat="43.314410" lon="-8.421877">
        <ele>285.5</ele>
        <time>2011-06-25T10:14:17Z</time>
      </trkpt>
      <trkpt lat="43.314375" lon="-8.421887">
        <ele>285.5</ele>
        <time>2011-06-25T10:14:18Z</time>
      </trkpt>
      <trkpt lat="43.314335" lon="-8.421895">
        <ele>285.0</ele>
        <time>2011-06-25T10:14:19Z</time>
      </trkpt>
      <trkpt lat="43.314302" lon="-8.421895">
        <ele>284.5</ele>
        <time>2011-06-25T10:14:20Z</time>
      </trkpt>
      <trkpt lat="43.314263" lon="-8.421895">
        <ele>285.0</ele>
        <time>2011-06-25T10:14:21Z</time>
      </trkpt>
      <trkpt lat="43.314227" lon="-8.421892">
        <ele>285.5</ele>
        <time>2011-06-25T10:14:22Z</time>
      </trkpt>
      <trkpt lat="43.314195" lon="-8.421897">
        <ele>286.0</ele>
        <time>2011-06-25T10:14:23Z</time>
      </trkpt>
      <trkpt lat="43.314168" lon="-8.421903">
        <ele>285.5</ele>
        <time>2011-06-25T10:14:24Z</time>
      </trkpt>
      <trkpt lat="43.314147" lon="-8.421918">
        <ele>285.5</ele>
        <time>2011-06-25T10:14:26Z</time>
      </trkpt>
      <trkpt lat="43.314120" lon="-8.421930">
        <ele>283.5</ele>
        <time>2011-06-25T10:14:27Z</time>
      </trkpt>
      <trkpt lat="43.314102" lon="-8.421945">
        <ele>282.0</ele>
        <time>2011-06-25T10:14:28Z</time>
      </trkpt>
      <trkpt lat="43.314070" lon="-8.421965">
        <ele>282.0</ele>
        <time>2011-06-25T10:14:29Z</time>
      </trkpt>
      <trkpt lat="43.314047" lon="-8.421980">
        <ele>283.0</ele>
        <time>2011-06-25T10:14:30Z</time>
      </trkpt>
      <trkpt lat="43.314018" lon="-8.421990">
        <ele>283.5</ele>
        <time>2011-06-25T10:14:31Z</time>
      </trkpt>
      <trkpt lat="43.313988" lon="-8.421997">
        <ele>283.0</ele>
        <time>2011-06-25T10:14:32Z</time>
      </trkpt>
      <trkpt lat="43.313957" lon="-8.422003">
        <ele>283.0</ele>
        <time>2011-06-25T10:14:33Z</time>
      </trkpt>
      <trkpt lat="43.313925" lon="-8.422010">
        <ele>282.0</ele>
        <time>2011-06-25T10:14:34Z</time>
      </trkpt>
      <trkpt lat="43.313892" lon="-8.422013">
        <ele>282.0</ele>
        <time>2011-06-25T10:14:35Z</time>
      </trkpt>
      <trkpt lat="43.313858" lon="-8.422015">
        <ele>281.5</ele>
        <time>2011-06-25T10:14:36Z</time>
      </trkpt>
      <trkpt lat="43.313827" lon="-8.422012">
        <ele>281.0</ele>
        <time>2011-06-25T10:14:37Z</time>
      </trkpt>
      <trkpt lat="43.313795" lon="-8.422012">
        <ele>281.5</ele>
        <time>2011-06-25T10:14:38Z</time>
      </trkpt>
      <trkpt lat="43.313765" lon="-8.422005">
        <ele>281.5</ele>
        <time>2011-06-25T10:14:39Z</time>
      </trkpt>
      <trkpt lat="43.313737" lon="-8.421993">
        <ele>281.5</ele>
        <time>2011-06-25T10:14:40Z</time>
      </trkpt>
      <trkpt lat="43.313707" lon="-8.421978">
        <ele>281.5</ele>
        <time>2011-06-25T10:14:41Z</time>
      </trkpt>
      <trkpt lat="43.313683" lon="-8.421955">
        <ele>281.0</ele>
        <time>2011-06-25T10:14:42Z</time>
      </trkpt>
      <trkpt lat="43.313660" lon="-8.421920">
        <ele>280.5</ele>
        <time>2011-06-25T10:14:43Z</time>
      </trkpt>
      <trkpt lat="43.313642" lon="-8.421878">
        <ele>280.5</ele>
        <time>2011-06-25T10:14:44Z</time>
      </trkpt>
      <trkpt lat="43.313632" lon="-8.421833">
        <ele>280.0</ele>
        <time>2011-06-25T10:14:45Z</time>
      </trkpt>
      <trkpt lat="43.313630" lon="-8.421788">
        <ele>279.0</ele>
        <time>2011-06-25T10:14:46Z</time>
      </trkpt>
      <trkpt lat="43.313635" lon="-8.421745">
        <ele>279.0</ele>
        <time>2011-06-25T10:14:47Z</time>
      </trkpt>
      <trkpt lat="43.313647" lon="-8.421702">
        <ele>278.5</ele>
        <time>2011-06-25T10:14:48Z</time>
      </trkpt>
      <trkpt lat="43.313658" lon="-8.421653">
        <ele>278.0</ele>
        <time>2011-06-25T10:14:49Z</time>
      </trkpt>
      <trkpt lat="43.313667" lon="-8.421600">
        <ele>277.5</ele>
        <time>2011-06-25T10:14:50Z</time>
      </trkpt>
      <trkpt lat="43.313665" lon="-8.421538">
        <ele>277.0</ele>
        <time>2011-06-25T10:14:51Z</time>
      </trkpt>
      <trkpt lat="43.313628" lon="-8.421487">
        <ele>277.0</ele>
        <time>2011-06-25T10:14:52Z</time>
      </trkpt>
      <trkpt lat="43.313577" lon="-8.421445">
        <ele>278.0</ele>
        <time>2011-06-25T10:14:53Z</time>
      </trkpt>
      <trkpt lat="43.313530" lon="-8.421403">
        <ele>278.5</ele>
        <time>2011-06-25T10:14:54Z</time>
      </trkpt>
      <trkpt lat="43.313485" lon="-8.421358">
        <ele>278.5</ele>
        <time>2011-06-25T10:14:55Z</time>
      </trkpt>
      <trkpt lat="43.313442" lon="-8.421308">
        <ele>278.0</ele>
        <time>2011-06-25T10:14:56Z</time>
      </trkpt>
      <trkpt lat="43.313392" lon="-8.421263">
        <ele>279.0</ele>
        <time>2011-06-25T10:14:57Z</time>
      </trkpt>
      <trkpt lat="43.313342" lon="-8.421210">
        <ele>279.0</ele>
        <time>2011-06-25T10:14:58Z</time>
      </trkpt>
      <trkpt lat="43.313287" lon="-8.421155">
        <ele>279.5</ele>
        <time>2011-06-25T10:14:59Z</time>
      </trkpt>
      <trkpt lat="43.313230" lon="-8.421095">
        <ele>279.5</ele>
        <time>2011-06-25T10:15:00Z</time>
      </trkpt>
      <trkpt lat="43.313172" lon="-8.421033">
        <ele>279.5</ele>
        <time>2011-06-25T10:15:01Z</time>
      </trkpt>
      <trkpt lat="43.313117" lon="-8.420960">
        <ele>278.0</ele>
        <time>2011-06-25T10:15:02Z</time>
      </trkpt>
      <trkpt lat="43.313055" lon="-8.420893">
        <ele>278.0</ele>
        <time>2011-06-25T10:15:03Z</time>
      </trkpt>
      <trkpt lat="43.312997" lon="-8.420818">
        <ele>277.5</ele>
        <time>2011-06-25T10:15:04Z</time>
      </trkpt>
      <trkpt lat="43.312935" lon="-8.420742">
        <ele>277.0</ele>
        <time>2011-06-25T10:15:05Z</time>
      </trkpt>
      <trkpt lat="43.312872" lon="-8.420665">
        <ele>276.5</ele>
        <time>2011-06-25T10:15:06Z</time>
      </trkpt>
      <trkpt lat="43.312805" lon="-8.420585">
        <ele>276.5</ele>
        <time>2011-06-25T10:15:07Z</time>
      </trkpt>
      <trkpt lat="43.312723" lon="-8.420507">
        <ele>276.5</ele>
        <time>2011-06-25T10:15:08Z</time>
      </trkpt>
      <trkpt lat="43.312653" lon="-8.420423">
        <ele>276.5</ele>
        <time>2011-06-25T10:15:09Z</time>
      </trkpt>
      <trkpt lat="43.312585" lon="-8.420335">
        <ele>276.0</ele>
        <time>2011-06-25T10:15:10Z</time>
      </trkpt>
      <trkpt lat="43.312513" lon="-8.420247">
        <ele>275.0</ele>
        <time>2011-06-25T10:15:11Z</time>
      </trkpt>
      <trkpt lat="43.312445" lon="-8.420155">
        <ele>274.0</ele>
        <time>2011-06-25T10:15:12Z</time>
      </trkpt>
      <trkpt lat="43.312378" lon="-8.420063">
        <ele>273.5</ele>
        <time>2011-06-25T10:15:13Z</time>
      </trkpt>
      <trkpt lat="43.312313" lon="-8.419970">
        <ele>273.0</ele>
        <time>2011-06-25T10:15:14Z</time>
      </trkpt>
      <trkpt lat="43.312248" lon="-8.419880">
        <ele>272.0</ele>
        <time>2011-06-25T10:15:15Z</time>
      </trkpt>
      <trkpt lat="43.312185" lon="-8.419793">
        <ele>271.5</ele>
        <time>2011-06-25T10:15:16Z</time>
      </trkpt>
      <trkpt lat="43.312128" lon="-8.419708">
        <ele>270.5</ele>
        <time>2011-06-25T10:15:17Z</time>
      </trkpt>
      <trkpt lat="43.312080" lon="-8.419628">
        <ele>270.0</ele>
        <time>2011-06-25T10:15:18Z</time>
      </trkpt>
      <trkpt lat="43.312047" lon="-8.419555">
        <ele>269.5</ele>
        <time>2011-06-25T10:15:19Z</time>
      </trkpt>
      <trkpt lat="43.312025" lon="-8.419487">
        <ele>269.5</ele>
        <time>2011-06-25T10:15:20Z</time>
      </trkpt>
      <trkpt lat="43.312002" lon="-8.419427">
        <ele>270.5</ele>
        <time>2011-06-25T10:15:21Z</time>
      </trkpt>
      <trkpt lat="43.311977" lon="-8.419375">
        <ele>271.5</ele>
        <time>2011-06-25T10:15:22Z</time>
      </trkpt>
      <trkpt lat="43.311950" lon="-8.419323">
        <ele>271.5</ele>
        <time>2011-06-25T10:15:23Z</time>
      </trkpt>
      <trkpt lat="43.311837" lon="-8.419210">
        <ele>271.5</ele>
        <time>2011-06-25T10:15:25Z</time>
      </trkpt>
      <trkpt lat="43.311770" lon="-8.419205">
        <ele>271.0</ele>
        <time>2011-06-25T10:15:26Z</time>
      </trkpt>
      <trkpt lat="43.311703" lon="-8.419212">
        <ele>271.0</ele>
        <time>2011-06-25T10:15:27Z</time>
      </trkpt>
      <trkpt lat="43.311645" lon="-8.419182">
        <ele>271.5</ele>
        <time>2011-06-25T10:15:28Z</time>
      </trkpt>
      <trkpt lat="43.311597" lon="-8.419137">
        <ele>271.5</ele>
        <time>2011-06-25T10:15:29Z</time>
      </trkpt>
      <trkpt lat="43.311555" lon="-8.419093">
        <ele>271.5</ele>
        <time>2011-06-25T10:15:30Z</time>
      </trkpt>
      <trkpt lat="43.311522" lon="-8.419048">
        <ele>272.0</ele>
        <time>2011-06-25T10:15:31Z</time>
      </trkpt>
      <trkpt lat="43.311490" lon="-8.419005">
        <ele>272.0</ele>
        <time>2011-06-25T10:15:32Z</time>
      </trkpt>
      <trkpt lat="43.311460" lon="-8.418968">
        <ele>272.0</ele>
        <time>2011-06-25T10:15:33Z</time>
      </trkpt>
      <trkpt lat="43.311433" lon="-8.418937">
        <ele>272.0</ele>
        <time>2011-06-25T10:15:34Z</time>
      </trkpt>
      <trkpt lat="43.311412" lon="-8.418910">
        <ele>271.5</ele>
        <time>2011-06-25T10:15:35Z</time>
      </trkpt>
      <trkpt lat="43.311392" lon="-8.418882">
        <ele>271.0</ele>
        <time>2011-06-25T10:15:36Z</time>
      </trkpt>
      <trkpt lat="43.311370" lon="-8.418850">
        <ele>270.5</ele>
        <time>2011-06-25T10:15:37Z</time>
      </trkpt>
      <trkpt lat="43.311353" lon="-8.418817">
        <ele>270.0</ele>
        <time>2011-06-25T10:15:38Z</time>
      </trkpt>
      <trkpt lat="43.311338" lon="-8.418778">
        <ele>269.5</ele>
        <time>2011-06-25T10:15:39Z</time>
      </trkpt>
      <trkpt lat="43.311318" lon="-8.418743">
        <ele>269.5</ele>
        <time>2011-06-25T10:15:40Z</time>
      </trkpt>
      <trkpt lat="43.311295" lon="-8.418717">
        <ele>269.5</ele>
        <time>2011-06-25T10:15:41Z</time>
      </trkpt>
      <trkpt lat="43.311272" lon="-8.418680">
        <ele>268.0</ele>
        <time>2011-06-25T10:15:42Z</time>
      </trkpt>
      <trkpt lat="43.311250" lon="-8.418647">
        <ele>267.5</ele>
        <time>2011-06-25T10:15:43Z</time>
      </trkpt>
      <trkpt lat="43.311227" lon="-8.418603">
        <ele>267.5</ele>
        <time>2011-06-25T10:15:44Z</time>
      </trkpt>
      <trkpt lat="43.311200" lon="-8.418558">
        <ele>267.5</ele>
        <time>2011-06-25T10:15:45Z</time>
      </trkpt>
      <trkpt lat="43.311173" lon="-8.418508">
        <ele>267.5</ele>
        <time>2011-06-25T10:15:46Z</time>
      </trkpt>
      <trkpt lat="43.311145" lon="-8.418450">
        <ele>266.5</ele>
        <time>2011-06-25T10:15:47Z</time>
      </trkpt>
      <trkpt lat="43.311115" lon="-8.418383">
        <ele>265.5</ele>
        <time>2011-06-25T10:15:48Z</time>
      </trkpt>
      <trkpt lat="43.311075" lon="-8.418317">
        <ele>265.0</ele>
        <time>2011-06-25T10:15:49Z</time>
      </trkpt>
      <trkpt lat="43.311005" lon="-8.418268">
        <ele>265.5</ele>
        <time>2011-06-25T10:15:50Z</time>
      </trkpt>
      <trkpt lat="43.310958" lon="-8.418208">
        <ele>264.5</ele>
        <time>2011-06-25T10:15:51Z</time>
      </trkpt>
      <trkpt lat="43.310915" lon="-8.418150">
        <ele>263.5</ele>
        <time>2011-06-25T10:15:52Z</time>
      </trkpt>
      <trkpt lat="43.310858" lon="-8.418132">
        <ele>263.0</ele>
        <time>2011-06-25T10:15:53Z</time>
      </trkpt>
      <trkpt lat="43.310812" lon="-8.418137">
        <ele>263.0</ele>
        <time>2011-06-25T10:15:54Z</time>
      </trkpt>
      <trkpt lat="43.310758" lon="-8.418145">
        <ele>263.0</ele>
        <time>2011-06-25T10:15:55Z</time>
      </trkpt>
      <trkpt lat="43.310727" lon="-8.418188">
        <ele>263.0</ele>
        <time>2011-06-25T10:15:56Z</time>
      </trkpt>
      <trkpt lat="43.310712" lon="-8.418225">
        <ele>263.5</ele>
        <time>2011-06-25T10:15:57Z</time>
      </trkpt>
      <trkpt lat="43.310693" lon="-8.418258">
        <ele>263.0</ele>
        <time>2011-06-25T10:15:58Z</time>
      </trkpt>
      <trkpt lat="43.310677" lon="-8.418290">
        <ele>263.0</ele>
        <time>2011-06-25T10:15:59Z</time>
      </trkpt>
      <trkpt lat="43.310658" lon="-8.418322">
        <ele>262.5</ele>
        <time>2011-06-25T10:16:00Z</time>
      </trkpt>
      <trkpt lat="43.310633" lon="-8.418357">
        <ele>262.5</ele>
        <time>2011-06-25T10:16:01Z</time>
      </trkpt>
      <trkpt lat="43.310605" lon="-8.418388">
        <ele>262.5</ele>
        <time>2011-06-25T10:16:02Z</time>
      </trkpt>
      <trkpt lat="43.310573" lon="-8.418417">
        <ele>262.0</ele>
        <time>2011-06-25T10:16:03Z</time>
      </trkpt>
      <trkpt lat="43.310547" lon="-8.418452">
        <ele>262.5</ele>
        <time>2011-06-25T10:16:04Z</time>
      </trkpt>
      <trkpt lat="43.310520" lon="-8.418483">
        <ele>262.0</ele>
        <time>2011-06-25T10:16:05Z</time>
      </trkpt>
      <trkpt lat="43.310495" lon="-8.418513">
        <ele>262.5</ele>
        <time>2011-06-25T10:16:06Z</time>
      </trkpt>
      <trkpt lat="43.310465" lon="-8.418532">
        <ele>262.0</ele>
        <time>2011-06-25T10:16:07Z</time>
      </trkpt>
      <trkpt lat="43.310418" lon="-8.418512">
        <ele>262.0</ele>
        <time>2011-06-25T10:16:08Z</time>
      </trkpt>
      <trkpt lat="43.310365" lon="-8.418483">
        <ele>261.5</ele>
        <time>2011-06-25T10:16:09Z</time>
      </trkpt>
      <trkpt lat="43.310340" lon="-8.418427">
        <ele>260.0</ele>
        <time>2011-06-25T10:16:10Z</time>
      </trkpt>
      <trkpt lat="43.310233" lon="-8.418308">
        <ele>260.0</ele>
        <time>2011-06-25T10:16:12Z</time>
      </trkpt>
      <trkpt lat="43.310205" lon="-8.418222">
        <ele>260.5</ele>
        <time>2011-06-25T10:16:13Z</time>
      </trkpt>
      <trkpt lat="43.310210" lon="-8.418123">
        <ele>259.5</ele>
        <time>2011-06-25T10:16:14Z</time>
      </trkpt>
      <trkpt lat="43.310223" lon="-8.418035">
        <ele>259.5</ele>
        <time>2011-06-25T10:16:15Z</time>
      </trkpt>
      <trkpt lat="43.310243" lon="-8.417948">
        <ele>259.0</ele>
        <time>2011-06-25T10:16:16Z</time>
      </trkpt>
      <trkpt lat="43.310260" lon="-8.417868">
        <ele>259.0</ele>
        <time>2011-06-25T10:16:17Z</time>
      </trkpt>
      <trkpt lat="43.310278" lon="-8.417787">
        <ele>257.5</ele>
        <time>2011-06-25T10:16:18Z</time>
      </trkpt>
      <trkpt lat="43.310292" lon="-8.417710">
        <ele>258.0</ele>
        <time>2011-06-25T10:16:19Z</time>
      </trkpt>
      <trkpt lat="43.310303" lon="-8.417630">
        <ele>257.5</ele>
        <time>2011-06-25T10:16:20Z</time>
      </trkpt>
      <trkpt lat="43.310320" lon="-8.417552">
        <ele>257.0</ele>
        <time>2011-06-25T10:16:21Z</time>
      </trkpt>
      <trkpt lat="43.310340" lon="-8.417473">
        <ele>256.0</ele>
        <time>2011-06-25T10:16:22Z</time>
      </trkpt>
      <trkpt lat="43.310363" lon="-8.417397">
        <ele>256.0</ele>
        <time>2011-06-25T10:16:23Z</time>
      </trkpt>
      <trkpt lat="43.310385" lon="-8.417325">
        <ele>256.0</ele>
        <time>2011-06-25T10:16:24Z</time>
      </trkpt>
      <trkpt lat="43.310408" lon="-8.417257">
        <ele>255.5</ele>
        <time>2011-06-25T10:16:25Z</time>
      </trkpt>
      <trkpt lat="43.310437" lon="-8.417193">
        <ele>255.0</ele>
        <time>2011-06-25T10:16:26Z</time>
      </trkpt>
      <trkpt lat="43.310463" lon="-8.417133">
        <ele>254.5</ele>
        <time>2011-06-25T10:16:27Z</time>
      </trkpt>
      <trkpt lat="43.310487" lon="-8.417073">
        <ele>254.5</ele>
        <time>2011-06-25T10:16:28Z</time>
      </trkpt>
      <trkpt lat="43.310508" lon="-8.417018">
        <ele>255.0</ele>
        <time>2011-06-25T10:16:29Z</time>
      </trkpt>
      <trkpt lat="43.310525" lon="-8.416962">
        <ele>255.0</ele>
        <time>2011-06-25T10:16:30Z</time>
      </trkpt>
      <trkpt lat="43.310547" lon="-8.416903">
        <ele>254.5</ele>
        <time>2011-06-25T10:16:31Z</time>
      </trkpt>
      <trkpt lat="43.310568" lon="-8.416843">
        <ele>254.5</ele>
        <time>2011-06-25T10:16:32Z</time>
      </trkpt>
      <trkpt lat="43.310592" lon="-8.416778">
        <ele>254.5</ele>
        <time>2011-06-25T10:16:33Z</time>
      </trkpt>
      <trkpt lat="43.310617" lon="-8.416712">
        <ele>255.0</ele>
        <time>2011-06-25T10:16:34Z</time>
      </trkpt>
      <trkpt lat="43.310647" lon="-8.416640">
        <ele>255.5</ele>
        <time>2011-06-25T10:16:35Z</time>
      </trkpt>
      <trkpt lat="43.310682" lon="-8.416567">
        <ele>255.5</ele>
        <time>2011-06-25T10:16:36Z</time>
      </trkpt>
      <trkpt lat="43.310715" lon="-8.416495">
        <ele>255.0</ele>
        <time>2011-06-25T10:16:37Z</time>
      </trkpt>
      <trkpt lat="43.310752" lon="-8.416425">
        <ele>254.5</ele>
        <time>2011-06-25T10:16:38Z</time>
      </trkpt>
      <trkpt lat="43.310782" lon="-8.416357">
        <ele>255.0</ele>
        <time>2011-06-25T10:16:39Z</time>
      </trkpt>
      <trkpt lat="43.310803" lon="-8.416288">
        <ele>255.0</ele>
        <time>2011-06-25T10:16:40Z</time>
      </trkpt>
      <trkpt lat="43.310795" lon="-8.416212">
        <ele>255.5</ele>
        <time>2011-06-25T10:16:41Z</time>
      </trkpt>
      <trkpt lat="43.310765" lon="-8.416167">
        <ele>255.5</ele>
        <time>2011-06-25T10:16:42Z</time>
      </trkpt>
      <trkpt lat="43.310737" lon="-8.416127">
        <ele>255.5</ele>
        <time>2011-06-25T10:16:43Z</time>
      </trkpt>
      <trkpt lat="43.310708" lon="-8.416093">
        <ele>255.0</ele>
        <time>2011-06-25T10:16:44Z</time>
      </trkpt>
      <trkpt lat="43.310673" lon="-8.416070">
        <ele>254.5</ele>
        <time>2011-06-25T10:16:45Z</time>
      </trkpt>
      <trkpt lat="43.310640" lon="-8.416048">
        <ele>254.5</ele>
        <time>2011-06-25T10:16:46Z</time>
      </trkpt>
      <trkpt lat="43.310607" lon="-8.416030">
        <ele>254.5</ele>
        <time>2011-06-25T10:16:47Z</time>
      </trkpt>
      <trkpt lat="43.310575" lon="-8.416017">
        <ele>254.5</ele>
        <time>2011-06-25T10:16:48Z</time>
      </trkpt>
      <trkpt lat="43.310542" lon="-8.415998">
        <ele>255.0</ele>
        <time>2011-06-25T10:16:49Z</time>
      </trkpt>
      <trkpt lat="43.310510" lon="-8.415987">
        <ele>256.0</ele>
        <time>2011-06-25T10:16:50Z</time>
      </trkpt>
      <trkpt lat="43.310478" lon="-8.415973">
        <ele>256.5</ele>
        <time>2011-06-25T10:16:51Z</time>
      </trkpt>
      <trkpt lat="43.310450" lon="-8.415957">
        <ele>257.0</ele>
        <time>2011-06-25T10:16:52Z</time>
      </trkpt>
      <trkpt lat="43.310422" lon="-8.415943">
        <ele>258.0</ele>
        <time>2011-06-25T10:16:53Z</time>
      </trkpt>
      <trkpt lat="43.310392" lon="-8.415937">
        <ele>258.5</ele>
        <time>2011-06-25T10:16:54Z</time>
      </trkpt>
      <trkpt lat="43.310363" lon="-8.415928">
        <ele>258.5</ele>
        <time>2011-06-25T10:16:55Z</time>
      </trkpt>
      <trkpt lat="43.310335" lon="-8.415917">
        <ele>259.0</ele>
        <time>2011-06-25T10:16:56Z</time>
      </trkpt>
      <trkpt lat="43.310308" lon="-8.415907">
        <ele>259.0</ele>
        <time>2011-06-25T10:16:57Z</time>
      </trkpt>
      <trkpt lat="43.310282" lon="-8.415895">
        <ele>259.5</ele>
        <time>2011-06-25T10:16:58Z</time>
      </trkpt>
      <trkpt lat="43.310252" lon="-8.415883">
        <ele>260.0</ele>
        <time>2011-06-25T10:16:59Z</time>
      </trkpt>
      <trkpt lat="43.310217" lon="-8.415878">
        <ele>260.5</ele>
        <time>2011-06-25T10:17:00Z</time>
      </trkpt>
      <trkpt lat="43.310182" lon="-8.415870">
        <ele>261.0</ele>
        <time>2011-06-25T10:17:01Z</time>
      </trkpt>
      <trkpt lat="43.310150" lon="-8.415855">
        <ele>261.0</ele>
        <time>2011-06-25T10:17:02Z</time>
      </trkpt>
      <trkpt lat="43.310120" lon="-8.415837">
        <ele>261.5</ele>
        <time>2011-06-25T10:17:03Z</time>
      </trkpt>
      <trkpt lat="43.310090" lon="-8.415822">
        <ele>262.0</ele>
        <time>2011-06-25T10:17:04Z</time>
      </trkpt>
      <trkpt lat="43.310063" lon="-8.415803">
        <ele>262.5</ele>
        <time>2011-06-25T10:17:05Z</time>
      </trkpt>
      <trkpt lat="43.310040" lon="-8.415783">
        <ele>262.5</ele>
        <time>2011-06-25T10:17:06Z</time>
      </trkpt>
      <trkpt lat="43.310018" lon="-8.415763">
        <ele>262.5</ele>
        <time>2011-06-25T10:17:07Z</time>
      </trkpt>
      <trkpt lat="43.310000" lon="-8.415743">
        <ele>262.5</ele>
        <time>2011-06-25T10:17:08Z</time>
      </trkpt>
      <trkpt lat="43.309978" lon="-8.415718">
        <ele>262.5</ele>
        <time>2011-06-25T10:17:09Z</time>
      </trkpt>
      <trkpt lat="43.309962" lon="-8.415688">
        <ele>261.5</ele>
        <time>2011-06-25T10:17:10Z</time>
      </trkpt>
      <trkpt lat="43.309937" lon="-8.415677">
        <ele>261.5</ele>
        <time>2011-06-25T10:17:11Z</time>
      </trkpt>
      <trkpt lat="43.309913" lon="-8.415667">
        <ele>261.5</ele>
        <time>2011-06-25T10:17:12Z</time>
      </trkpt>
    </trkseg>
  </trk>
  <trk>
    <name>T2067676-8</name>
    <cmt>saida con compañeiros do C.C.Arteixo polos arredores da Coruña</cmt>
    <desc>saida con compañeiros do C.C.Arteixo polos arredores da Coruña</desc>
    <trkseg>
      <trkpt lat="43.309888" lon="-8.415662">
        <ele>262.0</ele>
        <time>2011-06-25T10:17:13Z</time>
      </trkpt>
      <trkpt lat="43.309865" lon="-8.415655">
        <ele>262.5</ele>
        <time>2011-06-25T10:17:14Z</time>
      </trkpt>
      <trkpt lat="43.309877" lon="-8.415645">
        <ele>261.5</ele>
        <time>2011-06-25T10:17:15Z</time>
      </trkpt>
      <trkpt lat="43.309858" lon="-8.415637">
        <ele>262.0</ele>
        <time>2011-06-25T10:17:16Z</time>
      </trkpt>
      <trkpt lat="43.309847" lon="-8.415630">
        <ele>262.0</ele>
        <time>2011-06-25T10:17:17Z</time>
      </trkpt>
      <trkpt lat="43.309840" lon="-8.415623">
        <ele>262.0</ele>
        <time>2011-06-25T10:17:18Z</time>
      </trkpt>
      <trkpt lat="43.309822" lon="-8.415615">
        <ele>261.5</ele>
        <time>2011-06-25T10:17:19Z</time>
      </trkpt>
      <trkpt lat="43.309788" lon="-8.415615">
        <ele>261.5</ele>
        <time>2011-06-25T10:17:20Z</time>
      </trkpt>
      <trkpt lat="43.309762" lon="-8.415622">
        <ele>261.5</ele>
        <time>2011-06-25T10:17:21Z</time>
      </trkpt>
      <trkpt lat="43.309728" lon="-8.415628">
        <ele>262.5</ele>
        <time>2011-06-25T10:17:22Z</time>
      </trkpt>
      <trkpt lat="43.309702" lon="-8.415628">
        <ele>263.0</ele>
        <time>2011-06-25T10:17:23Z</time>
      </trkpt>
      <trkpt lat="43.309688" lon="-8.415622">
        <ele>264.0</ele>
        <time>2011-06-25T10:17:24Z</time>
      </trkpt>
      <trkpt lat="43.309678" lon="-8.415615">
        <ele>264.0</ele>
        <time>2011-06-25T10:17:25Z</time>
      </trkpt>
      <trkpt lat="43.309642" lon="-8.415608">
        <ele>265.0</ele>
        <time>2011-06-25T10:17:27Z</time>
      </trkpt>
      <trkpt lat="43.309628" lon="-8.415602">
        <ele>265.5</ele>
        <time>2011-06-25T10:17:28Z</time>
      </trkpt>
      <trkpt lat="43.309618" lon="-8.415592">
        <ele>266.0</ele>
        <time>2011-06-25T10:17:29Z</time>
      </trkpt>
      <trkpt lat="43.309607" lon="-8.415587">
        <ele>266.5</ele>
        <time>2011-06-25T10:17:30Z</time>
      </trkpt>
      <trkpt lat="43.309585" lon="-8.415582">
        <ele>268.0</ele>
        <time>2011-06-25T10:17:31Z</time>
      </trkpt>
      <trkpt lat="43.309560" lon="-8.415573">
        <ele>268.5</ele>
        <time>2011-06-25T10:17:32Z</time>
      </trkpt>
      <trkpt lat="43.309538" lon="-8.415558">
        <ele>269.5</ele>
        <time>2011-06-25T10:17:34Z</time>
      </trkpt>
      <trkpt lat="43.309507" lon="-8.415557">
        <ele>271.5</ele>
        <time>2011-06-25T10:17:35Z</time>
      </trkpt>
      <trkpt lat="43.309482" lon="-8.415557">
        <ele>273.0</ele>
        <time>2011-06-25T10:17:36Z</time>
      </trkpt>
      <trkpt lat="43.309433" lon="-8.415535">
        <ele>274.0</ele>
        <time>2011-06-25T10:17:38Z</time>
      </trkpt>
      <trkpt lat="43.309423" lon="-8.415522">
        <ele>274.0</ele>
        <time>2011-06-25T10:17:39Z</time>
      </trkpt>
      <trkpt lat="43.309415" lon="-8.415510">
        <ele>274.5</ele>
        <time>2011-06-25T10:17:40Z</time>
      </trkpt>
      <trkpt lat="43.309405" lon="-8.415497">
        <ele>273.5</ele>
        <time>2011-06-25T10:17:41Z</time>
      </trkpt>
      <trkpt lat="43.309395" lon="-8.415482">
        <ele>274.0</ele>
        <time>2011-06-25T10:17:42Z</time>
      </trkpt>
      <trkpt lat="43.309370" lon="-8.415467">
        <ele>274.0</ele>
        <time>2011-06-25T10:17:43Z</time>
      </trkpt>
      <trkpt lat="43.309350" lon="-8.415457">
        <ele>274.0</ele>
        <time>2011-06-25T10:17:44Z</time>
      </trkpt>
      <trkpt lat="43.309343" lon="-8.415443">
        <ele>274.0</ele>
        <time>2011-06-25T10:17:45Z</time>
      </trkpt>
      <trkpt lat="43.309328" lon="-8.415432">
        <ele>274.0</ele>
        <time>2011-06-25T10:17:46Z</time>
      </trkpt>
      <trkpt lat="43.309318" lon="-8.415420">
        <ele>276.0</ele>
        <time>2011-06-25T10:17:47Z</time>
      </trkpt>
      <trkpt lat="43.309307" lon="-8.415407">
        <ele>276.0</ele>
        <time>2011-06-25T10:17:48Z</time>
      </trkpt>
      <trkpt lat="43.309298" lon="-8.415393">
        <ele>277.5</ele>
        <time>2011-06-25T10:17:49Z</time>
      </trkpt>
      <trkpt lat="43.309283" lon="-8.415380">
        <ele>278.0</ele>
        <time>2011-06-25T10:17:50Z</time>
      </trkpt>
      <trkpt lat="43.309265" lon="-8.415365">
        <ele>279.0</ele>
        <time>2011-06-25T10:17:51Z</time>
      </trkpt>
      <trkpt lat="43.309237" lon="-8.415348">
        <ele>279.5</ele>
        <time>2011-06-25T10:17:52Z</time>
      </trkpt>
      <trkpt lat="43.309218" lon="-8.415343">
        <ele>280.5</ele>
        <time>2011-06-25T10:17:53Z</time>
      </trkpt>
      <trkpt lat="43.309188" lon="-8.415327">
        <ele>280.5</ele>
        <time>2011-06-25T10:17:54Z</time>
      </trkpt>
      <trkpt lat="43.309168" lon="-8.415312">
        <ele>280.5</ele>
        <time>2011-06-25T10:17:55Z</time>
      </trkpt>
      <trkpt lat="43.309142" lon="-8.415300">
        <ele>281.0</ele>
        <time>2011-06-25T10:17:56Z</time>
      </trkpt>
      <trkpt lat="43.309113" lon="-8.415282">
        <ele>282.0</ele>
        <time>2011-06-25T10:17:57Z</time>
      </trkpt>
      <trkpt lat="43.309083" lon="-8.415268">
        <ele>282.5</ele>
        <time>2011-06-25T10:17:58Z</time>
      </trkpt>
      <trkpt lat="43.309052" lon="-8.415252">
        <ele>283.0</ele>
        <time>2011-06-25T10:17:59Z</time>
      </trkpt>
      <trkpt lat="43.309025" lon="-8.415240">
        <ele>283.0</ele>
        <time>2011-06-25T10:18:00Z</time>
      </trkpt>
      <trkpt lat="43.309003" lon="-8.415230">
        <ele>284.0</ele>
        <time>2011-06-25T10:18:01Z</time>
      </trkpt>
      <trkpt lat="43.308987" lon="-8.415220">
        <ele>284.0</ele>
        <time>2011-06-25T10:18:02Z</time>
      </trkpt>
      <trkpt lat="43.308967" lon="-8.415207">
        <ele>284.5</ele>
        <time>2011-06-25T10:18:03Z</time>
      </trkpt>
      <trkpt lat="43.308942" lon="-8.415197">
        <ele>285.0</ele>
        <time>2011-06-25T10:18:04Z</time>
      </trkpt>
      <trkpt lat="43.308917" lon="-8.415185">
        <ele>285.0</ele>
        <time>2011-06-25T10:18:05Z</time>
      </trkpt>
      <trkpt lat="43.308903" lon="-8.415172">
        <ele>285.5</ele>
        <time>2011-06-25T10:18:06Z</time>
      </trkpt>
      <trkpt lat="43.308887" lon="-8.415167">
        <ele>286.5</ele>
        <time>2011-06-25T10:18:07Z</time>
      </trkpt>
      <trkpt lat="43.308868" lon="-8.415162">
        <ele>287.0</ele>
        <time>2011-06-25T10:18:08Z</time>
      </trkpt>
      <trkpt lat="43.308852" lon="-8.415150">
        <ele>287.0</ele>
        <time>2011-06-25T10:18:09Z</time>
      </trkpt>
      <trkpt lat="43.308833" lon="-8.415147">
        <ele>287.5</ele>
        <time>2011-06-25T10:18:10Z</time>
      </trkpt>
      <trkpt lat="43.308815" lon="-8.415138">
        <ele>288.0</ele>
        <time>2011-06-25T10:18:11Z</time>
      </trkpt>
      <trkpt lat="43.308795" lon="-8.415148">
        <ele>289.5</ele>
        <time>2011-06-25T10:18:12Z</time>
      </trkpt>
      <trkpt lat="43.308773" lon="-8.415153">
        <ele>290.5</ele>
        <time>2011-06-25T10:18:13Z</time>
      </trkpt>
      <trkpt lat="43.308757" lon="-8.415155">
        <ele>291.0</ele>
        <time>2011-06-25T10:18:14Z</time>
      </trkpt>
      <trkpt lat="43.308743" lon="-8.415145">
        <ele>290.5</ele>
        <time>2011-06-25T10:18:15Z</time>
      </trkpt>
      <trkpt lat="43.308727" lon="-8.415153">
        <ele>291.0</ele>
        <time>2011-06-25T10:18:16Z</time>
      </trkpt>
      <trkpt lat="43.308710" lon="-8.415148">
        <ele>290.5</ele>
        <time>2011-06-25T10:18:17Z</time>
      </trkpt>
      <trkpt lat="43.308695" lon="-8.415138">
        <ele>290.5</ele>
        <time>2011-06-25T10:18:18Z</time>
      </trkpt>
      <trkpt lat="43.308675" lon="-8.415133">
        <ele>291.0</ele>
        <time>2011-06-25T10:18:19Z</time>
      </trkpt>
      <trkpt lat="43.308655" lon="-8.415120">
        <ele>291.5</ele>
        <time>2011-06-25T10:18:20Z</time>
      </trkpt>
      <trkpt lat="43.308635" lon="-8.415107">
        <ele>292.0</ele>
        <time>2011-06-25T10:18:21Z</time>
      </trkpt>
      <trkpt lat="43.308617" lon="-8.415107">
        <ele>292.5</ele>
        <time>2011-06-25T10:18:22Z</time>
      </trkpt>
      <trkpt lat="43.308598" lon="-8.415093">
        <ele>292.5</ele>
        <time>2011-06-25T10:18:23Z</time>
      </trkpt>
      <trkpt lat="43.308583" lon="-8.415080">
        <ele>292.5</ele>
        <time>2011-06-25T10:18:24Z</time>
      </trkpt>
      <trkpt lat="43.308567" lon="-8.415068">
        <ele>292.5</ele>
        <time>2011-06-25T10:18:25Z</time>
      </trkpt>
      <trkpt lat="43.308548" lon="-8.415055">
        <ele>293.0</ele>
        <time>2011-06-25T10:18:26Z</time>
      </trkpt>
      <trkpt lat="43.308517" lon="-8.415027">
        <ele>293.0</ele>
        <time>2011-06-25T10:18:28Z</time>
      </trkpt>
      <trkpt lat="43.308503" lon="-8.415017">
        <ele>293.0</ele>
        <time>2011-06-25T10:18:29Z</time>
      </trkpt>
      <trkpt lat="43.308488" lon="-8.415007">
        <ele>293.0</ele>
        <time>2011-06-25T10:18:30Z</time>
      </trkpt>
      <trkpt lat="43.308475" lon="-8.414993">
        <ele>293.0</ele>
        <time>2011-06-25T10:18:31Z</time>
      </trkpt>
      <trkpt lat="43.308458" lon="-8.414982">
        <ele>293.0</ele>
        <time>2011-06-25T10:18:32Z</time>
      </trkpt>
      <trkpt lat="43.308438" lon="-8.414973">
        <ele>293.5</ele>
        <time>2011-06-25T10:18:33Z</time>
      </trkpt>
      <trkpt lat="43.308418" lon="-8.414962">
        <ele>293.5</ele>
        <time>2011-06-25T10:18:34Z</time>
      </trkpt>
      <trkpt lat="43.308398" lon="-8.414952">
        <ele>293.5</ele>
        <time>2011-06-25T10:18:35Z</time>
      </trkpt>
      <trkpt lat="43.308378" lon="-8.414938">
        <ele>294.0</ele>
        <time>2011-06-25T10:18:36Z</time>
      </trkpt>
      <trkpt lat="43.308360" lon="-8.414928">
        <ele>294.0</ele>
        <time>2011-06-25T10:18:37Z</time>
      </trkpt>
      <trkpt lat="43.308340" lon="-8.414913">
        <ele>294.0</ele>
        <time>2011-06-25T10:18:38Z</time>
      </trkpt>
      <trkpt lat="43.308322" lon="-8.414903">
        <ele>294.5</ele>
        <time>2011-06-25T10:18:39Z</time>
      </trkpt>
      <trkpt lat="43.308303" lon="-8.414893">
        <ele>294.5</ele>
        <time>2011-06-25T10:18:40Z</time>
      </trkpt>
      <trkpt lat="43.308285" lon="-8.414883">
        <ele>295.0</ele>
        <time>2011-06-25T10:18:41Z</time>
      </trkpt>
      <trkpt lat="43.308263" lon="-8.414880">
        <ele>295.5</ele>
        <time>2011-06-25T10:18:42Z</time>
      </trkpt>
      <trkpt lat="43.308243" lon="-8.414870">
        <ele>295.5</ele>
        <time>2011-06-25T10:18:43Z</time>
      </trkpt>
      <trkpt lat="43.308228" lon="-8.414850">
        <ele>295.0</ele>
        <time>2011-06-25T10:18:44Z</time>
      </trkpt>
      <trkpt lat="43.308208" lon="-8.414843">
        <ele>295.0</ele>
        <time>2011-06-25T10:18:45Z</time>
      </trkpt>
      <trkpt lat="43.308190" lon="-8.414832">
        <ele>294.5</ele>
        <time>2011-06-25T10:18:46Z</time>
      </trkpt>
      <trkpt lat="43.308173" lon="-8.414818">
        <ele>295.0</ele>
        <time>2011-06-25T10:18:47Z</time>
      </trkpt>
      <trkpt lat="43.308157" lon="-8.414802">
        <ele>294.5</ele>
        <time>2011-06-25T10:18:48Z</time>
      </trkpt>
      <trkpt lat="43.308142" lon="-8.414785">
        <ele>294.0</ele>
        <time>2011-06-25T10:18:49Z</time>
      </trkpt>
      <trkpt lat="43.308123" lon="-8.414777">
        <ele>294.0</ele>
        <time>2011-06-25T10:18:50Z</time>
      </trkpt>
      <trkpt lat="43.308103" lon="-8.414767">
        <ele>294.0</ele>
        <time>2011-06-25T10:18:51Z</time>
      </trkpt>
      <trkpt lat="43.308085" lon="-8.414753">
        <ele>294.0</ele>
        <time>2011-06-25T10:18:52Z</time>
      </trkpt>
      <trkpt lat="43.308067" lon="-8.414740">
        <ele>294.5</ele>
        <time>2011-06-25T10:18:53Z</time>
      </trkpt>
      <trkpt lat="43.308048" lon="-8.414730">
        <ele>294.5</ele>
        <time>2011-06-25T10:18:54Z</time>
      </trkpt>
      <trkpt lat="43.308030" lon="-8.414720">
        <ele>294.5</ele>
        <time>2011-06-25T10:18:55Z</time>
      </trkpt>
      <trkpt lat="43.308015" lon="-8.414697">
        <ele>294.0</ele>
        <time>2011-06-25T10:18:56Z</time>
      </trkpt>
      <trkpt lat="43.308000" lon="-8.414678">
        <ele>293.5</ele>
        <time>2011-06-25T10:18:57Z</time>
      </trkpt>
      <trkpt lat="43.307982" lon="-8.414672">
        <ele>293.0</ele>
        <time>2011-06-25T10:18:58Z</time>
      </trkpt>
      <trkpt lat="43.307965" lon="-8.414650">
        <ele>292.5</ele>
        <time>2011-06-25T10:18:59Z</time>
      </trkpt>
      <trkpt lat="43.307950" lon="-8.414625">
        <ele>292.0</ele>
        <time>2011-06-25T10:19:00Z</time>
      </trkpt>
      <trkpt lat="43.307937" lon="-8.414600">
        <ele>291.5</ele>
        <time>2011-06-25T10:19:01Z</time>
      </trkpt>
      <trkpt lat="43.307922" lon="-8.414582">
        <ele>291.5</ele>
        <time>2011-06-25T10:19:02Z</time>
      </trkpt>
      <trkpt lat="43.307903" lon="-8.414570">
        <ele>292.0</ele>
        <time>2011-06-25T10:19:03Z</time>
      </trkpt>
      <trkpt lat="43.307887" lon="-8.414555">
        <ele>292.5</ele>
        <time>2011-06-25T10:19:04Z</time>
      </trkpt>
      <trkpt lat="43.307872" lon="-8.414540">
        <ele>292.5</ele>
        <time>2011-06-25T10:19:05Z</time>
      </trkpt>
      <trkpt lat="43.307855" lon="-8.414522">
        <ele>292.5</ele>
        <time>2011-06-25T10:19:06Z</time>
      </trkpt>
      <trkpt lat="43.307838" lon="-8.414507">
        <ele>292.5</ele>
        <time>2011-06-25T10:19:07Z</time>
      </trkpt>
      <trkpt lat="43.307825" lon="-8.414485">
        <ele>292.5</ele>
        <time>2011-06-25T10:19:08Z</time>
      </trkpt>
      <trkpt lat="43.307810" lon="-8.414462">
        <ele>292.0</ele>
        <time>2011-06-25T10:19:09Z</time>
      </trkpt>
      <trkpt lat="43.307797" lon="-8.414447">
        <ele>292.5</ele>
        <time>2011-06-25T10:19:10Z</time>
      </trkpt>
      <trkpt lat="43.307782" lon="-8.414433">
        <ele>292.5</ele>
        <time>2011-06-25T10:19:11Z</time>
      </trkpt>
      <trkpt lat="43.307767" lon="-8.414422">
        <ele>293.0</ele>
        <time>2011-06-25T10:19:12Z</time>
      </trkpt>
      <trkpt lat="43.307755" lon="-8.414423">
        <ele>294.0</ele>
        <time>2011-06-25T10:19:13Z</time>
      </trkpt>
      <trkpt lat="43.307755" lon="-8.414412">
        <ele>293.5</ele>
        <time>2011-06-25T10:19:14Z</time>
      </trkpt>
      <trkpt lat="43.307755" lon="-8.414400">
        <ele>293.0</ele>
        <time>2011-06-25T10:19:15Z</time>
      </trkpt>
      <trkpt lat="43.307738" lon="-8.414403">
        <ele>293.5</ele>
        <time>2011-06-25T10:19:16Z</time>
      </trkpt>
      <trkpt lat="43.307720" lon="-8.414405">
        <ele>294.5</ele>
        <time>2011-06-25T10:19:17Z</time>
      </trkpt>
      <trkpt lat="43.307705" lon="-8.414395">
        <ele>294.5</ele>
        <time>2011-06-25T10:19:18Z</time>
      </trkpt>
      <trkpt lat="43.307690" lon="-8.414387">
        <ele>294.5</ele>
        <time>2011-06-25T10:19:19Z</time>
      </trkpt>
      <trkpt lat="43.307677" lon="-8.414375">
        <ele>294.0</ele>
        <time>2011-06-25T10:19:20Z</time>
      </trkpt>
      <trkpt lat="43.307660" lon="-8.414367">
        <ele>293.5</ele>
        <time>2011-06-25T10:19:21Z</time>
      </trkpt>
      <trkpt lat="43.307645" lon="-8.414355">
        <ele>293.5</ele>
        <time>2011-06-25T10:19:22Z</time>
      </trkpt>
      <trkpt lat="43.307627" lon="-8.414348">
        <ele>293.5</ele>
        <time>2011-06-25T10:19:23Z</time>
      </trkpt>
      <trkpt lat="43.307610" lon="-8.414340">
        <ele>293.0</ele>
        <time>2011-06-25T10:19:24Z</time>
      </trkpt>
      <trkpt lat="43.307592" lon="-8.414333">
        <ele>293.0</ele>
        <time>2011-06-25T10:19:25Z</time>
      </trkpt>
      <trkpt lat="43.307575" lon="-8.414320">
        <ele>293.0</ele>
        <time>2011-06-25T10:19:26Z</time>
      </trkpt>
      <trkpt lat="43.307558" lon="-8.414307">
        <ele>293.0</ele>
        <time>2011-06-25T10:19:27Z</time>
      </trkpt>
      <trkpt lat="43.307542" lon="-8.414292">
        <ele>293.0</ele>
        <time>2011-06-25T10:19:28Z</time>
      </trkpt>
      <trkpt lat="43.307527" lon="-8.414273">
        <ele>293.0</ele>
        <time>2011-06-25T10:19:29Z</time>
      </trkpt>
      <trkpt lat="43.307513" lon="-8.414257">
        <ele>292.5</ele>
        <time>2011-06-25T10:19:30Z</time>
      </trkpt>
      <trkpt lat="43.307500" lon="-8.414243">
        <ele>292.0</ele>
        <time>2011-06-25T10:19:31Z</time>
      </trkpt>
      <trkpt lat="43.307480" lon="-8.414232">
        <ele>292.0</ele>
        <time>2011-06-25T10:19:32Z</time>
      </trkpt>
      <trkpt lat="43.307463" lon="-8.414218">
        <ele>292.0</ele>
        <time>2011-06-25T10:19:33Z</time>
      </trkpt>
      <trkpt lat="43.307447" lon="-8.414207">
        <ele>292.0</ele>
        <time>2011-06-25T10:19:34Z</time>
      </trkpt>
      <trkpt lat="43.307428" lon="-8.414197">
        <ele>292.0</ele>
        <time>2011-06-25T10:19:35Z</time>
      </trkpt>
      <trkpt lat="43.307412" lon="-8.414183">
        <ele>292.0</ele>
        <time>2011-06-25T10:19:36Z</time>
      </trkpt>
      <trkpt lat="43.307392" lon="-8.414168">
        <ele>292.0</ele>
        <time>2011-06-25T10:19:37Z</time>
      </trkpt>
      <trkpt lat="43.307372" lon="-8.414153">
        <ele>292.0</ele>
        <time>2011-06-25T10:19:38Z</time>
      </trkpt>
      <trkpt lat="43.307348" lon="-8.414138">
        <ele>292.0</ele>
        <time>2011-06-25T10:19:39Z</time>
      </trkpt>
      <trkpt lat="43.307330" lon="-8.414123">
        <ele>292.0</ele>
        <time>2011-06-25T10:19:40Z</time>
      </trkpt>
      <trkpt lat="43.307310" lon="-8.414107">
        <ele>291.5</ele>
        <time>2011-06-25T10:19:41Z</time>
      </trkpt>
      <trkpt lat="43.307288" lon="-8.414088">
        <ele>291.5</ele>
        <time>2011-06-25T10:19:42Z</time>
      </trkpt>
      <trkpt lat="43.307273" lon="-8.414080">
        <ele>291.5</ele>
        <time>2011-06-25T10:19:43Z</time>
      </trkpt>
      <trkpt lat="43.307253" lon="-8.414075">
        <ele>291.5</ele>
        <time>2011-06-25T10:19:44Z</time>
      </trkpt>
      <trkpt lat="43.307233" lon="-8.414065">
        <ele>291.0</ele>
        <time>2011-06-25T10:19:45Z</time>
      </trkpt>
      <trkpt lat="43.307205" lon="-8.414052">
        <ele>290.5</ele>
        <time>2011-06-25T10:19:46Z</time>
      </trkpt>
      <trkpt lat="43.307177" lon="-8.414035">
        <ele>290.0</ele>
        <time>2011-06-25T10:19:47Z</time>
      </trkpt>
      <trkpt lat="43.307147" lon="-8.414020">
        <ele>290.0</ele>
        <time>2011-06-25T10:19:48Z</time>
      </trkpt>
      <trkpt lat="43.307118" lon="-8.414002">
        <ele>290.0</ele>
        <time>2011-06-25T10:19:49Z</time>
      </trkpt>
      <trkpt lat="43.307090" lon="-8.413983">
        <ele>290.0</ele>
        <time>2011-06-25T10:19:50Z</time>
      </trkpt>
      <trkpt lat="43.307062" lon="-8.413965">
        <ele>289.5</ele>
        <time>2011-06-25T10:19:51Z</time>
      </trkpt>
      <trkpt lat="43.307032" lon="-8.413950">
        <ele>290.0</ele>
        <time>2011-06-25T10:19:52Z</time>
      </trkpt>
      <trkpt lat="43.307002" lon="-8.413937">
        <ele>289.5</ele>
        <time>2011-06-25T10:19:53Z</time>
      </trkpt>
      <trkpt lat="43.306973" lon="-8.413927">
        <ele>289.5</ele>
        <time>2011-06-25T10:19:54Z</time>
      </trkpt>
      <trkpt lat="43.306945" lon="-8.413915">
        <ele>289.0</ele>
        <time>2011-06-25T10:19:55Z</time>
      </trkpt>
      <trkpt lat="43.306915" lon="-8.413913">
        <ele>289.0</ele>
        <time>2011-06-25T10:19:56Z</time>
      </trkpt>
      <trkpt lat="43.306883" lon="-8.413915">
        <ele>289.0</ele>
        <time>2011-06-25T10:19:57Z</time>
      </trkpt>
      <trkpt lat="43.306850" lon="-8.413918">
        <ele>289.0</ele>
        <time>2011-06-25T10:19:58Z</time>
      </trkpt>
      <trkpt lat="43.306812" lon="-8.413915">
        <ele>289.0</ele>
        <time>2011-06-25T10:19:59Z</time>
      </trkpt>
      <trkpt lat="43.306775" lon="-8.413905">
        <ele>288.5</ele>
        <time>2011-06-25T10:20:00Z</time>
      </trkpt>
      <trkpt lat="43.306740" lon="-8.413888">
        <ele>288.5</ele>
        <time>2011-06-25T10:20:01Z</time>
      </trkpt>
      <trkpt lat="43.306702" lon="-8.413873">
        <ele>288.5</ele>
        <time>2011-06-25T10:20:02Z</time>
      </trkpt>
      <trkpt lat="43.306663" lon="-8.413855">
        <ele>288.0</ele>
        <time>2011-06-25T10:20:03Z</time>
      </trkpt>
      <trkpt lat="43.306628" lon="-8.413835">
        <ele>287.5</ele>
        <time>2011-06-25T10:20:04Z</time>
      </trkpt>
      <trkpt lat="43.306595" lon="-8.413812">
        <ele>287.0</ele>
        <time>2011-06-25T10:20:05Z</time>
      </trkpt>
      <trkpt lat="43.306562" lon="-8.413790">
        <ele>287.0</ele>
        <time>2011-06-25T10:20:06Z</time>
      </trkpt>
      <trkpt lat="43.306530" lon="-8.413768">
        <ele>286.5</ele>
        <time>2011-06-25T10:20:07Z</time>
      </trkpt>
      <trkpt lat="43.306497" lon="-8.413747">
        <ele>286.5</ele>
        <time>2011-06-25T10:20:08Z</time>
      </trkpt>
      <trkpt lat="43.306465" lon="-8.413730">
        <ele>286.5</ele>
        <time>2011-06-25T10:20:09Z</time>
      </trkpt>
      <trkpt lat="43.306430" lon="-8.413713">
        <ele>286.0</ele>
        <time>2011-06-25T10:20:10Z</time>
      </trkpt>
      <trkpt lat="43.306395" lon="-8.413693">
        <ele>286.0</ele>
        <time>2011-06-25T10:20:11Z</time>
      </trkpt>
      <trkpt lat="43.306360" lon="-8.413672">
        <ele>286.0</ele>
        <time>2011-06-25T10:20:12Z</time>
      </trkpt>
      <trkpt lat="43.306325" lon="-8.413652">
        <ele>285.5</ele>
        <time>2011-06-25T10:20:13Z</time>
      </trkpt>
      <trkpt lat="43.306292" lon="-8.413632">
        <ele>285.5</ele>
        <time>2011-06-25T10:20:14Z</time>
      </trkpt>
      <trkpt lat="43.306260" lon="-8.413612">
        <ele>285.5</ele>
        <time>2011-06-25T10:20:15Z</time>
      </trkpt>
      <trkpt lat="43.306228" lon="-8.413590">
        <ele>285.0</ele>
        <time>2011-06-25T10:20:16Z</time>
      </trkpt>
      <trkpt lat="43.306195" lon="-8.413568">
        <ele>284.5</ele>
        <time>2011-06-25T10:20:17Z</time>
      </trkpt>
      <trkpt lat="43.306162" lon="-8.413542">
        <ele>284.0</ele>
        <time>2011-06-25T10:20:18Z</time>
      </trkpt>
      <trkpt lat="43.306128" lon="-8.413510">
        <ele>284.0</ele>
        <time>2011-06-25T10:20:19Z</time>
      </trkpt>
      <trkpt lat="43.306095" lon="-8.413480">
        <ele>284.5</ele>
        <time>2011-06-25T10:20:20Z</time>
      </trkpt>
      <trkpt lat="43.306065" lon="-8.413447">
        <ele>284.5</ele>
        <time>2011-06-25T10:20:21Z</time>
      </trkpt>
      <trkpt lat="43.306038" lon="-8.413413">
        <ele>284.0</ele>
        <time>2011-06-25T10:20:22Z</time>
      </trkpt>
      <trkpt lat="43.306013" lon="-8.413385">
        <ele>284.0</ele>
        <time>2011-06-25T10:20:23Z</time>
      </trkpt>
      <trkpt lat="43.305990" lon="-8.413357">
        <ele>284.0</ele>
        <time>2011-06-25T10:20:24Z</time>
      </trkpt>
      <trkpt lat="43.305967" lon="-8.413330">
        <ele>283.5</ele>
        <time>2011-06-25T10:20:25Z</time>
      </trkpt>
      <trkpt lat="43.306128" lon="-8.413310">
        <ele>283.5</ele>
        <time>2011-06-25T10:20:28Z</time>
      </trkpt>
      <trkpt lat="43.306100" lon="-8.413282">
        <ele>283.0</ele>
        <time>2011-06-25T10:20:29Z</time>
      </trkpt>
      <trkpt lat="43.305992" lon="-8.413228">
        <ele>283.0</ele>
        <time>2011-06-25T10:20:31Z</time>
      </trkpt>
      <trkpt lat="43.305815" lon="-8.413148">
        <ele>282.0</ele>
        <time>2011-06-25T10:20:34Z</time>
      </trkpt>
      <trkpt lat="43.305765" lon="-8.413125">
        <ele>281.5</ele>
        <time>2011-06-25T10:20:35Z</time>
      </trkpt>
      <trkpt lat="43.305712" lon="-8.413100">
        <ele>281.5</ele>
        <time>2011-06-25T10:20:36Z</time>
      </trkpt>
      <trkpt lat="43.305658" lon="-8.413065">
        <ele>281.0</ele>
        <time>2011-06-25T10:20:37Z</time>
      </trkpt>
      <trkpt lat="43.305602" lon="-8.413045">
        <ele>281.0</ele>
        <time>2011-06-25T10:20:38Z</time>
      </trkpt>
      <trkpt lat="43.305550" lon="-8.413040">
        <ele>281.0</ele>
        <time>2011-06-25T10:20:39Z</time>
      </trkpt>
      <trkpt lat="43.305497" lon="-8.413040">
        <ele>280.5</ele>
        <time>2011-06-25T10:20:40Z</time>
      </trkpt>
      <trkpt lat="43.305443" lon="-8.413035">
        <ele>280.5</ele>
        <time>2011-06-25T10:20:41Z</time>
      </trkpt>
      <trkpt lat="43.305395" lon="-8.413017">
        <ele>280.0</ele>
        <time>2011-06-25T10:20:42Z</time>
      </trkpt>
      <trkpt lat="43.305355" lon="-8.412985">
        <ele>279.5</ele>
        <time>2011-06-25T10:20:43Z</time>
      </trkpt>
      <trkpt lat="43.305323" lon="-8.412952">
        <ele>279.5</ele>
        <time>2011-06-25T10:20:44Z</time>
      </trkpt>
      <trkpt lat="43.305302" lon="-8.412918">
        <ele>279.5</ele>
        <time>2011-06-25T10:20:45Z</time>
      </trkpt>
      <trkpt lat="43.305278" lon="-8.412888">
        <ele>279.5</ele>
        <time>2011-06-25T10:20:46Z</time>
      </trkpt>
      <trkpt lat="43.305253" lon="-8.412858">
        <ele>279.0</ele>
        <time>2011-06-25T10:20:47Z</time>
      </trkpt>
      <trkpt lat="43.305222" lon="-8.412832">
        <ele>278.5</ele>
        <time>2011-06-25T10:20:48Z</time>
      </trkpt>
      <trkpt lat="43.305195" lon="-8.412810">
        <ele>279.0</ele>
        <time>2011-06-25T10:20:49Z</time>
      </trkpt>
      <trkpt lat="43.305167" lon="-8.412775">
        <ele>278.0</ele>
        <time>2011-06-25T10:20:50Z</time>
      </trkpt>
      <trkpt lat="43.305137" lon="-8.412750">
        <ele>278.0</ele>
        <time>2011-06-25T10:20:51Z</time>
      </trkpt>
      <trkpt lat="43.305105" lon="-8.412728">
        <ele>278.0</ele>
        <time>2011-06-25T10:20:52Z</time>
      </trkpt>
      <trkpt lat="43.305075" lon="-8.412710">
        <ele>278.5</ele>
        <time>2011-06-25T10:20:53Z</time>
      </trkpt>
      <trkpt lat="43.305048" lon="-8.412697">
        <ele>279.0</ele>
        <time>2011-06-25T10:20:54Z</time>
      </trkpt>
      <trkpt lat="43.305022" lon="-8.412682">
        <ele>279.0</ele>
        <time>2011-06-25T10:20:55Z</time>
      </trkpt>
      <trkpt lat="43.304997" lon="-8.412663">
        <ele>279.0</ele>
        <time>2011-06-25T10:20:56Z</time>
      </trkpt>
      <trkpt lat="43.304975" lon="-8.412642">
        <ele>279.0</ele>
        <time>2011-06-25T10:20:57Z</time>
      </trkpt>
      <trkpt lat="43.304953" lon="-8.412617">
        <ele>279.5</ele>
        <time>2011-06-25T10:20:58Z</time>
      </trkpt>
      <trkpt lat="43.304942" lon="-8.412580">
        <ele>280.0</ele>
        <time>2011-06-25T10:20:59Z</time>
      </trkpt>
      <trkpt lat="43.304932" lon="-8.412545">
        <ele>280.0</ele>
        <time>2011-06-25T10:21:00Z</time>
      </trkpt>
      <trkpt lat="43.304925" lon="-8.412508">
        <ele>280.0</ele>
        <time>2011-06-25T10:21:01Z</time>
      </trkpt>
      <trkpt lat="43.304923" lon="-8.412470">
        <ele>280.0</ele>
        <time>2011-06-25T10:21:02Z</time>
      </trkpt>
      <trkpt lat="43.304918" lon="-8.412437">
        <ele>280.0</ele>
        <time>2011-06-25T10:21:03Z</time>
      </trkpt>
      <trkpt lat="43.304910" lon="-8.412400">
        <ele>280.0</ele>
        <time>2011-06-25T10:21:04Z</time>
      </trkpt>
      <trkpt lat="43.304903" lon="-8.412363">
        <ele>279.5</ele>
        <time>2011-06-25T10:21:05Z</time>
      </trkpt>
      <trkpt lat="43.304897" lon="-8.412327">
        <ele>279.5</ele>
        <time>2011-06-25T10:21:06Z</time>
      </trkpt>
      <trkpt lat="43.304887" lon="-8.412290">
        <ele>279.5</ele>
        <time>2011-06-25T10:21:07Z</time>
      </trkpt>
      <trkpt lat="43.304877" lon="-8.412255">
        <ele>279.5</ele>
        <time>2011-06-25T10:21:08Z</time>
      </trkpt>
      <trkpt lat="43.304870" lon="-8.412217">
        <ele>279.5</ele>
        <time>2011-06-25T10:21:09Z</time>
      </trkpt>
      <trkpt lat="43.304863" lon="-8.412178">
        <ele>279.0</ele>
        <time>2011-06-25T10:21:10Z</time>
      </trkpt>
      <trkpt lat="43.304855" lon="-8.412145">
        <ele>279.5</ele>
        <time>2011-06-25T10:21:11Z</time>
      </trkpt>
      <trkpt lat="43.304847" lon="-8.412115">
        <ele>280.0</ele>
        <time>2011-06-25T10:21:12Z</time>
      </trkpt>
      <trkpt lat="43.304837" lon="-8.412085">
        <ele>280.0</ele>
        <time>2011-06-25T10:21:13Z</time>
      </trkpt>
      <trkpt lat="43.304828" lon="-8.412052">
        <ele>279.5</ele>
        <time>2011-06-25T10:21:14Z</time>
      </trkpt>
      <trkpt lat="43.304822" lon="-8.412020">
        <ele>280.0</ele>
        <time>2011-06-25T10:21:15Z</time>
      </trkpt>
      <trkpt lat="43.304815" lon="-8.411988">
        <ele>280.5</ele>
        <time>2011-06-25T10:21:16Z</time>
      </trkpt>
      <trkpt lat="43.304810" lon="-8.411955">
        <ele>280.5</ele>
        <time>2011-06-25T10:21:17Z</time>
      </trkpt>
      <trkpt lat="43.304805" lon="-8.411922">
        <ele>280.5</ele>
        <time>2011-06-25T10:21:18Z</time>
      </trkpt>
      <trkpt lat="43.304803" lon="-8.411882">
        <ele>280.0</ele>
        <time>2011-06-25T10:21:19Z</time>
      </trkpt>
      <trkpt lat="43.304795" lon="-8.411843">
        <ele>280.5</ele>
        <time>2011-06-25T10:21:20Z</time>
      </trkpt>
      <trkpt lat="43.304790" lon="-8.411802">
        <ele>280.5</ele>
        <time>2011-06-25T10:21:21Z</time>
      </trkpt>
      <trkpt lat="43.304785" lon="-8.411763">
        <ele>281.0</ele>
        <time>2011-06-25T10:21:22Z</time>
      </trkpt>
      <trkpt lat="43.304783" lon="-8.411720">
        <ele>280.0</ele>
        <time>2011-06-25T10:21:23Z</time>
      </trkpt>
      <trkpt lat="43.304785" lon="-8.411673">
        <ele>280.0</ele>
        <time>2011-06-25T10:21:24Z</time>
      </trkpt>
      <trkpt lat="43.304783" lon="-8.411625">
        <ele>279.5</ele>
        <time>2011-06-25T10:21:25Z</time>
      </trkpt>
      <trkpt lat="43.304780" lon="-8.411575">
        <ele>279.0</ele>
        <time>2011-06-25T10:21:26Z</time>
      </trkpt>
      <trkpt lat="43.304778" lon="-8.411527">
        <ele>278.5</ele>
        <time>2011-06-25T10:21:27Z</time>
      </trkpt>
      <trkpt lat="43.304777" lon="-8.411482">
        <ele>278.0</ele>
        <time>2011-06-25T10:21:28Z</time>
      </trkpt>
      <trkpt lat="43.304775" lon="-8.411440">
        <ele>278.0</ele>
        <time>2011-06-25T10:21:29Z</time>
      </trkpt>
      <trkpt lat="43.304770" lon="-8.411398">
        <ele>277.5</ele>
        <time>2011-06-25T10:21:30Z</time>
      </trkpt>
      <trkpt lat="43.304763" lon="-8.411357">
        <ele>277.5</ele>
        <time>2011-06-25T10:21:31Z</time>
      </trkpt>
      <trkpt lat="43.304760" lon="-8.411310">
        <ele>277.0</ele>
        <time>2011-06-25T10:21:32Z</time>
      </trkpt>
      <trkpt lat="43.304752" lon="-8.411263">
        <ele>277.0</ele>
        <time>2011-06-25T10:21:33Z</time>
      </trkpt>
      <trkpt lat="43.304743" lon="-8.411217">
        <ele>277.0</ele>
        <time>2011-06-25T10:21:34Z</time>
      </trkpt>
      <trkpt lat="43.304733" lon="-8.411177">
        <ele>277.5</ele>
        <time>2011-06-25T10:21:35Z</time>
      </trkpt>
      <trkpt lat="43.304723" lon="-8.411138">
        <ele>277.0</ele>
        <time>2011-06-25T10:21:36Z</time>
      </trkpt>
      <trkpt lat="43.304717" lon="-8.411093">
        <ele>277.0</ele>
        <time>2011-06-25T10:21:37Z</time>
      </trkpt>
      <trkpt lat="43.304705" lon="-8.411043">
        <ele>277.0</ele>
        <time>2011-06-25T10:21:38Z</time>
      </trkpt>
      <trkpt lat="43.304690" lon="-8.410990">
        <ele>276.5</ele>
        <time>2011-06-25T10:21:39Z</time>
      </trkpt>
      <trkpt lat="43.304675" lon="-8.410930">
        <ele>276.5</ele>
        <time>2011-06-25T10:21:40Z</time>
      </trkpt>
      <trkpt lat="43.304663" lon="-8.410867">
        <ele>276.5</ele>
        <time>2011-06-25T10:21:41Z</time>
      </trkpt>
      <trkpt lat="43.304657" lon="-8.410802">
        <ele>276.0</ele>
        <time>2011-06-25T10:21:42Z</time>
      </trkpt>
      <trkpt lat="43.304652" lon="-8.410735">
        <ele>275.0</ele>
        <time>2011-06-25T10:21:43Z</time>
      </trkpt>
      <trkpt lat="43.304647" lon="-8.410670">
        <ele>274.5</ele>
        <time>2011-06-25T10:21:44Z</time>
      </trkpt>
      <trkpt lat="43.304645" lon="-8.410608">
        <ele>274.0</ele>
        <time>2011-06-25T10:21:45Z</time>
      </trkpt>
      <trkpt lat="43.304637" lon="-8.410552">
        <ele>274.0</ele>
        <time>2011-06-25T10:21:46Z</time>
      </trkpt>
      <trkpt lat="43.304628" lon="-8.410493">
        <ele>274.0</ele>
        <time>2011-06-25T10:21:47Z</time>
      </trkpt>
      <trkpt lat="43.304622" lon="-8.410437">
        <ele>273.5</ele>
        <time>2011-06-25T10:21:48Z</time>
      </trkpt>
      <trkpt lat="43.304617" lon="-8.410380">
        <ele>273.5</ele>
        <time>2011-06-25T10:21:49Z</time>
      </trkpt>
      <trkpt lat="43.304607" lon="-8.410327">
        <ele>273.0</ele>
        <time>2011-06-25T10:21:50Z</time>
      </trkpt>
      <trkpt lat="43.304597" lon="-8.410270">
        <ele>273.0</ele>
        <time>2011-06-25T10:21:51Z</time>
      </trkpt>
      <trkpt lat="43.304585" lon="-8.410215">
        <ele>273.0</ele>
        <time>2011-06-25T10:21:52Z</time>
      </trkpt>
      <trkpt lat="43.304573" lon="-8.410158">
        <ele>273.0</ele>
        <time>2011-06-25T10:21:53Z</time>
      </trkpt>
      <trkpt lat="43.304557" lon="-8.410093">
        <ele>273.0</ele>
        <time>2011-06-25T10:21:54Z</time>
      </trkpt>
      <trkpt lat="43.304552" lon="-8.410015">
        <ele>271.5</ele>
        <time>2011-06-25T10:21:55Z</time>
      </trkpt>
      <trkpt lat="43.304570" lon="-8.409925">
        <ele>270.5</ele>
        <time>2011-06-25T10:21:56Z</time>
      </trkpt>
      <trkpt lat="43.304585" lon="-8.409835">
        <ele>269.0</ele>
        <time>2011-06-25T10:21:57Z</time>
      </trkpt>
      <trkpt lat="43.304582" lon="-8.409742">
        <ele>268.5</ele>
        <time>2011-06-25T10:21:58Z</time>
      </trkpt>
      <trkpt lat="43.304562" lon="-8.409628">
        <ele>268.0</ele>
        <time>2011-06-25T10:21:59Z</time>
      </trkpt>
      <trkpt lat="43.304547" lon="-8.409520">
        <ele>267.5</ele>
        <time>2011-06-25T10:22:00Z</time>
      </trkpt>
      <trkpt lat="43.304527" lon="-8.409418">
        <ele>267.5</ele>
        <time>2011-06-25T10:22:01Z</time>
      </trkpt>
      <trkpt lat="43.304487" lon="-8.409340">
        <ele>267.5</ele>
        <time>2011-06-25T10:22:02Z</time>
      </trkpt>
      <trkpt lat="43.304463" lon="-8.409270">
        <ele>267.5</ele>
        <time>2011-06-25T10:22:03Z</time>
      </trkpt>
      <trkpt lat="43.304437" lon="-8.409165">
        <ele>269.0</ele>
        <time>2011-06-25T10:22:05Z</time>
      </trkpt>
      <trkpt lat="43.304430" lon="-8.409108">
        <ele>269.0</ele>
        <time>2011-06-25T10:22:06Z</time>
      </trkpt>
      <trkpt lat="43.304420" lon="-8.409052">
        <ele>268.5</ele>
        <time>2011-06-25T10:22:07Z</time>
      </trkpt>
      <trkpt lat="43.304410" lon="-8.408990">
        <ele>267.5</ele>
        <time>2011-06-25T10:22:08Z</time>
      </trkpt>
      <trkpt lat="43.304402" lon="-8.408920">
        <ele>267.5</ele>
        <time>2011-06-25T10:22:09Z</time>
      </trkpt>
      <trkpt lat="43.304392" lon="-8.408837">
        <ele>267.0</ele>
        <time>2011-06-25T10:22:10Z</time>
      </trkpt>
      <trkpt lat="43.304385" lon="-8.408737">
        <ele>265.5</ele>
        <time>2011-06-25T10:22:11Z</time>
      </trkpt>
      <trkpt lat="43.304380" lon="-8.408630">
        <ele>264.0</ele>
        <time>2011-06-25T10:22:12Z</time>
      </trkpt>
      <trkpt lat="43.304370" lon="-8.408508">
        <ele>262.5</ele>
        <time>2011-06-25T10:22:13Z</time>
      </trkpt>
      <trkpt lat="43.304362" lon="-8.408380">
        <ele>261.5</ele>
        <time>2011-06-25T10:22:14Z</time>
      </trkpt>
      <trkpt lat="43.304358" lon="-8.408247">
        <ele>260.5</ele>
        <time>2011-06-25T10:22:15Z</time>
      </trkpt>
      <trkpt lat="43.304337" lon="-8.408122">
        <ele>260.0</ele>
        <time>2011-06-25T10:22:16Z</time>
      </trkpt>
      <trkpt lat="43.304327" lon="-8.407990">
        <ele>259.5</ele>
        <time>2011-06-25T10:22:17Z</time>
      </trkpt>
      <trkpt lat="43.304313" lon="-8.407860">
        <ele>258.5</ele>
        <time>2011-06-25T10:22:18Z</time>
      </trkpt>
      <trkpt lat="43.304298" lon="-8.407735">
        <ele>257.5</ele>
        <time>2011-06-25T10:22:19Z</time>
      </trkpt>
      <trkpt lat="43.304283" lon="-8.407620">
        <ele>257.0</ele>
        <time>2011-06-25T10:22:20Z</time>
      </trkpt>
      <trkpt lat="43.304265" lon="-8.407517">
        <ele>256.5</ele>
        <time>2011-06-25T10:22:21Z</time>
      </trkpt>
      <trkpt lat="43.304237" lon="-8.407437">
        <ele>256.5</ele>
        <time>2011-06-25T10:22:22Z</time>
      </trkpt>
      <trkpt lat="43.304205" lon="-8.407363">
        <ele>256.5</ele>
        <time>2011-06-25T10:22:23Z</time>
      </trkpt>
      <trkpt lat="43.304165" lon="-8.407297">
        <ele>256.5</ele>
        <time>2011-06-25T10:22:24Z</time>
      </trkpt>
      <trkpt lat="43.304128" lon="-8.407240">
        <ele>256.5</ele>
        <time>2011-06-25T10:22:25Z</time>
      </trkpt>
      <trkpt lat="43.304093" lon="-8.407198">
        <ele>257.0</ele>
        <time>2011-06-25T10:22:26Z</time>
      </trkpt>
      <trkpt lat="43.304062" lon="-8.407170">
        <ele>257.5</ele>
        <time>2011-06-25T10:22:27Z</time>
      </trkpt>
      <trkpt lat="43.304022" lon="-8.407177">
        <ele>257.5</ele>
        <time>2011-06-25T10:22:28Z</time>
      </trkpt>
      <trkpt lat="43.303983" lon="-8.407185">
        <ele>257.5</ele>
        <time>2011-06-25T10:22:29Z</time>
      </trkpt>
      <trkpt lat="43.303948" lon="-8.407188">
        <ele>257.5</ele>
        <time>2011-06-25T10:22:30Z</time>
      </trkpt>
      <trkpt lat="43.303918" lon="-8.407192">
        <ele>258.0</ele>
        <time>2011-06-25T10:22:31Z</time>
      </trkpt>
      <trkpt lat="43.303888" lon="-8.407193">
        <ele>258.0</ele>
        <time>2011-06-25T10:22:32Z</time>
      </trkpt>
      <trkpt lat="43.303858" lon="-8.407193">
        <ele>258.5</ele>
        <time>2011-06-25T10:22:33Z</time>
      </trkpt>
      <trkpt lat="43.303833" lon="-8.407192">
        <ele>258.5</ele>
        <time>2011-06-25T10:22:34Z</time>
      </trkpt>
      <trkpt lat="43.303805" lon="-8.407192">
        <ele>258.0</ele>
        <time>2011-06-25T10:22:35Z</time>
      </trkpt>
      <trkpt lat="43.303777" lon="-8.407195">
        <ele>258.0</ele>
        <time>2011-06-25T10:22:36Z</time>
      </trkpt>
      <trkpt lat="43.303750" lon="-8.407203">
        <ele>258.0</ele>
        <time>2011-06-25T10:22:37Z</time>
      </trkpt>
      <trkpt lat="43.303725" lon="-8.407210">
        <ele>258.5</ele>
        <time>2011-06-25T10:22:38Z</time>
      </trkpt>
      <trkpt lat="43.303697" lon="-8.407218">
        <ele>259.0</ele>
        <time>2011-06-25T10:22:39Z</time>
      </trkpt>
      <trkpt lat="43.303685" lon="-8.407223">
        <ele>259.0</ele>
        <time>2011-06-25T10:22:40Z</time>
      </trkpt>
      <trkpt lat="43.303677" lon="-8.407230">
        <ele>259.0</ele>
        <time>2011-06-25T10:22:41Z</time>
      </trkpt>
      <trkpt lat="43.303667" lon="-8.407240">
        <ele>259.5</ele>
        <time>2011-06-25T10:22:42Z</time>
      </trkpt>
      <trkpt lat="43.303592" lon="-8.407330">
        <ele>260.0</ele>
        <time>2011-06-25T10:22:45Z</time>
      </trkpt>
      <trkpt lat="43.303580" lon="-8.407363">
        <ele>260.5</ele>
        <time>2011-06-25T10:22:46Z</time>
      </trkpt>
      <trkpt lat="43.303572" lon="-8.407398">
        <ele>260.0</ele>
        <time>2011-06-25T10:22:47Z</time>
      </trkpt>
      <trkpt lat="43.303573" lon="-8.407432">
        <ele>261.5</ele>
        <time>2011-06-25T10:22:48Z</time>
      </trkpt>
      <trkpt lat="43.303560" lon="-8.407460">
        <ele>261.5</ele>
        <time>2011-06-25T10:22:49Z</time>
      </trkpt>
      <trkpt lat="43.303550" lon="-8.407488">
        <ele>261.5</ele>
        <time>2011-06-25T10:22:50Z</time>
      </trkpt>
      <trkpt lat="43.303542" lon="-8.407518">
        <ele>261.5</ele>
        <time>2011-06-25T10:22:51Z</time>
      </trkpt>
      <trkpt lat="43.303533" lon="-8.407548">
        <ele>261.5</ele>
        <time>2011-06-25T10:22:52Z</time>
      </trkpt>
      <trkpt lat="43.303523" lon="-8.407580">
        <ele>261.0</ele>
        <time>2011-06-25T10:22:53Z</time>
      </trkpt>
      <trkpt lat="43.303512" lon="-8.407610">
        <ele>261.0</ele>
        <time>2011-06-25T10:22:54Z</time>
      </trkpt>
      <trkpt lat="43.303498" lon="-8.407642">
        <ele>260.5</ele>
        <time>2011-06-25T10:22:55Z</time>
      </trkpt>
      <trkpt lat="43.303492" lon="-8.407677">
        <ele>261.5</ele>
        <time>2011-06-25T10:22:56Z</time>
      </trkpt>
      <trkpt lat="43.303482" lon="-8.407710">
        <ele>261.0</ele>
        <time>2011-06-25T10:22:57Z</time>
      </trkpt>
      <trkpt lat="43.303475" lon="-8.407745">
        <ele>262.0</ele>
        <time>2011-06-25T10:22:58Z</time>
      </trkpt>
      <trkpt lat="43.303458" lon="-8.407775">
        <ele>261.5</ele>
        <time>2011-06-25T10:22:59Z</time>
      </trkpt>
      <trkpt lat="43.303437" lon="-8.407802">
        <ele>261.5</ele>
        <time>2011-06-25T10:23:00Z</time>
      </trkpt>
      <trkpt lat="43.303432" lon="-8.407837">
        <ele>263.0</ele>
        <time>2011-06-25T10:23:01Z</time>
      </trkpt>
      <trkpt lat="43.303422" lon="-8.407868">
        <ele>264.5</ele>
        <time>2011-06-25T10:23:02Z</time>
      </trkpt>
      <trkpt lat="43.303388" lon="-8.407878">
        <ele>264.5</ele>
        <time>2011-06-25T10:23:03Z</time>
      </trkpt>
      <trkpt lat="43.303380" lon="-8.407920">
        <ele>264.0</ele>
        <time>2011-06-25T10:23:04Z</time>
      </trkpt>
      <trkpt lat="43.303377" lon="-8.407955">
        <ele>265.0</ele>
        <time>2011-06-25T10:23:05Z</time>
      </trkpt>
      <trkpt lat="43.303373" lon="-8.407987">
        <ele>265.5</ele>
        <time>2011-06-25T10:23:06Z</time>
      </trkpt>
      <trkpt lat="43.303367" lon="-8.408015">
        <ele>266.0</ele>
        <time>2011-06-25T10:23:07Z</time>
      </trkpt>
      <trkpt lat="43.303363" lon="-8.408042">
        <ele>266.5</ele>
        <time>2011-06-25T10:23:08Z</time>
      </trkpt>
      <trkpt lat="43.303360" lon="-8.408070">
        <ele>267.0</ele>
        <time>2011-06-25T10:23:09Z</time>
      </trkpt>
      <trkpt lat="43.303363" lon="-8.408103">
        <ele>268.5</ele>
        <time>2011-06-25T10:23:10Z</time>
      </trkpt>
      <trkpt lat="43.303367" lon="-8.408135">
        <ele>269.5</ele>
        <time>2011-06-25T10:23:11Z</time>
      </trkpt>
      <trkpt lat="43.303372" lon="-8.408160">
        <ele>271.5</ele>
        <time>2011-06-25T10:23:12Z</time>
      </trkpt>
      <trkpt lat="43.303380" lon="-8.408195">
        <ele>272.0</ele>
        <time>2011-06-25T10:23:13Z</time>
      </trkpt>
      <trkpt lat="43.303387" lon="-8.408228">
        <ele>273.0</ele>
        <time>2011-06-25T10:23:14Z</time>
      </trkpt>
      <trkpt lat="43.303392" lon="-8.408258">
        <ele>274.5</ele>
        <time>2011-06-25T10:23:15Z</time>
      </trkpt>
      <trkpt lat="43.303392" lon="-8.408287">
        <ele>275.5</ele>
        <time>2011-06-25T10:23:16Z</time>
      </trkpt>
      <trkpt lat="43.303395" lon="-8.408313">
        <ele>276.5</ele>
        <time>2011-06-25T10:23:17Z</time>
      </trkpt>
      <trkpt lat="43.303398" lon="-8.408340">
        <ele>278.0</ele>
        <time>2011-06-25T10:23:18Z</time>
      </trkpt>
      <trkpt lat="43.303400" lon="-8.408367">
        <ele>279.0</ele>
        <time>2011-06-25T10:23:19Z</time>
      </trkpt>
      <trkpt lat="43.303400" lon="-8.408395">
        <ele>280.5</ele>
        <time>2011-06-25T10:23:20Z</time>
      </trkpt>
      <trkpt lat="43.303403" lon="-8.408427">
        <ele>281.5</ele>
        <time>2011-06-25T10:23:21Z</time>
      </trkpt>
      <trkpt lat="43.303407" lon="-8.408465">
        <ele>281.5</ele>
        <time>2011-06-25T10:23:22Z</time>
      </trkpt>
      <trkpt lat="43.303412" lon="-8.408502">
        <ele>282.5</ele>
        <time>2011-06-25T10:23:23Z</time>
      </trkpt>
      <trkpt lat="43.303413" lon="-8.408525">
        <ele>282.5</ele>
        <time>2011-06-25T10:23:24Z</time>
      </trkpt>
      <trkpt lat="43.303425" lon="-8.408565">
        <ele>283.0</ele>
        <time>2011-06-25T10:23:25Z</time>
      </trkpt>
      <trkpt lat="43.303428" lon="-8.408595">
        <ele>284.5</ele>
        <time>2011-06-25T10:23:26Z</time>
      </trkpt>
      <trkpt lat="43.303432" lon="-8.408627">
        <ele>286.0</ele>
        <time>2011-06-25T10:23:27Z</time>
      </trkpt>
      <trkpt lat="43.303437" lon="-8.408660">
        <ele>287.0</ele>
        <time>2011-06-25T10:23:28Z</time>
      </trkpt>
      <trkpt lat="43.303442" lon="-8.408690">
        <ele>288.0</ele>
        <time>2011-06-25T10:23:29Z</time>
      </trkpt>
      <trkpt lat="43.303442" lon="-8.408718">
        <ele>289.5</ele>
        <time>2011-06-25T10:23:30Z</time>
      </trkpt>
      <trkpt lat="43.303445" lon="-8.408750">
        <ele>290.5</ele>
        <time>2011-06-25T10:23:31Z</time>
      </trkpt>
      <trkpt lat="43.303448" lon="-8.408783">
        <ele>292.0</ele>
        <time>2011-06-25T10:23:32Z</time>
      </trkpt>
      <trkpt lat="43.303448" lon="-8.408823">
        <ele>291.5</ele>
        <time>2011-06-25T10:23:33Z</time>
      </trkpt>
      <trkpt lat="43.303448" lon="-8.408840">
        <ele>291.5</ele>
        <time>2011-06-25T10:23:34Z</time>
      </trkpt>
      <trkpt lat="43.303445" lon="-8.408870">
        <ele>291.5</ele>
        <time>2011-06-25T10:23:35Z</time>
      </trkpt>
      <trkpt lat="43.303447" lon="-8.408903">
        <ele>292.0</ele>
        <time>2011-06-25T10:23:36Z</time>
      </trkpt>
      <trkpt lat="43.303447" lon="-8.408940">
        <ele>292.0</ele>
        <time>2011-06-25T10:23:37Z</time>
      </trkpt>
      <trkpt lat="43.303448" lon="-8.408980">
        <ele>292.5</ele>
        <time>2011-06-25T10:23:38Z</time>
      </trkpt>
      <trkpt lat="43.303452" lon="-8.409023">
        <ele>292.0</ele>
        <time>2011-06-25T10:23:39Z</time>
      </trkpt>
      <trkpt lat="43.303453" lon="-8.409065">
        <ele>292.0</ele>
        <time>2011-06-25T10:23:40Z</time>
      </trkpt>
      <trkpt lat="43.303452" lon="-8.409110">
        <ele>292.0</ele>
        <time>2011-06-25T10:23:41Z</time>
      </trkpt>
      <trkpt lat="43.303450" lon="-8.409150">
        <ele>293.0</ele>
        <time>2011-06-25T10:23:42Z</time>
      </trkpt>
      <trkpt lat="43.303452" lon="-8.409198">
        <ele>293.0</ele>
        <time>2011-06-25T10:23:43Z</time>
      </trkpt>
      <trkpt lat="43.303463" lon="-8.409240">
        <ele>294.0</ele>
        <time>2011-06-25T10:23:44Z</time>
      </trkpt>
      <trkpt lat="43.303480" lon="-8.409283">
        <ele>294.5</ele>
        <time>2011-06-25T10:23:45Z</time>
      </trkpt>
      <trkpt lat="43.303477" lon="-8.409360">
        <ele>295.0</ele>
        <time>2011-06-25T10:23:47Z</time>
      </trkpt>
      <trkpt lat="43.303478" lon="-8.409408">
        <ele>295.5</ele>
        <time>2011-06-25T10:23:48Z</time>
      </trkpt>
      <trkpt lat="43.303478" lon="-8.409455">
        <ele>296.0</ele>
        <time>2011-06-25T10:23:49Z</time>
      </trkpt>
      <trkpt lat="43.303475" lon="-8.409505">
        <ele>296.0</ele>
        <time>2011-06-25T10:23:50Z</time>
      </trkpt>
      <trkpt lat="43.303477" lon="-8.409557">
        <ele>297.5</ele>
        <time>2011-06-25T10:23:51Z</time>
      </trkpt>
      <trkpt lat="43.303477" lon="-8.409625">
        <ele>296.0</ele>
        <time>2011-06-25T10:23:52Z</time>
      </trkpt>
      <trkpt lat="43.303468" lon="-8.409673">
        <ele>296.0</ele>
        <time>2011-06-25T10:23:53Z</time>
      </trkpt>
      <trkpt lat="43.303465" lon="-8.409728">
        <ele>295.5</ele>
        <time>2011-06-25T10:23:54Z</time>
      </trkpt>
      <trkpt lat="43.303457" lon="-8.409783">
        <ele>295.5</ele>
        <time>2011-06-25T10:23:55Z</time>
      </trkpt>
      <trkpt lat="43.303448" lon="-8.409838">
        <ele>294.5</ele>
        <time>2011-06-25T10:23:56Z</time>
      </trkpt>
      <trkpt lat="43.303437" lon="-8.409895">
        <ele>294.5</ele>
        <time>2011-06-25T10:23:57Z</time>
      </trkpt>
      <trkpt lat="43.303427" lon="-8.409952">
        <ele>294.0</ele>
        <time>2011-06-25T10:23:58Z</time>
      </trkpt>
      <trkpt lat="43.303420" lon="-8.409998">
        <ele>294.5</ele>
        <time>2011-06-25T10:23:59Z</time>
      </trkpt>
      <trkpt lat="43.303415" lon="-8.410045">
        <ele>294.5</ele>
        <time>2011-06-25T10:24:00Z</time>
      </trkpt>
      <trkpt lat="43.303410" lon="-8.410092">
        <ele>294.5</ele>
        <time>2011-06-25T10:24:01Z</time>
      </trkpt>
      <trkpt lat="43.303405" lon="-8.410137">
        <ele>294.5</ele>
        <time>2011-06-25T10:24:02Z</time>
      </trkpt>
      <trkpt lat="43.303402" lon="-8.410180">
        <ele>294.5</ele>
        <time>2011-06-25T10:24:03Z</time>
      </trkpt>
      <trkpt lat="43.303400" lon="-8.410223">
        <ele>294.5</ele>
        <time>2011-06-25T10:24:04Z</time>
      </trkpt>
      <trkpt lat="43.303405" lon="-8.410270">
        <ele>295.0</ele>
        <time>2011-06-25T10:24:05Z</time>
      </trkpt>
      <trkpt lat="43.303398" lon="-8.410318">
        <ele>294.5</ele>
        <time>2011-06-25T10:24:06Z</time>
      </trkpt>
      <trkpt lat="43.303392" lon="-8.410355">
        <ele>295.0</ele>
        <time>2011-06-25T10:24:07Z</time>
      </trkpt>
      <trkpt lat="43.303365" lon="-8.410385">
        <ele>293.5</ele>
        <time>2011-06-25T10:24:08Z</time>
      </trkpt>
      <trkpt lat="43.303333" lon="-8.410402">
        <ele>291.5</ele>
        <time>2011-06-25T10:24:09Z</time>
      </trkpt>
      <trkpt lat="43.303297" lon="-8.410415">
        <ele>290.5</ele>
        <time>2011-06-25T10:24:10Z</time>
      </trkpt>
      <trkpt lat="43.303258" lon="-8.410432">
        <ele>290.0</ele>
        <time>2011-06-25T10:24:11Z</time>
      </trkpt>
      <trkpt lat="43.303213" lon="-8.410458">
        <ele>289.0</ele>
        <time>2011-06-25T10:24:12Z</time>
      </trkpt>
      <trkpt lat="43.303165" lon="-8.410483">
        <ele>286.5</ele>
        <time>2011-06-25T10:24:13Z</time>
      </trkpt>
      <trkpt lat="43.303120" lon="-8.410508">
        <ele>286.5</ele>
        <time>2011-06-25T10:24:14Z</time>
      </trkpt>
      <trkpt lat="43.303068" lon="-8.410535">
        <ele>286.0</ele>
        <time>2011-06-25T10:24:15Z</time>
      </trkpt>
      <trkpt lat="43.303018" lon="-8.410563">
        <ele>285.0</ele>
        <time>2011-06-25T10:24:16Z</time>
      </trkpt>
      <trkpt lat="43.302972" lon="-8.410588">
        <ele>283.0</ele>
        <time>2011-06-25T10:24:17Z</time>
      </trkpt>
      <trkpt lat="43.302923" lon="-8.410620">
        <ele>281.5</ele>
        <time>2011-06-25T10:24:18Z</time>
      </trkpt>
      <trkpt lat="43.302873" lon="-8.410655">
        <ele>280.0</ele>
        <time>2011-06-25T10:24:19Z</time>
      </trkpt>
      <trkpt lat="43.302828" lon="-8.410687">
        <ele>279.5</ele>
        <time>2011-06-25T10:24:20Z</time>
      </trkpt>
      <trkpt lat="43.302797" lon="-8.410725">
        <ele>279.0</ele>
        <time>2011-06-25T10:24:21Z</time>
      </trkpt>
      <trkpt lat="43.302752" lon="-8.410757">
        <ele>279.0</ele>
        <time>2011-06-25T10:24:22Z</time>
      </trkpt>
      <trkpt lat="43.302697" lon="-8.410783">
        <ele>278.0</ele>
        <time>2011-06-25T10:24:23Z</time>
      </trkpt>
      <trkpt lat="43.302642" lon="-8.410803">
        <ele>277.0</ele>
        <time>2011-06-25T10:24:24Z</time>
      </trkpt>
      <trkpt lat="43.302588" lon="-8.410822">
        <ele>275.5</ele>
        <time>2011-06-25T10:24:25Z</time>
      </trkpt>
      <trkpt lat="43.302535" lon="-8.410838">
        <ele>274.0</ele>
        <time>2011-06-25T10:24:26Z</time>
      </trkpt>
      <trkpt lat="43.302490" lon="-8.410852">
        <ele>273.0</ele>
        <time>2011-06-25T10:24:27Z</time>
      </trkpt>
      <trkpt lat="43.302442" lon="-8.410860">
        <ele>271.5</ele>
        <time>2011-06-25T10:24:28Z</time>
      </trkpt>
      <trkpt lat="43.302397" lon="-8.410862">
        <ele>270.5</ele>
        <time>2011-06-25T10:24:29Z</time>
      </trkpt>
      <trkpt lat="43.302360" lon="-8.410857">
        <ele>268.0</ele>
        <time>2011-06-25T10:24:30Z</time>
      </trkpt>
      <trkpt lat="43.302322" lon="-8.410845">
        <ele>265.5</ele>
        <time>2011-06-25T10:24:31Z</time>
      </trkpt>
      <trkpt lat="43.302285" lon="-8.410825">
        <ele>264.5</ele>
        <time>2011-06-25T10:24:32Z</time>
      </trkpt>
      <trkpt lat="43.302247" lon="-8.410805">
        <ele>264.0</ele>
        <time>2011-06-25T10:24:33Z</time>
      </trkpt>
      <trkpt lat="43.302212" lon="-8.410777">
        <ele>262.5</ele>
        <time>2011-06-25T10:24:34Z</time>
      </trkpt>
      <trkpt lat="43.302170" lon="-8.410753">
        <ele>262.0</ele>
        <time>2011-06-25T10:24:35Z</time>
      </trkpt>
      <trkpt lat="43.302128" lon="-8.410730">
        <ele>262.0</ele>
        <time>2011-06-25T10:24:36Z</time>
      </trkpt>
      <trkpt lat="43.302088" lon="-8.410707">
        <ele>262.0</ele>
        <time>2011-06-25T10:24:37Z</time>
      </trkpt>
      <trkpt lat="43.302052" lon="-8.410683">
        <ele>261.5</ele>
        <time>2011-06-25T10:24:38Z</time>
      </trkpt>
      <trkpt lat="43.302017" lon="-8.410663">
        <ele>261.5</ele>
        <time>2011-06-25T10:24:39Z</time>
      </trkpt>
      <trkpt lat="43.301977" lon="-8.410645">
        <ele>261.0</ele>
        <time>2011-06-25T10:24:40Z</time>
      </trkpt>
      <trkpt lat="43.301937" lon="-8.410623">
        <ele>260.5</ele>
        <time>2011-06-25T10:24:41Z</time>
      </trkpt>
      <trkpt lat="43.301898" lon="-8.410602">
        <ele>260.0</ele>
        <time>2011-06-25T10:24:42Z</time>
      </trkpt>
      <trkpt lat="43.301865" lon="-8.410577">
        <ele>259.5</ele>
        <time>2011-06-25T10:24:43Z</time>
      </trkpt>
      <trkpt lat="43.301827" lon="-8.410573">
        <ele>260.5</ele>
        <time>2011-06-25T10:24:44Z</time>
      </trkpt>
      <trkpt lat="43.301790" lon="-8.410565">
        <ele>261.0</ele>
        <time>2011-06-25T10:24:45Z</time>
      </trkpt>
      <trkpt lat="43.301762" lon="-8.410548">
        <ele>260.0</ele>
        <time>2011-06-25T10:24:46Z</time>
      </trkpt>
      <trkpt lat="43.301732" lon="-8.410528">
        <ele>259.5</ele>
        <time>2011-06-25T10:24:47Z</time>
      </trkpt>
      <trkpt lat="43.301698" lon="-8.410505">
        <ele>259.0</ele>
        <time>2011-06-25T10:24:48Z</time>
      </trkpt>
      <trkpt lat="43.301660" lon="-8.410495">
        <ele>258.5</ele>
        <time>2011-06-25T10:24:49Z</time>
      </trkpt>
      <trkpt lat="43.301617" lon="-8.410490">
        <ele>258.5</ele>
        <time>2011-06-25T10:24:50Z</time>
      </trkpt>
      <trkpt lat="43.301570" lon="-8.410492">
        <ele>258.0</ele>
        <time>2011-06-25T10:24:51Z</time>
      </trkpt>
      <trkpt lat="43.301535" lon="-8.410503">
        <ele>258.0</ele>
        <time>2011-06-25T10:24:52Z</time>
      </trkpt>
      <trkpt lat="43.301427" lon="-8.410433">
        <ele>256.0</ele>
        <time>2011-06-25T10:24:54Z</time>
      </trkpt>
      <trkpt lat="43.301375" lon="-8.410418">
        <ele>257.0</ele>
        <time>2011-06-25T10:24:55Z</time>
      </trkpt>
      <trkpt lat="43.301322" lon="-8.410392">
        <ele>256.5</ele>
        <time>2011-06-25T10:24:56Z</time>
      </trkpt>
      <trkpt lat="43.301273" lon="-8.410372">
        <ele>256.0</ele>
        <time>2011-06-25T10:24:57Z</time>
      </trkpt>
      <trkpt lat="43.301233" lon="-8.410358">
        <ele>255.0</ele>
        <time>2011-06-25T10:24:58Z</time>
      </trkpt>
      <trkpt lat="43.301190" lon="-8.410350">
        <ele>256.0</ele>
        <time>2011-06-25T10:25:00Z</time>
      </trkpt>
      <trkpt lat="43.301177" lon="-8.410365">
        <ele>256.0</ele>
        <time>2011-06-25T10:25:02Z</time>
      </trkpt>
      <trkpt lat="43.301165" lon="-8.410360">
        <ele>256.5</ele>
        <time>2011-06-25T10:25:03Z</time>
      </trkpt>
      <trkpt lat="43.301160" lon="-8.410357">
        <ele>256.5</ele>
        <time>2011-06-25T10:25:04Z</time>
      </trkpt>
      <trkpt lat="43.301153" lon="-8.410345">
        <ele>256.5</ele>
        <time>2011-06-25T10:25:05Z</time>
      </trkpt>
      <trkpt lat="43.301158" lon="-8.410275">
        <ele>258.0</ele>
        <time>2011-06-25T10:25:07Z</time>
      </trkpt>
      <trkpt lat="43.301163" lon="-8.410235">
        <ele>258.0</ele>
        <time>2011-06-25T10:25:08Z</time>
      </trkpt>
      <trkpt lat="43.301158" lon="-8.410202">
        <ele>258.0</ele>
        <time>2011-06-25T10:25:09Z</time>
      </trkpt>
      <trkpt lat="43.301170" lon="-8.410153">
        <ele>258.0</ele>
        <time>2011-06-25T10:25:10Z</time>
      </trkpt>
      <trkpt lat="43.301182" lon="-8.410108">
        <ele>258.0</ele>
        <time>2011-06-25T10:25:11Z</time>
      </trkpt>
      <trkpt lat="43.301250" lon="-8.409987">
        <ele>257.0</ele>
        <time>2011-06-25T10:25:13Z</time>
      </trkpt>
      <trkpt lat="43.301295" lon="-8.409935">
        <ele>257.0</ele>
        <time>2011-06-25T10:25:14Z</time>
      </trkpt>
      <trkpt lat="43.301340" lon="-8.409888">
        <ele>257.5</ele>
        <time>2011-06-25T10:25:15Z</time>
      </trkpt>
      <trkpt lat="43.301372" lon="-8.409835">
        <ele>257.5</ele>
        <time>2011-06-25T10:25:16Z</time>
      </trkpt>
      <trkpt lat="43.301405" lon="-8.409788">
        <ele>259.0</ele>
        <time>2011-06-25T10:25:17Z</time>
      </trkpt>
      <trkpt lat="43.301432" lon="-8.409742">
        <ele>259.0</ele>
        <time>2011-06-25T10:25:18Z</time>
      </trkpt>
      <trkpt lat="43.301418" lon="-8.409700">
        <ele>256.0</ele>
        <time>2011-06-25T10:25:20Z</time>
      </trkpt>
      <trkpt lat="43.301412" lon="-8.409695">
        <ele>256.5</ele>
        <time>2011-06-25T10:25:21Z</time>
      </trkpt>
      <trkpt lat="43.301412" lon="-8.409698">
        <ele>255.0</ele>
        <time>2011-06-25T10:25:22Z</time>
      </trkpt>
      <trkpt lat="43.301410" lon="-8.409702">
        <ele>255.0</ele>
        <time>2011-06-25T10:25:23Z</time>
      </trkpt>
      <trkpt lat="43.301432" lon="-8.409738">
        <ele>255.0</ele>
        <time>2011-06-25T10:25:25Z</time>
      </trkpt>
      <trkpt lat="43.301428" lon="-8.409747">
        <ele>255.5</ele>
        <time>2011-06-25T10:25:26Z</time>
      </trkpt>
      <trkpt lat="43.301440" lon="-8.409742">
        <ele>256.0</ele>
        <time>2011-06-25T10:25:27Z</time>
      </trkpt>
      <trkpt lat="43.301415" lon="-8.409742">
        <ele>255.5</ele>
        <time>2011-06-25T10:25:28Z</time>
      </trkpt>
      <trkpt lat="43.301403" lon="-8.409728">
        <ele>255.5</ele>
        <time>2011-06-25T10:25:29Z</time>
      </trkpt>
      <trkpt lat="43.301390" lon="-8.409707">
        <ele>255.5</ele>
        <time>2011-06-25T10:25:30Z</time>
      </trkpt>
      <trkpt lat="43.301378" lon="-8.409695">
        <ele>256.0</ele>
        <time>2011-06-25T10:25:31Z</time>
      </trkpt>
      <trkpt lat="43.301367" lon="-8.409683">
        <ele>256.5</ele>
        <time>2011-06-25T10:25:32Z</time>
      </trkpt>
      <trkpt lat="43.301353" lon="-8.409677">
        <ele>258.5</ele>
        <time>2011-06-25T10:25:33Z</time>
      </trkpt>
      <trkpt lat="43.301358" lon="-8.409658">
        <ele>258.0</ele>
        <time>2011-06-25T10:25:34Z</time>
      </trkpt>
      <trkpt lat="43.301345" lon="-8.409657">
        <ele>259.0</ele>
        <time>2011-06-25T10:25:35Z</time>
      </trkpt>
      <trkpt lat="43.301350" lon="-8.409635">
        <ele>259.0</ele>
        <time>2011-06-25T10:25:36Z</time>
      </trkpt>
      <trkpt lat="43.301343" lon="-8.409625">
        <ele>259.0</ele>
        <time>2011-06-25T10:25:37Z</time>
      </trkpt>
      <trkpt lat="43.301313" lon="-8.409595">
        <ele>258.5</ele>
        <time>2011-06-25T10:25:39Z</time>
      </trkpt>
      <trkpt lat="43.301317" lon="-8.409577">
        <ele>258.5</ele>
        <time>2011-06-25T10:25:40Z</time>
      </trkpt>
      <trkpt lat="43.301302" lon="-8.409548">
        <ele>258.5</ele>
        <time>2011-06-25T10:25:41Z</time>
      </trkpt>
      <trkpt lat="43.301290" lon="-8.409542">
        <ele>258.5</ele>
        <time>2011-06-25T10:25:42Z</time>
      </trkpt>
      <trkpt lat="43.301272" lon="-8.409535">
        <ele>260.0</ele>
        <time>2011-06-25T10:25:43Z</time>
      </trkpt>
      <trkpt lat="43.301238" lon="-8.409478">
        <ele>260.0</ele>
        <time>2011-06-25T10:25:45Z</time>
      </trkpt>
      <trkpt lat="43.301228" lon="-8.409457">
        <ele>260.5</ele>
        <time>2011-06-25T10:25:46Z</time>
      </trkpt>
      <trkpt lat="43.301208" lon="-8.409442">
        <ele>262.0</ele>
        <time>2011-06-25T10:25:47Z</time>
      </trkpt>
      <trkpt lat="43.301190" lon="-8.409442">
        <ele>262.5</ele>
        <time>2011-06-25T10:25:48Z</time>
      </trkpt>
      <trkpt lat="43.301170" lon="-8.409423">
        <ele>263.5</ele>
        <time>2011-06-25T10:25:49Z</time>
      </trkpt>
      <trkpt lat="43.301143" lon="-8.409415">
        <ele>265.0</ele>
        <time>2011-06-25T10:25:50Z</time>
      </trkpt>
      <trkpt lat="43.301155" lon="-8.409400">
        <ele>265.0</ele>
        <time>2011-06-25T10:25:51Z</time>
      </trkpt>
      <trkpt lat="43.301160" lon="-8.409390">
        <ele>265.5</ele>
        <time>2011-06-25T10:25:52Z</time>
      </trkpt>
      <trkpt lat="43.301150" lon="-8.409385">
        <ele>266.0</ele>
        <time>2011-06-25T10:25:53Z</time>
      </trkpt>
      <trkpt lat="43.301147" lon="-8.409385">
        <ele>267.5</ele>
        <time>2011-06-25T10:25:55Z</time>
      </trkpt>
    </trkseg>
  </trk>
  <trk>
    <name>T2067676-9</name>
    <cmt>saida con compañeiros do C.C.Arteixo polos arredores da Coruña</cmt>
    <desc>saida con compañeiros do C.C.Arteixo polos arredores da Coruña</desc>
    <trkseg>
      <trkpt lat="43.301125" lon="-8.409405">
        <ele>270.0</ele>
        <time>2011-06-25T10:25:56Z</time>
      </trkpt>
      <trkpt lat="43.301115" lon="-8.409425">
        <ele>272.5</ele>
        <time>2011-06-25T10:25:57Z</time>
      </trkpt>
      <trkpt lat="43.301058" lon="-8.409448">
        <ele>274.0</ele>
        <time>2011-06-25T10:25:59Z</time>
      </trkpt>
      <trkpt lat="43.301048" lon="-8.409458">
        <ele>275.5</ele>
        <time>2011-06-25T10:26:00Z</time>
      </trkpt>
      <trkpt lat="43.301025" lon="-8.409458">
        <ele>275.5</ele>
        <time>2011-06-25T10:26:01Z</time>
      </trkpt>
      <trkpt lat="43.301012" lon="-8.409457">
        <ele>275.0</ele>
        <time>2011-06-25T10:26:02Z</time>
      </trkpt>
      <trkpt lat="43.300988" lon="-8.409472">
        <ele>275.5</ele>
        <time>2011-06-25T10:26:04Z</time>
      </trkpt>
      <trkpt lat="43.300970" lon="-8.409480">
        <ele>275.5</ele>
        <time>2011-06-25T10:26:05Z</time>
      </trkpt>
      <trkpt lat="43.300953" lon="-8.409478">
        <ele>275.5</ele>
        <time>2011-06-25T10:26:06Z</time>
      </trkpt>
      <trkpt lat="43.300942" lon="-8.409473">
        <ele>275.5</ele>
        <time>2011-06-25T10:26:07Z</time>
      </trkpt>
      <trkpt lat="43.300938" lon="-8.409480">
        <ele>276.0</ele>
        <time>2011-06-25T10:26:08Z</time>
      </trkpt>
      <trkpt lat="43.300927" lon="-8.409483">
        <ele>276.0</ele>
        <time>2011-06-25T10:26:09Z</time>
      </trkpt>
      <trkpt lat="43.300935" lon="-8.409495">
        <ele>277.0</ele>
        <time>2011-06-25T10:26:10Z</time>
      </trkpt>
      <trkpt lat="43.300922" lon="-8.409502">
        <ele>277.0</ele>
        <time>2011-06-25T10:26:11Z</time>
      </trkpt>
      <trkpt lat="43.300917" lon="-8.409502">
        <ele>278.0</ele>
        <time>2011-06-25T10:26:12Z</time>
      </trkpt>
      <trkpt lat="43.300893" lon="-8.409503">
        <ele>277.5</ele>
        <time>2011-06-25T10:26:14Z</time>
      </trkpt>
      <trkpt lat="43.300885" lon="-8.409502">
        <ele>277.5</ele>
        <time>2011-06-25T10:26:15Z</time>
      </trkpt>
      <trkpt lat="43.300873" lon="-8.409502">
        <ele>277.5</ele>
        <time>2011-06-25T10:26:16Z</time>
      </trkpt>
      <trkpt lat="43.300852" lon="-8.409502">
        <ele>276.5</ele>
        <time>2011-06-25T10:26:17Z</time>
      </trkpt>
      <trkpt lat="43.300828" lon="-8.409500">
        <ele>276.0</ele>
        <time>2011-06-25T10:26:18Z</time>
      </trkpt>
      <trkpt lat="43.300815" lon="-8.409507">
        <ele>277.0</ele>
        <time>2011-06-25T10:26:19Z</time>
      </trkpt>
      <trkpt lat="43.300768" lon="-8.409520">
        <ele>276.5</ele>
        <time>2011-06-25T10:26:21Z</time>
      </trkpt>
      <trkpt lat="43.300747" lon="-8.409525">
        <ele>277.0</ele>
        <time>2011-06-25T10:26:22Z</time>
      </trkpt>
      <trkpt lat="43.300653" lon="-8.409518">
        <ele>274.5</ele>
        <time>2011-06-25T10:26:24Z</time>
      </trkpt>
      <trkpt lat="43.300643" lon="-8.409540">
        <ele>276.5</ele>
        <time>2011-06-25T10:26:26Z</time>
      </trkpt>
      <trkpt lat="43.300643" lon="-8.409555">
        <ele>278.5</ele>
        <time>2011-06-25T10:26:27Z</time>
      </trkpt>
      <trkpt lat="43.300623" lon="-8.409563">
        <ele>278.5</ele>
        <time>2011-06-25T10:26:28Z</time>
      </trkpt>
      <trkpt lat="43.300612" lon="-8.409573">
        <ele>279.0</ele>
        <time>2011-06-25T10:26:29Z</time>
      </trkpt>
      <trkpt lat="43.300583" lon="-8.409578">
        <ele>278.0</ele>
        <time>2011-06-25T10:26:30Z</time>
      </trkpt>
      <trkpt lat="43.300565" lon="-8.409593">
        <ele>278.0</ele>
        <time>2011-06-25T10:26:31Z</time>
      </trkpt>
      <trkpt lat="43.300557" lon="-8.409612">
        <ele>278.0</ele>
        <time>2011-06-25T10:26:32Z</time>
      </trkpt>
      <trkpt lat="43.300558" lon="-8.409632">
        <ele>278.5</ele>
        <time>2011-06-25T10:26:33Z</time>
      </trkpt>
      <trkpt lat="43.300537" lon="-8.409640">
        <ele>277.5</ele>
        <time>2011-06-25T10:26:34Z</time>
      </trkpt>
      <trkpt lat="43.300525" lon="-8.409643">
        <ele>277.0</ele>
        <time>2011-06-25T10:26:35Z</time>
      </trkpt>
      <trkpt lat="43.300512" lon="-8.409650">
        <ele>276.5</ele>
        <time>2011-06-25T10:26:36Z</time>
      </trkpt>
      <trkpt lat="43.300497" lon="-8.409653">
        <ele>276.0</ele>
        <time>2011-06-25T10:26:37Z</time>
      </trkpt>
      <trkpt lat="43.300480" lon="-8.409657">
        <ele>275.0</ele>
        <time>2011-06-25T10:26:38Z</time>
      </trkpt>
      <trkpt lat="43.300473" lon="-8.409660">
        <ele>274.5</ele>
        <time>2011-06-25T10:26:39Z</time>
      </trkpt>
      <trkpt lat="43.300467" lon="-8.409663">
        <ele>274.0</ele>
        <time>2011-06-25T10:26:40Z</time>
      </trkpt>
      <trkpt lat="43.300457" lon="-8.409663">
        <ele>274.0</ele>
        <time>2011-06-25T10:26:41Z</time>
      </trkpt>
      <trkpt lat="43.300443" lon="-8.409665">
        <ele>273.5</ele>
        <time>2011-06-25T10:26:42Z</time>
      </trkpt>
      <trkpt lat="43.300422" lon="-8.409668">
        <ele>273.5</ele>
        <time>2011-06-25T10:26:43Z</time>
      </trkpt>
      <trkpt lat="43.300417" lon="-8.409678">
        <ele>273.5</ele>
        <time>2011-06-25T10:26:44Z</time>
      </trkpt>
      <trkpt lat="43.300418" lon="-8.409693">
        <ele>274.5</ele>
        <time>2011-06-25T10:26:45Z</time>
      </trkpt>
      <trkpt lat="43.300410" lon="-8.409705">
        <ele>274.0</ele>
        <time>2011-06-25T10:26:46Z</time>
      </trkpt>
      <trkpt lat="43.300415" lon="-8.409707">
        <ele>274.0</ele>
        <time>2011-06-25T10:26:47Z</time>
      </trkpt>
      <trkpt lat="43.300420" lon="-8.409707">
        <ele>273.5</ele>
        <time>2011-06-25T10:26:48Z</time>
      </trkpt>
      <trkpt lat="43.300428" lon="-8.409703">
        <ele>273.0</ele>
        <time>2011-06-25T10:26:49Z</time>
      </trkpt>
      <trkpt lat="43.300427" lon="-8.409690">
        <ele>273.0</ele>
        <time>2011-06-25T10:26:50Z</time>
      </trkpt>
      <trkpt lat="43.300422" lon="-8.409670">
        <ele>272.0</ele>
        <time>2011-06-25T10:26:51Z</time>
      </trkpt>
      <trkpt lat="43.300405" lon="-8.409652">
        <ele>270.0</ele>
        <time>2011-06-25T10:26:52Z</time>
      </trkpt>
      <trkpt lat="43.300387" lon="-8.409635">
        <ele>268.5</ele>
        <time>2011-06-25T10:26:53Z</time>
      </trkpt>
      <trkpt lat="43.300372" lon="-8.409622">
        <ele>266.0</ele>
        <time>2011-06-25T10:26:54Z</time>
      </trkpt>
      <trkpt lat="43.300368" lon="-8.409622">
        <ele>265.5</ele>
        <time>2011-06-25T10:26:55Z</time>
      </trkpt>
      <trkpt lat="43.300373" lon="-8.409623">
        <ele>265.0</ele>
        <time>2011-06-25T10:26:56Z</time>
      </trkpt>
      <trkpt lat="43.300380" lon="-8.409625">
        <ele>265.0</ele>
        <time>2011-06-25T10:26:57Z</time>
      </trkpt>
      <trkpt lat="43.300378" lon="-8.409625">
        <ele>264.5</ele>
        <time>2011-06-25T10:26:58Z</time>
      </trkpt>
      <trkpt lat="43.300373" lon="-8.409625">
        <ele>264.5</ele>
        <time>2011-06-25T10:26:59Z</time>
      </trkpt>
      <trkpt lat="43.300373" lon="-8.409625">
        <ele>264.5</ele>
        <time>2011-06-25T10:27:00Z</time>
      </trkpt>
      <trkpt lat="43.300368" lon="-8.409628">
        <ele>264.5</ele>
        <time>2011-06-25T10:27:01Z</time>
      </trkpt>
      <trkpt lat="43.300368" lon="-8.409630">
        <ele>264.5</ele>
        <time>2011-06-25T10:27:02Z</time>
      </trkpt>
      <trkpt lat="43.300368" lon="-8.409630">
        <ele>264.0</ele>
        <time>2011-06-25T10:27:03Z</time>
      </trkpt>
      <trkpt lat="43.300332" lon="-8.409648">
        <ele>265.0</ele>
        <time>2011-06-25T10:27:05Z</time>
      </trkpt>
      <trkpt lat="43.300330" lon="-8.409648">
        <ele>264.5</ele>
        <time>2011-06-25T10:27:06Z</time>
      </trkpt>
      <trkpt lat="43.300328" lon="-8.409648">
        <ele>264.5</ele>
        <time>2011-06-25T10:27:07Z</time>
      </trkpt>
      <trkpt lat="43.300327" lon="-8.409650">
        <ele>264.5</ele>
        <time>2011-06-25T10:27:08Z</time>
      </trkpt>
      <trkpt lat="43.300323" lon="-8.409650">
        <ele>264.5</ele>
        <time>2011-06-25T10:27:09Z</time>
      </trkpt>
      <trkpt lat="43.300322" lon="-8.409653">
        <ele>264.5</ele>
        <time>2011-06-25T10:27:10Z</time>
      </trkpt>
      <trkpt lat="43.300307" lon="-8.409658">
        <ele>264.5</ele>
        <time>2011-06-25T10:27:11Z</time>
      </trkpt>
      <trkpt lat="43.300302" lon="-8.409662">
        <ele>263.5</ele>
        <time>2011-06-25T10:27:13Z</time>
      </trkpt>
      <trkpt lat="43.300295" lon="-8.409665">
        <ele>261.5</ele>
        <time>2011-06-25T10:27:15Z</time>
      </trkpt>
      <trkpt lat="43.300293" lon="-8.409668">
        <ele>260.5</ele>
        <time>2011-06-25T10:27:16Z</time>
      </trkpt>
      <trkpt lat="43.300285" lon="-8.409673">
        <ele>261.0</ele>
        <time>2011-06-25T10:27:17Z</time>
      </trkpt>
      <trkpt lat="43.300290" lon="-8.409675">
        <ele>260.5</ele>
        <time>2011-06-25T10:27:18Z</time>
      </trkpt>
      <trkpt lat="43.300292" lon="-8.409677">
        <ele>260.0</ele>
        <time>2011-06-25T10:27:19Z</time>
      </trkpt>
      <trkpt lat="43.300293" lon="-8.409678">
        <ele>260.0</ele>
        <time>2011-06-25T10:27:20Z</time>
      </trkpt>
      <trkpt lat="43.300297" lon="-8.409680">
        <ele>260.0</ele>
        <time>2011-06-25T10:27:21Z</time>
      </trkpt>
      <trkpt lat="43.300303" lon="-8.409683">
        <ele>260.0</ele>
        <time>2011-06-25T10:27:22Z</time>
      </trkpt>
      <trkpt lat="43.300312" lon="-8.409685">
        <ele>260.0</ele>
        <time>2011-06-25T10:27:23Z</time>
      </trkpt>
      <trkpt lat="43.300323" lon="-8.409680">
        <ele>259.0</ele>
        <time>2011-06-25T10:27:24Z</time>
      </trkpt>
      <trkpt lat="43.300323" lon="-8.409680">
        <ele>259.0</ele>
        <time>2011-06-25T10:27:25Z</time>
      </trkpt>
      <trkpt lat="43.300325" lon="-8.409677">
        <ele>259.0</ele>
        <time>2011-06-25T10:27:26Z</time>
      </trkpt>
      <trkpt lat="43.300327" lon="-8.409678">
        <ele>259.5</ele>
        <time>2011-06-25T10:27:27Z</time>
      </trkpt>
      <trkpt lat="43.300328" lon="-8.409678">
        <ele>259.5</ele>
        <time>2011-06-25T10:27:28Z</time>
      </trkpt>
      <trkpt lat="43.300325" lon="-8.409683">
        <ele>260.5</ele>
        <time>2011-06-25T10:27:29Z</time>
      </trkpt>
      <trkpt lat="43.300318" lon="-8.409692">
        <ele>261.0</ele>
        <time>2011-06-25T10:27:30Z</time>
      </trkpt>
      <trkpt lat="43.300312" lon="-8.409703">
        <ele>261.5</ele>
        <time>2011-06-25T10:27:31Z</time>
      </trkpt>
      <trkpt lat="43.300303" lon="-8.409715">
        <ele>261.5</ele>
        <time>2011-06-25T10:27:32Z</time>
      </trkpt>
      <trkpt lat="43.300287" lon="-8.409718">
        <ele>262.0</ele>
        <time>2011-06-25T10:27:33Z</time>
      </trkpt>
      <trkpt lat="43.300277" lon="-8.409717">
        <ele>262.5</ele>
        <time>2011-06-25T10:27:34Z</time>
      </trkpt>
      <trkpt lat="43.300265" lon="-8.409717">
        <ele>264.0</ele>
        <time>2011-06-25T10:27:35Z</time>
      </trkpt>
      <trkpt lat="43.300250" lon="-8.409713">
        <ele>265.0</ele>
        <time>2011-06-25T10:27:36Z</time>
      </trkpt>
      <trkpt lat="43.300230" lon="-8.409703">
        <ele>266.5</ele>
        <time>2011-06-25T10:27:37Z</time>
      </trkpt>
      <trkpt lat="43.300213" lon="-8.409690">
        <ele>268.0</ele>
        <time>2011-06-25T10:27:38Z</time>
      </trkpt>
      <trkpt lat="43.300193" lon="-8.409680">
        <ele>269.0</ele>
        <time>2011-06-25T10:27:39Z</time>
      </trkpt>
      <trkpt lat="43.300175" lon="-8.409668">
        <ele>268.5</ele>
        <time>2011-06-25T10:27:40Z</time>
      </trkpt>
      <trkpt lat="43.300155" lon="-8.409657">
        <ele>269.0</ele>
        <time>2011-06-25T10:27:41Z</time>
      </trkpt>
      <trkpt lat="43.300135" lon="-8.409647">
        <ele>268.5</ele>
        <time>2011-06-25T10:27:42Z</time>
      </trkpt>
      <trkpt lat="43.300110" lon="-8.409635">
        <ele>269.0</ele>
        <time>2011-06-25T10:27:43Z</time>
      </trkpt>
      <trkpt lat="43.300088" lon="-8.409622">
        <ele>269.0</ele>
        <time>2011-06-25T10:27:44Z</time>
      </trkpt>
      <trkpt lat="43.300058" lon="-8.409612">
        <ele>271.0</ele>
        <time>2011-06-25T10:27:45Z</time>
      </trkpt>
      <trkpt lat="43.300035" lon="-8.409600">
        <ele>271.5</ele>
        <time>2011-06-25T10:27:46Z</time>
      </trkpt>
      <trkpt lat="43.300012" lon="-8.409587">
        <ele>272.0</ele>
        <time>2011-06-25T10:27:47Z</time>
      </trkpt>
      <trkpt lat="43.299988" lon="-8.409575">
        <ele>272.5</ele>
        <time>2011-06-25T10:27:48Z</time>
      </trkpt>
      <trkpt lat="43.299967" lon="-8.409565">
        <ele>273.0</ele>
        <time>2011-06-25T10:27:49Z</time>
      </trkpt>
      <trkpt lat="43.299947" lon="-8.409547">
        <ele>272.5</ele>
        <time>2011-06-25T10:27:50Z</time>
      </trkpt>
      <trkpt lat="43.299930" lon="-8.409533">
        <ele>272.5</ele>
        <time>2011-06-25T10:27:51Z</time>
      </trkpt>
      <trkpt lat="43.299913" lon="-8.409518">
        <ele>273.0</ele>
        <time>2011-06-25T10:27:52Z</time>
      </trkpt>
      <trkpt lat="43.299900" lon="-8.409505">
        <ele>274.0</ele>
        <time>2011-06-25T10:27:53Z</time>
      </trkpt>
      <trkpt lat="43.299880" lon="-8.409492">
        <ele>274.0</ele>
        <time>2011-06-25T10:27:54Z</time>
      </trkpt>
      <trkpt lat="43.299853" lon="-8.409478">
        <ele>275.0</ele>
        <time>2011-06-25T10:27:55Z</time>
      </trkpt>
      <trkpt lat="43.299825" lon="-8.409462">
        <ele>275.5</ele>
        <time>2011-06-25T10:27:56Z</time>
      </trkpt>
      <trkpt lat="43.299797" lon="-8.409440">
        <ele>276.0</ele>
        <time>2011-06-25T10:27:57Z</time>
      </trkpt>
      <trkpt lat="43.299770" lon="-8.409418">
        <ele>277.0</ele>
        <time>2011-06-25T10:27:58Z</time>
      </trkpt>
      <trkpt lat="43.299745" lon="-8.409397">
        <ele>277.0</ele>
        <time>2011-06-25T10:27:59Z</time>
      </trkpt>
      <trkpt lat="43.299717" lon="-8.409378">
        <ele>277.5</ele>
        <time>2011-06-25T10:28:00Z</time>
      </trkpt>
      <trkpt lat="43.299685" lon="-8.409370">
        <ele>278.0</ele>
        <time>2011-06-25T10:28:01Z</time>
      </trkpt>
      <trkpt lat="43.299577" lon="-8.409347">
        <ele>277.5</ele>
        <time>2011-06-25T10:28:03Z</time>
      </trkpt>
      <trkpt lat="43.299480" lon="-8.409300">
        <ele>277.0</ele>
        <time>2011-06-25T10:28:05Z</time>
      </trkpt>
      <trkpt lat="43.299438" lon="-8.409273">
        <ele>275.0</ele>
        <time>2011-06-25T10:28:06Z</time>
      </trkpt>
      <trkpt lat="43.299322" lon="-8.409243">
        <ele>274.0</ele>
        <time>2011-06-25T10:28:08Z</time>
      </trkpt>
      <trkpt lat="43.299258" lon="-8.409238">
        <ele>274.5</ele>
        <time>2011-06-25T10:28:09Z</time>
      </trkpt>
      <trkpt lat="43.299198" lon="-8.409222">
        <ele>274.5</ele>
        <time>2011-06-25T10:28:10Z</time>
      </trkpt>
      <trkpt lat="43.299145" lon="-8.409195">
        <ele>273.0</ele>
        <time>2011-06-25T10:28:11Z</time>
      </trkpt>
      <trkpt lat="43.299088" lon="-8.409170">
        <ele>272.5</ele>
        <time>2011-06-25T10:28:12Z</time>
      </trkpt>
      <trkpt lat="43.299025" lon="-8.409140">
        <ele>272.0</ele>
        <time>2011-06-25T10:28:13Z</time>
      </trkpt>
      <trkpt lat="43.298962" lon="-8.409107">
        <ele>271.0</ele>
        <time>2011-06-25T10:28:14Z</time>
      </trkpt>
      <trkpt lat="43.298903" lon="-8.409067">
        <ele>271.0</ele>
        <time>2011-06-25T10:28:15Z</time>
      </trkpt>
      <trkpt lat="43.298838" lon="-8.409030">
        <ele>270.0</ele>
        <time>2011-06-25T10:28:16Z</time>
      </trkpt>
      <trkpt lat="43.298785" lon="-8.408987">
        <ele>270.5</ele>
        <time>2011-06-25T10:28:17Z</time>
      </trkpt>
      <trkpt lat="43.298723" lon="-8.408955">
        <ele>270.0</ele>
        <time>2011-06-25T10:28:18Z</time>
      </trkpt>
      <trkpt lat="43.298692" lon="-8.408900">
        <ele>268.5</ele>
        <time>2011-06-25T10:28:19Z</time>
      </trkpt>
      <trkpt lat="43.298565" lon="-8.408830">
        <ele>265.5</ele>
        <time>2011-06-25T10:28:21Z</time>
      </trkpt>
      <trkpt lat="43.298508" lon="-8.408792">
        <ele>264.0</ele>
        <time>2011-06-25T10:28:22Z</time>
      </trkpt>
      <trkpt lat="43.298435" lon="-8.408762">
        <ele>262.0</ele>
        <time>2011-06-25T10:28:23Z</time>
      </trkpt>
      <trkpt lat="43.298265" lon="-8.408642">
        <ele>259.5</ele>
        <time>2011-06-25T10:28:25Z</time>
      </trkpt>
      <trkpt lat="43.298182" lon="-8.408587">
        <ele>259.0</ele>
        <time>2011-06-25T10:28:26Z</time>
      </trkpt>
      <trkpt lat="43.298097" lon="-8.408533">
        <ele>258.5</ele>
        <time>2011-06-25T10:28:27Z</time>
      </trkpt>
      <trkpt lat="43.297998" lon="-8.408485">
        <ele>258.5</ele>
        <time>2011-06-25T10:28:28Z</time>
      </trkpt>
      <trkpt lat="43.297910" lon="-8.408448">
        <ele>258.5</ele>
        <time>2011-06-25T10:28:29Z</time>
      </trkpt>
      <trkpt lat="43.297847" lon="-8.408397">
        <ele>258.0</ele>
        <time>2011-06-25T10:28:30Z</time>
      </trkpt>
      <trkpt lat="43.297762" lon="-8.408357">
        <ele>258.5</ele>
        <time>2011-06-25T10:28:31Z</time>
      </trkpt>
      <trkpt lat="43.297675" lon="-8.408320">
        <ele>259.0</ele>
        <time>2011-06-25T10:28:32Z</time>
      </trkpt>
      <trkpt lat="43.297592" lon="-8.408257">
        <ele>258.0</ele>
        <time>2011-06-25T10:28:33Z</time>
      </trkpt>
      <trkpt lat="43.297518" lon="-8.408207">
        <ele>258.0</ele>
        <time>2011-06-25T10:28:34Z</time>
      </trkpt>
      <trkpt lat="43.297440" lon="-8.408160">
        <ele>258.5</ele>
        <time>2011-06-25T10:28:35Z</time>
      </trkpt>
      <trkpt lat="43.297373" lon="-8.408107">
        <ele>259.5</ele>
        <time>2011-06-25T10:28:36Z</time>
      </trkpt>
      <trkpt lat="43.297297" lon="-8.408068">
        <ele>259.0</ele>
        <time>2011-06-25T10:28:37Z</time>
      </trkpt>
      <trkpt lat="43.297233" lon="-8.408032">
        <ele>259.5</ele>
        <time>2011-06-25T10:28:38Z</time>
      </trkpt>
      <trkpt lat="43.297178" lon="-8.407998">
        <ele>259.0</ele>
        <time>2011-06-25T10:28:39Z</time>
      </trkpt>
      <trkpt lat="43.297128" lon="-8.407963">
        <ele>258.5</ele>
        <time>2011-06-25T10:28:40Z</time>
      </trkpt>
      <trkpt lat="43.297090" lon="-8.407933">
        <ele>258.0</ele>
        <time>2011-06-25T10:28:41Z</time>
      </trkpt>
      <trkpt lat="43.297060" lon="-8.407918">
        <ele>258.5</ele>
        <time>2011-06-25T10:28:42Z</time>
      </trkpt>
      <trkpt lat="43.297048" lon="-8.407900">
        <ele>258.5</ele>
        <time>2011-06-25T10:28:44Z</time>
      </trkpt>
      <trkpt lat="43.297038" lon="-8.407890">
        <ele>258.5</ele>
        <time>2011-06-25T10:28:45Z</time>
      </trkpt>
      <trkpt lat="43.297025" lon="-8.407882">
        <ele>258.5</ele>
        <time>2011-06-25T10:28:46Z</time>
      </trkpt>
      <trkpt lat="43.297007" lon="-8.407878">
        <ele>259.0</ele>
        <time>2011-06-25T10:28:47Z</time>
      </trkpt>
      <trkpt lat="43.296992" lon="-8.407872">
        <ele>259.5</ele>
        <time>2011-06-25T10:28:48Z</time>
      </trkpt>
      <trkpt lat="43.296980" lon="-8.407872">
        <ele>261.5</ele>
        <time>2011-06-25T10:28:49Z</time>
      </trkpt>
      <trkpt lat="43.296977" lon="-8.407865">
        <ele>261.5</ele>
        <time>2011-06-25T10:28:50Z</time>
      </trkpt>
      <trkpt lat="43.296962" lon="-8.407855">
        <ele>262.0</ele>
        <time>2011-06-25T10:28:51Z</time>
      </trkpt>
      <trkpt lat="43.296980" lon="-8.407833">
        <ele>262.0</ele>
        <time>2011-06-25T10:28:52Z</time>
      </trkpt>
      <trkpt lat="43.296977" lon="-8.407813">
        <ele>264.0</ele>
        <time>2011-06-25T10:28:53Z</time>
      </trkpt>
      <trkpt lat="43.296932" lon="-8.407770">
        <ele>265.5</ele>
        <time>2011-06-25T10:28:55Z</time>
      </trkpt>
      <trkpt lat="43.296920" lon="-8.407748">
        <ele>266.5</ele>
        <time>2011-06-25T10:28:56Z</time>
      </trkpt>
      <trkpt lat="43.296862" lon="-8.407710">
        <ele>268.5</ele>
        <time>2011-06-25T10:28:58Z</time>
      </trkpt>
      <trkpt lat="43.296857" lon="-8.407685">
        <ele>268.5</ele>
        <time>2011-06-25T10:28:59Z</time>
      </trkpt>
      <trkpt lat="43.296857" lon="-8.407673">
        <ele>271.0</ele>
        <time>2011-06-25T10:29:00Z</time>
      </trkpt>
      <trkpt lat="43.296853" lon="-8.407665">
        <ele>273.5</ele>
        <time>2011-06-25T10:29:01Z</time>
      </trkpt>
      <trkpt lat="43.296835" lon="-8.407653">
        <ele>274.5</ele>
        <time>2011-06-25T10:29:02Z</time>
      </trkpt>
      <trkpt lat="43.296827" lon="-8.407643">
        <ele>276.5</ele>
        <time>2011-06-25T10:29:03Z</time>
      </trkpt>
      <trkpt lat="43.296830" lon="-8.407637">
        <ele>278.5</ele>
        <time>2011-06-25T10:29:04Z</time>
      </trkpt>
      <trkpt lat="43.296805" lon="-8.407625">
        <ele>278.5</ele>
        <time>2011-06-25T10:29:05Z</time>
      </trkpt>
      <trkpt lat="43.296780" lon="-8.407612">
        <ele>278.5</ele>
        <time>2011-06-25T10:29:06Z</time>
      </trkpt>
      <trkpt lat="43.296755" lon="-8.407590">
        <ele>278.5</ele>
        <time>2011-06-25T10:29:07Z</time>
      </trkpt>
      <trkpt lat="43.296728" lon="-8.407577">
        <ele>279.5</ele>
        <time>2011-06-25T10:29:08Z</time>
      </trkpt>
      <trkpt lat="43.296537" lon="-8.407528">
        <ele>277.0</ele>
        <time>2011-06-25T10:29:11Z</time>
      </trkpt>
      <trkpt lat="43.296515" lon="-8.407510">
        <ele>277.0</ele>
        <time>2011-06-25T10:29:12Z</time>
      </trkpt>
      <trkpt lat="43.296497" lon="-8.407492">
        <ele>277.0</ele>
        <time>2011-06-25T10:29:13Z</time>
      </trkpt>
      <trkpt lat="43.296473" lon="-8.407475">
        <ele>277.5</ele>
        <time>2011-06-25T10:29:14Z</time>
      </trkpt>
      <trkpt lat="43.296455" lon="-8.407463">
        <ele>277.5</ele>
        <time>2011-06-25T10:29:15Z</time>
      </trkpt>
      <trkpt lat="43.296442" lon="-8.407450">
        <ele>277.5</ele>
        <time>2011-06-25T10:29:16Z</time>
      </trkpt>
      <trkpt lat="43.296462" lon="-8.407432">
        <ele>277.0</ele>
        <time>2011-06-25T10:29:17Z</time>
      </trkpt>
      <trkpt lat="43.296435" lon="-8.407420">
        <ele>276.5</ele>
        <time>2011-06-25T10:29:18Z</time>
      </trkpt>
      <trkpt lat="43.296412" lon="-8.407410">
        <ele>277.0</ele>
        <time>2011-06-25T10:29:19Z</time>
      </trkpt>
      <trkpt lat="43.296393" lon="-8.407400">
        <ele>277.5</ele>
        <time>2011-06-25T10:29:20Z</time>
      </trkpt>
      <trkpt lat="43.296367" lon="-8.407383">
        <ele>277.0</ele>
        <time>2011-06-25T10:29:21Z</time>
      </trkpt>
      <trkpt lat="43.296343" lon="-8.407372">
        <ele>277.5</ele>
        <time>2011-06-25T10:29:22Z</time>
      </trkpt>
      <trkpt lat="43.296318" lon="-8.407365">
        <ele>278.0</ele>
        <time>2011-06-25T10:29:23Z</time>
      </trkpt>
      <trkpt lat="43.296250" lon="-8.407340">
        <ele>276.5</ele>
        <time>2011-06-25T10:29:25Z</time>
      </trkpt>
      <trkpt lat="43.296240" lon="-8.407328">
        <ele>275.5</ele>
        <time>2011-06-25T10:29:26Z</time>
      </trkpt>
      <trkpt lat="43.296155" lon="-8.407310">
        <ele>274.0</ele>
        <time>2011-06-25T10:29:28Z</time>
      </trkpt>
      <trkpt lat="43.296107" lon="-8.407278">
        <ele>274.0</ele>
        <time>2011-06-25T10:29:30Z</time>
      </trkpt>
      <trkpt lat="43.296085" lon="-8.407260">
        <ele>274.0</ele>
        <time>2011-06-25T10:29:31Z</time>
      </trkpt>
      <trkpt lat="43.296060" lon="-8.407248">
        <ele>275.0</ele>
        <time>2011-06-25T10:29:32Z</time>
      </trkpt>
      <trkpt lat="43.295995" lon="-8.407218">
        <ele>274.5</ele>
        <time>2011-06-25T10:29:34Z</time>
      </trkpt>
      <trkpt lat="43.295933" lon="-8.407210">
        <ele>277.0</ele>
        <time>2011-06-25T10:29:36Z</time>
      </trkpt>
      <trkpt lat="43.295912" lon="-8.407197">
        <ele>277.0</ele>
        <time>2011-06-25T10:29:37Z</time>
      </trkpt>
      <trkpt lat="43.295883" lon="-8.407205">
        <ele>277.0</ele>
        <time>2011-06-25T10:29:38Z</time>
      </trkpt>
      <trkpt lat="43.295855" lon="-8.407198">
        <ele>276.5</ele>
        <time>2011-06-25T10:29:39Z</time>
      </trkpt>
      <trkpt lat="43.295830" lon="-8.407185">
        <ele>275.0</ele>
        <time>2011-06-25T10:29:40Z</time>
      </trkpt>
      <trkpt lat="43.295820" lon="-8.407175">
        <ele>273.0</ele>
        <time>2011-06-25T10:29:41Z</time>
      </trkpt>
      <trkpt lat="43.295797" lon="-8.407170">
        <ele>274.0</ele>
        <time>2011-06-25T10:29:42Z</time>
      </trkpt>
      <trkpt lat="43.295783" lon="-8.407147">
        <ele>272.0</ele>
        <time>2011-06-25T10:29:43Z</time>
      </trkpt>
      <trkpt lat="43.295773" lon="-8.407135">
        <ele>271.0</ele>
        <time>2011-06-25T10:29:44Z</time>
      </trkpt>
      <trkpt lat="43.295763" lon="-8.407132">
        <ele>271.0</ele>
        <time>2011-06-25T10:29:45Z</time>
      </trkpt>
      <trkpt lat="43.295750" lon="-8.407125">
        <ele>270.0</ele>
        <time>2011-06-25T10:29:46Z</time>
      </trkpt>
      <trkpt lat="43.295737" lon="-8.407117">
        <ele>269.5</ele>
        <time>2011-06-25T10:29:47Z</time>
      </trkpt>
      <trkpt lat="43.295720" lon="-8.407108">
        <ele>269.5</ele>
        <time>2011-06-25T10:29:48Z</time>
      </trkpt>
      <trkpt lat="43.295703" lon="-8.407102">
        <ele>269.5</ele>
        <time>2011-06-25T10:29:49Z</time>
      </trkpt>
      <trkpt lat="43.295692" lon="-8.407100">
        <ele>269.5</ele>
        <time>2011-06-25T10:29:50Z</time>
      </trkpt>
      <trkpt lat="43.295680" lon="-8.407100">
        <ele>269.0</ele>
        <time>2011-06-25T10:29:51Z</time>
      </trkpt>
      <trkpt lat="43.295670" lon="-8.407100">
        <ele>269.5</ele>
        <time>2011-06-25T10:29:52Z</time>
      </trkpt>
      <trkpt lat="43.295652" lon="-8.407092">
        <ele>269.5</ele>
        <time>2011-06-25T10:29:53Z</time>
      </trkpt>
      <trkpt lat="43.295642" lon="-8.407090">
        <ele>269.5</ele>
        <time>2011-06-25T10:29:54Z</time>
      </trkpt>
      <trkpt lat="43.295635" lon="-8.407080">
        <ele>269.5</ele>
        <time>2011-06-25T10:29:55Z</time>
      </trkpt>
      <trkpt lat="43.295625" lon="-8.407075">
        <ele>269.5</ele>
        <time>2011-06-25T10:29:56Z</time>
      </trkpt>
      <trkpt lat="43.295610" lon="-8.407062">
        <ele>269.5</ele>
        <time>2011-06-25T10:29:57Z</time>
      </trkpt>
      <trkpt lat="43.295600" lon="-8.407040">
        <ele>269.0</ele>
        <time>2011-06-25T10:29:58Z</time>
      </trkpt>
      <trkpt lat="43.295585" lon="-8.407017">
        <ele>268.5</ele>
        <time>2011-06-25T10:29:59Z</time>
      </trkpt>
      <trkpt lat="43.295573" lon="-8.406987">
        <ele>268.5</ele>
        <time>2011-06-25T10:30:00Z</time>
      </trkpt>
      <trkpt lat="43.295558" lon="-8.406962">
        <ele>268.5</ele>
        <time>2011-06-25T10:30:01Z</time>
      </trkpt>
      <trkpt lat="43.295547" lon="-8.406933">
        <ele>269.0</ele>
        <time>2011-06-25T10:30:02Z</time>
      </trkpt>
      <trkpt lat="43.295538" lon="-8.406905">
        <ele>269.5</ele>
        <time>2011-06-25T10:30:03Z</time>
      </trkpt>
      <trkpt lat="43.295527" lon="-8.406882">
        <ele>269.0</ele>
        <time>2011-06-25T10:30:04Z</time>
      </trkpt>
      <trkpt lat="43.295513" lon="-8.406857">
        <ele>268.5</ele>
        <time>2011-06-25T10:30:05Z</time>
      </trkpt>
      <trkpt lat="43.295498" lon="-8.406832">
        <ele>269.0</ele>
        <time>2011-06-25T10:30:06Z</time>
      </trkpt>
      <trkpt lat="43.295477" lon="-8.406815">
        <ele>269.5</ele>
        <time>2011-06-25T10:30:07Z</time>
      </trkpt>
      <trkpt lat="43.295458" lon="-8.406792">
        <ele>269.0</ele>
        <time>2011-06-25T10:30:08Z</time>
      </trkpt>
      <trkpt lat="43.295450" lon="-8.406772">
        <ele>269.0</ele>
        <time>2011-06-25T10:30:09Z</time>
      </trkpt>
      <trkpt lat="43.295437" lon="-8.406755">
        <ele>269.0</ele>
        <time>2011-06-25T10:30:10Z</time>
      </trkpt>
      <trkpt lat="43.295423" lon="-8.406737">
        <ele>268.5</ele>
        <time>2011-06-25T10:30:11Z</time>
      </trkpt>
      <trkpt lat="43.295412" lon="-8.406718">
        <ele>268.0</ele>
        <time>2011-06-25T10:30:12Z</time>
      </trkpt>
      <trkpt lat="43.295393" lon="-8.406707">
        <ele>268.5</ele>
        <time>2011-06-25T10:30:13Z</time>
      </trkpt>
      <trkpt lat="43.295372" lon="-8.406695">
        <ele>268.5</ele>
        <time>2011-06-25T10:30:14Z</time>
      </trkpt>
      <trkpt lat="43.295357" lon="-8.406682">
        <ele>268.5</ele>
        <time>2011-06-25T10:30:15Z</time>
      </trkpt>
      <trkpt lat="43.295342" lon="-8.406668">
        <ele>268.5</ele>
        <time>2011-06-25T10:30:16Z</time>
      </trkpt>
      <trkpt lat="43.295322" lon="-8.406658">
        <ele>269.0</ele>
        <time>2011-06-25T10:30:17Z</time>
      </trkpt>
      <trkpt lat="43.295307" lon="-8.406645">
        <ele>268.5</ele>
        <time>2011-06-25T10:30:18Z</time>
      </trkpt>
      <trkpt lat="43.295293" lon="-8.406635">
        <ele>269.0</ele>
        <time>2011-06-25T10:30:19Z</time>
      </trkpt>
      <trkpt lat="43.295273" lon="-8.406620">
        <ele>269.0</ele>
        <time>2011-06-25T10:30:20Z</time>
      </trkpt>
      <trkpt lat="43.295263" lon="-8.406600">
        <ele>268.5</ele>
        <time>2011-06-25T10:30:21Z</time>
      </trkpt>
      <trkpt lat="43.295247" lon="-8.406582">
        <ele>268.5</ele>
        <time>2011-06-25T10:30:22Z</time>
      </trkpt>
      <trkpt lat="43.295225" lon="-8.406562">
        <ele>268.5</ele>
        <time>2011-06-25T10:30:23Z</time>
      </trkpt>
      <trkpt lat="43.295202" lon="-8.406542">
        <ele>268.5</ele>
        <time>2011-06-25T10:30:24Z</time>
      </trkpt>
      <trkpt lat="43.295183" lon="-8.406522">
        <ele>268.5</ele>
        <time>2011-06-25T10:30:25Z</time>
      </trkpt>
      <trkpt lat="43.295165" lon="-8.406493">
        <ele>268.0</ele>
        <time>2011-06-25T10:30:26Z</time>
      </trkpt>
      <trkpt lat="43.295143" lon="-8.406465">
        <ele>267.5</ele>
        <time>2011-06-25T10:30:27Z</time>
      </trkpt>
      <trkpt lat="43.295117" lon="-8.406433">
        <ele>267.5</ele>
        <time>2011-06-25T10:30:28Z</time>
      </trkpt>
      <trkpt lat="43.295090" lon="-8.406403">
        <ele>267.5</ele>
        <time>2011-06-25T10:30:29Z</time>
      </trkpt>
      <trkpt lat="43.295068" lon="-8.406358">
        <ele>266.5</ele>
        <time>2011-06-25T10:30:30Z</time>
      </trkpt>
      <trkpt lat="43.295045" lon="-8.406312">
        <ele>265.5</ele>
        <time>2011-06-25T10:30:31Z</time>
      </trkpt>
      <trkpt lat="43.295017" lon="-8.406258">
        <ele>264.5</ele>
        <time>2011-06-25T10:30:32Z</time>
      </trkpt>
      <trkpt lat="43.294988" lon="-8.406202">
        <ele>264.0</ele>
        <time>2011-06-25T10:30:33Z</time>
      </trkpt>
      <trkpt lat="43.294957" lon="-8.406145">
        <ele>263.5</ele>
        <time>2011-06-25T10:30:34Z</time>
      </trkpt>
      <trkpt lat="43.294923" lon="-8.406088">
        <ele>263.0</ele>
        <time>2011-06-25T10:30:35Z</time>
      </trkpt>
      <trkpt lat="43.294895" lon="-8.406037">
        <ele>262.5</ele>
        <time>2011-06-25T10:30:36Z</time>
      </trkpt>
      <trkpt lat="43.294868" lon="-8.405998">
        <ele>263.0</ele>
        <time>2011-06-25T10:30:37Z</time>
      </trkpt>
      <trkpt lat="43.294847" lon="-8.405958">
        <ele>263.0</ele>
        <time>2011-06-25T10:30:38Z</time>
      </trkpt>
      <trkpt lat="43.294830" lon="-8.405922">
        <ele>263.0</ele>
        <time>2011-06-25T10:30:39Z</time>
      </trkpt>
      <trkpt lat="43.294802" lon="-8.405870">
        <ele>263.5</ele>
        <time>2011-06-25T10:30:41Z</time>
      </trkpt>
      <trkpt lat="43.294785" lon="-8.405857">
        <ele>264.0</ele>
        <time>2011-06-25T10:30:42Z</time>
      </trkpt>
      <trkpt lat="43.294772" lon="-8.405847">
        <ele>265.0</ele>
        <time>2011-06-25T10:30:43Z</time>
      </trkpt>
      <trkpt lat="43.294760" lon="-8.405838">
        <ele>265.0</ele>
        <time>2011-06-25T10:30:44Z</time>
      </trkpt>
      <trkpt lat="43.294750" lon="-8.405828">
        <ele>265.0</ele>
        <time>2011-06-25T10:30:45Z</time>
      </trkpt>
      <trkpt lat="43.294745" lon="-8.405825">
        <ele>265.0</ele>
        <time>2011-06-25T10:30:46Z</time>
      </trkpt>
      <trkpt lat="43.294738" lon="-8.405822">
        <ele>265.0</ele>
        <time>2011-06-25T10:30:47Z</time>
      </trkpt>
      <trkpt lat="43.294730" lon="-8.405820">
        <ele>265.0</ele>
        <time>2011-06-25T10:30:48Z</time>
      </trkpt>
      <trkpt lat="43.294725" lon="-8.405820">
        <ele>265.0</ele>
        <time>2011-06-25T10:30:49Z</time>
      </trkpt>
      <trkpt lat="43.294717" lon="-8.405820">
        <ele>265.5</ele>
        <time>2011-06-25T10:30:50Z</time>
      </trkpt>
      <trkpt lat="43.294707" lon="-8.405813">
        <ele>266.0</ele>
        <time>2011-06-25T10:30:51Z</time>
      </trkpt>
      <trkpt lat="43.294697" lon="-8.405808">
        <ele>266.0</ele>
        <time>2011-06-25T10:30:52Z</time>
      </trkpt>
      <trkpt lat="43.294688" lon="-8.405790">
        <ele>265.5</ele>
        <time>2011-06-25T10:30:53Z</time>
      </trkpt>
      <trkpt lat="43.294678" lon="-8.405773">
        <ele>265.5</ele>
        <time>2011-06-25T10:30:54Z</time>
      </trkpt>
      <trkpt lat="43.294670" lon="-8.405755">
        <ele>265.0</ele>
        <time>2011-06-25T10:30:55Z</time>
      </trkpt>
      <trkpt lat="43.294652" lon="-8.405745">
        <ele>265.5</ele>
        <time>2011-06-25T10:30:56Z</time>
      </trkpt>
      <trkpt lat="43.294632" lon="-8.405738">
        <ele>265.5</ele>
        <time>2011-06-25T10:30:57Z</time>
      </trkpt>
      <trkpt lat="43.294613" lon="-8.405733">
        <ele>265.5</ele>
        <time>2011-06-25T10:30:58Z</time>
      </trkpt>
      <trkpt lat="43.294600" lon="-8.405730">
        <ele>266.0</ele>
        <time>2011-06-25T10:30:59Z</time>
      </trkpt>
      <trkpt lat="43.294588" lon="-8.405723">
        <ele>265.5</ele>
        <time>2011-06-25T10:31:00Z</time>
      </trkpt>
      <trkpt lat="43.294578" lon="-8.405710">
        <ele>265.5</ele>
        <time>2011-06-25T10:31:01Z</time>
      </trkpt>
      <trkpt lat="43.294567" lon="-8.405703">
        <ele>265.0</ele>
        <time>2011-06-25T10:31:02Z</time>
      </trkpt>
      <trkpt lat="43.294558" lon="-8.405697">
        <ele>265.0</ele>
        <time>2011-06-25T10:31:03Z</time>
      </trkpt>
      <trkpt lat="43.294548" lon="-8.405693">
        <ele>264.5</ele>
        <time>2011-06-25T10:31:04Z</time>
      </trkpt>
      <trkpt lat="43.294532" lon="-8.405690">
        <ele>263.5</ele>
        <time>2011-06-25T10:31:05Z</time>
      </trkpt>
      <trkpt lat="43.294517" lon="-8.405683">
        <ele>263.0</ele>
        <time>2011-06-25T10:31:06Z</time>
      </trkpt>
      <trkpt lat="43.294508" lon="-8.405672">
        <ele>263.0</ele>
        <time>2011-06-25T10:31:07Z</time>
      </trkpt>
      <trkpt lat="43.294502" lon="-8.405652">
        <ele>262.5</ele>
        <time>2011-06-25T10:31:08Z</time>
      </trkpt>
      <trkpt lat="43.294492" lon="-8.405633">
        <ele>262.5</ele>
        <time>2011-06-25T10:31:09Z</time>
      </trkpt>
      <trkpt lat="43.294477" lon="-8.405613">
        <ele>262.0</ele>
        <time>2011-06-25T10:31:10Z</time>
      </trkpt>
      <trkpt lat="43.294463" lon="-8.405593">
        <ele>261.5</ele>
        <time>2011-06-25T10:31:11Z</time>
      </trkpt>
      <trkpt lat="43.294448" lon="-8.405575">
        <ele>261.5</ele>
        <time>2011-06-25T10:31:12Z</time>
      </trkpt>
      <trkpt lat="43.294428" lon="-8.405562">
        <ele>262.5</ele>
        <time>2011-06-25T10:31:13Z</time>
      </trkpt>
      <trkpt lat="43.294405" lon="-8.405525">
        <ele>261.0</ele>
        <time>2011-06-25T10:31:14Z</time>
      </trkpt>
      <trkpt lat="43.294377" lon="-8.405488">
        <ele>261.0</ele>
        <time>2011-06-25T10:31:15Z</time>
      </trkpt>
      <trkpt lat="43.294348" lon="-8.405455">
        <ele>262.0</ele>
        <time>2011-06-25T10:31:16Z</time>
      </trkpt>
      <trkpt lat="43.294317" lon="-8.405423">
        <ele>262.0</ele>
        <time>2011-06-25T10:31:17Z</time>
      </trkpt>
      <trkpt lat="43.294278" lon="-8.405387">
        <ele>261.0</ele>
        <time>2011-06-25T10:31:18Z</time>
      </trkpt>
      <trkpt lat="43.294228" lon="-8.405340">
        <ele>260.0</ele>
        <time>2011-06-25T10:31:19Z</time>
      </trkpt>
      <trkpt lat="43.294188" lon="-8.405298">
        <ele>259.5</ele>
        <time>2011-06-25T10:31:20Z</time>
      </trkpt>
      <trkpt lat="43.294155" lon="-8.405260">
        <ele>259.5</ele>
        <time>2011-06-25T10:31:21Z</time>
      </trkpt>
      <trkpt lat="43.294128" lon="-8.405243">
        <ele>258.0</ele>
        <time>2011-06-25T10:31:22Z</time>
      </trkpt>
      <trkpt lat="43.294088" lon="-8.405238">
        <ele>258.0</ele>
        <time>2011-06-25T10:31:23Z</time>
      </trkpt>
      <trkpt lat="43.294038" lon="-8.405220">
        <ele>255.5</ele>
        <time>2011-06-25T10:31:24Z</time>
      </trkpt>
      <trkpt lat="43.293990" lon="-8.405182">
        <ele>257.0</ele>
        <time>2011-06-25T10:31:25Z</time>
      </trkpt>
      <trkpt lat="43.293975" lon="-8.405118">
        <ele>255.5</ele>
        <time>2011-06-25T10:31:26Z</time>
      </trkpt>
      <trkpt lat="43.293978" lon="-8.405057">
        <ele>254.0</ele>
        <time>2011-06-25T10:31:28Z</time>
      </trkpt>
      <trkpt lat="43.293983" lon="-8.405022">
        <ele>253.5</ele>
        <time>2011-06-25T10:31:29Z</time>
      </trkpt>
      <trkpt lat="43.293982" lon="-8.404995">
        <ele>253.5</ele>
        <time>2011-06-25T10:31:30Z</time>
      </trkpt>
      <trkpt lat="43.293983" lon="-8.404963">
        <ele>252.5</ele>
        <time>2011-06-25T10:31:31Z</time>
      </trkpt>
      <trkpt lat="43.293990" lon="-8.404932">
        <ele>252.0</ele>
        <time>2011-06-25T10:31:32Z</time>
      </trkpt>
      <trkpt lat="43.293993" lon="-8.404893">
        <ele>250.5</ele>
        <time>2011-06-25T10:31:33Z</time>
      </trkpt>
      <trkpt lat="43.293993" lon="-8.404870">
        <ele>249.5</ele>
        <time>2011-06-25T10:31:34Z</time>
      </trkpt>
      <trkpt lat="43.293995" lon="-8.404865">
        <ele>249.0</ele>
        <time>2011-06-25T10:31:35Z</time>
      </trkpt>
      <trkpt lat="43.293988" lon="-8.404853">
        <ele>249.0</ele>
        <time>2011-06-25T10:31:36Z</time>
      </trkpt>
      <trkpt lat="43.293975" lon="-8.404822">
        <ele>249.0</ele>
        <time>2011-06-25T10:31:37Z</time>
      </trkpt>
      <trkpt lat="43.293958" lon="-8.404793">
        <ele>248.5</ele>
        <time>2011-06-25T10:31:38Z</time>
      </trkpt>
      <trkpt lat="43.293937" lon="-8.404753">
        <ele>248.0</ele>
        <time>2011-06-25T10:31:39Z</time>
      </trkpt>
      <trkpt lat="43.293902" lon="-8.404710">
        <ele>248.5</ele>
        <time>2011-06-25T10:31:40Z</time>
      </trkpt>
      <trkpt lat="43.293862" lon="-8.404657">
        <ele>248.0</ele>
        <time>2011-06-25T10:31:41Z</time>
      </trkpt>
      <trkpt lat="43.293822" lon="-8.404602">
        <ele>247.0</ele>
        <time>2011-06-25T10:31:42Z</time>
      </trkpt>
      <trkpt lat="43.293778" lon="-8.404555">
        <ele>247.0</ele>
        <time>2011-06-25T10:31:43Z</time>
      </trkpt>
      <trkpt lat="43.293748" lon="-8.404530">
        <ele>246.0</ele>
        <time>2011-06-25T10:31:45Z</time>
      </trkpt>
      <trkpt lat="43.293740" lon="-8.404517">
        <ele>245.5</ele>
        <time>2011-06-25T10:31:46Z</time>
      </trkpt>
      <trkpt lat="43.293733" lon="-8.404500">
        <ele>245.5</ele>
        <time>2011-06-25T10:31:47Z</time>
      </trkpt>
      <trkpt lat="43.293733" lon="-8.404495">
        <ele>245.5</ele>
        <time>2011-06-25T10:31:48Z</time>
      </trkpt>
      <trkpt lat="43.293733" lon="-8.404493">
        <ele>245.5</ele>
        <time>2011-06-25T10:31:49Z</time>
      </trkpt>
      <trkpt lat="43.293733" lon="-8.404492">
        <ele>245.5</ele>
        <time>2011-06-25T10:31:50Z</time>
      </trkpt>
      <trkpt lat="43.293732" lon="-8.404492">
        <ele>245.5</ele>
        <time>2011-06-25T10:31:51Z</time>
      </trkpt>
      <trkpt lat="43.293732" lon="-8.404490">
        <ele>245.5</ele>
        <time>2011-06-25T10:31:52Z</time>
      </trkpt>
      <trkpt lat="43.293732" lon="-8.404490">
        <ele>245.0</ele>
        <time>2011-06-25T10:31:53Z</time>
      </trkpt>
      <trkpt lat="43.293732" lon="-8.404490">
        <ele>245.0</ele>
        <time>2011-06-25T10:31:54Z</time>
      </trkpt>
      <trkpt lat="43.293733" lon="-8.404488">
        <ele>244.5</ele>
        <time>2011-06-25T10:31:55Z</time>
      </trkpt>
      <trkpt lat="43.293733" lon="-8.404488">
        <ele>244.5</ele>
        <time>2011-06-25T10:31:56Z</time>
      </trkpt>
      <trkpt lat="43.293732" lon="-8.404477">
        <ele>244.5</ele>
        <time>2011-06-25T10:31:57Z</time>
      </trkpt>
      <trkpt lat="43.293728" lon="-8.404462">
        <ele>244.5</ele>
        <time>2011-06-25T10:31:58Z</time>
      </trkpt>
      <trkpt lat="43.293727" lon="-8.404453">
        <ele>244.5</ele>
        <time>2011-06-25T10:31:59Z</time>
      </trkpt>
      <trkpt lat="43.293723" lon="-8.404447">
        <ele>244.0</ele>
        <time>2011-06-25T10:32:00Z</time>
      </trkpt>
      <trkpt lat="43.293723" lon="-8.404448">
        <ele>244.0</ele>
        <time>2011-06-25T10:32:01Z</time>
      </trkpt>
      <trkpt lat="43.293725" lon="-8.404447">
        <ele>243.5</ele>
        <time>2011-06-25T10:32:02Z</time>
      </trkpt>
      <trkpt lat="43.293725" lon="-8.404445">
        <ele>243.5</ele>
        <time>2011-06-25T10:32:03Z</time>
      </trkpt>
      <trkpt lat="43.293725" lon="-8.404443">
        <ele>243.0</ele>
        <time>2011-06-25T10:32:04Z</time>
      </trkpt>
      <trkpt lat="43.293727" lon="-8.404440">
        <ele>243.0</ele>
        <time>2011-06-25T10:32:05Z</time>
      </trkpt>
      <trkpt lat="43.293727" lon="-8.404437">
        <ele>242.5</ele>
        <time>2011-06-25T10:32:06Z</time>
      </trkpt>
      <trkpt lat="43.293728" lon="-8.404435">
        <ele>242.5</ele>
        <time>2011-06-25T10:32:07Z</time>
      </trkpt>
      <trkpt lat="43.293730" lon="-8.404433">
        <ele>242.0</ele>
        <time>2011-06-25T10:32:08Z</time>
      </trkpt>
      <trkpt lat="43.293730" lon="-8.404432">
        <ele>242.0</ele>
        <time>2011-06-25T10:32:09Z</time>
      </trkpt>
      <trkpt lat="43.293732" lon="-8.404432">
        <ele>242.0</ele>
        <time>2011-06-25T10:32:10Z</time>
      </trkpt>
      <trkpt lat="43.293732" lon="-8.404430">
        <ele>241.5</ele>
        <time>2011-06-25T10:32:11Z</time>
      </trkpt>
      <trkpt lat="43.293733" lon="-8.404428">
        <ele>241.5</ele>
        <time>2011-06-25T10:32:12Z</time>
      </trkpt>
      <trkpt lat="43.293735" lon="-8.404427">
        <ele>241.0</ele>
        <time>2011-06-25T10:32:13Z</time>
      </trkpt>
      <trkpt lat="43.293737" lon="-8.404425">
        <ele>240.5</ele>
        <time>2011-06-25T10:32:14Z</time>
      </trkpt>
      <trkpt lat="43.293738" lon="-8.404423">
        <ele>240.0</ele>
        <time>2011-06-25T10:32:15Z</time>
      </trkpt>
      <trkpt lat="43.293738" lon="-8.404422">
        <ele>240.0</ele>
        <time>2011-06-25T10:32:16Z</time>
      </trkpt>
      <trkpt lat="43.293740" lon="-8.404422">
        <ele>239.5</ele>
        <time>2011-06-25T10:32:17Z</time>
      </trkpt>
      <trkpt lat="43.293740" lon="-8.404420">
        <ele>239.5</ele>
        <time>2011-06-25T10:32:18Z</time>
      </trkpt>
      <trkpt lat="43.293742" lon="-8.404420">
        <ele>239.5</ele>
        <time>2011-06-25T10:32:19Z</time>
      </trkpt>
      <trkpt lat="43.293742" lon="-8.404418">
        <ele>239.5</ele>
        <time>2011-06-25T10:32:20Z</time>
      </trkpt>
      <trkpt lat="43.293743" lon="-8.404418">
        <ele>239.0</ele>
        <time>2011-06-25T10:32:21Z</time>
      </trkpt>
      <trkpt lat="43.293743" lon="-8.404418">
        <ele>239.0</ele>
        <time>2011-06-25T10:32:22Z</time>
      </trkpt>
      <trkpt lat="43.293743" lon="-8.404418">
        <ele>239.0</ele>
        <time>2011-06-25T10:32:23Z</time>
      </trkpt>
      <trkpt lat="43.293743" lon="-8.404417">
        <ele>239.0</ele>
        <time>2011-06-25T10:32:24Z</time>
      </trkpt>
      <trkpt lat="43.293743" lon="-8.404417">
        <ele>239.0</ele>
        <time>2011-06-25T10:32:25Z</time>
      </trkpt>
      <trkpt lat="43.293743" lon="-8.404417">
        <ele>239.0</ele>
        <time>2011-06-25T10:32:26Z</time>
      </trkpt>
      <trkpt lat="43.293743" lon="-8.404417">
        <ele>239.0</ele>
        <time>2011-06-25T10:32:27Z</time>
      </trkpt>
      <trkpt lat="43.293743" lon="-8.404417">
        <ele>239.0</ele>
        <time>2011-06-25T10:32:28Z</time>
      </trkpt>
      <trkpt lat="43.293745" lon="-8.404417">
        <ele>238.5</ele>
        <time>2011-06-25T10:32:29Z</time>
      </trkpt>
      <trkpt lat="43.293745" lon="-8.404417">
        <ele>238.5</ele>
        <time>2011-06-25T10:32:30Z</time>
      </trkpt>
      <trkpt lat="43.293745" lon="-8.404417">
        <ele>238.5</ele>
        <time>2011-06-25T10:32:31Z</time>
      </trkpt>
      <trkpt lat="43.293745" lon="-8.404417">
        <ele>238.5</ele>
        <time>2011-06-25T10:32:32Z</time>
      </trkpt>
      <trkpt lat="43.293745" lon="-8.404417">
        <ele>238.5</ele>
        <time>2011-06-25T10:32:33Z</time>
      </trkpt>
      <trkpt lat="43.293745" lon="-8.404417">
        <ele>238.5</ele>
        <time>2011-06-25T10:32:34Z</time>
      </trkpt>
      <trkpt lat="43.293745" lon="-8.404415">
        <ele>238.5</ele>
        <time>2011-06-25T10:32:35Z</time>
      </trkpt>
      <trkpt lat="43.293745" lon="-8.404415">
        <ele>238.5</ele>
        <time>2011-06-25T10:32:36Z</time>
      </trkpt>
      <trkpt lat="43.293745" lon="-8.404415">
        <ele>238.0</ele>
        <time>2011-06-25T10:32:37Z</time>
      </trkpt>
      <trkpt lat="43.293745" lon="-8.404415">
        <ele>238.0</ele>
        <time>2011-06-25T10:32:38Z</time>
      </trkpt>
      <trkpt lat="43.293745" lon="-8.404415">
        <ele>238.0</ele>
        <time>2011-06-25T10:32:39Z</time>
      </trkpt>
      <trkpt lat="43.293745" lon="-8.404415">
        <ele>238.0</ele>
        <time>2011-06-25T10:32:40Z</time>
      </trkpt>
      <trkpt lat="43.293747" lon="-8.404413">
        <ele>238.0</ele>
        <time>2011-06-25T10:32:41Z</time>
      </trkpt>
      <trkpt lat="43.293747" lon="-8.404413">
        <ele>238.0</ele>
        <time>2011-06-25T10:32:42Z</time>
      </trkpt>
      <trkpt lat="43.293747" lon="-8.404413">
        <ele>237.5</ele>
        <time>2011-06-25T10:32:43Z</time>
      </trkpt>
      <trkpt lat="43.293747" lon="-8.404413">
        <ele>237.5</ele>
        <time>2011-06-25T10:32:44Z</time>
      </trkpt>
      <trkpt lat="43.293747" lon="-8.404413">
        <ele>237.5</ele>
        <time>2011-06-25T10:32:45Z</time>
      </trkpt>
      <trkpt lat="43.293747" lon="-8.404413">
        <ele>237.5</ele>
        <time>2011-06-25T10:32:46Z</time>
      </trkpt>
      <trkpt lat="43.293747" lon="-8.404413">
        <ele>237.5</ele>
        <time>2011-06-25T10:32:47Z</time>
      </trkpt>
      <trkpt lat="43.293748" lon="-8.404413">
        <ele>237.5</ele>
        <time>2011-06-25T10:32:48Z</time>
      </trkpt>
      <trkpt lat="43.293748" lon="-8.404412">
        <ele>237.5</ele>
        <time>2011-06-25T10:32:49Z</time>
      </trkpt>
      <trkpt lat="43.293748" lon="-8.404412">
        <ele>237.5</ele>
        <time>2011-06-25T10:32:50Z</time>
      </trkpt>
      <trkpt lat="43.293748" lon="-8.404412">
        <ele>237.5</ele>
        <time>2011-06-25T10:32:51Z</time>
      </trkpt>
      <trkpt lat="43.293748" lon="-8.404412">
        <ele>237.5</ele>
        <time>2011-06-25T10:32:52Z</time>
      </trkpt>
      <trkpt lat="43.293748" lon="-8.404410">
        <ele>237.5</ele>
        <time>2011-06-25T10:32:53Z</time>
      </trkpt>
      <trkpt lat="43.293748" lon="-8.404410">
        <ele>237.5</ele>
        <time>2011-06-25T10:32:54Z</time>
      </trkpt>
      <trkpt lat="43.293748" lon="-8.404410">
        <ele>237.5</ele>
        <time>2011-06-25T10:32:55Z</time>
      </trkpt>
      <trkpt lat="43.293750" lon="-8.404410">
        <ele>237.5</ele>
        <time>2011-06-25T10:32:56Z</time>
      </trkpt>
      <trkpt lat="43.293750" lon="-8.404410">
        <ele>237.5</ele>
        <time>2011-06-25T10:32:57Z</time>
      </trkpt>
      <trkpt lat="43.293750" lon="-8.404410">
        <ele>237.5</ele>
        <time>2011-06-25T10:32:58Z</time>
      </trkpt>
      <trkpt lat="43.293750" lon="-8.404410">
        <ele>237.5</ele>
        <time>2011-06-25T10:32:59Z</time>
      </trkpt>
      <trkpt lat="43.293750" lon="-8.404408">
        <ele>237.5</ele>
        <time>2011-06-25T10:33:00Z</time>
      </trkpt>
      <trkpt lat="43.293750" lon="-8.404408">
        <ele>237.5</ele>
        <time>2011-06-25T10:33:01Z</time>
      </trkpt>
      <trkpt lat="43.293750" lon="-8.404408">
        <ele>237.5</ele>
        <time>2011-06-25T10:33:02Z</time>
      </trkpt>
      <trkpt lat="43.293750" lon="-8.404408">
        <ele>237.0</ele>
        <time>2011-06-25T10:33:03Z</time>
      </trkpt>
      <trkpt lat="43.293750" lon="-8.404408">
        <ele>237.0</ele>
        <time>2011-06-25T10:33:04Z</time>
      </trkpt>
      <trkpt lat="43.293750" lon="-8.404408">
        <ele>237.0</ele>
        <time>2011-06-25T10:33:05Z</time>
      </trkpt>
      <trkpt lat="43.293750" lon="-8.404408">
        <ele>237.0</ele>
        <time>2011-06-25T10:33:06Z</time>
      </trkpt>
      <trkpt lat="43.293750" lon="-8.404408">
        <ele>237.0</ele>
        <time>2011-06-25T10:33:07Z</time>
      </trkpt>
      <trkpt lat="43.293750" lon="-8.404408">
        <ele>237.0</ele>
        <time>2011-06-25T10:33:08Z</time>
      </trkpt>
      <trkpt lat="43.293750" lon="-8.404408">
        <ele>237.0</ele>
        <time>2011-06-25T10:33:09Z</time>
      </trkpt>
      <trkpt lat="43.293750" lon="-8.404408">
        <ele>237.0</ele>
        <time>2011-06-25T10:33:10Z</time>
      </trkpt>
      <trkpt lat="43.293750" lon="-8.404408">
        <ele>237.0</ele>
        <time>2011-06-25T10:33:11Z</time>
      </trkpt>
      <trkpt lat="43.293750" lon="-8.404408">
        <ele>237.0</ele>
        <time>2011-06-25T10:33:12Z</time>
      </trkpt>
      <trkpt lat="43.293750" lon="-8.404408">
        <ele>237.0</ele>
        <time>2011-06-25T10:33:13Z</time>
      </trkpt>
      <trkpt lat="43.293752" lon="-8.404408">
        <ele>236.5</ele>
        <time>2011-06-25T10:33:14Z</time>
      </trkpt>
      <trkpt lat="43.293752" lon="-8.404408">
        <ele>236.5</ele>
        <time>2011-06-25T10:33:15Z</time>
      </trkpt>
      <trkpt lat="43.293750" lon="-8.404407">
        <ele>236.5</ele>
        <time>2011-06-25T10:33:16Z</time>
      </trkpt>
      <trkpt lat="43.293750" lon="-8.404407">
        <ele>236.5</ele>
        <time>2011-06-25T10:33:17Z</time>
      </trkpt>
      <trkpt lat="43.293750" lon="-8.404407">
        <ele>236.5</ele>
        <time>2011-06-25T10:33:18Z</time>
      </trkpt>
      <trkpt lat="43.293750" lon="-8.404405">
        <ele>236.5</ele>
        <time>2011-06-25T10:33:19Z</time>
      </trkpt>
      <trkpt lat="43.293750" lon="-8.404405">
        <ele>236.5</ele>
        <time>2011-06-25T10:33:20Z</time>
      </trkpt>
      <trkpt lat="43.293750" lon="-8.404405">
        <ele>236.5</ele>
        <time>2011-06-25T10:33:21Z</time>
      </trkpt>
      <trkpt lat="43.293750" lon="-8.404403">
        <ele>236.5</ele>
        <time>2011-06-25T10:33:22Z</time>
      </trkpt>
      <trkpt lat="43.293750" lon="-8.404403">
        <ele>236.5</ele>
        <time>2011-06-25T10:33:23Z</time>
      </trkpt>
      <trkpt lat="43.293750" lon="-8.404402">
        <ele>236.5</ele>
        <time>2011-06-25T10:33:24Z</time>
      </trkpt>
      <trkpt lat="43.293750" lon="-8.404402">
        <ele>236.5</ele>
        <time>2011-06-25T10:33:25Z</time>
      </trkpt>
      <trkpt lat="43.293750" lon="-8.404402">
        <ele>236.5</ele>
        <time>2011-06-25T10:33:26Z</time>
      </trkpt>
      <trkpt lat="43.293750" lon="-8.404400">
        <ele>236.5</ele>
        <time>2011-06-25T10:33:27Z</time>
      </trkpt>
      <trkpt lat="43.293750" lon="-8.404400">
        <ele>236.5</ele>
        <time>2011-06-25T10:33:28Z</time>
      </trkpt>
      <trkpt lat="43.293750" lon="-8.404400">
        <ele>236.5</ele>
        <time>2011-06-25T10:33:29Z</time>
      </trkpt>
      <trkpt lat="43.293750" lon="-8.404398">
        <ele>236.5</ele>
        <time>2011-06-25T10:33:30Z</time>
      </trkpt>
      <trkpt lat="43.293750" lon="-8.404398">
        <ele>236.5</ele>
        <time>2011-06-25T10:33:31Z</time>
      </trkpt>
      <trkpt lat="43.293750" lon="-8.404398">
        <ele>236.5</ele>
        <time>2011-06-25T10:33:32Z</time>
      </trkpt>
      <trkpt lat="43.293750" lon="-8.404398">
        <ele>236.5</ele>
        <time>2011-06-25T10:33:33Z</time>
      </trkpt>
      <trkpt lat="43.293750" lon="-8.404398">
        <ele>236.5</ele>
        <time>2011-06-25T10:33:34Z</time>
      </trkpt>
      <trkpt lat="43.293750" lon="-8.404398">
        <ele>236.5</ele>
        <time>2011-06-25T10:33:35Z</time>
      </trkpt>
      <trkpt lat="43.293750" lon="-8.404398">
        <ele>236.0</ele>
        <time>2011-06-25T10:33:36Z</time>
      </trkpt>
      <trkpt lat="43.293750" lon="-8.404398">
        <ele>236.0</ele>
        <time>2011-06-25T10:33:37Z</time>
      </trkpt>
      <trkpt lat="43.293750" lon="-8.404398">
        <ele>236.0</ele>
        <time>2011-06-25T10:33:38Z</time>
      </trkpt>
      <trkpt lat="43.293750" lon="-8.404397">
        <ele>236.5</ele>
        <time>2011-06-25T10:33:39Z</time>
      </trkpt>
      <trkpt lat="43.293750" lon="-8.404397">
        <ele>236.0</ele>
        <time>2011-06-25T10:33:40Z</time>
      </trkpt>
      <trkpt lat="43.293750" lon="-8.404397">
        <ele>236.0</ele>
        <time>2011-06-25T10:33:41Z</time>
      </trkpt>
      <trkpt lat="43.293750" lon="-8.404397">
        <ele>236.0</ele>
        <time>2011-06-25T10:33:42Z</time>
      </trkpt>
      <trkpt lat="43.293750" lon="-8.404397">
        <ele>236.0</ele>
        <time>2011-06-25T10:33:43Z</time>
      </trkpt>
      <trkpt lat="43.293743" lon="-8.404388">
        <ele>237.0</ele>
        <time>2011-06-25T10:33:44Z</time>
      </trkpt>
      <trkpt lat="43.293728" lon="-8.404372">
        <ele>238.5</ele>
        <time>2011-06-25T10:33:45Z</time>
      </trkpt>
      <trkpt lat="43.293712" lon="-8.404347">
        <ele>239.0</ele>
        <time>2011-06-25T10:33:46Z</time>
      </trkpt>
      <trkpt lat="43.293690" lon="-8.404323">
        <ele>240.0</ele>
        <time>2011-06-25T10:33:47Z</time>
      </trkpt>
      <trkpt lat="43.293675" lon="-8.404300">
        <ele>240.5</ele>
        <time>2011-06-25T10:33:48Z</time>
      </trkpt>
      <trkpt lat="43.293658" lon="-8.404280">
        <ele>240.5</ele>
        <time>2011-06-25T10:33:49Z</time>
      </trkpt>
      <trkpt lat="43.293640" lon="-8.404257">
        <ele>240.0</ele>
        <time>2011-06-25T10:33:50Z</time>
      </trkpt>
      <trkpt lat="43.293617" lon="-8.404230">
        <ele>240.0</ele>
        <time>2011-06-25T10:33:51Z</time>
      </trkpt>
      <trkpt lat="43.293590" lon="-8.404212">
        <ele>239.5</ele>
        <time>2011-06-25T10:33:52Z</time>
      </trkpt>
      <trkpt lat="43.293557" lon="-8.404208">
        <ele>239.5</ele>
        <time>2011-06-25T10:33:53Z</time>
      </trkpt>
      <trkpt lat="43.293527" lon="-8.404218">
        <ele>240.0</ele>
        <time>2011-06-25T10:33:54Z</time>
      </trkpt>
      <trkpt lat="43.293502" lon="-8.404242">
        <ele>240.0</ele>
        <time>2011-06-25T10:33:55Z</time>
      </trkpt>
      <trkpt lat="43.293480" lon="-8.404265">
        <ele>240.5</ele>
        <time>2011-06-25T10:33:56Z</time>
      </trkpt>
      <trkpt lat="43.293458" lon="-8.404287">
        <ele>240.0</ele>
        <time>2011-06-25T10:33:57Z</time>
      </trkpt>
      <trkpt lat="43.293442" lon="-8.404303">
        <ele>241.5</ele>
        <time>2011-06-25T10:33:58Z</time>
      </trkpt>
      <trkpt lat="43.293425" lon="-8.404317">
        <ele>242.5</ele>
        <time>2011-06-25T10:33:59Z</time>
      </trkpt>
      <trkpt lat="43.293407" lon="-8.404328">
        <ele>243.5</ele>
        <time>2011-06-25T10:34:00Z</time>
      </trkpt>
      <trkpt lat="43.293388" lon="-8.404343">
        <ele>243.5</ele>
        <time>2011-06-25T10:34:01Z</time>
      </trkpt>
      <trkpt lat="43.293372" lon="-8.404353">
        <ele>244.0</ele>
        <time>2011-06-25T10:34:02Z</time>
      </trkpt>
      <trkpt lat="43.293348" lon="-8.404365">
        <ele>245.0</ele>
        <time>2011-06-25T10:34:03Z</time>
      </trkpt>
      <trkpt lat="43.293325" lon="-8.404378">
        <ele>245.0</ele>
        <time>2011-06-25T10:34:04Z</time>
      </trkpt>
      <trkpt lat="43.293297" lon="-8.404400">
        <ele>244.5</ele>
        <time>2011-06-25T10:34:05Z</time>
      </trkpt>
      <trkpt lat="43.293275" lon="-8.404423">
        <ele>244.5</ele>
        <time>2011-06-25T10:34:06Z</time>
      </trkpt>
      <trkpt lat="43.293262" lon="-8.404443">
        <ele>246.0</ele>
        <time>2011-06-25T10:34:07Z</time>
      </trkpt>
      <trkpt lat="43.293248" lon="-8.404468">
        <ele>245.5</ele>
        <time>2011-06-25T10:34:08Z</time>
      </trkpt>
      <trkpt lat="43.293230" lon="-8.404482">
        <ele>245.0</ele>
        <time>2011-06-25T10:34:09Z</time>
      </trkpt>
      <trkpt lat="43.293210" lon="-8.404493">
        <ele>244.5</ele>
        <time>2011-06-25T10:34:10Z</time>
      </trkpt>
      <trkpt lat="43.293192" lon="-8.404502">
        <ele>244.5</ele>
        <time>2011-06-25T10:34:11Z</time>
      </trkpt>
      <trkpt lat="43.293165" lon="-8.404515">
        <ele>244.5</ele>
        <time>2011-06-25T10:34:12Z</time>
      </trkpt>
      <trkpt lat="43.293135" lon="-8.404525">
        <ele>244.0</ele>
        <time>2011-06-25T10:34:13Z</time>
      </trkpt>
      <trkpt lat="43.293098" lon="-8.404537">
        <ele>243.0</ele>
        <time>2011-06-25T10:34:14Z</time>
      </trkpt>
      <trkpt lat="43.293057" lon="-8.404547">
        <ele>241.5</ele>
        <time>2011-06-25T10:34:15Z</time>
      </trkpt>
      <trkpt lat="43.293013" lon="-8.404552">
        <ele>240.0</ele>
        <time>2011-06-25T10:34:16Z</time>
      </trkpt>
      <trkpt lat="43.292965" lon="-8.404552">
        <ele>238.5</ele>
        <time>2011-06-25T10:34:17Z</time>
      </trkpt>
      <trkpt lat="43.292913" lon="-8.404553">
        <ele>237.0</ele>
        <time>2011-06-25T10:34:18Z</time>
      </trkpt>
      <trkpt lat="43.292865" lon="-8.404558">
        <ele>236.0</ele>
        <time>2011-06-25T10:34:19Z</time>
      </trkpt>
      <trkpt lat="43.292822" lon="-8.404567">
        <ele>235.5</ele>
        <time>2011-06-25T10:34:20Z</time>
      </trkpt>
      <trkpt lat="43.292783" lon="-8.404570">
        <ele>235.0</ele>
        <time>2011-06-25T10:34:21Z</time>
      </trkpt>
      <trkpt lat="43.292752" lon="-8.404565">
        <ele>235.0</ele>
        <time>2011-06-25T10:34:22Z</time>
      </trkpt>
      <trkpt lat="43.292722" lon="-8.404562">
        <ele>234.5</ele>
        <time>2011-06-25T10:34:23Z</time>
      </trkpt>
      <trkpt lat="43.292693" lon="-8.404560">
        <ele>234.5</ele>
        <time>2011-06-25T10:34:24Z</time>
      </trkpt>
      <trkpt lat="43.292667" lon="-8.404562">
        <ele>234.0</ele>
        <time>2011-06-25T10:34:25Z</time>
      </trkpt>
      <trkpt lat="43.292643" lon="-8.404562">
        <ele>234.0</ele>
        <time>2011-06-25T10:34:26Z</time>
      </trkpt>
      <trkpt lat="43.292620" lon="-8.404560">
        <ele>233.5</ele>
        <time>2011-06-25T10:34:27Z</time>
      </trkpt>
      <trkpt lat="43.292600" lon="-8.404558">
        <ele>233.0</ele>
        <time>2011-06-25T10:34:28Z</time>
      </trkpt>
      <trkpt lat="43.292580" lon="-8.404560">
        <ele>233.0</ele>
        <time>2011-06-25T10:34:29Z</time>
      </trkpt>
      <trkpt lat="43.292563" lon="-8.404562">
        <ele>233.0</ele>
        <time>2011-06-25T10:34:30Z</time>
      </trkpt>
      <trkpt lat="43.292548" lon="-8.404562">
        <ele>233.0</ele>
        <time>2011-06-25T10:34:31Z</time>
      </trkpt>
      <trkpt lat="43.292535" lon="-8.404562">
        <ele>232.5</ele>
        <time>2011-06-25T10:34:32Z</time>
      </trkpt>
      <trkpt lat="43.292522" lon="-8.404562">
        <ele>232.0</ele>
        <time>2011-06-25T10:34:33Z</time>
      </trkpt>
      <trkpt lat="43.292508" lon="-8.404565">
        <ele>232.0</ele>
        <time>2011-06-25T10:34:34Z</time>
      </trkpt>
      <trkpt lat="43.292495" lon="-8.404568">
        <ele>231.5</ele>
        <time>2011-06-25T10:34:35Z</time>
      </trkpt>
      <trkpt lat="43.292487" lon="-8.404572">
        <ele>231.0</ele>
        <time>2011-06-25T10:34:36Z</time>
      </trkpt>
      <trkpt lat="43.292498" lon="-8.404578">
        <ele>231.5</ele>
        <time>2011-06-25T10:34:37Z</time>
      </trkpt>
      <trkpt lat="43.292493" lon="-8.404575">
        <ele>231.0</ele>
        <time>2011-06-25T10:34:38Z</time>
      </trkpt>
      <trkpt lat="43.292490" lon="-8.404570">
        <ele>231.0</ele>
        <time>2011-06-25T10:34:39Z</time>
      </trkpt>
      <trkpt lat="43.292488" lon="-8.404562">
        <ele>230.5</ele>
        <time>2011-06-25T10:34:40Z</time>
      </trkpt>
      <trkpt lat="43.292488" lon="-8.404553">
        <ele>230.5</ele>
        <time>2011-06-25T10:34:41Z</time>
      </trkpt>
      <trkpt lat="43.292498" lon="-8.404547">
        <ele>230.0</ele>
        <time>2011-06-25T10:34:42Z</time>
      </trkpt>
    </trkseg>
  </trk>
  <trk>
    <name>T2067676-10</name>
    <cmt>saida con compañeiros do C.C.Arteixo polos arredores da Coruña</cmt>
    <desc>saida con compañeiros do C.C.Arteixo polos arredores da Coruña</desc>
    <trkseg>
      <trkpt lat="43.292510" lon="-8.404548">
        <ele>230.0</ele>
        <time>2011-06-25T10:34:43Z</time>
      </trkpt>
      <trkpt lat="43.292523" lon="-8.404552">
        <ele>229.5</ele>
        <time>2011-06-25T10:34:44Z</time>
      </trkpt>
      <trkpt lat="43.292537" lon="-8.404550">
        <ele>229.5</ele>
        <time>2011-06-25T10:34:45Z</time>
      </trkpt>
      <trkpt lat="43.292555" lon="-8.404540">
        <ele>229.0</ele>
        <time>2011-06-25T10:34:46Z</time>
      </trkpt>
      <trkpt lat="43.292577" lon="-8.404532">
        <ele>228.5</ele>
        <time>2011-06-25T10:34:47Z</time>
      </trkpt>
      <trkpt lat="43.292600" lon="-8.404532">
        <ele>228.0</ele>
        <time>2011-06-25T10:34:48Z</time>
      </trkpt>
      <trkpt lat="43.292625" lon="-8.404533">
        <ele>228.0</ele>
        <time>2011-06-25T10:34:49Z</time>
      </trkpt>
      <trkpt lat="43.292647" lon="-8.404532">
        <ele>228.0</ele>
        <time>2011-06-25T10:34:50Z</time>
      </trkpt>
      <trkpt lat="43.292668" lon="-8.404533">
        <ele>227.5</ele>
        <time>2011-06-25T10:34:51Z</time>
      </trkpt>
      <trkpt lat="43.292690" lon="-8.404537">
        <ele>227.0</ele>
        <time>2011-06-25T10:34:52Z</time>
      </trkpt>
      <trkpt lat="43.292713" lon="-8.404537">
        <ele>226.0</ele>
        <time>2011-06-25T10:34:53Z</time>
      </trkpt>
      <trkpt lat="43.292737" lon="-8.404537">
        <ele>225.5</ele>
        <time>2011-06-25T10:34:54Z</time>
      </trkpt>
      <trkpt lat="43.292762" lon="-8.404535">
        <ele>225.5</ele>
        <time>2011-06-25T10:34:55Z</time>
      </trkpt>
      <trkpt lat="43.292790" lon="-8.404533">
        <ele>225.0</ele>
        <time>2011-06-25T10:34:56Z</time>
      </trkpt>
      <trkpt lat="43.292822" lon="-8.404530">
        <ele>224.5</ele>
        <time>2011-06-25T10:34:57Z</time>
      </trkpt>
      <trkpt lat="43.292853" lon="-8.404527">
        <ele>224.5</ele>
        <time>2011-06-25T10:34:58Z</time>
      </trkpt>
      <trkpt lat="43.292885" lon="-8.404527">
        <ele>224.0</ele>
        <time>2011-06-25T10:34:59Z</time>
      </trkpt>
      <trkpt lat="43.292915" lon="-8.404527">
        <ele>224.0</ele>
        <time>2011-06-25T10:35:00Z</time>
      </trkpt>
      <trkpt lat="43.292942" lon="-8.404523">
        <ele>224.0</ele>
        <time>2011-06-25T10:35:01Z</time>
      </trkpt>
      <trkpt lat="43.292970" lon="-8.404520">
        <ele>224.0</ele>
        <time>2011-06-25T10:35:02Z</time>
      </trkpt>
      <trkpt lat="43.292997" lon="-8.404515">
        <ele>224.0</ele>
        <time>2011-06-25T10:35:03Z</time>
      </trkpt>
      <trkpt lat="43.293023" lon="-8.404513">
        <ele>224.0</ele>
        <time>2011-06-25T10:35:04Z</time>
      </trkpt>
      <trkpt lat="43.293048" lon="-8.404508">
        <ele>224.5</ele>
        <time>2011-06-25T10:35:05Z</time>
      </trkpt>
      <trkpt lat="43.293072" lon="-8.404500">
        <ele>224.5</ele>
        <time>2011-06-25T10:35:06Z</time>
      </trkpt>
      <trkpt lat="43.293095" lon="-8.404487">
        <ele>224.0</ele>
        <time>2011-06-25T10:35:07Z</time>
      </trkpt>
      <trkpt lat="43.293118" lon="-8.404470">
        <ele>224.0</ele>
        <time>2011-06-25T10:35:08Z</time>
      </trkpt>
      <trkpt lat="43.293145" lon="-8.404458">
        <ele>223.5</ele>
        <time>2011-06-25T10:35:09Z</time>
      </trkpt>
      <trkpt lat="43.293172" lon="-8.404450">
        <ele>223.0</ele>
        <time>2011-06-25T10:35:10Z</time>
      </trkpt>
      <trkpt lat="43.293197" lon="-8.404452">
        <ele>223.0</ele>
        <time>2011-06-25T10:35:11Z</time>
      </trkpt>
      <trkpt lat="43.293200" lon="-8.404475">
        <ele>224.0</ele>
        <time>2011-06-25T10:35:12Z</time>
      </trkpt>
      <trkpt lat="43.293193" lon="-8.404513">
        <ele>225.0</ele>
        <time>2011-06-25T10:35:13Z</time>
      </trkpt>
      <trkpt lat="43.293187" lon="-8.404545">
        <ele>226.0</ele>
        <time>2011-06-25T10:35:14Z</time>
      </trkpt>
      <trkpt lat="43.293175" lon="-8.404575">
        <ele>227.0</ele>
        <time>2011-06-25T10:35:15Z</time>
      </trkpt>
      <trkpt lat="43.293168" lon="-8.404603">
        <ele>227.0</ele>
        <time>2011-06-25T10:35:16Z</time>
      </trkpt>
      <trkpt lat="43.293162" lon="-8.404635">
        <ele>227.0</ele>
        <time>2011-06-25T10:35:17Z</time>
      </trkpt>
      <trkpt lat="43.293148" lon="-8.404672">
        <ele>227.0</ele>
        <time>2011-06-25T10:35:18Z</time>
      </trkpt>
      <trkpt lat="43.293133" lon="-8.404708">
        <ele>227.0</ele>
        <time>2011-06-25T10:35:19Z</time>
      </trkpt>
      <trkpt lat="43.293118" lon="-8.404745">
        <ele>227.5</ele>
        <time>2011-06-25T10:35:20Z</time>
      </trkpt>
      <trkpt lat="43.293100" lon="-8.404780">
        <ele>227.5</ele>
        <time>2011-06-25T10:35:21Z</time>
      </trkpt>
      <trkpt lat="43.293083" lon="-8.404817">
        <ele>228.0</ele>
        <time>2011-06-25T10:35:22Z</time>
      </trkpt>
      <trkpt lat="43.293067" lon="-8.404847">
        <ele>228.5</ele>
        <time>2011-06-25T10:35:23Z</time>
      </trkpt>
      <trkpt lat="43.293053" lon="-8.404878">
        <ele>229.0</ele>
        <time>2011-06-25T10:35:24Z</time>
      </trkpt>
      <trkpt lat="43.293035" lon="-8.404915">
        <ele>228.5</ele>
        <time>2011-06-25T10:35:25Z</time>
      </trkpt>
      <trkpt lat="43.293020" lon="-8.404952">
        <ele>230.0</ele>
        <time>2011-06-25T10:35:26Z</time>
      </trkpt>
      <trkpt lat="43.293005" lon="-8.404983">
        <ele>231.5</ele>
        <time>2011-06-25T10:35:27Z</time>
      </trkpt>
      <trkpt lat="43.292987" lon="-8.405018">
        <ele>232.0</ele>
        <time>2011-06-25T10:35:28Z</time>
      </trkpt>
      <trkpt lat="43.292967" lon="-8.405050">
        <ele>232.5</ele>
        <time>2011-06-25T10:35:29Z</time>
      </trkpt>
      <trkpt lat="43.292948" lon="-8.405083">
        <ele>232.5</ele>
        <time>2011-06-25T10:35:30Z</time>
      </trkpt>
      <trkpt lat="43.292928" lon="-8.405112">
        <ele>233.5</ele>
        <time>2011-06-25T10:35:31Z</time>
      </trkpt>
      <trkpt lat="43.292918" lon="-8.405140">
        <ele>233.5</ele>
        <time>2011-06-25T10:35:32Z</time>
      </trkpt>
      <trkpt lat="43.292903" lon="-8.405172">
        <ele>233.5</ele>
        <time>2011-06-25T10:35:33Z</time>
      </trkpt>
      <trkpt lat="43.292882" lon="-8.405207">
        <ele>234.0</ele>
        <time>2011-06-25T10:35:34Z</time>
      </trkpt>
      <trkpt lat="43.292860" lon="-8.405240">
        <ele>234.5</ele>
        <time>2011-06-25T10:35:35Z</time>
      </trkpt>
      <trkpt lat="43.292837" lon="-8.405272">
        <ele>235.0</ele>
        <time>2011-06-25T10:35:36Z</time>
      </trkpt>
      <trkpt lat="43.292818" lon="-8.405307">
        <ele>236.0</ele>
        <time>2011-06-25T10:35:37Z</time>
      </trkpt>
      <trkpt lat="43.292795" lon="-8.405342">
        <ele>236.0</ele>
        <time>2011-06-25T10:35:38Z</time>
      </trkpt>
      <trkpt lat="43.292773" lon="-8.405372">
        <ele>236.5</ele>
        <time>2011-06-25T10:35:39Z</time>
      </trkpt>
      <trkpt lat="43.292755" lon="-8.405403">
        <ele>236.5</ele>
        <time>2011-06-25T10:35:40Z</time>
      </trkpt>
      <trkpt lat="43.292740" lon="-8.405440">
        <ele>236.5</ele>
        <time>2011-06-25T10:35:41Z</time>
      </trkpt>
      <trkpt lat="43.292725" lon="-8.405473">
        <ele>236.5</ele>
        <time>2011-06-25T10:35:42Z</time>
      </trkpt>
      <trkpt lat="43.292703" lon="-8.405508">
        <ele>237.5</ele>
        <time>2011-06-25T10:35:43Z</time>
      </trkpt>
      <trkpt lat="43.292672" lon="-8.405538">
        <ele>238.0</ele>
        <time>2011-06-25T10:35:44Z</time>
      </trkpt>
      <trkpt lat="43.292642" lon="-8.405563">
        <ele>238.0</ele>
        <time>2011-06-25T10:35:45Z</time>
      </trkpt>
      <trkpt lat="43.292620" lon="-8.405587">
        <ele>239.5</ele>
        <time>2011-06-25T10:35:46Z</time>
      </trkpt>
      <trkpt lat="43.292600" lon="-8.405612">
        <ele>240.0</ele>
        <time>2011-06-25T10:35:47Z</time>
      </trkpt>
      <trkpt lat="43.292577" lon="-8.405635">
        <ele>240.5</ele>
        <time>2011-06-25T10:35:48Z</time>
      </trkpt>
      <trkpt lat="43.292555" lon="-8.405660">
        <ele>241.0</ele>
        <time>2011-06-25T10:35:49Z</time>
      </trkpt>
      <trkpt lat="43.292530" lon="-8.405685">
        <ele>241.5</ele>
        <time>2011-06-25T10:35:50Z</time>
      </trkpt>
      <trkpt lat="43.292503" lon="-8.405708">
        <ele>242.0</ele>
        <time>2011-06-25T10:35:51Z</time>
      </trkpt>
      <trkpt lat="43.292482" lon="-8.405732">
        <ele>244.0</ele>
        <time>2011-06-25T10:35:52Z</time>
      </trkpt>
      <trkpt lat="43.292462" lon="-8.405758">
        <ele>244.5</ele>
        <time>2011-06-25T10:35:53Z</time>
      </trkpt>
      <trkpt lat="43.292440" lon="-8.405783">
        <ele>244.5</ele>
        <time>2011-06-25T10:35:54Z</time>
      </trkpt>
      <trkpt lat="43.292417" lon="-8.405808">
        <ele>245.0</ele>
        <time>2011-06-25T10:35:55Z</time>
      </trkpt>
      <trkpt lat="43.292390" lon="-8.405830">
        <ele>245.5</ele>
        <time>2011-06-25T10:35:56Z</time>
      </trkpt>
      <trkpt lat="43.292365" lon="-8.405845">
        <ele>246.5</ele>
        <time>2011-06-25T10:35:57Z</time>
      </trkpt>
      <trkpt lat="43.292338" lon="-8.405863">
        <ele>247.0</ele>
        <time>2011-06-25T10:35:58Z</time>
      </trkpt>
      <trkpt lat="43.292313" lon="-8.405882">
        <ele>247.0</ele>
        <time>2011-06-25T10:35:59Z</time>
      </trkpt>
      <trkpt lat="43.292287" lon="-8.405898">
        <ele>247.5</ele>
        <time>2011-06-25T10:36:00Z</time>
      </trkpt>
      <trkpt lat="43.292258" lon="-8.405915">
        <ele>247.5</ele>
        <time>2011-06-25T10:36:01Z</time>
      </trkpt>
      <trkpt lat="43.292235" lon="-8.405935">
        <ele>247.5</ele>
        <time>2011-06-25T10:36:02Z</time>
      </trkpt>
      <trkpt lat="43.292208" lon="-8.405952">
        <ele>247.5</ele>
        <time>2011-06-25T10:36:03Z</time>
      </trkpt>
      <trkpt lat="43.292180" lon="-8.405972">
        <ele>248.0</ele>
        <time>2011-06-25T10:36:04Z</time>
      </trkpt>
      <trkpt lat="43.292155" lon="-8.405995">
        <ele>248.0</ele>
        <time>2011-06-25T10:36:05Z</time>
      </trkpt>
      <trkpt lat="43.292148" lon="-8.406037">
        <ele>248.0</ele>
        <time>2011-06-25T10:36:06Z</time>
      </trkpt>
      <trkpt lat="43.292137" lon="-8.406073">
        <ele>249.0</ele>
        <time>2011-06-25T10:36:07Z</time>
      </trkpt>
      <trkpt lat="43.292132" lon="-8.406112">
        <ele>249.0</ele>
        <time>2011-06-25T10:36:08Z</time>
      </trkpt>
      <trkpt lat="43.292135" lon="-8.406145">
        <ele>250.0</ele>
        <time>2011-06-25T10:36:09Z</time>
      </trkpt>
      <trkpt lat="43.292140" lon="-8.406172">
        <ele>251.0</ele>
        <time>2011-06-25T10:36:10Z</time>
      </trkpt>
      <trkpt lat="43.292147" lon="-8.406205">
        <ele>251.0</ele>
        <time>2011-06-25T10:36:11Z</time>
      </trkpt>
      <trkpt lat="43.292153" lon="-8.406237">
        <ele>251.0</ele>
        <time>2011-06-25T10:36:12Z</time>
      </trkpt>
      <trkpt lat="43.292157" lon="-8.406275">
        <ele>251.0</ele>
        <time>2011-06-25T10:36:13Z</time>
      </trkpt>
      <trkpt lat="43.292158" lon="-8.406318">
        <ele>250.5</ele>
        <time>2011-06-25T10:36:14Z</time>
      </trkpt>
      <trkpt lat="43.292155" lon="-8.406365">
        <ele>250.5</ele>
        <time>2011-06-25T10:36:15Z</time>
      </trkpt>
      <trkpt lat="43.292150" lon="-8.406412">
        <ele>250.5</ele>
        <time>2011-06-25T10:36:16Z</time>
      </trkpt>
      <trkpt lat="43.292147" lon="-8.406458">
        <ele>250.5</ele>
        <time>2011-06-25T10:36:17Z</time>
      </trkpt>
      <trkpt lat="43.292145" lon="-8.406507">
        <ele>250.0</ele>
        <time>2011-06-25T10:36:18Z</time>
      </trkpt>
      <trkpt lat="43.292143" lon="-8.406553">
        <ele>250.0</ele>
        <time>2011-06-25T10:36:19Z</time>
      </trkpt>
      <trkpt lat="43.292142" lon="-8.406598">
        <ele>249.5</ele>
        <time>2011-06-25T10:36:20Z</time>
      </trkpt>
      <trkpt lat="43.292140" lon="-8.406640">
        <ele>249.5</ele>
        <time>2011-06-25T10:36:21Z</time>
      </trkpt>
      <trkpt lat="43.292143" lon="-8.406682">
        <ele>249.0</ele>
        <time>2011-06-25T10:36:22Z</time>
      </trkpt>
      <trkpt lat="43.292145" lon="-8.406720">
        <ele>249.5</ele>
        <time>2011-06-25T10:36:23Z</time>
      </trkpt>
      <trkpt lat="43.292142" lon="-8.406743">
        <ele>249.5</ele>
        <time>2011-06-25T10:36:24Z</time>
      </trkpt>
      <trkpt lat="43.292147" lon="-8.406837">
        <ele>248.0</ele>
        <time>2011-06-25T10:36:26Z</time>
      </trkpt>
      <trkpt lat="43.292155" lon="-8.406877">
        <ele>248.5</ele>
        <time>2011-06-25T10:36:27Z</time>
      </trkpt>
      <trkpt lat="43.292165" lon="-8.406918">
        <ele>248.0</ele>
        <time>2011-06-25T10:36:28Z</time>
      </trkpt>
      <trkpt lat="43.292177" lon="-8.406940">
        <ele>248.0</ele>
        <time>2011-06-25T10:36:29Z</time>
      </trkpt>
      <trkpt lat="43.292188" lon="-8.406962">
        <ele>248.5</ele>
        <time>2011-06-25T10:36:30Z</time>
      </trkpt>
      <trkpt lat="43.292200" lon="-8.406985">
        <ele>249.5</ele>
        <time>2011-06-25T10:36:31Z</time>
      </trkpt>
      <trkpt lat="43.292212" lon="-8.407013">
        <ele>249.0</ele>
        <time>2011-06-25T10:36:32Z</time>
      </trkpt>
      <trkpt lat="43.292225" lon="-8.407047">
        <ele>249.5</ele>
        <time>2011-06-25T10:36:33Z</time>
      </trkpt>
      <trkpt lat="43.292237" lon="-8.407078">
        <ele>249.5</ele>
        <time>2011-06-25T10:36:34Z</time>
      </trkpt>
      <trkpt lat="43.292248" lon="-8.407110">
        <ele>249.5</ele>
        <time>2011-06-25T10:36:35Z</time>
      </trkpt>
      <trkpt lat="43.292257" lon="-8.407142">
        <ele>249.5</ele>
        <time>2011-06-25T10:36:36Z</time>
      </trkpt>
      <trkpt lat="43.292272" lon="-8.407175">
        <ele>250.0</ele>
        <time>2011-06-25T10:36:37Z</time>
      </trkpt>
      <trkpt lat="43.292283" lon="-8.407212">
        <ele>249.0</ele>
        <time>2011-06-25T10:36:38Z</time>
      </trkpt>
      <trkpt lat="43.292297" lon="-8.407245">
        <ele>249.0</ele>
        <time>2011-06-25T10:36:39Z</time>
      </trkpt>
      <trkpt lat="43.292308" lon="-8.407270">
        <ele>247.5</ele>
        <time>2011-06-25T10:36:40Z</time>
      </trkpt>
      <trkpt lat="43.292323" lon="-8.407307">
        <ele>247.5</ele>
        <time>2011-06-25T10:36:41Z</time>
      </trkpt>
      <trkpt lat="43.292335" lon="-8.407340">
        <ele>247.0</ele>
        <time>2011-06-25T10:36:42Z</time>
      </trkpt>
      <trkpt lat="43.292350" lon="-8.407367">
        <ele>247.5</ele>
        <time>2011-06-25T10:36:43Z</time>
      </trkpt>
      <trkpt lat="43.292362" lon="-8.407400">
        <ele>248.0</ele>
        <time>2011-06-25T10:36:44Z</time>
      </trkpt>
      <trkpt lat="43.292372" lon="-8.407438">
        <ele>248.0</ele>
        <time>2011-06-25T10:36:45Z</time>
      </trkpt>
      <trkpt lat="43.292380" lon="-8.407482">
        <ele>247.5</ele>
        <time>2011-06-25T10:36:46Z</time>
      </trkpt>
      <trkpt lat="43.292388" lon="-8.407517">
        <ele>247.0</ele>
        <time>2011-06-25T10:36:47Z</time>
      </trkpt>
      <trkpt lat="43.292388" lon="-8.407553">
        <ele>247.0</ele>
        <time>2011-06-25T10:36:48Z</time>
      </trkpt>
      <trkpt lat="43.292408" lon="-8.407598">
        <ele>248.5</ele>
        <time>2011-06-25T10:36:49Z</time>
      </trkpt>
      <trkpt lat="43.292423" lon="-8.407645">
        <ele>249.5</ele>
        <time>2011-06-25T10:36:50Z</time>
      </trkpt>
      <trkpt lat="43.292435" lon="-8.407688">
        <ele>251.0</ele>
        <time>2011-06-25T10:36:51Z</time>
      </trkpt>
      <trkpt lat="43.292433" lon="-8.407737">
        <ele>251.0</ele>
        <time>2011-06-25T10:36:52Z</time>
      </trkpt>
      <trkpt lat="43.292412" lon="-8.407773">
        <ele>249.0</ele>
        <time>2011-06-25T10:36:53Z</time>
      </trkpt>
      <trkpt lat="43.292410" lon="-8.407825">
        <ele>249.0</ele>
        <time>2011-06-25T10:36:54Z</time>
      </trkpt>
      <trkpt lat="43.292407" lon="-8.407877">
        <ele>248.5</ele>
        <time>2011-06-25T10:36:55Z</time>
      </trkpt>
      <trkpt lat="43.292398" lon="-8.407918">
        <ele>249.0</ele>
        <time>2011-06-25T10:36:56Z</time>
      </trkpt>
      <trkpt lat="43.292385" lon="-8.407963">
        <ele>248.0</ele>
        <time>2011-06-25T10:36:57Z</time>
      </trkpt>
      <trkpt lat="43.292372" lon="-8.408003">
        <ele>247.5</ele>
        <time>2011-06-25T10:36:58Z</time>
      </trkpt>
      <trkpt lat="43.292365" lon="-8.408043">
        <ele>248.5</ele>
        <time>2011-06-25T10:36:59Z</time>
      </trkpt>
      <trkpt lat="43.292355" lon="-8.408083">
        <ele>248.5</ele>
        <time>2011-06-25T10:37:00Z</time>
      </trkpt>
      <trkpt lat="43.292347" lon="-8.408120">
        <ele>249.5</ele>
        <time>2011-06-25T10:37:01Z</time>
      </trkpt>
      <trkpt lat="43.292340" lon="-8.408160">
        <ele>250.5</ele>
        <time>2011-06-25T10:37:02Z</time>
      </trkpt>
      <trkpt lat="43.292333" lon="-8.408202">
        <ele>250.5</ele>
        <time>2011-06-25T10:37:03Z</time>
      </trkpt>
      <trkpt lat="43.292325" lon="-8.408245">
        <ele>250.5</ele>
        <time>2011-06-25T10:37:04Z</time>
      </trkpt>
      <trkpt lat="43.292318" lon="-8.408287">
        <ele>250.5</ele>
        <time>2011-06-25T10:37:05Z</time>
      </trkpt>
      <trkpt lat="43.292308" lon="-8.408322">
        <ele>251.0</ele>
        <time>2011-06-25T10:37:06Z</time>
      </trkpt>
      <trkpt lat="43.292298" lon="-8.408358">
        <ele>251.5</ele>
        <time>2011-06-25T10:37:07Z</time>
      </trkpt>
      <trkpt lat="43.292292" lon="-8.408388">
        <ele>252.0</ele>
        <time>2011-06-25T10:37:08Z</time>
      </trkpt>
      <trkpt lat="43.292278" lon="-8.408413">
        <ele>253.5</ele>
        <time>2011-06-25T10:37:09Z</time>
      </trkpt>
      <trkpt lat="43.292268" lon="-8.408462">
        <ele>252.0</ele>
        <time>2011-06-25T10:37:10Z</time>
      </trkpt>
      <trkpt lat="43.292253" lon="-8.408512">
        <ele>251.0</ele>
        <time>2011-06-25T10:37:11Z</time>
      </trkpt>
      <trkpt lat="43.292253" lon="-8.408555">
        <ele>252.0</ele>
        <time>2011-06-25T10:37:12Z</time>
      </trkpt>
      <trkpt lat="43.292240" lon="-8.408597">
        <ele>251.5</ele>
        <time>2011-06-25T10:37:13Z</time>
      </trkpt>
      <trkpt lat="43.292228" lon="-8.408640">
        <ele>250.5</ele>
        <time>2011-06-25T10:37:14Z</time>
      </trkpt>
      <trkpt lat="43.292220" lon="-8.408687">
        <ele>250.0</ele>
        <time>2011-06-25T10:37:15Z</time>
      </trkpt>
      <trkpt lat="43.292215" lon="-8.408730">
        <ele>250.0</ele>
        <time>2011-06-25T10:37:16Z</time>
      </trkpt>
      <trkpt lat="43.292200" lon="-8.408775">
        <ele>249.5</ele>
        <time>2011-06-25T10:37:17Z</time>
      </trkpt>
      <trkpt lat="43.292193" lon="-8.408830">
        <ele>248.5</ele>
        <time>2011-06-25T10:37:18Z</time>
      </trkpt>
      <trkpt lat="43.292187" lon="-8.408885">
        <ele>248.0</ele>
        <time>2011-06-25T10:37:19Z</time>
      </trkpt>
      <trkpt lat="43.292198" lon="-8.408930">
        <ele>250.0</ele>
        <time>2011-06-25T10:37:20Z</time>
      </trkpt>
      <trkpt lat="43.292192" lon="-8.408977">
        <ele>249.5</ele>
        <time>2011-06-25T10:37:21Z</time>
      </trkpt>
      <trkpt lat="43.292180" lon="-8.409013">
        <ele>249.5</ele>
        <time>2011-06-25T10:37:22Z</time>
      </trkpt>
      <trkpt lat="43.292175" lon="-8.409055">
        <ele>249.0</ele>
        <time>2011-06-25T10:37:23Z</time>
      </trkpt>
      <trkpt lat="43.292168" lon="-8.409093">
        <ele>248.5</ele>
        <time>2011-06-25T10:37:24Z</time>
      </trkpt>
      <trkpt lat="43.292155" lon="-8.409127">
        <ele>248.0</ele>
        <time>2011-06-25T10:37:25Z</time>
      </trkpt>
      <trkpt lat="43.292143" lon="-8.409167">
        <ele>248.0</ele>
        <time>2011-06-25T10:37:26Z</time>
      </trkpt>
      <trkpt lat="43.292130" lon="-8.409202">
        <ele>247.5</ele>
        <time>2011-06-25T10:37:27Z</time>
      </trkpt>
      <trkpt lat="43.292117" lon="-8.409237">
        <ele>247.0</ele>
        <time>2011-06-25T10:37:28Z</time>
      </trkpt>
      <trkpt lat="43.292103" lon="-8.409278">
        <ele>245.5</ele>
        <time>2011-06-25T10:37:29Z</time>
      </trkpt>
      <trkpt lat="43.292092" lon="-8.409317">
        <ele>246.0</ele>
        <time>2011-06-25T10:37:30Z</time>
      </trkpt>
      <trkpt lat="43.292072" lon="-8.409348">
        <ele>245.0</ele>
        <time>2011-06-25T10:37:31Z</time>
      </trkpt>
      <trkpt lat="43.292047" lon="-8.409370">
        <ele>245.0</ele>
        <time>2011-06-25T10:37:32Z</time>
      </trkpt>
      <trkpt lat="43.292028" lon="-8.409387">
        <ele>245.5</ele>
        <time>2011-06-25T10:37:33Z</time>
      </trkpt>
      <trkpt lat="43.292012" lon="-8.409400">
        <ele>246.0</ele>
        <time>2011-06-25T10:37:34Z</time>
      </trkpt>
      <trkpt lat="43.291992" lon="-8.409410">
        <ele>247.5</ele>
        <time>2011-06-25T10:37:35Z</time>
      </trkpt>
      <trkpt lat="43.291973" lon="-8.409422">
        <ele>248.5</ele>
        <time>2011-06-25T10:37:36Z</time>
      </trkpt>
      <trkpt lat="43.291955" lon="-8.409430">
        <ele>249.0</ele>
        <time>2011-06-25T10:37:37Z</time>
      </trkpt>
      <trkpt lat="43.291945" lon="-8.409437">
        <ele>250.0</ele>
        <time>2011-06-25T10:37:38Z</time>
      </trkpt>
      <trkpt lat="43.291940" lon="-8.409433">
        <ele>250.0</ele>
        <time>2011-06-25T10:37:39Z</time>
      </trkpt>
      <trkpt lat="43.291940" lon="-8.409430">
        <ele>250.0</ele>
        <time>2011-06-25T10:37:40Z</time>
      </trkpt>
      <trkpt lat="43.291938" lon="-8.409427">
        <ele>250.0</ele>
        <time>2011-06-25T10:37:41Z</time>
      </trkpt>
      <trkpt lat="43.291928" lon="-8.409438">
        <ele>250.5</ele>
        <time>2011-06-25T10:37:42Z</time>
      </trkpt>
      <trkpt lat="43.291915" lon="-8.409455">
        <ele>251.5</ele>
        <time>2011-06-25T10:37:43Z</time>
      </trkpt>
      <trkpt lat="43.291898" lon="-8.409473">
        <ele>252.5</ele>
        <time>2011-06-25T10:37:44Z</time>
      </trkpt>
      <trkpt lat="43.291885" lon="-8.409492">
        <ele>253.0</ele>
        <time>2011-06-25T10:37:45Z</time>
      </trkpt>
      <trkpt lat="43.291872" lon="-8.409503">
        <ele>254.0</ele>
        <time>2011-06-25T10:37:46Z</time>
      </trkpt>
      <trkpt lat="43.291845" lon="-8.409517">
        <ele>253.0</ele>
        <time>2011-06-25T10:37:47Z</time>
      </trkpt>
      <trkpt lat="43.291830" lon="-8.409537">
        <ele>252.5</ele>
        <time>2011-06-25T10:37:48Z</time>
      </trkpt>
      <trkpt lat="43.291820" lon="-8.409555">
        <ele>253.5</ele>
        <time>2011-06-25T10:37:49Z</time>
      </trkpt>
      <trkpt lat="43.291773" lon="-8.409587">
        <ele>253.0</ele>
        <time>2011-06-25T10:37:51Z</time>
      </trkpt>
      <trkpt lat="43.291760" lon="-8.409597">
        <ele>253.5</ele>
        <time>2011-06-25T10:37:52Z</time>
      </trkpt>
      <trkpt lat="43.291752" lon="-8.409603">
        <ele>253.5</ele>
        <time>2011-06-25T10:37:53Z</time>
      </trkpt>
      <trkpt lat="43.291743" lon="-8.409613">
        <ele>253.5</ele>
        <time>2011-06-25T10:37:54Z</time>
      </trkpt>
      <trkpt lat="43.291728" lon="-8.409628">
        <ele>254.0</ele>
        <time>2011-06-25T10:37:55Z</time>
      </trkpt>
      <trkpt lat="43.291723" lon="-8.409640">
        <ele>255.0</ele>
        <time>2011-06-25T10:37:56Z</time>
      </trkpt>
      <trkpt lat="43.291715" lon="-8.409653">
        <ele>256.5</ele>
        <time>2011-06-25T10:37:57Z</time>
      </trkpt>
      <trkpt lat="43.291705" lon="-8.409673">
        <ele>256.5</ele>
        <time>2011-06-25T10:37:58Z</time>
      </trkpt>
      <trkpt lat="43.291697" lon="-8.409685">
        <ele>255.5</ele>
        <time>2011-06-25T10:37:59Z</time>
      </trkpt>
      <trkpt lat="43.291687" lon="-8.409700">
        <ele>257.0</ele>
        <time>2011-06-25T10:38:00Z</time>
      </trkpt>
      <trkpt lat="43.291678" lon="-8.409715">
        <ele>259.0</ele>
        <time>2011-06-25T10:38:01Z</time>
      </trkpt>
      <trkpt lat="43.291668" lon="-8.409727">
        <ele>260.0</ele>
        <time>2011-06-25T10:38:02Z</time>
      </trkpt>
      <trkpt lat="43.291660" lon="-8.409738">
        <ele>261.5</ele>
        <time>2011-06-25T10:38:03Z</time>
      </trkpt>
      <trkpt lat="43.291650" lon="-8.409753">
        <ele>263.0</ele>
        <time>2011-06-25T10:38:04Z</time>
      </trkpt>
      <trkpt lat="43.291642" lon="-8.409767">
        <ele>265.0</ele>
        <time>2011-06-25T10:38:05Z</time>
      </trkpt>
      <trkpt lat="43.291635" lon="-8.409785">
        <ele>266.0</ele>
        <time>2011-06-25T10:38:06Z</time>
      </trkpt>
      <trkpt lat="43.291632" lon="-8.409800">
        <ele>267.5</ele>
        <time>2011-06-25T10:38:07Z</time>
      </trkpt>
      <trkpt lat="43.291623" lon="-8.409823">
        <ele>267.5</ele>
        <time>2011-06-25T10:38:08Z</time>
      </trkpt>
      <trkpt lat="43.291613" lon="-8.409847">
        <ele>267.5</ele>
        <time>2011-06-25T10:38:09Z</time>
      </trkpt>
      <trkpt lat="43.291608" lon="-8.409862">
        <ele>267.5</ele>
        <time>2011-06-25T10:38:10Z</time>
      </trkpt>
      <trkpt lat="43.291598" lon="-8.409875">
        <ele>269.0</ele>
        <time>2011-06-25T10:38:11Z</time>
      </trkpt>
      <trkpt lat="43.291590" lon="-8.409890">
        <ele>268.5</ele>
        <time>2011-06-25T10:38:12Z</time>
      </trkpt>
      <trkpt lat="43.291583" lon="-8.409900">
        <ele>268.5</ele>
        <time>2011-06-25T10:38:13Z</time>
      </trkpt>
      <trkpt lat="43.291580" lon="-8.409910">
        <ele>270.0</ele>
        <time>2011-06-25T10:38:14Z</time>
      </trkpt>
      <trkpt lat="43.291578" lon="-8.409920">
        <ele>270.0</ele>
        <time>2011-06-25T10:38:15Z</time>
      </trkpt>
      <trkpt lat="43.291572" lon="-8.409927">
        <ele>272.0</ele>
        <time>2011-06-25T10:38:16Z</time>
      </trkpt>
      <trkpt lat="43.291563" lon="-8.409937">
        <ele>273.5</ele>
        <time>2011-06-25T10:38:17Z</time>
      </trkpt>
      <trkpt lat="43.291553" lon="-8.409945">
        <ele>274.5</ele>
        <time>2011-06-25T10:38:18Z</time>
      </trkpt>
      <trkpt lat="43.291557" lon="-8.409957">
        <ele>274.0</ele>
        <time>2011-06-25T10:38:19Z</time>
      </trkpt>
      <trkpt lat="43.291557" lon="-8.409963">
        <ele>273.5</ele>
        <time>2011-06-25T10:38:20Z</time>
      </trkpt>
      <trkpt lat="43.291552" lon="-8.409968">
        <ele>274.5</ele>
        <time>2011-06-25T10:38:21Z</time>
      </trkpt>
      <trkpt lat="43.291547" lon="-8.409972">
        <ele>275.0</ele>
        <time>2011-06-25T10:38:22Z</time>
      </trkpt>
      <trkpt lat="43.291542" lon="-8.409977">
        <ele>276.0</ele>
        <time>2011-06-25T10:38:23Z</time>
      </trkpt>
      <trkpt lat="43.291533" lon="-8.409983">
        <ele>277.5</ele>
        <time>2011-06-25T10:38:24Z</time>
      </trkpt>
      <trkpt lat="43.291523" lon="-8.409992">
        <ele>278.5</ele>
        <time>2011-06-25T10:38:25Z</time>
      </trkpt>
      <trkpt lat="43.291522" lon="-8.409990">
        <ele>280.0</ele>
        <time>2011-06-25T10:38:26Z</time>
      </trkpt>
      <trkpt lat="43.291523" lon="-8.409997">
        <ele>280.0</ele>
        <time>2011-06-25T10:38:27Z</time>
      </trkpt>
      <trkpt lat="43.291523" lon="-8.410010">
        <ele>279.5</ele>
        <time>2011-06-25T10:38:28Z</time>
      </trkpt>
      <trkpt lat="43.291518" lon="-8.410018">
        <ele>280.5</ele>
        <time>2011-06-25T10:38:29Z</time>
      </trkpt>
      <trkpt lat="43.291512" lon="-8.410022">
        <ele>281.0</ele>
        <time>2011-06-25T10:38:30Z</time>
      </trkpt>
      <trkpt lat="43.291500" lon="-8.410027">
        <ele>281.0</ele>
        <time>2011-06-25T10:38:31Z</time>
      </trkpt>
      <trkpt lat="43.291490" lon="-8.410028">
        <ele>282.0</ele>
        <time>2011-06-25T10:38:32Z</time>
      </trkpt>
      <trkpt lat="43.291493" lon="-8.410028">
        <ele>282.0</ele>
        <time>2011-06-25T10:38:33Z</time>
      </trkpt>
      <trkpt lat="43.291497" lon="-8.410025">
        <ele>282.0</ele>
        <time>2011-06-25T10:38:34Z</time>
      </trkpt>
      <trkpt lat="43.291493" lon="-8.410025">
        <ele>282.0</ele>
        <time>2011-06-25T10:38:35Z</time>
      </trkpt>
      <trkpt lat="43.291488" lon="-8.410028">
        <ele>282.5</ele>
        <time>2011-06-25T10:38:36Z</time>
      </trkpt>
      <trkpt lat="43.291475" lon="-8.410037">
        <ele>283.5</ele>
        <time>2011-06-25T10:38:37Z</time>
      </trkpt>
      <trkpt lat="43.291462" lon="-8.410052">
        <ele>284.5</ele>
        <time>2011-06-25T10:38:38Z</time>
      </trkpt>
      <trkpt lat="43.291447" lon="-8.410072">
        <ele>285.0</ele>
        <time>2011-06-25T10:38:39Z</time>
      </trkpt>
      <trkpt lat="43.291427" lon="-8.410092">
        <ele>286.0</ele>
        <time>2011-06-25T10:38:40Z</time>
      </trkpt>
      <trkpt lat="43.291407" lon="-8.410118">
        <ele>286.5</ele>
        <time>2011-06-25T10:38:41Z</time>
      </trkpt>
      <trkpt lat="43.291392" lon="-8.410140">
        <ele>288.5</ele>
        <time>2011-06-25T10:38:42Z</time>
      </trkpt>
      <trkpt lat="43.291377" lon="-8.410162">
        <ele>289.5</ele>
        <time>2011-06-25T10:38:43Z</time>
      </trkpt>
      <trkpt lat="43.291365" lon="-8.410175">
        <ele>290.0</ele>
        <time>2011-06-25T10:38:44Z</time>
      </trkpt>
      <trkpt lat="43.291355" lon="-8.410187">
        <ele>291.0</ele>
        <time>2011-06-25T10:38:45Z</time>
      </trkpt>
      <trkpt lat="43.291347" lon="-8.410198">
        <ele>292.0</ele>
        <time>2011-06-25T10:38:46Z</time>
      </trkpt>
      <trkpt lat="43.291332" lon="-8.410212">
        <ele>292.0</ele>
        <time>2011-06-25T10:38:47Z</time>
      </trkpt>
      <trkpt lat="43.291317" lon="-8.410230">
        <ele>291.0</ele>
        <time>2011-06-25T10:38:48Z</time>
      </trkpt>
      <trkpt lat="43.291303" lon="-8.410245">
        <ele>291.5</ele>
        <time>2011-06-25T10:38:49Z</time>
      </trkpt>
      <trkpt lat="43.291292" lon="-8.410260">
        <ele>292.0</ele>
        <time>2011-06-25T10:38:50Z</time>
      </trkpt>
      <trkpt lat="43.291283" lon="-8.410273">
        <ele>292.0</ele>
        <time>2011-06-25T10:38:51Z</time>
      </trkpt>
      <trkpt lat="43.291272" lon="-8.410287">
        <ele>291.5</ele>
        <time>2011-06-25T10:38:52Z</time>
      </trkpt>
      <trkpt lat="43.291258" lon="-8.410305">
        <ele>290.0</ele>
        <time>2011-06-25T10:38:53Z</time>
      </trkpt>
      <trkpt lat="43.291248" lon="-8.410325">
        <ele>288.5</ele>
        <time>2011-06-25T10:38:54Z</time>
      </trkpt>
      <trkpt lat="43.291237" lon="-8.410350">
        <ele>286.0</ele>
        <time>2011-06-25T10:38:55Z</time>
      </trkpt>
      <trkpt lat="43.291212" lon="-8.410353">
        <ele>286.0</ele>
        <time>2011-06-25T10:38:56Z</time>
      </trkpt>
      <trkpt lat="43.291198" lon="-8.410370">
        <ele>285.5</ele>
        <time>2011-06-25T10:38:57Z</time>
      </trkpt>
      <trkpt lat="43.291183" lon="-8.410388">
        <ele>284.5</ele>
        <time>2011-06-25T10:38:58Z</time>
      </trkpt>
      <trkpt lat="43.291185" lon="-8.410410">
        <ele>285.5</ele>
        <time>2011-06-25T10:38:59Z</time>
      </trkpt>
      <trkpt lat="43.291180" lon="-8.410427">
        <ele>286.5</ele>
        <time>2011-06-25T10:39:00Z</time>
      </trkpt>
      <trkpt lat="43.291160" lon="-8.410437">
        <ele>286.5</ele>
        <time>2011-06-25T10:39:01Z</time>
      </trkpt>
      <trkpt lat="43.291145" lon="-8.410452">
        <ele>286.0</ele>
        <time>2011-06-25T10:39:02Z</time>
      </trkpt>
      <trkpt lat="43.291135" lon="-8.410465">
        <ele>286.0</ele>
        <time>2011-06-25T10:39:03Z</time>
      </trkpt>
      <trkpt lat="43.291120" lon="-8.410480">
        <ele>286.5</ele>
        <time>2011-06-25T10:39:04Z</time>
      </trkpt>
      <trkpt lat="43.291112" lon="-8.410497">
        <ele>287.0</ele>
        <time>2011-06-25T10:39:05Z</time>
      </trkpt>
      <trkpt lat="43.291095" lon="-8.410510">
        <ele>286.5</ele>
        <time>2011-06-25T10:39:06Z</time>
      </trkpt>
      <trkpt lat="43.291075" lon="-8.410522">
        <ele>285.5</ele>
        <time>2011-06-25T10:39:07Z</time>
      </trkpt>
      <trkpt lat="43.291065" lon="-8.410530">
        <ele>284.0</ele>
        <time>2011-06-25T10:39:08Z</time>
      </trkpt>
      <trkpt lat="43.291045" lon="-8.410543">
        <ele>282.0</ele>
        <time>2011-06-25T10:39:09Z</time>
      </trkpt>
      <trkpt lat="43.291028" lon="-8.410560">
        <ele>280.0</ele>
        <time>2011-06-25T10:39:10Z</time>
      </trkpt>
      <trkpt lat="43.291012" lon="-8.410565">
        <ele>280.0</ele>
        <time>2011-06-25T10:39:11Z</time>
      </trkpt>
      <trkpt lat="43.290993" lon="-8.410570">
        <ele>280.5</ele>
        <time>2011-06-25T10:39:12Z</time>
      </trkpt>
      <trkpt lat="43.290977" lon="-8.410580">
        <ele>281.5</ele>
        <time>2011-06-25T10:39:13Z</time>
      </trkpt>
      <trkpt lat="43.290960" lon="-8.410588">
        <ele>282.0</ele>
        <time>2011-06-25T10:39:14Z</time>
      </trkpt>
      <trkpt lat="43.290947" lon="-8.410592">
        <ele>282.5</ele>
        <time>2011-06-25T10:39:15Z</time>
      </trkpt>
      <trkpt lat="43.290927" lon="-8.410587">
        <ele>281.0</ele>
        <time>2011-06-25T10:39:16Z</time>
      </trkpt>
      <trkpt lat="43.290897" lon="-8.410580">
        <ele>279.0</ele>
        <time>2011-06-25T10:39:17Z</time>
      </trkpt>
      <trkpt lat="43.290875" lon="-8.410575">
        <ele>277.5</ele>
        <time>2011-06-25T10:39:18Z</time>
      </trkpt>
      <trkpt lat="43.290860" lon="-8.410573">
        <ele>276.5</ele>
        <time>2011-06-25T10:39:19Z</time>
      </trkpt>
      <trkpt lat="43.290847" lon="-8.410567">
        <ele>275.0</ele>
        <time>2011-06-25T10:39:20Z</time>
      </trkpt>
      <trkpt lat="43.290838" lon="-8.410568">
        <ele>276.0</ele>
        <time>2011-06-25T10:39:21Z</time>
      </trkpt>
      <trkpt lat="43.290792" lon="-8.410552">
        <ele>273.5</ele>
        <time>2011-06-25T10:39:23Z</time>
      </trkpt>
      <trkpt lat="43.290778" lon="-8.410552">
        <ele>272.5</ele>
        <time>2011-06-25T10:39:24Z</time>
      </trkpt>
      <trkpt lat="43.290765" lon="-8.410552">
        <ele>272.0</ele>
        <time>2011-06-25T10:39:25Z</time>
      </trkpt>
      <trkpt lat="43.290755" lon="-8.410553">
        <ele>271.5</ele>
        <time>2011-06-25T10:39:26Z</time>
      </trkpt>
      <trkpt lat="43.290747" lon="-8.410552">
        <ele>270.5</ele>
        <time>2011-06-25T10:39:27Z</time>
      </trkpt>
      <trkpt lat="43.290710" lon="-8.410553">
        <ele>269.0</ele>
        <time>2011-06-25T10:39:29Z</time>
      </trkpt>
      <trkpt lat="43.290700" lon="-8.410555">
        <ele>268.0</ele>
        <time>2011-06-25T10:39:30Z</time>
      </trkpt>
      <trkpt lat="43.290687" lon="-8.410558">
        <ele>268.0</ele>
        <time>2011-06-25T10:39:31Z</time>
      </trkpt>
      <trkpt lat="43.290640" lon="-8.410562">
        <ele>268.0</ele>
        <time>2011-06-25T10:39:33Z</time>
      </trkpt>
      <trkpt lat="43.290622" lon="-8.410553">
        <ele>267.5</ele>
        <time>2011-06-25T10:39:34Z</time>
      </trkpt>
      <trkpt lat="43.290600" lon="-8.410547">
        <ele>267.5</ele>
        <time>2011-06-25T10:39:35Z</time>
      </trkpt>
      <trkpt lat="43.290577" lon="-8.410540">
        <ele>267.5</ele>
        <time>2011-06-25T10:39:36Z</time>
      </trkpt>
      <trkpt lat="43.290552" lon="-8.410533">
        <ele>267.5</ele>
        <time>2011-06-25T10:39:37Z</time>
      </trkpt>
      <trkpt lat="43.290525" lon="-8.410532">
        <ele>267.5</ele>
        <time>2011-06-25T10:39:38Z</time>
      </trkpt>
      <trkpt lat="43.290508" lon="-8.410533">
        <ele>268.0</ele>
        <time>2011-06-25T10:39:39Z</time>
      </trkpt>
      <trkpt lat="43.290430" lon="-8.410523">
        <ele>268.0</ele>
        <time>2011-06-25T10:39:41Z</time>
      </trkpt>
      <trkpt lat="43.290418" lon="-8.410523">
        <ele>268.5</ele>
        <time>2011-06-25T10:39:42Z</time>
      </trkpt>
      <trkpt lat="43.290398" lon="-8.410522">
        <ele>269.5</ele>
        <time>2011-06-25T10:39:43Z</time>
      </trkpt>
      <trkpt lat="43.290382" lon="-8.410517">
        <ele>269.5</ele>
        <time>2011-06-25T10:39:44Z</time>
      </trkpt>
      <trkpt lat="43.290367" lon="-8.410510">
        <ele>269.5</ele>
        <time>2011-06-25T10:39:45Z</time>
      </trkpt>
      <trkpt lat="43.290350" lon="-8.410512">
        <ele>270.0</ele>
        <time>2011-06-25T10:39:46Z</time>
      </trkpt>
      <trkpt lat="43.290335" lon="-8.410508">
        <ele>270.5</ele>
        <time>2011-06-25T10:39:47Z</time>
      </trkpt>
      <trkpt lat="43.290320" lon="-8.410502">
        <ele>270.5</ele>
        <time>2011-06-25T10:39:48Z</time>
      </trkpt>
      <trkpt lat="43.290310" lon="-8.410507">
        <ele>271.0</ele>
        <time>2011-06-25T10:39:49Z</time>
      </trkpt>
      <trkpt lat="43.290308" lon="-8.410507">
        <ele>271.5</ele>
        <time>2011-06-25T10:39:50Z</time>
      </trkpt>
      <trkpt lat="43.290308" lon="-8.410507">
        <ele>272.0</ele>
        <time>2011-06-25T10:39:51Z</time>
      </trkpt>
      <trkpt lat="43.290305" lon="-8.410510">
        <ele>272.0</ele>
        <time>2011-06-25T10:39:52Z</time>
      </trkpt>
      <trkpt lat="43.290303" lon="-8.410513">
        <ele>272.0</ele>
        <time>2011-06-25T10:39:53Z</time>
      </trkpt>
      <trkpt lat="43.290302" lon="-8.410513">
        <ele>272.0</ele>
        <time>2011-06-25T10:39:54Z</time>
      </trkpt>
      <trkpt lat="43.290302" lon="-8.410513">
        <ele>272.0</ele>
        <time>2011-06-25T10:39:55Z</time>
      </trkpt>
      <trkpt lat="43.290302" lon="-8.410513">
        <ele>271.5</ele>
        <time>2011-06-25T10:39:56Z</time>
      </trkpt>
      <trkpt lat="43.290302" lon="-8.410513">
        <ele>271.5</ele>
        <time>2011-06-25T10:39:57Z</time>
      </trkpt>
      <trkpt lat="43.290302" lon="-8.410513">
        <ele>271.5</ele>
        <time>2011-06-25T10:39:58Z</time>
      </trkpt>
      <trkpt lat="43.290300" lon="-8.410513">
        <ele>272.0</ele>
        <time>2011-06-25T10:39:59Z</time>
      </trkpt>
      <trkpt lat="43.290298" lon="-8.410513">
        <ele>272.5</ele>
        <time>2011-06-25T10:40:00Z</time>
      </trkpt>
      <trkpt lat="43.290285" lon="-8.410508">
        <ele>272.5</ele>
        <time>2011-06-25T10:40:01Z</time>
      </trkpt>
      <trkpt lat="43.290278" lon="-8.410503">
        <ele>273.0</ele>
        <time>2011-06-25T10:40:02Z</time>
      </trkpt>
      <trkpt lat="43.290265" lon="-8.410492">
        <ele>273.0</ele>
        <time>2011-06-25T10:40:03Z</time>
      </trkpt>
      <trkpt lat="43.290250" lon="-8.410485">
        <ele>273.0</ele>
        <time>2011-06-25T10:40:04Z</time>
      </trkpt>
      <trkpt lat="43.290197" lon="-8.410473">
        <ele>273.0</ele>
        <time>2011-06-25T10:40:06Z</time>
      </trkpt>
      <trkpt lat="43.290178" lon="-8.410468">
        <ele>273.0</ele>
        <time>2011-06-25T10:40:07Z</time>
      </trkpt>
      <trkpt lat="43.290122" lon="-8.410457">
        <ele>272.5</ele>
        <time>2011-06-25T10:40:09Z</time>
      </trkpt>
      <trkpt lat="43.290118" lon="-8.410458">
        <ele>273.0</ele>
        <time>2011-06-25T10:40:10Z</time>
      </trkpt>
      <trkpt lat="43.290107" lon="-8.410458">
        <ele>273.0</ele>
        <time>2011-06-25T10:40:11Z</time>
      </trkpt>
      <trkpt lat="43.290095" lon="-8.410452">
        <ele>273.0</ele>
        <time>2011-06-25T10:40:12Z</time>
      </trkpt>
      <trkpt lat="43.290088" lon="-8.410447">
        <ele>273.5</ele>
        <time>2011-06-25T10:40:13Z</time>
      </trkpt>
      <trkpt lat="43.290082" lon="-8.410443">
        <ele>273.5</ele>
        <time>2011-06-25T10:40:14Z</time>
      </trkpt>
      <trkpt lat="43.290073" lon="-8.410445">
        <ele>274.0</ele>
        <time>2011-06-25T10:40:15Z</time>
      </trkpt>
      <trkpt lat="43.290063" lon="-8.410448">
        <ele>275.0</ele>
        <time>2011-06-25T10:40:16Z</time>
      </trkpt>
      <trkpt lat="43.290055" lon="-8.410453">
        <ele>275.5</ele>
        <time>2011-06-25T10:40:17Z</time>
      </trkpt>
      <trkpt lat="43.290048" lon="-8.410458">
        <ele>276.5</ele>
        <time>2011-06-25T10:40:18Z</time>
      </trkpt>
      <trkpt lat="43.290040" lon="-8.410470">
        <ele>277.0</ele>
        <time>2011-06-25T10:40:19Z</time>
      </trkpt>
      <trkpt lat="43.290035" lon="-8.410485">
        <ele>278.0</ele>
        <time>2011-06-25T10:40:20Z</time>
      </trkpt>
      <trkpt lat="43.290022" lon="-8.410498">
        <ele>278.5</ele>
        <time>2011-06-25T10:40:21Z</time>
      </trkpt>
      <trkpt lat="43.290008" lon="-8.410510">
        <ele>279.0</ele>
        <time>2011-06-25T10:40:22Z</time>
      </trkpt>
      <trkpt lat="43.290003" lon="-8.410523">
        <ele>281.0</ele>
        <time>2011-06-25T10:40:23Z</time>
      </trkpt>
      <trkpt lat="43.289993" lon="-8.410535">
        <ele>282.0</ele>
        <time>2011-06-25T10:40:24Z</time>
      </trkpt>
      <trkpt lat="43.289985" lon="-8.410545">
        <ele>282.5</ele>
        <time>2011-06-25T10:40:25Z</time>
      </trkpt>
      <trkpt lat="43.289990" lon="-8.410560">
        <ele>284.0</ele>
        <time>2011-06-25T10:40:26Z</time>
      </trkpt>
      <trkpt lat="43.289993" lon="-8.410577">
        <ele>285.5</ele>
        <time>2011-06-25T10:40:27Z</time>
      </trkpt>
      <trkpt lat="43.289975" lon="-8.410595">
        <ele>284.0</ele>
        <time>2011-06-25T10:40:28Z</time>
      </trkpt>
      <trkpt lat="43.289962" lon="-8.410610">
        <ele>284.0</ele>
        <time>2011-06-25T10:40:29Z</time>
      </trkpt>
      <trkpt lat="43.289945" lon="-8.410623">
        <ele>284.0</ele>
        <time>2011-06-25T10:40:30Z</time>
      </trkpt>
      <trkpt lat="43.289937" lon="-8.410635">
        <ele>284.5</ele>
        <time>2011-06-25T10:40:31Z</time>
      </trkpt>
      <trkpt lat="43.289925" lon="-8.410642">
        <ele>284.5</ele>
        <time>2011-06-25T10:40:32Z</time>
      </trkpt>
      <trkpt lat="43.289913" lon="-8.410650">
        <ele>285.0</ele>
        <time>2011-06-25T10:40:33Z</time>
      </trkpt>
      <trkpt lat="43.289903" lon="-8.410658">
        <ele>285.5</ele>
        <time>2011-06-25T10:40:34Z</time>
      </trkpt>
      <trkpt lat="43.289890" lon="-8.410665">
        <ele>285.5</ele>
        <time>2011-06-25T10:40:35Z</time>
      </trkpt>
      <trkpt lat="43.289875" lon="-8.410667">
        <ele>285.0</ele>
        <time>2011-06-25T10:40:36Z</time>
      </trkpt>
      <trkpt lat="43.289862" lon="-8.410670">
        <ele>286.0</ele>
        <time>2011-06-25T10:40:37Z</time>
      </trkpt>
      <trkpt lat="43.289842" lon="-8.410680">
        <ele>286.5</ele>
        <time>2011-06-25T10:40:38Z</time>
      </trkpt>
      <trkpt lat="43.289828" lon="-8.410695">
        <ele>288.0</ele>
        <time>2011-06-25T10:40:39Z</time>
      </trkpt>
      <trkpt lat="43.289815" lon="-8.410707">
        <ele>289.0</ele>
        <time>2011-06-25T10:40:40Z</time>
      </trkpt>
      <trkpt lat="43.289798" lon="-8.410715">
        <ele>289.0</ele>
        <time>2011-06-25T10:40:41Z</time>
      </trkpt>
      <trkpt lat="43.289792" lon="-8.410725">
        <ele>289.5</ele>
        <time>2011-06-25T10:40:42Z</time>
      </trkpt>
      <trkpt lat="43.289782" lon="-8.410733">
        <ele>290.0</ele>
        <time>2011-06-25T10:40:43Z</time>
      </trkpt>
      <trkpt lat="43.289768" lon="-8.410742">
        <ele>289.5</ele>
        <time>2011-06-25T10:40:44Z</time>
      </trkpt>
      <trkpt lat="43.289755" lon="-8.410748">
        <ele>290.5</ele>
        <time>2011-06-25T10:40:45Z</time>
      </trkpt>
      <trkpt lat="43.289732" lon="-8.410752">
        <ele>290.5</ele>
        <time>2011-06-25T10:40:46Z</time>
      </trkpt>
      <trkpt lat="43.289712" lon="-8.410755">
        <ele>290.5</ele>
        <time>2011-06-25T10:40:47Z</time>
      </trkpt>
      <trkpt lat="43.289702" lon="-8.410762">
        <ele>291.0</ele>
        <time>2011-06-25T10:40:48Z</time>
      </trkpt>
      <trkpt lat="43.289693" lon="-8.410767">
        <ele>291.5</ele>
        <time>2011-06-25T10:40:49Z</time>
      </trkpt>
      <trkpt lat="43.289690" lon="-8.410768">
        <ele>292.0</ele>
        <time>2011-06-25T10:40:50Z</time>
      </trkpt>
      <trkpt lat="43.289687" lon="-8.410773">
        <ele>292.5</ele>
        <time>2011-06-25T10:40:51Z</time>
      </trkpt>
      <trkpt lat="43.289677" lon="-8.410770">
        <ele>292.5</ele>
        <time>2011-06-25T10:40:52Z</time>
      </trkpt>
      <trkpt lat="43.289668" lon="-8.410768">
        <ele>293.5</ele>
        <time>2011-06-25T10:40:53Z</time>
      </trkpt>
      <trkpt lat="43.289653" lon="-8.410765">
        <ele>293.5</ele>
        <time>2011-06-25T10:40:54Z</time>
      </trkpt>
      <trkpt lat="43.289642" lon="-8.410762">
        <ele>293.5</ele>
        <time>2011-06-25T10:40:55Z</time>
      </trkpt>
      <trkpt lat="43.289632" lon="-8.410762">
        <ele>293.5</ele>
        <time>2011-06-25T10:40:56Z</time>
      </trkpt>
      <trkpt lat="43.289627" lon="-8.410765">
        <ele>295.0</ele>
        <time>2011-06-25T10:40:57Z</time>
      </trkpt>
      <trkpt lat="43.289620" lon="-8.410763">
        <ele>295.5</ele>
        <time>2011-06-25T10:40:58Z</time>
      </trkpt>
      <trkpt lat="43.289615" lon="-8.410765">
        <ele>296.0</ele>
        <time>2011-06-25T10:40:59Z</time>
      </trkpt>
      <trkpt lat="43.289607" lon="-8.410768">
        <ele>296.5</ele>
        <time>2011-06-25T10:41:00Z</time>
      </trkpt>
      <trkpt lat="43.289605" lon="-8.410777">
        <ele>297.0</ele>
        <time>2011-06-25T10:41:01Z</time>
      </trkpt>
      <trkpt lat="43.289602" lon="-8.410788">
        <ele>297.5</ele>
        <time>2011-06-25T10:41:02Z</time>
      </trkpt>
      <trkpt lat="43.289600" lon="-8.410797">
        <ele>298.5</ele>
        <time>2011-06-25T10:41:03Z</time>
      </trkpt>
      <trkpt lat="43.289595" lon="-8.410802">
        <ele>299.5</ele>
        <time>2011-06-25T10:41:04Z</time>
      </trkpt>
      <trkpt lat="43.289593" lon="-8.410807">
        <ele>300.0</ele>
        <time>2011-06-25T10:41:05Z</time>
      </trkpt>
      <trkpt lat="43.289587" lon="-8.410813">
        <ele>300.5</ele>
        <time>2011-06-25T10:41:06Z</time>
      </trkpt>
      <trkpt lat="43.289587" lon="-8.410825">
        <ele>301.5</ele>
        <time>2011-06-25T10:41:07Z</time>
      </trkpt>
      <trkpt lat="43.289585" lon="-8.410837">
        <ele>302.5</ele>
        <time>2011-06-25T10:41:08Z</time>
      </trkpt>
      <trkpt lat="43.289583" lon="-8.410855">
        <ele>304.0</ele>
        <time>2011-06-25T10:41:09Z</time>
      </trkpt>
      <trkpt lat="43.289580" lon="-8.410875">
        <ele>304.0</ele>
        <time>2011-06-25T10:41:10Z</time>
      </trkpt>
      <trkpt lat="43.289575" lon="-8.410888">
        <ele>305.5</ele>
        <time>2011-06-25T10:41:11Z</time>
      </trkpt>
      <trkpt lat="43.289572" lon="-8.410902">
        <ele>307.5</ele>
        <time>2011-06-25T10:41:12Z</time>
      </trkpt>
      <trkpt lat="43.289572" lon="-8.410927">
        <ele>308.0</ele>
        <time>2011-06-25T10:41:13Z</time>
      </trkpt>
      <trkpt lat="43.289557" lon="-8.410942">
        <ele>308.5</ele>
        <time>2011-06-25T10:41:14Z</time>
      </trkpt>
      <trkpt lat="43.289542" lon="-8.410948">
        <ele>310.0</ele>
        <time>2011-06-25T10:41:15Z</time>
      </trkpt>
      <trkpt lat="43.289522" lon="-8.410952">
        <ele>311.0</ele>
        <time>2011-06-25T10:41:16Z</time>
      </trkpt>
      <trkpt lat="43.289510" lon="-8.410968">
        <ele>311.0</ele>
        <time>2011-06-25T10:41:17Z</time>
      </trkpt>
      <trkpt lat="43.289512" lon="-8.410987">
        <ele>312.5</ele>
        <time>2011-06-25T10:41:18Z</time>
      </trkpt>
      <trkpt lat="43.289503" lon="-8.411002">
        <ele>314.0</ele>
        <time>2011-06-25T10:41:19Z</time>
      </trkpt>
      <trkpt lat="43.289497" lon="-8.411022">
        <ele>315.5</ele>
        <time>2011-06-25T10:41:20Z</time>
      </trkpt>
      <trkpt lat="43.289487" lon="-8.411043">
        <ele>316.5</ele>
        <time>2011-06-25T10:41:21Z</time>
      </trkpt>
      <trkpt lat="43.289475" lon="-8.411063">
        <ele>316.5</ele>
        <time>2011-06-25T10:41:22Z</time>
      </trkpt>
      <trkpt lat="43.289458" lon="-8.411083">
        <ele>316.5</ele>
        <time>2011-06-25T10:41:23Z</time>
      </trkpt>
      <trkpt lat="43.289437" lon="-8.411102">
        <ele>316.0</ele>
        <time>2011-06-25T10:41:24Z</time>
      </trkpt>
      <trkpt lat="43.289408" lon="-8.411118">
        <ele>314.5</ele>
        <time>2011-06-25T10:41:25Z</time>
      </trkpt>
      <trkpt lat="43.289395" lon="-8.411150">
        <ele>313.5</ele>
        <time>2011-06-25T10:41:26Z</time>
      </trkpt>
      <trkpt lat="43.289313" lon="-8.411237">
        <ele>311.5</ele>
        <time>2011-06-25T10:41:28Z</time>
      </trkpt>
      <trkpt lat="43.289192" lon="-8.411318">
        <ele>308.0</ele>
        <time>2011-06-25T10:41:30Z</time>
      </trkpt>
      <trkpt lat="43.289137" lon="-8.411360">
        <ele>307.5</ele>
        <time>2011-06-25T10:41:31Z</time>
      </trkpt>
      <trkpt lat="43.289073" lon="-8.411393">
        <ele>306.0</ele>
        <time>2011-06-25T10:41:32Z</time>
      </trkpt>
      <trkpt lat="43.289020" lon="-8.411415">
        <ele>305.0</ele>
        <time>2011-06-25T10:41:33Z</time>
      </trkpt>
      <trkpt lat="43.288970" lon="-8.411432">
        <ele>304.0</ele>
        <time>2011-06-25T10:41:34Z</time>
      </trkpt>
      <trkpt lat="43.288937" lon="-8.411442">
        <ele>303.0</ele>
        <time>2011-06-25T10:41:35Z</time>
      </trkpt>
      <trkpt lat="43.288907" lon="-8.411452">
        <ele>301.0</ele>
        <time>2011-06-25T10:41:36Z</time>
      </trkpt>
      <trkpt lat="43.288887" lon="-8.411462">
        <ele>301.0</ele>
        <time>2011-06-25T10:41:37Z</time>
      </trkpt>
      <trkpt lat="43.288863" lon="-8.411468">
        <ele>300.5</ele>
        <time>2011-06-25T10:41:38Z</time>
      </trkpt>
      <trkpt lat="43.288847" lon="-8.411472">
        <ele>299.5</ele>
        <time>2011-06-25T10:41:39Z</time>
      </trkpt>
      <trkpt lat="43.288835" lon="-8.411472">
        <ele>299.0</ele>
        <time>2011-06-25T10:41:40Z</time>
      </trkpt>
      <trkpt lat="43.288827" lon="-8.411475">
        <ele>298.0</ele>
        <time>2011-06-25T10:41:41Z</time>
      </trkpt>
      <trkpt lat="43.288812" lon="-8.411482">
        <ele>297.0</ele>
        <time>2011-06-25T10:41:42Z</time>
      </trkpt>
      <trkpt lat="43.288797" lon="-8.411483">
        <ele>296.0</ele>
        <time>2011-06-25T10:41:43Z</time>
      </trkpt>
      <trkpt lat="43.288782" lon="-8.411483">
        <ele>294.5</ele>
        <time>2011-06-25T10:41:44Z</time>
      </trkpt>
      <trkpt lat="43.288777" lon="-8.411478">
        <ele>293.5</ele>
        <time>2011-06-25T10:41:45Z</time>
      </trkpt>
      <trkpt lat="43.288765" lon="-8.411472">
        <ele>293.0</ele>
        <time>2011-06-25T10:41:46Z</time>
      </trkpt>
      <trkpt lat="43.288753" lon="-8.411463">
        <ele>291.5</ele>
        <time>2011-06-25T10:41:47Z</time>
      </trkpt>
      <trkpt lat="43.288745" lon="-8.411452">
        <ele>290.5</ele>
        <time>2011-06-25T10:41:48Z</time>
      </trkpt>
      <trkpt lat="43.288743" lon="-8.411448">
        <ele>290.5</ele>
        <time>2011-06-25T10:41:49Z</time>
      </trkpt>
      <trkpt lat="43.288740" lon="-8.411447">
        <ele>291.0</ele>
        <time>2011-06-25T10:41:50Z</time>
      </trkpt>
      <trkpt lat="43.288690" lon="-8.411425">
        <ele>287.5</ele>
        <time>2011-06-25T10:41:52Z</time>
      </trkpt>
      <trkpt lat="43.288687" lon="-8.411423">
        <ele>287.5</ele>
        <time>2011-06-25T10:41:53Z</time>
      </trkpt>
      <trkpt lat="43.288650" lon="-8.411407">
        <ele>285.5</ele>
        <time>2011-06-25T10:41:55Z</time>
      </trkpt>
      <trkpt lat="43.288642" lon="-8.411407">
        <ele>285.0</ele>
        <time>2011-06-25T10:41:56Z</time>
      </trkpt>
      <trkpt lat="43.288630" lon="-8.411403">
        <ele>284.5</ele>
        <time>2011-06-25T10:41:57Z</time>
      </trkpt>
      <trkpt lat="43.288625" lon="-8.411400">
        <ele>284.0</ele>
        <time>2011-06-25T10:41:58Z</time>
      </trkpt>
      <trkpt lat="43.288622" lon="-8.411398">
        <ele>284.0</ele>
        <time>2011-06-25T10:41:59Z</time>
      </trkpt>
      <trkpt lat="43.288618" lon="-8.411398">
        <ele>283.5</ele>
        <time>2011-06-25T10:42:00Z</time>
      </trkpt>
      <trkpt lat="43.288617" lon="-8.411397">
        <ele>283.5</ele>
        <time>2011-06-25T10:42:01Z</time>
      </trkpt>
      <trkpt lat="43.288613" lon="-8.411397">
        <ele>283.5</ele>
        <time>2011-06-25T10:42:02Z</time>
      </trkpt>
      <trkpt lat="43.288612" lon="-8.411397">
        <ele>283.5</ele>
        <time>2011-06-25T10:42:03Z</time>
      </trkpt>
      <trkpt lat="43.288610" lon="-8.411397">
        <ele>283.5</ele>
        <time>2011-06-25T10:42:04Z</time>
      </trkpt>
      <trkpt lat="43.288608" lon="-8.411395">
        <ele>283.0</ele>
        <time>2011-06-25T10:42:05Z</time>
      </trkpt>
      <trkpt lat="43.288607" lon="-8.411395">
        <ele>283.0</ele>
        <time>2011-06-25T10:42:06Z</time>
      </trkpt>
      <trkpt lat="43.288607" lon="-8.411395">
        <ele>283.0</ele>
        <time>2011-06-25T10:42:07Z</time>
      </trkpt>
      <trkpt lat="43.288607" lon="-8.411395">
        <ele>283.0</ele>
        <time>2011-06-25T10:42:08Z</time>
      </trkpt>
      <trkpt lat="43.288607" lon="-8.411395">
        <ele>283.0</ele>
        <time>2011-06-25T10:42:09Z</time>
      </trkpt>
      <trkpt lat="43.288607" lon="-8.411395">
        <ele>283.0</ele>
        <time>2011-06-25T10:42:10Z</time>
      </trkpt>
      <trkpt lat="43.288605" lon="-8.411395">
        <ele>283.0</ele>
        <time>2011-06-25T10:42:11Z</time>
      </trkpt>
      <trkpt lat="43.288605" lon="-8.411395">
        <ele>283.0</ele>
        <time>2011-06-25T10:42:12Z</time>
      </trkpt>
      <trkpt lat="43.288605" lon="-8.411395">
        <ele>283.0</ele>
        <time>2011-06-25T10:42:13Z</time>
      </trkpt>
      <trkpt lat="43.288605" lon="-8.411393">
        <ele>283.0</ele>
        <time>2011-06-25T10:42:14Z</time>
      </trkpt>
      <trkpt lat="43.288605" lon="-8.411393">
        <ele>283.0</ele>
        <time>2011-06-25T10:42:15Z</time>
      </trkpt>
      <trkpt lat="43.288605" lon="-8.411393">
        <ele>283.0</ele>
        <time>2011-06-25T10:42:16Z</time>
      </trkpt>
      <trkpt lat="43.288605" lon="-8.411393">
        <ele>283.0</ele>
        <time>2011-06-25T10:42:17Z</time>
      </trkpt>
      <trkpt lat="43.288603" lon="-8.411393">
        <ele>283.0</ele>
        <time>2011-06-25T10:42:18Z</time>
      </trkpt>
      <trkpt lat="43.288603" lon="-8.411393">
        <ele>282.5</ele>
        <time>2011-06-25T10:42:19Z</time>
      </trkpt>
      <trkpt lat="43.288602" lon="-8.411393">
        <ele>282.5</ele>
        <time>2011-06-25T10:42:20Z</time>
      </trkpt>
      <trkpt lat="43.288602" lon="-8.411393">
        <ele>282.5</ele>
        <time>2011-06-25T10:42:21Z</time>
      </trkpt>
      <trkpt lat="43.288602" lon="-8.411393">
        <ele>282.5</ele>
        <time>2011-06-25T10:42:22Z</time>
      </trkpt>
      <trkpt lat="43.288602" lon="-8.411393">
        <ele>282.0</ele>
        <time>2011-06-25T10:42:23Z</time>
      </trkpt>
      <trkpt lat="43.288600" lon="-8.411393">
        <ele>282.0</ele>
        <time>2011-06-25T10:42:24Z</time>
      </trkpt>
      <trkpt lat="43.288600" lon="-8.411393">
        <ele>282.0</ele>
        <time>2011-06-25T10:42:25Z</time>
      </trkpt>
      <trkpt lat="43.288600" lon="-8.411393">
        <ele>281.5</ele>
        <time>2011-06-25T10:42:26Z</time>
      </trkpt>
      <trkpt lat="43.288598" lon="-8.411393">
        <ele>281.5</ele>
        <time>2011-06-25T10:42:27Z</time>
      </trkpt>
      <trkpt lat="43.288598" lon="-8.411393">
        <ele>281.5</ele>
        <time>2011-06-25T10:42:28Z</time>
      </trkpt>
      <trkpt lat="43.288598" lon="-8.411393">
        <ele>281.5</ele>
        <time>2011-06-25T10:42:29Z</time>
      </trkpt>
      <trkpt lat="43.288598" lon="-8.411392">
        <ele>281.0</ele>
        <time>2011-06-25T10:42:30Z</time>
      </trkpt>
      <trkpt lat="43.288598" lon="-8.411392">
        <ele>281.0</ele>
        <time>2011-06-25T10:42:31Z</time>
      </trkpt>
      <trkpt lat="43.288598" lon="-8.411392">
        <ele>281.0</ele>
        <time>2011-06-25T10:42:32Z</time>
      </trkpt>
      <trkpt lat="43.288598" lon="-8.411392">
        <ele>281.0</ele>
        <time>2011-06-25T10:42:33Z</time>
      </trkpt>
      <trkpt lat="43.288598" lon="-8.411392">
        <ele>281.0</ele>
        <time>2011-06-25T10:42:34Z</time>
      </trkpt>
      <trkpt lat="43.288597" lon="-8.411392">
        <ele>280.5</ele>
        <time>2011-06-25T10:42:35Z</time>
      </trkpt>
      <trkpt lat="43.288597" lon="-8.411392">
        <ele>280.5</ele>
        <time>2011-06-25T10:42:36Z</time>
      </trkpt>
      <trkpt lat="43.288597" lon="-8.411392">
        <ele>280.5</ele>
        <time>2011-06-25T10:42:37Z</time>
      </trkpt>
      <trkpt lat="43.288597" lon="-8.411392">
        <ele>280.5</ele>
        <time>2011-06-25T10:42:38Z</time>
      </trkpt>
      <trkpt lat="43.288597" lon="-8.411392">
        <ele>280.5</ele>
        <time>2011-06-25T10:42:39Z</time>
      </trkpt>
      <trkpt lat="43.288597" lon="-8.411392">
        <ele>280.5</ele>
        <time>2011-06-25T10:42:40Z</time>
      </trkpt>
      <trkpt lat="43.288597" lon="-8.411390">
        <ele>280.5</ele>
        <time>2011-06-25T10:42:41Z</time>
      </trkpt>
      <trkpt lat="43.288597" lon="-8.411390">
        <ele>280.0</ele>
        <time>2011-06-25T10:42:42Z</time>
      </trkpt>
      <trkpt lat="43.288597" lon="-8.411390">
        <ele>280.0</ele>
        <time>2011-06-25T10:42:43Z</time>
      </trkpt>
      <trkpt lat="43.288597" lon="-8.411390">
        <ele>280.0</ele>
        <time>2011-06-25T10:42:44Z</time>
      </trkpt>
      <trkpt lat="43.288597" lon="-8.411390">
        <ele>280.0</ele>
        <time>2011-06-25T10:42:45Z</time>
      </trkpt>
      <trkpt lat="43.288597" lon="-8.411390">
        <ele>280.0</ele>
        <time>2011-06-25T10:42:46Z</time>
      </trkpt>
      <trkpt lat="43.288597" lon="-8.411390">
        <ele>280.0</ele>
        <time>2011-06-25T10:42:47Z</time>
      </trkpt>
      <trkpt lat="43.288597" lon="-8.411390">
        <ele>280.0</ele>
        <time>2011-06-25T10:42:48Z</time>
      </trkpt>
      <trkpt lat="43.288597" lon="-8.411390">
        <ele>280.0</ele>
        <time>2011-06-25T10:42:49Z</time>
      </trkpt>
      <trkpt lat="43.288597" lon="-8.411390">
        <ele>280.0</ele>
        <time>2011-06-25T10:42:50Z</time>
      </trkpt>
      <trkpt lat="43.288597" lon="-8.411390">
        <ele>279.5</ele>
        <time>2011-06-25T10:42:51Z</time>
      </trkpt>
      <trkpt lat="43.288597" lon="-8.411390">
        <ele>279.5</ele>
        <time>2011-06-25T10:42:52Z</time>
      </trkpt>
      <trkpt lat="43.288597" lon="-8.411390">
        <ele>279.5</ele>
        <time>2011-06-25T10:42:53Z</time>
      </trkpt>
      <trkpt lat="43.288597" lon="-8.411390">
        <ele>279.5</ele>
        <time>2011-06-25T10:42:54Z</time>
      </trkpt>
      <trkpt lat="43.288597" lon="-8.411390">
        <ele>279.5</ele>
        <time>2011-06-25T10:42:55Z</time>
      </trkpt>
      <trkpt lat="43.288597" lon="-8.411390">
        <ele>279.5</ele>
        <time>2011-06-25T10:42:56Z</time>
      </trkpt>
      <trkpt lat="43.288597" lon="-8.411390">
        <ele>279.5</ele>
        <time>2011-06-25T10:42:57Z</time>
      </trkpt>
      <trkpt lat="43.288597" lon="-8.411390">
        <ele>279.5</ele>
        <time>2011-06-25T10:42:58Z</time>
      </trkpt>
      <trkpt lat="43.288595" lon="-8.411390">
        <ele>279.0</ele>
        <time>2011-06-25T10:42:59Z</time>
      </trkpt>
      <trkpt lat="43.288595" lon="-8.411390">
        <ele>279.0</ele>
        <time>2011-06-25T10:43:00Z</time>
      </trkpt>
      <trkpt lat="43.288595" lon="-8.411390">
        <ele>279.0</ele>
        <time>2011-06-25T10:43:01Z</time>
      </trkpt>
      <trkpt lat="43.288595" lon="-8.411390">
        <ele>279.0</ele>
        <time>2011-06-25T10:43:02Z</time>
      </trkpt>
      <trkpt lat="43.288595" lon="-8.411390">
        <ele>279.0</ele>
        <time>2011-06-25T10:43:03Z</time>
      </trkpt>
      <trkpt lat="43.288595" lon="-8.411390">
        <ele>279.0</ele>
        <time>2011-06-25T10:43:04Z</time>
      </trkpt>
      <trkpt lat="43.288595" lon="-8.411390">
        <ele>279.0</ele>
        <time>2011-06-25T10:43:05Z</time>
      </trkpt>
      <trkpt lat="43.288595" lon="-8.411390">
        <ele>279.0</ele>
        <time>2011-06-25T10:43:06Z</time>
      </trkpt>
      <trkpt lat="43.288595" lon="-8.411390">
        <ele>278.5</ele>
        <time>2011-06-25T10:43:07Z</time>
      </trkpt>
      <trkpt lat="43.288595" lon="-8.411390">
        <ele>278.5</ele>
        <time>2011-06-25T10:43:08Z</time>
      </trkpt>
      <trkpt lat="43.288595" lon="-8.411388">
        <ele>278.5</ele>
        <time>2011-06-25T10:43:09Z</time>
      </trkpt>
      <trkpt lat="43.288595" lon="-8.411388">
        <ele>278.5</ele>
        <time>2011-06-25T10:43:10Z</time>
      </trkpt>
      <trkpt lat="43.288595" lon="-8.411388">
        <ele>278.5</ele>
        <time>2011-06-25T10:43:11Z</time>
      </trkpt>
      <trkpt lat="43.288595" lon="-8.411388">
        <ele>278.5</ele>
        <time>2011-06-25T10:43:12Z</time>
      </trkpt>
      <trkpt lat="43.288595" lon="-8.411388">
        <ele>278.5</ele>
        <time>2011-06-25T10:43:13Z</time>
      </trkpt>
      <trkpt lat="43.288595" lon="-8.411388">
        <ele>278.0</ele>
        <time>2011-06-25T10:43:14Z</time>
      </trkpt>
    </trkseg>
  </trk>
  <trk>
    <name>T2067676-11</name>
    <cmt>saida con compañeiros do C.C.Arteixo polos arredores da Coruña</cmt>
    <desc>saida con compañeiros do C.C.Arteixo polos arredores da Coruña</desc>
    <trkseg>
      <trkpt lat="43.288595" lon="-8.411388">
        <ele>278.0</ele>
        <time>2011-06-25T10:43:15Z</time>
      </trkpt>
      <trkpt lat="43.288595" lon="-8.411388">
        <ele>278.0</ele>
        <time>2011-06-25T10:43:16Z</time>
      </trkpt>
      <trkpt lat="43.288597" lon="-8.411388">
        <ele>278.0</ele>
        <time>2011-06-25T10:43:17Z</time>
      </trkpt>
      <trkpt lat="43.288597" lon="-8.411388">
        <ele>278.0</ele>
        <time>2011-06-25T10:43:18Z</time>
      </trkpt>
      <trkpt lat="43.288597" lon="-8.411388">
        <ele>278.0</ele>
        <time>2011-06-25T10:43:19Z</time>
      </trkpt>
      <trkpt lat="43.288597" lon="-8.411388">
        <ele>278.0</ele>
        <time>2011-06-25T10:43:20Z</time>
      </trkpt>
      <trkpt lat="43.288597" lon="-8.411387">
        <ele>278.0</ele>
        <time>2011-06-25T10:43:21Z</time>
      </trkpt>
      <trkpt lat="43.288597" lon="-8.411387">
        <ele>278.0</ele>
        <time>2011-06-25T10:43:22Z</time>
      </trkpt>
      <trkpt lat="43.288597" lon="-8.411387">
        <ele>278.0</ele>
        <time>2011-06-25T10:43:23Z</time>
      </trkpt>
      <trkpt lat="43.288595" lon="-8.411387">
        <ele>278.0</ele>
        <time>2011-06-25T10:43:24Z</time>
      </trkpt>
      <trkpt lat="43.288597" lon="-8.411387">
        <ele>277.5</ele>
        <time>2011-06-25T10:43:25Z</time>
      </trkpt>
      <trkpt lat="43.288597" lon="-8.411387">
        <ele>277.5</ele>
        <time>2011-06-25T10:43:26Z</time>
      </trkpt>
      <trkpt lat="43.288597" lon="-8.411387">
        <ele>277.5</ele>
        <time>2011-06-25T10:43:27Z</time>
      </trkpt>
      <trkpt lat="43.288597" lon="-8.411387">
        <ele>277.5</ele>
        <time>2011-06-25T10:43:28Z</time>
      </trkpt>
      <trkpt lat="43.288597" lon="-8.411387">
        <ele>277.5</ele>
        <time>2011-06-25T10:43:29Z</time>
      </trkpt>
      <trkpt lat="43.288597" lon="-8.411387">
        <ele>277.5</ele>
        <time>2011-06-25T10:43:30Z</time>
      </trkpt>
      <trkpt lat="43.288597" lon="-8.411387">
        <ele>277.5</ele>
        <time>2011-06-25T10:43:31Z</time>
      </trkpt>
      <trkpt lat="43.288597" lon="-8.411387">
        <ele>277.5</ele>
        <time>2011-06-25T10:43:32Z</time>
      </trkpt>
      <trkpt lat="43.288597" lon="-8.411385">
        <ele>277.5</ele>
        <time>2011-06-25T10:43:33Z</time>
      </trkpt>
      <trkpt lat="43.288597" lon="-8.411385">
        <ele>277.5</ele>
        <time>2011-06-25T10:43:34Z</time>
      </trkpt>
      <trkpt lat="43.288597" lon="-8.411385">
        <ele>277.5</ele>
        <time>2011-06-25T10:43:35Z</time>
      </trkpt>
      <trkpt lat="43.288595" lon="-8.411385">
        <ele>277.5</ele>
        <time>2011-06-25T10:43:36Z</time>
      </trkpt>
      <trkpt lat="43.288595" lon="-8.411385">
        <ele>277.0</ele>
        <time>2011-06-25T10:43:37Z</time>
      </trkpt>
      <trkpt lat="43.288595" lon="-8.411385">
        <ele>277.0</ele>
        <time>2011-06-25T10:43:38Z</time>
      </trkpt>
      <trkpt lat="43.288595" lon="-8.411385">
        <ele>277.0</ele>
        <time>2011-06-25T10:43:39Z</time>
      </trkpt>
      <trkpt lat="43.288595" lon="-8.411385">
        <ele>277.0</ele>
        <time>2011-06-25T10:43:40Z</time>
      </trkpt>
      <trkpt lat="43.288595" lon="-8.411385">
        <ele>277.0</ele>
        <time>2011-06-25T10:43:41Z</time>
      </trkpt>
      <trkpt lat="43.288595" lon="-8.411385">
        <ele>277.0</ele>
        <time>2011-06-25T10:43:42Z</time>
      </trkpt>
      <trkpt lat="43.288595" lon="-8.411385">
        <ele>277.0</ele>
        <time>2011-06-25T10:43:43Z</time>
      </trkpt>
      <trkpt lat="43.288595" lon="-8.411385">
        <ele>277.0</ele>
        <time>2011-06-25T10:43:44Z</time>
      </trkpt>
      <trkpt lat="43.288595" lon="-8.411385">
        <ele>277.0</ele>
        <time>2011-06-25T10:43:45Z</time>
      </trkpt>
      <trkpt lat="43.288595" lon="-8.411385">
        <ele>276.5</ele>
        <time>2011-06-25T10:43:46Z</time>
      </trkpt>
      <trkpt lat="43.288597" lon="-8.411383">
        <ele>276.5</ele>
        <time>2011-06-25T10:43:47Z</time>
      </trkpt>
      <trkpt lat="43.288597" lon="-8.411383">
        <ele>276.5</ele>
        <time>2011-06-25T10:43:48Z</time>
      </trkpt>
      <trkpt lat="43.288597" lon="-8.411383">
        <ele>276.5</ele>
        <time>2011-06-25T10:43:49Z</time>
      </trkpt>
      <trkpt lat="43.288597" lon="-8.411383">
        <ele>276.5</ele>
        <time>2011-06-25T10:43:50Z</time>
      </trkpt>
      <trkpt lat="43.288597" lon="-8.411383">
        <ele>276.5</ele>
        <time>2011-06-25T10:43:51Z</time>
      </trkpt>
      <trkpt lat="43.288597" lon="-8.411383">
        <ele>276.5</ele>
        <time>2011-06-25T10:43:52Z</time>
      </trkpt>
      <trkpt lat="43.288597" lon="-8.411383">
        <ele>276.5</ele>
        <time>2011-06-25T10:43:53Z</time>
      </trkpt>
      <trkpt lat="43.288597" lon="-8.411383">
        <ele>276.0</ele>
        <time>2011-06-25T10:43:54Z</time>
      </trkpt>
      <trkpt lat="43.288597" lon="-8.411383">
        <ele>276.0</ele>
        <time>2011-06-25T10:43:55Z</time>
      </trkpt>
      <trkpt lat="43.288597" lon="-8.411383">
        <ele>276.0</ele>
        <time>2011-06-25T10:43:56Z</time>
      </trkpt>
      <trkpt lat="43.288597" lon="-8.411383">
        <ele>276.0</ele>
        <time>2011-06-25T10:43:57Z</time>
      </trkpt>
      <trkpt lat="43.288597" lon="-8.411382">
        <ele>276.0</ele>
        <time>2011-06-25T10:43:58Z</time>
      </trkpt>
      <trkpt lat="43.288597" lon="-8.411382">
        <ele>276.0</ele>
        <time>2011-06-25T10:43:59Z</time>
      </trkpt>
      <trkpt lat="43.288597" lon="-8.411382">
        <ele>276.0</ele>
        <time>2011-06-25T10:44:00Z</time>
      </trkpt>
      <trkpt lat="43.288597" lon="-8.411382">
        <ele>276.0</ele>
        <time>2011-06-25T10:44:01Z</time>
      </trkpt>
      <trkpt lat="43.288597" lon="-8.411382">
        <ele>275.5</ele>
        <time>2011-06-25T10:44:02Z</time>
      </trkpt>
      <trkpt lat="43.288597" lon="-8.411382">
        <ele>275.5</ele>
        <time>2011-06-25T10:44:03Z</time>
      </trkpt>
      <trkpt lat="43.288597" lon="-8.411382">
        <ele>275.5</ele>
        <time>2011-06-25T10:44:04Z</time>
      </trkpt>
      <trkpt lat="43.288597" lon="-8.411382">
        <ele>275.5</ele>
        <time>2011-06-25T10:44:05Z</time>
      </trkpt>
      <trkpt lat="43.288597" lon="-8.411382">
        <ele>275.5</ele>
        <time>2011-06-25T10:44:06Z</time>
      </trkpt>
      <trkpt lat="43.288597" lon="-8.411382">
        <ele>275.5</ele>
        <time>2011-06-25T10:44:07Z</time>
      </trkpt>
      <trkpt lat="43.288598" lon="-8.411382">
        <ele>275.5</ele>
        <time>2011-06-25T10:44:08Z</time>
      </trkpt>
      <trkpt lat="43.288598" lon="-8.411382">
        <ele>275.0</ele>
        <time>2011-06-25T10:44:09Z</time>
      </trkpt>
      <trkpt lat="43.288598" lon="-8.411382">
        <ele>275.0</ele>
        <time>2011-06-25T10:44:10Z</time>
      </trkpt>
      <trkpt lat="43.288598" lon="-8.411382">
        <ele>275.0</ele>
        <time>2011-06-25T10:44:11Z</time>
      </trkpt>
      <trkpt lat="43.288598" lon="-8.411382">
        <ele>275.0</ele>
        <time>2011-06-25T10:44:12Z</time>
      </trkpt>
      <trkpt lat="43.288598" lon="-8.411382">
        <ele>275.0</ele>
        <time>2011-06-25T10:44:13Z</time>
      </trkpt>
      <trkpt lat="43.288598" lon="-8.411382">
        <ele>275.0</ele>
        <time>2011-06-25T10:44:14Z</time>
      </trkpt>
      <trkpt lat="43.288598" lon="-8.411382">
        <ele>275.0</ele>
        <time>2011-06-25T10:44:15Z</time>
      </trkpt>
      <trkpt lat="43.288598" lon="-8.411380">
        <ele>275.0</ele>
        <time>2011-06-25T10:44:16Z</time>
      </trkpt>
      <trkpt lat="43.288598" lon="-8.411380">
        <ele>274.5</ele>
        <time>2011-06-25T10:44:17Z</time>
      </trkpt>
      <trkpt lat="43.288597" lon="-8.411380">
        <ele>274.5</ele>
        <time>2011-06-25T10:44:18Z</time>
      </trkpt>
      <trkpt lat="43.288593" lon="-8.411377">
        <ele>274.5</ele>
        <time>2011-06-25T10:44:19Z</time>
      </trkpt>
      <trkpt lat="43.288588" lon="-8.411375">
        <ele>274.5</ele>
        <time>2011-06-25T10:44:20Z</time>
      </trkpt>
      <trkpt lat="43.288588" lon="-8.411375">
        <ele>274.0</ele>
        <time>2011-06-25T10:44:21Z</time>
      </trkpt>
      <trkpt lat="43.288588" lon="-8.411373">
        <ele>273.5</ele>
        <time>2011-06-25T10:44:22Z</time>
      </trkpt>
      <trkpt lat="43.288588" lon="-8.411373">
        <ele>273.5</ele>
        <time>2011-06-25T10:44:23Z</time>
      </trkpt>
      <trkpt lat="43.288590" lon="-8.411373">
        <ele>273.5</ele>
        <time>2011-06-25T10:44:24Z</time>
      </trkpt>
      <trkpt lat="43.288590" lon="-8.411373">
        <ele>273.0</ele>
        <time>2011-06-25T10:44:25Z</time>
      </trkpt>
      <trkpt lat="43.288590" lon="-8.411373">
        <ele>273.0</ele>
        <time>2011-06-25T10:44:26Z</time>
      </trkpt>
      <trkpt lat="43.288590" lon="-8.411373">
        <ele>273.0</ele>
        <time>2011-06-25T10:44:27Z</time>
      </trkpt>
      <trkpt lat="43.288588" lon="-8.411373">
        <ele>273.0</ele>
        <time>2011-06-25T10:44:28Z</time>
      </trkpt>
      <trkpt lat="43.288588" lon="-8.411373">
        <ele>273.0</ele>
        <time>2011-06-25T10:44:29Z</time>
      </trkpt>
      <trkpt lat="43.288588" lon="-8.411373">
        <ele>273.0</ele>
        <time>2011-06-25T10:44:30Z</time>
      </trkpt>
      <trkpt lat="43.288588" lon="-8.411373">
        <ele>273.0</ele>
        <time>2011-06-25T10:44:31Z</time>
      </trkpt>
      <trkpt lat="43.288588" lon="-8.411373">
        <ele>273.0</ele>
        <time>2011-06-25T10:44:32Z</time>
      </trkpt>
      <trkpt lat="43.288588" lon="-8.411372">
        <ele>273.0</ele>
        <time>2011-06-25T10:44:33Z</time>
      </trkpt>
      <trkpt lat="43.288588" lon="-8.411372">
        <ele>273.0</ele>
        <time>2011-06-25T10:44:34Z</time>
      </trkpt>
      <trkpt lat="43.288588" lon="-8.411372">
        <ele>273.0</ele>
        <time>2011-06-25T10:44:35Z</time>
      </trkpt>
      <trkpt lat="43.288588" lon="-8.411372">
        <ele>273.0</ele>
        <time>2011-06-25T10:44:36Z</time>
      </trkpt>
      <trkpt lat="43.288588" lon="-8.411372">
        <ele>273.0</ele>
        <time>2011-06-25T10:44:37Z</time>
      </trkpt>
      <trkpt lat="43.288588" lon="-8.411372">
        <ele>272.5</ele>
        <time>2011-06-25T10:44:38Z</time>
      </trkpt>
      <trkpt lat="43.288587" lon="-8.411372">
        <ele>272.5</ele>
        <time>2011-06-25T10:44:39Z</time>
      </trkpt>
      <trkpt lat="43.288587" lon="-8.411372">
        <ele>273.0</ele>
        <time>2011-06-25T10:44:40Z</time>
      </trkpt>
      <trkpt lat="43.288587" lon="-8.411372">
        <ele>272.5</ele>
        <time>2011-06-25T10:44:41Z</time>
      </trkpt>
      <trkpt lat="43.288587" lon="-8.411372">
        <ele>272.5</ele>
        <time>2011-06-25T10:44:42Z</time>
      </trkpt>
      <trkpt lat="43.288587" lon="-8.411372">
        <ele>272.5</ele>
        <time>2011-06-25T10:44:43Z</time>
      </trkpt>
      <trkpt lat="43.288587" lon="-8.411372">
        <ele>272.5</ele>
        <time>2011-06-25T10:44:44Z</time>
      </trkpt>
      <trkpt lat="43.288585" lon="-8.411372">
        <ele>272.5</ele>
        <time>2011-06-25T10:44:45Z</time>
      </trkpt>
      <trkpt lat="43.288585" lon="-8.411370">
        <ele>272.5</ele>
        <time>2011-06-25T10:44:46Z</time>
      </trkpt>
      <trkpt lat="43.288585" lon="-8.411370">
        <ele>272.5</ele>
        <time>2011-06-25T10:44:47Z</time>
      </trkpt>
      <trkpt lat="43.288585" lon="-8.411370">
        <ele>272.5</ele>
        <time>2011-06-25T10:44:48Z</time>
      </trkpt>
      <trkpt lat="43.288585" lon="-8.411370">
        <ele>272.5</ele>
        <time>2011-06-25T10:44:49Z</time>
      </trkpt>
      <trkpt lat="43.288585" lon="-8.411370">
        <ele>272.5</ele>
        <time>2011-06-25T10:44:50Z</time>
      </trkpt>
      <trkpt lat="43.288585" lon="-8.411370">
        <ele>272.5</ele>
        <time>2011-06-25T10:44:51Z</time>
      </trkpt>
      <trkpt lat="43.288585" lon="-8.411370">
        <ele>272.5</ele>
        <time>2011-06-25T10:44:52Z</time>
      </trkpt>
      <trkpt lat="43.288585" lon="-8.411370">
        <ele>272.5</ele>
        <time>2011-06-25T10:44:53Z</time>
      </trkpt>
      <trkpt lat="43.288585" lon="-8.411370">
        <ele>272.5</ele>
        <time>2011-06-25T10:44:54Z</time>
      </trkpt>
      <trkpt lat="43.288585" lon="-8.411370">
        <ele>272.0</ele>
        <time>2011-06-25T10:44:55Z</time>
      </trkpt>
      <trkpt lat="43.288585" lon="-8.411370">
        <ele>272.0</ele>
        <time>2011-06-25T10:44:56Z</time>
      </trkpt>
      <trkpt lat="43.288585" lon="-8.411370">
        <ele>272.0</ele>
        <time>2011-06-25T10:44:57Z</time>
      </trkpt>
      <trkpt lat="43.288585" lon="-8.411370">
        <ele>272.0</ele>
        <time>2011-06-25T10:44:58Z</time>
      </trkpt>
      <trkpt lat="43.288585" lon="-8.411370">
        <ele>272.0</ele>
        <time>2011-06-25T10:44:59Z</time>
      </trkpt>
      <trkpt lat="43.288585" lon="-8.411370">
        <ele>272.0</ele>
        <time>2011-06-25T10:45:00Z</time>
      </trkpt>
      <trkpt lat="43.288585" lon="-8.411370">
        <ele>272.0</ele>
        <time>2011-06-25T10:45:01Z</time>
      </trkpt>
      <trkpt lat="43.288585" lon="-8.411370">
        <ele>272.0</ele>
        <time>2011-06-25T10:45:02Z</time>
      </trkpt>
      <trkpt lat="43.288585" lon="-8.411370">
        <ele>272.0</ele>
        <time>2011-06-25T10:45:03Z</time>
      </trkpt>
      <trkpt lat="43.288583" lon="-8.411370">
        <ele>272.0</ele>
        <time>2011-06-25T10:45:04Z</time>
      </trkpt>
      <trkpt lat="43.288585" lon="-8.411370">
        <ele>272.0</ele>
        <time>2011-06-25T10:45:05Z</time>
      </trkpt>
      <trkpt lat="43.288585" lon="-8.411370">
        <ele>272.0</ele>
        <time>2011-06-25T10:45:06Z</time>
      </trkpt>
      <trkpt lat="43.288585" lon="-8.411370">
        <ele>272.0</ele>
        <time>2011-06-25T10:45:07Z</time>
      </trkpt>
      <trkpt lat="43.288585" lon="-8.411370">
        <ele>272.0</ele>
        <time>2011-06-25T10:45:08Z</time>
      </trkpt>
      <trkpt lat="43.288585" lon="-8.411370">
        <ele>272.0</ele>
        <time>2011-06-25T10:45:09Z</time>
      </trkpt>
      <trkpt lat="43.288585" lon="-8.411370">
        <ele>272.0</ele>
        <time>2011-06-25T10:45:10Z</time>
      </trkpt>
      <trkpt lat="43.288585" lon="-8.411370">
        <ele>272.0</ele>
        <time>2011-06-25T10:45:11Z</time>
      </trkpt>
      <trkpt lat="43.288585" lon="-8.411370">
        <ele>271.5</ele>
        <time>2011-06-25T10:45:12Z</time>
      </trkpt>
      <trkpt lat="43.288585" lon="-8.411370">
        <ele>271.5</ele>
        <time>2011-06-25T10:45:13Z</time>
      </trkpt>
      <trkpt lat="43.288585" lon="-8.411370">
        <ele>271.5</ele>
        <time>2011-06-25T10:45:14Z</time>
      </trkpt>
      <trkpt lat="43.288583" lon="-8.411370">
        <ele>271.5</ele>
        <time>2011-06-25T10:45:15Z</time>
      </trkpt>
      <trkpt lat="43.288583" lon="-8.411370">
        <ele>271.5</ele>
        <time>2011-06-25T10:45:16Z</time>
      </trkpt>
      <trkpt lat="43.288583" lon="-8.411370">
        <ele>271.5</ele>
        <time>2011-06-25T10:45:17Z</time>
      </trkpt>
      <trkpt lat="43.288583" lon="-8.411370">
        <ele>271.5</ele>
        <time>2011-06-25T10:45:18Z</time>
      </trkpt>
      <trkpt lat="43.288582" lon="-8.411370">
        <ele>271.5</ele>
        <time>2011-06-25T10:45:19Z</time>
      </trkpt>
      <trkpt lat="43.288582" lon="-8.411370">
        <ele>271.5</ele>
        <time>2011-06-25T10:45:20Z</time>
      </trkpt>
      <trkpt lat="43.288582" lon="-8.411370">
        <ele>271.5</ele>
        <time>2011-06-25T10:45:21Z</time>
      </trkpt>
      <trkpt lat="43.288582" lon="-8.411370">
        <ele>271.5</ele>
        <time>2011-06-25T10:45:22Z</time>
      </trkpt>
      <trkpt lat="43.288580" lon="-8.411370">
        <ele>271.5</ele>
        <time>2011-06-25T10:45:23Z</time>
      </trkpt>
      <trkpt lat="43.288580" lon="-8.411370">
        <ele>271.5</ele>
        <time>2011-06-25T10:45:24Z</time>
      </trkpt>
      <trkpt lat="43.288578" lon="-8.411370">
        <ele>271.5</ele>
        <time>2011-06-25T10:45:25Z</time>
      </trkpt>
      <trkpt lat="43.288578" lon="-8.411370">
        <ele>271.5</ele>
        <time>2011-06-25T10:45:26Z</time>
      </trkpt>
      <trkpt lat="43.288577" lon="-8.411370">
        <ele>271.5</ele>
        <time>2011-06-25T10:45:27Z</time>
      </trkpt>
      <trkpt lat="43.288577" lon="-8.411370">
        <ele>271.5</ele>
        <time>2011-06-25T10:45:28Z</time>
      </trkpt>
      <trkpt lat="43.288577" lon="-8.411370">
        <ele>271.5</ele>
        <time>2011-06-25T10:45:29Z</time>
      </trkpt>
      <trkpt lat="43.288575" lon="-8.411370">
        <ele>271.5</ele>
        <time>2011-06-25T10:45:30Z</time>
      </trkpt>
      <trkpt lat="43.288575" lon="-8.411370">
        <ele>271.5</ele>
        <time>2011-06-25T10:45:31Z</time>
      </trkpt>
      <trkpt lat="43.288575" lon="-8.411370">
        <ele>271.5</ele>
        <time>2011-06-25T10:45:32Z</time>
      </trkpt>
      <trkpt lat="43.288573" lon="-8.411370">
        <ele>271.5</ele>
        <time>2011-06-25T10:45:33Z</time>
      </trkpt>
      <trkpt lat="43.288573" lon="-8.411370">
        <ele>271.5</ele>
        <time>2011-06-25T10:45:34Z</time>
      </trkpt>
      <trkpt lat="43.288573" lon="-8.411370">
        <ele>271.5</ele>
        <time>2011-06-25T10:45:35Z</time>
      </trkpt>
      <trkpt lat="43.288572" lon="-8.411370">
        <ele>271.5</ele>
        <time>2011-06-25T10:45:36Z</time>
      </trkpt>
      <trkpt lat="43.288572" lon="-8.411372">
        <ele>271.5</ele>
        <time>2011-06-25T10:45:37Z</time>
      </trkpt>
      <trkpt lat="43.288572" lon="-8.411372">
        <ele>271.5</ele>
        <time>2011-06-25T10:45:38Z</time>
      </trkpt>
      <trkpt lat="43.288570" lon="-8.411372">
        <ele>271.5</ele>
        <time>2011-06-25T10:45:39Z</time>
      </trkpt>
      <trkpt lat="43.288570" lon="-8.411372">
        <ele>271.5</ele>
        <time>2011-06-25T10:45:40Z</time>
      </trkpt>
      <trkpt lat="43.288570" lon="-8.411372">
        <ele>271.5</ele>
        <time>2011-06-25T10:45:41Z</time>
      </trkpt>
      <trkpt lat="43.288568" lon="-8.411372">
        <ele>271.5</ele>
        <time>2011-06-25T10:45:42Z</time>
      </trkpt>
      <trkpt lat="43.288568" lon="-8.411372">
        <ele>271.5</ele>
        <time>2011-06-25T10:45:43Z</time>
      </trkpt>
      <trkpt lat="43.288568" lon="-8.411372">
        <ele>271.5</ele>
        <time>2011-06-25T10:45:44Z</time>
      </trkpt>
      <trkpt lat="43.288568" lon="-8.411372">
        <ele>271.5</ele>
        <time>2011-06-25T10:45:45Z</time>
      </trkpt>
      <trkpt lat="43.288568" lon="-8.411372">
        <ele>271.5</ele>
        <time>2011-06-25T10:45:46Z</time>
      </trkpt>
      <trkpt lat="43.288568" lon="-8.411372">
        <ele>271.5</ele>
        <time>2011-06-25T10:45:47Z</time>
      </trkpt>
      <trkpt lat="43.288568" lon="-8.411372">
        <ele>271.5</ele>
        <time>2011-06-25T10:45:48Z</time>
      </trkpt>
      <trkpt lat="43.288567" lon="-8.411372">
        <ele>271.5</ele>
        <time>2011-06-25T10:45:49Z</time>
      </trkpt>
      <trkpt lat="43.288567" lon="-8.411372">
        <ele>271.5</ele>
        <time>2011-06-25T10:45:50Z</time>
      </trkpt>
      <trkpt lat="43.288567" lon="-8.411372">
        <ele>271.5</ele>
        <time>2011-06-25T10:45:51Z</time>
      </trkpt>
      <trkpt lat="43.288567" lon="-8.411372">
        <ele>271.5</ele>
        <time>2011-06-25T10:45:52Z</time>
      </trkpt>
      <trkpt lat="43.288567" lon="-8.411372">
        <ele>271.5</ele>
        <time>2011-06-25T10:45:53Z</time>
      </trkpt>
      <trkpt lat="43.288567" lon="-8.411372">
        <ele>271.5</ele>
        <time>2011-06-25T10:45:54Z</time>
      </trkpt>
      <trkpt lat="43.288565" lon="-8.411372">
        <ele>271.5</ele>
        <time>2011-06-25T10:45:55Z</time>
      </trkpt>
      <trkpt lat="43.288565" lon="-8.411372">
        <ele>271.5</ele>
        <time>2011-06-25T10:45:56Z</time>
      </trkpt>
      <trkpt lat="43.288565" lon="-8.411372">
        <ele>271.5</ele>
        <time>2011-06-25T10:45:57Z</time>
      </trkpt>
      <trkpt lat="43.288565" lon="-8.411372">
        <ele>271.5</ele>
        <time>2011-06-25T10:45:58Z</time>
      </trkpt>
      <trkpt lat="43.288565" lon="-8.411372">
        <ele>271.5</ele>
        <time>2011-06-25T10:45:59Z</time>
      </trkpt>
      <trkpt lat="43.288565" lon="-8.411372">
        <ele>271.5</ele>
        <time>2011-06-25T10:46:00Z</time>
      </trkpt>
      <trkpt lat="43.288565" lon="-8.411372">
        <ele>271.0</ele>
        <time>2011-06-25T10:46:01Z</time>
      </trkpt>
      <trkpt lat="43.288565" lon="-8.411372">
        <ele>271.0</ele>
        <time>2011-06-25T10:46:02Z</time>
      </trkpt>
      <trkpt lat="43.288565" lon="-8.411372">
        <ele>271.0</ele>
        <time>2011-06-25T10:46:03Z</time>
      </trkpt>
      <trkpt lat="43.288565" lon="-8.411372">
        <ele>271.0</ele>
        <time>2011-06-25T10:46:04Z</time>
      </trkpt>
      <trkpt lat="43.288565" lon="-8.411372">
        <ele>271.0</ele>
        <time>2011-06-25T10:46:05Z</time>
      </trkpt>
      <trkpt lat="43.288563" lon="-8.411372">
        <ele>271.0</ele>
        <time>2011-06-25T10:46:06Z</time>
      </trkpt>
      <trkpt lat="43.288563" lon="-8.411372">
        <ele>271.0</ele>
        <time>2011-06-25T10:46:07Z</time>
      </trkpt>
      <trkpt lat="43.288563" lon="-8.411372">
        <ele>271.0</ele>
        <time>2011-06-25T10:46:08Z</time>
      </trkpt>
      <trkpt lat="43.288563" lon="-8.411372">
        <ele>271.0</ele>
        <time>2011-06-25T10:46:09Z</time>
      </trkpt>
      <trkpt lat="43.288563" lon="-8.411372">
        <ele>271.0</ele>
        <time>2011-06-25T10:46:10Z</time>
      </trkpt>
      <trkpt lat="43.288563" lon="-8.411372">
        <ele>271.0</ele>
        <time>2011-06-25T10:46:11Z</time>
      </trkpt>
      <trkpt lat="43.288563" lon="-8.411372">
        <ele>271.0</ele>
        <time>2011-06-25T10:46:12Z</time>
      </trkpt>
      <trkpt lat="43.288562" lon="-8.411372">
        <ele>271.0</ele>
        <time>2011-06-25T10:46:13Z</time>
      </trkpt>
      <trkpt lat="43.288562" lon="-8.411372">
        <ele>271.0</ele>
        <time>2011-06-25T10:46:14Z</time>
      </trkpt>
      <trkpt lat="43.288562" lon="-8.411372">
        <ele>271.0</ele>
        <time>2011-06-25T10:46:15Z</time>
      </trkpt>
      <trkpt lat="43.288562" lon="-8.411372">
        <ele>271.0</ele>
        <time>2011-06-25T10:46:16Z</time>
      </trkpt>
      <trkpt lat="43.288562" lon="-8.411372">
        <ele>270.5</ele>
        <time>2011-06-25T10:46:17Z</time>
      </trkpt>
      <trkpt lat="43.288562" lon="-8.411372">
        <ele>270.5</ele>
        <time>2011-06-25T10:46:18Z</time>
      </trkpt>
      <trkpt lat="43.288562" lon="-8.411372">
        <ele>270.5</ele>
        <time>2011-06-25T10:46:19Z</time>
      </trkpt>
      <trkpt lat="43.288560" lon="-8.411372">
        <ele>270.5</ele>
        <time>2011-06-25T10:46:20Z</time>
      </trkpt>
      <trkpt lat="43.288560" lon="-8.411372">
        <ele>270.5</ele>
        <time>2011-06-25T10:46:21Z</time>
      </trkpt>
      <trkpt lat="43.288560" lon="-8.411372">
        <ele>270.5</ele>
        <time>2011-06-25T10:46:22Z</time>
      </trkpt>
      <trkpt lat="43.288560" lon="-8.411372">
        <ele>270.5</ele>
        <time>2011-06-25T10:46:23Z</time>
      </trkpt>
      <trkpt lat="43.288560" lon="-8.411372">
        <ele>270.5</ele>
        <time>2011-06-25T10:46:24Z</time>
      </trkpt>
      <trkpt lat="43.288560" lon="-8.411372">
        <ele>270.5</ele>
        <time>2011-06-25T10:46:25Z</time>
      </trkpt>
      <trkpt lat="43.288560" lon="-8.411372">
        <ele>270.5</ele>
        <time>2011-06-25T10:46:26Z</time>
      </trkpt>
      <trkpt lat="43.288560" lon="-8.411372">
        <ele>270.5</ele>
        <time>2011-06-25T10:46:27Z</time>
      </trkpt>
      <trkpt lat="43.288560" lon="-8.411372">
        <ele>270.5</ele>
        <time>2011-06-25T10:46:28Z</time>
      </trkpt>
      <trkpt lat="43.288560" lon="-8.411372">
        <ele>270.5</ele>
        <time>2011-06-25T10:46:29Z</time>
      </trkpt>
      <trkpt lat="43.288560" lon="-8.411372">
        <ele>270.0</ele>
        <time>2011-06-25T10:46:30Z</time>
      </trkpt>
      <trkpt lat="43.288560" lon="-8.411372">
        <ele>270.0</ele>
        <time>2011-06-25T10:46:31Z</time>
      </trkpt>
      <trkpt lat="43.288560" lon="-8.411372">
        <ele>270.0</ele>
        <time>2011-06-25T10:46:32Z</time>
      </trkpt>
      <trkpt lat="43.288560" lon="-8.411372">
        <ele>270.0</ele>
        <time>2011-06-25T10:46:33Z</time>
      </trkpt>
      <trkpt lat="43.288560" lon="-8.411372">
        <ele>270.0</ele>
        <time>2011-06-25T10:46:34Z</time>
      </trkpt>
      <trkpt lat="43.288560" lon="-8.411372">
        <ele>270.0</ele>
        <time>2011-06-25T10:46:35Z</time>
      </trkpt>
      <trkpt lat="43.288560" lon="-8.411372">
        <ele>270.0</ele>
        <time>2011-06-25T10:46:36Z</time>
      </trkpt>
      <trkpt lat="43.288560" lon="-8.411372">
        <ele>270.0</ele>
        <time>2011-06-25T10:46:37Z</time>
      </trkpt>
      <trkpt lat="43.288560" lon="-8.411372">
        <ele>270.0</ele>
        <time>2011-06-25T10:46:38Z</time>
      </trkpt>
      <trkpt lat="43.288560" lon="-8.411372">
        <ele>270.0</ele>
        <time>2011-06-25T10:46:39Z</time>
      </trkpt>
      <trkpt lat="43.288560" lon="-8.411372">
        <ele>270.0</ele>
        <time>2011-06-25T10:46:40Z</time>
      </trkpt>
      <trkpt lat="43.288560" lon="-8.411372">
        <ele>270.0</ele>
        <time>2011-06-25T10:46:41Z</time>
      </trkpt>
      <trkpt lat="43.288560" lon="-8.411372">
        <ele>270.0</ele>
        <time>2011-06-25T10:46:42Z</time>
      </trkpt>
      <trkpt lat="43.288560" lon="-8.411372">
        <ele>270.0</ele>
        <time>2011-06-25T10:46:43Z</time>
      </trkpt>
      <trkpt lat="43.288560" lon="-8.411372">
        <ele>270.0</ele>
        <time>2011-06-25T10:46:44Z</time>
      </trkpt>
      <trkpt lat="43.288560" lon="-8.411372">
        <ele>270.0</ele>
        <time>2011-06-25T10:46:45Z</time>
      </trkpt>
      <trkpt lat="43.288560" lon="-8.411372">
        <ele>269.5</ele>
        <time>2011-06-25T10:46:46Z</time>
      </trkpt>
      <trkpt lat="43.288560" lon="-8.411372">
        <ele>269.5</ele>
        <time>2011-06-25T10:46:47Z</time>
      </trkpt>
      <trkpt lat="43.288560" lon="-8.411372">
        <ele>269.5</ele>
        <time>2011-06-25T10:46:48Z</time>
      </trkpt>
      <trkpt lat="43.288560" lon="-8.411372">
        <ele>269.5</ele>
        <time>2011-06-25T10:46:49Z</time>
      </trkpt>
      <trkpt lat="43.288560" lon="-8.411372">
        <ele>269.5</ele>
        <time>2011-06-25T10:46:50Z</time>
      </trkpt>
      <trkpt lat="43.288560" lon="-8.411372">
        <ele>269.5</ele>
        <time>2011-06-25T10:46:51Z</time>
      </trkpt>
      <trkpt lat="43.288560" lon="-8.411372">
        <ele>269.5</ele>
        <time>2011-06-25T10:46:52Z</time>
      </trkpt>
      <trkpt lat="43.288558" lon="-8.411372">
        <ele>269.5</ele>
        <time>2011-06-25T10:46:53Z</time>
      </trkpt>
      <trkpt lat="43.288558" lon="-8.411372">
        <ele>269.5</ele>
        <time>2011-06-25T10:46:54Z</time>
      </trkpt>
      <trkpt lat="43.288558" lon="-8.411372">
        <ele>269.5</ele>
        <time>2011-06-25T10:46:55Z</time>
      </trkpt>
      <trkpt lat="43.288558" lon="-8.411372">
        <ele>269.5</ele>
        <time>2011-06-25T10:46:56Z</time>
      </trkpt>
      <trkpt lat="43.288558" lon="-8.411372">
        <ele>269.5</ele>
        <time>2011-06-25T10:46:57Z</time>
      </trkpt>
      <trkpt lat="43.288558" lon="-8.411370">
        <ele>269.5</ele>
        <time>2011-06-25T10:46:58Z</time>
      </trkpt>
      <trkpt lat="43.288558" lon="-8.411370">
        <ele>269.5</ele>
        <time>2011-06-25T10:46:59Z</time>
      </trkpt>
      <trkpt lat="43.288558" lon="-8.411370">
        <ele>269.5</ele>
        <time>2011-06-25T10:47:00Z</time>
      </trkpt>
      <trkpt lat="43.288558" lon="-8.411370">
        <ele>269.5</ele>
        <time>2011-06-25T10:47:01Z</time>
      </trkpt>
      <trkpt lat="43.288558" lon="-8.411370">
        <ele>269.5</ele>
        <time>2011-06-25T10:47:02Z</time>
      </trkpt>
      <trkpt lat="43.288558" lon="-8.411370">
        <ele>269.5</ele>
        <time>2011-06-25T10:47:03Z</time>
      </trkpt>
      <trkpt lat="43.288558" lon="-8.411370">
        <ele>269.5</ele>
        <time>2011-06-25T10:47:04Z</time>
      </trkpt>
      <trkpt lat="43.288558" lon="-8.411370">
        <ele>269.5</ele>
        <time>2011-06-25T10:47:05Z</time>
      </trkpt>
      <trkpt lat="43.288558" lon="-8.411370">
        <ele>269.0</ele>
        <time>2011-06-25T10:47:06Z</time>
      </trkpt>
      <trkpt lat="43.288558" lon="-8.411370">
        <ele>269.0</ele>
        <time>2011-06-25T10:47:07Z</time>
      </trkpt>
      <trkpt lat="43.288558" lon="-8.411370">
        <ele>269.0</ele>
        <time>2011-06-25T10:47:08Z</time>
      </trkpt>
      <trkpt lat="43.288558" lon="-8.411370">
        <ele>269.0</ele>
        <time>2011-06-25T10:47:09Z</time>
      </trkpt>
      <trkpt lat="43.288558" lon="-8.411370">
        <ele>269.0</ele>
        <time>2011-06-25T10:47:10Z</time>
      </trkpt>
      <trkpt lat="43.288558" lon="-8.411370">
        <ele>269.0</ele>
        <time>2011-06-25T10:47:11Z</time>
      </trkpt>
      <trkpt lat="43.288558" lon="-8.411370">
        <ele>269.0</ele>
        <time>2011-06-25T10:47:12Z</time>
      </trkpt>
      <trkpt lat="43.288558" lon="-8.411370">
        <ele>269.0</ele>
        <time>2011-06-25T10:47:13Z</time>
      </trkpt>
      <trkpt lat="43.288558" lon="-8.411370">
        <ele>269.0</ele>
        <time>2011-06-25T10:47:14Z</time>
      </trkpt>
      <trkpt lat="43.288558" lon="-8.411370">
        <ele>269.0</ele>
        <time>2011-06-25T10:47:15Z</time>
      </trkpt>
      <trkpt lat="43.288558" lon="-8.411370">
        <ele>269.0</ele>
        <time>2011-06-25T10:47:16Z</time>
      </trkpt>
      <trkpt lat="43.288558" lon="-8.411370">
        <ele>269.0</ele>
        <time>2011-06-25T10:47:17Z</time>
      </trkpt>
      <trkpt lat="43.288558" lon="-8.411370">
        <ele>269.0</ele>
        <time>2011-06-25T10:47:18Z</time>
      </trkpt>
      <trkpt lat="43.288558" lon="-8.411370">
        <ele>269.0</ele>
        <time>2011-06-25T10:47:19Z</time>
      </trkpt>
      <trkpt lat="43.288558" lon="-8.411370">
        <ele>269.0</ele>
        <time>2011-06-25T10:47:20Z</time>
      </trkpt>
      <trkpt lat="43.288558" lon="-8.411370">
        <ele>269.0</ele>
        <time>2011-06-25T10:47:21Z</time>
      </trkpt>
      <trkpt lat="43.288558" lon="-8.411370">
        <ele>269.0</ele>
        <time>2011-06-25T10:47:22Z</time>
      </trkpt>
      <trkpt lat="43.288558" lon="-8.411370">
        <ele>269.0</ele>
        <time>2011-06-25T10:47:23Z</time>
      </trkpt>
      <trkpt lat="43.288558" lon="-8.411370">
        <ele>269.0</ele>
        <time>2011-06-25T10:47:24Z</time>
      </trkpt>
      <trkpt lat="43.288558" lon="-8.411370">
        <ele>269.0</ele>
        <time>2011-06-25T10:47:25Z</time>
      </trkpt>
      <trkpt lat="43.288558" lon="-8.411370">
        <ele>269.0</ele>
        <time>2011-06-25T10:47:26Z</time>
      </trkpt>
      <trkpt lat="43.288558" lon="-8.411370">
        <ele>269.0</ele>
        <time>2011-06-25T10:47:27Z</time>
      </trkpt>
      <trkpt lat="43.288558" lon="-8.411370">
        <ele>268.5</ele>
        <time>2011-06-25T10:47:28Z</time>
      </trkpt>
      <trkpt lat="43.288558" lon="-8.411370">
        <ele>268.5</ele>
        <time>2011-06-25T10:47:29Z</time>
      </trkpt>
      <trkpt lat="43.288558" lon="-8.411370">
        <ele>268.5</ele>
        <time>2011-06-25T10:47:30Z</time>
      </trkpt>
      <trkpt lat="43.288558" lon="-8.411370">
        <ele>268.5</ele>
        <time>2011-06-25T10:47:31Z</time>
      </trkpt>
      <trkpt lat="43.288558" lon="-8.411370">
        <ele>268.5</ele>
        <time>2011-06-25T10:47:32Z</time>
      </trkpt>
      <trkpt lat="43.288558" lon="-8.411370">
        <ele>268.5</ele>
        <time>2011-06-25T10:47:33Z</time>
      </trkpt>
      <trkpt lat="43.288558" lon="-8.411370">
        <ele>268.5</ele>
        <time>2011-06-25T10:47:34Z</time>
      </trkpt>
      <trkpt lat="43.288558" lon="-8.411370">
        <ele>268.5</ele>
        <time>2011-06-25T10:47:35Z</time>
      </trkpt>
      <trkpt lat="43.288558" lon="-8.411370">
        <ele>268.5</ele>
        <time>2011-06-25T10:47:36Z</time>
      </trkpt>
      <trkpt lat="43.288558" lon="-8.411370">
        <ele>268.5</ele>
        <time>2011-06-25T10:47:37Z</time>
      </trkpt>
      <trkpt lat="43.288558" lon="-8.411370">
        <ele>268.5</ele>
        <time>2011-06-25T10:47:38Z</time>
      </trkpt>
      <trkpt lat="43.288558" lon="-8.411370">
        <ele>268.5</ele>
        <time>2011-06-25T10:47:39Z</time>
      </trkpt>
      <trkpt lat="43.288558" lon="-8.411370">
        <ele>268.5</ele>
        <time>2011-06-25T10:47:40Z</time>
      </trkpt>
      <trkpt lat="43.288558" lon="-8.411370">
        <ele>268.5</ele>
        <time>2011-06-25T10:47:41Z</time>
      </trkpt>
      <trkpt lat="43.288558" lon="-8.411370">
        <ele>268.5</ele>
        <time>2011-06-25T10:47:42Z</time>
      </trkpt>
      <trkpt lat="43.288558" lon="-8.411370">
        <ele>268.5</ele>
        <time>2011-06-25T10:47:43Z</time>
      </trkpt>
      <trkpt lat="43.288558" lon="-8.411370">
        <ele>268.5</ele>
        <time>2011-06-25T10:47:44Z</time>
      </trkpt>
      <trkpt lat="43.288558" lon="-8.411370">
        <ele>268.5</ele>
        <time>2011-06-25T10:47:45Z</time>
      </trkpt>
      <trkpt lat="43.288558" lon="-8.411370">
        <ele>268.5</ele>
        <time>2011-06-25T10:47:46Z</time>
      </trkpt>
      <trkpt lat="43.288558" lon="-8.411372">
        <ele>268.5</ele>
        <time>2011-06-25T10:47:47Z</time>
      </trkpt>
      <trkpt lat="43.288557" lon="-8.411372">
        <ele>268.5</ele>
        <time>2011-06-25T10:47:48Z</time>
      </trkpt>
      <trkpt lat="43.288557" lon="-8.411372">
        <ele>268.5</ele>
        <time>2011-06-25T10:47:49Z</time>
      </trkpt>
      <trkpt lat="43.288557" lon="-8.411372">
        <ele>268.5</ele>
        <time>2011-06-25T10:47:50Z</time>
      </trkpt>
      <trkpt lat="43.288557" lon="-8.411372">
        <ele>268.5</ele>
        <time>2011-06-25T10:47:51Z</time>
      </trkpt>
      <trkpt lat="43.288557" lon="-8.411372">
        <ele>268.0</ele>
        <time>2011-06-25T10:47:52Z</time>
      </trkpt>
      <trkpt lat="43.288557" lon="-8.411372">
        <ele>268.0</ele>
        <time>2011-06-25T10:47:53Z</time>
      </trkpt>
      <trkpt lat="43.288557" lon="-8.411372">
        <ele>268.0</ele>
        <time>2011-06-25T10:47:54Z</time>
      </trkpt>
      <trkpt lat="43.288557" lon="-8.411372">
        <ele>268.0</ele>
        <time>2011-06-25T10:47:55Z</time>
      </trkpt>
      <trkpt lat="43.288555" lon="-8.411372">
        <ele>268.0</ele>
        <time>2011-06-25T10:47:56Z</time>
      </trkpt>
      <trkpt lat="43.288555" lon="-8.411372">
        <ele>268.0</ele>
        <time>2011-06-25T10:47:57Z</time>
      </trkpt>
      <trkpt lat="43.288555" lon="-8.411372">
        <ele>268.0</ele>
        <time>2011-06-25T10:47:58Z</time>
      </trkpt>
      <trkpt lat="43.288555" lon="-8.411372">
        <ele>268.0</ele>
        <time>2011-06-25T10:47:59Z</time>
      </trkpt>
      <trkpt lat="43.288555" lon="-8.411372">
        <ele>268.0</ele>
        <time>2011-06-25T10:48:00Z</time>
      </trkpt>
      <trkpt lat="43.288555" lon="-8.411372">
        <ele>268.0</ele>
        <time>2011-06-25T10:48:01Z</time>
      </trkpt>
      <trkpt lat="43.288555" lon="-8.411372">
        <ele>268.0</ele>
        <time>2011-06-25T10:48:02Z</time>
      </trkpt>
      <trkpt lat="43.288555" lon="-8.411372">
        <ele>268.0</ele>
        <time>2011-06-25T10:48:03Z</time>
      </trkpt>
      <trkpt lat="43.288555" lon="-8.411372">
        <ele>268.0</ele>
        <time>2011-06-25T10:48:04Z</time>
      </trkpt>
      <trkpt lat="43.288553" lon="-8.411372">
        <ele>268.0</ele>
        <time>2011-06-25T10:48:05Z</time>
      </trkpt>
      <trkpt lat="43.288553" lon="-8.411372">
        <ele>268.0</ele>
        <time>2011-06-25T10:48:06Z</time>
      </trkpt>
      <trkpt lat="43.288553" lon="-8.411372">
        <ele>268.0</ele>
        <time>2011-06-25T10:48:07Z</time>
      </trkpt>
      <trkpt lat="43.288553" lon="-8.411372">
        <ele>268.0</ele>
        <time>2011-06-25T10:48:08Z</time>
      </trkpt>
      <trkpt lat="43.288553" lon="-8.411372">
        <ele>268.0</ele>
        <time>2011-06-25T10:48:09Z</time>
      </trkpt>
      <trkpt lat="43.288553" lon="-8.411372">
        <ele>268.0</ele>
        <time>2011-06-25T10:48:10Z</time>
      </trkpt>
      <trkpt lat="43.288553" lon="-8.411372">
        <ele>268.0</ele>
        <time>2011-06-25T10:48:11Z</time>
      </trkpt>
      <trkpt lat="43.288553" lon="-8.411372">
        <ele>268.0</ele>
        <time>2011-06-25T10:48:12Z</time>
      </trkpt>
      <trkpt lat="43.288553" lon="-8.411372">
        <ele>268.0</ele>
        <time>2011-06-25T10:48:13Z</time>
      </trkpt>
      <trkpt lat="43.288553" lon="-8.411372">
        <ele>268.0</ele>
        <time>2011-06-25T10:48:14Z</time>
      </trkpt>
      <trkpt lat="43.288553" lon="-8.411372">
        <ele>268.0</ele>
        <time>2011-06-25T10:48:15Z</time>
      </trkpt>
      <trkpt lat="43.288552" lon="-8.411372">
        <ele>268.0</ele>
        <time>2011-06-25T10:48:16Z</time>
      </trkpt>
      <trkpt lat="43.288552" lon="-8.411372">
        <ele>268.0</ele>
        <time>2011-06-25T10:48:17Z</time>
      </trkpt>
      <trkpt lat="43.288552" lon="-8.411372">
        <ele>268.0</ele>
        <time>2011-06-25T10:48:18Z</time>
      </trkpt>
      <trkpt lat="43.288552" lon="-8.411372">
        <ele>268.0</ele>
        <time>2011-06-25T10:48:19Z</time>
      </trkpt>
      <trkpt lat="43.288552" lon="-8.411372">
        <ele>268.0</ele>
        <time>2011-06-25T10:48:20Z</time>
      </trkpt>
      <trkpt lat="43.288552" lon="-8.411372">
        <ele>268.0</ele>
        <time>2011-06-25T10:48:21Z</time>
      </trkpt>
      <trkpt lat="43.288552" lon="-8.411372">
        <ele>268.0</ele>
        <time>2011-06-25T10:48:22Z</time>
      </trkpt>
      <trkpt lat="43.288552" lon="-8.411372">
        <ele>268.0</ele>
        <time>2011-06-25T10:48:23Z</time>
      </trkpt>
      <trkpt lat="43.288552" lon="-8.411372">
        <ele>268.0</ele>
        <time>2011-06-25T10:48:24Z</time>
      </trkpt>
      <trkpt lat="43.288552" lon="-8.411372">
        <ele>268.0</ele>
        <time>2011-06-25T10:48:25Z</time>
      </trkpt>
      <trkpt lat="43.288550" lon="-8.411372">
        <ele>268.0</ele>
        <time>2011-06-25T10:48:26Z</time>
      </trkpt>
      <trkpt lat="43.288550" lon="-8.411372">
        <ele>268.0</ele>
        <time>2011-06-25T10:48:28Z</time>
      </trkpt>
      <trkpt lat="43.288550" lon="-8.411372">
        <ele>268.0</ele>
        <time>2011-06-25T10:48:29Z</time>
      </trkpt>
      <trkpt lat="43.288550" lon="-8.411372">
        <ele>268.0</ele>
        <time>2011-06-25T10:48:30Z</time>
      </trkpt>
      <trkpt lat="43.288550" lon="-8.411372">
        <ele>268.0</ele>
        <time>2011-06-25T10:48:31Z</time>
      </trkpt>
      <trkpt lat="43.288550" lon="-8.411372">
        <ele>267.5</ele>
        <time>2011-06-25T10:48:32Z</time>
      </trkpt>
      <trkpt lat="43.288550" lon="-8.411372">
        <ele>267.5</ele>
        <time>2011-06-25T10:48:33Z</time>
      </trkpt>
      <trkpt lat="43.288550" lon="-8.411372">
        <ele>267.5</ele>
        <time>2011-06-25T10:48:34Z</time>
      </trkpt>
      <trkpt lat="43.288550" lon="-8.411372">
        <ele>267.5</ele>
        <time>2011-06-25T10:48:35Z</time>
      </trkpt>
      <trkpt lat="43.288548" lon="-8.411372">
        <ele>267.5</ele>
        <time>2011-06-25T10:48:36Z</time>
      </trkpt>
      <trkpt lat="43.288548" lon="-8.411372">
        <ele>267.5</ele>
        <time>2011-06-25T10:48:37Z</time>
      </trkpt>
      <trkpt lat="43.288548" lon="-8.411372">
        <ele>267.5</ele>
        <time>2011-06-25T10:48:38Z</time>
      </trkpt>
      <trkpt lat="43.288550" lon="-8.411372">
        <ele>267.5</ele>
        <time>2011-06-25T10:48:39Z</time>
      </trkpt>
      <trkpt lat="43.288548" lon="-8.411372">
        <ele>267.5</ele>
        <time>2011-06-25T10:48:40Z</time>
      </trkpt>
      <trkpt lat="43.288548" lon="-8.411372">
        <ele>267.5</ele>
        <time>2011-06-25T10:48:41Z</time>
      </trkpt>
      <trkpt lat="43.288548" lon="-8.411372">
        <ele>267.5</ele>
        <time>2011-06-25T10:48:42Z</time>
      </trkpt>
      <trkpt lat="43.288548" lon="-8.411372">
        <ele>267.5</ele>
        <time>2011-06-25T10:48:43Z</time>
      </trkpt>
      <trkpt lat="43.288548" lon="-8.411372">
        <ele>267.5</ele>
        <time>2011-06-25T10:48:44Z</time>
      </trkpt>
      <trkpt lat="43.288548" lon="-8.411372">
        <ele>267.5</ele>
        <time>2011-06-25T10:48:45Z</time>
      </trkpt>
      <trkpt lat="43.288548" lon="-8.411372">
        <ele>267.5</ele>
        <time>2011-06-25T10:48:46Z</time>
      </trkpt>
      <trkpt lat="43.288548" lon="-8.411372">
        <ele>267.5</ele>
        <time>2011-06-25T10:48:47Z</time>
      </trkpt>
      <trkpt lat="43.288548" lon="-8.411372">
        <ele>267.5</ele>
        <time>2011-06-25T10:48:48Z</time>
      </trkpt>
      <trkpt lat="43.288548" lon="-8.411372">
        <ele>267.5</ele>
        <time>2011-06-25T10:48:49Z</time>
      </trkpt>
      <trkpt lat="43.288548" lon="-8.411372">
        <ele>267.5</ele>
        <time>2011-06-25T10:48:50Z</time>
      </trkpt>
      <trkpt lat="43.288548" lon="-8.411372">
        <ele>267.5</ele>
        <time>2011-06-25T10:48:51Z</time>
      </trkpt>
      <trkpt lat="43.288548" lon="-8.411372">
        <ele>267.5</ele>
        <time>2011-06-25T10:48:52Z</time>
      </trkpt>
      <trkpt lat="43.288548" lon="-8.411372">
        <ele>267.5</ele>
        <time>2011-06-25T10:48:53Z</time>
      </trkpt>
      <trkpt lat="43.288548" lon="-8.411372">
        <ele>267.5</ele>
        <time>2011-06-25T10:48:54Z</time>
      </trkpt>
      <trkpt lat="43.288548" lon="-8.411372">
        <ele>267.5</ele>
        <time>2011-06-25T10:48:55Z</time>
      </trkpt>
      <trkpt lat="43.288548" lon="-8.411372">
        <ele>267.5</ele>
        <time>2011-06-25T10:48:56Z</time>
      </trkpt>
      <trkpt lat="43.288548" lon="-8.411372">
        <ele>267.5</ele>
        <time>2011-06-25T10:48:57Z</time>
      </trkpt>
      <trkpt lat="43.288548" lon="-8.411372">
        <ele>267.5</ele>
        <time>2011-06-25T10:48:58Z</time>
      </trkpt>
      <trkpt lat="43.288547" lon="-8.411372">
        <ele>267.5</ele>
        <time>2011-06-25T10:48:59Z</time>
      </trkpt>
      <trkpt lat="43.288547" lon="-8.411372">
        <ele>267.0</ele>
        <time>2011-06-25T10:49:00Z</time>
      </trkpt>
      <trkpt lat="43.288547" lon="-8.411372">
        <ele>267.0</ele>
        <time>2011-06-25T10:49:01Z</time>
      </trkpt>
      <trkpt lat="43.288547" lon="-8.411372">
        <ele>267.0</ele>
        <time>2011-06-25T10:49:02Z</time>
      </trkpt>
      <trkpt lat="43.288547" lon="-8.411372">
        <ele>267.0</ele>
        <time>2011-06-25T10:49:03Z</time>
      </trkpt>
      <trkpt lat="43.288547" lon="-8.411372">
        <ele>267.0</ele>
        <time>2011-06-25T10:49:04Z</time>
      </trkpt>
      <trkpt lat="43.288547" lon="-8.411372">
        <ele>267.0</ele>
        <time>2011-06-25T10:49:05Z</time>
      </trkpt>
      <trkpt lat="43.288547" lon="-8.411372">
        <ele>267.0</ele>
        <time>2011-06-25T10:49:06Z</time>
      </trkpt>
      <trkpt lat="43.288547" lon="-8.411372">
        <ele>267.0</ele>
        <time>2011-06-25T10:49:07Z</time>
      </trkpt>
      <trkpt lat="43.288547" lon="-8.411372">
        <ele>267.0</ele>
        <time>2011-06-25T10:49:08Z</time>
      </trkpt>
      <trkpt lat="43.288547" lon="-8.411372">
        <ele>267.0</ele>
        <time>2011-06-25T10:49:09Z</time>
      </trkpt>
      <trkpt lat="43.288547" lon="-8.411372">
        <ele>267.0</ele>
        <time>2011-06-25T10:49:10Z</time>
      </trkpt>
      <trkpt lat="43.288547" lon="-8.411372">
        <ele>267.0</ele>
        <time>2011-06-25T10:49:11Z</time>
      </trkpt>
      <trkpt lat="43.288547" lon="-8.411372">
        <ele>267.0</ele>
        <time>2011-06-25T10:49:12Z</time>
      </trkpt>
      <trkpt lat="43.288547" lon="-8.411372">
        <ele>267.0</ele>
        <time>2011-06-25T10:49:13Z</time>
      </trkpt>
      <trkpt lat="43.288547" lon="-8.411370">
        <ele>267.0</ele>
        <time>2011-06-25T10:49:14Z</time>
      </trkpt>
      <trkpt lat="43.288547" lon="-8.411370">
        <ele>267.0</ele>
        <time>2011-06-25T10:49:15Z</time>
      </trkpt>
      <trkpt lat="43.288547" lon="-8.411370">
        <ele>267.0</ele>
        <time>2011-06-25T10:49:16Z</time>
      </trkpt>
      <trkpt lat="43.288547" lon="-8.411370">
        <ele>267.0</ele>
        <time>2011-06-25T10:49:17Z</time>
      </trkpt>
      <trkpt lat="43.288547" lon="-8.411370">
        <ele>267.0</ele>
        <time>2011-06-25T10:49:18Z</time>
      </trkpt>
      <trkpt lat="43.288547" lon="-8.411370">
        <ele>267.0</ele>
        <time>2011-06-25T10:49:19Z</time>
      </trkpt>
      <trkpt lat="43.288547" lon="-8.411370">
        <ele>267.0</ele>
        <time>2011-06-25T10:49:20Z</time>
      </trkpt>
      <trkpt lat="43.288547" lon="-8.411370">
        <ele>267.0</ele>
        <time>2011-06-25T10:49:21Z</time>
      </trkpt>
      <trkpt lat="43.288547" lon="-8.411370">
        <ele>267.0</ele>
        <time>2011-06-25T10:49:22Z</time>
      </trkpt>
      <trkpt lat="43.288547" lon="-8.411370">
        <ele>267.0</ele>
        <time>2011-06-25T10:49:23Z</time>
      </trkpt>
      <trkpt lat="43.288547" lon="-8.411370">
        <ele>267.0</ele>
        <time>2011-06-25T10:49:24Z</time>
      </trkpt>
      <trkpt lat="43.288547" lon="-8.411370">
        <ele>266.5</ele>
        <time>2011-06-25T10:49:25Z</time>
      </trkpt>
      <trkpt lat="43.288547" lon="-8.411370">
        <ele>266.5</ele>
        <time>2011-06-25T10:49:26Z</time>
      </trkpt>
      <trkpt lat="43.288547" lon="-8.411370">
        <ele>266.5</ele>
        <time>2011-06-25T10:49:27Z</time>
      </trkpt>
      <trkpt lat="43.288547" lon="-8.411370">
        <ele>266.5</ele>
        <time>2011-06-25T10:49:28Z</time>
      </trkpt>
      <trkpt lat="43.288547" lon="-8.411370">
        <ele>266.5</ele>
        <time>2011-06-25T10:49:29Z</time>
      </trkpt>
      <trkpt lat="43.288547" lon="-8.411370">
        <ele>266.5</ele>
        <time>2011-06-25T10:49:30Z</time>
      </trkpt>
      <trkpt lat="43.288547" lon="-8.411370">
        <ele>266.5</ele>
        <time>2011-06-25T10:49:31Z</time>
      </trkpt>
      <trkpt lat="43.288547" lon="-8.411370">
        <ele>266.5</ele>
        <time>2011-06-25T10:49:32Z</time>
      </trkpt>
      <trkpt lat="43.288547" lon="-8.411370">
        <ele>266.5</ele>
        <time>2011-06-25T10:49:33Z</time>
      </trkpt>
      <trkpt lat="43.288547" lon="-8.411370">
        <ele>266.5</ele>
        <time>2011-06-25T10:49:34Z</time>
      </trkpt>
      <trkpt lat="43.288547" lon="-8.411370">
        <ele>266.5</ele>
        <time>2011-06-25T10:49:35Z</time>
      </trkpt>
      <trkpt lat="43.288547" lon="-8.411370">
        <ele>266.5</ele>
        <time>2011-06-25T10:49:36Z</time>
      </trkpt>
      <trkpt lat="43.288547" lon="-8.411370">
        <ele>266.5</ele>
        <time>2011-06-25T10:49:37Z</time>
      </trkpt>
      <trkpt lat="43.288547" lon="-8.411370">
        <ele>266.5</ele>
        <time>2011-06-25T10:49:38Z</time>
      </trkpt>
      <trkpt lat="43.288547" lon="-8.411370">
        <ele>266.5</ele>
        <time>2011-06-25T10:49:39Z</time>
      </trkpt>
      <trkpt lat="43.288547" lon="-8.411370">
        <ele>266.5</ele>
        <time>2011-06-25T10:49:40Z</time>
      </trkpt>
      <trkpt lat="43.288547" lon="-8.411368">
        <ele>266.5</ele>
        <time>2011-06-25T10:49:41Z</time>
      </trkpt>
      <trkpt lat="43.288547" lon="-8.411368">
        <ele>266.5</ele>
        <time>2011-06-25T10:49:42Z</time>
      </trkpt>
      <trkpt lat="43.288547" lon="-8.411368">
        <ele>266.5</ele>
        <time>2011-06-25T10:49:43Z</time>
      </trkpt>
      <trkpt lat="43.288545" lon="-8.411368">
        <ele>266.5</ele>
        <time>2011-06-25T10:49:44Z</time>
      </trkpt>
      <trkpt lat="43.288545" lon="-8.411368">
        <ele>266.5</ele>
        <time>2011-06-25T10:49:45Z</time>
      </trkpt>
      <trkpt lat="43.288545" lon="-8.411368">
        <ele>266.5</ele>
        <time>2011-06-25T10:49:46Z</time>
      </trkpt>
      <trkpt lat="43.288545" lon="-8.411368">
        <ele>266.5</ele>
        <time>2011-06-25T10:49:47Z</time>
      </trkpt>
      <trkpt lat="43.288545" lon="-8.411368">
        <ele>266.5</ele>
        <time>2011-06-25T10:49:48Z</time>
      </trkpt>
      <trkpt lat="43.288545" lon="-8.411368">
        <ele>266.5</ele>
        <time>2011-06-25T10:49:49Z</time>
      </trkpt>
      <trkpt lat="43.288545" lon="-8.411368">
        <ele>266.5</ele>
        <time>2011-06-25T10:49:50Z</time>
      </trkpt>
      <trkpt lat="43.288545" lon="-8.411368">
        <ele>266.5</ele>
        <time>2011-06-25T10:49:51Z</time>
      </trkpt>
      <trkpt lat="43.288545" lon="-8.411368">
        <ele>266.5</ele>
        <time>2011-06-25T10:49:52Z</time>
      </trkpt>
      <trkpt lat="43.288545" lon="-8.411368">
        <ele>266.5</ele>
        <time>2011-06-25T10:49:53Z</time>
      </trkpt>
      <trkpt lat="43.288545" lon="-8.411368">
        <ele>266.5</ele>
        <time>2011-06-25T10:49:54Z</time>
      </trkpt>
      <trkpt lat="43.288545" lon="-8.411368">
        <ele>266.5</ele>
        <time>2011-06-25T10:49:55Z</time>
      </trkpt>
      <trkpt lat="43.288545" lon="-8.411368">
        <ele>266.5</ele>
        <time>2011-06-25T10:49:56Z</time>
      </trkpt>
      <trkpt lat="43.288545" lon="-8.411368">
        <ele>266.0</ele>
        <time>2011-06-25T10:49:57Z</time>
      </trkpt>
      <trkpt lat="43.288545" lon="-8.411368">
        <ele>266.0</ele>
        <time>2011-06-25T10:49:58Z</time>
      </trkpt>
      <trkpt lat="43.288545" lon="-8.411368">
        <ele>266.0</ele>
        <time>2011-06-25T10:49:59Z</time>
      </trkpt>
      <trkpt lat="43.288545" lon="-8.411368">
        <ele>266.0</ele>
        <time>2011-06-25T10:50:00Z</time>
      </trkpt>
      <trkpt lat="43.288545" lon="-8.411368">
        <ele>266.0</ele>
        <time>2011-06-25T10:50:01Z</time>
      </trkpt>
      <trkpt lat="43.288543" lon="-8.411368">
        <ele>266.0</ele>
        <time>2011-06-25T10:50:02Z</time>
      </trkpt>
      <trkpt lat="43.288543" lon="-8.411368">
        <ele>266.0</ele>
        <time>2011-06-25T10:50:03Z</time>
      </trkpt>
      <trkpt lat="43.288543" lon="-8.411368">
        <ele>266.0</ele>
        <time>2011-06-25T10:50:04Z</time>
      </trkpt>
      <trkpt lat="43.288543" lon="-8.411368">
        <ele>266.0</ele>
        <time>2011-06-25T10:50:05Z</time>
      </trkpt>
      <trkpt lat="43.288543" lon="-8.411368">
        <ele>266.0</ele>
        <time>2011-06-25T10:50:06Z</time>
      </trkpt>
      <trkpt lat="43.288543" lon="-8.411368">
        <ele>266.0</ele>
        <time>2011-06-25T10:50:07Z</time>
      </trkpt>
      <trkpt lat="43.288543" lon="-8.411368">
        <ele>266.0</ele>
        <time>2011-06-25T10:50:08Z</time>
      </trkpt>
      <trkpt lat="43.288543" lon="-8.411368">
        <ele>266.0</ele>
        <time>2011-06-25T10:50:09Z</time>
      </trkpt>
      <trkpt lat="43.288543" lon="-8.411368">
        <ele>266.0</ele>
        <time>2011-06-25T10:50:10Z</time>
      </trkpt>
      <trkpt lat="43.288543" lon="-8.411368">
        <ele>266.0</ele>
        <time>2011-06-25T10:50:11Z</time>
      </trkpt>
      <trkpt lat="43.288543" lon="-8.411368">
        <ele>266.0</ele>
        <time>2011-06-25T10:50:12Z</time>
      </trkpt>
      <trkpt lat="43.288543" lon="-8.411368">
        <ele>266.0</ele>
        <time>2011-06-25T10:50:13Z</time>
      </trkpt>
      <trkpt lat="43.288543" lon="-8.411368">
        <ele>266.0</ele>
        <time>2011-06-25T10:50:14Z</time>
      </trkpt>
      <trkpt lat="43.288543" lon="-8.411368">
        <ele>266.0</ele>
        <time>2011-06-25T10:50:15Z</time>
      </trkpt>
      <trkpt lat="43.288542" lon="-8.411368">
        <ele>266.0</ele>
        <time>2011-06-25T10:50:16Z</time>
      </trkpt>
      <trkpt lat="43.288542" lon="-8.411368">
        <ele>266.0</ele>
        <time>2011-06-25T10:50:17Z</time>
      </trkpt>
      <trkpt lat="43.288542" lon="-8.411367">
        <ele>266.0</ele>
        <time>2011-06-25T10:50:18Z</time>
      </trkpt>
      <trkpt lat="43.288542" lon="-8.411367">
        <ele>266.0</ele>
        <time>2011-06-25T10:50:19Z</time>
      </trkpt>
      <trkpt lat="43.288542" lon="-8.411367">
        <ele>266.0</ele>
        <time>2011-06-25T10:50:20Z</time>
      </trkpt>
      <trkpt lat="43.288542" lon="-8.411367">
        <ele>266.0</ele>
        <time>2011-06-25T10:50:21Z</time>
      </trkpt>
      <trkpt lat="43.288542" lon="-8.411367">
        <ele>266.0</ele>
        <time>2011-06-25T10:50:22Z</time>
      </trkpt>
      <trkpt lat="43.288542" lon="-8.411367">
        <ele>266.0</ele>
        <time>2011-06-25T10:50:23Z</time>
      </trkpt>
      <trkpt lat="43.288542" lon="-8.411367">
        <ele>266.0</ele>
        <time>2011-06-25T10:50:24Z</time>
      </trkpt>
      <trkpt lat="43.288542" lon="-8.411367">
        <ele>266.0</ele>
        <time>2011-06-25T10:50:25Z</time>
      </trkpt>
      <trkpt lat="43.288542" lon="-8.411367">
        <ele>266.0</ele>
        <time>2011-06-25T10:50:26Z</time>
      </trkpt>
      <trkpt lat="43.288542" lon="-8.411367">
        <ele>266.0</ele>
        <time>2011-06-25T10:50:27Z</time>
      </trkpt>
      <trkpt lat="43.288542" lon="-8.411367">
        <ele>266.0</ele>
        <time>2011-06-25T10:50:28Z</time>
      </trkpt>
      <trkpt lat="43.288542" lon="-8.411367">
        <ele>266.0</ele>
        <time>2011-06-25T10:50:29Z</time>
      </trkpt>
      <trkpt lat="43.288542" lon="-8.411367">
        <ele>266.0</ele>
        <time>2011-06-25T10:50:30Z</time>
      </trkpt>
      <trkpt lat="43.288542" lon="-8.411367">
        <ele>266.0</ele>
        <time>2011-06-25T10:50:31Z</time>
      </trkpt>
      <trkpt lat="43.288542" lon="-8.411367">
        <ele>266.0</ele>
        <time>2011-06-25T10:50:32Z</time>
      </trkpt>
      <trkpt lat="43.288542" lon="-8.411367">
        <ele>266.0</ele>
        <time>2011-06-25T10:50:33Z</time>
      </trkpt>
      <trkpt lat="43.288542" lon="-8.411367">
        <ele>266.0</ele>
        <time>2011-06-25T10:50:34Z</time>
      </trkpt>
      <trkpt lat="43.288542" lon="-8.411367">
        <ele>266.0</ele>
        <time>2011-06-25T10:50:35Z</time>
      </trkpt>
      <trkpt lat="43.288542" lon="-8.411367">
        <ele>266.0</ele>
        <time>2011-06-25T10:50:36Z</time>
      </trkpt>
      <trkpt lat="43.288540" lon="-8.411367">
        <ele>266.0</ele>
        <time>2011-06-25T10:50:37Z</time>
      </trkpt>
      <trkpt lat="43.288540" lon="-8.411367">
        <ele>266.0</ele>
        <time>2011-06-25T10:50:38Z</time>
      </trkpt>
      <trkpt lat="43.288540" lon="-8.411367">
        <ele>266.0</ele>
        <time>2011-06-25T10:50:39Z</time>
      </trkpt>
      <trkpt lat="43.288540" lon="-8.411367">
        <ele>266.0</ele>
        <time>2011-06-25T10:50:40Z</time>
      </trkpt>
      <trkpt lat="43.288540" lon="-8.411367">
        <ele>266.0</ele>
        <time>2011-06-25T10:50:41Z</time>
      </trkpt>
      <trkpt lat="43.288540" lon="-8.411367">
        <ele>266.0</ele>
        <time>2011-06-25T10:50:42Z</time>
      </trkpt>
      <trkpt lat="43.288540" lon="-8.411367">
        <ele>266.0</ele>
        <time>2011-06-25T10:50:43Z</time>
      </trkpt>
      <trkpt lat="43.288540" lon="-8.411367">
        <ele>266.0</ele>
        <time>2011-06-25T10:50:44Z</time>
      </trkpt>
      <trkpt lat="43.288540" lon="-8.411367">
        <ele>266.0</ele>
        <time>2011-06-25T10:50:45Z</time>
      </trkpt>
      <trkpt lat="43.288540" lon="-8.411367">
        <ele>266.0</ele>
        <time>2011-06-25T10:50:46Z</time>
      </trkpt>
      <trkpt lat="43.288540" lon="-8.411367">
        <ele>266.0</ele>
        <time>2011-06-25T10:50:47Z</time>
      </trkpt>
      <trkpt lat="43.288540" lon="-8.411367">
        <ele>266.0</ele>
        <time>2011-06-25T10:50:48Z</time>
      </trkpt>
      <trkpt lat="43.288540" lon="-8.411367">
        <ele>266.0</ele>
        <time>2011-06-25T10:50:49Z</time>
      </trkpt>
      <trkpt lat="43.288540" lon="-8.411367">
        <ele>266.0</ele>
        <time>2011-06-25T10:50:50Z</time>
      </trkpt>
      <trkpt lat="43.288540" lon="-8.411367">
        <ele>266.0</ele>
        <time>2011-06-25T10:50:51Z</time>
      </trkpt>
      <trkpt lat="43.288540" lon="-8.411365">
        <ele>265.5</ele>
        <time>2011-06-25T10:50:52Z</time>
      </trkpt>
      <trkpt lat="43.288540" lon="-8.411365">
        <ele>265.5</ele>
        <time>2011-06-25T10:50:53Z</time>
      </trkpt>
      <trkpt lat="43.288538" lon="-8.411365">
        <ele>265.5</ele>
        <time>2011-06-25T10:50:54Z</time>
      </trkpt>
      <trkpt lat="43.288538" lon="-8.411365">
        <ele>265.5</ele>
        <time>2011-06-25T10:50:55Z</time>
      </trkpt>
      <trkpt lat="43.288538" lon="-8.411365">
        <ele>265.5</ele>
        <time>2011-06-25T10:50:56Z</time>
      </trkpt>
      <trkpt lat="43.288538" lon="-8.411365">
        <ele>265.5</ele>
        <time>2011-06-25T10:50:57Z</time>
      </trkpt>
      <trkpt lat="43.288538" lon="-8.411365">
        <ele>265.5</ele>
        <time>2011-06-25T10:50:58Z</time>
      </trkpt>
      <trkpt lat="43.288538" lon="-8.411365">
        <ele>265.5</ele>
        <time>2011-06-25T10:50:59Z</time>
      </trkpt>
      <trkpt lat="43.288538" lon="-8.411365">
        <ele>265.5</ele>
        <time>2011-06-25T10:51:00Z</time>
      </trkpt>
      <trkpt lat="43.288538" lon="-8.411365">
        <ele>265.5</ele>
        <time>2011-06-25T10:51:01Z</time>
      </trkpt>
      <trkpt lat="43.288538" lon="-8.411365">
        <ele>265.5</ele>
        <time>2011-06-25T10:51:02Z</time>
      </trkpt>
      <trkpt lat="43.288538" lon="-8.411365">
        <ele>265.5</ele>
        <time>2011-06-25T10:51:03Z</time>
      </trkpt>
      <trkpt lat="43.288538" lon="-8.411365">
        <ele>265.5</ele>
        <time>2011-06-25T10:51:04Z</time>
      </trkpt>
      <trkpt lat="43.288538" lon="-8.411365">
        <ele>265.5</ele>
        <time>2011-06-25T10:51:05Z</time>
      </trkpt>
      <trkpt lat="43.288538" lon="-8.411365">
        <ele>265.5</ele>
        <time>2011-06-25T10:51:06Z</time>
      </trkpt>
      <trkpt lat="43.288538" lon="-8.411365">
        <ele>265.5</ele>
        <time>2011-06-25T10:51:07Z</time>
      </trkpt>
      <trkpt lat="43.288538" lon="-8.411365">
        <ele>265.5</ele>
        <time>2011-06-25T10:51:08Z</time>
      </trkpt>
      <trkpt lat="43.288538" lon="-8.411365">
        <ele>265.5</ele>
        <time>2011-06-25T10:51:09Z</time>
      </trkpt>
      <trkpt lat="43.288538" lon="-8.411365">
        <ele>265.5</ele>
        <time>2011-06-25T10:51:10Z</time>
      </trkpt>
      <trkpt lat="43.288538" lon="-8.411363">
        <ele>265.5</ele>
        <time>2011-06-25T10:51:11Z</time>
      </trkpt>
      <trkpt lat="43.288538" lon="-8.411363">
        <ele>265.5</ele>
        <time>2011-06-25T10:51:12Z</time>
      </trkpt>
      <trkpt lat="43.288538" lon="-8.411363">
        <ele>265.5</ele>
        <time>2011-06-25T10:51:13Z</time>
      </trkpt>
      <trkpt lat="43.288538" lon="-8.411363">
        <ele>265.5</ele>
        <time>2011-06-25T10:51:14Z</time>
      </trkpt>
      <trkpt lat="43.288538" lon="-8.411363">
        <ele>265.5</ele>
        <time>2011-06-25T10:51:15Z</time>
      </trkpt>
      <trkpt lat="43.288538" lon="-8.411363">
        <ele>265.5</ele>
        <time>2011-06-25T10:51:16Z</time>
      </trkpt>
      <trkpt lat="43.288538" lon="-8.411363">
        <ele>265.5</ele>
        <time>2011-06-25T10:51:17Z</time>
      </trkpt>
      <trkpt lat="43.288538" lon="-8.411363">
        <ele>265.5</ele>
        <time>2011-06-25T10:51:18Z</time>
      </trkpt>
      <trkpt lat="43.288538" lon="-8.411363">
        <ele>265.5</ele>
        <time>2011-06-25T10:51:19Z</time>
      </trkpt>
      <trkpt lat="43.288538" lon="-8.411363">
        <ele>265.5</ele>
        <time>2011-06-25T10:51:20Z</time>
      </trkpt>
      <trkpt lat="43.288538" lon="-8.411363">
        <ele>265.0</ele>
        <time>2011-06-25T10:51:21Z</time>
      </trkpt>
      <trkpt lat="43.288538" lon="-8.411363">
        <ele>265.0</ele>
        <time>2011-06-25T10:51:22Z</time>
      </trkpt>
      <trkpt lat="43.288538" lon="-8.411363">
        <ele>265.0</ele>
        <time>2011-06-25T10:51:23Z</time>
      </trkpt>
      <trkpt lat="43.288538" lon="-8.411363">
        <ele>265.0</ele>
        <time>2011-06-25T10:51:24Z</time>
      </trkpt>
      <trkpt lat="43.288538" lon="-8.411363">
        <ele>265.0</ele>
        <time>2011-06-25T10:51:25Z</time>
      </trkpt>
      <trkpt lat="43.288538" lon="-8.411363">
        <ele>265.0</ele>
        <time>2011-06-25T10:51:26Z</time>
      </trkpt>
      <trkpt lat="43.288538" lon="-8.411363">
        <ele>265.0</ele>
        <time>2011-06-25T10:51:27Z</time>
      </trkpt>
      <trkpt lat="43.288538" lon="-8.411363">
        <ele>265.0</ele>
        <time>2011-06-25T10:51:28Z</time>
      </trkpt>
      <trkpt lat="43.288538" lon="-8.411363">
        <ele>265.0</ele>
        <time>2011-06-25T10:51:29Z</time>
      </trkpt>
      <trkpt lat="43.288538" lon="-8.411363">
        <ele>265.0</ele>
        <time>2011-06-25T10:51:30Z</time>
      </trkpt>
      <trkpt lat="43.288537" lon="-8.411363">
        <ele>265.0</ele>
        <time>2011-06-25T10:51:31Z</time>
      </trkpt>
      <trkpt lat="43.288537" lon="-8.411363">
        <ele>265.0</ele>
        <time>2011-06-25T10:51:32Z</time>
      </trkpt>
      <trkpt lat="43.288537" lon="-8.411363">
        <ele>265.0</ele>
        <time>2011-06-25T10:51:33Z</time>
      </trkpt>
      <trkpt lat="43.288537" lon="-8.411363">
        <ele>265.0</ele>
        <time>2011-06-25T10:51:34Z</time>
      </trkpt>
      <trkpt lat="43.288537" lon="-8.411363">
        <ele>265.0</ele>
        <time>2011-06-25T10:51:35Z</time>
      </trkpt>
    </trkseg>
  </trk>
  <trk>
    <name>T2067676-12</name>
    <cmt>saida con compañeiros do C.C.Arteixo polos arredores da Coruña</cmt>
    <desc>saida con compañeiros do C.C.Arteixo polos arredores da Coruña</desc>
    <trkseg>
      <trkpt lat="43.288537" lon="-8.411363">
        <ele>265.0</ele>
        <time>2011-06-25T10:51:36Z</time>
      </trkpt>
      <trkpt lat="43.288537" lon="-8.411363">
        <ele>265.0</ele>
        <time>2011-06-25T10:51:37Z</time>
      </trkpt>
      <trkpt lat="43.288537" lon="-8.411363">
        <ele>265.0</ele>
        <time>2011-06-25T10:51:38Z</time>
      </trkpt>
      <trkpt lat="43.288537" lon="-8.411363">
        <ele>265.0</ele>
        <time>2011-06-25T10:51:39Z</time>
      </trkpt>
      <trkpt lat="43.288537" lon="-8.411363">
        <ele>265.0</ele>
        <time>2011-06-25T10:51:40Z</time>
      </trkpt>
      <trkpt lat="43.288537" lon="-8.411363">
        <ele>265.0</ele>
        <time>2011-06-25T10:51:41Z</time>
      </trkpt>
      <trkpt lat="43.288537" lon="-8.411363">
        <ele>265.0</ele>
        <time>2011-06-25T10:51:42Z</time>
      </trkpt>
      <trkpt lat="43.288537" lon="-8.411363">
        <ele>265.0</ele>
        <time>2011-06-25T10:51:43Z</time>
      </trkpt>
      <trkpt lat="43.288537" lon="-8.411363">
        <ele>265.0</ele>
        <time>2011-06-25T10:51:44Z</time>
      </trkpt>
      <trkpt lat="43.288537" lon="-8.411363">
        <ele>265.0</ele>
        <time>2011-06-25T10:51:45Z</time>
      </trkpt>
      <trkpt lat="43.288537" lon="-8.411363">
        <ele>265.0</ele>
        <time>2011-06-25T10:51:46Z</time>
      </trkpt>
      <trkpt lat="43.288537" lon="-8.411363">
        <ele>265.0</ele>
        <time>2011-06-25T10:51:47Z</time>
      </trkpt>
      <trkpt lat="43.288535" lon="-8.411362">
        <ele>265.0</ele>
        <time>2011-06-25T10:51:48Z</time>
      </trkpt>
      <trkpt lat="43.288535" lon="-8.411362">
        <ele>265.0</ele>
        <time>2011-06-25T10:51:49Z</time>
      </trkpt>
      <trkpt lat="43.288535" lon="-8.411362">
        <ele>265.0</ele>
        <time>2011-06-25T10:51:50Z</time>
      </trkpt>
      <trkpt lat="43.288535" lon="-8.411362">
        <ele>265.0</ele>
        <time>2011-06-25T10:51:51Z</time>
      </trkpt>
      <trkpt lat="43.288535" lon="-8.411363">
        <ele>265.0</ele>
        <time>2011-06-25T10:51:52Z</time>
      </trkpt>
      <trkpt lat="43.288535" lon="-8.411362">
        <ele>265.0</ele>
        <time>2011-06-25T10:51:53Z</time>
      </trkpt>
      <trkpt lat="43.288535" lon="-8.411362">
        <ele>265.0</ele>
        <time>2011-06-25T10:51:54Z</time>
      </trkpt>
      <trkpt lat="43.288533" lon="-8.411363">
        <ele>265.0</ele>
        <time>2011-06-25T10:51:55Z</time>
      </trkpt>
      <trkpt lat="43.288533" lon="-8.411363">
        <ele>265.0</ele>
        <time>2011-06-25T10:51:56Z</time>
      </trkpt>
      <trkpt lat="43.288533" lon="-8.411363">
        <ele>265.5</ele>
        <time>2011-06-25T10:51:57Z</time>
      </trkpt>
      <trkpt lat="43.288533" lon="-8.411363">
        <ele>265.5</ele>
        <time>2011-06-25T10:51:58Z</time>
      </trkpt>
      <trkpt lat="43.288533" lon="-8.411363">
        <ele>265.5</ele>
        <time>2011-06-25T10:51:59Z</time>
      </trkpt>
      <trkpt lat="43.288533" lon="-8.411363">
        <ele>265.5</ele>
        <time>2011-06-25T10:52:00Z</time>
      </trkpt>
      <trkpt lat="43.288533" lon="-8.411363">
        <ele>265.5</ele>
        <time>2011-06-25T10:52:01Z</time>
      </trkpt>
      <trkpt lat="43.288532" lon="-8.411363">
        <ele>265.5</ele>
        <time>2011-06-25T10:52:02Z</time>
      </trkpt>
      <trkpt lat="43.288532" lon="-8.411363">
        <ele>265.5</ele>
        <time>2011-06-25T10:52:03Z</time>
      </trkpt>
      <trkpt lat="43.288532" lon="-8.411363">
        <ele>265.5</ele>
        <time>2011-06-25T10:52:04Z</time>
      </trkpt>
      <trkpt lat="43.288532" lon="-8.411363">
        <ele>265.5</ele>
        <time>2011-06-25T10:52:05Z</time>
      </trkpt>
      <trkpt lat="43.288532" lon="-8.411363">
        <ele>265.5</ele>
        <time>2011-06-25T10:52:06Z</time>
      </trkpt>
      <trkpt lat="43.288532" lon="-8.411363">
        <ele>265.5</ele>
        <time>2011-06-25T10:52:07Z</time>
      </trkpt>
      <trkpt lat="43.288532" lon="-8.411363">
        <ele>265.5</ele>
        <time>2011-06-25T10:52:08Z</time>
      </trkpt>
      <trkpt lat="43.288530" lon="-8.411363">
        <ele>265.5</ele>
        <time>2011-06-25T10:52:09Z</time>
      </trkpt>
      <trkpt lat="43.288530" lon="-8.411363">
        <ele>265.5</ele>
        <time>2011-06-25T10:52:10Z</time>
      </trkpt>
      <trkpt lat="43.288530" lon="-8.411363">
        <ele>265.5</ele>
        <time>2011-06-25T10:52:11Z</time>
      </trkpt>
      <trkpt lat="43.288530" lon="-8.411363">
        <ele>265.5</ele>
        <time>2011-06-25T10:52:12Z</time>
      </trkpt>
      <trkpt lat="43.288530" lon="-8.411363">
        <ele>265.5</ele>
        <time>2011-06-25T10:52:13Z</time>
      </trkpt>
      <trkpt lat="43.288530" lon="-8.411363">
        <ele>265.5</ele>
        <time>2011-06-25T10:52:14Z</time>
      </trkpt>
      <trkpt lat="43.288530" lon="-8.411363">
        <ele>265.5</ele>
        <time>2011-06-25T10:52:15Z</time>
      </trkpt>
      <trkpt lat="43.288530" lon="-8.411363">
        <ele>265.5</ele>
        <time>2011-06-25T10:52:16Z</time>
      </trkpt>
      <trkpt lat="43.288530" lon="-8.411363">
        <ele>265.5</ele>
        <time>2011-06-25T10:52:17Z</time>
      </trkpt>
      <trkpt lat="43.288530" lon="-8.411363">
        <ele>265.5</ele>
        <time>2011-06-25T10:52:18Z</time>
      </trkpt>
      <trkpt lat="43.288530" lon="-8.411363">
        <ele>265.5</ele>
        <time>2011-06-25T10:52:19Z</time>
      </trkpt>
      <trkpt lat="43.288530" lon="-8.411363">
        <ele>265.5</ele>
        <time>2011-06-25T10:52:20Z</time>
      </trkpt>
      <trkpt lat="43.288530" lon="-8.411363">
        <ele>265.5</ele>
        <time>2011-06-25T10:52:21Z</time>
      </trkpt>
      <trkpt lat="43.288530" lon="-8.411363">
        <ele>265.5</ele>
        <time>2011-06-25T10:52:22Z</time>
      </trkpt>
      <trkpt lat="43.288530" lon="-8.411363">
        <ele>265.5</ele>
        <time>2011-06-25T10:52:23Z</time>
      </trkpt>
      <trkpt lat="43.288530" lon="-8.411363">
        <ele>265.5</ele>
        <time>2011-06-25T10:52:24Z</time>
      </trkpt>
      <trkpt lat="43.288530" lon="-8.411363">
        <ele>265.5</ele>
        <time>2011-06-25T10:52:25Z</time>
      </trkpt>
      <trkpt lat="43.288530" lon="-8.411363">
        <ele>265.5</ele>
        <time>2011-06-25T10:52:26Z</time>
      </trkpt>
      <trkpt lat="43.288530" lon="-8.411363">
        <ele>265.5</ele>
        <time>2011-06-25T10:52:27Z</time>
      </trkpt>
      <trkpt lat="43.288528" lon="-8.411363">
        <ele>265.5</ele>
        <time>2011-06-25T10:52:28Z</time>
      </trkpt>
      <trkpt lat="43.288528" lon="-8.411363">
        <ele>265.5</ele>
        <time>2011-06-25T10:52:29Z</time>
      </trkpt>
      <trkpt lat="43.288528" lon="-8.411363">
        <ele>265.5</ele>
        <time>2011-06-25T10:52:30Z</time>
      </trkpt>
      <trkpt lat="43.288528" lon="-8.411363">
        <ele>265.5</ele>
        <time>2011-06-25T10:52:31Z</time>
      </trkpt>
      <trkpt lat="43.288527" lon="-8.411363">
        <ele>265.5</ele>
        <time>2011-06-25T10:52:32Z</time>
      </trkpt>
      <trkpt lat="43.288527" lon="-8.411363">
        <ele>265.5</ele>
        <time>2011-06-25T10:52:33Z</time>
      </trkpt>
      <trkpt lat="43.288527" lon="-8.411363">
        <ele>265.5</ele>
        <time>2011-06-25T10:52:34Z</time>
      </trkpt>
      <trkpt lat="43.288527" lon="-8.411363">
        <ele>265.5</ele>
        <time>2011-06-25T10:52:35Z</time>
      </trkpt>
      <trkpt lat="43.288527" lon="-8.411363">
        <ele>265.5</ele>
        <time>2011-06-25T10:52:36Z</time>
      </trkpt>
      <trkpt lat="43.288527" lon="-8.411363">
        <ele>265.5</ele>
        <time>2011-06-25T10:52:37Z</time>
      </trkpt>
      <trkpt lat="43.288527" lon="-8.411365">
        <ele>265.5</ele>
        <time>2011-06-25T10:52:38Z</time>
      </trkpt>
      <trkpt lat="43.288527" lon="-8.411365">
        <ele>265.5</ele>
        <time>2011-06-25T10:52:39Z</time>
      </trkpt>
      <trkpt lat="43.288527" lon="-8.411365">
        <ele>265.5</ele>
        <time>2011-06-25T10:52:40Z</time>
      </trkpt>
      <trkpt lat="43.288527" lon="-8.411365">
        <ele>265.5</ele>
        <time>2011-06-25T10:52:41Z</time>
      </trkpt>
      <trkpt lat="43.288527" lon="-8.411365">
        <ele>265.5</ele>
        <time>2011-06-25T10:52:42Z</time>
      </trkpt>
      <trkpt lat="43.288527" lon="-8.411365">
        <ele>265.5</ele>
        <time>2011-06-25T10:52:43Z</time>
      </trkpt>
      <trkpt lat="43.288527" lon="-8.411365">
        <ele>265.5</ele>
        <time>2011-06-25T10:52:44Z</time>
      </trkpt>
      <trkpt lat="43.288525" lon="-8.411365">
        <ele>265.5</ele>
        <time>2011-06-25T10:52:45Z</time>
      </trkpt>
      <trkpt lat="43.288525" lon="-8.411365">
        <ele>265.5</ele>
        <time>2011-06-25T10:52:46Z</time>
      </trkpt>
      <trkpt lat="43.288525" lon="-8.411365">
        <ele>265.5</ele>
        <time>2011-06-25T10:52:47Z</time>
      </trkpt>
      <trkpt lat="43.288525" lon="-8.411365">
        <ele>265.5</ele>
        <time>2011-06-25T10:52:48Z</time>
      </trkpt>
      <trkpt lat="43.288525" lon="-8.411365">
        <ele>265.5</ele>
        <time>2011-06-25T10:52:49Z</time>
      </trkpt>
      <trkpt lat="43.288523" lon="-8.411365">
        <ele>265.5</ele>
        <time>2011-06-25T10:52:50Z</time>
      </trkpt>
      <trkpt lat="43.288523" lon="-8.411365">
        <ele>265.5</ele>
        <time>2011-06-25T10:52:51Z</time>
      </trkpt>
      <trkpt lat="43.288523" lon="-8.411365">
        <ele>265.5</ele>
        <time>2011-06-25T10:52:52Z</time>
      </trkpt>
      <trkpt lat="43.288523" lon="-8.411365">
        <ele>266.0</ele>
        <time>2011-06-25T10:52:53Z</time>
      </trkpt>
      <trkpt lat="43.288523" lon="-8.411365">
        <ele>266.0</ele>
        <time>2011-06-25T10:52:54Z</time>
      </trkpt>
      <trkpt lat="43.288522" lon="-8.411365">
        <ele>266.0</ele>
        <time>2011-06-25T10:52:55Z</time>
      </trkpt>
      <trkpt lat="43.288522" lon="-8.411365">
        <ele>266.0</ele>
        <time>2011-06-25T10:52:56Z</time>
      </trkpt>
      <trkpt lat="43.288522" lon="-8.411365">
        <ele>266.0</ele>
        <time>2011-06-25T10:52:57Z</time>
      </trkpt>
      <trkpt lat="43.288522" lon="-8.411365">
        <ele>266.0</ele>
        <time>2011-06-25T10:52:58Z</time>
      </trkpt>
      <trkpt lat="43.288522" lon="-8.411365">
        <ele>266.0</ele>
        <time>2011-06-25T10:52:59Z</time>
      </trkpt>
      <trkpt lat="43.288522" lon="-8.411365">
        <ele>266.0</ele>
        <time>2011-06-25T10:53:00Z</time>
      </trkpt>
      <trkpt lat="43.288522" lon="-8.411365">
        <ele>266.0</ele>
        <time>2011-06-25T10:53:01Z</time>
      </trkpt>
      <trkpt lat="43.288522" lon="-8.411365">
        <ele>266.0</ele>
        <time>2011-06-25T10:53:02Z</time>
      </trkpt>
      <trkpt lat="43.288522" lon="-8.411365">
        <ele>266.0</ele>
        <time>2011-06-25T10:53:03Z</time>
      </trkpt>
      <trkpt lat="43.288522" lon="-8.411365">
        <ele>266.0</ele>
        <time>2011-06-25T10:53:04Z</time>
      </trkpt>
      <trkpt lat="43.288520" lon="-8.411365">
        <ele>266.0</ele>
        <time>2011-06-25T10:53:05Z</time>
      </trkpt>
      <trkpt lat="43.288520" lon="-8.411365">
        <ele>266.0</ele>
        <time>2011-06-25T10:53:06Z</time>
      </trkpt>
      <trkpt lat="43.288520" lon="-8.411365">
        <ele>266.0</ele>
        <time>2011-06-25T10:53:07Z</time>
      </trkpt>
      <trkpt lat="43.288520" lon="-8.411365">
        <ele>266.0</ele>
        <time>2011-06-25T10:53:08Z</time>
      </trkpt>
      <trkpt lat="43.288520" lon="-8.411365">
        <ele>266.0</ele>
        <time>2011-06-25T10:53:09Z</time>
      </trkpt>
      <trkpt lat="43.288520" lon="-8.411365">
        <ele>266.0</ele>
        <time>2011-06-25T10:53:10Z</time>
      </trkpt>
      <trkpt lat="43.288520" lon="-8.411365">
        <ele>266.0</ele>
        <time>2011-06-25T10:53:11Z</time>
      </trkpt>
      <trkpt lat="43.288520" lon="-8.411365">
        <ele>266.0</ele>
        <time>2011-06-25T10:53:12Z</time>
      </trkpt>
      <trkpt lat="43.288518" lon="-8.411363">
        <ele>266.0</ele>
        <time>2011-06-25T10:53:13Z</time>
      </trkpt>
      <trkpt lat="43.288518" lon="-8.411363">
        <ele>266.0</ele>
        <time>2011-06-25T10:53:14Z</time>
      </trkpt>
      <trkpt lat="43.288518" lon="-8.411363">
        <ele>266.0</ele>
        <time>2011-06-25T10:53:15Z</time>
      </trkpt>
      <trkpt lat="43.288518" lon="-8.411363">
        <ele>266.0</ele>
        <time>2011-06-25T10:53:16Z</time>
      </trkpt>
      <trkpt lat="43.288518" lon="-8.411363">
        <ele>266.0</ele>
        <time>2011-06-25T10:53:17Z</time>
      </trkpt>
      <trkpt lat="43.288518" lon="-8.411363">
        <ele>266.0</ele>
        <time>2011-06-25T10:53:18Z</time>
      </trkpt>
      <trkpt lat="43.288518" lon="-8.411363">
        <ele>266.0</ele>
        <time>2011-06-25T10:53:19Z</time>
      </trkpt>
      <trkpt lat="43.288518" lon="-8.411363">
        <ele>266.0</ele>
        <time>2011-06-25T10:53:20Z</time>
      </trkpt>
      <trkpt lat="43.288517" lon="-8.411363">
        <ele>266.0</ele>
        <time>2011-06-25T10:53:21Z</time>
      </trkpt>
      <trkpt lat="43.288517" lon="-8.411363">
        <ele>266.0</ele>
        <time>2011-06-25T10:53:22Z</time>
      </trkpt>
      <trkpt lat="43.288517" lon="-8.411363">
        <ele>266.0</ele>
        <time>2011-06-25T10:53:23Z</time>
      </trkpt>
      <trkpt lat="43.288517" lon="-8.411363">
        <ele>266.0</ele>
        <time>2011-06-25T10:53:24Z</time>
      </trkpt>
      <trkpt lat="43.288517" lon="-8.411363">
        <ele>266.0</ele>
        <time>2011-06-25T10:53:25Z</time>
      </trkpt>
      <trkpt lat="43.288517" lon="-8.411363">
        <ele>266.0</ele>
        <time>2011-06-25T10:53:26Z</time>
      </trkpt>
      <trkpt lat="43.288517" lon="-8.411363">
        <ele>266.0</ele>
        <time>2011-06-25T10:53:27Z</time>
      </trkpt>
      <trkpt lat="43.288517" lon="-8.411363">
        <ele>266.0</ele>
        <time>2011-06-25T10:53:28Z</time>
      </trkpt>
      <trkpt lat="43.288517" lon="-8.411363">
        <ele>266.0</ele>
        <time>2011-06-25T10:53:29Z</time>
      </trkpt>
      <trkpt lat="43.288517" lon="-8.411363">
        <ele>266.0</ele>
        <time>2011-06-25T10:53:30Z</time>
      </trkpt>
      <trkpt lat="43.288517" lon="-8.411363">
        <ele>266.0</ele>
        <time>2011-06-25T10:53:31Z</time>
      </trkpt>
      <trkpt lat="43.288517" lon="-8.411363">
        <ele>266.0</ele>
        <time>2011-06-25T10:53:32Z</time>
      </trkpt>
      <trkpt lat="43.288517" lon="-8.411363">
        <ele>266.0</ele>
        <time>2011-06-25T10:53:33Z</time>
      </trkpt>
      <trkpt lat="43.288517" lon="-8.411363">
        <ele>266.0</ele>
        <time>2011-06-25T10:53:34Z</time>
      </trkpt>
      <trkpt lat="43.288517" lon="-8.411363">
        <ele>266.0</ele>
        <time>2011-06-25T10:53:35Z</time>
      </trkpt>
      <trkpt lat="43.288515" lon="-8.411363">
        <ele>266.0</ele>
        <time>2011-06-25T10:53:36Z</time>
      </trkpt>
      <trkpt lat="43.288515" lon="-8.411365">
        <ele>266.0</ele>
        <time>2011-06-25T10:53:37Z</time>
      </trkpt>
      <trkpt lat="43.288515" lon="-8.411365">
        <ele>266.0</ele>
        <time>2011-06-25T10:53:38Z</time>
      </trkpt>
      <trkpt lat="43.288515" lon="-8.411365">
        <ele>266.0</ele>
        <time>2011-06-25T10:53:39Z</time>
      </trkpt>
      <trkpt lat="43.288515" lon="-8.411365">
        <ele>266.0</ele>
        <time>2011-06-25T10:53:40Z</time>
      </trkpt>
      <trkpt lat="43.288515" lon="-8.411365">
        <ele>266.0</ele>
        <time>2011-06-25T10:53:41Z</time>
      </trkpt>
      <trkpt lat="43.288515" lon="-8.411365">
        <ele>266.0</ele>
        <time>2011-06-25T10:53:42Z</time>
      </trkpt>
      <trkpt lat="43.288515" lon="-8.411365">
        <ele>265.5</ele>
        <time>2011-06-25T10:53:43Z</time>
      </trkpt>
      <trkpt lat="43.288515" lon="-8.411365">
        <ele>265.5</ele>
        <time>2011-06-25T10:53:44Z</time>
      </trkpt>
      <trkpt lat="43.288515" lon="-8.411365">
        <ele>265.5</ele>
        <time>2011-06-25T10:53:45Z</time>
      </trkpt>
      <trkpt lat="43.288515" lon="-8.411365">
        <ele>265.5</ele>
        <time>2011-06-25T10:53:46Z</time>
      </trkpt>
      <trkpt lat="43.288515" lon="-8.411365">
        <ele>265.5</ele>
        <time>2011-06-25T10:53:47Z</time>
      </trkpt>
      <trkpt lat="43.288515" lon="-8.411365">
        <ele>265.5</ele>
        <time>2011-06-25T10:53:48Z</time>
      </trkpt>
      <trkpt lat="43.288515" lon="-8.411365">
        <ele>265.5</ele>
        <time>2011-06-25T10:53:49Z</time>
      </trkpt>
      <trkpt lat="43.288515" lon="-8.411365">
        <ele>265.5</ele>
        <time>2011-06-25T10:53:50Z</time>
      </trkpt>
      <trkpt lat="43.288515" lon="-8.411365">
        <ele>265.5</ele>
        <time>2011-06-25T10:53:51Z</time>
      </trkpt>
      <trkpt lat="43.288515" lon="-8.411365">
        <ele>265.5</ele>
        <time>2011-06-25T10:53:52Z</time>
      </trkpt>
      <trkpt lat="43.288515" lon="-8.411365">
        <ele>265.5</ele>
        <time>2011-06-25T10:53:53Z</time>
      </trkpt>
      <trkpt lat="43.288515" lon="-8.411365">
        <ele>265.5</ele>
        <time>2011-06-25T10:53:54Z</time>
      </trkpt>
      <trkpt lat="43.288515" lon="-8.411365">
        <ele>265.5</ele>
        <time>2011-06-25T10:53:55Z</time>
      </trkpt>
      <trkpt lat="43.288513" lon="-8.411365">
        <ele>265.5</ele>
        <time>2011-06-25T10:53:56Z</time>
      </trkpt>
      <trkpt lat="43.288513" lon="-8.411365">
        <ele>265.5</ele>
        <time>2011-06-25T10:53:57Z</time>
      </trkpt>
      <trkpt lat="43.288513" lon="-8.411365">
        <ele>265.5</ele>
        <time>2011-06-25T10:53:58Z</time>
      </trkpt>
      <trkpt lat="43.288513" lon="-8.411365">
        <ele>265.5</ele>
        <time>2011-06-25T10:53:59Z</time>
      </trkpt>
      <trkpt lat="43.288513" lon="-8.411365">
        <ele>265.5</ele>
        <time>2011-06-25T10:54:00Z</time>
      </trkpt>
      <trkpt lat="43.288513" lon="-8.411365">
        <ele>265.5</ele>
        <time>2011-06-25T10:54:01Z</time>
      </trkpt>
      <trkpt lat="43.288513" lon="-8.411365">
        <ele>265.5</ele>
        <time>2011-06-25T10:54:02Z</time>
      </trkpt>
      <trkpt lat="43.288513" lon="-8.411365">
        <ele>265.5</ele>
        <time>2011-06-25T10:54:03Z</time>
      </trkpt>
      <trkpt lat="43.288513" lon="-8.411365">
        <ele>265.5</ele>
        <time>2011-06-25T10:54:04Z</time>
      </trkpt>
      <trkpt lat="43.288513" lon="-8.411365">
        <ele>265.5</ele>
        <time>2011-06-25T10:54:05Z</time>
      </trkpt>
      <trkpt lat="43.288513" lon="-8.411365">
        <ele>265.5</ele>
        <time>2011-06-25T10:54:06Z</time>
      </trkpt>
      <trkpt lat="43.288513" lon="-8.411365">
        <ele>265.5</ele>
        <time>2011-06-25T10:54:07Z</time>
      </trkpt>
      <trkpt lat="43.288513" lon="-8.411365">
        <ele>265.5</ele>
        <time>2011-06-25T10:54:08Z</time>
      </trkpt>
      <trkpt lat="43.288513" lon="-8.411365">
        <ele>265.5</ele>
        <time>2011-06-25T10:54:09Z</time>
      </trkpt>
      <trkpt lat="43.288513" lon="-8.411365">
        <ele>265.5</ele>
        <time>2011-06-25T10:54:10Z</time>
      </trkpt>
      <trkpt lat="43.288513" lon="-8.411365">
        <ele>265.5</ele>
        <time>2011-06-25T10:54:11Z</time>
      </trkpt>
      <trkpt lat="43.288513" lon="-8.411365">
        <ele>265.5</ele>
        <time>2011-06-25T10:54:12Z</time>
      </trkpt>
      <trkpt lat="43.288513" lon="-8.411365">
        <ele>265.5</ele>
        <time>2011-06-25T10:54:13Z</time>
      </trkpt>
      <trkpt lat="43.288513" lon="-8.411365">
        <ele>265.5</ele>
        <time>2011-06-25T10:54:14Z</time>
      </trkpt>
      <trkpt lat="43.288513" lon="-8.411365">
        <ele>265.5</ele>
        <time>2011-06-25T10:54:15Z</time>
      </trkpt>
      <trkpt lat="43.288513" lon="-8.411365">
        <ele>265.5</ele>
        <time>2011-06-25T10:54:16Z</time>
      </trkpt>
      <trkpt lat="43.288513" lon="-8.411367">
        <ele>265.5</ele>
        <time>2011-06-25T10:54:17Z</time>
      </trkpt>
      <trkpt lat="43.288513" lon="-8.411367">
        <ele>265.5</ele>
        <time>2011-06-25T10:54:18Z</time>
      </trkpt>
      <trkpt lat="43.288513" lon="-8.411367">
        <ele>265.5</ele>
        <time>2011-06-25T10:54:19Z</time>
      </trkpt>
      <trkpt lat="43.288513" lon="-8.411367">
        <ele>265.5</ele>
        <time>2011-06-25T10:54:20Z</time>
      </trkpt>
      <trkpt lat="43.288513" lon="-8.411367">
        <ele>265.5</ele>
        <time>2011-06-25T10:54:21Z</time>
      </trkpt>
      <trkpt lat="43.288513" lon="-8.411367">
        <ele>265.5</ele>
        <time>2011-06-25T10:54:22Z</time>
      </trkpt>
      <trkpt lat="43.288513" lon="-8.411367">
        <ele>265.0</ele>
        <time>2011-06-25T10:54:23Z</time>
      </trkpt>
      <trkpt lat="43.288513" lon="-8.411367">
        <ele>265.0</ele>
        <time>2011-06-25T10:54:24Z</time>
      </trkpt>
      <trkpt lat="43.288513" lon="-8.411367">
        <ele>265.0</ele>
        <time>2011-06-25T10:54:25Z</time>
      </trkpt>
      <trkpt lat="43.288513" lon="-8.411367">
        <ele>265.0</ele>
        <time>2011-06-25T10:54:26Z</time>
      </trkpt>
      <trkpt lat="43.288513" lon="-8.411367">
        <ele>265.0</ele>
        <time>2011-06-25T10:54:27Z</time>
      </trkpt>
      <trkpt lat="43.288513" lon="-8.411367">
        <ele>265.0</ele>
        <time>2011-06-25T10:54:28Z</time>
      </trkpt>
      <trkpt lat="43.288513" lon="-8.411367">
        <ele>265.0</ele>
        <time>2011-06-25T10:54:29Z</time>
      </trkpt>
      <trkpt lat="43.288513" lon="-8.411367">
        <ele>265.0</ele>
        <time>2011-06-25T10:54:30Z</time>
      </trkpt>
      <trkpt lat="43.288513" lon="-8.411367">
        <ele>265.0</ele>
        <time>2011-06-25T10:54:31Z</time>
      </trkpt>
      <trkpt lat="43.288513" lon="-8.411367">
        <ele>265.0</ele>
        <time>2011-06-25T10:54:32Z</time>
      </trkpt>
      <trkpt lat="43.288513" lon="-8.411367">
        <ele>265.0</ele>
        <time>2011-06-25T10:54:33Z</time>
      </trkpt>
      <trkpt lat="43.288512" lon="-8.411367">
        <ele>265.0</ele>
        <time>2011-06-25T10:54:34Z</time>
      </trkpt>
      <trkpt lat="43.288513" lon="-8.411367">
        <ele>265.0</ele>
        <time>2011-06-25T10:54:35Z</time>
      </trkpt>
      <trkpt lat="43.288513" lon="-8.411367">
        <ele>265.0</ele>
        <time>2011-06-25T10:54:36Z</time>
      </trkpt>
      <trkpt lat="43.288513" lon="-8.411367">
        <ele>265.0</ele>
        <time>2011-06-25T10:54:37Z</time>
      </trkpt>
      <trkpt lat="43.288513" lon="-8.411367">
        <ele>265.0</ele>
        <time>2011-06-25T10:54:38Z</time>
      </trkpt>
      <trkpt lat="43.288513" lon="-8.411367">
        <ele>265.0</ele>
        <time>2011-06-25T10:54:39Z</time>
      </trkpt>
      <trkpt lat="43.288513" lon="-8.411367">
        <ele>265.0</ele>
        <time>2011-06-25T10:54:40Z</time>
      </trkpt>
      <trkpt lat="43.288513" lon="-8.411367">
        <ele>265.0</ele>
        <time>2011-06-25T10:54:41Z</time>
      </trkpt>
      <trkpt lat="43.288513" lon="-8.411367">
        <ele>265.0</ele>
        <time>2011-06-25T10:54:42Z</time>
      </trkpt>
      <trkpt lat="43.288513" lon="-8.411367">
        <ele>265.0</ele>
        <time>2011-06-25T10:54:43Z</time>
      </trkpt>
      <trkpt lat="43.288513" lon="-8.411367">
        <ele>265.0</ele>
        <time>2011-06-25T10:54:44Z</time>
      </trkpt>
      <trkpt lat="43.288513" lon="-8.411367">
        <ele>265.0</ele>
        <time>2011-06-25T10:54:45Z</time>
      </trkpt>
      <trkpt lat="43.288513" lon="-8.411367">
        <ele>265.0</ele>
        <time>2011-06-25T10:54:46Z</time>
      </trkpt>
      <trkpt lat="43.288513" lon="-8.411367">
        <ele>265.0</ele>
        <time>2011-06-25T10:54:47Z</time>
      </trkpt>
      <trkpt lat="43.288513" lon="-8.411367">
        <ele>265.0</ele>
        <time>2011-06-25T10:54:48Z</time>
      </trkpt>
      <trkpt lat="43.288513" lon="-8.411367">
        <ele>265.0</ele>
        <time>2011-06-25T10:54:49Z</time>
      </trkpt>
      <trkpt lat="43.288512" lon="-8.411367">
        <ele>265.0</ele>
        <time>2011-06-25T10:54:50Z</time>
      </trkpt>
      <trkpt lat="43.288512" lon="-8.411367">
        <ele>265.0</ele>
        <time>2011-06-25T10:54:51Z</time>
      </trkpt>
      <trkpt lat="43.288512" lon="-8.411367">
        <ele>265.0</ele>
        <time>2011-06-25T10:54:52Z</time>
      </trkpt>
      <trkpt lat="43.288512" lon="-8.411368">
        <ele>265.0</ele>
        <time>2011-06-25T10:54:53Z</time>
      </trkpt>
      <trkpt lat="43.288512" lon="-8.411368">
        <ele>265.0</ele>
        <time>2011-06-25T10:54:54Z</time>
      </trkpt>
      <trkpt lat="43.288512" lon="-8.411368">
        <ele>265.0</ele>
        <time>2011-06-25T10:54:55Z</time>
      </trkpt>
      <trkpt lat="43.288512" lon="-8.411368">
        <ele>265.0</ele>
        <time>2011-06-25T10:54:56Z</time>
      </trkpt>
      <trkpt lat="43.288512" lon="-8.411368">
        <ele>265.0</ele>
        <time>2011-06-25T10:54:57Z</time>
      </trkpt>
      <trkpt lat="43.288512" lon="-8.411368">
        <ele>265.0</ele>
        <time>2011-06-25T10:54:58Z</time>
      </trkpt>
      <trkpt lat="43.288512" lon="-8.411368">
        <ele>265.0</ele>
        <time>2011-06-25T10:54:59Z</time>
      </trkpt>
      <trkpt lat="43.288512" lon="-8.411368">
        <ele>265.0</ele>
        <time>2011-06-25T10:55:00Z</time>
      </trkpt>
      <trkpt lat="43.288512" lon="-8.411368">
        <ele>265.0</ele>
        <time>2011-06-25T10:55:01Z</time>
      </trkpt>
      <trkpt lat="43.288512" lon="-8.411368">
        <ele>265.0</ele>
        <time>2011-06-25T10:55:02Z</time>
      </trkpt>
      <trkpt lat="43.288510" lon="-8.411368">
        <ele>265.0</ele>
        <time>2011-06-25T10:55:03Z</time>
      </trkpt>
      <trkpt lat="43.288510" lon="-8.411368">
        <ele>265.0</ele>
        <time>2011-06-25T10:55:04Z</time>
      </trkpt>
      <trkpt lat="43.288510" lon="-8.411368">
        <ele>265.0</ele>
        <time>2011-06-25T10:55:05Z</time>
      </trkpt>
      <trkpt lat="43.288510" lon="-8.411368">
        <ele>265.0</ele>
        <time>2011-06-25T10:55:06Z</time>
      </trkpt>
      <trkpt lat="43.288510" lon="-8.411368">
        <ele>265.0</ele>
        <time>2011-06-25T10:55:07Z</time>
      </trkpt>
      <trkpt lat="43.288510" lon="-8.411368">
        <ele>265.0</ele>
        <time>2011-06-25T10:55:08Z</time>
      </trkpt>
      <trkpt lat="43.288510" lon="-8.411368">
        <ele>265.0</ele>
        <time>2011-06-25T10:55:09Z</time>
      </trkpt>
      <trkpt lat="43.288510" lon="-8.411368">
        <ele>265.0</ele>
        <time>2011-06-25T10:55:10Z</time>
      </trkpt>
      <trkpt lat="43.288510" lon="-8.411368">
        <ele>265.0</ele>
        <time>2011-06-25T10:55:11Z</time>
      </trkpt>
      <trkpt lat="43.288510" lon="-8.411368">
        <ele>265.0</ele>
        <time>2011-06-25T10:55:12Z</time>
      </trkpt>
      <trkpt lat="43.288510" lon="-8.411368">
        <ele>265.0</ele>
        <time>2011-06-25T10:55:13Z</time>
      </trkpt>
      <trkpt lat="43.288510" lon="-8.411368">
        <ele>265.0</ele>
        <time>2011-06-25T10:55:14Z</time>
      </trkpt>
      <trkpt lat="43.288508" lon="-8.411368">
        <ele>265.0</ele>
        <time>2011-06-25T10:55:15Z</time>
      </trkpt>
      <trkpt lat="43.288508" lon="-8.411368">
        <ele>265.0</ele>
        <time>2011-06-25T10:55:16Z</time>
      </trkpt>
      <trkpt lat="43.288508" lon="-8.411368">
        <ele>265.0</ele>
        <time>2011-06-25T10:55:17Z</time>
      </trkpt>
      <trkpt lat="43.288508" lon="-8.411368">
        <ele>265.0</ele>
        <time>2011-06-25T10:55:18Z</time>
      </trkpt>
      <trkpt lat="43.288508" lon="-8.411368">
        <ele>265.0</ele>
        <time>2011-06-25T10:55:19Z</time>
      </trkpt>
      <trkpt lat="43.288508" lon="-8.411368">
        <ele>265.0</ele>
        <time>2011-06-25T10:55:20Z</time>
      </trkpt>
      <trkpt lat="43.288508" lon="-8.411368">
        <ele>265.0</ele>
        <time>2011-06-25T10:55:21Z</time>
      </trkpt>
      <trkpt lat="43.288508" lon="-8.411368">
        <ele>265.0</ele>
        <time>2011-06-25T10:55:22Z</time>
      </trkpt>
      <trkpt lat="43.288508" lon="-8.411368">
        <ele>265.0</ele>
        <time>2011-06-25T10:55:23Z</time>
      </trkpt>
      <trkpt lat="43.288508" lon="-8.411368">
        <ele>265.0</ele>
        <time>2011-06-25T10:55:24Z</time>
      </trkpt>
      <trkpt lat="43.288508" lon="-8.411368">
        <ele>265.0</ele>
        <time>2011-06-25T10:55:25Z</time>
      </trkpt>
      <trkpt lat="43.288508" lon="-8.411368">
        <ele>265.0</ele>
        <time>2011-06-25T10:55:26Z</time>
      </trkpt>
      <trkpt lat="43.288508" lon="-8.411368">
        <ele>265.0</ele>
        <time>2011-06-25T10:55:27Z</time>
      </trkpt>
      <trkpt lat="43.288508" lon="-8.411368">
        <ele>265.0</ele>
        <time>2011-06-25T10:55:28Z</time>
      </trkpt>
      <trkpt lat="43.288508" lon="-8.411368">
        <ele>265.0</ele>
        <time>2011-06-25T10:55:29Z</time>
      </trkpt>
      <trkpt lat="43.288508" lon="-8.411368">
        <ele>265.0</ele>
        <time>2011-06-25T10:55:30Z</time>
      </trkpt>
      <trkpt lat="43.288508" lon="-8.411368">
        <ele>265.0</ele>
        <time>2011-06-25T10:55:31Z</time>
      </trkpt>
      <trkpt lat="43.288508" lon="-8.411368">
        <ele>265.0</ele>
        <time>2011-06-25T10:55:32Z</time>
      </trkpt>
      <trkpt lat="43.288508" lon="-8.411368">
        <ele>265.0</ele>
        <time>2011-06-25T10:55:33Z</time>
      </trkpt>
      <trkpt lat="43.288508" lon="-8.411368">
        <ele>265.0</ele>
        <time>2011-06-25T10:55:34Z</time>
      </trkpt>
      <trkpt lat="43.288508" lon="-8.411368">
        <ele>265.0</ele>
        <time>2011-06-25T10:55:35Z</time>
      </trkpt>
      <trkpt lat="43.288508" lon="-8.411368">
        <ele>265.0</ele>
        <time>2011-06-25T10:55:36Z</time>
      </trkpt>
      <trkpt lat="43.288507" lon="-8.411368">
        <ele>265.0</ele>
        <time>2011-06-25T10:55:37Z</time>
      </trkpt>
      <trkpt lat="43.288507" lon="-8.411370">
        <ele>265.0</ele>
        <time>2011-06-25T10:55:38Z</time>
      </trkpt>
      <trkpt lat="43.288507" lon="-8.411370">
        <ele>265.0</ele>
        <time>2011-06-25T10:55:39Z</time>
      </trkpt>
      <trkpt lat="43.288507" lon="-8.411370">
        <ele>264.5</ele>
        <time>2011-06-25T10:55:40Z</time>
      </trkpt>
      <trkpt lat="43.288507" lon="-8.411370">
        <ele>264.5</ele>
        <time>2011-06-25T10:55:41Z</time>
      </trkpt>
      <trkpt lat="43.288507" lon="-8.411370">
        <ele>264.5</ele>
        <time>2011-06-25T10:55:42Z</time>
      </trkpt>
      <trkpt lat="43.288507" lon="-8.411370">
        <ele>264.5</ele>
        <time>2011-06-25T10:55:43Z</time>
      </trkpt>
      <trkpt lat="43.288507" lon="-8.411368">
        <ele>264.5</ele>
        <time>2011-06-25T10:55:44Z</time>
      </trkpt>
      <trkpt lat="43.288507" lon="-8.411368">
        <ele>264.5</ele>
        <time>2011-06-25T10:55:45Z</time>
      </trkpt>
      <trkpt lat="43.288507" lon="-8.411368">
        <ele>264.5</ele>
        <time>2011-06-25T10:55:46Z</time>
      </trkpt>
      <trkpt lat="43.288507" lon="-8.411368">
        <ele>264.5</ele>
        <time>2011-06-25T10:55:47Z</time>
      </trkpt>
      <trkpt lat="43.288507" lon="-8.411368">
        <ele>264.5</ele>
        <time>2011-06-25T10:55:48Z</time>
      </trkpt>
      <trkpt lat="43.288507" lon="-8.411370">
        <ele>264.5</ele>
        <time>2011-06-25T10:55:49Z</time>
      </trkpt>
      <trkpt lat="43.288507" lon="-8.411370">
        <ele>264.5</ele>
        <time>2011-06-25T10:55:50Z</time>
      </trkpt>
      <trkpt lat="43.288507" lon="-8.411370">
        <ele>264.5</ele>
        <time>2011-06-25T10:55:51Z</time>
      </trkpt>
      <trkpt lat="43.288507" lon="-8.411370">
        <ele>264.5</ele>
        <time>2011-06-25T10:55:52Z</time>
      </trkpt>
      <trkpt lat="43.288507" lon="-8.411370">
        <ele>264.5</ele>
        <time>2011-06-25T10:55:53Z</time>
      </trkpt>
      <trkpt lat="43.288507" lon="-8.411370">
        <ele>264.5</ele>
        <time>2011-06-25T10:55:54Z</time>
      </trkpt>
      <trkpt lat="43.288507" lon="-8.411370">
        <ele>264.5</ele>
        <time>2011-06-25T10:55:55Z</time>
      </trkpt>
      <trkpt lat="43.288505" lon="-8.411370">
        <ele>264.5</ele>
        <time>2011-06-25T10:55:56Z</time>
      </trkpt>
      <trkpt lat="43.288505" lon="-8.411370">
        <ele>264.5</ele>
        <time>2011-06-25T10:55:57Z</time>
      </trkpt>
      <trkpt lat="43.288505" lon="-8.411370">
        <ele>264.5</ele>
        <time>2011-06-25T10:55:58Z</time>
      </trkpt>
      <trkpt lat="43.288505" lon="-8.411370">
        <ele>264.5</ele>
        <time>2011-06-25T10:55:59Z</time>
      </trkpt>
      <trkpt lat="43.288505" lon="-8.411370">
        <ele>264.5</ele>
        <time>2011-06-25T10:56:00Z</time>
      </trkpt>
      <trkpt lat="43.288505" lon="-8.411370">
        <ele>264.5</ele>
        <time>2011-06-25T10:56:01Z</time>
      </trkpt>
      <trkpt lat="43.288505" lon="-8.411370">
        <ele>264.5</ele>
        <time>2011-06-25T10:56:02Z</time>
      </trkpt>
      <trkpt lat="43.288505" lon="-8.411370">
        <ele>264.5</ele>
        <time>2011-06-25T10:56:03Z</time>
      </trkpt>
      <trkpt lat="43.288505" lon="-8.411370">
        <ele>264.5</ele>
        <time>2011-06-25T10:56:04Z</time>
      </trkpt>
      <trkpt lat="43.288505" lon="-8.411370">
        <ele>264.5</ele>
        <time>2011-06-25T10:56:05Z</time>
      </trkpt>
      <trkpt lat="43.288505" lon="-8.411370">
        <ele>264.5</ele>
        <time>2011-06-25T10:56:06Z</time>
      </trkpt>
      <trkpt lat="43.288505" lon="-8.411370">
        <ele>264.5</ele>
        <time>2011-06-25T10:56:07Z</time>
      </trkpt>
      <trkpt lat="43.288505" lon="-8.411370">
        <ele>264.5</ele>
        <time>2011-06-25T10:56:08Z</time>
      </trkpt>
      <trkpt lat="43.288505" lon="-8.411370">
        <ele>264.5</ele>
        <time>2011-06-25T10:56:09Z</time>
      </trkpt>
      <trkpt lat="43.288505" lon="-8.411370">
        <ele>264.5</ele>
        <time>2011-06-25T10:56:10Z</time>
      </trkpt>
      <trkpt lat="43.288505" lon="-8.411370">
        <ele>264.5</ele>
        <time>2011-06-25T10:56:11Z</time>
      </trkpt>
      <trkpt lat="43.288505" lon="-8.411370">
        <ele>264.5</ele>
        <time>2011-06-25T10:56:12Z</time>
      </trkpt>
      <trkpt lat="43.288505" lon="-8.411370">
        <ele>264.5</ele>
        <time>2011-06-25T10:56:13Z</time>
      </trkpt>
      <trkpt lat="43.288505" lon="-8.411370">
        <ele>264.5</ele>
        <time>2011-06-25T10:56:14Z</time>
      </trkpt>
      <trkpt lat="43.288505" lon="-8.411370">
        <ele>264.5</ele>
        <time>2011-06-25T10:56:15Z</time>
      </trkpt>
      <trkpt lat="43.288505" lon="-8.411370">
        <ele>264.5</ele>
        <time>2011-06-25T10:56:16Z</time>
      </trkpt>
      <trkpt lat="43.288505" lon="-8.411370">
        <ele>264.5</ele>
        <time>2011-06-25T10:56:17Z</time>
      </trkpt>
      <trkpt lat="43.288505" lon="-8.411370">
        <ele>264.5</ele>
        <time>2011-06-25T10:56:18Z</time>
      </trkpt>
      <trkpt lat="43.288505" lon="-8.411370">
        <ele>264.5</ele>
        <time>2011-06-25T10:56:19Z</time>
      </trkpt>
      <trkpt lat="43.288505" lon="-8.411370">
        <ele>264.5</ele>
        <time>2011-06-25T10:56:20Z</time>
      </trkpt>
      <trkpt lat="43.288503" lon="-8.411370">
        <ele>264.5</ele>
        <time>2011-06-25T10:56:21Z</time>
      </trkpt>
      <trkpt lat="43.288503" lon="-8.411370">
        <ele>264.5</ele>
        <time>2011-06-25T10:56:22Z</time>
      </trkpt>
      <trkpt lat="43.288503" lon="-8.411370">
        <ele>264.5</ele>
        <time>2011-06-25T10:56:23Z</time>
      </trkpt>
      <trkpt lat="43.288503" lon="-8.411370">
        <ele>264.5</ele>
        <time>2011-06-25T10:56:24Z</time>
      </trkpt>
      <trkpt lat="43.288503" lon="-8.411370">
        <ele>264.5</ele>
        <time>2011-06-25T10:56:25Z</time>
      </trkpt>
      <trkpt lat="43.288503" lon="-8.411370">
        <ele>264.5</ele>
        <time>2011-06-25T10:56:26Z</time>
      </trkpt>
      <trkpt lat="43.288503" lon="-8.411370">
        <ele>264.5</ele>
        <time>2011-06-25T10:56:27Z</time>
      </trkpt>
      <trkpt lat="43.288503" lon="-8.411370">
        <ele>264.5</ele>
        <time>2011-06-25T10:56:28Z</time>
      </trkpt>
      <trkpt lat="43.288503" lon="-8.411370">
        <ele>264.5</ele>
        <time>2011-06-25T10:56:29Z</time>
      </trkpt>
      <trkpt lat="43.288503" lon="-8.411370">
        <ele>264.5</ele>
        <time>2011-06-25T10:56:30Z</time>
      </trkpt>
      <trkpt lat="43.288503" lon="-8.411370">
        <ele>264.5</ele>
        <time>2011-06-25T10:56:31Z</time>
      </trkpt>
      <trkpt lat="43.288503" lon="-8.411370">
        <ele>264.5</ele>
        <time>2011-06-25T10:56:32Z</time>
      </trkpt>
      <trkpt lat="43.288503" lon="-8.411370">
        <ele>264.5</ele>
        <time>2011-06-25T10:56:33Z</time>
      </trkpt>
      <trkpt lat="43.288503" lon="-8.411370">
        <ele>264.5</ele>
        <time>2011-06-25T10:56:34Z</time>
      </trkpt>
      <trkpt lat="43.288503" lon="-8.411370">
        <ele>264.5</ele>
        <time>2011-06-25T10:56:35Z</time>
      </trkpt>
      <trkpt lat="43.288503" lon="-8.411370">
        <ele>264.5</ele>
        <time>2011-06-25T10:56:36Z</time>
      </trkpt>
      <trkpt lat="43.288502" lon="-8.411370">
        <ele>264.5</ele>
        <time>2011-06-25T10:56:37Z</time>
      </trkpt>
      <trkpt lat="43.288502" lon="-8.411370">
        <ele>264.5</ele>
        <time>2011-06-25T10:56:38Z</time>
      </trkpt>
      <trkpt lat="43.288502" lon="-8.411370">
        <ele>264.5</ele>
        <time>2011-06-25T10:56:39Z</time>
      </trkpt>
      <trkpt lat="43.288502" lon="-8.411370">
        <ele>264.5</ele>
        <time>2011-06-25T10:56:40Z</time>
      </trkpt>
      <trkpt lat="43.288502" lon="-8.411370">
        <ele>264.5</ele>
        <time>2011-06-25T10:56:41Z</time>
      </trkpt>
      <trkpt lat="43.288502" lon="-8.411370">
        <ele>264.5</ele>
        <time>2011-06-25T10:56:42Z</time>
      </trkpt>
      <trkpt lat="43.288502" lon="-8.411370">
        <ele>264.5</ele>
        <time>2011-06-25T10:56:43Z</time>
      </trkpt>
      <trkpt lat="43.288502" lon="-8.411370">
        <ele>264.5</ele>
        <time>2011-06-25T10:56:44Z</time>
      </trkpt>
      <trkpt lat="43.288502" lon="-8.411370">
        <ele>264.5</ele>
        <time>2011-06-25T10:56:45Z</time>
      </trkpt>
      <trkpt lat="43.288502" lon="-8.411370">
        <ele>264.5</ele>
        <time>2011-06-25T10:56:46Z</time>
      </trkpt>
      <trkpt lat="43.288502" lon="-8.411370">
        <ele>264.5</ele>
        <time>2011-06-25T10:56:47Z</time>
      </trkpt>
      <trkpt lat="43.288502" lon="-8.411370">
        <ele>264.5</ele>
        <time>2011-06-25T10:56:48Z</time>
      </trkpt>
      <trkpt lat="43.288502" lon="-8.411370">
        <ele>264.5</ele>
        <time>2011-06-25T10:56:49Z</time>
      </trkpt>
      <trkpt lat="43.288502" lon="-8.411370">
        <ele>264.5</ele>
        <time>2011-06-25T10:56:50Z</time>
      </trkpt>
      <trkpt lat="43.288502" lon="-8.411370">
        <ele>264.5</ele>
        <time>2011-06-25T10:56:51Z</time>
      </trkpt>
      <trkpt lat="43.288502" lon="-8.411370">
        <ele>264.5</ele>
        <time>2011-06-25T10:56:52Z</time>
      </trkpt>
      <trkpt lat="43.288502" lon="-8.411370">
        <ele>264.5</ele>
        <time>2011-06-25T10:56:53Z</time>
      </trkpt>
      <trkpt lat="43.288502" lon="-8.411370">
        <ele>264.5</ele>
        <time>2011-06-25T10:56:54Z</time>
      </trkpt>
      <trkpt lat="43.288502" lon="-8.411370">
        <ele>264.5</ele>
        <time>2011-06-25T10:56:55Z</time>
      </trkpt>
      <trkpt lat="43.288502" lon="-8.411370">
        <ele>264.5</ele>
        <time>2011-06-25T10:56:56Z</time>
      </trkpt>
      <trkpt lat="43.288502" lon="-8.411370">
        <ele>264.5</ele>
        <time>2011-06-25T10:56:57Z</time>
      </trkpt>
      <trkpt lat="43.288502" lon="-8.411370">
        <ele>264.5</ele>
        <time>2011-06-25T10:56:58Z</time>
      </trkpt>
      <trkpt lat="43.288502" lon="-8.411370">
        <ele>264.5</ele>
        <time>2011-06-25T10:56:59Z</time>
      </trkpt>
      <trkpt lat="43.288502" lon="-8.411370">
        <ele>264.5</ele>
        <time>2011-06-25T10:57:00Z</time>
      </trkpt>
      <trkpt lat="43.288502" lon="-8.411370">
        <ele>264.5</ele>
        <time>2011-06-25T10:57:01Z</time>
      </trkpt>
      <trkpt lat="43.288502" lon="-8.411370">
        <ele>264.5</ele>
        <time>2011-06-25T10:57:02Z</time>
      </trkpt>
      <trkpt lat="43.288500" lon="-8.411370">
        <ele>264.5</ele>
        <time>2011-06-25T10:57:03Z</time>
      </trkpt>
      <trkpt lat="43.288500" lon="-8.411370">
        <ele>264.5</ele>
        <time>2011-06-25T10:57:04Z</time>
      </trkpt>
      <trkpt lat="43.288500" lon="-8.411370">
        <ele>264.5</ele>
        <time>2011-06-25T10:57:05Z</time>
      </trkpt>
      <trkpt lat="43.288500" lon="-8.411370">
        <ele>264.5</ele>
        <time>2011-06-25T10:57:06Z</time>
      </trkpt>
      <trkpt lat="43.288500" lon="-8.411370">
        <ele>264.5</ele>
        <time>2011-06-25T10:57:07Z</time>
      </trkpt>
      <trkpt lat="43.288500" lon="-8.411370">
        <ele>264.5</ele>
        <time>2011-06-25T10:57:08Z</time>
      </trkpt>
      <trkpt lat="43.288500" lon="-8.411370">
        <ele>264.5</ele>
        <time>2011-06-25T10:57:09Z</time>
      </trkpt>
      <trkpt lat="43.288500" lon="-8.411370">
        <ele>264.5</ele>
        <time>2011-06-25T10:57:10Z</time>
      </trkpt>
      <trkpt lat="43.288500" lon="-8.411370">
        <ele>264.5</ele>
        <time>2011-06-25T10:57:11Z</time>
      </trkpt>
      <trkpt lat="43.288500" lon="-8.411370">
        <ele>264.5</ele>
        <time>2011-06-25T10:57:12Z</time>
      </trkpt>
      <trkpt lat="43.288500" lon="-8.411370">
        <ele>264.5</ele>
        <time>2011-06-25T10:57:13Z</time>
      </trkpt>
      <trkpt lat="43.288500" lon="-8.411370">
        <ele>264.5</ele>
        <time>2011-06-25T10:57:14Z</time>
      </trkpt>
      <trkpt lat="43.288500" lon="-8.411368">
        <ele>264.5</ele>
        <time>2011-06-25T10:57:15Z</time>
      </trkpt>
      <trkpt lat="43.288500" lon="-8.411368">
        <ele>264.5</ele>
        <time>2011-06-25T10:57:16Z</time>
      </trkpt>
      <trkpt lat="43.288500" lon="-8.411368">
        <ele>264.5</ele>
        <time>2011-06-25T10:57:17Z</time>
      </trkpt>
      <trkpt lat="43.288500" lon="-8.411368">
        <ele>264.5</ele>
        <time>2011-06-25T10:57:18Z</time>
      </trkpt>
      <trkpt lat="43.288500" lon="-8.411368">
        <ele>264.5</ele>
        <time>2011-06-25T10:57:19Z</time>
      </trkpt>
      <trkpt lat="43.288500" lon="-8.411368">
        <ele>264.5</ele>
        <time>2011-06-25T10:57:20Z</time>
      </trkpt>
      <trkpt lat="43.288500" lon="-8.411368">
        <ele>264.5</ele>
        <time>2011-06-25T10:57:21Z</time>
      </trkpt>
      <trkpt lat="43.288500" lon="-8.411368">
        <ele>264.5</ele>
        <time>2011-06-25T10:57:22Z</time>
      </trkpt>
      <trkpt lat="43.288498" lon="-8.411368">
        <ele>264.5</ele>
        <time>2011-06-25T10:57:23Z</time>
      </trkpt>
      <trkpt lat="43.288498" lon="-8.411368">
        <ele>264.5</ele>
        <time>2011-06-25T10:57:24Z</time>
      </trkpt>
      <trkpt lat="43.288498" lon="-8.411368">
        <ele>264.5</ele>
        <time>2011-06-25T10:57:25Z</time>
      </trkpt>
      <trkpt lat="43.288498" lon="-8.411368">
        <ele>264.5</ele>
        <time>2011-06-25T10:57:26Z</time>
      </trkpt>
      <trkpt lat="43.288498" lon="-8.411368">
        <ele>264.5</ele>
        <time>2011-06-25T10:57:27Z</time>
      </trkpt>
      <trkpt lat="43.288498" lon="-8.411368">
        <ele>264.5</ele>
        <time>2011-06-25T10:57:28Z</time>
      </trkpt>
      <trkpt lat="43.288498" lon="-8.411368">
        <ele>264.5</ele>
        <time>2011-06-25T10:57:29Z</time>
      </trkpt>
      <trkpt lat="43.288498" lon="-8.411368">
        <ele>264.5</ele>
        <time>2011-06-25T10:57:30Z</time>
      </trkpt>
      <trkpt lat="43.288498" lon="-8.411368">
        <ele>264.5</ele>
        <time>2011-06-25T10:57:31Z</time>
      </trkpt>
      <trkpt lat="43.288498" lon="-8.411368">
        <ele>264.5</ele>
        <time>2011-06-25T10:57:32Z</time>
      </trkpt>
      <trkpt lat="43.288498" lon="-8.411368">
        <ele>264.5</ele>
        <time>2011-06-25T10:57:33Z</time>
      </trkpt>
      <trkpt lat="43.288498" lon="-8.411368">
        <ele>264.5</ele>
        <time>2011-06-25T10:57:34Z</time>
      </trkpt>
      <trkpt lat="43.288498" lon="-8.411368">
        <ele>264.5</ele>
        <time>2011-06-25T10:57:35Z</time>
      </trkpt>
      <trkpt lat="43.288498" lon="-8.411368">
        <ele>264.5</ele>
        <time>2011-06-25T10:57:36Z</time>
      </trkpt>
      <trkpt lat="43.288498" lon="-8.411368">
        <ele>264.5</ele>
        <time>2011-06-25T10:57:37Z</time>
      </trkpt>
      <trkpt lat="43.288498" lon="-8.411368">
        <ele>264.5</ele>
        <time>2011-06-25T10:57:38Z</time>
      </trkpt>
      <trkpt lat="43.288497" lon="-8.411368">
        <ele>264.5</ele>
        <time>2011-06-25T10:57:39Z</time>
      </trkpt>
      <trkpt lat="43.288497" lon="-8.411368">
        <ele>264.5</ele>
        <time>2011-06-25T10:57:40Z</time>
      </trkpt>
      <trkpt lat="43.288497" lon="-8.411368">
        <ele>264.5</ele>
        <time>2011-06-25T10:57:41Z</time>
      </trkpt>
      <trkpt lat="43.288497" lon="-8.411368">
        <ele>264.5</ele>
        <time>2011-06-25T10:57:42Z</time>
      </trkpt>
      <trkpt lat="43.288497" lon="-8.411368">
        <ele>264.5</ele>
        <time>2011-06-25T10:57:43Z</time>
      </trkpt>
      <trkpt lat="43.288497" lon="-8.411368">
        <ele>264.5</ele>
        <time>2011-06-25T10:57:44Z</time>
      </trkpt>
      <trkpt lat="43.288497" lon="-8.411368">
        <ele>264.5</ele>
        <time>2011-06-25T10:57:45Z</time>
      </trkpt>
      <trkpt lat="43.288497" lon="-8.411368">
        <ele>264.5</ele>
        <time>2011-06-25T10:57:46Z</time>
      </trkpt>
      <trkpt lat="43.288497" lon="-8.411368">
        <ele>264.5</ele>
        <time>2011-06-25T10:57:47Z</time>
      </trkpt>
      <trkpt lat="43.288497" lon="-8.411368">
        <ele>264.5</ele>
        <time>2011-06-25T10:57:48Z</time>
      </trkpt>
      <trkpt lat="43.288497" lon="-8.411368">
        <ele>265.0</ele>
        <time>2011-06-25T10:57:49Z</time>
      </trkpt>
      <trkpt lat="43.288497" lon="-8.411367">
        <ele>265.0</ele>
        <time>2011-06-25T10:57:50Z</time>
      </trkpt>
      <trkpt lat="43.288497" lon="-8.411367">
        <ele>265.0</ele>
        <time>2011-06-25T10:57:51Z</time>
      </trkpt>
      <trkpt lat="43.288497" lon="-8.411367">
        <ele>265.0</ele>
        <time>2011-06-25T10:57:52Z</time>
      </trkpt>
      <trkpt lat="43.288497" lon="-8.411367">
        <ele>265.0</ele>
        <time>2011-06-25T10:57:53Z</time>
      </trkpt>
      <trkpt lat="43.288497" lon="-8.411367">
        <ele>265.0</ele>
        <time>2011-06-25T10:57:54Z</time>
      </trkpt>
      <trkpt lat="43.288497" lon="-8.411367">
        <ele>265.0</ele>
        <time>2011-06-25T10:57:55Z</time>
      </trkpt>
      <trkpt lat="43.288497" lon="-8.411367">
        <ele>265.0</ele>
        <time>2011-06-25T10:57:56Z</time>
      </trkpt>
      <trkpt lat="43.288497" lon="-8.411367">
        <ele>265.0</ele>
        <time>2011-06-25T10:57:57Z</time>
      </trkpt>
      <trkpt lat="43.288497" lon="-8.411367">
        <ele>265.0</ele>
        <time>2011-06-25T10:57:58Z</time>
      </trkpt>
      <trkpt lat="43.288497" lon="-8.411367">
        <ele>265.0</ele>
        <time>2011-06-25T10:57:59Z</time>
      </trkpt>
      <trkpt lat="43.288497" lon="-8.411367">
        <ele>265.0</ele>
        <time>2011-06-25T10:58:00Z</time>
      </trkpt>
      <trkpt lat="43.288497" lon="-8.411367">
        <ele>265.0</ele>
        <time>2011-06-25T10:58:01Z</time>
      </trkpt>
      <trkpt lat="43.288497" lon="-8.411367">
        <ele>265.0</ele>
        <time>2011-06-25T10:58:02Z</time>
      </trkpt>
      <trkpt lat="43.288497" lon="-8.411367">
        <ele>265.0</ele>
        <time>2011-06-25T10:58:03Z</time>
      </trkpt>
      <trkpt lat="43.288497" lon="-8.411367">
        <ele>265.0</ele>
        <time>2011-06-25T10:58:04Z</time>
      </trkpt>
      <trkpt lat="43.288497" lon="-8.411367">
        <ele>265.0</ele>
        <time>2011-06-25T10:58:05Z</time>
      </trkpt>
      <trkpt lat="43.288497" lon="-8.411367">
        <ele>265.0</ele>
        <time>2011-06-25T10:58:06Z</time>
      </trkpt>
      <trkpt lat="43.288497" lon="-8.411367">
        <ele>265.0</ele>
        <time>2011-06-25T10:58:07Z</time>
      </trkpt>
      <trkpt lat="43.288497" lon="-8.411367">
        <ele>265.0</ele>
        <time>2011-06-25T10:58:08Z</time>
      </trkpt>
      <trkpt lat="43.288497" lon="-8.411367">
        <ele>265.0</ele>
        <time>2011-06-25T10:58:09Z</time>
      </trkpt>
      <trkpt lat="43.288497" lon="-8.411367">
        <ele>265.0</ele>
        <time>2011-06-25T10:58:10Z</time>
      </trkpt>
      <trkpt lat="43.288497" lon="-8.411367">
        <ele>265.0</ele>
        <time>2011-06-25T10:58:11Z</time>
      </trkpt>
      <trkpt lat="43.288497" lon="-8.411367">
        <ele>265.0</ele>
        <time>2011-06-25T10:58:12Z</time>
      </trkpt>
      <trkpt lat="43.288497" lon="-8.411367">
        <ele>265.0</ele>
        <time>2011-06-25T10:58:13Z</time>
      </trkpt>
      <trkpt lat="43.288497" lon="-8.411367">
        <ele>265.0</ele>
        <time>2011-06-25T10:58:14Z</time>
      </trkpt>
      <trkpt lat="43.288497" lon="-8.411367">
        <ele>265.0</ele>
        <time>2011-06-25T10:58:15Z</time>
      </trkpt>
      <trkpt lat="43.288497" lon="-8.411367">
        <ele>265.0</ele>
        <time>2011-06-25T10:58:16Z</time>
      </trkpt>
      <trkpt lat="43.288497" lon="-8.411367">
        <ele>265.0</ele>
        <time>2011-06-25T10:58:17Z</time>
      </trkpt>
      <trkpt lat="43.288497" lon="-8.411367">
        <ele>265.0</ele>
        <time>2011-06-25T10:58:18Z</time>
      </trkpt>
      <trkpt lat="43.288497" lon="-8.411367">
        <ele>265.0</ele>
        <time>2011-06-25T10:58:19Z</time>
      </trkpt>
      <trkpt lat="43.288497" lon="-8.411367">
        <ele>265.0</ele>
        <time>2011-06-25T10:58:20Z</time>
      </trkpt>
      <trkpt lat="43.288497" lon="-8.411367">
        <ele>265.0</ele>
        <time>2011-06-25T10:58:21Z</time>
      </trkpt>
      <trkpt lat="43.288497" lon="-8.411367">
        <ele>265.0</ele>
        <time>2011-06-25T10:58:22Z</time>
      </trkpt>
      <trkpt lat="43.288497" lon="-8.411367">
        <ele>265.0</ele>
        <time>2011-06-25T10:58:23Z</time>
      </trkpt>
      <trkpt lat="43.288497" lon="-8.411367">
        <ele>265.0</ele>
        <time>2011-06-25T10:58:24Z</time>
      </trkpt>
      <trkpt lat="43.288495" lon="-8.411363">
        <ele>265.0</ele>
        <time>2011-06-25T10:58:25Z</time>
      </trkpt>
      <trkpt lat="43.288495" lon="-8.411363">
        <ele>265.0</ele>
        <time>2011-06-25T10:58:26Z</time>
      </trkpt>
      <trkpt lat="43.288495" lon="-8.411363">
        <ele>265.5</ele>
        <time>2011-06-25T10:58:27Z</time>
      </trkpt>
      <trkpt lat="43.288495" lon="-8.411363">
        <ele>265.0</ele>
        <time>2011-06-25T10:58:28Z</time>
      </trkpt>
      <trkpt lat="43.288495" lon="-8.411363">
        <ele>265.0</ele>
        <time>2011-06-25T10:58:29Z</time>
      </trkpt>
      <trkpt lat="43.288495" lon="-8.411363">
        <ele>265.0</ele>
        <time>2011-06-25T10:58:30Z</time>
      </trkpt>
      <trkpt lat="43.288495" lon="-8.411363">
        <ele>265.0</ele>
        <time>2011-06-25T10:58:31Z</time>
      </trkpt>
      <trkpt lat="43.288495" lon="-8.411365">
        <ele>265.0</ele>
        <time>2011-06-25T10:58:32Z</time>
      </trkpt>
      <trkpt lat="43.288495" lon="-8.411365">
        <ele>265.0</ele>
        <time>2011-06-25T10:58:33Z</time>
      </trkpt>
      <trkpt lat="43.288495" lon="-8.411365">
        <ele>265.0</ele>
        <time>2011-06-25T10:58:34Z</time>
      </trkpt>
      <trkpt lat="43.288495" lon="-8.411365">
        <ele>265.0</ele>
        <time>2011-06-25T10:58:35Z</time>
      </trkpt>
      <trkpt lat="43.288495" lon="-8.411365">
        <ele>265.0</ele>
        <time>2011-06-25T10:58:36Z</time>
      </trkpt>
      <trkpt lat="43.288495" lon="-8.411365">
        <ele>265.0</ele>
        <time>2011-06-25T10:58:37Z</time>
      </trkpt>
      <trkpt lat="43.288493" lon="-8.411365">
        <ele>265.0</ele>
        <time>2011-06-25T10:58:38Z</time>
      </trkpt>
      <trkpt lat="43.288493" lon="-8.411365">
        <ele>265.0</ele>
        <time>2011-06-25T10:58:39Z</time>
      </trkpt>
      <trkpt lat="43.288493" lon="-8.411365">
        <ele>265.0</ele>
        <time>2011-06-25T10:58:40Z</time>
      </trkpt>
      <trkpt lat="43.288493" lon="-8.411365">
        <ele>265.0</ele>
        <time>2011-06-25T10:58:41Z</time>
      </trkpt>
      <trkpt lat="43.288493" lon="-8.411365">
        <ele>265.0</ele>
        <time>2011-06-25T10:58:42Z</time>
      </trkpt>
      <trkpt lat="43.288493" lon="-8.411365">
        <ele>265.5</ele>
        <time>2011-06-25T10:58:43Z</time>
      </trkpt>
      <trkpt lat="43.288493" lon="-8.411365">
        <ele>265.5</ele>
        <time>2011-06-25T10:58:44Z</time>
      </trkpt>
      <trkpt lat="43.288493" lon="-8.411365">
        <ele>265.5</ele>
        <time>2011-06-25T10:58:45Z</time>
      </trkpt>
      <trkpt lat="43.288493" lon="-8.411365">
        <ele>265.5</ele>
        <time>2011-06-25T10:58:46Z</time>
      </trkpt>
      <trkpt lat="43.288493" lon="-8.411367">
        <ele>265.5</ele>
        <time>2011-06-25T10:58:47Z</time>
      </trkpt>
      <trkpt lat="43.288493" lon="-8.411367">
        <ele>265.5</ele>
        <time>2011-06-25T10:58:48Z</time>
      </trkpt>
      <trkpt lat="43.288493" lon="-8.411367">
        <ele>265.5</ele>
        <time>2011-06-25T10:58:49Z</time>
      </trkpt>
      <trkpt lat="43.288493" lon="-8.411367">
        <ele>265.5</ele>
        <time>2011-06-25T10:58:50Z</time>
      </trkpt>
      <trkpt lat="43.288492" lon="-8.411367">
        <ele>265.5</ele>
        <time>2011-06-25T10:58:51Z</time>
      </trkpt>
      <trkpt lat="43.288492" lon="-8.411367">
        <ele>265.5</ele>
        <time>2011-06-25T10:58:52Z</time>
      </trkpt>
      <trkpt lat="43.288492" lon="-8.411367">
        <ele>265.5</ele>
        <time>2011-06-25T10:58:53Z</time>
      </trkpt>
      <trkpt lat="43.288492" lon="-8.411367">
        <ele>265.5</ele>
        <time>2011-06-25T10:58:54Z</time>
      </trkpt>
      <trkpt lat="43.288492" lon="-8.411367">
        <ele>265.5</ele>
        <time>2011-06-25T10:58:55Z</time>
      </trkpt>
      <trkpt lat="43.288492" lon="-8.411367">
        <ele>265.5</ele>
        <time>2011-06-25T10:58:56Z</time>
      </trkpt>
      <trkpt lat="43.288492" lon="-8.411367">
        <ele>265.5</ele>
        <time>2011-06-25T10:58:57Z</time>
      </trkpt>
      <trkpt lat="43.288492" lon="-8.411367">
        <ele>265.5</ele>
        <time>2011-06-25T10:58:58Z</time>
      </trkpt>
      <trkpt lat="43.288490" lon="-8.411367">
        <ele>265.5</ele>
        <time>2011-06-25T10:58:59Z</time>
      </trkpt>
      <trkpt lat="43.288488" lon="-8.411372">
        <ele>266.0</ele>
        <time>2011-06-25T10:59:00Z</time>
      </trkpt>
      <trkpt lat="43.288487" lon="-8.411373">
        <ele>266.0</ele>
        <time>2011-06-25T10:59:01Z</time>
      </trkpt>
      <trkpt lat="43.288487" lon="-8.411373">
        <ele>266.0</ele>
        <time>2011-06-25T10:59:02Z</time>
      </trkpt>
      <trkpt lat="43.288487" lon="-8.411373">
        <ele>266.0</ele>
        <time>2011-06-25T10:59:03Z</time>
      </trkpt>
      <trkpt lat="43.288487" lon="-8.411373">
        <ele>266.5</ele>
        <time>2011-06-25T10:59:04Z</time>
      </trkpt>
      <trkpt lat="43.288487" lon="-8.411373">
        <ele>266.5</ele>
        <time>2011-06-25T10:59:05Z</time>
      </trkpt>
      <trkpt lat="43.288487" lon="-8.411373">
        <ele>266.5</ele>
        <time>2011-06-25T10:59:06Z</time>
      </trkpt>
      <trkpt lat="43.288487" lon="-8.411373">
        <ele>266.5</ele>
        <time>2011-06-25T10:59:07Z</time>
      </trkpt>
      <trkpt lat="43.288487" lon="-8.411373">
        <ele>266.5</ele>
        <time>2011-06-25T10:59:08Z</time>
      </trkpt>
      <trkpt lat="43.288487" lon="-8.411373">
        <ele>266.5</ele>
        <time>2011-06-25T10:59:09Z</time>
      </trkpt>
      <trkpt lat="43.288485" lon="-8.411372">
        <ele>266.5</ele>
        <time>2011-06-25T10:59:10Z</time>
      </trkpt>
      <trkpt lat="43.288483" lon="-8.411372">
        <ele>266.5</ele>
        <time>2011-06-25T10:59:11Z</time>
      </trkpt>
      <trkpt lat="43.288483" lon="-8.411372">
        <ele>266.5</ele>
        <time>2011-06-25T10:59:12Z</time>
      </trkpt>
      <trkpt lat="43.288483" lon="-8.411373">
        <ele>266.5</ele>
        <time>2011-06-25T10:59:13Z</time>
      </trkpt>
      <trkpt lat="43.288483" lon="-8.411373">
        <ele>266.5</ele>
        <time>2011-06-25T10:59:14Z</time>
      </trkpt>
      <trkpt lat="43.288483" lon="-8.411373">
        <ele>266.5</ele>
        <time>2011-06-25T10:59:15Z</time>
      </trkpt>
      <trkpt lat="43.288482" lon="-8.411373">
        <ele>266.5</ele>
        <time>2011-06-25T10:59:16Z</time>
      </trkpt>
      <trkpt lat="43.288482" lon="-8.411373">
        <ele>266.5</ele>
        <time>2011-06-25T10:59:17Z</time>
      </trkpt>
      <trkpt lat="43.288483" lon="-8.411373">
        <ele>266.5</ele>
        <time>2011-06-25T10:59:18Z</time>
      </trkpt>
      <trkpt lat="43.288483" lon="-8.411373">
        <ele>266.5</ele>
        <time>2011-06-25T10:59:19Z</time>
      </trkpt>
      <trkpt lat="43.288483" lon="-8.411373">
        <ele>266.5</ele>
        <time>2011-06-25T10:59:20Z</time>
      </trkpt>
      <trkpt lat="43.288483" lon="-8.411373">
        <ele>266.5</ele>
        <time>2011-06-25T10:59:21Z</time>
      </trkpt>
      <trkpt lat="43.288483" lon="-8.411373">
        <ele>266.5</ele>
        <time>2011-06-25T10:59:22Z</time>
      </trkpt>
      <trkpt lat="43.288482" lon="-8.411378">
        <ele>266.5</ele>
        <time>2011-06-25T10:59:23Z</time>
      </trkpt>
      <trkpt lat="43.288483" lon="-8.411378">
        <ele>266.5</ele>
        <time>2011-06-25T10:59:24Z</time>
      </trkpt>
      <trkpt lat="43.288482" lon="-8.411378">
        <ele>266.5</ele>
        <time>2011-06-25T10:59:25Z</time>
      </trkpt>
      <trkpt lat="43.288482" lon="-8.411378">
        <ele>266.5</ele>
        <time>2011-06-25T10:59:26Z</time>
      </trkpt>
      <trkpt lat="43.288482" lon="-8.411378">
        <ele>266.5</ele>
        <time>2011-06-25T10:59:27Z</time>
      </trkpt>
      <trkpt lat="43.288482" lon="-8.411378">
        <ele>266.5</ele>
        <time>2011-06-25T10:59:28Z</time>
      </trkpt>
      <trkpt lat="43.288482" lon="-8.411378">
        <ele>267.0</ele>
        <time>2011-06-25T10:59:29Z</time>
      </trkpt>
      <trkpt lat="43.288482" lon="-8.411378">
        <ele>267.0</ele>
        <time>2011-06-25T10:59:30Z</time>
      </trkpt>
      <trkpt lat="43.288482" lon="-8.411378">
        <ele>267.0</ele>
        <time>2011-06-25T10:59:31Z</time>
      </trkpt>
      <trkpt lat="43.288482" lon="-8.411378">
        <ele>267.0</ele>
        <time>2011-06-25T10:59:32Z</time>
      </trkpt>
      <trkpt lat="43.288482" lon="-8.411378">
        <ele>267.0</ele>
        <time>2011-06-25T10:59:33Z</time>
      </trkpt>
      <trkpt lat="43.288482" lon="-8.411378">
        <ele>267.0</ele>
        <time>2011-06-25T10:59:34Z</time>
      </trkpt>
      <trkpt lat="43.288482" lon="-8.411378">
        <ele>267.0</ele>
        <time>2011-06-25T10:59:35Z</time>
      </trkpt>
      <trkpt lat="43.288482" lon="-8.411378">
        <ele>267.0</ele>
        <time>2011-06-25T10:59:36Z</time>
      </trkpt>
      <trkpt lat="43.288482" lon="-8.411378">
        <ele>267.0</ele>
        <time>2011-06-25T10:59:37Z</time>
      </trkpt>
      <trkpt lat="43.288482" lon="-8.411378">
        <ele>267.0</ele>
        <time>2011-06-25T10:59:38Z</time>
      </trkpt>
      <trkpt lat="43.288482" lon="-8.411378">
        <ele>267.0</ele>
        <time>2011-06-25T10:59:39Z</time>
      </trkpt>
      <trkpt lat="43.288482" lon="-8.411378">
        <ele>267.0</ele>
        <time>2011-06-25T10:59:40Z</time>
      </trkpt>
      <trkpt lat="43.288482" lon="-8.411378">
        <ele>267.0</ele>
        <time>2011-06-25T10:59:41Z</time>
      </trkpt>
      <trkpt lat="43.288482" lon="-8.411378">
        <ele>267.0</ele>
        <time>2011-06-25T10:59:42Z</time>
      </trkpt>
      <trkpt lat="43.288482" lon="-8.411378">
        <ele>267.0</ele>
        <time>2011-06-25T10:59:43Z</time>
      </trkpt>
      <trkpt lat="43.288482" lon="-8.411378">
        <ele>267.0</ele>
        <time>2011-06-25T10:59:44Z</time>
      </trkpt>
      <trkpt lat="43.288482" lon="-8.411378">
        <ele>267.0</ele>
        <time>2011-06-25T10:59:45Z</time>
      </trkpt>
      <trkpt lat="43.288482" lon="-8.411378">
        <ele>267.0</ele>
        <time>2011-06-25T10:59:46Z</time>
      </trkpt>
      <trkpt lat="43.288482" lon="-8.411378">
        <ele>267.0</ele>
        <time>2011-06-25T10:59:47Z</time>
      </trkpt>
      <trkpt lat="43.288482" lon="-8.411378">
        <ele>267.0</ele>
        <time>2011-06-25T10:59:48Z</time>
      </trkpt>
      <trkpt lat="43.288482" lon="-8.411378">
        <ele>267.0</ele>
        <time>2011-06-25T10:59:49Z</time>
      </trkpt>
      <trkpt lat="43.288482" lon="-8.411378">
        <ele>267.0</ele>
        <time>2011-06-25T10:59:50Z</time>
      </trkpt>
      <trkpt lat="43.288482" lon="-8.411378">
        <ele>267.0</ele>
        <time>2011-06-25T10:59:51Z</time>
      </trkpt>
      <trkpt lat="43.288482" lon="-8.411378">
        <ele>267.0</ele>
        <time>2011-06-25T10:59:52Z</time>
      </trkpt>
      <trkpt lat="43.288482" lon="-8.411378">
        <ele>267.0</ele>
        <time>2011-06-25T10:59:53Z</time>
      </trkpt>
      <trkpt lat="43.288482" lon="-8.411378">
        <ele>267.0</ele>
        <time>2011-06-25T10:59:54Z</time>
      </trkpt>
      <trkpt lat="43.288482" lon="-8.411378">
        <ele>267.0</ele>
        <time>2011-06-25T10:59:55Z</time>
      </trkpt>
    </trkseg>
  </trk>
  <trk>
    <name>T2067676-13</name>
    <cmt>saida con compañeiros do C.C.Arteixo polos arredores da Coruña</cmt>
    <desc>saida con compañeiros do C.C.Arteixo polos arredores da Coruña</desc>
    <trkseg>
      <trkpt lat="43.288482" lon="-8.411378">
        <ele>267.0</ele>
        <time>2011-06-25T10:59:56Z</time>
      </trkpt>
      <trkpt lat="43.288482" lon="-8.411378">
        <ele>267.0</ele>
        <time>2011-06-25T10:59:57Z</time>
      </trkpt>
      <trkpt lat="43.288482" lon="-8.411378">
        <ele>267.0</ele>
        <time>2011-06-25T10:59:58Z</time>
      </trkpt>
      <trkpt lat="43.288482" lon="-8.411378">
        <ele>267.0</ele>
        <time>2011-06-25T10:59:59Z</time>
      </trkpt>
      <trkpt lat="43.288482" lon="-8.411378">
        <ele>267.0</ele>
        <time>2011-06-25T11:00:00Z</time>
      </trkpt>
      <trkpt lat="43.288482" lon="-8.411378">
        <ele>267.0</ele>
        <time>2011-06-25T11:00:01Z</time>
      </trkpt>
      <trkpt lat="43.288482" lon="-8.411378">
        <ele>267.0</ele>
        <time>2011-06-25T11:00:02Z</time>
      </trkpt>
      <trkpt lat="43.288482" lon="-8.411378">
        <ele>266.5</ele>
        <time>2011-06-25T11:00:03Z</time>
      </trkpt>
      <trkpt lat="43.288482" lon="-8.411378">
        <ele>266.5</ele>
        <time>2011-06-25T11:00:04Z</time>
      </trkpt>
      <trkpt lat="43.288482" lon="-8.411378">
        <ele>266.5</ele>
        <time>2011-06-25T11:00:05Z</time>
      </trkpt>
      <trkpt lat="43.288482" lon="-8.411378">
        <ele>266.5</ele>
        <time>2011-06-25T11:00:06Z</time>
      </trkpt>
      <trkpt lat="43.288482" lon="-8.411378">
        <ele>266.5</ele>
        <time>2011-06-25T11:00:07Z</time>
      </trkpt>
      <trkpt lat="43.288490" lon="-8.411380">
        <ele>265.5</ele>
        <time>2011-06-25T11:00:08Z</time>
      </trkpt>
      <trkpt lat="43.288488" lon="-8.411378">
        <ele>265.5</ele>
        <time>2011-06-25T11:00:09Z</time>
      </trkpt>
      <trkpt lat="43.288488" lon="-8.411378">
        <ele>265.5</ele>
        <time>2011-06-25T11:00:10Z</time>
      </trkpt>
      <trkpt lat="43.288488" lon="-8.411378">
        <ele>265.5</ele>
        <time>2011-06-25T11:00:11Z</time>
      </trkpt>
      <trkpt lat="43.288488" lon="-8.411378">
        <ele>265.5</ele>
        <time>2011-06-25T11:00:12Z</time>
      </trkpt>
      <trkpt lat="43.288488" lon="-8.411378">
        <ele>265.5</ele>
        <time>2011-06-25T11:00:13Z</time>
      </trkpt>
      <trkpt lat="43.288490" lon="-8.411378">
        <ele>265.5</ele>
        <time>2011-06-25T11:00:14Z</time>
      </trkpt>
      <trkpt lat="43.288490" lon="-8.411378">
        <ele>265.5</ele>
        <time>2011-06-25T11:00:15Z</time>
      </trkpt>
      <trkpt lat="43.288492" lon="-8.411378">
        <ele>265.0</ele>
        <time>2011-06-25T11:00:16Z</time>
      </trkpt>
      <trkpt lat="43.288492" lon="-8.411378">
        <ele>265.0</ele>
        <time>2011-06-25T11:00:17Z</time>
      </trkpt>
      <trkpt lat="43.288492" lon="-8.411378">
        <ele>265.0</ele>
        <time>2011-06-25T11:00:18Z</time>
      </trkpt>
      <trkpt lat="43.288492" lon="-8.411378">
        <ele>265.0</ele>
        <time>2011-06-25T11:00:19Z</time>
      </trkpt>
      <trkpt lat="43.288492" lon="-8.411378">
        <ele>265.0</ele>
        <time>2011-06-25T11:00:20Z</time>
      </trkpt>
      <trkpt lat="43.288493" lon="-8.411378">
        <ele>265.0</ele>
        <time>2011-06-25T11:00:21Z</time>
      </trkpt>
      <trkpt lat="43.288493" lon="-8.411378">
        <ele>265.0</ele>
        <time>2011-06-25T11:00:22Z</time>
      </trkpt>
      <trkpt lat="43.288493" lon="-8.411378">
        <ele>265.0</ele>
        <time>2011-06-25T11:00:23Z</time>
      </trkpt>
      <trkpt lat="43.288493" lon="-8.411378">
        <ele>265.0</ele>
        <time>2011-06-25T11:00:24Z</time>
      </trkpt>
      <trkpt lat="43.288493" lon="-8.411378">
        <ele>265.0</ele>
        <time>2011-06-25T11:00:25Z</time>
      </trkpt>
      <trkpt lat="43.288495" lon="-8.411378">
        <ele>265.0</ele>
        <time>2011-06-25T11:00:26Z</time>
      </trkpt>
      <trkpt lat="43.288495" lon="-8.411378">
        <ele>265.0</ele>
        <time>2011-06-25T11:00:27Z</time>
      </trkpt>
      <trkpt lat="43.288495" lon="-8.411378">
        <ele>265.0</ele>
        <time>2011-06-25T11:00:28Z</time>
      </trkpt>
      <trkpt lat="43.288495" lon="-8.411378">
        <ele>265.0</ele>
        <time>2011-06-25T11:00:29Z</time>
      </trkpt>
      <trkpt lat="43.288495" lon="-8.411378">
        <ele>265.0</ele>
        <time>2011-06-25T11:00:30Z</time>
      </trkpt>
      <trkpt lat="43.288495" lon="-8.411378">
        <ele>265.0</ele>
        <time>2011-06-25T11:00:31Z</time>
      </trkpt>
      <trkpt lat="43.288495" lon="-8.411378">
        <ele>265.0</ele>
        <time>2011-06-25T11:00:32Z</time>
      </trkpt>
      <trkpt lat="43.288495" lon="-8.411378">
        <ele>265.0</ele>
        <time>2011-06-25T11:00:33Z</time>
      </trkpt>
      <trkpt lat="43.288495" lon="-8.411378">
        <ele>265.0</ele>
        <time>2011-06-25T11:00:34Z</time>
      </trkpt>
      <trkpt lat="43.288495" lon="-8.411378">
        <ele>265.0</ele>
        <time>2011-06-25T11:00:35Z</time>
      </trkpt>
      <trkpt lat="43.288493" lon="-8.411378">
        <ele>265.0</ele>
        <time>2011-06-25T11:00:36Z</time>
      </trkpt>
      <trkpt lat="43.288493" lon="-8.411377">
        <ele>265.0</ele>
        <time>2011-06-25T11:00:37Z</time>
      </trkpt>
      <trkpt lat="43.288493" lon="-8.411377">
        <ele>265.0</ele>
        <time>2011-06-25T11:00:38Z</time>
      </trkpt>
      <trkpt lat="43.288493" lon="-8.411377">
        <ele>265.0</ele>
        <time>2011-06-25T11:00:39Z</time>
      </trkpt>
      <trkpt lat="43.288493" lon="-8.411377">
        <ele>265.0</ele>
        <time>2011-06-25T11:00:40Z</time>
      </trkpt>
      <trkpt lat="43.288493" lon="-8.411377">
        <ele>265.0</ele>
        <time>2011-06-25T11:00:41Z</time>
      </trkpt>
      <trkpt lat="43.288493" lon="-8.411377">
        <ele>265.0</ele>
        <time>2011-06-25T11:00:42Z</time>
      </trkpt>
      <trkpt lat="43.288493" lon="-8.411377">
        <ele>265.0</ele>
        <time>2011-06-25T11:00:43Z</time>
      </trkpt>
      <trkpt lat="43.288493" lon="-8.411377">
        <ele>265.0</ele>
        <time>2011-06-25T11:00:44Z</time>
      </trkpt>
      <trkpt lat="43.288493" lon="-8.411377">
        <ele>265.0</ele>
        <time>2011-06-25T11:00:45Z</time>
      </trkpt>
      <trkpt lat="43.288493" lon="-8.411377">
        <ele>265.0</ele>
        <time>2011-06-25T11:00:46Z</time>
      </trkpt>
      <trkpt lat="43.288493" lon="-8.411377">
        <ele>265.0</ele>
        <time>2011-06-25T11:00:47Z</time>
      </trkpt>
      <trkpt lat="43.288493" lon="-8.411377">
        <ele>265.0</ele>
        <time>2011-06-25T11:00:48Z</time>
      </trkpt>
      <trkpt lat="43.288493" lon="-8.411377">
        <ele>265.0</ele>
        <time>2011-06-25T11:00:49Z</time>
      </trkpt>
      <trkpt lat="43.288493" lon="-8.411377">
        <ele>265.0</ele>
        <time>2011-06-25T11:00:50Z</time>
      </trkpt>
      <trkpt lat="43.288493" lon="-8.411377">
        <ele>265.0</ele>
        <time>2011-06-25T11:00:51Z</time>
      </trkpt>
      <trkpt lat="43.288493" lon="-8.411377">
        <ele>265.0</ele>
        <time>2011-06-25T11:00:52Z</time>
      </trkpt>
      <trkpt lat="43.288493" lon="-8.411377">
        <ele>265.0</ele>
        <time>2011-06-25T11:00:53Z</time>
      </trkpt>
      <trkpt lat="43.288492" lon="-8.411377">
        <ele>265.0</ele>
        <time>2011-06-25T11:00:54Z</time>
      </trkpt>
      <trkpt lat="43.288492" lon="-8.411377">
        <ele>265.0</ele>
        <time>2011-06-25T11:00:55Z</time>
      </trkpt>
      <trkpt lat="43.288492" lon="-8.411377">
        <ele>265.0</ele>
        <time>2011-06-25T11:00:56Z</time>
      </trkpt>
      <trkpt lat="43.288492" lon="-8.411377">
        <ele>265.0</ele>
        <time>2011-06-25T11:00:57Z</time>
      </trkpt>
      <trkpt lat="43.288492" lon="-8.411377">
        <ele>265.0</ele>
        <time>2011-06-25T11:00:58Z</time>
      </trkpt>
      <trkpt lat="43.288492" lon="-8.411377">
        <ele>265.5</ele>
        <time>2011-06-25T11:00:59Z</time>
      </trkpt>
      <trkpt lat="43.288492" lon="-8.411377">
        <ele>265.5</ele>
        <time>2011-06-25T11:01:00Z</time>
      </trkpt>
      <trkpt lat="43.288492" lon="-8.411377">
        <ele>265.5</ele>
        <time>2011-06-25T11:01:01Z</time>
      </trkpt>
      <trkpt lat="43.288490" lon="-8.411377">
        <ele>265.5</ele>
        <time>2011-06-25T11:01:02Z</time>
      </trkpt>
      <trkpt lat="43.288490" lon="-8.411377">
        <ele>265.5</ele>
        <time>2011-06-25T11:01:03Z</time>
      </trkpt>
      <trkpt lat="43.288490" lon="-8.411377">
        <ele>265.5</ele>
        <time>2011-06-25T11:01:04Z</time>
      </trkpt>
      <trkpt lat="43.288490" lon="-8.411377">
        <ele>265.5</ele>
        <time>2011-06-25T11:01:05Z</time>
      </trkpt>
      <trkpt lat="43.288490" lon="-8.411377">
        <ele>265.5</ele>
        <time>2011-06-25T11:01:06Z</time>
      </trkpt>
      <trkpt lat="43.288490" lon="-8.411377">
        <ele>265.5</ele>
        <time>2011-06-25T11:01:07Z</time>
      </trkpt>
      <trkpt lat="43.288490" lon="-8.411377">
        <ele>265.5</ele>
        <time>2011-06-25T11:01:08Z</time>
      </trkpt>
      <trkpt lat="43.288488" lon="-8.411377">
        <ele>265.5</ele>
        <time>2011-06-25T11:01:09Z</time>
      </trkpt>
      <trkpt lat="43.288488" lon="-8.411377">
        <ele>265.5</ele>
        <time>2011-06-25T11:01:10Z</time>
      </trkpt>
      <trkpt lat="43.288488" lon="-8.411377">
        <ele>265.5</ele>
        <time>2011-06-25T11:01:11Z</time>
      </trkpt>
      <trkpt lat="43.288488" lon="-8.411377">
        <ele>265.5</ele>
        <time>2011-06-25T11:01:12Z</time>
      </trkpt>
      <trkpt lat="43.288488" lon="-8.411377">
        <ele>265.5</ele>
        <time>2011-06-25T11:01:13Z</time>
      </trkpt>
      <trkpt lat="43.288488" lon="-8.411377">
        <ele>265.5</ele>
        <time>2011-06-25T11:01:14Z</time>
      </trkpt>
      <trkpt lat="43.288488" lon="-8.411377">
        <ele>265.5</ele>
        <time>2011-06-25T11:01:15Z</time>
      </trkpt>
      <trkpt lat="43.288488" lon="-8.411377">
        <ele>265.5</ele>
        <time>2011-06-25T11:01:16Z</time>
      </trkpt>
      <trkpt lat="43.288488" lon="-8.411377">
        <ele>265.5</ele>
        <time>2011-06-25T11:01:17Z</time>
      </trkpt>
      <trkpt lat="43.288488" lon="-8.411377">
        <ele>265.5</ele>
        <time>2011-06-25T11:01:18Z</time>
      </trkpt>
      <trkpt lat="43.288488" lon="-8.411377">
        <ele>265.5</ele>
        <time>2011-06-25T11:01:19Z</time>
      </trkpt>
      <trkpt lat="43.288488" lon="-8.411377">
        <ele>265.5</ele>
        <time>2011-06-25T11:01:20Z</time>
      </trkpt>
      <trkpt lat="43.288488" lon="-8.411377">
        <ele>265.5</ele>
        <time>2011-06-25T11:01:21Z</time>
      </trkpt>
      <trkpt lat="43.288488" lon="-8.411377">
        <ele>265.5</ele>
        <time>2011-06-25T11:01:22Z</time>
      </trkpt>
      <trkpt lat="43.288488" lon="-8.411377">
        <ele>265.5</ele>
        <time>2011-06-25T11:01:23Z</time>
      </trkpt>
      <trkpt lat="43.288488" lon="-8.411377">
        <ele>265.5</ele>
        <time>2011-06-25T11:01:24Z</time>
      </trkpt>
      <trkpt lat="43.288488" lon="-8.411377">
        <ele>265.5</ele>
        <time>2011-06-25T11:01:25Z</time>
      </trkpt>
      <trkpt lat="43.288488" lon="-8.411377">
        <ele>265.5</ele>
        <time>2011-06-25T11:01:26Z</time>
      </trkpt>
      <trkpt lat="43.288488" lon="-8.411377">
        <ele>265.5</ele>
        <time>2011-06-25T11:01:27Z</time>
      </trkpt>
      <trkpt lat="43.288488" lon="-8.411377">
        <ele>265.5</ele>
        <time>2011-06-25T11:01:28Z</time>
      </trkpt>
      <trkpt lat="43.288488" lon="-8.411377">
        <ele>265.5</ele>
        <time>2011-06-25T11:01:29Z</time>
      </trkpt>
      <trkpt lat="43.288488" lon="-8.411377">
        <ele>265.5</ele>
        <time>2011-06-25T11:01:30Z</time>
      </trkpt>
      <trkpt lat="43.288488" lon="-8.411377">
        <ele>265.5</ele>
        <time>2011-06-25T11:01:31Z</time>
      </trkpt>
      <trkpt lat="43.288488" lon="-8.411377">
        <ele>265.5</ele>
        <time>2011-06-25T11:01:32Z</time>
      </trkpt>
      <trkpt lat="43.288487" lon="-8.411380">
        <ele>265.5</ele>
        <time>2011-06-25T11:01:33Z</time>
      </trkpt>
      <trkpt lat="43.288485" lon="-8.411378">
        <ele>265.5</ele>
        <time>2011-06-25T11:01:34Z</time>
      </trkpt>
      <trkpt lat="43.288485" lon="-8.411378">
        <ele>265.5</ele>
        <time>2011-06-25T11:01:35Z</time>
      </trkpt>
      <trkpt lat="43.288485" lon="-8.411377">
        <ele>265.5</ele>
        <time>2011-06-25T11:01:36Z</time>
      </trkpt>
      <trkpt lat="43.288485" lon="-8.411377">
        <ele>265.5</ele>
        <time>2011-06-25T11:01:37Z</time>
      </trkpt>
      <trkpt lat="43.288483" lon="-8.411377">
        <ele>265.5</ele>
        <time>2011-06-25T11:01:38Z</time>
      </trkpt>
      <trkpt lat="43.288483" lon="-8.411377">
        <ele>265.5</ele>
        <time>2011-06-25T11:01:39Z</time>
      </trkpt>
      <trkpt lat="43.288483" lon="-8.411377">
        <ele>265.5</ele>
        <time>2011-06-25T11:01:40Z</time>
      </trkpt>
      <trkpt lat="43.288483" lon="-8.411377">
        <ele>265.5</ele>
        <time>2011-06-25T11:01:41Z</time>
      </trkpt>
      <trkpt lat="43.288483" lon="-8.411377">
        <ele>265.0</ele>
        <time>2011-06-25T11:01:42Z</time>
      </trkpt>
      <trkpt lat="43.288482" lon="-8.411377">
        <ele>265.5</ele>
        <time>2011-06-25T11:01:43Z</time>
      </trkpt>
      <trkpt lat="43.288480" lon="-8.411377">
        <ele>265.5</ele>
        <time>2011-06-25T11:01:44Z</time>
      </trkpt>
      <trkpt lat="43.288478" lon="-8.411377">
        <ele>265.5</ele>
        <time>2011-06-25T11:01:45Z</time>
      </trkpt>
      <trkpt lat="43.288477" lon="-8.411378">
        <ele>266.0</ele>
        <time>2011-06-25T11:01:46Z</time>
      </trkpt>
      <trkpt lat="43.288475" lon="-8.411378">
        <ele>266.0</ele>
        <time>2011-06-25T11:01:47Z</time>
      </trkpt>
      <trkpt lat="43.288475" lon="-8.411378">
        <ele>266.0</ele>
        <time>2011-06-25T11:01:48Z</time>
      </trkpt>
      <trkpt lat="43.288473" lon="-8.411380">
        <ele>266.0</ele>
        <time>2011-06-25T11:01:49Z</time>
      </trkpt>
      <trkpt lat="43.288473" lon="-8.411380">
        <ele>266.0</ele>
        <time>2011-06-25T11:01:50Z</time>
      </trkpt>
      <trkpt lat="43.288472" lon="-8.411382">
        <ele>266.0</ele>
        <time>2011-06-25T11:01:51Z</time>
      </trkpt>
      <trkpt lat="43.288472" lon="-8.411382">
        <ele>266.0</ele>
        <time>2011-06-25T11:01:52Z</time>
      </trkpt>
      <trkpt lat="43.288472" lon="-8.411382">
        <ele>266.0</ele>
        <time>2011-06-25T11:01:53Z</time>
      </trkpt>
      <trkpt lat="43.288472" lon="-8.411382">
        <ele>266.0</ele>
        <time>2011-06-25T11:01:54Z</time>
      </trkpt>
      <trkpt lat="43.288472" lon="-8.411382">
        <ele>266.0</ele>
        <time>2011-06-25T11:01:55Z</time>
      </trkpt>
      <trkpt lat="43.288472" lon="-8.411382">
        <ele>266.0</ele>
        <time>2011-06-25T11:01:56Z</time>
      </trkpt>
      <trkpt lat="43.288472" lon="-8.411382">
        <ele>266.0</ele>
        <time>2011-06-25T11:01:57Z</time>
      </trkpt>
      <trkpt lat="43.288470" lon="-8.411382">
        <ele>266.0</ele>
        <time>2011-06-25T11:01:58Z</time>
      </trkpt>
      <trkpt lat="43.288470" lon="-8.411382">
        <ele>266.0</ele>
        <time>2011-06-25T11:01:59Z</time>
      </trkpt>
      <trkpt lat="43.288470" lon="-8.411382">
        <ele>266.0</ele>
        <time>2011-06-25T11:02:00Z</time>
      </trkpt>
      <trkpt lat="43.288470" lon="-8.411382">
        <ele>266.0</ele>
        <time>2011-06-25T11:02:01Z</time>
      </trkpt>
      <trkpt lat="43.288470" lon="-8.411383">
        <ele>266.0</ele>
        <time>2011-06-25T11:02:02Z</time>
      </trkpt>
      <trkpt lat="43.288470" lon="-8.411383">
        <ele>266.0</ele>
        <time>2011-06-25T11:02:03Z</time>
      </trkpt>
      <trkpt lat="43.288472" lon="-8.411387">
        <ele>267.0</ele>
        <time>2011-06-25T11:02:04Z</time>
      </trkpt>
      <trkpt lat="43.288475" lon="-8.411393">
        <ele>267.5</ele>
        <time>2011-06-25T11:02:05Z</time>
      </trkpt>
      <trkpt lat="43.288477" lon="-8.411397">
        <ele>268.5</ele>
        <time>2011-06-25T11:02:06Z</time>
      </trkpt>
      <trkpt lat="43.288477" lon="-8.411400">
        <ele>269.0</ele>
        <time>2011-06-25T11:02:07Z</time>
      </trkpt>
      <trkpt lat="43.288472" lon="-8.411407">
        <ele>269.0</ele>
        <time>2011-06-25T11:02:08Z</time>
      </trkpt>
      <trkpt lat="43.288462" lon="-8.411415">
        <ele>269.5</ele>
        <time>2011-06-25T11:02:09Z</time>
      </trkpt>
      <trkpt lat="43.288450" lon="-8.411418">
        <ele>269.5</ele>
        <time>2011-06-25T11:02:10Z</time>
      </trkpt>
      <trkpt lat="43.288435" lon="-8.411418">
        <ele>269.5</ele>
        <time>2011-06-25T11:02:11Z</time>
      </trkpt>
      <trkpt lat="43.288423" lon="-8.411415">
        <ele>270.0</ele>
        <time>2011-06-25T11:02:12Z</time>
      </trkpt>
      <trkpt lat="43.288413" lon="-8.411410">
        <ele>270.5</ele>
        <time>2011-06-25T11:02:13Z</time>
      </trkpt>
      <trkpt lat="43.288405" lon="-8.411405">
        <ele>271.0</ele>
        <time>2011-06-25T11:02:14Z</time>
      </trkpt>
      <trkpt lat="43.288397" lon="-8.411405">
        <ele>271.0</ele>
        <time>2011-06-25T11:02:15Z</time>
      </trkpt>
      <trkpt lat="43.288382" lon="-8.411407">
        <ele>271.5</ele>
        <time>2011-06-25T11:02:16Z</time>
      </trkpt>
      <trkpt lat="43.288367" lon="-8.411407">
        <ele>271.5</ele>
        <time>2011-06-25T11:02:17Z</time>
      </trkpt>
      <trkpt lat="43.288353" lon="-8.411405">
        <ele>271.5</ele>
        <time>2011-06-25T11:02:18Z</time>
      </trkpt>
      <trkpt lat="43.288337" lon="-8.411405">
        <ele>271.5</ele>
        <time>2011-06-25T11:02:19Z</time>
      </trkpt>
      <trkpt lat="43.288317" lon="-8.411403">
        <ele>271.5</ele>
        <time>2011-06-25T11:02:20Z</time>
      </trkpt>
      <trkpt lat="43.288297" lon="-8.411402">
        <ele>271.5</ele>
        <time>2011-06-25T11:02:21Z</time>
      </trkpt>
      <trkpt lat="43.288278" lon="-8.411400">
        <ele>271.5</ele>
        <time>2011-06-25T11:02:22Z</time>
      </trkpt>
      <trkpt lat="43.288265" lon="-8.411398">
        <ele>271.5</ele>
        <time>2011-06-25T11:02:23Z</time>
      </trkpt>
      <trkpt lat="43.288248" lon="-8.411398">
        <ele>271.5</ele>
        <time>2011-06-25T11:02:24Z</time>
      </trkpt>
      <trkpt lat="43.288230" lon="-8.411400">
        <ele>271.5</ele>
        <time>2011-06-25T11:02:25Z</time>
      </trkpt>
      <trkpt lat="43.288215" lon="-8.411408">
        <ele>271.5</ele>
        <time>2011-06-25T11:02:26Z</time>
      </trkpt>
      <trkpt lat="43.288197" lon="-8.411420">
        <ele>272.0</ele>
        <time>2011-06-25T11:02:27Z</time>
      </trkpt>
      <trkpt lat="43.288170" lon="-8.411428">
        <ele>272.0</ele>
        <time>2011-06-25T11:02:28Z</time>
      </trkpt>
      <trkpt lat="43.288143" lon="-8.411438">
        <ele>272.5</ele>
        <time>2011-06-25T11:02:29Z</time>
      </trkpt>
      <trkpt lat="43.288110" lon="-8.411443">
        <ele>272.5</ele>
        <time>2011-06-25T11:02:30Z</time>
      </trkpt>
      <trkpt lat="43.288075" lon="-8.411453">
        <ele>272.5</ele>
        <time>2011-06-25T11:02:31Z</time>
      </trkpt>
      <trkpt lat="43.288037" lon="-8.411470">
        <ele>273.0</ele>
        <time>2011-06-25T11:02:32Z</time>
      </trkpt>
      <trkpt lat="43.288002" lon="-8.411493">
        <ele>273.5</ele>
        <time>2011-06-25T11:02:33Z</time>
      </trkpt>
      <trkpt lat="43.287967" lon="-8.411520">
        <ele>274.5</ele>
        <time>2011-06-25T11:02:34Z</time>
      </trkpt>
      <trkpt lat="43.287923" lon="-8.411553">
        <ele>275.0</ele>
        <time>2011-06-25T11:02:35Z</time>
      </trkpt>
      <trkpt lat="43.287868" lon="-8.411578">
        <ele>275.0</ele>
        <time>2011-06-25T11:02:36Z</time>
      </trkpt>
      <trkpt lat="43.287822" lon="-8.411608">
        <ele>275.5</ele>
        <time>2011-06-25T11:02:37Z</time>
      </trkpt>
      <trkpt lat="43.287770" lon="-8.411637">
        <ele>276.5</ele>
        <time>2011-06-25T11:02:38Z</time>
      </trkpt>
      <trkpt lat="43.287713" lon="-8.411652">
        <ele>276.5</ele>
        <time>2011-06-25T11:02:39Z</time>
      </trkpt>
      <trkpt lat="43.287667" lon="-8.411672">
        <ele>278.0</ele>
        <time>2011-06-25T11:02:40Z</time>
      </trkpt>
      <trkpt lat="43.287543" lon="-8.411680">
        <ele>278.5</ele>
        <time>2011-06-25T11:02:42Z</time>
      </trkpt>
      <trkpt lat="43.287483" lon="-8.411698">
        <ele>278.0</ele>
        <time>2011-06-25T11:02:43Z</time>
      </trkpt>
      <trkpt lat="43.287418" lon="-8.411718">
        <ele>277.5</ele>
        <time>2011-06-25T11:02:44Z</time>
      </trkpt>
      <trkpt lat="43.287335" lon="-8.411750">
        <ele>277.0</ele>
        <time>2011-06-25T11:02:46Z</time>
      </trkpt>
      <trkpt lat="43.287290" lon="-8.411765">
        <ele>276.0</ele>
        <time>2011-06-25T11:02:47Z</time>
      </trkpt>
      <trkpt lat="43.287233" lon="-8.411775">
        <ele>274.0</ele>
        <time>2011-06-25T11:02:48Z</time>
      </trkpt>
      <trkpt lat="43.287177" lon="-8.411783">
        <ele>273.0</ele>
        <time>2011-06-25T11:02:49Z</time>
      </trkpt>
      <trkpt lat="43.287118" lon="-8.411795">
        <ele>271.5</ele>
        <time>2011-06-25T11:02:50Z</time>
      </trkpt>
      <trkpt lat="43.287058" lon="-8.411798">
        <ele>272.5</ele>
        <time>2011-06-25T11:02:51Z</time>
      </trkpt>
      <trkpt lat="43.286993" lon="-8.411808">
        <ele>271.5</ele>
        <time>2011-06-25T11:02:52Z</time>
      </trkpt>
      <trkpt lat="43.286930" lon="-8.411823">
        <ele>270.0</ele>
        <time>2011-06-25T11:02:53Z</time>
      </trkpt>
      <trkpt lat="43.286867" lon="-8.411840">
        <ele>269.5</ele>
        <time>2011-06-25T11:02:54Z</time>
      </trkpt>
      <trkpt lat="43.286805" lon="-8.411853">
        <ele>268.0</ele>
        <time>2011-06-25T11:02:55Z</time>
      </trkpt>
      <trkpt lat="43.286738" lon="-8.411865">
        <ele>267.0</ele>
        <time>2011-06-25T11:02:56Z</time>
      </trkpt>
      <trkpt lat="43.286673" lon="-8.411873">
        <ele>266.0</ele>
        <time>2011-06-25T11:02:57Z</time>
      </trkpt>
      <trkpt lat="43.286600" lon="-8.411918">
        <ele>266.0</ele>
        <time>2011-06-25T11:02:59Z</time>
      </trkpt>
      <trkpt lat="43.286568" lon="-8.411957">
        <ele>265.0</ele>
        <time>2011-06-25T11:03:00Z</time>
      </trkpt>
      <trkpt lat="43.286538" lon="-8.412020">
        <ele>263.5</ele>
        <time>2011-06-25T11:03:01Z</time>
      </trkpt>
      <trkpt lat="43.286530" lon="-8.412082">
        <ele>263.5</ele>
        <time>2011-06-25T11:03:02Z</time>
      </trkpt>
      <trkpt lat="43.286538" lon="-8.412122">
        <ele>263.5</ele>
        <time>2011-06-25T11:03:03Z</time>
      </trkpt>
      <trkpt lat="43.286547" lon="-8.412167">
        <ele>263.0</ele>
        <time>2011-06-25T11:03:04Z</time>
      </trkpt>
      <trkpt lat="43.286555" lon="-8.412212">
        <ele>263.0</ele>
        <time>2011-06-25T11:03:05Z</time>
      </trkpt>
      <trkpt lat="43.286560" lon="-8.412255">
        <ele>263.0</ele>
        <time>2011-06-25T11:03:06Z</time>
      </trkpt>
      <trkpt lat="43.286565" lon="-8.412290">
        <ele>263.0</ele>
        <time>2011-06-25T11:03:07Z</time>
      </trkpt>
      <trkpt lat="43.286567" lon="-8.412317">
        <ele>263.0</ele>
        <time>2011-06-25T11:03:08Z</time>
      </trkpt>
      <trkpt lat="43.286565" lon="-8.412338">
        <ele>263.5</ele>
        <time>2011-06-25T11:03:09Z</time>
      </trkpt>
      <trkpt lat="43.286565" lon="-8.412360">
        <ele>264.0</ele>
        <time>2011-06-25T11:03:10Z</time>
      </trkpt>
      <trkpt lat="43.286572" lon="-8.412380">
        <ele>263.5</ele>
        <time>2011-06-25T11:03:11Z</time>
      </trkpt>
      <trkpt lat="43.286575" lon="-8.412408">
        <ele>263.0</ele>
        <time>2011-06-25T11:03:12Z</time>
      </trkpt>
      <trkpt lat="43.286578" lon="-8.412445">
        <ele>263.0</ele>
        <time>2011-06-25T11:03:13Z</time>
      </trkpt>
      <trkpt lat="43.286578" lon="-8.412477">
        <ele>263.0</ele>
        <time>2011-06-25T11:03:14Z</time>
      </trkpt>
      <trkpt lat="43.286575" lon="-8.412508">
        <ele>263.0</ele>
        <time>2011-06-25T11:03:15Z</time>
      </trkpt>
      <trkpt lat="43.286573" lon="-8.412542">
        <ele>262.5</ele>
        <time>2011-06-25T11:03:16Z</time>
      </trkpt>
      <trkpt lat="43.286573" lon="-8.412568">
        <ele>262.5</ele>
        <time>2011-06-25T11:03:17Z</time>
      </trkpt>
      <trkpt lat="43.286573" lon="-8.412597">
        <ele>262.0</ele>
        <time>2011-06-25T11:03:18Z</time>
      </trkpt>
      <trkpt lat="43.286570" lon="-8.412630">
        <ele>262.0</ele>
        <time>2011-06-25T11:03:19Z</time>
      </trkpt>
      <trkpt lat="43.286567" lon="-8.412667">
        <ele>261.5</ele>
        <time>2011-06-25T11:03:20Z</time>
      </trkpt>
      <trkpt lat="43.286565" lon="-8.412703">
        <ele>261.5</ele>
        <time>2011-06-25T11:03:21Z</time>
      </trkpt>
      <trkpt lat="43.286563" lon="-8.412733">
        <ele>262.0</ele>
        <time>2011-06-25T11:03:22Z</time>
      </trkpt>
      <trkpt lat="43.286555" lon="-8.412765">
        <ele>262.0</ele>
        <time>2011-06-25T11:03:23Z</time>
      </trkpt>
      <trkpt lat="43.286540" lon="-8.412812">
        <ele>262.0</ele>
        <time>2011-06-25T11:03:24Z</time>
      </trkpt>
      <trkpt lat="43.286518" lon="-8.412860">
        <ele>261.5</ele>
        <time>2011-06-25T11:03:25Z</time>
      </trkpt>
      <trkpt lat="43.286488" lon="-8.412912">
        <ele>260.0</ele>
        <time>2011-06-25T11:03:26Z</time>
      </trkpt>
      <trkpt lat="43.286467" lon="-8.412968">
        <ele>259.0</ele>
        <time>2011-06-25T11:03:27Z</time>
      </trkpt>
      <trkpt lat="43.286445" lon="-8.413017">
        <ele>259.0</ele>
        <time>2011-06-25T11:03:28Z</time>
      </trkpt>
      <trkpt lat="43.286422" lon="-8.413060">
        <ele>259.0</ele>
        <time>2011-06-25T11:03:29Z</time>
      </trkpt>
      <trkpt lat="43.286403" lon="-8.413100">
        <ele>259.5</ele>
        <time>2011-06-25T11:03:30Z</time>
      </trkpt>
      <trkpt lat="43.286383" lon="-8.413142">
        <ele>259.5</ele>
        <time>2011-06-25T11:03:31Z</time>
      </trkpt>
      <trkpt lat="43.286370" lon="-8.413187">
        <ele>260.0</ele>
        <time>2011-06-25T11:03:32Z</time>
      </trkpt>
      <trkpt lat="43.286353" lon="-8.413227">
        <ele>260.0</ele>
        <time>2011-06-25T11:03:33Z</time>
      </trkpt>
      <trkpt lat="43.286330" lon="-8.413262">
        <ele>260.0</ele>
        <time>2011-06-25T11:03:34Z</time>
      </trkpt>
      <trkpt lat="43.286315" lon="-8.413307">
        <ele>259.5</ele>
        <time>2011-06-25T11:03:35Z</time>
      </trkpt>
      <trkpt lat="43.286297" lon="-8.413345">
        <ele>259.0</ele>
        <time>2011-06-25T11:03:36Z</time>
      </trkpt>
      <trkpt lat="43.286277" lon="-8.413383">
        <ele>259.0</ele>
        <time>2011-06-25T11:03:37Z</time>
      </trkpt>
      <trkpt lat="43.286268" lon="-8.413423">
        <ele>259.5</ele>
        <time>2011-06-25T11:03:38Z</time>
      </trkpt>
      <trkpt lat="43.286255" lon="-8.413463">
        <ele>259.5</ele>
        <time>2011-06-25T11:03:39Z</time>
      </trkpt>
      <trkpt lat="43.286242" lon="-8.413503">
        <ele>259.5</ele>
        <time>2011-06-25T11:03:40Z</time>
      </trkpt>
      <trkpt lat="43.286232" lon="-8.413543">
        <ele>259.5</ele>
        <time>2011-06-25T11:03:41Z</time>
      </trkpt>
      <trkpt lat="43.286218" lon="-8.413583">
        <ele>259.5</ele>
        <time>2011-06-25T11:03:42Z</time>
      </trkpt>
      <trkpt lat="43.286202" lon="-8.413622">
        <ele>259.0</ele>
        <time>2011-06-25T11:03:43Z</time>
      </trkpt>
      <trkpt lat="43.286188" lon="-8.413658">
        <ele>259.5</ele>
        <time>2011-06-25T11:03:44Z</time>
      </trkpt>
      <trkpt lat="43.286175" lon="-8.413695">
        <ele>259.0</ele>
        <time>2011-06-25T11:03:45Z</time>
      </trkpt>
      <trkpt lat="43.286162" lon="-8.413730">
        <ele>259.5</ele>
        <time>2011-06-25T11:03:46Z</time>
      </trkpt>
      <trkpt lat="43.286148" lon="-8.413765">
        <ele>259.5</ele>
        <time>2011-06-25T11:03:47Z</time>
      </trkpt>
      <trkpt lat="43.286135" lon="-8.413803">
        <ele>259.5</ele>
        <time>2011-06-25T11:03:48Z</time>
      </trkpt>
      <trkpt lat="43.286117" lon="-8.413840">
        <ele>259.5</ele>
        <time>2011-06-25T11:03:49Z</time>
      </trkpt>
      <trkpt lat="43.286098" lon="-8.413882">
        <ele>259.0</ele>
        <time>2011-06-25T11:03:50Z</time>
      </trkpt>
      <trkpt lat="43.286077" lon="-8.413930">
        <ele>259.0</ele>
        <time>2011-06-25T11:03:51Z</time>
      </trkpt>
      <trkpt lat="43.286053" lon="-8.413978">
        <ele>258.5</ele>
        <time>2011-06-25T11:03:52Z</time>
      </trkpt>
      <trkpt lat="43.286028" lon="-8.414032">
        <ele>258.5</ele>
        <time>2011-06-25T11:03:53Z</time>
      </trkpt>
      <trkpt lat="43.286002" lon="-8.414083">
        <ele>259.0</ele>
        <time>2011-06-25T11:03:54Z</time>
      </trkpt>
      <trkpt lat="43.285977" lon="-8.414132">
        <ele>259.0</ele>
        <time>2011-06-25T11:03:55Z</time>
      </trkpt>
      <trkpt lat="43.285958" lon="-8.414175">
        <ele>260.0</ele>
        <time>2011-06-25T11:03:56Z</time>
      </trkpt>
      <trkpt lat="43.285935" lon="-8.414213">
        <ele>260.0</ele>
        <time>2011-06-25T11:03:57Z</time>
      </trkpt>
      <trkpt lat="43.285917" lon="-8.414255">
        <ele>259.5</ele>
        <time>2011-06-25T11:03:58Z</time>
      </trkpt>
      <trkpt lat="43.285900" lon="-8.414310">
        <ele>258.5</ele>
        <time>2011-06-25T11:03:59Z</time>
      </trkpt>
      <trkpt lat="43.285883" lon="-8.414362">
        <ele>258.5</ele>
        <time>2011-06-25T11:04:00Z</time>
      </trkpt>
      <trkpt lat="43.285860" lon="-8.414397">
        <ele>259.5</ele>
        <time>2011-06-25T11:04:01Z</time>
      </trkpt>
      <trkpt lat="43.285843" lon="-8.414430">
        <ele>260.5</ele>
        <time>2011-06-25T11:04:02Z</time>
      </trkpt>
      <trkpt lat="43.285832" lon="-8.414465">
        <ele>260.5</ele>
        <time>2011-06-25T11:04:03Z</time>
      </trkpt>
      <trkpt lat="43.285820" lon="-8.414500">
        <ele>260.5</ele>
        <time>2011-06-25T11:04:04Z</time>
      </trkpt>
      <trkpt lat="43.285810" lon="-8.414533">
        <ele>261.0</ele>
        <time>2011-06-25T11:04:05Z</time>
      </trkpt>
      <trkpt lat="43.285792" lon="-8.414568">
        <ele>261.0</ele>
        <time>2011-06-25T11:04:06Z</time>
      </trkpt>
      <trkpt lat="43.285782" lon="-8.414597">
        <ele>262.0</ele>
        <time>2011-06-25T11:04:07Z</time>
      </trkpt>
      <trkpt lat="43.285763" lon="-8.414633">
        <ele>262.0</ele>
        <time>2011-06-25T11:04:08Z</time>
      </trkpt>
      <trkpt lat="43.285732" lon="-8.414653">
        <ele>261.5</ele>
        <time>2011-06-25T11:04:09Z</time>
      </trkpt>
      <trkpt lat="43.285720" lon="-8.414693">
        <ele>261.5</ele>
        <time>2011-06-25T11:04:10Z</time>
      </trkpt>
      <trkpt lat="43.285713" lon="-8.414730">
        <ele>261.5</ele>
        <time>2011-06-25T11:04:11Z</time>
      </trkpt>
      <trkpt lat="43.285712" lon="-8.414767">
        <ele>262.5</ele>
        <time>2011-06-25T11:04:12Z</time>
      </trkpt>
      <trkpt lat="43.285715" lon="-8.414802">
        <ele>263.0</ele>
        <time>2011-06-25T11:04:13Z</time>
      </trkpt>
      <trkpt lat="43.285707" lon="-8.414835">
        <ele>262.0</ele>
        <time>2011-06-25T11:04:14Z</time>
      </trkpt>
      <trkpt lat="43.285688" lon="-8.414855">
        <ele>262.0</ele>
        <time>2011-06-25T11:04:15Z</time>
      </trkpt>
      <trkpt lat="43.285688" lon="-8.414888">
        <ele>263.0</ele>
        <time>2011-06-25T11:04:16Z</time>
      </trkpt>
      <trkpt lat="43.285682" lon="-8.414927">
        <ele>262.5</ele>
        <time>2011-06-25T11:04:17Z</time>
      </trkpt>
      <trkpt lat="43.285673" lon="-8.414962">
        <ele>261.5</ele>
        <time>2011-06-25T11:04:18Z</time>
      </trkpt>
      <trkpt lat="43.285677" lon="-8.414990">
        <ele>263.5</ele>
        <time>2011-06-25T11:04:19Z</time>
      </trkpt>
      <trkpt lat="43.285678" lon="-8.415020">
        <ele>265.0</ele>
        <time>2011-06-25T11:04:20Z</time>
      </trkpt>
      <trkpt lat="43.285667" lon="-8.415057">
        <ele>264.5</ele>
        <time>2011-06-25T11:04:21Z</time>
      </trkpt>
      <trkpt lat="43.285660" lon="-8.415095">
        <ele>264.5</ele>
        <time>2011-06-25T11:04:22Z</time>
      </trkpt>
      <trkpt lat="43.285655" lon="-8.415137">
        <ele>264.0</ele>
        <time>2011-06-25T11:04:23Z</time>
      </trkpt>
      <trkpt lat="43.285642" lon="-8.415173">
        <ele>263.0</ele>
        <time>2011-06-25T11:04:24Z</time>
      </trkpt>
      <trkpt lat="43.285630" lon="-8.415205">
        <ele>263.0</ele>
        <time>2011-06-25T11:04:25Z</time>
      </trkpt>
      <trkpt lat="43.285623" lon="-8.415238">
        <ele>263.5</ele>
        <time>2011-06-25T11:04:26Z</time>
      </trkpt>
      <trkpt lat="43.285617" lon="-8.415275">
        <ele>263.5</ele>
        <time>2011-06-25T11:04:27Z</time>
      </trkpt>
      <trkpt lat="43.285607" lon="-8.415307">
        <ele>263.5</ele>
        <time>2011-06-25T11:04:28Z</time>
      </trkpt>
      <trkpt lat="43.285600" lon="-8.415340">
        <ele>263.5</ele>
        <time>2011-06-25T11:04:29Z</time>
      </trkpt>
      <trkpt lat="43.285595" lon="-8.415368">
        <ele>263.5</ele>
        <time>2011-06-25T11:04:30Z</time>
      </trkpt>
      <trkpt lat="43.285590" lon="-8.415395">
        <ele>264.0</ele>
        <time>2011-06-25T11:04:31Z</time>
      </trkpt>
      <trkpt lat="43.285590" lon="-8.415410">
        <ele>266.5</ele>
        <time>2011-06-25T11:04:32Z</time>
      </trkpt>
      <trkpt lat="43.285565" lon="-8.415397">
        <ele>266.5</ele>
        <time>2011-06-25T11:04:33Z</time>
      </trkpt>
      <trkpt lat="43.285560" lon="-8.415417">
        <ele>267.0</ele>
        <time>2011-06-25T11:04:35Z</time>
      </trkpt>
      <trkpt lat="43.285565" lon="-8.415428">
        <ele>268.0</ele>
        <time>2011-06-25T11:04:36Z</time>
      </trkpt>
      <trkpt lat="43.285567" lon="-8.415500">
        <ele>267.5</ele>
        <time>2011-06-25T11:04:38Z</time>
      </trkpt>
      <trkpt lat="43.285570" lon="-8.415518">
        <ele>268.0</ele>
        <time>2011-06-25T11:04:39Z</time>
      </trkpt>
      <trkpt lat="43.285573" lon="-8.415532">
        <ele>269.0</ele>
        <time>2011-06-25T11:04:40Z</time>
      </trkpt>
      <trkpt lat="43.285593" lon="-8.415582">
        <ele>269.0</ele>
        <time>2011-06-25T11:04:42Z</time>
      </trkpt>
      <trkpt lat="43.285592" lon="-8.415568">
        <ele>271.0</ele>
        <time>2011-06-25T11:04:43Z</time>
      </trkpt>
      <trkpt lat="43.285592" lon="-8.415560">
        <ele>272.5</ele>
        <time>2011-06-25T11:04:44Z</time>
      </trkpt>
      <trkpt lat="43.285597" lon="-8.415615">
        <ele>274.0</ele>
        <time>2011-06-25T11:04:46Z</time>
      </trkpt>
      <trkpt lat="43.285603" lon="-8.415630">
        <ele>276.0</ele>
        <time>2011-06-25T11:04:47Z</time>
      </trkpt>
      <trkpt lat="43.285600" lon="-8.415650">
        <ele>276.0</ele>
        <time>2011-06-25T11:04:48Z</time>
      </trkpt>
      <trkpt lat="43.285597" lon="-8.415668">
        <ele>276.0</ele>
        <time>2011-06-25T11:04:49Z</time>
      </trkpt>
      <trkpt lat="43.285598" lon="-8.415680">
        <ele>276.0</ele>
        <time>2011-06-25T11:04:50Z</time>
      </trkpt>
      <trkpt lat="43.285598" lon="-8.415692">
        <ele>276.5</ele>
        <time>2011-06-25T11:04:51Z</time>
      </trkpt>
      <trkpt lat="43.285600" lon="-8.415705">
        <ele>277.0</ele>
        <time>2011-06-25T11:04:52Z</time>
      </trkpt>
      <trkpt lat="43.285598" lon="-8.415717">
        <ele>277.0</ele>
        <time>2011-06-25T11:04:53Z</time>
      </trkpt>
      <trkpt lat="43.285597" lon="-8.415728">
        <ele>277.0</ele>
        <time>2011-06-25T11:04:54Z</time>
      </trkpt>
      <trkpt lat="43.285593" lon="-8.415738">
        <ele>277.0</ele>
        <time>2011-06-25T11:04:55Z</time>
      </trkpt>
      <trkpt lat="43.285590" lon="-8.415748">
        <ele>277.0</ele>
        <time>2011-06-25T11:04:56Z</time>
      </trkpt>
      <trkpt lat="43.285590" lon="-8.415755">
        <ele>277.5</ele>
        <time>2011-06-25T11:04:57Z</time>
      </trkpt>
      <trkpt lat="43.285592" lon="-8.415767">
        <ele>278.0</ele>
        <time>2011-06-25T11:04:58Z</time>
      </trkpt>
      <trkpt lat="43.285593" lon="-8.415778">
        <ele>277.5</ele>
        <time>2011-06-25T11:04:59Z</time>
      </trkpt>
      <trkpt lat="43.285592" lon="-8.415788">
        <ele>277.0</ele>
        <time>2011-06-25T11:05:00Z</time>
      </trkpt>
      <trkpt lat="43.285603" lon="-8.415803">
        <ele>277.0</ele>
        <time>2011-06-25T11:05:01Z</time>
      </trkpt>
      <trkpt lat="43.285605" lon="-8.415808">
        <ele>277.5</ele>
        <time>2011-06-25T11:05:02Z</time>
      </trkpt>
      <trkpt lat="43.285607" lon="-8.415818">
        <ele>277.5</ele>
        <time>2011-06-25T11:05:03Z</time>
      </trkpt>
      <trkpt lat="43.285612" lon="-8.415830">
        <ele>277.0</ele>
        <time>2011-06-25T11:05:04Z</time>
      </trkpt>
      <trkpt lat="43.285615" lon="-8.415843">
        <ele>276.0</ele>
        <time>2011-06-25T11:05:05Z</time>
      </trkpt>
      <trkpt lat="43.285620" lon="-8.415858">
        <ele>276.0</ele>
        <time>2011-06-25T11:05:06Z</time>
      </trkpt>
      <trkpt lat="43.285627" lon="-8.415872">
        <ele>276.0</ele>
        <time>2011-06-25T11:05:07Z</time>
      </trkpt>
      <trkpt lat="43.285633" lon="-8.415887">
        <ele>276.0</ele>
        <time>2011-06-25T11:05:08Z</time>
      </trkpt>
      <trkpt lat="43.285632" lon="-8.415877">
        <ele>276.5</ele>
        <time>2011-06-25T11:05:09Z</time>
      </trkpt>
      <trkpt lat="43.285635" lon="-8.415882">
        <ele>277.0</ele>
        <time>2011-06-25T11:05:10Z</time>
      </trkpt>
      <trkpt lat="43.285640" lon="-8.415890">
        <ele>277.5</ele>
        <time>2011-06-25T11:05:11Z</time>
      </trkpt>
      <trkpt lat="43.285645" lon="-8.415900">
        <ele>277.5</ele>
        <time>2011-06-25T11:05:12Z</time>
      </trkpt>
      <trkpt lat="43.285648" lon="-8.415915">
        <ele>278.0</ele>
        <time>2011-06-25T11:05:13Z</time>
      </trkpt>
      <trkpt lat="43.285655" lon="-8.415928">
        <ele>278.0</ele>
        <time>2011-06-25T11:05:14Z</time>
      </trkpt>
      <trkpt lat="43.285662" lon="-8.415948">
        <ele>277.5</ele>
        <time>2011-06-25T11:05:15Z</time>
      </trkpt>
      <trkpt lat="43.285667" lon="-8.415962">
        <ele>277.5</ele>
        <time>2011-06-25T11:05:16Z</time>
      </trkpt>
      <trkpt lat="43.285670" lon="-8.415983">
        <ele>277.0</ele>
        <time>2011-06-25T11:05:17Z</time>
      </trkpt>
      <trkpt lat="43.285672" lon="-8.416000">
        <ele>277.0</ele>
        <time>2011-06-25T11:05:18Z</time>
      </trkpt>
      <trkpt lat="43.285673" lon="-8.416007">
        <ele>278.5</ele>
        <time>2011-06-25T11:05:19Z</time>
      </trkpt>
      <trkpt lat="43.285678" lon="-8.416012">
        <ele>279.5</ele>
        <time>2011-06-25T11:05:20Z</time>
      </trkpt>
      <trkpt lat="43.285682" lon="-8.416013">
        <ele>280.5</ele>
        <time>2011-06-25T11:05:21Z</time>
      </trkpt>
      <trkpt lat="43.285687" lon="-8.416015">
        <ele>281.5</ele>
        <time>2011-06-25T11:05:22Z</time>
      </trkpt>
      <trkpt lat="43.285688" lon="-8.416022">
        <ele>283.0</ele>
        <time>2011-06-25T11:05:23Z</time>
      </trkpt>
      <trkpt lat="43.285690" lon="-8.416030">
        <ele>284.5</ele>
        <time>2011-06-25T11:05:24Z</time>
      </trkpt>
      <trkpt lat="43.285692" lon="-8.416042">
        <ele>285.0</ele>
        <time>2011-06-25T11:05:25Z</time>
      </trkpt>
      <trkpt lat="43.285695" lon="-8.416068">
        <ele>285.5</ele>
        <time>2011-06-25T11:05:26Z</time>
      </trkpt>
      <trkpt lat="43.285695" lon="-8.416083">
        <ele>285.5</ele>
        <time>2011-06-25T11:05:27Z</time>
      </trkpt>
      <trkpt lat="43.285700" lon="-8.416100">
        <ele>286.0</ele>
        <time>2011-06-25T11:05:28Z</time>
      </trkpt>
      <trkpt lat="43.285703" lon="-8.416110">
        <ele>287.5</ele>
        <time>2011-06-25T11:05:29Z</time>
      </trkpt>
      <trkpt lat="43.285710" lon="-8.416122">
        <ele>288.0</ele>
        <time>2011-06-25T11:05:30Z</time>
      </trkpt>
      <trkpt lat="43.285715" lon="-8.416135">
        <ele>288.5</ele>
        <time>2011-06-25T11:05:31Z</time>
      </trkpt>
      <trkpt lat="43.285720" lon="-8.416153">
        <ele>288.5</ele>
        <time>2011-06-25T11:05:32Z</time>
      </trkpt>
      <trkpt lat="43.285727" lon="-8.416168">
        <ele>289.0</ele>
        <time>2011-06-25T11:05:33Z</time>
      </trkpt>
      <trkpt lat="43.285730" lon="-8.416183">
        <ele>289.5</ele>
        <time>2011-06-25T11:05:34Z</time>
      </trkpt>
      <trkpt lat="43.285735" lon="-8.416195">
        <ele>290.5</ele>
        <time>2011-06-25T11:05:35Z</time>
      </trkpt>
      <trkpt lat="43.285737" lon="-8.416212">
        <ele>291.0</ele>
        <time>2011-06-25T11:05:36Z</time>
      </trkpt>
      <trkpt lat="43.285738" lon="-8.416227">
        <ele>291.0</ele>
        <time>2011-06-25T11:05:37Z</time>
      </trkpt>
      <trkpt lat="43.285742" lon="-8.416237">
        <ele>291.5</ele>
        <time>2011-06-25T11:05:38Z</time>
      </trkpt>
      <trkpt lat="43.285747" lon="-8.416248">
        <ele>292.0</ele>
        <time>2011-06-25T11:05:39Z</time>
      </trkpt>
      <trkpt lat="43.285757" lon="-8.416310">
        <ele>292.0</ele>
        <time>2011-06-25T11:05:41Z</time>
      </trkpt>
      <trkpt lat="43.285762" lon="-8.416325">
        <ele>292.0</ele>
        <time>2011-06-25T11:05:42Z</time>
      </trkpt>
      <trkpt lat="43.285765" lon="-8.416338">
        <ele>292.0</ele>
        <time>2011-06-25T11:05:43Z</time>
      </trkpt>
      <trkpt lat="43.285772" lon="-8.416348">
        <ele>292.5</ele>
        <time>2011-06-25T11:05:44Z</time>
      </trkpt>
      <trkpt lat="43.285780" lon="-8.416357">
        <ele>292.5</ele>
        <time>2011-06-25T11:05:45Z</time>
      </trkpt>
      <trkpt lat="43.285792" lon="-8.416360">
        <ele>293.0</ele>
        <time>2011-06-25T11:05:46Z</time>
      </trkpt>
      <trkpt lat="43.285802" lon="-8.416367">
        <ele>293.0</ele>
        <time>2011-06-25T11:05:47Z</time>
      </trkpt>
      <trkpt lat="43.285808" lon="-8.416373">
        <ele>293.0</ele>
        <time>2011-06-25T11:05:48Z</time>
      </trkpt>
      <trkpt lat="43.285815" lon="-8.416388">
        <ele>293.0</ele>
        <time>2011-06-25T11:05:49Z</time>
      </trkpt>
      <trkpt lat="43.285817" lon="-8.416403">
        <ele>293.0</ele>
        <time>2011-06-25T11:05:50Z</time>
      </trkpt>
      <trkpt lat="43.285815" lon="-8.416420">
        <ele>292.5</ele>
        <time>2011-06-25T11:05:51Z</time>
      </trkpt>
      <trkpt lat="43.285812" lon="-8.416428">
        <ele>293.0</ele>
        <time>2011-06-25T11:05:52Z</time>
      </trkpt>
      <trkpt lat="43.285805" lon="-8.416450">
        <ele>291.5</ele>
        <time>2011-06-25T11:05:53Z</time>
      </trkpt>
      <trkpt lat="43.285800" lon="-8.416478">
        <ele>289.5</ele>
        <time>2011-06-25T11:05:54Z</time>
      </trkpt>
      <trkpt lat="43.285798" lon="-8.416482">
        <ele>289.0</ele>
        <time>2011-06-25T11:05:55Z</time>
      </trkpt>
      <trkpt lat="43.285790" lon="-8.416488">
        <ele>288.0</ele>
        <time>2011-06-25T11:05:56Z</time>
      </trkpt>
      <trkpt lat="43.285783" lon="-8.416502">
        <ele>287.0</ele>
        <time>2011-06-25T11:05:57Z</time>
      </trkpt>
      <trkpt lat="43.285783" lon="-8.416517">
        <ele>286.5</ele>
        <time>2011-06-25T11:05:58Z</time>
      </trkpt>
      <trkpt lat="43.285783" lon="-8.416532">
        <ele>286.5</ele>
        <time>2011-06-25T11:05:59Z</time>
      </trkpt>
      <trkpt lat="43.285788" lon="-8.416560">
        <ele>285.0</ele>
        <time>2011-06-25T11:06:00Z</time>
      </trkpt>
      <trkpt lat="43.285795" lon="-8.416563">
        <ele>285.5</ele>
        <time>2011-06-25T11:06:01Z</time>
      </trkpt>
      <trkpt lat="43.285795" lon="-8.416563">
        <ele>285.5</ele>
        <time>2011-06-25T11:06:02Z</time>
      </trkpt>
      <trkpt lat="43.285795" lon="-8.416565">
        <ele>285.5</ele>
        <time>2011-06-25T11:06:03Z</time>
      </trkpt>
      <trkpt lat="43.285793" lon="-8.416565">
        <ele>285.5</ele>
        <time>2011-06-25T11:06:04Z</time>
      </trkpt>
      <trkpt lat="43.285793" lon="-8.416567">
        <ele>285.5</ele>
        <time>2011-06-25T11:06:05Z</time>
      </trkpt>
      <trkpt lat="43.285792" lon="-8.416570">
        <ele>286.0</ele>
        <time>2011-06-25T11:06:06Z</time>
      </trkpt>
      <trkpt lat="43.285792" lon="-8.416573">
        <ele>286.0</ele>
        <time>2011-06-25T11:06:07Z</time>
      </trkpt>
      <trkpt lat="43.285792" lon="-8.416577">
        <ele>286.0</ele>
        <time>2011-06-25T11:06:08Z</time>
      </trkpt>
      <trkpt lat="43.285790" lon="-8.416580">
        <ele>286.5</ele>
        <time>2011-06-25T11:06:09Z</time>
      </trkpt>
      <trkpt lat="43.285790" lon="-8.416582">
        <ele>286.5</ele>
        <time>2011-06-25T11:06:10Z</time>
      </trkpt>
      <trkpt lat="43.285790" lon="-8.416583">
        <ele>286.0</ele>
        <time>2011-06-25T11:06:11Z</time>
      </trkpt>
      <trkpt lat="43.285790" lon="-8.416583">
        <ele>286.0</ele>
        <time>2011-06-25T11:06:12Z</time>
      </trkpt>
      <trkpt lat="43.285790" lon="-8.416583">
        <ele>286.0</ele>
        <time>2011-06-25T11:06:13Z</time>
      </trkpt>
      <trkpt lat="43.285788" lon="-8.416585">
        <ele>286.0</ele>
        <time>2011-06-25T11:06:14Z</time>
      </trkpt>
      <trkpt lat="43.285788" lon="-8.416585">
        <ele>286.0</ele>
        <time>2011-06-25T11:06:15Z</time>
      </trkpt>
      <trkpt lat="43.285788" lon="-8.416585">
        <ele>286.0</ele>
        <time>2011-06-25T11:06:16Z</time>
      </trkpt>
      <trkpt lat="43.285788" lon="-8.416587">
        <ele>286.0</ele>
        <time>2011-06-25T11:06:17Z</time>
      </trkpt>
      <trkpt lat="43.285787" lon="-8.416587">
        <ele>285.5</ele>
        <time>2011-06-25T11:06:18Z</time>
      </trkpt>
      <trkpt lat="43.285787" lon="-8.416587">
        <ele>285.5</ele>
        <time>2011-06-25T11:06:19Z</time>
      </trkpt>
      <trkpt lat="43.285787" lon="-8.416587">
        <ele>285.5</ele>
        <time>2011-06-25T11:06:20Z</time>
      </trkpt>
      <trkpt lat="43.285787" lon="-8.416587">
        <ele>285.5</ele>
        <time>2011-06-25T11:06:21Z</time>
      </trkpt>
      <trkpt lat="43.285787" lon="-8.416587">
        <ele>285.5</ele>
        <time>2011-06-25T11:06:22Z</time>
      </trkpt>
      <trkpt lat="43.285787" lon="-8.416587">
        <ele>285.5</ele>
        <time>2011-06-25T11:06:23Z</time>
      </trkpt>
      <trkpt lat="43.285787" lon="-8.416587">
        <ele>285.5</ele>
        <time>2011-06-25T11:06:24Z</time>
      </trkpt>
      <trkpt lat="43.285787" lon="-8.416588">
        <ele>285.5</ele>
        <time>2011-06-25T11:06:25Z</time>
      </trkpt>
      <trkpt lat="43.285787" lon="-8.416588">
        <ele>285.5</ele>
        <time>2011-06-25T11:06:26Z</time>
      </trkpt>
      <trkpt lat="43.285787" lon="-8.416588">
        <ele>285.5</ele>
        <time>2011-06-25T11:06:27Z</time>
      </trkpt>
      <trkpt lat="43.285787" lon="-8.416588">
        <ele>285.5</ele>
        <time>2011-06-25T11:06:28Z</time>
      </trkpt>
      <trkpt lat="43.285787" lon="-8.416588">
        <ele>285.5</ele>
        <time>2011-06-25T11:06:29Z</time>
      </trkpt>
      <trkpt lat="43.285787" lon="-8.416588">
        <ele>285.5</ele>
        <time>2011-06-25T11:06:30Z</time>
      </trkpt>
      <trkpt lat="43.285787" lon="-8.416588">
        <ele>285.5</ele>
        <time>2011-06-25T11:06:31Z</time>
      </trkpt>
      <trkpt lat="43.285787" lon="-8.416590">
        <ele>285.5</ele>
        <time>2011-06-25T11:06:32Z</time>
      </trkpt>
      <trkpt lat="43.285787" lon="-8.416590">
        <ele>285.5</ele>
        <time>2011-06-25T11:06:33Z</time>
      </trkpt>
      <trkpt lat="43.285787" lon="-8.416590">
        <ele>285.5</ele>
        <time>2011-06-25T11:06:34Z</time>
      </trkpt>
      <trkpt lat="43.285787" lon="-8.416590">
        <ele>285.5</ele>
        <time>2011-06-25T11:06:35Z</time>
      </trkpt>
      <trkpt lat="43.285787" lon="-8.416590">
        <ele>285.5</ele>
        <time>2011-06-25T11:06:36Z</time>
      </trkpt>
      <trkpt lat="43.285787" lon="-8.416590">
        <ele>285.5</ele>
        <time>2011-06-25T11:06:37Z</time>
      </trkpt>
      <trkpt lat="43.285787" lon="-8.416590">
        <ele>285.5</ele>
        <time>2011-06-25T11:06:38Z</time>
      </trkpt>
      <trkpt lat="43.285787" lon="-8.416590">
        <ele>285.5</ele>
        <time>2011-06-25T11:06:39Z</time>
      </trkpt>
      <trkpt lat="43.285787" lon="-8.416590">
        <ele>285.5</ele>
        <time>2011-06-25T11:06:40Z</time>
      </trkpt>
      <trkpt lat="43.285788" lon="-8.416590">
        <ele>285.0</ele>
        <time>2011-06-25T11:06:41Z</time>
      </trkpt>
      <trkpt lat="43.285788" lon="-8.416590">
        <ele>285.0</ele>
        <time>2011-06-25T11:06:42Z</time>
      </trkpt>
      <trkpt lat="43.285788" lon="-8.416590">
        <ele>285.0</ele>
        <time>2011-06-25T11:06:43Z</time>
      </trkpt>
      <trkpt lat="43.285788" lon="-8.416590">
        <ele>285.0</ele>
        <time>2011-06-25T11:06:44Z</time>
      </trkpt>
      <trkpt lat="43.285788" lon="-8.416590">
        <ele>285.0</ele>
        <time>2011-06-25T11:06:45Z</time>
      </trkpt>
      <trkpt lat="43.285788" lon="-8.416590">
        <ele>285.0</ele>
        <time>2011-06-25T11:06:46Z</time>
      </trkpt>
      <trkpt lat="43.285788" lon="-8.416590">
        <ele>285.5</ele>
        <time>2011-06-25T11:06:47Z</time>
      </trkpt>
      <trkpt lat="43.285788" lon="-8.416590">
        <ele>285.5</ele>
        <time>2011-06-25T11:06:48Z</time>
      </trkpt>
      <trkpt lat="43.285788" lon="-8.416590">
        <ele>285.5</ele>
        <time>2011-06-25T11:06:49Z</time>
      </trkpt>
      <trkpt lat="43.285788" lon="-8.416590">
        <ele>285.5</ele>
        <time>2011-06-25T11:06:50Z</time>
      </trkpt>
      <trkpt lat="43.285788" lon="-8.416590">
        <ele>285.5</ele>
        <time>2011-06-25T11:06:51Z</time>
      </trkpt>
      <trkpt lat="43.285788" lon="-8.416590">
        <ele>285.5</ele>
        <time>2011-06-25T11:06:52Z</time>
      </trkpt>
      <trkpt lat="43.285788" lon="-8.416590">
        <ele>285.5</ele>
        <time>2011-06-25T11:06:53Z</time>
      </trkpt>
      <trkpt lat="43.285788" lon="-8.416590">
        <ele>285.5</ele>
        <time>2011-06-25T11:06:54Z</time>
      </trkpt>
      <trkpt lat="43.285788" lon="-8.416590">
        <ele>285.5</ele>
        <time>2011-06-25T11:06:55Z</time>
      </trkpt>
      <trkpt lat="43.285788" lon="-8.416590">
        <ele>285.5</ele>
        <time>2011-06-25T11:06:56Z</time>
      </trkpt>
      <trkpt lat="43.285788" lon="-8.416590">
        <ele>285.5</ele>
        <time>2011-06-25T11:06:57Z</time>
      </trkpt>
      <trkpt lat="43.285788" lon="-8.416590">
        <ele>285.5</ele>
        <time>2011-06-25T11:06:58Z</time>
      </trkpt>
      <trkpt lat="43.285788" lon="-8.416590">
        <ele>285.5</ele>
        <time>2011-06-25T11:06:59Z</time>
      </trkpt>
      <trkpt lat="43.285788" lon="-8.416590">
        <ele>285.5</ele>
        <time>2011-06-25T11:07:00Z</time>
      </trkpt>
      <trkpt lat="43.285788" lon="-8.416590">
        <ele>285.5</ele>
        <time>2011-06-25T11:07:01Z</time>
      </trkpt>
      <trkpt lat="43.285788" lon="-8.416590">
        <ele>285.5</ele>
        <time>2011-06-25T11:07:02Z</time>
      </trkpt>
      <trkpt lat="43.285788" lon="-8.416590">
        <ele>285.5</ele>
        <time>2011-06-25T11:07:03Z</time>
      </trkpt>
      <trkpt lat="43.285788" lon="-8.416592">
        <ele>285.5</ele>
        <time>2011-06-25T11:07:04Z</time>
      </trkpt>
      <trkpt lat="43.285788" lon="-8.416592">
        <ele>285.5</ele>
        <time>2011-06-25T11:07:05Z</time>
      </trkpt>
      <trkpt lat="43.285788" lon="-8.416592">
        <ele>285.5</ele>
        <time>2011-06-25T11:07:06Z</time>
      </trkpt>
      <trkpt lat="43.285788" lon="-8.416592">
        <ele>285.5</ele>
        <time>2011-06-25T11:07:07Z</time>
      </trkpt>
      <trkpt lat="43.285788" lon="-8.416592">
        <ele>285.5</ele>
        <time>2011-06-25T11:07:08Z</time>
      </trkpt>
      <trkpt lat="43.285788" lon="-8.416592">
        <ele>285.5</ele>
        <time>2011-06-25T11:07:09Z</time>
      </trkpt>
      <trkpt lat="43.285788" lon="-8.416592">
        <ele>285.5</ele>
        <time>2011-06-25T11:07:10Z</time>
      </trkpt>
      <trkpt lat="43.285790" lon="-8.416592">
        <ele>285.5</ele>
        <time>2011-06-25T11:07:11Z</time>
      </trkpt>
      <trkpt lat="43.285790" lon="-8.416592">
        <ele>285.5</ele>
        <time>2011-06-25T11:07:12Z</time>
      </trkpt>
      <trkpt lat="43.285788" lon="-8.416592">
        <ele>285.5</ele>
        <time>2011-06-25T11:07:13Z</time>
      </trkpt>
      <trkpt lat="43.285788" lon="-8.416592">
        <ele>285.5</ele>
        <time>2011-06-25T11:07:14Z</time>
      </trkpt>
      <trkpt lat="43.285790" lon="-8.416593">
        <ele>285.5</ele>
        <time>2011-06-25T11:07:15Z</time>
      </trkpt>
      <trkpt lat="43.285790" lon="-8.416593">
        <ele>285.5</ele>
        <time>2011-06-25T11:07:16Z</time>
      </trkpt>
      <trkpt lat="43.285790" lon="-8.416593">
        <ele>285.5</ele>
        <time>2011-06-25T11:07:17Z</time>
      </trkpt>
      <trkpt lat="43.285790" lon="-8.416593">
        <ele>285.5</ele>
        <time>2011-06-25T11:07:18Z</time>
      </trkpt>
      <trkpt lat="43.285790" lon="-8.416593">
        <ele>285.5</ele>
        <time>2011-06-25T11:07:19Z</time>
      </trkpt>
      <trkpt lat="43.285790" lon="-8.416593">
        <ele>285.5</ele>
        <time>2011-06-25T11:07:20Z</time>
      </trkpt>
      <trkpt lat="43.285790" lon="-8.416593">
        <ele>285.5</ele>
        <time>2011-06-25T11:07:21Z</time>
      </trkpt>
      <trkpt lat="43.285790" lon="-8.416595">
        <ele>285.5</ele>
        <time>2011-06-25T11:07:22Z</time>
      </trkpt>
      <trkpt lat="43.285790" lon="-8.416595">
        <ele>285.5</ele>
        <time>2011-06-25T11:07:23Z</time>
      </trkpt>
      <trkpt lat="43.285790" lon="-8.416595">
        <ele>285.5</ele>
        <time>2011-06-25T11:07:24Z</time>
      </trkpt>
      <trkpt lat="43.285790" lon="-8.416595">
        <ele>285.5</ele>
        <time>2011-06-25T11:07:25Z</time>
      </trkpt>
      <trkpt lat="43.285790" lon="-8.416595">
        <ele>285.5</ele>
        <time>2011-06-25T11:07:26Z</time>
      </trkpt>
      <trkpt lat="43.285790" lon="-8.416595">
        <ele>285.5</ele>
        <time>2011-06-25T11:07:27Z</time>
      </trkpt>
      <trkpt lat="43.285790" lon="-8.416595">
        <ele>285.5</ele>
        <time>2011-06-25T11:07:28Z</time>
      </trkpt>
      <trkpt lat="43.285790" lon="-8.416595">
        <ele>285.5</ele>
        <time>2011-06-25T11:07:29Z</time>
      </trkpt>
      <trkpt lat="43.285790" lon="-8.416595">
        <ele>285.5</ele>
        <time>2011-06-25T11:07:30Z</time>
      </trkpt>
      <trkpt lat="43.285790" lon="-8.416595">
        <ele>285.5</ele>
        <time>2011-06-25T11:07:31Z</time>
      </trkpt>
      <trkpt lat="43.285790" lon="-8.416595">
        <ele>285.5</ele>
        <time>2011-06-25T11:07:32Z</time>
      </trkpt>
      <trkpt lat="43.285790" lon="-8.416595">
        <ele>285.5</ele>
        <time>2011-06-25T11:07:33Z</time>
      </trkpt>
      <trkpt lat="43.285790" lon="-8.416595">
        <ele>285.5</ele>
        <time>2011-06-25T11:07:34Z</time>
      </trkpt>
      <trkpt lat="43.285790" lon="-8.416595">
        <ele>285.5</ele>
        <time>2011-06-25T11:07:35Z</time>
      </trkpt>
      <trkpt lat="43.285790" lon="-8.416595">
        <ele>285.5</ele>
        <time>2011-06-25T11:07:36Z</time>
      </trkpt>
      <trkpt lat="43.285790" lon="-8.416595">
        <ele>285.5</ele>
        <time>2011-06-25T11:07:37Z</time>
      </trkpt>
      <trkpt lat="43.285790" lon="-8.416595">
        <ele>285.5</ele>
        <time>2011-06-25T11:07:38Z</time>
      </trkpt>
      <trkpt lat="43.285790" lon="-8.416597">
        <ele>285.5</ele>
        <time>2011-06-25T11:07:39Z</time>
      </trkpt>
      <trkpt lat="43.285790" lon="-8.416597">
        <ele>285.5</ele>
        <time>2011-06-25T11:07:40Z</time>
      </trkpt>
      <trkpt lat="43.285790" lon="-8.416597">
        <ele>285.0</ele>
        <time>2011-06-25T11:07:41Z</time>
      </trkpt>
      <trkpt lat="43.285790" lon="-8.416597">
        <ele>285.0</ele>
        <time>2011-06-25T11:07:42Z</time>
      </trkpt>
      <trkpt lat="43.285790" lon="-8.416597">
        <ele>285.0</ele>
        <time>2011-06-25T11:07:43Z</time>
      </trkpt>
      <trkpt lat="43.285790" lon="-8.416597">
        <ele>285.0</ele>
        <time>2011-06-25T11:07:44Z</time>
      </trkpt>
      <trkpt lat="43.285790" lon="-8.416597">
        <ele>285.0</ele>
        <time>2011-06-25T11:07:45Z</time>
      </trkpt>
      <trkpt lat="43.285790" lon="-8.416597">
        <ele>285.0</ele>
        <time>2011-06-25T11:07:46Z</time>
      </trkpt>
      <trkpt lat="43.285792" lon="-8.416597">
        <ele>285.0</ele>
        <time>2011-06-25T11:07:47Z</time>
      </trkpt>
      <trkpt lat="43.285792" lon="-8.416597">
        <ele>285.0</ele>
        <time>2011-06-25T11:07:48Z</time>
      </trkpt>
      <trkpt lat="43.285792" lon="-8.416597">
        <ele>285.0</ele>
        <time>2011-06-25T11:07:49Z</time>
      </trkpt>
      <trkpt lat="43.285792" lon="-8.416597">
        <ele>285.0</ele>
        <time>2011-06-25T11:07:50Z</time>
      </trkpt>
      <trkpt lat="43.285792" lon="-8.416597">
        <ele>285.0</ele>
        <time>2011-06-25T11:07:51Z</time>
      </trkpt>
      <trkpt lat="43.285792" lon="-8.416597">
        <ele>285.0</ele>
        <time>2011-06-25T11:07:52Z</time>
      </trkpt>
      <trkpt lat="43.285792" lon="-8.416597">
        <ele>285.0</ele>
        <time>2011-06-25T11:07:53Z</time>
      </trkpt>
      <trkpt lat="43.285792" lon="-8.416597">
        <ele>285.0</ele>
        <time>2011-06-25T11:07:54Z</time>
      </trkpt>
      <trkpt lat="43.285792" lon="-8.416597">
        <ele>285.0</ele>
        <time>2011-06-25T11:07:55Z</time>
      </trkpt>
      <trkpt lat="43.285792" lon="-8.416598">
        <ele>285.0</ele>
        <time>2011-06-25T11:07:56Z</time>
      </trkpt>
      <trkpt lat="43.285792" lon="-8.416598">
        <ele>285.0</ele>
        <time>2011-06-25T11:07:57Z</time>
      </trkpt>
      <trkpt lat="43.285792" lon="-8.416598">
        <ele>285.0</ele>
        <time>2011-06-25T11:07:58Z</time>
      </trkpt>
      <trkpt lat="43.285792" lon="-8.416598">
        <ele>285.0</ele>
        <time>2011-06-25T11:07:59Z</time>
      </trkpt>
      <trkpt lat="43.285792" lon="-8.416598">
        <ele>285.0</ele>
        <time>2011-06-25T11:08:00Z</time>
      </trkpt>
      <trkpt lat="43.285792" lon="-8.416598">
        <ele>285.0</ele>
        <time>2011-06-25T11:08:01Z</time>
      </trkpt>
      <trkpt lat="43.285792" lon="-8.416598">
        <ele>285.0</ele>
        <time>2011-06-25T11:08:02Z</time>
      </trkpt>
      <trkpt lat="43.285792" lon="-8.416598">
        <ele>285.0</ele>
        <time>2011-06-25T11:08:03Z</time>
      </trkpt>
      <trkpt lat="43.285792" lon="-8.416598">
        <ele>285.0</ele>
        <time>2011-06-25T11:08:04Z</time>
      </trkpt>
      <trkpt lat="43.285792" lon="-8.416598">
        <ele>285.0</ele>
        <time>2011-06-25T11:08:05Z</time>
      </trkpt>
      <trkpt lat="43.285792" lon="-8.416598">
        <ele>285.0</ele>
        <time>2011-06-25T11:08:06Z</time>
      </trkpt>
      <trkpt lat="43.285792" lon="-8.416600">
        <ele>285.0</ele>
        <time>2011-06-25T11:08:07Z</time>
      </trkpt>
      <trkpt lat="43.285792" lon="-8.416600">
        <ele>285.0</ele>
        <time>2011-06-25T11:08:08Z</time>
      </trkpt>
      <trkpt lat="43.285793" lon="-8.416610">
        <ele>284.5</ele>
        <time>2011-06-25T11:08:09Z</time>
      </trkpt>
      <trkpt lat="43.285795" lon="-8.416612">
        <ele>284.0</ele>
        <time>2011-06-25T11:08:10Z</time>
      </trkpt>
      <trkpt lat="43.285793" lon="-8.416600">
        <ele>284.5</ele>
        <time>2011-06-25T11:08:11Z</time>
      </trkpt>
      <trkpt lat="43.285795" lon="-8.416602">
        <ele>284.5</ele>
        <time>2011-06-25T11:08:12Z</time>
      </trkpt>
      <trkpt lat="43.285795" lon="-8.416603">
        <ele>284.5</ele>
        <time>2011-06-25T11:08:13Z</time>
      </trkpt>
      <trkpt lat="43.285797" lon="-8.416603">
        <ele>284.0</ele>
        <time>2011-06-25T11:08:14Z</time>
      </trkpt>
      <trkpt lat="43.285798" lon="-8.416607">
        <ele>284.0</ele>
        <time>2011-06-25T11:08:15Z</time>
      </trkpt>
      <trkpt lat="43.285802" lon="-8.416608">
        <ele>284.0</ele>
        <time>2011-06-25T11:08:16Z</time>
      </trkpt>
      <trkpt lat="43.285802" lon="-8.416617">
        <ele>284.0</ele>
        <time>2011-06-25T11:08:17Z</time>
      </trkpt>
      <trkpt lat="43.285802" lon="-8.416618">
        <ele>284.0</ele>
        <time>2011-06-25T11:08:18Z</time>
      </trkpt>
      <trkpt lat="43.285802" lon="-8.416618">
        <ele>284.0</ele>
        <time>2011-06-25T11:08:19Z</time>
      </trkpt>
      <trkpt lat="43.285800" lon="-8.416622">
        <ele>284.0</ele>
        <time>2011-06-25T11:08:20Z</time>
      </trkpt>
      <trkpt lat="43.285810" lon="-8.416627">
        <ele>284.0</ele>
        <time>2011-06-25T11:08:21Z</time>
      </trkpt>
      <trkpt lat="43.285817" lon="-8.416628">
        <ele>284.0</ele>
        <time>2011-06-25T11:08:22Z</time>
      </trkpt>
      <trkpt lat="43.285827" lon="-8.416642">
        <ele>284.5</ele>
        <time>2011-06-25T11:08:23Z</time>
      </trkpt>
    </trkseg>
  </trk>
  <trk>
    <name>T2067676-14</name>
    <cmt>saida con compañeiros do C.C.Arteixo polos arredores da Coruña</cmt>
    <desc>saida con compañeiros do C.C.Arteixo polos arredores da Coruña</desc>
    <trkseg>
      <trkpt lat="43.285838" lon="-8.416655">
        <ele>285.0</ele>
        <time>2011-06-25T11:08:24Z</time>
      </trkpt>
      <trkpt lat="43.285855" lon="-8.416665">
        <ele>285.5</ele>
        <time>2011-06-25T11:08:25Z</time>
      </trkpt>
      <trkpt lat="43.285872" lon="-8.416677">
        <ele>286.0</ele>
        <time>2011-06-25T11:08:26Z</time>
      </trkpt>
      <trkpt lat="43.285887" lon="-8.416682">
        <ele>286.5</ele>
        <time>2011-06-25T11:08:27Z</time>
      </trkpt>
      <trkpt lat="43.285903" lon="-8.416685">
        <ele>287.0</ele>
        <time>2011-06-25T11:08:28Z</time>
      </trkpt>
      <trkpt lat="43.285922" lon="-8.416688">
        <ele>287.5</ele>
        <time>2011-06-25T11:08:29Z</time>
      </trkpt>
      <trkpt lat="43.285940" lon="-8.416695">
        <ele>288.0</ele>
        <time>2011-06-25T11:08:30Z</time>
      </trkpt>
      <trkpt lat="43.285953" lon="-8.416697">
        <ele>288.5</ele>
        <time>2011-06-25T11:08:31Z</time>
      </trkpt>
      <trkpt lat="43.285972" lon="-8.416700">
        <ele>289.0</ele>
        <time>2011-06-25T11:08:32Z</time>
      </trkpt>
      <trkpt lat="43.285990" lon="-8.416700">
        <ele>288.5</ele>
        <time>2011-06-25T11:08:33Z</time>
      </trkpt>
      <trkpt lat="43.286007" lon="-8.416702">
        <ele>289.5</ele>
        <time>2011-06-25T11:08:34Z</time>
      </trkpt>
      <trkpt lat="43.286027" lon="-8.416725">
        <ele>286.5</ele>
        <time>2011-06-25T11:08:35Z</time>
      </trkpt>
      <trkpt lat="43.286043" lon="-8.416727">
        <ele>287.5</ele>
        <time>2011-06-25T11:08:36Z</time>
      </trkpt>
      <trkpt lat="43.286057" lon="-8.416733">
        <ele>288.0</ele>
        <time>2011-06-25T11:08:37Z</time>
      </trkpt>
      <trkpt lat="43.286067" lon="-8.416733">
        <ele>288.5</ele>
        <time>2011-06-25T11:08:38Z</time>
      </trkpt>
      <trkpt lat="43.286080" lon="-8.416735">
        <ele>289.0</ele>
        <time>2011-06-25T11:08:39Z</time>
      </trkpt>
      <trkpt lat="43.286092" lon="-8.416740">
        <ele>289.5</ele>
        <time>2011-06-25T11:08:40Z</time>
      </trkpt>
      <trkpt lat="43.286107" lon="-8.416747">
        <ele>290.0</ele>
        <time>2011-06-25T11:08:41Z</time>
      </trkpt>
      <trkpt lat="43.286123" lon="-8.416755">
        <ele>290.0</ele>
        <time>2011-06-25T11:08:42Z</time>
      </trkpt>
      <trkpt lat="43.286140" lon="-8.416768">
        <ele>290.5</ele>
        <time>2011-06-25T11:08:43Z</time>
      </trkpt>
      <trkpt lat="43.286155" lon="-8.416780">
        <ele>291.0</ele>
        <time>2011-06-25T11:08:44Z</time>
      </trkpt>
      <trkpt lat="43.286168" lon="-8.416788">
        <ele>292.0</ele>
        <time>2011-06-25T11:08:45Z</time>
      </trkpt>
      <trkpt lat="43.286183" lon="-8.416795">
        <ele>292.5</ele>
        <time>2011-06-25T11:08:46Z</time>
      </trkpt>
      <trkpt lat="43.286200" lon="-8.416802">
        <ele>293.0</ele>
        <time>2011-06-25T11:08:47Z</time>
      </trkpt>
      <trkpt lat="43.286213" lon="-8.416812">
        <ele>294.5</ele>
        <time>2011-06-25T11:08:48Z</time>
      </trkpt>
      <trkpt lat="43.286227" lon="-8.416828">
        <ele>295.0</ele>
        <time>2011-06-25T11:08:49Z</time>
      </trkpt>
      <trkpt lat="43.286240" lon="-8.416843">
        <ele>295.0</ele>
        <time>2011-06-25T11:08:50Z</time>
      </trkpt>
      <trkpt lat="43.286255" lon="-8.416857">
        <ele>295.5</ele>
        <time>2011-06-25T11:08:51Z</time>
      </trkpt>
      <trkpt lat="43.286270" lon="-8.416872">
        <ele>296.0</ele>
        <time>2011-06-25T11:08:52Z</time>
      </trkpt>
      <trkpt lat="43.286285" lon="-8.416885">
        <ele>297.0</ele>
        <time>2011-06-25T11:08:53Z</time>
      </trkpt>
      <trkpt lat="43.286302" lon="-8.416900">
        <ele>297.5</ele>
        <time>2011-06-25T11:08:54Z</time>
      </trkpt>
      <trkpt lat="43.286318" lon="-8.416918">
        <ele>297.5</ele>
        <time>2011-06-25T11:08:55Z</time>
      </trkpt>
      <trkpt lat="43.286338" lon="-8.416932">
        <ele>297.0</ele>
        <time>2011-06-25T11:08:56Z</time>
      </trkpt>
      <trkpt lat="43.286358" lon="-8.416943">
        <ele>297.0</ele>
        <time>2011-06-25T11:08:57Z</time>
      </trkpt>
      <trkpt lat="43.286372" lon="-8.416957">
        <ele>298.5</ele>
        <time>2011-06-25T11:08:58Z</time>
      </trkpt>
      <trkpt lat="43.286392" lon="-8.416978">
        <ele>298.0</ele>
        <time>2011-06-25T11:08:59Z</time>
      </trkpt>
      <trkpt lat="43.286405" lon="-8.416997">
        <ele>299.0</ele>
        <time>2011-06-25T11:09:00Z</time>
      </trkpt>
      <trkpt lat="43.286418" lon="-8.417007">
        <ele>300.0</ele>
        <time>2011-06-25T11:09:01Z</time>
      </trkpt>
      <trkpt lat="43.286433" lon="-8.417022">
        <ele>301.0</ele>
        <time>2011-06-25T11:09:02Z</time>
      </trkpt>
      <trkpt lat="43.286455" lon="-8.417052">
        <ele>300.5</ele>
        <time>2011-06-25T11:09:03Z</time>
      </trkpt>
      <trkpt lat="43.286472" lon="-8.417068">
        <ele>301.0</ele>
        <time>2011-06-25T11:09:04Z</time>
      </trkpt>
      <trkpt lat="43.286488" lon="-8.417087">
        <ele>301.5</ele>
        <time>2011-06-25T11:09:05Z</time>
      </trkpt>
      <trkpt lat="43.286502" lon="-8.417098">
        <ele>302.5</ele>
        <time>2011-06-25T11:09:06Z</time>
      </trkpt>
      <trkpt lat="43.286518" lon="-8.417102">
        <ele>303.5</ele>
        <time>2011-06-25T11:09:07Z</time>
      </trkpt>
      <trkpt lat="43.286532" lon="-8.417108">
        <ele>305.0</ele>
        <time>2011-06-25T11:09:08Z</time>
      </trkpt>
      <trkpt lat="43.286547" lon="-8.417123">
        <ele>305.5</ele>
        <time>2011-06-25T11:09:09Z</time>
      </trkpt>
      <trkpt lat="43.286562" lon="-8.417142">
        <ele>305.0</ele>
        <time>2011-06-25T11:09:10Z</time>
      </trkpt>
      <trkpt lat="43.286578" lon="-8.417158">
        <ele>305.0</ele>
        <time>2011-06-25T11:09:11Z</time>
      </trkpt>
      <trkpt lat="43.286593" lon="-8.417172">
        <ele>306.5</ele>
        <time>2011-06-25T11:09:12Z</time>
      </trkpt>
      <trkpt lat="43.286610" lon="-8.417187">
        <ele>307.0</ele>
        <time>2011-06-25T11:09:13Z</time>
      </trkpt>
      <trkpt lat="43.286625" lon="-8.417200">
        <ele>308.5</ele>
        <time>2011-06-25T11:09:14Z</time>
      </trkpt>
      <trkpt lat="43.286638" lon="-8.417217">
        <ele>309.0</ele>
        <time>2011-06-25T11:09:15Z</time>
      </trkpt>
      <trkpt lat="43.286652" lon="-8.417235">
        <ele>310.0</ele>
        <time>2011-06-25T11:09:16Z</time>
      </trkpt>
      <trkpt lat="43.286668" lon="-8.417260">
        <ele>310.0</ele>
        <time>2011-06-25T11:09:17Z</time>
      </trkpt>
      <trkpt lat="43.286683" lon="-8.417278">
        <ele>310.0</ele>
        <time>2011-06-25T11:09:18Z</time>
      </trkpt>
      <trkpt lat="43.286703" lon="-8.417307">
        <ele>309.0</ele>
        <time>2011-06-25T11:09:19Z</time>
      </trkpt>
      <trkpt lat="43.286750" lon="-8.417408">
        <ele>305.5</ele>
        <time>2011-06-25T11:09:21Z</time>
      </trkpt>
      <trkpt lat="43.286768" lon="-8.417428">
        <ele>305.5</ele>
        <time>2011-06-25T11:09:22Z</time>
      </trkpt>
      <trkpt lat="43.286785" lon="-8.417452">
        <ele>306.0</ele>
        <time>2011-06-25T11:09:23Z</time>
      </trkpt>
      <trkpt lat="43.286800" lon="-8.417477">
        <ele>306.5</ele>
        <time>2011-06-25T11:09:24Z</time>
      </trkpt>
      <trkpt lat="43.286815" lon="-8.417503">
        <ele>306.5</ele>
        <time>2011-06-25T11:09:25Z</time>
      </trkpt>
      <trkpt lat="43.286830" lon="-8.417523">
        <ele>307.5</ele>
        <time>2011-06-25T11:09:26Z</time>
      </trkpt>
      <trkpt lat="43.286848" lon="-8.417562">
        <ele>306.0</ele>
        <time>2011-06-25T11:09:27Z</time>
      </trkpt>
      <trkpt lat="43.286865" lon="-8.417592">
        <ele>303.0</ele>
        <time>2011-06-25T11:09:28Z</time>
      </trkpt>
      <trkpt lat="43.286885" lon="-8.417627">
        <ele>300.5</ele>
        <time>2011-06-25T11:09:29Z</time>
      </trkpt>
      <trkpt lat="43.286907" lon="-8.417668">
        <ele>298.0</ele>
        <time>2011-06-25T11:09:30Z</time>
      </trkpt>
      <trkpt lat="43.286925" lon="-8.417698">
        <ele>296.0</ele>
        <time>2011-06-25T11:09:31Z</time>
      </trkpt>
      <trkpt lat="43.286968" lon="-8.417787">
        <ele>290.5</ele>
        <time>2011-06-25T11:09:33Z</time>
      </trkpt>
      <trkpt lat="43.286992" lon="-8.417827">
        <ele>288.0</ele>
        <time>2011-06-25T11:09:34Z</time>
      </trkpt>
      <trkpt lat="43.287017" lon="-8.417858">
        <ele>286.0</ele>
        <time>2011-06-25T11:09:35Z</time>
      </trkpt>
      <trkpt lat="43.287035" lon="-8.417862">
        <ele>287.5</ele>
        <time>2011-06-25T11:09:36Z</time>
      </trkpt>
      <trkpt lat="43.287055" lon="-8.417872">
        <ele>288.5</ele>
        <time>2011-06-25T11:09:37Z</time>
      </trkpt>
      <trkpt lat="43.287077" lon="-8.417882">
        <ele>289.5</ele>
        <time>2011-06-25T11:09:38Z</time>
      </trkpt>
      <trkpt lat="43.287102" lon="-8.417893">
        <ele>289.5</ele>
        <time>2011-06-25T11:09:39Z</time>
      </trkpt>
      <trkpt lat="43.287122" lon="-8.417913">
        <ele>290.0</ele>
        <time>2011-06-25T11:09:40Z</time>
      </trkpt>
      <trkpt lat="43.287150" lon="-8.417923">
        <ele>290.5</ele>
        <time>2011-06-25T11:09:41Z</time>
      </trkpt>
      <trkpt lat="43.287167" lon="-8.417948">
        <ele>291.0</ele>
        <time>2011-06-25T11:09:42Z</time>
      </trkpt>
      <trkpt lat="43.287193" lon="-8.417962">
        <ele>292.0</ele>
        <time>2011-06-25T11:09:43Z</time>
      </trkpt>
      <trkpt lat="43.287212" lon="-8.417980">
        <ele>292.5</ele>
        <time>2011-06-25T11:09:44Z</time>
      </trkpt>
      <trkpt lat="43.287235" lon="-8.417998">
        <ele>293.5</ele>
        <time>2011-06-25T11:09:45Z</time>
      </trkpt>
      <trkpt lat="43.287258" lon="-8.417998">
        <ele>295.5</ele>
        <time>2011-06-25T11:09:46Z</time>
      </trkpt>
      <trkpt lat="43.287280" lon="-8.418005">
        <ele>297.5</ele>
        <time>2011-06-25T11:09:47Z</time>
      </trkpt>
      <trkpt lat="43.287300" lon="-8.418018">
        <ele>299.0</ele>
        <time>2011-06-25T11:09:48Z</time>
      </trkpt>
      <trkpt lat="43.287323" lon="-8.418035">
        <ele>299.5</ele>
        <time>2011-06-25T11:09:49Z</time>
      </trkpt>
      <trkpt lat="43.287345" lon="-8.418048">
        <ele>300.0</ele>
        <time>2011-06-25T11:09:50Z</time>
      </trkpt>
      <trkpt lat="43.287365" lon="-8.418052">
        <ele>301.5</ele>
        <time>2011-06-25T11:09:51Z</time>
      </trkpt>
      <trkpt lat="43.287393" lon="-8.418073">
        <ele>302.5</ele>
        <time>2011-06-25T11:09:52Z</time>
      </trkpt>
      <trkpt lat="43.287420" lon="-8.418067">
        <ele>304.0</ele>
        <time>2011-06-25T11:09:53Z</time>
      </trkpt>
      <trkpt lat="43.287445" lon="-8.418068">
        <ele>306.0</ele>
        <time>2011-06-25T11:09:54Z</time>
      </trkpt>
      <trkpt lat="43.287468" lon="-8.418070">
        <ele>307.5</ele>
        <time>2011-06-25T11:09:55Z</time>
      </trkpt>
      <trkpt lat="43.287497" lon="-8.418068">
        <ele>309.0</ele>
        <time>2011-06-25T11:09:56Z</time>
      </trkpt>
      <trkpt lat="43.287532" lon="-8.418087">
        <ele>309.0</ele>
        <time>2011-06-25T11:09:57Z</time>
      </trkpt>
      <trkpt lat="43.287565" lon="-8.418112">
        <ele>309.0</ele>
        <time>2011-06-25T11:09:58Z</time>
      </trkpt>
      <trkpt lat="43.287577" lon="-8.418158">
        <ele>309.0</ele>
        <time>2011-06-25T11:09:59Z</time>
      </trkpt>
      <trkpt lat="43.287595" lon="-8.418183">
        <ele>309.0</ele>
        <time>2011-06-25T11:10:00Z</time>
      </trkpt>
      <trkpt lat="43.287613" lon="-8.418208">
        <ele>309.0</ele>
        <time>2011-06-25T11:10:01Z</time>
      </trkpt>
      <trkpt lat="43.287633" lon="-8.418237">
        <ele>309.0</ele>
        <time>2011-06-25T11:10:02Z</time>
      </trkpt>
      <trkpt lat="43.287652" lon="-8.418243">
        <ele>310.5</ele>
        <time>2011-06-25T11:10:03Z</time>
      </trkpt>
      <trkpt lat="43.287670" lon="-8.418257">
        <ele>312.0</ele>
        <time>2011-06-25T11:10:04Z</time>
      </trkpt>
      <trkpt lat="43.287688" lon="-8.418278">
        <ele>314.0</ele>
        <time>2011-06-25T11:10:05Z</time>
      </trkpt>
      <trkpt lat="43.287713" lon="-8.418308">
        <ele>314.0</ele>
        <time>2011-06-25T11:10:06Z</time>
      </trkpt>
      <trkpt lat="43.287737" lon="-8.418327">
        <ele>314.5</ele>
        <time>2011-06-25T11:10:07Z</time>
      </trkpt>
      <trkpt lat="43.287757" lon="-8.418353">
        <ele>314.0</ele>
        <time>2011-06-25T11:10:08Z</time>
      </trkpt>
      <trkpt lat="43.287778" lon="-8.418380">
        <ele>314.0</ele>
        <time>2011-06-25T11:10:09Z</time>
      </trkpt>
      <trkpt lat="43.287793" lon="-8.418408">
        <ele>313.5</ele>
        <time>2011-06-25T11:10:10Z</time>
      </trkpt>
      <trkpt lat="43.287817" lon="-8.418427">
        <ele>314.0</ele>
        <time>2011-06-25T11:10:11Z</time>
      </trkpt>
      <trkpt lat="43.287838" lon="-8.418445">
        <ele>315.5</ele>
        <time>2011-06-25T11:10:12Z</time>
      </trkpt>
      <trkpt lat="43.287903" lon="-8.418492">
        <ele>314.0</ele>
        <time>2011-06-25T11:10:14Z</time>
      </trkpt>
      <trkpt lat="43.287922" lon="-8.418527">
        <ele>314.5</ele>
        <time>2011-06-25T11:10:15Z</time>
      </trkpt>
      <trkpt lat="43.287943" lon="-8.418550">
        <ele>315.5</ele>
        <time>2011-06-25T11:10:16Z</time>
      </trkpt>
      <trkpt lat="43.287967" lon="-8.418573">
        <ele>316.5</ele>
        <time>2011-06-25T11:10:17Z</time>
      </trkpt>
      <trkpt lat="43.287992" lon="-8.418605">
        <ele>317.0</ele>
        <time>2011-06-25T11:10:18Z</time>
      </trkpt>
      <trkpt lat="43.288017" lon="-8.418642">
        <ele>315.5</ele>
        <time>2011-06-25T11:10:19Z</time>
      </trkpt>
      <trkpt lat="43.288033" lon="-8.418677">
        <ele>316.0</ele>
        <time>2011-06-25T11:10:20Z</time>
      </trkpt>
      <trkpt lat="43.288050" lon="-8.418715">
        <ele>316.0</ele>
        <time>2011-06-25T11:10:21Z</time>
      </trkpt>
      <trkpt lat="43.288062" lon="-8.418758">
        <ele>316.5</ele>
        <time>2011-06-25T11:10:22Z</time>
      </trkpt>
      <trkpt lat="43.288077" lon="-8.418805">
        <ele>316.0</ele>
        <time>2011-06-25T11:10:23Z</time>
      </trkpt>
      <trkpt lat="43.288088" lon="-8.418843">
        <ele>316.0</ele>
        <time>2011-06-25T11:10:24Z</time>
      </trkpt>
      <trkpt lat="43.288107" lon="-8.418888">
        <ele>314.5</ele>
        <time>2011-06-25T11:10:25Z</time>
      </trkpt>
      <trkpt lat="43.288118" lon="-8.418932">
        <ele>313.5</ele>
        <time>2011-06-25T11:10:26Z</time>
      </trkpt>
      <trkpt lat="43.288130" lon="-8.418973">
        <ele>312.5</ele>
        <time>2011-06-25T11:10:27Z</time>
      </trkpt>
      <trkpt lat="43.288157" lon="-8.419058">
        <ele>309.0</ele>
        <time>2011-06-25T11:10:29Z</time>
      </trkpt>
      <trkpt lat="43.288160" lon="-8.419082">
        <ele>309.0</ele>
        <time>2011-06-25T11:10:30Z</time>
      </trkpt>
      <trkpt lat="43.288163" lon="-8.419102">
        <ele>308.5</ele>
        <time>2011-06-25T11:10:31Z</time>
      </trkpt>
      <trkpt lat="43.288168" lon="-8.419118">
        <ele>308.0</ele>
        <time>2011-06-25T11:10:32Z</time>
      </trkpt>
      <trkpt lat="43.288190" lon="-8.419207">
        <ele>304.5</ele>
        <time>2011-06-25T11:10:34Z</time>
      </trkpt>
      <trkpt lat="43.288198" lon="-8.419232">
        <ele>304.5</ele>
        <time>2011-06-25T11:10:35Z</time>
      </trkpt>
      <trkpt lat="43.288208" lon="-8.419255">
        <ele>304.0</ele>
        <time>2011-06-25T11:10:36Z</time>
      </trkpt>
      <trkpt lat="43.288220" lon="-8.419275">
        <ele>304.0</ele>
        <time>2011-06-25T11:10:37Z</time>
      </trkpt>
      <trkpt lat="43.288228" lon="-8.419295">
        <ele>304.5</ele>
        <time>2011-06-25T11:10:38Z</time>
      </trkpt>
      <trkpt lat="43.288238" lon="-8.419317">
        <ele>304.5</ele>
        <time>2011-06-25T11:10:39Z</time>
      </trkpt>
      <trkpt lat="43.288250" lon="-8.419337">
        <ele>305.0</ele>
        <time>2011-06-25T11:10:40Z</time>
      </trkpt>
      <trkpt lat="43.288252" lon="-8.419352">
        <ele>304.5</ele>
        <time>2011-06-25T11:10:41Z</time>
      </trkpt>
      <trkpt lat="43.288262" lon="-8.419363">
        <ele>305.5</ele>
        <time>2011-06-25T11:10:42Z</time>
      </trkpt>
      <trkpt lat="43.288272" lon="-8.419373">
        <ele>306.5</ele>
        <time>2011-06-25T11:10:43Z</time>
      </trkpt>
      <trkpt lat="43.288275" lon="-8.419383">
        <ele>306.5</ele>
        <time>2011-06-25T11:10:44Z</time>
      </trkpt>
      <trkpt lat="43.288278" lon="-8.419390">
        <ele>306.5</ele>
        <time>2011-06-25T11:10:45Z</time>
      </trkpt>
      <trkpt lat="43.288283" lon="-8.419402">
        <ele>306.5</ele>
        <time>2011-06-25T11:10:46Z</time>
      </trkpt>
      <trkpt lat="43.288287" lon="-8.419410">
        <ele>307.5</ele>
        <time>2011-06-25T11:10:47Z</time>
      </trkpt>
      <trkpt lat="43.288288" lon="-8.419418">
        <ele>307.5</ele>
        <time>2011-06-25T11:10:48Z</time>
      </trkpt>
      <trkpt lat="43.288295" lon="-8.419433">
        <ele>308.0</ele>
        <time>2011-06-25T11:10:49Z</time>
      </trkpt>
      <trkpt lat="43.288300" lon="-8.419447">
        <ele>308.5</ele>
        <time>2011-06-25T11:10:50Z</time>
      </trkpt>
      <trkpt lat="43.288307" lon="-8.419455">
        <ele>309.0</ele>
        <time>2011-06-25T11:10:51Z</time>
      </trkpt>
      <trkpt lat="43.288318" lon="-8.419458">
        <ele>310.0</ele>
        <time>2011-06-25T11:10:52Z</time>
      </trkpt>
      <trkpt lat="43.288328" lon="-8.419465">
        <ele>310.5</ele>
        <time>2011-06-25T11:10:53Z</time>
      </trkpt>
      <trkpt lat="43.288333" lon="-8.419475">
        <ele>311.0</ele>
        <time>2011-06-25T11:10:54Z</time>
      </trkpt>
      <trkpt lat="43.288345" lon="-8.419498">
        <ele>311.0</ele>
        <time>2011-06-25T11:10:55Z</time>
      </trkpt>
      <trkpt lat="43.288357" lon="-8.419523">
        <ele>311.5</ele>
        <time>2011-06-25T11:10:56Z</time>
      </trkpt>
      <trkpt lat="43.288370" lon="-8.419547">
        <ele>312.0</ele>
        <time>2011-06-25T11:10:57Z</time>
      </trkpt>
      <trkpt lat="43.288383" lon="-8.419573">
        <ele>312.5</ele>
        <time>2011-06-25T11:10:58Z</time>
      </trkpt>
      <trkpt lat="43.288402" lon="-8.419612">
        <ele>312.0</ele>
        <time>2011-06-25T11:10:59Z</time>
      </trkpt>
      <trkpt lat="43.288417" lon="-8.419662">
        <ele>311.5</ele>
        <time>2011-06-25T11:11:00Z</time>
      </trkpt>
      <trkpt lat="43.288440" lon="-8.419712">
        <ele>310.5</ele>
        <time>2011-06-25T11:11:01Z</time>
      </trkpt>
      <trkpt lat="43.288463" lon="-8.419763">
        <ele>310.5</ele>
        <time>2011-06-25T11:11:02Z</time>
      </trkpt>
      <trkpt lat="43.288482" lon="-8.419825">
        <ele>309.5</ele>
        <time>2011-06-25T11:11:03Z</time>
      </trkpt>
      <trkpt lat="43.288485" lon="-8.419898">
        <ele>309.0</ele>
        <time>2011-06-25T11:11:04Z</time>
      </trkpt>
      <trkpt lat="43.288487" lon="-8.419975">
        <ele>308.0</ele>
        <time>2011-06-25T11:11:05Z</time>
      </trkpt>
      <trkpt lat="43.288478" lon="-8.420047">
        <ele>308.0</ele>
        <time>2011-06-25T11:11:06Z</time>
      </trkpt>
      <trkpt lat="43.288463" lon="-8.420107">
        <ele>308.0</ele>
        <time>2011-06-25T11:11:07Z</time>
      </trkpt>
      <trkpt lat="43.288452" lon="-8.420172">
        <ele>306.0</ele>
        <time>2011-06-25T11:11:08Z</time>
      </trkpt>
      <trkpt lat="43.288435" lon="-8.420232">
        <ele>306.0</ele>
        <time>2011-06-25T11:11:09Z</time>
      </trkpt>
      <trkpt lat="43.288397" lon="-8.420260">
        <ele>305.0</ele>
        <time>2011-06-25T11:11:10Z</time>
      </trkpt>
      <trkpt lat="43.288362" lon="-8.420282">
        <ele>306.0</ele>
        <time>2011-06-25T11:11:11Z</time>
      </trkpt>
      <trkpt lat="43.288333" lon="-8.420302">
        <ele>305.5</ele>
        <time>2011-06-25T11:11:12Z</time>
      </trkpt>
      <trkpt lat="43.288315" lon="-8.420318">
        <ele>305.0</ele>
        <time>2011-06-25T11:11:13Z</time>
      </trkpt>
      <trkpt lat="43.288315" lon="-8.420367">
        <ele>304.5</ele>
        <time>2011-06-25T11:11:14Z</time>
      </trkpt>
      <trkpt lat="43.288303" lon="-8.420405">
        <ele>304.5</ele>
        <time>2011-06-25T11:11:15Z</time>
      </trkpt>
      <trkpt lat="43.288293" lon="-8.420445">
        <ele>304.5</ele>
        <time>2011-06-25T11:11:16Z</time>
      </trkpt>
      <trkpt lat="43.288283" lon="-8.420493">
        <ele>303.0</ele>
        <time>2011-06-25T11:11:17Z</time>
      </trkpt>
      <trkpt lat="43.288252" lon="-8.420528">
        <ele>302.5</ele>
        <time>2011-06-25T11:11:18Z</time>
      </trkpt>
      <trkpt lat="43.288215" lon="-8.420573">
        <ele>302.5</ele>
        <time>2011-06-25T11:11:19Z</time>
      </trkpt>
      <trkpt lat="43.288177" lon="-8.420623">
        <ele>302.0</ele>
        <time>2011-06-25T11:11:20Z</time>
      </trkpt>
      <trkpt lat="43.288142" lon="-8.420675">
        <ele>302.5</ele>
        <time>2011-06-25T11:11:21Z</time>
      </trkpt>
      <trkpt lat="43.288107" lon="-8.420723">
        <ele>303.0</ele>
        <time>2011-06-25T11:11:22Z</time>
      </trkpt>
      <trkpt lat="43.288078" lon="-8.420758">
        <ele>303.0</ele>
        <time>2011-06-25T11:11:23Z</time>
      </trkpt>
      <trkpt lat="43.288050" lon="-8.420830">
        <ele>301.0</ele>
        <time>2011-06-25T11:11:24Z</time>
      </trkpt>
      <trkpt lat="43.288035" lon="-8.420918">
        <ele>301.0</ele>
        <time>2011-06-25T11:11:25Z</time>
      </trkpt>
      <trkpt lat="43.288018" lon="-8.420995">
        <ele>302.5</ele>
        <time>2011-06-25T11:11:26Z</time>
      </trkpt>
      <trkpt lat="43.288015" lon="-8.421087">
        <ele>301.5</ele>
        <time>2011-06-25T11:11:27Z</time>
      </trkpt>
      <trkpt lat="43.288010" lon="-8.421170">
        <ele>301.5</ele>
        <time>2011-06-25T11:11:28Z</time>
      </trkpt>
      <trkpt lat="43.288008" lon="-8.421252">
        <ele>301.5</ele>
        <time>2011-06-25T11:11:29Z</time>
      </trkpt>
      <trkpt lat="43.288003" lon="-8.421333">
        <ele>301.0</ele>
        <time>2011-06-25T11:11:30Z</time>
      </trkpt>
      <trkpt lat="43.287988" lon="-8.421423">
        <ele>300.5</ele>
        <time>2011-06-25T11:11:31Z</time>
      </trkpt>
      <trkpt lat="43.287983" lon="-8.421510">
        <ele>300.5</ele>
        <time>2011-06-25T11:11:32Z</time>
      </trkpt>
      <trkpt lat="43.287982" lon="-8.421590">
        <ele>299.0</ele>
        <time>2011-06-25T11:11:33Z</time>
      </trkpt>
      <trkpt lat="43.287980" lon="-8.421673">
        <ele>299.5</ele>
        <time>2011-06-25T11:11:34Z</time>
      </trkpt>
      <trkpt lat="43.287975" lon="-8.421765">
        <ele>297.0</ele>
        <time>2011-06-25T11:11:35Z</time>
      </trkpt>
      <trkpt lat="43.287963" lon="-8.421853">
        <ele>296.5</ele>
        <time>2011-06-25T11:11:36Z</time>
      </trkpt>
      <trkpt lat="43.287943" lon="-8.421937">
        <ele>294.0</ele>
        <time>2011-06-25T11:11:37Z</time>
      </trkpt>
      <trkpt lat="43.287922" lon="-8.422008">
        <ele>292.0</ele>
        <time>2011-06-25T11:11:38Z</time>
      </trkpt>
      <trkpt lat="43.287910" lon="-8.422067">
        <ele>291.5</ele>
        <time>2011-06-25T11:11:39Z</time>
      </trkpt>
      <trkpt lat="43.287898" lon="-8.422123">
        <ele>291.0</ele>
        <time>2011-06-25T11:11:40Z</time>
      </trkpt>
      <trkpt lat="43.287872" lon="-8.422195">
        <ele>289.5</ele>
        <time>2011-06-25T11:11:41Z</time>
      </trkpt>
      <trkpt lat="43.287840" lon="-8.422255">
        <ele>287.0</ele>
        <time>2011-06-25T11:11:42Z</time>
      </trkpt>
      <trkpt lat="43.287808" lon="-8.422295">
        <ele>286.5</ele>
        <time>2011-06-25T11:11:43Z</time>
      </trkpt>
      <trkpt lat="43.287773" lon="-8.422340">
        <ele>284.5</ele>
        <time>2011-06-25T11:11:44Z</time>
      </trkpt>
      <trkpt lat="43.287747" lon="-8.422377">
        <ele>284.5</ele>
        <time>2011-06-25T11:11:45Z</time>
      </trkpt>
      <trkpt lat="43.287710" lon="-8.422415">
        <ele>282.5</ele>
        <time>2011-06-25T11:11:46Z</time>
      </trkpt>
      <trkpt lat="43.287690" lon="-8.422482">
        <ele>281.0</ele>
        <time>2011-06-25T11:11:47Z</time>
      </trkpt>
      <trkpt lat="43.287690" lon="-8.422550">
        <ele>280.5</ele>
        <time>2011-06-25T11:11:48Z</time>
      </trkpt>
      <trkpt lat="43.287695" lon="-8.422618">
        <ele>277.0</ele>
        <time>2011-06-25T11:11:49Z</time>
      </trkpt>
      <trkpt lat="43.287710" lon="-8.422680">
        <ele>276.0</ele>
        <time>2011-06-25T11:11:50Z</time>
      </trkpt>
      <trkpt lat="43.287723" lon="-8.422738">
        <ele>274.5</ele>
        <time>2011-06-25T11:11:51Z</time>
      </trkpt>
      <trkpt lat="43.287727" lon="-8.422795">
        <ele>275.5</ele>
        <time>2011-06-25T11:11:53Z</time>
      </trkpt>
      <trkpt lat="43.287720" lon="-8.422840">
        <ele>273.5</ele>
        <time>2011-06-25T11:11:54Z</time>
      </trkpt>
      <trkpt lat="43.287717" lon="-8.422887">
        <ele>273.5</ele>
        <time>2011-06-25T11:11:55Z</time>
      </trkpt>
      <trkpt lat="43.287718" lon="-8.423033">
        <ele>271.5</ele>
        <time>2011-06-25T11:11:57Z</time>
      </trkpt>
      <trkpt lat="43.287715" lon="-8.423112">
        <ele>270.0</ele>
        <time>2011-06-25T11:11:58Z</time>
      </trkpt>
      <trkpt lat="43.287712" lon="-8.423188">
        <ele>268.5</ele>
        <time>2011-06-25T11:11:59Z</time>
      </trkpt>
      <trkpt lat="43.287703" lon="-8.423252">
        <ele>268.5</ele>
        <time>2011-06-25T11:12:00Z</time>
      </trkpt>
      <trkpt lat="43.287693" lon="-8.423320">
        <ele>268.0</ele>
        <time>2011-06-25T11:12:01Z</time>
      </trkpt>
      <trkpt lat="43.287690" lon="-8.423388">
        <ele>268.0</ele>
        <time>2011-06-25T11:12:02Z</time>
      </trkpt>
      <trkpt lat="43.287687" lon="-8.423448">
        <ele>267.5</ele>
        <time>2011-06-25T11:12:03Z</time>
      </trkpt>
      <trkpt lat="43.287680" lon="-8.423512">
        <ele>267.0</ele>
        <time>2011-06-25T11:12:04Z</time>
      </trkpt>
      <trkpt lat="43.287675" lon="-8.423575">
        <ele>267.0</ele>
        <time>2011-06-25T11:12:05Z</time>
      </trkpt>
      <trkpt lat="43.287663" lon="-8.423628">
        <ele>267.0</ele>
        <time>2011-06-25T11:12:06Z</time>
      </trkpt>
      <trkpt lat="43.287623" lon="-8.423645">
        <ele>265.5</ele>
        <time>2011-06-25T11:12:07Z</time>
      </trkpt>
      <trkpt lat="43.287592" lon="-8.423672">
        <ele>265.5</ele>
        <time>2011-06-25T11:12:08Z</time>
      </trkpt>
      <trkpt lat="43.287558" lon="-8.423678">
        <ele>265.5</ele>
        <time>2011-06-25T11:12:09Z</time>
      </trkpt>
      <trkpt lat="43.287533" lon="-8.423702">
        <ele>266.0</ele>
        <time>2011-06-25T11:12:11Z</time>
      </trkpt>
      <trkpt lat="43.287522" lon="-8.423713">
        <ele>266.0</ele>
        <time>2011-06-25T11:12:12Z</time>
      </trkpt>
      <trkpt lat="43.287507" lon="-8.423723">
        <ele>267.0</ele>
        <time>2011-06-25T11:12:13Z</time>
      </trkpt>
      <trkpt lat="43.287445" lon="-8.423762">
        <ele>267.0</ele>
        <time>2011-06-25T11:12:15Z</time>
      </trkpt>
      <trkpt lat="43.287415" lon="-8.423768">
        <ele>268.0</ele>
        <time>2011-06-25T11:12:16Z</time>
      </trkpt>
      <trkpt lat="43.287390" lon="-8.423777">
        <ele>268.0</ele>
        <time>2011-06-25T11:12:17Z</time>
      </trkpt>
      <trkpt lat="43.287365" lon="-8.423793">
        <ele>269.0</ele>
        <time>2011-06-25T11:12:18Z</time>
      </trkpt>
      <trkpt lat="43.287347" lon="-8.423827">
        <ele>269.5</ele>
        <time>2011-06-25T11:12:19Z</time>
      </trkpt>
      <trkpt lat="43.287323" lon="-8.423865">
        <ele>269.5</ele>
        <time>2011-06-25T11:12:20Z</time>
      </trkpt>
      <trkpt lat="43.287303" lon="-8.423895">
        <ele>269.5</ele>
        <time>2011-06-25T11:12:21Z</time>
      </trkpt>
      <trkpt lat="43.287277" lon="-8.423953">
        <ele>270.0</ele>
        <time>2011-06-25T11:12:22Z</time>
      </trkpt>
      <trkpt lat="43.287275" lon="-8.424027">
        <ele>270.0</ele>
        <time>2011-06-25T11:12:23Z</time>
      </trkpt>
      <trkpt lat="43.287285" lon="-8.424100">
        <ele>269.0</ele>
        <time>2011-06-25T11:12:24Z</time>
      </trkpt>
      <trkpt lat="43.287285" lon="-8.424167">
        <ele>269.0</ele>
        <time>2011-06-25T11:12:25Z</time>
      </trkpt>
      <trkpt lat="43.287277" lon="-8.424233">
        <ele>269.0</ele>
        <time>2011-06-25T11:12:26Z</time>
      </trkpt>
      <trkpt lat="43.287258" lon="-8.424288">
        <ele>268.5</ele>
        <time>2011-06-25T11:12:27Z</time>
      </trkpt>
      <trkpt lat="43.287225" lon="-8.424328">
        <ele>268.5</ele>
        <time>2011-06-25T11:12:28Z</time>
      </trkpt>
      <trkpt lat="43.287207" lon="-8.424370">
        <ele>268.5</ele>
        <time>2011-06-25T11:12:29Z</time>
      </trkpt>
      <trkpt lat="43.287183" lon="-8.424410">
        <ele>267.5</ele>
        <time>2011-06-25T11:12:30Z</time>
      </trkpt>
      <trkpt lat="43.287172" lon="-8.424443">
        <ele>267.5</ele>
        <time>2011-06-25T11:12:31Z</time>
      </trkpt>
      <trkpt lat="43.287152" lon="-8.424452">
        <ele>268.5</ele>
        <time>2011-06-25T11:12:32Z</time>
      </trkpt>
      <trkpt lat="43.287132" lon="-8.424457">
        <ele>270.0</ele>
        <time>2011-06-25T11:12:33Z</time>
      </trkpt>
      <trkpt lat="43.287125" lon="-8.424477">
        <ele>270.0</ele>
        <time>2011-06-25T11:12:34Z</time>
      </trkpt>
      <trkpt lat="43.287107" lon="-8.424483">
        <ele>269.0</ele>
        <time>2011-06-25T11:12:35Z</time>
      </trkpt>
      <trkpt lat="43.287095" lon="-8.424490">
        <ele>269.5</ele>
        <time>2011-06-25T11:12:36Z</time>
      </trkpt>
      <trkpt lat="43.287087" lon="-8.424498">
        <ele>270.0</ele>
        <time>2011-06-25T11:12:37Z</time>
      </trkpt>
      <trkpt lat="43.287082" lon="-8.424507">
        <ele>270.0</ele>
        <time>2011-06-25T11:12:38Z</time>
      </trkpt>
      <trkpt lat="43.287072" lon="-8.424515">
        <ele>270.5</ele>
        <time>2011-06-25T11:12:39Z</time>
      </trkpt>
      <trkpt lat="43.287067" lon="-8.424527">
        <ele>270.5</ele>
        <time>2011-06-25T11:12:40Z</time>
      </trkpt>
      <trkpt lat="43.287062" lon="-8.424537">
        <ele>271.0</ele>
        <time>2011-06-25T11:12:41Z</time>
      </trkpt>
      <trkpt lat="43.287057" lon="-8.424542">
        <ele>271.0</ele>
        <time>2011-06-25T11:12:42Z</time>
      </trkpt>
      <trkpt lat="43.287038" lon="-8.424545">
        <ele>271.0</ele>
        <time>2011-06-25T11:12:43Z</time>
      </trkpt>
      <trkpt lat="43.287020" lon="-8.424542">
        <ele>270.5</ele>
        <time>2011-06-25T11:12:44Z</time>
      </trkpt>
      <trkpt lat="43.286997" lon="-8.424542">
        <ele>269.5</ele>
        <time>2011-06-25T11:12:45Z</time>
      </trkpt>
      <trkpt lat="43.286990" lon="-8.424538">
        <ele>269.5</ele>
        <time>2011-06-25T11:12:46Z</time>
      </trkpt>
      <trkpt lat="43.286970" lon="-8.424528">
        <ele>270.0</ele>
        <time>2011-06-25T11:12:47Z</time>
      </trkpt>
      <trkpt lat="43.286948" lon="-8.424520">
        <ele>270.0</ele>
        <time>2011-06-25T11:12:48Z</time>
      </trkpt>
      <trkpt lat="43.286927" lon="-8.424530">
        <ele>268.0</ele>
        <time>2011-06-25T11:12:49Z</time>
      </trkpt>
      <trkpt lat="43.286908" lon="-8.424512">
        <ele>268.5</ele>
        <time>2011-06-25T11:12:50Z</time>
      </trkpt>
      <trkpt lat="43.286890" lon="-8.424495">
        <ele>267.5</ele>
        <time>2011-06-25T11:12:51Z</time>
      </trkpt>
      <trkpt lat="43.286867" lon="-8.424478">
        <ele>267.5</ele>
        <time>2011-06-25T11:12:52Z</time>
      </trkpt>
      <trkpt lat="43.286842" lon="-8.424475">
        <ele>270.0</ele>
        <time>2011-06-25T11:12:53Z</time>
      </trkpt>
      <trkpt lat="43.286783" lon="-8.424487">
        <ele>270.5</ele>
        <time>2011-06-25T11:12:55Z</time>
      </trkpt>
      <trkpt lat="43.286760" lon="-8.424487">
        <ele>269.5</ele>
        <time>2011-06-25T11:12:56Z</time>
      </trkpt>
      <trkpt lat="43.286742" lon="-8.424467">
        <ele>270.5</ele>
        <time>2011-06-25T11:12:57Z</time>
      </trkpt>
      <trkpt lat="43.286728" lon="-8.424445">
        <ele>271.5</ele>
        <time>2011-06-25T11:12:58Z</time>
      </trkpt>
      <trkpt lat="43.286703" lon="-8.424430">
        <ele>271.5</ele>
        <time>2011-06-25T11:12:59Z</time>
      </trkpt>
      <trkpt lat="43.286677" lon="-8.424425">
        <ele>271.5</ele>
        <time>2011-06-25T11:13:00Z</time>
      </trkpt>
      <trkpt lat="43.286648" lon="-8.424423">
        <ele>271.5</ele>
        <time>2011-06-25T11:13:01Z</time>
      </trkpt>
      <trkpt lat="43.286622" lon="-8.424417">
        <ele>273.5</ele>
        <time>2011-06-25T11:13:02Z</time>
      </trkpt>
      <trkpt lat="43.286587" lon="-8.424408">
        <ele>274.5</ele>
        <time>2011-06-25T11:13:03Z</time>
      </trkpt>
      <trkpt lat="43.286543" lon="-8.424415">
        <ele>272.5</ele>
        <time>2011-06-25T11:13:04Z</time>
      </trkpt>
      <trkpt lat="43.286520" lon="-8.424398">
        <ele>272.5</ele>
        <time>2011-06-25T11:13:05Z</time>
      </trkpt>
      <trkpt lat="43.286488" lon="-8.424380">
        <ele>273.0</ele>
        <time>2011-06-25T11:13:06Z</time>
      </trkpt>
      <trkpt lat="43.286457" lon="-8.424367">
        <ele>273.0</ele>
        <time>2011-06-25T11:13:07Z</time>
      </trkpt>
      <trkpt lat="43.286358" lon="-8.424402">
        <ele>262.5</ele>
        <time>2011-06-25T11:13:09Z</time>
      </trkpt>
      <trkpt lat="43.286327" lon="-8.424388">
        <ele>263.5</ele>
        <time>2011-06-25T11:13:10Z</time>
      </trkpt>
      <trkpt lat="43.286303" lon="-8.424352">
        <ele>264.0</ele>
        <time>2011-06-25T11:13:11Z</time>
      </trkpt>
      <trkpt lat="43.286275" lon="-8.424325">
        <ele>266.0</ele>
        <time>2011-06-25T11:13:12Z</time>
      </trkpt>
      <trkpt lat="43.286235" lon="-8.424317">
        <ele>264.0</ele>
        <time>2011-06-25T11:13:13Z</time>
      </trkpt>
      <trkpt lat="43.286200" lon="-8.424298">
        <ele>264.0</ele>
        <time>2011-06-25T11:13:14Z</time>
      </trkpt>
      <trkpt lat="43.286165" lon="-8.424265">
        <ele>262.0</ele>
        <time>2011-06-25T11:13:15Z</time>
      </trkpt>
      <trkpt lat="43.286123" lon="-8.424257">
        <ele>261.0</ele>
        <time>2011-06-25T11:13:16Z</time>
      </trkpt>
      <trkpt lat="43.286033" lon="-8.424252">
        <ele>259.0</ele>
        <time>2011-06-25T11:13:18Z</time>
      </trkpt>
      <trkpt lat="43.285998" lon="-8.424250">
        <ele>259.0</ele>
        <time>2011-06-25T11:13:19Z</time>
      </trkpt>
      <trkpt lat="43.285962" lon="-8.424240">
        <ele>258.5</ele>
        <time>2011-06-25T11:13:20Z</time>
      </trkpt>
      <trkpt lat="43.285923" lon="-8.424235">
        <ele>258.5</ele>
        <time>2011-06-25T11:13:21Z</time>
      </trkpt>
      <trkpt lat="43.285883" lon="-8.424227">
        <ele>259.0</ele>
        <time>2011-06-25T11:13:22Z</time>
      </trkpt>
      <trkpt lat="43.285850" lon="-8.424220">
        <ele>258.5</ele>
        <time>2011-06-25T11:13:23Z</time>
      </trkpt>
      <trkpt lat="43.285813" lon="-8.424220">
        <ele>258.5</ele>
        <time>2011-06-25T11:13:24Z</time>
      </trkpt>
      <trkpt lat="43.285785" lon="-8.424228">
        <ele>258.5</ele>
        <time>2011-06-25T11:13:25Z</time>
      </trkpt>
      <trkpt lat="43.285768" lon="-8.424240">
        <ele>258.5</ele>
        <time>2011-06-25T11:13:26Z</time>
      </trkpt>
      <trkpt lat="43.285745" lon="-8.424247">
        <ele>260.0</ele>
        <time>2011-06-25T11:13:27Z</time>
      </trkpt>
      <trkpt lat="43.285725" lon="-8.424260">
        <ele>260.0</ele>
        <time>2011-06-25T11:13:28Z</time>
      </trkpt>
      <trkpt lat="43.285698" lon="-8.424272">
        <ele>260.5</ele>
        <time>2011-06-25T11:13:29Z</time>
      </trkpt>
      <trkpt lat="43.285685" lon="-8.424285">
        <ele>261.5</ele>
        <time>2011-06-25T11:13:30Z</time>
      </trkpt>
      <trkpt lat="43.285680" lon="-8.424290">
        <ele>261.0</ele>
        <time>2011-06-25T11:13:31Z</time>
      </trkpt>
      <trkpt lat="43.285683" lon="-8.424297">
        <ele>261.0</ele>
        <time>2011-06-25T11:13:32Z</time>
      </trkpt>
      <trkpt lat="43.285680" lon="-8.424295">
        <ele>261.5</ele>
        <time>2011-06-25T11:13:33Z</time>
      </trkpt>
      <trkpt lat="43.285693" lon="-8.424305">
        <ele>261.5</ele>
        <time>2011-06-25T11:13:34Z</time>
      </trkpt>
      <trkpt lat="43.285685" lon="-8.424290">
        <ele>258.0</ele>
        <time>2011-06-25T11:13:35Z</time>
      </trkpt>
      <trkpt lat="43.285670" lon="-8.424303">
        <ele>258.5</ele>
        <time>2011-06-25T11:13:36Z</time>
      </trkpt>
      <trkpt lat="43.285657" lon="-8.424305">
        <ele>257.5</ele>
        <time>2011-06-25T11:13:37Z</time>
      </trkpt>
      <trkpt lat="43.285645" lon="-8.424308">
        <ele>255.5</ele>
        <time>2011-06-25T11:13:38Z</time>
      </trkpt>
      <trkpt lat="43.285633" lon="-8.424303">
        <ele>254.0</ele>
        <time>2011-06-25T11:13:39Z</time>
      </trkpt>
      <trkpt lat="43.285630" lon="-8.424307">
        <ele>252.5</ele>
        <time>2011-06-25T11:13:40Z</time>
      </trkpt>
      <trkpt lat="43.285620" lon="-8.424320">
        <ele>253.0</ele>
        <time>2011-06-25T11:13:41Z</time>
      </trkpt>
      <trkpt lat="43.285613" lon="-8.424337">
        <ele>253.0</ele>
        <time>2011-06-25T11:13:42Z</time>
      </trkpt>
      <trkpt lat="43.285593" lon="-8.424347">
        <ele>253.5</ele>
        <time>2011-06-25T11:13:43Z</time>
      </trkpt>
      <trkpt lat="43.285602" lon="-8.424362">
        <ele>255.0</ele>
        <time>2011-06-25T11:13:44Z</time>
      </trkpt>
      <trkpt lat="43.285602" lon="-8.424373">
        <ele>255.5</ele>
        <time>2011-06-25T11:13:45Z</time>
      </trkpt>
      <trkpt lat="43.285592" lon="-8.424377">
        <ele>256.0</ele>
        <time>2011-06-25T11:13:46Z</time>
      </trkpt>
      <trkpt lat="43.285548" lon="-8.424357">
        <ele>252.5</ele>
        <time>2011-06-25T11:13:48Z</time>
      </trkpt>
      <trkpt lat="43.285527" lon="-8.424352">
        <ele>252.0</ele>
        <time>2011-06-25T11:13:49Z</time>
      </trkpt>
      <trkpt lat="43.285523" lon="-8.424350">
        <ele>252.5</ele>
        <time>2011-06-25T11:13:50Z</time>
      </trkpt>
      <trkpt lat="43.285515" lon="-8.424348">
        <ele>252.5</ele>
        <time>2011-06-25T11:13:51Z</time>
      </trkpt>
      <trkpt lat="43.285507" lon="-8.424345">
        <ele>252.0</ele>
        <time>2011-06-25T11:13:52Z</time>
      </trkpt>
      <trkpt lat="43.285495" lon="-8.424337">
        <ele>251.5</ele>
        <time>2011-06-25T11:13:53Z</time>
      </trkpt>
      <trkpt lat="43.285492" lon="-8.424332">
        <ele>251.0</ele>
        <time>2011-06-25T11:13:54Z</time>
      </trkpt>
      <trkpt lat="43.285472" lon="-8.424327">
        <ele>250.0</ele>
        <time>2011-06-25T11:13:55Z</time>
      </trkpt>
      <trkpt lat="43.285465" lon="-8.424323">
        <ele>248.5</ele>
        <time>2011-06-25T11:13:56Z</time>
      </trkpt>
      <trkpt lat="43.285468" lon="-8.424323">
        <ele>248.5</ele>
        <time>2011-06-25T11:13:57Z</time>
      </trkpt>
      <trkpt lat="43.285472" lon="-8.424323">
        <ele>248.0</ele>
        <time>2011-06-25T11:13:58Z</time>
      </trkpt>
      <trkpt lat="43.285467" lon="-8.424322">
        <ele>248.5</ele>
        <time>2011-06-25T11:13:59Z</time>
      </trkpt>
      <trkpt lat="43.285473" lon="-8.424320">
        <ele>248.5</ele>
        <time>2011-06-25T11:14:00Z</time>
      </trkpt>
      <trkpt lat="43.285478" lon="-8.424320">
        <ele>248.5</ele>
        <time>2011-06-25T11:14:01Z</time>
      </trkpt>
      <trkpt lat="43.285485" lon="-8.424322">
        <ele>249.0</ele>
        <time>2011-06-25T11:14:02Z</time>
      </trkpt>
      <trkpt lat="43.285492" lon="-8.424322">
        <ele>248.0</ele>
        <time>2011-06-25T11:14:03Z</time>
      </trkpt>
      <trkpt lat="43.285497" lon="-8.424328">
        <ele>247.0</ele>
        <time>2011-06-25T11:14:04Z</time>
      </trkpt>
      <trkpt lat="43.285502" lon="-8.424332">
        <ele>248.0</ele>
        <time>2011-06-25T11:14:05Z</time>
      </trkpt>
      <trkpt lat="43.285495" lon="-8.424335">
        <ele>248.5</ele>
        <time>2011-06-25T11:14:06Z</time>
      </trkpt>
      <trkpt lat="43.285500" lon="-8.424333">
        <ele>249.0</ele>
        <time>2011-06-25T11:14:07Z</time>
      </trkpt>
      <trkpt lat="43.285507" lon="-8.424328">
        <ele>250.0</ele>
        <time>2011-06-25T11:14:08Z</time>
      </trkpt>
      <trkpt lat="43.285512" lon="-8.424327">
        <ele>250.0</ele>
        <time>2011-06-25T11:14:09Z</time>
      </trkpt>
      <trkpt lat="43.285517" lon="-8.424327">
        <ele>250.5</ele>
        <time>2011-06-25T11:14:10Z</time>
      </trkpt>
      <trkpt lat="43.285528" lon="-8.424330">
        <ele>251.0</ele>
        <time>2011-06-25T11:14:11Z</time>
      </trkpt>
      <trkpt lat="43.285540" lon="-8.424332">
        <ele>251.5</ele>
        <time>2011-06-25T11:14:12Z</time>
      </trkpt>
      <trkpt lat="43.285552" lon="-8.424335">
        <ele>251.5</ele>
        <time>2011-06-25T11:14:13Z</time>
      </trkpt>
      <trkpt lat="43.285562" lon="-8.424335">
        <ele>252.0</ele>
        <time>2011-06-25T11:14:14Z</time>
      </trkpt>
      <trkpt lat="43.285572" lon="-8.424338">
        <ele>252.5</ele>
        <time>2011-06-25T11:14:15Z</time>
      </trkpt>
      <trkpt lat="43.285580" lon="-8.424342">
        <ele>253.5</ele>
        <time>2011-06-25T11:14:16Z</time>
      </trkpt>
      <trkpt lat="43.285592" lon="-8.424345">
        <ele>254.0</ele>
        <time>2011-06-25T11:14:17Z</time>
      </trkpt>
      <trkpt lat="43.285607" lon="-8.424355">
        <ele>254.0</ele>
        <time>2011-06-25T11:14:18Z</time>
      </trkpt>
      <trkpt lat="43.285623" lon="-8.424367">
        <ele>254.0</ele>
        <time>2011-06-25T11:14:19Z</time>
      </trkpt>
      <trkpt lat="43.285640" lon="-8.424383">
        <ele>254.5</ele>
        <time>2011-06-25T11:14:20Z</time>
      </trkpt>
      <trkpt lat="43.285657" lon="-8.424397">
        <ele>254.5</ele>
        <time>2011-06-25T11:14:21Z</time>
      </trkpt>
      <trkpt lat="43.285673" lon="-8.424412">
        <ele>255.5</ele>
        <time>2011-06-25T11:14:22Z</time>
      </trkpt>
      <trkpt lat="43.285687" lon="-8.424425">
        <ele>256.0</ele>
        <time>2011-06-25T11:14:23Z</time>
      </trkpt>
      <trkpt lat="43.285697" lon="-8.424437">
        <ele>257.0</ele>
        <time>2011-06-25T11:14:24Z</time>
      </trkpt>
      <trkpt lat="43.285707" lon="-8.424452">
        <ele>258.0</ele>
        <time>2011-06-25T11:14:25Z</time>
      </trkpt>
      <trkpt lat="43.285717" lon="-8.424467">
        <ele>259.0</ele>
        <time>2011-06-25T11:14:26Z</time>
      </trkpt>
      <trkpt lat="43.285732" lon="-8.424488">
        <ele>259.5</ele>
        <time>2011-06-25T11:14:27Z</time>
      </trkpt>
      <trkpt lat="43.285745" lon="-8.424508">
        <ele>260.0</ele>
        <time>2011-06-25T11:14:28Z</time>
      </trkpt>
      <trkpt lat="43.285755" lon="-8.424515">
        <ele>261.0</ele>
        <time>2011-06-25T11:14:29Z</time>
      </trkpt>
      <trkpt lat="43.285773" lon="-8.424533">
        <ele>261.0</ele>
        <time>2011-06-25T11:14:30Z</time>
      </trkpt>
      <trkpt lat="43.285785" lon="-8.424560">
        <ele>260.0</ele>
        <time>2011-06-25T11:14:31Z</time>
      </trkpt>
      <trkpt lat="43.285793" lon="-8.424588">
        <ele>259.5</ele>
        <time>2011-06-25T11:14:32Z</time>
      </trkpt>
      <trkpt lat="43.285797" lon="-8.424617">
        <ele>260.0</ele>
        <time>2011-06-25T11:14:33Z</time>
      </trkpt>
      <trkpt lat="43.285807" lon="-8.424648">
        <ele>258.5</ele>
        <time>2011-06-25T11:14:34Z</time>
      </trkpt>
      <trkpt lat="43.285808" lon="-8.424675">
        <ele>258.5</ele>
        <time>2011-06-25T11:14:35Z</time>
      </trkpt>
      <trkpt lat="43.285832" lon="-8.424728">
        <ele>257.5</ele>
        <time>2011-06-25T11:14:37Z</time>
      </trkpt>
      <trkpt lat="43.285835" lon="-8.424757">
        <ele>257.5</ele>
        <time>2011-06-25T11:14:38Z</time>
      </trkpt>
      <trkpt lat="43.285840" lon="-8.424785">
        <ele>257.0</ele>
        <time>2011-06-25T11:14:39Z</time>
      </trkpt>
      <trkpt lat="43.285845" lon="-8.424807">
        <ele>257.5</ele>
        <time>2011-06-25T11:14:40Z</time>
      </trkpt>
      <trkpt lat="43.285850" lon="-8.424830">
        <ele>258.0</ele>
        <time>2011-06-25T11:14:41Z</time>
      </trkpt>
      <trkpt lat="43.285853" lon="-8.424862">
        <ele>258.0</ele>
        <time>2011-06-25T11:14:42Z</time>
      </trkpt>
      <trkpt lat="43.285860" lon="-8.424895">
        <ele>258.5</ele>
        <time>2011-06-25T11:14:43Z</time>
      </trkpt>
      <trkpt lat="43.285872" lon="-8.424920">
        <ele>260.0</ele>
        <time>2011-06-25T11:14:44Z</time>
      </trkpt>
      <trkpt lat="43.285880" lon="-8.424950">
        <ele>260.0</ele>
        <time>2011-06-25T11:14:45Z</time>
      </trkpt>
      <trkpt lat="43.285892" lon="-8.424983">
        <ele>259.5</ele>
        <time>2011-06-25T11:14:46Z</time>
      </trkpt>
      <trkpt lat="43.285903" lon="-8.425012">
        <ele>259.5</ele>
        <time>2011-06-25T11:14:47Z</time>
      </trkpt>
      <trkpt lat="43.285915" lon="-8.425037">
        <ele>260.0</ele>
        <time>2011-06-25T11:14:48Z</time>
      </trkpt>
      <trkpt lat="43.285930" lon="-8.425060">
        <ele>260.5</ele>
        <time>2011-06-25T11:14:49Z</time>
      </trkpt>
      <trkpt lat="43.285940" lon="-8.425083">
        <ele>261.0</ele>
        <time>2011-06-25T11:14:50Z</time>
      </trkpt>
      <trkpt lat="43.285952" lon="-8.425112">
        <ele>261.5</ele>
        <time>2011-06-25T11:14:51Z</time>
      </trkpt>
      <trkpt lat="43.285960" lon="-8.425142">
        <ele>262.0</ele>
        <time>2011-06-25T11:14:52Z</time>
      </trkpt>
      <trkpt lat="43.285963" lon="-8.425170">
        <ele>262.0</ele>
        <time>2011-06-25T11:14:53Z</time>
      </trkpt>
      <trkpt lat="43.285967" lon="-8.425198">
        <ele>263.0</ele>
        <time>2011-06-25T11:14:54Z</time>
      </trkpt>
      <trkpt lat="43.285972" lon="-8.425225">
        <ele>263.5</ele>
        <time>2011-06-25T11:14:55Z</time>
      </trkpt>
      <trkpt lat="43.285977" lon="-8.425252">
        <ele>264.0</ele>
        <time>2011-06-25T11:14:56Z</time>
      </trkpt>
      <trkpt lat="43.285985" lon="-8.425268">
        <ele>265.5</ele>
        <time>2011-06-25T11:14:57Z</time>
      </trkpt>
      <trkpt lat="43.285998" lon="-8.425295">
        <ele>266.0</ele>
        <time>2011-06-25T11:14:58Z</time>
      </trkpt>
      <trkpt lat="43.286008" lon="-8.425322">
        <ele>266.5</ele>
        <time>2011-06-25T11:14:59Z</time>
      </trkpt>
      <trkpt lat="43.286017" lon="-8.425350">
        <ele>266.5</ele>
        <time>2011-06-25T11:15:00Z</time>
      </trkpt>
      <trkpt lat="43.286025" lon="-8.425377">
        <ele>266.5</ele>
        <time>2011-06-25T11:15:01Z</time>
      </trkpt>
      <trkpt lat="43.286037" lon="-8.425400">
        <ele>267.0</ele>
        <time>2011-06-25T11:15:02Z</time>
      </trkpt>
      <trkpt lat="43.286047" lon="-8.425420">
        <ele>268.0</ele>
        <time>2011-06-25T11:15:03Z</time>
      </trkpt>
      <trkpt lat="43.286060" lon="-8.425440">
        <ele>269.0</ele>
        <time>2011-06-25T11:15:04Z</time>
      </trkpt>
      <trkpt lat="43.286072" lon="-8.425458">
        <ele>270.0</ele>
        <time>2011-06-25T11:15:05Z</time>
      </trkpt>
      <trkpt lat="43.286085" lon="-8.425472">
        <ele>270.5</ele>
        <time>2011-06-25T11:15:06Z</time>
      </trkpt>
      <trkpt lat="43.286100" lon="-8.425487">
        <ele>271.5</ele>
        <time>2011-06-25T11:15:07Z</time>
      </trkpt>
      <trkpt lat="43.286113" lon="-8.425497">
        <ele>272.5</ele>
        <time>2011-06-25T11:15:08Z</time>
      </trkpt>
      <trkpt lat="43.286125" lon="-8.425510">
        <ele>273.5</ele>
        <time>2011-06-25T11:15:09Z</time>
      </trkpt>
      <trkpt lat="43.286138" lon="-8.425522">
        <ele>274.5</ele>
        <time>2011-06-25T11:15:10Z</time>
      </trkpt>
      <trkpt lat="43.286153" lon="-8.425533">
        <ele>275.0</ele>
        <time>2011-06-25T11:15:11Z</time>
      </trkpt>
      <trkpt lat="43.286167" lon="-8.425543">
        <ele>276.5</ele>
        <time>2011-06-25T11:15:12Z</time>
      </trkpt>
      <trkpt lat="43.286182" lon="-8.425555">
        <ele>277.5</ele>
        <time>2011-06-25T11:15:13Z</time>
      </trkpt>
      <trkpt lat="43.286198" lon="-8.425567">
        <ele>278.0</ele>
        <time>2011-06-25T11:15:14Z</time>
      </trkpt>
      <trkpt lat="43.286218" lon="-8.425583">
        <ele>278.0</ele>
        <time>2011-06-25T11:15:15Z</time>
      </trkpt>
      <trkpt lat="43.286235" lon="-8.425598">
        <ele>279.0</ele>
        <time>2011-06-25T11:15:16Z</time>
      </trkpt>
      <trkpt lat="43.286257" lon="-8.425615">
        <ele>279.5</ele>
        <time>2011-06-25T11:15:17Z</time>
      </trkpt>
      <trkpt lat="43.286275" lon="-8.425638">
        <ele>280.5</ele>
        <time>2011-06-25T11:15:18Z</time>
      </trkpt>
      <trkpt lat="43.286288" lon="-8.425662">
        <ele>281.0</ele>
        <time>2011-06-25T11:15:19Z</time>
      </trkpt>
      <trkpt lat="43.286308" lon="-8.425685">
        <ele>281.0</ele>
        <time>2011-06-25T11:15:20Z</time>
      </trkpt>
      <trkpt lat="43.286325" lon="-8.425710">
        <ele>281.5</ele>
        <time>2011-06-25T11:15:21Z</time>
      </trkpt>
      <trkpt lat="43.286340" lon="-8.425732">
        <ele>282.0</ele>
        <time>2011-06-25T11:15:22Z</time>
      </trkpt>
      <trkpt lat="43.286360" lon="-8.425750">
        <ele>282.5</ele>
        <time>2011-06-25T11:15:23Z</time>
      </trkpt>
      <trkpt lat="43.286377" lon="-8.425762">
        <ele>283.5</ele>
        <time>2011-06-25T11:15:24Z</time>
      </trkpt>
      <trkpt lat="43.286395" lon="-8.425770">
        <ele>284.5</ele>
        <time>2011-06-25T11:15:25Z</time>
      </trkpt>
      <trkpt lat="43.286408" lon="-8.425792">
        <ele>285.0</ele>
        <time>2011-06-25T11:15:26Z</time>
      </trkpt>
      <trkpt lat="43.286425" lon="-8.425812">
        <ele>286.0</ele>
        <time>2011-06-25T11:15:27Z</time>
      </trkpt>
      <trkpt lat="43.286442" lon="-8.425827">
        <ele>286.5</ele>
        <time>2011-06-25T11:15:28Z</time>
      </trkpt>
      <trkpt lat="43.286457" lon="-8.425843">
        <ele>287.5</ele>
        <time>2011-06-25T11:15:29Z</time>
      </trkpt>
      <trkpt lat="43.286470" lon="-8.425848">
        <ele>288.5</ele>
        <time>2011-06-25T11:15:30Z</time>
      </trkpt>
      <trkpt lat="43.286482" lon="-8.425853">
        <ele>289.5</ele>
        <time>2011-06-25T11:15:31Z</time>
      </trkpt>
      <trkpt lat="43.286492" lon="-8.425853">
        <ele>291.0</ele>
        <time>2011-06-25T11:15:32Z</time>
      </trkpt>
      <trkpt lat="43.286497" lon="-8.425867">
        <ele>291.5</ele>
        <time>2011-06-25T11:15:33Z</time>
      </trkpt>
      <trkpt lat="43.286502" lon="-8.425873">
        <ele>292.5</ele>
        <time>2011-06-25T11:15:34Z</time>
      </trkpt>
      <trkpt lat="43.286513" lon="-8.425895">
        <ele>292.5</ele>
        <time>2011-06-25T11:15:35Z</time>
      </trkpt>
      <trkpt lat="43.286523" lon="-8.425902">
        <ele>293.0</ele>
        <time>2011-06-25T11:15:36Z</time>
      </trkpt>
      <trkpt lat="43.286533" lon="-8.425908">
        <ele>293.5</ele>
        <time>2011-06-25T11:15:37Z</time>
      </trkpt>
      <trkpt lat="43.286543" lon="-8.425920">
        <ele>294.0</ele>
        <time>2011-06-25T11:15:38Z</time>
      </trkpt>
      <trkpt lat="43.286555" lon="-8.425925">
        <ele>295.0</ele>
        <time>2011-06-25T11:15:39Z</time>
      </trkpt>
      <trkpt lat="43.286567" lon="-8.425938">
        <ele>295.5</ele>
        <time>2011-06-25T11:15:40Z</time>
      </trkpt>
      <trkpt lat="43.286582" lon="-8.425952">
        <ele>295.5</ele>
        <time>2011-06-25T11:15:41Z</time>
      </trkpt>
      <trkpt lat="43.286597" lon="-8.425963">
        <ele>296.0</ele>
        <time>2011-06-25T11:15:42Z</time>
      </trkpt>
      <trkpt lat="43.286610" lon="-8.425963">
        <ele>297.5</ele>
        <time>2011-06-25T11:15:43Z</time>
      </trkpt>
      <trkpt lat="43.286623" lon="-8.425975">
        <ele>298.5</ele>
        <time>2011-06-25T11:15:44Z</time>
      </trkpt>
      <trkpt lat="43.286635" lon="-8.425987">
        <ele>299.0</ele>
        <time>2011-06-25T11:15:45Z</time>
      </trkpt>
      <trkpt lat="43.286652" lon="-8.425998">
        <ele>299.5</ele>
        <time>2011-06-25T11:15:46Z</time>
      </trkpt>
      <trkpt lat="43.286668" lon="-8.426012">
        <ele>300.0</ele>
        <time>2011-06-25T11:15:47Z</time>
      </trkpt>
      <trkpt lat="43.286680" lon="-8.426020">
        <ele>299.5</ele>
        <time>2011-06-25T11:15:48Z</time>
      </trkpt>
      <trkpt lat="43.286695" lon="-8.426025">
        <ele>300.5</ele>
        <time>2011-06-25T11:15:49Z</time>
      </trkpt>
      <trkpt lat="43.286712" lon="-8.426030">
        <ele>301.5</ele>
        <time>2011-06-25T11:15:50Z</time>
      </trkpt>
      <trkpt lat="43.286725" lon="-8.426035">
        <ele>302.5</ele>
        <time>2011-06-25T11:15:51Z</time>
      </trkpt>
      <trkpt lat="43.286738" lon="-8.426045">
        <ele>302.5</ele>
        <time>2011-06-25T11:15:52Z</time>
      </trkpt>
      <trkpt lat="43.286760" lon="-8.426062">
        <ele>302.0</ele>
        <time>2011-06-25T11:15:53Z</time>
      </trkpt>
      <trkpt lat="43.286780" lon="-8.426068">
        <ele>302.5</ele>
        <time>2011-06-25T11:15:54Z</time>
      </trkpt>
      <trkpt lat="43.286797" lon="-8.426078">
        <ele>303.0</ele>
        <time>2011-06-25T11:15:55Z</time>
      </trkpt>
      <trkpt lat="43.286810" lon="-8.426090">
        <ele>304.0</ele>
        <time>2011-06-25T11:15:56Z</time>
      </trkpt>
      <trkpt lat="43.286827" lon="-8.426102">
        <ele>304.5</ele>
        <time>2011-06-25T11:15:57Z</time>
      </trkpt>
      <trkpt lat="43.286845" lon="-8.426112">
        <ele>305.5</ele>
        <time>2011-06-25T11:15:58Z</time>
      </trkpt>
      <trkpt lat="43.286863" lon="-8.426127">
        <ele>305.5</ele>
        <time>2011-06-25T11:15:59Z</time>
      </trkpt>
      <trkpt lat="43.286882" lon="-8.426142">
        <ele>306.0</ele>
        <time>2011-06-25T11:16:00Z</time>
      </trkpt>
      <trkpt lat="43.286902" lon="-8.426160">
        <ele>306.0</ele>
        <time>2011-06-25T11:16:01Z</time>
      </trkpt>
      <trkpt lat="43.286922" lon="-8.426182">
        <ele>306.0</ele>
        <time>2011-06-25T11:16:02Z</time>
      </trkpt>
      <trkpt lat="43.286940" lon="-8.426195">
        <ele>306.5</ele>
        <time>2011-06-25T11:16:03Z</time>
      </trkpt>
      <trkpt lat="43.286958" lon="-8.426213">
        <ele>306.5</ele>
        <time>2011-06-25T11:16:04Z</time>
      </trkpt>
      <trkpt lat="43.286968" lon="-8.426217">
        <ele>308.0</ele>
        <time>2011-06-25T11:16:05Z</time>
      </trkpt>
      <trkpt lat="43.286985" lon="-8.426227">
        <ele>308.5</ele>
        <time>2011-06-25T11:16:06Z</time>
      </trkpt>
      <trkpt lat="43.287003" lon="-8.426255">
        <ele>308.5</ele>
        <time>2011-06-25T11:16:07Z</time>
      </trkpt>
      <trkpt lat="43.287022" lon="-8.426270">
        <ele>309.0</ele>
        <time>2011-06-25T11:16:08Z</time>
      </trkpt>
      <trkpt lat="43.287042" lon="-8.426275">
        <ele>309.5</ele>
        <time>2011-06-25T11:16:09Z</time>
      </trkpt>
      <trkpt lat="43.287062" lon="-8.426278">
        <ele>309.5</ele>
        <time>2011-06-25T11:16:10Z</time>
      </trkpt>
      <trkpt lat="43.287083" lon="-8.426287">
        <ele>309.5</ele>
        <time>2011-06-25T11:16:11Z</time>
      </trkpt>
      <trkpt lat="43.287103" lon="-8.426298">
        <ele>309.5</ele>
        <time>2011-06-25T11:16:12Z</time>
      </trkpt>
      <trkpt lat="43.287123" lon="-8.426327">
        <ele>309.0</ele>
        <time>2011-06-25T11:16:13Z</time>
      </trkpt>
      <trkpt lat="43.287145" lon="-8.426335">
        <ele>308.0</ele>
        <time>2011-06-25T11:16:14Z</time>
      </trkpt>
      <trkpt lat="43.287167" lon="-8.426358">
        <ele>306.0</ele>
        <time>2011-06-25T11:16:15Z</time>
      </trkpt>
      <trkpt lat="43.287177" lon="-8.426377">
        <ele>306.0</ele>
        <time>2011-06-25T11:16:16Z</time>
      </trkpt>
      <trkpt lat="43.287190" lon="-8.426388">
        <ele>305.5</ele>
        <time>2011-06-25T11:16:17Z</time>
      </trkpt>
      <trkpt lat="43.287203" lon="-8.426398">
        <ele>305.0</ele>
        <time>2011-06-25T11:16:18Z</time>
      </trkpt>
      <trkpt lat="43.287215" lon="-8.426407">
        <ele>305.0</ele>
        <time>2011-06-25T11:16:19Z</time>
      </trkpt>
      <trkpt lat="43.287227" lon="-8.426417">
        <ele>305.0</ele>
        <time>2011-06-25T11:16:20Z</time>
      </trkpt>
      <trkpt lat="43.287240" lon="-8.426425">
        <ele>305.0</ele>
        <time>2011-06-25T11:16:21Z</time>
      </trkpt>
      <trkpt lat="43.287258" lon="-8.426448">
        <ele>302.5</ele>
        <time>2011-06-25T11:16:22Z</time>
      </trkpt>
      <trkpt lat="43.287272" lon="-8.426465">
        <ele>300.5</ele>
        <time>2011-06-25T11:16:23Z</time>
      </trkpt>
      <trkpt lat="43.287298" lon="-8.426530">
        <ele>294.5</ele>
        <time>2011-06-25T11:16:25Z</time>
      </trkpt>
      <trkpt lat="43.287298" lon="-8.426547">
        <ele>293.5</ele>
        <time>2011-06-25T11:16:26Z</time>
      </trkpt>
      <trkpt lat="43.287298" lon="-8.426560">
        <ele>292.0</ele>
        <time>2011-06-25T11:16:27Z</time>
      </trkpt>
      <trkpt lat="43.287290" lon="-8.426562">
        <ele>292.0</ele>
        <time>2011-06-25T11:16:28Z</time>
      </trkpt>
      <trkpt lat="43.287280" lon="-8.426558">
        <ele>292.0</ele>
        <time>2011-06-25T11:16:29Z</time>
      </trkpt>
      <trkpt lat="43.287285" lon="-8.426560">
        <ele>292.0</ele>
        <time>2011-06-25T11:16:30Z</time>
      </trkpt>
      <trkpt lat="43.287297" lon="-8.426578">
        <ele>290.5</ele>
        <time>2011-06-25T11:16:31Z</time>
      </trkpt>
      <trkpt lat="43.287307" lon="-8.426592">
        <ele>289.0</ele>
        <time>2011-06-25T11:16:33Z</time>
      </trkpt>
      <trkpt lat="43.287313" lon="-8.426598">
        <ele>288.5</ele>
        <time>2011-06-25T11:16:34Z</time>
      </trkpt>
      <trkpt lat="43.287313" lon="-8.426598">
        <ele>288.5</ele>
        <time>2011-06-25T11:16:35Z</time>
      </trkpt>
      <trkpt lat="43.287327" lon="-8.426600">
        <ele>288.0</ele>
        <time>2011-06-25T11:16:36Z</time>
      </trkpt>
      <trkpt lat="43.287337" lon="-8.426605">
        <ele>288.0</ele>
        <time>2011-06-25T11:16:37Z</time>
      </trkpt>
      <trkpt lat="43.287350" lon="-8.426622">
        <ele>288.5</ele>
        <time>2011-06-25T11:16:38Z</time>
      </trkpt>
      <trkpt lat="43.287362" lon="-8.426638">
        <ele>288.5</ele>
        <time>2011-06-25T11:16:39Z</time>
      </trkpt>
      <trkpt lat="43.287373" lon="-8.426662">
        <ele>288.0</ele>
        <time>2011-06-25T11:16:40Z</time>
      </trkpt>
      <trkpt lat="43.287388" lon="-8.426683">
        <ele>288.0</ele>
        <time>2011-06-25T11:16:41Z</time>
      </trkpt>
      <trkpt lat="43.287403" lon="-8.426698">
        <ele>287.5</ele>
        <time>2011-06-25T11:16:42Z</time>
      </trkpt>
      <trkpt lat="43.287420" lon="-8.426708">
        <ele>287.0</ele>
        <time>2011-06-25T11:16:43Z</time>
      </trkpt>
      <trkpt lat="43.287433" lon="-8.426710">
        <ele>287.5</ele>
        <time>2011-06-25T11:16:44Z</time>
      </trkpt>
      <trkpt lat="43.287445" lon="-8.426708">
        <ele>287.0</ele>
        <time>2011-06-25T11:16:45Z</time>
      </trkpt>
      <trkpt lat="43.287440" lon="-8.426693">
        <ele>288.5</ele>
        <time>2011-06-25T11:16:46Z</time>
      </trkpt>
      <trkpt lat="43.287445" lon="-8.426687">
        <ele>288.5</ele>
        <time>2011-06-25T11:16:47Z</time>
      </trkpt>
      <trkpt lat="43.287448" lon="-8.426680">
        <ele>290.0</ele>
        <time>2011-06-25T11:16:48Z</time>
      </trkpt>
      <trkpt lat="43.287457" lon="-8.426695">
        <ele>290.0</ele>
        <time>2011-06-25T11:16:49Z</time>
      </trkpt>
      <trkpt lat="43.287463" lon="-8.426718">
        <ele>289.5</ele>
        <time>2011-06-25T11:16:50Z</time>
      </trkpt>
      <trkpt lat="43.287465" lon="-8.426737">
        <ele>290.0</ele>
        <time>2011-06-25T11:16:51Z</time>
      </trkpt>
      <trkpt lat="43.287458" lon="-8.426745">
        <ele>289.5</ele>
        <time>2011-06-25T11:16:52Z</time>
      </trkpt>
      <trkpt lat="43.287452" lon="-8.426745">
        <ele>289.5</ele>
        <time>2011-06-25T11:16:53Z</time>
      </trkpt>
      <trkpt lat="43.287445" lon="-8.426745">
        <ele>290.0</ele>
        <time>2011-06-25T11:16:54Z</time>
      </trkpt>
      <trkpt lat="43.287438" lon="-8.426745">
        <ele>290.0</ele>
        <time>2011-06-25T11:16:55Z</time>
      </trkpt>
      <trkpt lat="43.287432" lon="-8.426742">
        <ele>290.0</ele>
        <time>2011-06-25T11:16:56Z</time>
      </trkpt>
      <trkpt lat="43.287432" lon="-8.426745">
        <ele>290.0</ele>
        <time>2011-06-25T11:16:57Z</time>
      </trkpt>
      <trkpt lat="43.287433" lon="-8.426752">
        <ele>289.0</ele>
        <time>2011-06-25T11:16:58Z</time>
      </trkpt>
      <trkpt lat="43.287432" lon="-8.426763">
        <ele>287.5</ele>
        <time>2011-06-25T11:16:59Z</time>
      </trkpt>
    </trkseg>
  </trk>
  <trk>
    <name>T2067676-15</name>
    <cmt>saida con compañeiros do C.C.Arteixo polos arredores da Coruña</cmt>
    <desc>saida con compañeiros do C.C.Arteixo polos arredores da Coruña</desc>
    <trkseg>
      <trkpt lat="43.287428" lon="-8.426762">
        <ele>288.0</ele>
        <time>2011-06-25T11:17:00Z</time>
      </trkpt>
      <trkpt lat="43.287423" lon="-8.426753">
        <ele>289.0</ele>
        <time>2011-06-25T11:17:01Z</time>
      </trkpt>
      <trkpt lat="43.287415" lon="-8.426760">
        <ele>289.0</ele>
        <time>2011-06-25T11:17:02Z</time>
      </trkpt>
      <trkpt lat="43.287423" lon="-8.426772">
        <ele>290.0</ele>
        <time>2011-06-25T11:17:03Z</time>
      </trkpt>
      <trkpt lat="43.287415" lon="-8.426780">
        <ele>288.5</ele>
        <time>2011-06-25T11:17:04Z</time>
      </trkpt>
      <trkpt lat="43.287405" lon="-8.426787">
        <ele>287.0</ele>
        <time>2011-06-25T11:17:05Z</time>
      </trkpt>
      <trkpt lat="43.287392" lon="-8.426785">
        <ele>286.5</ele>
        <time>2011-06-25T11:17:06Z</time>
      </trkpt>
      <trkpt lat="43.287378" lon="-8.426790">
        <ele>286.5</ele>
        <time>2011-06-25T11:17:07Z</time>
      </trkpt>
      <trkpt lat="43.287368" lon="-8.426787">
        <ele>286.0</ele>
        <time>2011-06-25T11:17:08Z</time>
      </trkpt>
      <trkpt lat="43.287358" lon="-8.426783">
        <ele>286.5</ele>
        <time>2011-06-25T11:17:09Z</time>
      </trkpt>
      <trkpt lat="43.287357" lon="-8.426785">
        <ele>286.5</ele>
        <time>2011-06-25T11:17:10Z</time>
      </trkpt>
      <trkpt lat="43.287358" lon="-8.426787">
        <ele>286.5</ele>
        <time>2011-06-25T11:17:11Z</time>
      </trkpt>
      <trkpt lat="43.287365" lon="-8.426795">
        <ele>286.5</ele>
        <time>2011-06-25T11:17:12Z</time>
      </trkpt>
      <trkpt lat="43.287363" lon="-8.426797">
        <ele>286.0</ele>
        <time>2011-06-25T11:17:13Z</time>
      </trkpt>
      <trkpt lat="43.287365" lon="-8.426798">
        <ele>286.0</ele>
        <time>2011-06-25T11:17:14Z</time>
      </trkpt>
      <trkpt lat="43.287368" lon="-8.426803">
        <ele>286.0</ele>
        <time>2011-06-25T11:17:15Z</time>
      </trkpt>
      <trkpt lat="43.287368" lon="-8.426803">
        <ele>286.0</ele>
        <time>2011-06-25T11:17:16Z</time>
      </trkpt>
      <trkpt lat="43.287368" lon="-8.426807">
        <ele>285.5</ele>
        <time>2011-06-25T11:17:17Z</time>
      </trkpt>
      <trkpt lat="43.287368" lon="-8.426812">
        <ele>285.5</ele>
        <time>2011-06-25T11:17:18Z</time>
      </trkpt>
      <trkpt lat="43.287370" lon="-8.426813">
        <ele>285.0</ele>
        <time>2011-06-25T11:17:19Z</time>
      </trkpt>
      <trkpt lat="43.287370" lon="-8.426815">
        <ele>285.0</ele>
        <time>2011-06-25T11:17:20Z</time>
      </trkpt>
      <trkpt lat="43.287370" lon="-8.426815">
        <ele>285.0</ele>
        <time>2011-06-25T11:17:21Z</time>
      </trkpt>
      <trkpt lat="43.287372" lon="-8.426817">
        <ele>285.5</ele>
        <time>2011-06-25T11:17:22Z</time>
      </trkpt>
      <trkpt lat="43.287372" lon="-8.426817">
        <ele>285.5</ele>
        <time>2011-06-25T11:17:23Z</time>
      </trkpt>
      <trkpt lat="43.287373" lon="-8.426817">
        <ele>285.5</ele>
        <time>2011-06-25T11:17:24Z</time>
      </trkpt>
      <trkpt lat="43.287373" lon="-8.426818">
        <ele>285.5</ele>
        <time>2011-06-25T11:17:25Z</time>
      </trkpt>
      <trkpt lat="43.287373" lon="-8.426818">
        <ele>285.0</ele>
        <time>2011-06-25T11:17:26Z</time>
      </trkpt>
      <trkpt lat="43.287375" lon="-8.426818">
        <ele>285.0</ele>
        <time>2011-06-25T11:17:27Z</time>
      </trkpt>
      <trkpt lat="43.287375" lon="-8.426818">
        <ele>285.0</ele>
        <time>2011-06-25T11:17:28Z</time>
      </trkpt>
      <trkpt lat="43.287375" lon="-8.426820">
        <ele>285.0</ele>
        <time>2011-06-25T11:17:29Z</time>
      </trkpt>
      <trkpt lat="43.287375" lon="-8.426820">
        <ele>285.0</ele>
        <time>2011-06-25T11:17:30Z</time>
      </trkpt>
      <trkpt lat="43.287377" lon="-8.426820">
        <ele>285.0</ele>
        <time>2011-06-25T11:17:31Z</time>
      </trkpt>
      <trkpt lat="43.287377" lon="-8.426820">
        <ele>285.0</ele>
        <time>2011-06-25T11:17:32Z</time>
      </trkpt>
      <trkpt lat="43.287377" lon="-8.426822">
        <ele>284.5</ele>
        <time>2011-06-25T11:17:33Z</time>
      </trkpt>
      <trkpt lat="43.287377" lon="-8.426822">
        <ele>284.5</ele>
        <time>2011-06-25T11:17:34Z</time>
      </trkpt>
      <trkpt lat="43.287377" lon="-8.426823">
        <ele>284.5</ele>
        <time>2011-06-25T11:17:35Z</time>
      </trkpt>
      <trkpt lat="43.287378" lon="-8.426823">
        <ele>285.0</ele>
        <time>2011-06-25T11:17:36Z</time>
      </trkpt>
      <trkpt lat="43.287378" lon="-8.426823">
        <ele>285.0</ele>
        <time>2011-06-25T11:17:37Z</time>
      </trkpt>
      <trkpt lat="43.287378" lon="-8.426823">
        <ele>284.5</ele>
        <time>2011-06-25T11:17:38Z</time>
      </trkpt>
      <trkpt lat="43.287378" lon="-8.426825">
        <ele>284.5</ele>
        <time>2011-06-25T11:17:39Z</time>
      </trkpt>
      <trkpt lat="43.287378" lon="-8.426825">
        <ele>284.5</ele>
        <time>2011-06-25T11:17:40Z</time>
      </trkpt>
      <trkpt lat="43.287378" lon="-8.426825">
        <ele>284.5</ele>
        <time>2011-06-25T11:17:41Z</time>
      </trkpt>
      <trkpt lat="43.287378" lon="-8.426825">
        <ele>284.5</ele>
        <time>2011-06-25T11:17:42Z</time>
      </trkpt>
      <trkpt lat="43.287378" lon="-8.426825">
        <ele>284.5</ele>
        <time>2011-06-25T11:17:43Z</time>
      </trkpt>
      <trkpt lat="43.287378" lon="-8.426825">
        <ele>284.5</ele>
        <time>2011-06-25T11:17:44Z</time>
      </trkpt>
      <trkpt lat="43.287378" lon="-8.426827">
        <ele>284.5</ele>
        <time>2011-06-25T11:17:45Z</time>
      </trkpt>
      <trkpt lat="43.287378" lon="-8.426827">
        <ele>284.5</ele>
        <time>2011-06-25T11:17:46Z</time>
      </trkpt>
      <trkpt lat="43.287378" lon="-8.426827">
        <ele>284.5</ele>
        <time>2011-06-25T11:17:47Z</time>
      </trkpt>
      <trkpt lat="43.287378" lon="-8.426828">
        <ele>284.0</ele>
        <time>2011-06-25T11:17:48Z</time>
      </trkpt>
      <trkpt lat="43.287377" lon="-8.426828">
        <ele>284.0</ele>
        <time>2011-06-25T11:17:49Z</time>
      </trkpt>
      <trkpt lat="43.287377" lon="-8.426828">
        <ele>284.0</ele>
        <time>2011-06-25T11:17:50Z</time>
      </trkpt>
      <trkpt lat="43.287377" lon="-8.426828">
        <ele>284.0</ele>
        <time>2011-06-25T11:17:51Z</time>
      </trkpt>
      <trkpt lat="43.287377" lon="-8.426830">
        <ele>284.0</ele>
        <time>2011-06-25T11:17:52Z</time>
      </trkpt>
      <trkpt lat="43.287377" lon="-8.426830">
        <ele>284.0</ele>
        <time>2011-06-25T11:17:53Z</time>
      </trkpt>
      <trkpt lat="43.287377" lon="-8.426830">
        <ele>284.0</ele>
        <time>2011-06-25T11:17:54Z</time>
      </trkpt>
      <trkpt lat="43.287378" lon="-8.426830">
        <ele>284.0</ele>
        <time>2011-06-25T11:17:55Z</time>
      </trkpt>
      <trkpt lat="43.287378" lon="-8.426830">
        <ele>284.0</ele>
        <time>2011-06-25T11:17:56Z</time>
      </trkpt>
      <trkpt lat="43.287378" lon="-8.426830">
        <ele>283.5</ele>
        <time>2011-06-25T11:17:57Z</time>
      </trkpt>
      <trkpt lat="43.287378" lon="-8.426830">
        <ele>283.5</ele>
        <time>2011-06-25T11:17:58Z</time>
      </trkpt>
      <trkpt lat="43.287378" lon="-8.426830">
        <ele>283.5</ele>
        <time>2011-06-25T11:17:59Z</time>
      </trkpt>
      <trkpt lat="43.287378" lon="-8.426830">
        <ele>283.5</ele>
        <time>2011-06-25T11:18:00Z</time>
      </trkpt>
      <trkpt lat="43.287378" lon="-8.426830">
        <ele>283.5</ele>
        <time>2011-06-25T11:18:01Z</time>
      </trkpt>
      <trkpt lat="43.287378" lon="-8.426830">
        <ele>283.5</ele>
        <time>2011-06-25T11:18:02Z</time>
      </trkpt>
      <trkpt lat="43.287378" lon="-8.426830">
        <ele>283.5</ele>
        <time>2011-06-25T11:18:03Z</time>
      </trkpt>
      <trkpt lat="43.287380" lon="-8.426830">
        <ele>283.5</ele>
        <time>2011-06-25T11:18:04Z</time>
      </trkpt>
      <trkpt lat="43.287380" lon="-8.426830">
        <ele>283.5</ele>
        <time>2011-06-25T11:18:05Z</time>
      </trkpt>
      <trkpt lat="43.287380" lon="-8.426830">
        <ele>283.5</ele>
        <time>2011-06-25T11:18:06Z</time>
      </trkpt>
      <trkpt lat="43.287380" lon="-8.426830">
        <ele>283.5</ele>
        <time>2011-06-25T11:18:07Z</time>
      </trkpt>
      <trkpt lat="43.287380" lon="-8.426830">
        <ele>283.5</ele>
        <time>2011-06-25T11:18:08Z</time>
      </trkpt>
      <trkpt lat="43.287380" lon="-8.426830">
        <ele>283.5</ele>
        <time>2011-06-25T11:18:09Z</time>
      </trkpt>
      <trkpt lat="43.287380" lon="-8.426830">
        <ele>283.5</ele>
        <time>2011-06-25T11:18:10Z</time>
      </trkpt>
      <trkpt lat="43.287380" lon="-8.426830">
        <ele>283.5</ele>
        <time>2011-06-25T11:18:11Z</time>
      </trkpt>
      <trkpt lat="43.287380" lon="-8.426830">
        <ele>283.5</ele>
        <time>2011-06-25T11:18:12Z</time>
      </trkpt>
      <trkpt lat="43.287380" lon="-8.426830">
        <ele>283.5</ele>
        <time>2011-06-25T11:18:13Z</time>
      </trkpt>
      <trkpt lat="43.287380" lon="-8.426830">
        <ele>283.5</ele>
        <time>2011-06-25T11:18:14Z</time>
      </trkpt>
      <trkpt lat="43.287380" lon="-8.426830">
        <ele>283.5</ele>
        <time>2011-06-25T11:18:15Z</time>
      </trkpt>
      <trkpt lat="43.287380" lon="-8.426830">
        <ele>283.5</ele>
        <time>2011-06-25T11:18:16Z</time>
      </trkpt>
      <trkpt lat="43.287380" lon="-8.426830">
        <ele>283.5</ele>
        <time>2011-06-25T11:18:17Z</time>
      </trkpt>
      <trkpt lat="43.287380" lon="-8.426830">
        <ele>283.5</ele>
        <time>2011-06-25T11:18:18Z</time>
      </trkpt>
      <trkpt lat="43.287380" lon="-8.426830">
        <ele>283.5</ele>
        <time>2011-06-25T11:18:19Z</time>
      </trkpt>
      <trkpt lat="43.287380" lon="-8.426830">
        <ele>283.5</ele>
        <time>2011-06-25T11:18:20Z</time>
      </trkpt>
      <trkpt lat="43.287380" lon="-8.426830">
        <ele>283.5</ele>
        <time>2011-06-25T11:18:21Z</time>
      </trkpt>
      <trkpt lat="43.287380" lon="-8.426830">
        <ele>283.5</ele>
        <time>2011-06-25T11:18:22Z</time>
      </trkpt>
      <trkpt lat="43.287380" lon="-8.426830">
        <ele>283.5</ele>
        <time>2011-06-25T11:18:23Z</time>
      </trkpt>
      <trkpt lat="43.287380" lon="-8.426830">
        <ele>283.5</ele>
        <time>2011-06-25T11:18:24Z</time>
      </trkpt>
      <trkpt lat="43.287380" lon="-8.426830">
        <ele>283.5</ele>
        <time>2011-06-25T11:18:25Z</time>
      </trkpt>
      <trkpt lat="43.287380" lon="-8.426830">
        <ele>283.5</ele>
        <time>2011-06-25T11:18:26Z</time>
      </trkpt>
      <trkpt lat="43.287380" lon="-8.426830">
        <ele>283.5</ele>
        <time>2011-06-25T11:18:27Z</time>
      </trkpt>
      <trkpt lat="43.287380" lon="-8.426830">
        <ele>283.5</ele>
        <time>2011-06-25T11:18:28Z</time>
      </trkpt>
      <trkpt lat="43.287380" lon="-8.426830">
        <ele>283.5</ele>
        <time>2011-06-25T11:18:29Z</time>
      </trkpt>
      <trkpt lat="43.287382" lon="-8.426830">
        <ele>283.5</ele>
        <time>2011-06-25T11:18:30Z</time>
      </trkpt>
      <trkpt lat="43.287382" lon="-8.426832">
        <ele>283.5</ele>
        <time>2011-06-25T11:18:31Z</time>
      </trkpt>
      <trkpt lat="43.287382" lon="-8.426832">
        <ele>283.5</ele>
        <time>2011-06-25T11:18:32Z</time>
      </trkpt>
      <trkpt lat="43.287382" lon="-8.426832">
        <ele>283.5</ele>
        <time>2011-06-25T11:18:33Z</time>
      </trkpt>
      <trkpt lat="43.287382" lon="-8.426832">
        <ele>283.5</ele>
        <time>2011-06-25T11:18:34Z</time>
      </trkpt>
      <trkpt lat="43.287382" lon="-8.426832">
        <ele>283.5</ele>
        <time>2011-06-25T11:18:35Z</time>
      </trkpt>
      <trkpt lat="43.287382" lon="-8.426832">
        <ele>283.5</ele>
        <time>2011-06-25T11:18:36Z</time>
      </trkpt>
      <trkpt lat="43.287382" lon="-8.426832">
        <ele>283.0</ele>
        <time>2011-06-25T11:18:37Z</time>
      </trkpt>
      <trkpt lat="43.287382" lon="-8.426832">
        <ele>283.5</ele>
        <time>2011-06-25T11:18:38Z</time>
      </trkpt>
      <trkpt lat="43.287382" lon="-8.426833">
        <ele>283.0</ele>
        <time>2011-06-25T11:18:39Z</time>
      </trkpt>
      <trkpt lat="43.287382" lon="-8.426833">
        <ele>283.0</ele>
        <time>2011-06-25T11:18:40Z</time>
      </trkpt>
      <trkpt lat="43.287382" lon="-8.426833">
        <ele>283.0</ele>
        <time>2011-06-25T11:18:41Z</time>
      </trkpt>
      <trkpt lat="43.287382" lon="-8.426833">
        <ele>283.0</ele>
        <time>2011-06-25T11:18:42Z</time>
      </trkpt>
      <trkpt lat="43.287382" lon="-8.426832">
        <ele>283.0</ele>
        <time>2011-06-25T11:18:43Z</time>
      </trkpt>
      <trkpt lat="43.287382" lon="-8.426832">
        <ele>283.0</ele>
        <time>2011-06-25T11:18:44Z</time>
      </trkpt>
      <trkpt lat="43.287382" lon="-8.426832">
        <ele>283.0</ele>
        <time>2011-06-25T11:18:45Z</time>
      </trkpt>
      <trkpt lat="43.287383" lon="-8.426832">
        <ele>283.0</ele>
        <time>2011-06-25T11:18:46Z</time>
      </trkpt>
      <trkpt lat="43.287383" lon="-8.426833">
        <ele>283.0</ele>
        <time>2011-06-25T11:18:47Z</time>
      </trkpt>
      <trkpt lat="43.287383" lon="-8.426833">
        <ele>283.0</ele>
        <time>2011-06-25T11:18:48Z</time>
      </trkpt>
      <trkpt lat="43.287383" lon="-8.426833">
        <ele>283.0</ele>
        <time>2011-06-25T11:18:49Z</time>
      </trkpt>
      <trkpt lat="43.287383" lon="-8.426833">
        <ele>283.0</ele>
        <time>2011-06-25T11:18:50Z</time>
      </trkpt>
      <trkpt lat="43.287383" lon="-8.426833">
        <ele>283.0</ele>
        <time>2011-06-25T11:18:51Z</time>
      </trkpt>
      <trkpt lat="43.287383" lon="-8.426833">
        <ele>283.0</ele>
        <time>2011-06-25T11:18:52Z</time>
      </trkpt>
      <trkpt lat="43.287383" lon="-8.426833">
        <ele>283.0</ele>
        <time>2011-06-25T11:18:53Z</time>
      </trkpt>
      <trkpt lat="43.287383" lon="-8.426833">
        <ele>283.0</ele>
        <time>2011-06-25T11:18:54Z</time>
      </trkpt>
      <trkpt lat="43.287383" lon="-8.426835">
        <ele>282.5</ele>
        <time>2011-06-25T11:18:55Z</time>
      </trkpt>
      <trkpt lat="43.287383" lon="-8.426835">
        <ele>282.5</ele>
        <time>2011-06-25T11:18:56Z</time>
      </trkpt>
      <trkpt lat="43.287383" lon="-8.426835">
        <ele>282.5</ele>
        <time>2011-06-25T11:18:57Z</time>
      </trkpt>
      <trkpt lat="43.287383" lon="-8.426835">
        <ele>282.5</ele>
        <time>2011-06-25T11:18:58Z</time>
      </trkpt>
      <trkpt lat="43.287383" lon="-8.426835">
        <ele>282.5</ele>
        <time>2011-06-25T11:18:59Z</time>
      </trkpt>
      <trkpt lat="43.287383" lon="-8.426835">
        <ele>282.5</ele>
        <time>2011-06-25T11:19:00Z</time>
      </trkpt>
      <trkpt lat="43.287383" lon="-8.426835">
        <ele>282.5</ele>
        <time>2011-06-25T11:19:01Z</time>
      </trkpt>
      <trkpt lat="43.287383" lon="-8.426835">
        <ele>282.5</ele>
        <time>2011-06-25T11:19:02Z</time>
      </trkpt>
      <trkpt lat="43.287383" lon="-8.426835">
        <ele>282.5</ele>
        <time>2011-06-25T11:19:03Z</time>
      </trkpt>
      <trkpt lat="43.287383" lon="-8.426837">
        <ele>282.5</ele>
        <time>2011-06-25T11:19:04Z</time>
      </trkpt>
      <trkpt lat="43.287383" lon="-8.426837">
        <ele>282.5</ele>
        <time>2011-06-25T11:19:05Z</time>
      </trkpt>
      <trkpt lat="43.287383" lon="-8.426837">
        <ele>282.5</ele>
        <time>2011-06-25T11:19:06Z</time>
      </trkpt>
      <trkpt lat="43.287383" lon="-8.426837">
        <ele>282.5</ele>
        <time>2011-06-25T11:19:07Z</time>
      </trkpt>
      <trkpt lat="43.287383" lon="-8.426837">
        <ele>282.5</ele>
        <time>2011-06-25T11:19:08Z</time>
      </trkpt>
      <trkpt lat="43.287382" lon="-8.426840">
        <ele>282.5</ele>
        <time>2011-06-25T11:19:09Z</time>
      </trkpt>
      <trkpt lat="43.287380" lon="-8.426842">
        <ele>282.5</ele>
        <time>2011-06-25T11:19:10Z</time>
      </trkpt>
      <trkpt lat="43.287367" lon="-8.426888">
        <ele>276.5</ele>
        <time>2011-06-25T11:19:12Z</time>
      </trkpt>
      <trkpt lat="43.287368" lon="-8.426893">
        <ele>276.0</ele>
        <time>2011-06-25T11:19:13Z</time>
      </trkpt>
      <trkpt lat="43.287368" lon="-8.426898">
        <ele>275.5</ele>
        <time>2011-06-25T11:19:14Z</time>
      </trkpt>
      <trkpt lat="43.287370" lon="-8.426900">
        <ele>275.5</ele>
        <time>2011-06-25T11:19:15Z</time>
      </trkpt>
      <trkpt lat="43.287370" lon="-8.426900">
        <ele>275.5</ele>
        <time>2011-06-25T11:19:16Z</time>
      </trkpt>
      <trkpt lat="43.287372" lon="-8.426898">
        <ele>275.5</ele>
        <time>2011-06-25T11:19:17Z</time>
      </trkpt>
      <trkpt lat="43.287372" lon="-8.426898">
        <ele>275.5</ele>
        <time>2011-06-25T11:19:18Z</time>
      </trkpt>
      <trkpt lat="43.287372" lon="-8.426895">
        <ele>275.5</ele>
        <time>2011-06-25T11:19:19Z</time>
      </trkpt>
      <trkpt lat="43.287373" lon="-8.426895">
        <ele>275.5</ele>
        <time>2011-06-25T11:19:20Z</time>
      </trkpt>
      <trkpt lat="43.287373" lon="-8.426895">
        <ele>275.5</ele>
        <time>2011-06-25T11:19:21Z</time>
      </trkpt>
      <trkpt lat="43.287375" lon="-8.426895">
        <ele>275.0</ele>
        <time>2011-06-25T11:19:22Z</time>
      </trkpt>
      <trkpt lat="43.287380" lon="-8.426898">
        <ele>274.5</ele>
        <time>2011-06-25T11:19:23Z</time>
      </trkpt>
      <trkpt lat="43.287383" lon="-8.426905">
        <ele>273.5</ele>
        <time>2011-06-25T11:19:24Z</time>
      </trkpt>
      <trkpt lat="43.287390" lon="-8.426910">
        <ele>272.0</ele>
        <time>2011-06-25T11:19:25Z</time>
      </trkpt>
      <trkpt lat="43.287390" lon="-8.426915">
        <ele>271.5</ele>
        <time>2011-06-25T11:19:26Z</time>
      </trkpt>
      <trkpt lat="43.287392" lon="-8.426917">
        <ele>271.0</ele>
        <time>2011-06-25T11:19:27Z</time>
      </trkpt>
      <trkpt lat="43.287392" lon="-8.426917">
        <ele>271.0</ele>
        <time>2011-06-25T11:19:28Z</time>
      </trkpt>
      <trkpt lat="43.287392" lon="-8.426917">
        <ele>270.5</ele>
        <time>2011-06-25T11:19:29Z</time>
      </trkpt>
      <trkpt lat="43.287397" lon="-8.426917">
        <ele>271.0</ele>
        <time>2011-06-25T11:19:30Z</time>
      </trkpt>
      <trkpt lat="43.287402" lon="-8.426915">
        <ele>271.0</ele>
        <time>2011-06-25T11:19:31Z</time>
      </trkpt>
      <trkpt lat="43.287407" lon="-8.426915">
        <ele>271.5</ele>
        <time>2011-06-25T11:19:32Z</time>
      </trkpt>
      <trkpt lat="43.287407" lon="-8.426913">
        <ele>271.0</ele>
        <time>2011-06-25T11:19:33Z</time>
      </trkpt>
      <trkpt lat="43.287407" lon="-8.426913">
        <ele>271.0</ele>
        <time>2011-06-25T11:19:34Z</time>
      </trkpt>
      <trkpt lat="43.287408" lon="-8.426913">
        <ele>271.0</ele>
        <time>2011-06-25T11:19:35Z</time>
      </trkpt>
      <trkpt lat="43.287408" lon="-8.426913">
        <ele>271.0</ele>
        <time>2011-06-25T11:19:36Z</time>
      </trkpt>
      <trkpt lat="43.287408" lon="-8.426912">
        <ele>270.5</ele>
        <time>2011-06-25T11:19:37Z</time>
      </trkpt>
      <trkpt lat="43.287407" lon="-8.426910">
        <ele>270.5</ele>
        <time>2011-06-25T11:19:38Z</time>
      </trkpt>
      <trkpt lat="43.287407" lon="-8.426908">
        <ele>271.0</ele>
        <time>2011-06-25T11:19:39Z</time>
      </trkpt>
      <trkpt lat="43.287407" lon="-8.426908">
        <ele>271.0</ele>
        <time>2011-06-25T11:19:40Z</time>
      </trkpt>
      <trkpt lat="43.287408" lon="-8.426907">
        <ele>271.0</ele>
        <time>2011-06-25T11:19:41Z</time>
      </trkpt>
      <trkpt lat="43.287408" lon="-8.426907">
        <ele>271.0</ele>
        <time>2011-06-25T11:19:42Z</time>
      </trkpt>
      <trkpt lat="43.287408" lon="-8.426907">
        <ele>271.0</ele>
        <time>2011-06-25T11:19:43Z</time>
      </trkpt>
      <trkpt lat="43.287408" lon="-8.426905">
        <ele>271.0</ele>
        <time>2011-06-25T11:19:44Z</time>
      </trkpt>
      <trkpt lat="43.287408" lon="-8.426905">
        <ele>271.0</ele>
        <time>2011-06-25T11:19:45Z</time>
      </trkpt>
      <trkpt lat="43.287408" lon="-8.426905">
        <ele>271.0</ele>
        <time>2011-06-25T11:19:46Z</time>
      </trkpt>
      <trkpt lat="43.287408" lon="-8.426905">
        <ele>271.0</ele>
        <time>2011-06-25T11:19:47Z</time>
      </trkpt>
      <trkpt lat="43.287408" lon="-8.426905">
        <ele>271.0</ele>
        <time>2011-06-25T11:19:48Z</time>
      </trkpt>
      <trkpt lat="43.287410" lon="-8.426905">
        <ele>271.0</ele>
        <time>2011-06-25T11:19:49Z</time>
      </trkpt>
      <trkpt lat="43.287410" lon="-8.426905">
        <ele>271.0</ele>
        <time>2011-06-25T11:19:50Z</time>
      </trkpt>
      <trkpt lat="43.287410" lon="-8.426905">
        <ele>271.0</ele>
        <time>2011-06-25T11:19:51Z</time>
      </trkpt>
      <trkpt lat="43.287403" lon="-8.426902">
        <ele>271.0</ele>
        <time>2011-06-25T11:19:52Z</time>
      </trkpt>
      <trkpt lat="43.287398" lon="-8.426895">
        <ele>272.0</ele>
        <time>2011-06-25T11:19:53Z</time>
      </trkpt>
      <trkpt lat="43.287392" lon="-8.426895">
        <ele>272.5</ele>
        <time>2011-06-25T11:19:54Z</time>
      </trkpt>
      <trkpt lat="43.287373" lon="-8.426905">
        <ele>271.5</ele>
        <time>2011-06-25T11:19:55Z</time>
      </trkpt>
      <trkpt lat="43.287352" lon="-8.426912">
        <ele>271.0</ele>
        <time>2011-06-25T11:19:56Z</time>
      </trkpt>
      <trkpt lat="43.287342" lon="-8.426908">
        <ele>271.5</ele>
        <time>2011-06-25T11:19:57Z</time>
      </trkpt>
      <trkpt lat="43.287332" lon="-8.426898">
        <ele>272.0</ele>
        <time>2011-06-25T11:19:58Z</time>
      </trkpt>
      <trkpt lat="43.287323" lon="-8.426890">
        <ele>273.5</ele>
        <time>2011-06-25T11:19:59Z</time>
      </trkpt>
      <trkpt lat="43.287308" lon="-8.426882">
        <ele>274.0</ele>
        <time>2011-06-25T11:20:00Z</time>
      </trkpt>
      <trkpt lat="43.287292" lon="-8.426870">
        <ele>275.0</ele>
        <time>2011-06-25T11:20:01Z</time>
      </trkpt>
      <trkpt lat="43.287278" lon="-8.426870">
        <ele>275.0</ele>
        <time>2011-06-25T11:20:02Z</time>
      </trkpt>
      <trkpt lat="43.287263" lon="-8.426868">
        <ele>276.5</ele>
        <time>2011-06-25T11:20:03Z</time>
      </trkpt>
      <trkpt lat="43.287233" lon="-8.426858">
        <ele>277.0</ele>
        <time>2011-06-25T11:20:04Z</time>
      </trkpt>
      <trkpt lat="43.287222" lon="-8.426838">
        <ele>279.5</ele>
        <time>2011-06-25T11:20:06Z</time>
      </trkpt>
      <trkpt lat="43.287207" lon="-8.426828">
        <ele>280.0</ele>
        <time>2011-06-25T11:20:07Z</time>
      </trkpt>
      <trkpt lat="43.287195" lon="-8.426817">
        <ele>280.0</ele>
        <time>2011-06-25T11:20:08Z</time>
      </trkpt>
      <trkpt lat="43.287178" lon="-8.426812">
        <ele>280.5</ele>
        <time>2011-06-25T11:20:09Z</time>
      </trkpt>
      <trkpt lat="43.287168" lon="-8.426807">
        <ele>281.0</ele>
        <time>2011-06-25T11:20:10Z</time>
      </trkpt>
      <trkpt lat="43.287162" lon="-8.426800">
        <ele>282.0</ele>
        <time>2011-06-25T11:20:11Z</time>
      </trkpt>
      <trkpt lat="43.287142" lon="-8.426797">
        <ele>283.0</ele>
        <time>2011-06-25T11:20:12Z</time>
      </trkpt>
      <trkpt lat="43.287120" lon="-8.426798">
        <ele>282.5</ele>
        <time>2011-06-25T11:20:13Z</time>
      </trkpt>
      <trkpt lat="43.287102" lon="-8.426807">
        <ele>282.5</ele>
        <time>2011-06-25T11:20:14Z</time>
      </trkpt>
      <trkpt lat="43.287083" lon="-8.426815">
        <ele>282.5</ele>
        <time>2011-06-25T11:20:15Z</time>
      </trkpt>
      <trkpt lat="43.287073" lon="-8.426827">
        <ele>283.0</ele>
        <time>2011-06-25T11:20:16Z</time>
      </trkpt>
      <trkpt lat="43.287068" lon="-8.426843">
        <ele>282.5</ele>
        <time>2011-06-25T11:20:17Z</time>
      </trkpt>
      <trkpt lat="43.287062" lon="-8.426853">
        <ele>282.5</ele>
        <time>2011-06-25T11:20:18Z</time>
      </trkpt>
      <trkpt lat="43.287053" lon="-8.426865">
        <ele>282.5</ele>
        <time>2011-06-25T11:20:19Z</time>
      </trkpt>
      <trkpt lat="43.287048" lon="-8.426883">
        <ele>283.5</ele>
        <time>2011-06-25T11:20:20Z</time>
      </trkpt>
      <trkpt lat="43.287033" lon="-8.426902">
        <ele>283.5</ele>
        <time>2011-06-25T11:20:21Z</time>
      </trkpt>
      <trkpt lat="43.287022" lon="-8.426917">
        <ele>283.5</ele>
        <time>2011-06-25T11:20:22Z</time>
      </trkpt>
      <trkpt lat="43.287012" lon="-8.426932">
        <ele>284.0</ele>
        <time>2011-06-25T11:20:23Z</time>
      </trkpt>
      <trkpt lat="43.287005" lon="-8.426950">
        <ele>284.5</ele>
        <time>2011-06-25T11:20:24Z</time>
      </trkpt>
      <trkpt lat="43.286995" lon="-8.426965">
        <ele>285.5</ele>
        <time>2011-06-25T11:20:25Z</time>
      </trkpt>
      <trkpt lat="43.286988" lon="-8.426980">
        <ele>286.5</ele>
        <time>2011-06-25T11:20:26Z</time>
      </trkpt>
      <trkpt lat="43.286975" lon="-8.426995">
        <ele>287.0</ele>
        <time>2011-06-25T11:20:27Z</time>
      </trkpt>
      <trkpt lat="43.286970" lon="-8.427008">
        <ele>288.0</ele>
        <time>2011-06-25T11:20:28Z</time>
      </trkpt>
      <trkpt lat="43.286968" lon="-8.427023">
        <ele>287.5</ele>
        <time>2011-06-25T11:20:29Z</time>
      </trkpt>
      <trkpt lat="43.286967" lon="-8.427038">
        <ele>289.0</ele>
        <time>2011-06-25T11:20:30Z</time>
      </trkpt>
      <trkpt lat="43.286960" lon="-8.427053">
        <ele>289.0</ele>
        <time>2011-06-25T11:20:31Z</time>
      </trkpt>
      <trkpt lat="43.286952" lon="-8.427068">
        <ele>290.0</ele>
        <time>2011-06-25T11:20:32Z</time>
      </trkpt>
      <trkpt lat="43.286947" lon="-8.427087">
        <ele>291.0</ele>
        <time>2011-06-25T11:20:33Z</time>
      </trkpt>
      <trkpt lat="43.286942" lon="-8.427100">
        <ele>292.0</ele>
        <time>2011-06-25T11:20:34Z</time>
      </trkpt>
      <trkpt lat="43.286932" lon="-8.427122">
        <ele>293.0</ele>
        <time>2011-06-25T11:20:35Z</time>
      </trkpt>
      <trkpt lat="43.286927" lon="-8.427140">
        <ele>294.5</ele>
        <time>2011-06-25T11:20:36Z</time>
      </trkpt>
      <trkpt lat="43.286922" lon="-8.427152">
        <ele>295.5</ele>
        <time>2011-06-25T11:20:37Z</time>
      </trkpt>
      <trkpt lat="43.286913" lon="-8.427168">
        <ele>295.5</ele>
        <time>2011-06-25T11:20:38Z</time>
      </trkpt>
      <trkpt lat="43.286908" lon="-8.427185">
        <ele>296.0</ele>
        <time>2011-06-25T11:20:39Z</time>
      </trkpt>
      <trkpt lat="43.286903" lon="-8.427195">
        <ele>296.5</ele>
        <time>2011-06-25T11:20:40Z</time>
      </trkpt>
      <trkpt lat="43.286900" lon="-8.427207">
        <ele>296.5</ele>
        <time>2011-06-25T11:20:41Z</time>
      </trkpt>
      <trkpt lat="43.286897" lon="-8.427220">
        <ele>296.5</ele>
        <time>2011-06-25T11:20:42Z</time>
      </trkpt>
      <trkpt lat="43.286887" lon="-8.427237">
        <ele>296.5</ele>
        <time>2011-06-25T11:20:43Z</time>
      </trkpt>
      <trkpt lat="43.286877" lon="-8.427243">
        <ele>297.5</ele>
        <time>2011-06-25T11:20:44Z</time>
      </trkpt>
      <trkpt lat="43.286883" lon="-8.427260">
        <ele>298.5</ele>
        <time>2011-06-25T11:20:45Z</time>
      </trkpt>
      <trkpt lat="43.286882" lon="-8.427273">
        <ele>299.0</ele>
        <time>2011-06-25T11:20:46Z</time>
      </trkpt>
      <trkpt lat="43.286870" lon="-8.427285">
        <ele>299.0</ele>
        <time>2011-06-25T11:20:47Z</time>
      </trkpt>
      <trkpt lat="43.286868" lon="-8.427298">
        <ele>299.0</ele>
        <time>2011-06-25T11:20:48Z</time>
      </trkpt>
      <trkpt lat="43.286860" lon="-8.427312">
        <ele>298.5</ele>
        <time>2011-06-25T11:20:49Z</time>
      </trkpt>
      <trkpt lat="43.286852" lon="-8.427330">
        <ele>298.0</ele>
        <time>2011-06-25T11:20:50Z</time>
      </trkpt>
      <trkpt lat="43.286845" lon="-8.427350">
        <ele>297.0</ele>
        <time>2011-06-25T11:20:51Z</time>
      </trkpt>
      <trkpt lat="43.286835" lon="-8.427363">
        <ele>297.0</ele>
        <time>2011-06-25T11:20:52Z</time>
      </trkpt>
      <trkpt lat="43.286823" lon="-8.427378">
        <ele>297.0</ele>
        <time>2011-06-25T11:20:53Z</time>
      </trkpt>
      <trkpt lat="43.286812" lon="-8.427390">
        <ele>296.5</ele>
        <time>2011-06-25T11:20:54Z</time>
      </trkpt>
      <trkpt lat="43.286798" lon="-8.427402">
        <ele>296.5</ele>
        <time>2011-06-25T11:20:55Z</time>
      </trkpt>
      <trkpt lat="43.286787" lon="-8.427412">
        <ele>296.5</ele>
        <time>2011-06-25T11:20:56Z</time>
      </trkpt>
      <trkpt lat="43.286773" lon="-8.427417">
        <ele>296.0</ele>
        <time>2011-06-25T11:20:57Z</time>
      </trkpt>
      <trkpt lat="43.286772" lon="-8.427432">
        <ele>296.0</ele>
        <time>2011-06-25T11:20:58Z</time>
      </trkpt>
      <trkpt lat="43.286773" lon="-8.427450">
        <ele>295.5</ele>
        <time>2011-06-25T11:20:59Z</time>
      </trkpt>
      <trkpt lat="43.286767" lon="-8.427468">
        <ele>295.0</ele>
        <time>2011-06-25T11:21:00Z</time>
      </trkpt>
      <trkpt lat="43.286758" lon="-8.427483">
        <ele>294.0</ele>
        <time>2011-06-25T11:21:01Z</time>
      </trkpt>
      <trkpt lat="43.286747" lon="-8.427505">
        <ele>293.0</ele>
        <time>2011-06-25T11:21:02Z</time>
      </trkpt>
      <trkpt lat="43.286742" lon="-8.427525">
        <ele>292.5</ele>
        <time>2011-06-25T11:21:03Z</time>
      </trkpt>
      <trkpt lat="43.286750" lon="-8.427547">
        <ele>292.5</ele>
        <time>2011-06-25T11:21:04Z</time>
      </trkpt>
      <trkpt lat="43.286762" lon="-8.427567">
        <ele>292.0</ele>
        <time>2011-06-25T11:21:05Z</time>
      </trkpt>
      <trkpt lat="43.286775" lon="-8.427588">
        <ele>291.5</ele>
        <time>2011-06-25T11:21:06Z</time>
      </trkpt>
      <trkpt lat="43.286775" lon="-8.427610">
        <ele>289.5</ele>
        <time>2011-06-25T11:21:07Z</time>
      </trkpt>
      <trkpt lat="43.286765" lon="-8.427637">
        <ele>287.0</ele>
        <time>2011-06-25T11:21:08Z</time>
      </trkpt>
      <trkpt lat="43.286768" lon="-8.427673">
        <ele>286.5</ele>
        <time>2011-06-25T11:21:09Z</time>
      </trkpt>
      <trkpt lat="43.286772" lon="-8.427708">
        <ele>286.5</ele>
        <time>2011-06-25T11:21:10Z</time>
      </trkpt>
      <trkpt lat="43.286777" lon="-8.427745">
        <ele>286.5</ele>
        <time>2011-06-25T11:21:11Z</time>
      </trkpt>
      <trkpt lat="43.286795" lon="-8.427762">
        <ele>287.5</ele>
        <time>2011-06-25T11:21:12Z</time>
      </trkpt>
      <trkpt lat="43.286812" lon="-8.427782">
        <ele>286.0</ele>
        <time>2011-06-25T11:21:13Z</time>
      </trkpt>
      <trkpt lat="43.286835" lon="-8.427797">
        <ele>286.0</ele>
        <time>2011-06-25T11:21:14Z</time>
      </trkpt>
      <trkpt lat="43.286848" lon="-8.427803">
        <ele>288.0</ele>
        <time>2011-06-25T11:21:15Z</time>
      </trkpt>
      <trkpt lat="43.286863" lon="-8.427828">
        <ele>288.5</ele>
        <time>2011-06-25T11:21:16Z</time>
      </trkpt>
      <trkpt lat="43.286888" lon="-8.427860">
        <ele>289.0</ele>
        <time>2011-06-25T11:21:17Z</time>
      </trkpt>
      <trkpt lat="43.286913" lon="-8.427900">
        <ele>288.5</ele>
        <time>2011-06-25T11:21:18Z</time>
      </trkpt>
      <trkpt lat="43.286930" lon="-8.427935">
        <ele>288.5</ele>
        <time>2011-06-25T11:21:19Z</time>
      </trkpt>
      <trkpt lat="43.286937" lon="-8.427967">
        <ele>289.0</ele>
        <time>2011-06-25T11:21:20Z</time>
      </trkpt>
      <trkpt lat="43.286927" lon="-8.428005">
        <ele>289.0</ele>
        <time>2011-06-25T11:21:21Z</time>
      </trkpt>
      <trkpt lat="43.286913" lon="-8.428038">
        <ele>290.0</ele>
        <time>2011-06-25T11:21:22Z</time>
      </trkpt>
      <trkpt lat="43.286905" lon="-8.428065">
        <ele>291.5</ele>
        <time>2011-06-25T11:21:23Z</time>
      </trkpt>
      <trkpt lat="43.286898" lon="-8.428088">
        <ele>291.5</ele>
        <time>2011-06-25T11:21:24Z</time>
      </trkpt>
      <trkpt lat="43.286890" lon="-8.428108">
        <ele>292.0</ele>
        <time>2011-06-25T11:21:25Z</time>
      </trkpt>
      <trkpt lat="43.286888" lon="-8.428125">
        <ele>293.0</ele>
        <time>2011-06-25T11:21:26Z</time>
      </trkpt>
      <trkpt lat="43.286882" lon="-8.428140">
        <ele>293.5</ele>
        <time>2011-06-25T11:21:27Z</time>
      </trkpt>
      <trkpt lat="43.286872" lon="-8.428157">
        <ele>293.5</ele>
        <time>2011-06-25T11:21:28Z</time>
      </trkpt>
      <trkpt lat="43.286860" lon="-8.428175">
        <ele>293.5</ele>
        <time>2011-06-25T11:21:29Z</time>
      </trkpt>
      <trkpt lat="43.286857" lon="-8.428195">
        <ele>295.0</ele>
        <time>2011-06-25T11:21:30Z</time>
      </trkpt>
      <trkpt lat="43.286862" lon="-8.428213">
        <ele>295.5</ele>
        <time>2011-06-25T11:21:31Z</time>
      </trkpt>
      <trkpt lat="43.286858" lon="-8.428228">
        <ele>296.5</ele>
        <time>2011-06-25T11:21:32Z</time>
      </trkpt>
      <trkpt lat="43.286838" lon="-8.428245">
        <ele>296.0</ele>
        <time>2011-06-25T11:21:33Z</time>
      </trkpt>
      <trkpt lat="43.286815" lon="-8.428262">
        <ele>295.5</ele>
        <time>2011-06-25T11:21:34Z</time>
      </trkpt>
      <trkpt lat="43.286793" lon="-8.428280">
        <ele>295.5</ele>
        <time>2011-06-25T11:21:35Z</time>
      </trkpt>
      <trkpt lat="43.286780" lon="-8.428295">
        <ele>296.0</ele>
        <time>2011-06-25T11:21:36Z</time>
      </trkpt>
      <trkpt lat="43.286768" lon="-8.428315">
        <ele>296.0</ele>
        <time>2011-06-25T11:21:37Z</time>
      </trkpt>
      <trkpt lat="43.286767" lon="-8.428342">
        <ele>296.5</ele>
        <time>2011-06-25T11:21:38Z</time>
      </trkpt>
      <trkpt lat="43.286762" lon="-8.428370">
        <ele>297.0</ele>
        <time>2011-06-25T11:21:39Z</time>
      </trkpt>
      <trkpt lat="43.286755" lon="-8.428407">
        <ele>296.5</ele>
        <time>2011-06-25T11:21:40Z</time>
      </trkpt>
      <trkpt lat="43.286748" lon="-8.428448">
        <ele>295.5</ele>
        <time>2011-06-25T11:21:41Z</time>
      </trkpt>
      <trkpt lat="43.286745" lon="-8.428485">
        <ele>295.0</ele>
        <time>2011-06-25T11:21:42Z</time>
      </trkpt>
      <trkpt lat="43.286735" lon="-8.428507">
        <ele>293.5</ele>
        <time>2011-06-25T11:21:43Z</time>
      </trkpt>
      <trkpt lat="43.286723" lon="-8.428537">
        <ele>292.0</ele>
        <time>2011-06-25T11:21:44Z</time>
      </trkpt>
      <trkpt lat="43.286718" lon="-8.428557">
        <ele>291.5</ele>
        <time>2011-06-25T11:21:45Z</time>
      </trkpt>
      <trkpt lat="43.286702" lon="-8.428587">
        <ele>291.5</ele>
        <time>2011-06-25T11:21:46Z</time>
      </trkpt>
      <trkpt lat="43.286687" lon="-8.428610">
        <ele>292.0</ele>
        <time>2011-06-25T11:21:47Z</time>
      </trkpt>
      <trkpt lat="43.286690" lon="-8.428637">
        <ele>291.0</ele>
        <time>2011-06-25T11:21:48Z</time>
      </trkpt>
      <trkpt lat="43.286693" lon="-8.428645">
        <ele>291.0</ele>
        <time>2011-06-25T11:21:49Z</time>
      </trkpt>
      <trkpt lat="43.286688" lon="-8.428658">
        <ele>291.5</ele>
        <time>2011-06-25T11:21:50Z</time>
      </trkpt>
      <trkpt lat="43.286675" lon="-8.428670">
        <ele>291.5</ele>
        <time>2011-06-25T11:21:51Z</time>
      </trkpt>
      <trkpt lat="43.286667" lon="-8.428668">
        <ele>289.5</ele>
        <time>2011-06-25T11:21:52Z</time>
      </trkpt>
      <trkpt lat="43.286663" lon="-8.428668">
        <ele>289.5</ele>
        <time>2011-06-25T11:21:53Z</time>
      </trkpt>
      <trkpt lat="43.286663" lon="-8.428668">
        <ele>289.5</ele>
        <time>2011-06-25T11:21:54Z</time>
      </trkpt>
      <trkpt lat="43.286660" lon="-8.428670">
        <ele>289.5</ele>
        <time>2011-06-25T11:21:55Z</time>
      </trkpt>
      <trkpt lat="43.286658" lon="-8.428668">
        <ele>290.5</ele>
        <time>2011-06-25T11:21:56Z</time>
      </trkpt>
      <trkpt lat="43.286657" lon="-8.428672">
        <ele>291.0</ele>
        <time>2011-06-25T11:21:57Z</time>
      </trkpt>
      <trkpt lat="43.286655" lon="-8.428677">
        <ele>291.5</ele>
        <time>2011-06-25T11:21:58Z</time>
      </trkpt>
      <trkpt lat="43.286642" lon="-8.428698">
        <ele>290.5</ele>
        <time>2011-06-25T11:21:59Z</time>
      </trkpt>
      <trkpt lat="43.286642" lon="-8.428707">
        <ele>291.0</ele>
        <time>2011-06-25T11:22:00Z</time>
      </trkpt>
      <trkpt lat="43.286625" lon="-8.428755">
        <ele>288.0</ele>
        <time>2011-06-25T11:22:02Z</time>
      </trkpt>
      <trkpt lat="43.286618" lon="-8.428765">
        <ele>289.0</ele>
        <time>2011-06-25T11:22:03Z</time>
      </trkpt>
      <trkpt lat="43.286605" lon="-8.428788">
        <ele>288.0</ele>
        <time>2011-06-25T11:22:04Z</time>
      </trkpt>
      <trkpt lat="43.286590" lon="-8.428815">
        <ele>285.5</ele>
        <time>2011-06-25T11:22:05Z</time>
      </trkpt>
      <trkpt lat="43.286573" lon="-8.428840">
        <ele>281.5</ele>
        <time>2011-06-25T11:22:06Z</time>
      </trkpt>
      <trkpt lat="43.286553" lon="-8.428857">
        <ele>281.5</ele>
        <time>2011-06-25T11:22:07Z</time>
      </trkpt>
      <trkpt lat="43.286542" lon="-8.428878">
        <ele>281.0</ele>
        <time>2011-06-25T11:22:08Z</time>
      </trkpt>
      <trkpt lat="43.286502" lon="-8.428962">
        <ele>276.0</ele>
        <time>2011-06-25T11:22:10Z</time>
      </trkpt>
      <trkpt lat="43.286480" lon="-8.428998">
        <ele>275.5</ele>
        <time>2011-06-25T11:22:11Z</time>
      </trkpt>
      <trkpt lat="43.286462" lon="-8.429053">
        <ele>271.5</ele>
        <time>2011-06-25T11:22:12Z</time>
      </trkpt>
      <trkpt lat="43.286450" lon="-8.429082">
        <ele>270.0</ele>
        <time>2011-06-25T11:22:13Z</time>
      </trkpt>
      <trkpt lat="43.286423" lon="-8.429137">
        <ele>269.0</ele>
        <time>2011-06-25T11:22:15Z</time>
      </trkpt>
      <trkpt lat="43.286412" lon="-8.429152">
        <ele>268.5</ele>
        <time>2011-06-25T11:22:16Z</time>
      </trkpt>
      <trkpt lat="43.286405" lon="-8.429155">
        <ele>268.0</ele>
        <time>2011-06-25T11:22:17Z</time>
      </trkpt>
      <trkpt lat="43.286398" lon="-8.429160">
        <ele>268.0</ele>
        <time>2011-06-25T11:22:18Z</time>
      </trkpt>
      <trkpt lat="43.286398" lon="-8.429160">
        <ele>268.0</ele>
        <time>2011-06-25T11:22:19Z</time>
      </trkpt>
      <trkpt lat="43.286398" lon="-8.429162">
        <ele>268.0</ele>
        <time>2011-06-25T11:22:20Z</time>
      </trkpt>
      <trkpt lat="43.286397" lon="-8.429167">
        <ele>267.5</ele>
        <time>2011-06-25T11:22:21Z</time>
      </trkpt>
      <trkpt lat="43.286395" lon="-8.429168">
        <ele>267.5</ele>
        <time>2011-06-25T11:22:22Z</time>
      </trkpt>
      <trkpt lat="43.286395" lon="-8.429172">
        <ele>268.0</ele>
        <time>2011-06-25T11:22:23Z</time>
      </trkpt>
      <trkpt lat="43.286393" lon="-8.429172">
        <ele>269.0</ele>
        <time>2011-06-25T11:22:24Z</time>
      </trkpt>
      <trkpt lat="43.286392" lon="-8.429173">
        <ele>269.5</ele>
        <time>2011-06-25T11:22:25Z</time>
      </trkpt>
      <trkpt lat="43.286388" lon="-8.429172">
        <ele>271.5</ele>
        <time>2011-06-25T11:22:26Z</time>
      </trkpt>
      <trkpt lat="43.286387" lon="-8.429170">
        <ele>271.5</ele>
        <time>2011-06-25T11:22:27Z</time>
      </trkpt>
      <trkpt lat="43.286385" lon="-8.429183">
        <ele>270.0</ele>
        <time>2011-06-25T11:22:28Z</time>
      </trkpt>
      <trkpt lat="43.286382" lon="-8.429187">
        <ele>271.0</ele>
        <time>2011-06-25T11:22:29Z</time>
      </trkpt>
      <trkpt lat="43.286382" lon="-8.429187">
        <ele>271.5</ele>
        <time>2011-06-25T11:22:30Z</time>
      </trkpt>
      <trkpt lat="43.286380" lon="-8.429190">
        <ele>270.5</ele>
        <time>2011-06-25T11:22:31Z</time>
      </trkpt>
      <trkpt lat="43.286380" lon="-8.429195">
        <ele>270.0</ele>
        <time>2011-06-25T11:22:32Z</time>
      </trkpt>
      <trkpt lat="43.286378" lon="-8.429198">
        <ele>268.5</ele>
        <time>2011-06-25T11:22:33Z</time>
      </trkpt>
      <trkpt lat="43.286378" lon="-8.429205">
        <ele>267.0</ele>
        <time>2011-06-25T11:22:34Z</time>
      </trkpt>
      <trkpt lat="43.286378" lon="-8.429210">
        <ele>264.5</ele>
        <time>2011-06-25T11:22:35Z</time>
      </trkpt>
      <trkpt lat="43.286377" lon="-8.429217">
        <ele>262.0</ele>
        <time>2011-06-25T11:22:36Z</time>
      </trkpt>
      <trkpt lat="43.286377" lon="-8.429225">
        <ele>259.5</ele>
        <time>2011-06-25T11:22:37Z</time>
      </trkpt>
      <trkpt lat="43.286377" lon="-8.429233">
        <ele>257.0</ele>
        <time>2011-06-25T11:22:38Z</time>
      </trkpt>
      <trkpt lat="43.286377" lon="-8.429237">
        <ele>256.0</ele>
        <time>2011-06-25T11:22:39Z</time>
      </trkpt>
      <trkpt lat="43.286377" lon="-8.429240">
        <ele>255.5</ele>
        <time>2011-06-25T11:22:40Z</time>
      </trkpt>
      <trkpt lat="43.286377" lon="-8.429243">
        <ele>254.5</ele>
        <time>2011-06-25T11:22:41Z</time>
      </trkpt>
      <trkpt lat="43.286377" lon="-8.429247">
        <ele>253.5</ele>
        <time>2011-06-25T11:22:42Z</time>
      </trkpt>
      <trkpt lat="43.286380" lon="-8.429262">
        <ele>250.5</ele>
        <time>2011-06-25T11:22:43Z</time>
      </trkpt>
      <trkpt lat="43.286382" lon="-8.429270">
        <ele>247.5</ele>
        <time>2011-06-25T11:22:44Z</time>
      </trkpt>
      <trkpt lat="43.286385" lon="-8.429282">
        <ele>244.5</ele>
        <time>2011-06-25T11:22:45Z</time>
      </trkpt>
      <trkpt lat="43.286383" lon="-8.429282">
        <ele>245.0</ele>
        <time>2011-06-25T11:22:46Z</time>
      </trkpt>
      <trkpt lat="43.286383" lon="-8.429282">
        <ele>244.5</ele>
        <time>2011-06-25T11:22:47Z</time>
      </trkpt>
      <trkpt lat="43.286378" lon="-8.429290">
        <ele>244.0</ele>
        <time>2011-06-25T11:22:48Z</time>
      </trkpt>
      <trkpt lat="43.286373" lon="-8.429292">
        <ele>244.5</ele>
        <time>2011-06-25T11:22:49Z</time>
      </trkpt>
      <trkpt lat="43.286373" lon="-8.429293">
        <ele>244.5</ele>
        <time>2011-06-25T11:22:50Z</time>
      </trkpt>
      <trkpt lat="43.286372" lon="-8.429295">
        <ele>244.5</ele>
        <time>2011-06-25T11:22:51Z</time>
      </trkpt>
      <trkpt lat="43.286370" lon="-8.429295">
        <ele>244.5</ele>
        <time>2011-06-25T11:22:52Z</time>
      </trkpt>
      <trkpt lat="43.286368" lon="-8.429297">
        <ele>245.0</ele>
        <time>2011-06-25T11:22:53Z</time>
      </trkpt>
      <trkpt lat="43.286365" lon="-8.429298">
        <ele>245.0</ele>
        <time>2011-06-25T11:22:54Z</time>
      </trkpt>
      <trkpt lat="43.286362" lon="-8.429300">
        <ele>245.0</ele>
        <time>2011-06-25T11:22:55Z</time>
      </trkpt>
      <trkpt lat="43.286357" lon="-8.429307">
        <ele>246.0</ele>
        <time>2011-06-25T11:22:56Z</time>
      </trkpt>
      <trkpt lat="43.286350" lon="-8.429308">
        <ele>246.5</ele>
        <time>2011-06-25T11:22:57Z</time>
      </trkpt>
      <trkpt lat="43.286347" lon="-8.429312">
        <ele>246.5</ele>
        <time>2011-06-25T11:22:58Z</time>
      </trkpt>
      <trkpt lat="43.286342" lon="-8.429317">
        <ele>247.0</ele>
        <time>2011-06-25T11:22:59Z</time>
      </trkpt>
      <trkpt lat="43.286338" lon="-8.429318">
        <ele>247.0</ele>
        <time>2011-06-25T11:23:00Z</time>
      </trkpt>
      <trkpt lat="43.286335" lon="-8.429318">
        <ele>247.0</ele>
        <time>2011-06-25T11:23:01Z</time>
      </trkpt>
      <trkpt lat="43.286335" lon="-8.429318">
        <ele>247.0</ele>
        <time>2011-06-25T11:23:02Z</time>
      </trkpt>
      <trkpt lat="43.286335" lon="-8.429317">
        <ele>247.5</ele>
        <time>2011-06-25T11:23:03Z</time>
      </trkpt>
      <trkpt lat="43.286337" lon="-8.429317">
        <ele>247.0</ele>
        <time>2011-06-25T11:23:04Z</time>
      </trkpt>
      <trkpt lat="43.286338" lon="-8.429315">
        <ele>247.0</ele>
        <time>2011-06-25T11:23:05Z</time>
      </trkpt>
      <trkpt lat="43.286338" lon="-8.429323">
        <ele>246.5</ele>
        <time>2011-06-25T11:23:06Z</time>
      </trkpt>
      <trkpt lat="43.286337" lon="-8.429320">
        <ele>246.5</ele>
        <time>2011-06-25T11:23:07Z</time>
      </trkpt>
      <trkpt lat="43.286337" lon="-8.429318">
        <ele>247.0</ele>
        <time>2011-06-25T11:23:08Z</time>
      </trkpt>
      <trkpt lat="43.286338" lon="-8.429315">
        <ele>247.0</ele>
        <time>2011-06-25T11:23:09Z</time>
      </trkpt>
      <trkpt lat="43.286338" lon="-8.429318">
        <ele>247.0</ele>
        <time>2011-06-25T11:23:10Z</time>
      </trkpt>
      <trkpt lat="43.286338" lon="-8.429320">
        <ele>246.5</ele>
        <time>2011-06-25T11:23:11Z</time>
      </trkpt>
      <trkpt lat="43.286337" lon="-8.429318">
        <ele>246.5</ele>
        <time>2011-06-25T11:23:12Z</time>
      </trkpt>
      <trkpt lat="43.286335" lon="-8.429323">
        <ele>245.5</ele>
        <time>2011-06-25T11:23:13Z</time>
      </trkpt>
      <trkpt lat="43.286335" lon="-8.429323">
        <ele>245.5</ele>
        <time>2011-06-25T11:23:14Z</time>
      </trkpt>
      <trkpt lat="43.286335" lon="-8.429323">
        <ele>245.5</ele>
        <time>2011-06-25T11:23:15Z</time>
      </trkpt>
      <trkpt lat="43.286335" lon="-8.429323">
        <ele>245.5</ele>
        <time>2011-06-25T11:23:16Z</time>
      </trkpt>
      <trkpt lat="43.286335" lon="-8.429323">
        <ele>245.5</ele>
        <time>2011-06-25T11:23:17Z</time>
      </trkpt>
      <trkpt lat="43.286335" lon="-8.429323">
        <ele>245.5</ele>
        <time>2011-06-25T11:23:18Z</time>
      </trkpt>
      <trkpt lat="43.286332" lon="-8.429325">
        <ele>245.5</ele>
        <time>2011-06-25T11:23:19Z</time>
      </trkpt>
      <trkpt lat="43.286325" lon="-8.429338">
        <ele>245.5</ele>
        <time>2011-06-25T11:23:20Z</time>
      </trkpt>
      <trkpt lat="43.286315" lon="-8.429355">
        <ele>245.0</ele>
        <time>2011-06-25T11:23:21Z</time>
      </trkpt>
      <trkpt lat="43.286297" lon="-8.429375">
        <ele>244.5</ele>
        <time>2011-06-25T11:23:22Z</time>
      </trkpt>
      <trkpt lat="43.286280" lon="-8.429398">
        <ele>244.0</ele>
        <time>2011-06-25T11:23:23Z</time>
      </trkpt>
      <trkpt lat="43.286267" lon="-8.429417">
        <ele>243.5</ele>
        <time>2011-06-25T11:23:24Z</time>
      </trkpt>
      <trkpt lat="43.286215" lon="-8.429482">
        <ele>242.5</ele>
        <time>2011-06-25T11:23:26Z</time>
      </trkpt>
      <trkpt lat="43.286202" lon="-8.429513">
        <ele>241.5</ele>
        <time>2011-06-25T11:23:27Z</time>
      </trkpt>
      <trkpt lat="43.286185" lon="-8.429540">
        <ele>241.5</ele>
        <time>2011-06-25T11:23:28Z</time>
      </trkpt>
      <trkpt lat="43.286175" lon="-8.429570">
        <ele>241.0</ele>
        <time>2011-06-25T11:23:29Z</time>
      </trkpt>
      <trkpt lat="43.286163" lon="-8.429602">
        <ele>240.5</ele>
        <time>2011-06-25T11:23:30Z</time>
      </trkpt>
      <trkpt lat="43.286163" lon="-8.429633">
        <ele>241.0</ele>
        <time>2011-06-25T11:23:31Z</time>
      </trkpt>
      <trkpt lat="43.286160" lon="-8.429665">
        <ele>239.5</ele>
        <time>2011-06-25T11:23:32Z</time>
      </trkpt>
      <trkpt lat="43.286160" lon="-8.429693">
        <ele>239.5</ele>
        <time>2011-06-25T11:23:33Z</time>
      </trkpt>
      <trkpt lat="43.286162" lon="-8.429722">
        <ele>238.5</ele>
        <time>2011-06-25T11:23:34Z</time>
      </trkpt>
      <trkpt lat="43.286163" lon="-8.429738">
        <ele>238.5</ele>
        <time>2011-06-25T11:23:35Z</time>
      </trkpt>
      <trkpt lat="43.286167" lon="-8.429755">
        <ele>238.0</ele>
        <time>2011-06-25T11:23:36Z</time>
      </trkpt>
      <trkpt lat="43.286177" lon="-8.429775">
        <ele>238.0</ele>
        <time>2011-06-25T11:23:37Z</time>
      </trkpt>
      <trkpt lat="43.286190" lon="-8.429800">
        <ele>239.5</ele>
        <time>2011-06-25T11:23:38Z</time>
      </trkpt>
      <trkpt lat="43.286202" lon="-8.429810">
        <ele>240.5</ele>
        <time>2011-06-25T11:23:39Z</time>
      </trkpt>
      <trkpt lat="43.286207" lon="-8.429813">
        <ele>240.5</ele>
        <time>2011-06-25T11:23:40Z</time>
      </trkpt>
      <trkpt lat="43.286210" lon="-8.429817">
        <ele>240.5</ele>
        <time>2011-06-25T11:23:41Z</time>
      </trkpt>
      <trkpt lat="43.286215" lon="-8.429817">
        <ele>240.0</ele>
        <time>2011-06-25T11:23:42Z</time>
      </trkpt>
      <trkpt lat="43.286312" lon="-8.429848">
        <ele>238.5</ele>
        <time>2011-06-25T11:23:45Z</time>
      </trkpt>
      <trkpt lat="43.286312" lon="-8.429853">
        <ele>239.0</ele>
        <time>2011-06-25T11:23:46Z</time>
      </trkpt>
      <trkpt lat="43.286327" lon="-8.429858">
        <ele>238.0</ele>
        <time>2011-06-25T11:23:47Z</time>
      </trkpt>
      <trkpt lat="43.286330" lon="-8.429852">
        <ele>238.0</ele>
        <time>2011-06-25T11:23:48Z</time>
      </trkpt>
      <trkpt lat="43.286322" lon="-8.429842">
        <ele>238.0</ele>
        <time>2011-06-25T11:23:49Z</time>
      </trkpt>
      <trkpt lat="43.286317" lon="-8.429848">
        <ele>236.5</ele>
        <time>2011-06-25T11:23:50Z</time>
      </trkpt>
      <trkpt lat="43.286313" lon="-8.429847">
        <ele>237.5</ele>
        <time>2011-06-25T11:23:51Z</time>
      </trkpt>
      <trkpt lat="43.286312" lon="-8.429847">
        <ele>236.5</ele>
        <time>2011-06-25T11:23:52Z</time>
      </trkpt>
      <trkpt lat="43.286312" lon="-8.429847">
        <ele>236.5</ele>
        <time>2011-06-25T11:23:53Z</time>
      </trkpt>
      <trkpt lat="43.286312" lon="-8.429852">
        <ele>235.5</ele>
        <time>2011-06-25T11:23:54Z</time>
      </trkpt>
      <trkpt lat="43.286312" lon="-8.429860">
        <ele>234.5</ele>
        <time>2011-06-25T11:23:55Z</time>
      </trkpt>
      <trkpt lat="43.286310" lon="-8.429872">
        <ele>233.5</ele>
        <time>2011-06-25T11:23:56Z</time>
      </trkpt>
      <trkpt lat="43.286308" lon="-8.429883">
        <ele>233.0</ele>
        <time>2011-06-25T11:23:57Z</time>
      </trkpt>
      <trkpt lat="43.286310" lon="-8.429887">
        <ele>232.5</ele>
        <time>2011-06-25T11:23:58Z</time>
      </trkpt>
      <trkpt lat="43.286307" lon="-8.429893">
        <ele>232.5</ele>
        <time>2011-06-25T11:23:59Z</time>
      </trkpt>
      <trkpt lat="43.286317" lon="-8.429895">
        <ele>232.0</ele>
        <time>2011-06-25T11:24:00Z</time>
      </trkpt>
      <trkpt lat="43.286330" lon="-8.429900">
        <ele>230.5</ele>
        <time>2011-06-25T11:24:01Z</time>
      </trkpt>
      <trkpt lat="43.286322" lon="-8.429900">
        <ele>231.5</ele>
        <time>2011-06-25T11:24:02Z</time>
      </trkpt>
      <trkpt lat="43.286313" lon="-8.429902">
        <ele>230.5</ele>
        <time>2011-06-25T11:24:03Z</time>
      </trkpt>
      <trkpt lat="43.286308" lon="-8.429908">
        <ele>230.0</ele>
        <time>2011-06-25T11:24:04Z</time>
      </trkpt>
      <trkpt lat="43.286303" lon="-8.429912">
        <ele>229.5</ele>
        <time>2011-06-25T11:24:05Z</time>
      </trkpt>
      <trkpt lat="43.286302" lon="-8.429913">
        <ele>229.5</ele>
        <time>2011-06-25T11:24:06Z</time>
      </trkpt>
      <trkpt lat="43.286303" lon="-8.429913">
        <ele>229.5</ele>
        <time>2011-06-25T11:24:07Z</time>
      </trkpt>
      <trkpt lat="43.286298" lon="-8.429920">
        <ele>228.5</ele>
        <time>2011-06-25T11:24:08Z</time>
      </trkpt>
      <trkpt lat="43.286298" lon="-8.429922">
        <ele>228.5</ele>
        <time>2011-06-25T11:24:09Z</time>
      </trkpt>
      <trkpt lat="43.286297" lon="-8.429927">
        <ele>228.5</ele>
        <time>2011-06-25T11:24:10Z</time>
      </trkpt>
      <trkpt lat="43.286298" lon="-8.429933">
        <ele>229.0</ele>
        <time>2011-06-25T11:24:11Z</time>
      </trkpt>
      <trkpt lat="43.286293" lon="-8.429935">
        <ele>229.5</ele>
        <time>2011-06-25T11:24:12Z</time>
      </trkpt>
      <trkpt lat="43.286290" lon="-8.429937">
        <ele>229.5</ele>
        <time>2011-06-25T11:24:13Z</time>
      </trkpt>
      <trkpt lat="43.286288" lon="-8.429937">
        <ele>229.5</ele>
        <time>2011-06-25T11:24:14Z</time>
      </trkpt>
      <trkpt lat="43.286288" lon="-8.429935">
        <ele>229.5</ele>
        <time>2011-06-25T11:24:15Z</time>
      </trkpt>
      <trkpt lat="43.286288" lon="-8.429937">
        <ele>229.0</ele>
        <time>2011-06-25T11:24:16Z</time>
      </trkpt>
      <trkpt lat="43.286288" lon="-8.429937">
        <ele>228.5</ele>
        <time>2011-06-25T11:24:17Z</time>
      </trkpt>
      <trkpt lat="43.286287" lon="-8.429935">
        <ele>228.0</ele>
        <time>2011-06-25T11:24:18Z</time>
      </trkpt>
      <trkpt lat="43.286285" lon="-8.429933">
        <ele>227.5</ele>
        <time>2011-06-25T11:24:19Z</time>
      </trkpt>
      <trkpt lat="43.286287" lon="-8.429930">
        <ele>227.0</ele>
        <time>2011-06-25T11:24:20Z</time>
      </trkpt>
      <trkpt lat="43.286287" lon="-8.429928">
        <ele>226.5</ele>
        <time>2011-06-25T11:24:21Z</time>
      </trkpt>
      <trkpt lat="43.286283" lon="-8.429925">
        <ele>226.5</ele>
        <time>2011-06-25T11:24:22Z</time>
      </trkpt>
      <trkpt lat="43.286288" lon="-8.429925">
        <ele>227.5</ele>
        <time>2011-06-25T11:24:23Z</time>
      </trkpt>
      <trkpt lat="43.286290" lon="-8.429918">
        <ele>228.5</ele>
        <time>2011-06-25T11:24:24Z</time>
      </trkpt>
      <trkpt lat="43.286288" lon="-8.429913">
        <ele>228.5</ele>
        <time>2011-06-25T11:24:25Z</time>
      </trkpt>
      <trkpt lat="43.286285" lon="-8.429910">
        <ele>228.5</ele>
        <time>2011-06-25T11:24:26Z</time>
      </trkpt>
      <trkpt lat="43.286283" lon="-8.429907">
        <ele>228.0</ele>
        <time>2011-06-25T11:24:27Z</time>
      </trkpt>
      <trkpt lat="43.286280" lon="-8.429905">
        <ele>227.5</ele>
        <time>2011-06-25T11:24:28Z</time>
      </trkpt>
      <trkpt lat="43.286278" lon="-8.429905">
        <ele>227.5</ele>
        <time>2011-06-25T11:24:29Z</time>
      </trkpt>
      <trkpt lat="43.286277" lon="-8.429905">
        <ele>227.0</ele>
        <time>2011-06-25T11:24:30Z</time>
      </trkpt>
      <trkpt lat="43.286277" lon="-8.429905">
        <ele>227.0</ele>
        <time>2011-06-25T11:24:31Z</time>
      </trkpt>
      <trkpt lat="43.286273" lon="-8.429907">
        <ele>227.0</ele>
        <time>2011-06-25T11:24:32Z</time>
      </trkpt>
      <trkpt lat="43.286273" lon="-8.429907">
        <ele>227.0</ele>
        <time>2011-06-25T11:24:33Z</time>
      </trkpt>
      <trkpt lat="43.286270" lon="-8.429907">
        <ele>227.0</ele>
        <time>2011-06-25T11:24:34Z</time>
      </trkpt>
      <trkpt lat="43.286268" lon="-8.429907">
        <ele>227.0</ele>
        <time>2011-06-25T11:24:35Z</time>
      </trkpt>
      <trkpt lat="43.286267" lon="-8.429907">
        <ele>227.0</ele>
        <time>2011-06-25T11:24:36Z</time>
      </trkpt>
      <trkpt lat="43.286263" lon="-8.429908">
        <ele>226.5</ele>
        <time>2011-06-25T11:24:37Z</time>
      </trkpt>
      <trkpt lat="43.286262" lon="-8.429908">
        <ele>226.5</ele>
        <time>2011-06-25T11:24:38Z</time>
      </trkpt>
      <trkpt lat="43.286260" lon="-8.429908">
        <ele>226.5</ele>
        <time>2011-06-25T11:24:39Z</time>
      </trkpt>
      <trkpt lat="43.286258" lon="-8.429908">
        <ele>226.5</ele>
        <time>2011-06-25T11:24:40Z</time>
      </trkpt>
      <trkpt lat="43.286258" lon="-8.429908">
        <ele>226.0</ele>
        <time>2011-06-25T11:24:41Z</time>
      </trkpt>
      <trkpt lat="43.286258" lon="-8.429908">
        <ele>226.0</ele>
        <time>2011-06-25T11:24:42Z</time>
      </trkpt>
      <trkpt lat="43.286258" lon="-8.429908">
        <ele>226.0</ele>
        <time>2011-06-25T11:24:43Z</time>
      </trkpt>
      <trkpt lat="43.286257" lon="-8.429907">
        <ele>226.0</ele>
        <time>2011-06-25T11:24:44Z</time>
      </trkpt>
      <trkpt lat="43.286257" lon="-8.429907">
        <ele>226.0</ele>
        <time>2011-06-25T11:24:45Z</time>
      </trkpt>
      <trkpt lat="43.286257" lon="-8.429908">
        <ele>226.0</ele>
        <time>2011-06-25T11:24:46Z</time>
      </trkpt>
      <trkpt lat="43.286257" lon="-8.429907">
        <ele>226.0</ele>
        <time>2011-06-25T11:24:47Z</time>
      </trkpt>
      <trkpt lat="43.286257" lon="-8.429907">
        <ele>225.5</ele>
        <time>2011-06-25T11:24:48Z</time>
      </trkpt>
      <trkpt lat="43.286257" lon="-8.429907">
        <ele>225.5</ele>
        <time>2011-06-25T11:24:49Z</time>
      </trkpt>
      <trkpt lat="43.286257" lon="-8.429907">
        <ele>225.5</ele>
        <time>2011-06-25T11:24:50Z</time>
      </trkpt>
      <trkpt lat="43.286257" lon="-8.429907">
        <ele>225.5</ele>
        <time>2011-06-25T11:24:51Z</time>
      </trkpt>
      <trkpt lat="43.286255" lon="-8.429907">
        <ele>225.5</ele>
        <time>2011-06-25T11:24:52Z</time>
      </trkpt>
      <trkpt lat="43.286255" lon="-8.429907">
        <ele>225.5</ele>
        <time>2011-06-25T11:24:53Z</time>
      </trkpt>
      <trkpt lat="43.286255" lon="-8.429907">
        <ele>225.5</ele>
        <time>2011-06-25T11:24:54Z</time>
      </trkpt>
      <trkpt lat="43.286255" lon="-8.429907">
        <ele>225.0</ele>
        <time>2011-06-25T11:24:55Z</time>
      </trkpt>
      <trkpt lat="43.286255" lon="-8.429907">
        <ele>225.0</ele>
        <time>2011-06-25T11:24:56Z</time>
      </trkpt>
      <trkpt lat="43.286255" lon="-8.429907">
        <ele>225.0</ele>
        <time>2011-06-25T11:24:57Z</time>
      </trkpt>
      <trkpt lat="43.286255" lon="-8.429907">
        <ele>225.0</ele>
        <time>2011-06-25T11:24:58Z</time>
      </trkpt>
      <trkpt lat="43.286255" lon="-8.429907">
        <ele>225.0</ele>
        <time>2011-06-25T11:24:59Z</time>
      </trkpt>
      <trkpt lat="43.286255" lon="-8.429905">
        <ele>225.0</ele>
        <time>2011-06-25T11:25:00Z</time>
      </trkpt>
      <trkpt lat="43.286253" lon="-8.429905">
        <ele>225.0</ele>
        <time>2011-06-25T11:25:01Z</time>
      </trkpt>
      <trkpt lat="43.286253" lon="-8.429905">
        <ele>224.5</ele>
        <time>2011-06-25T11:25:02Z</time>
      </trkpt>
      <trkpt lat="43.286253" lon="-8.429905">
        <ele>224.5</ele>
        <time>2011-06-25T11:25:03Z</time>
      </trkpt>
      <trkpt lat="43.286253" lon="-8.429905">
        <ele>224.5</ele>
        <time>2011-06-25T11:25:04Z</time>
      </trkpt>
      <trkpt lat="43.286245" lon="-8.429912">
        <ele>225.0</ele>
        <time>2011-06-25T11:25:05Z</time>
      </trkpt>
      <trkpt lat="43.286242" lon="-8.429912">
        <ele>224.5</ele>
        <time>2011-06-25T11:25:06Z</time>
      </trkpt>
      <trkpt lat="43.286238" lon="-8.429912">
        <ele>224.0</ele>
        <time>2011-06-25T11:25:07Z</time>
      </trkpt>
      <trkpt lat="43.286237" lon="-8.429910">
        <ele>224.0</ele>
        <time>2011-06-25T11:25:08Z</time>
      </trkpt>
      <trkpt lat="43.286235" lon="-8.429908">
        <ele>223.5</ele>
        <time>2011-06-25T11:25:09Z</time>
      </trkpt>
      <trkpt lat="43.286235" lon="-8.429907">
        <ele>223.5</ele>
        <time>2011-06-25T11:25:10Z</time>
      </trkpt>
      <trkpt lat="43.286235" lon="-8.429907">
        <ele>223.5</ele>
        <time>2011-06-25T11:25:11Z</time>
      </trkpt>
      <trkpt lat="43.286233" lon="-8.429907">
        <ele>223.5</ele>
        <time>2011-06-25T11:25:12Z</time>
      </trkpt>
      <trkpt lat="43.286233" lon="-8.429907">
        <ele>223.5</ele>
        <time>2011-06-25T11:25:13Z</time>
      </trkpt>
      <trkpt lat="43.286233" lon="-8.429907">
        <ele>223.5</ele>
        <time>2011-06-25T11:25:14Z</time>
      </trkpt>
      <trkpt lat="43.286232" lon="-8.429907">
        <ele>223.5</ele>
        <time>2011-06-25T11:25:15Z</time>
      </trkpt>
      <trkpt lat="43.286232" lon="-8.429907">
        <ele>223.0</ele>
        <time>2011-06-25T11:25:16Z</time>
      </trkpt>
      <trkpt lat="43.286230" lon="-8.429908">
        <ele>223.0</ele>
        <time>2011-06-25T11:25:17Z</time>
      </trkpt>
      <trkpt lat="43.286228" lon="-8.429908">
        <ele>223.0</ele>
        <time>2011-06-25T11:25:18Z</time>
      </trkpt>
      <trkpt lat="43.286228" lon="-8.429910">
        <ele>223.0</ele>
        <time>2011-06-25T11:25:19Z</time>
      </trkpt>
      <trkpt lat="43.286228" lon="-8.429910">
        <ele>223.0</ele>
        <time>2011-06-25T11:25:20Z</time>
      </trkpt>
      <trkpt lat="43.286228" lon="-8.429910">
        <ele>223.0</ele>
        <time>2011-06-25T11:25:21Z</time>
      </trkpt>
      <trkpt lat="43.286227" lon="-8.429910">
        <ele>222.5</ele>
        <time>2011-06-25T11:25:22Z</time>
      </trkpt>
      <trkpt lat="43.286227" lon="-8.429910">
        <ele>222.5</ele>
        <time>2011-06-25T11:25:23Z</time>
      </trkpt>
      <trkpt lat="43.286227" lon="-8.429910">
        <ele>222.5</ele>
        <time>2011-06-25T11:25:24Z</time>
      </trkpt>
      <trkpt lat="43.286227" lon="-8.429910">
        <ele>222.5</ele>
        <time>2011-06-25T11:25:25Z</time>
      </trkpt>
      <trkpt lat="43.286227" lon="-8.429910">
        <ele>222.5</ele>
        <time>2011-06-25T11:25:26Z</time>
      </trkpt>
      <trkpt lat="43.286227" lon="-8.429910">
        <ele>222.5</ele>
        <time>2011-06-25T11:25:27Z</time>
      </trkpt>
    </trkseg>
  </trk>
  <trk>
    <name>T2067676-16</name>
    <cmt>saida con compañeiros do C.C.Arteixo polos arredores da Coruña</cmt>
    <desc>saida con compañeiros do C.C.Arteixo polos arredores da Coruña</desc>
    <trkseg>
      <trkpt lat="43.286227" lon="-8.429910">
        <ele>222.5</ele>
        <time>2011-06-25T11:25:28Z</time>
      </trkpt>
      <trkpt lat="43.286227" lon="-8.429910">
        <ele>222.5</ele>
        <time>2011-06-25T11:25:29Z</time>
      </trkpt>
      <trkpt lat="43.286227" lon="-8.429910">
        <ele>222.5</ele>
        <time>2011-06-25T11:25:30Z</time>
      </trkpt>
      <trkpt lat="43.286227" lon="-8.429910">
        <ele>222.0</ele>
        <time>2011-06-25T11:25:31Z</time>
      </trkpt>
      <trkpt lat="43.286227" lon="-8.429910">
        <ele>222.0</ele>
        <time>2011-06-25T11:25:32Z</time>
      </trkpt>
      <trkpt lat="43.286227" lon="-8.429910">
        <ele>222.0</ele>
        <time>2011-06-25T11:25:33Z</time>
      </trkpt>
      <trkpt lat="43.286227" lon="-8.429910">
        <ele>222.0</ele>
        <time>2011-06-25T11:25:34Z</time>
      </trkpt>
      <trkpt lat="43.286227" lon="-8.429910">
        <ele>222.0</ele>
        <time>2011-06-25T11:25:35Z</time>
      </trkpt>
      <trkpt lat="43.286227" lon="-8.429912">
        <ele>222.0</ele>
        <time>2011-06-25T11:25:36Z</time>
      </trkpt>
      <trkpt lat="43.286227" lon="-8.429912">
        <ele>222.0</ele>
        <time>2011-06-25T11:25:37Z</time>
      </trkpt>
      <trkpt lat="43.286218" lon="-8.429913">
        <ele>221.5</ele>
        <time>2011-06-25T11:25:38Z</time>
      </trkpt>
      <trkpt lat="43.286218" lon="-8.429913">
        <ele>221.0</ele>
        <time>2011-06-25T11:25:39Z</time>
      </trkpt>
      <trkpt lat="43.286217" lon="-8.429915">
        <ele>221.0</ele>
        <time>2011-06-25T11:25:40Z</time>
      </trkpt>
      <trkpt lat="43.286217" lon="-8.429918">
        <ele>221.0</ele>
        <time>2011-06-25T11:25:41Z</time>
      </trkpt>
      <trkpt lat="43.286215" lon="-8.429920">
        <ele>221.0</ele>
        <time>2011-06-25T11:25:42Z</time>
      </trkpt>
      <trkpt lat="43.286213" lon="-8.429923">
        <ele>220.5</ele>
        <time>2011-06-25T11:25:43Z</time>
      </trkpt>
      <trkpt lat="43.286215" lon="-8.429925">
        <ele>220.5</ele>
        <time>2011-06-25T11:25:44Z</time>
      </trkpt>
      <trkpt lat="43.286215" lon="-8.429925">
        <ele>220.5</ele>
        <time>2011-06-25T11:25:45Z</time>
      </trkpt>
      <trkpt lat="43.286217" lon="-8.429925">
        <ele>220.0</ele>
        <time>2011-06-25T11:25:46Z</time>
      </trkpt>
      <trkpt lat="43.286217" lon="-8.429925">
        <ele>220.0</ele>
        <time>2011-06-25T11:25:47Z</time>
      </trkpt>
      <trkpt lat="43.286217" lon="-8.429925">
        <ele>220.0</ele>
        <time>2011-06-25T11:25:48Z</time>
      </trkpt>
      <trkpt lat="43.286217" lon="-8.429925">
        <ele>220.0</ele>
        <time>2011-06-25T11:25:49Z</time>
      </trkpt>
      <trkpt lat="43.286218" lon="-8.429925">
        <ele>220.5</ele>
        <time>2011-06-25T11:25:50Z</time>
      </trkpt>
      <trkpt lat="43.286220" lon="-8.429928">
        <ele>221.0</ele>
        <time>2011-06-25T11:25:51Z</time>
      </trkpt>
      <trkpt lat="43.286227" lon="-8.429930">
        <ele>221.5</ele>
        <time>2011-06-25T11:25:52Z</time>
      </trkpt>
      <trkpt lat="43.286237" lon="-8.429935">
        <ele>222.0</ele>
        <time>2011-06-25T11:25:53Z</time>
      </trkpt>
      <trkpt lat="43.286250" lon="-8.429935">
        <ele>222.5</ele>
        <time>2011-06-25T11:25:54Z</time>
      </trkpt>
      <trkpt lat="43.286263" lon="-8.429932">
        <ele>223.5</ele>
        <time>2011-06-25T11:25:55Z</time>
      </trkpt>
      <trkpt lat="43.286277" lon="-8.429940">
        <ele>224.0</ele>
        <time>2011-06-25T11:25:56Z</time>
      </trkpt>
      <trkpt lat="43.286295" lon="-8.429947">
        <ele>224.0</ele>
        <time>2011-06-25T11:25:57Z</time>
      </trkpt>
      <trkpt lat="43.286313" lon="-8.429952">
        <ele>224.5</ele>
        <time>2011-06-25T11:25:58Z</time>
      </trkpt>
      <trkpt lat="43.286332" lon="-8.429957">
        <ele>224.0</ele>
        <time>2011-06-25T11:25:59Z</time>
      </trkpt>
      <trkpt lat="43.286360" lon="-8.429960">
        <ele>224.0</ele>
        <time>2011-06-25T11:26:00Z</time>
      </trkpt>
      <trkpt lat="43.286388" lon="-8.429962">
        <ele>223.5</ele>
        <time>2011-06-25T11:26:01Z</time>
      </trkpt>
      <trkpt lat="43.286418" lon="-8.429953">
        <ele>225.0</ele>
        <time>2011-06-25T11:26:02Z</time>
      </trkpt>
      <trkpt lat="43.286452" lon="-8.429967">
        <ele>224.0</ele>
        <time>2011-06-25T11:26:03Z</time>
      </trkpt>
      <trkpt lat="43.286480" lon="-8.429968">
        <ele>224.5</ele>
        <time>2011-06-25T11:26:04Z</time>
      </trkpt>
      <trkpt lat="43.286500" lon="-8.429968">
        <ele>224.5</ele>
        <time>2011-06-25T11:26:05Z</time>
      </trkpt>
      <trkpt lat="43.286518" lon="-8.429967">
        <ele>225.0</ele>
        <time>2011-06-25T11:26:06Z</time>
      </trkpt>
      <trkpt lat="43.286535" lon="-8.429963">
        <ele>226.0</ele>
        <time>2011-06-25T11:26:07Z</time>
      </trkpt>
      <trkpt lat="43.286588" lon="-8.429955">
        <ele>227.5</ele>
        <time>2011-06-25T11:26:09Z</time>
      </trkpt>
      <trkpt lat="43.286597" lon="-8.429950">
        <ele>228.5</ele>
        <time>2011-06-25T11:26:10Z</time>
      </trkpt>
      <trkpt lat="43.286610" lon="-8.429947">
        <ele>229.5</ele>
        <time>2011-06-25T11:26:11Z</time>
      </trkpt>
      <trkpt lat="43.286623" lon="-8.429947">
        <ele>230.5</ele>
        <time>2011-06-25T11:26:12Z</time>
      </trkpt>
      <trkpt lat="43.286640" lon="-8.429948">
        <ele>231.0</ele>
        <time>2011-06-25T11:26:13Z</time>
      </trkpt>
      <trkpt lat="43.286650" lon="-8.429948">
        <ele>231.5</ele>
        <time>2011-06-25T11:26:14Z</time>
      </trkpt>
      <trkpt lat="43.286657" lon="-8.429950">
        <ele>231.0</ele>
        <time>2011-06-25T11:26:15Z</time>
      </trkpt>
      <trkpt lat="43.286673" lon="-8.429952">
        <ele>232.0</ele>
        <time>2011-06-25T11:26:16Z</time>
      </trkpt>
      <trkpt lat="43.286690" lon="-8.429960">
        <ele>232.0</ele>
        <time>2011-06-25T11:26:17Z</time>
      </trkpt>
      <trkpt lat="43.286708" lon="-8.429965">
        <ele>233.0</ele>
        <time>2011-06-25T11:26:18Z</time>
      </trkpt>
      <trkpt lat="43.286708" lon="-8.429965">
        <ele>233.0</ele>
        <time>2011-06-25T11:26:19Z</time>
      </trkpt>
      <trkpt lat="43.286762" lon="-8.429977">
        <ele>233.0</ele>
        <time>2011-06-25T11:26:21Z</time>
      </trkpt>
      <trkpt lat="43.286765" lon="-8.429970">
        <ele>233.5</ele>
        <time>2011-06-25T11:26:22Z</time>
      </trkpt>
      <trkpt lat="43.286775" lon="-8.429972">
        <ele>234.5</ele>
        <time>2011-06-25T11:26:23Z</time>
      </trkpt>
      <trkpt lat="43.286783" lon="-8.429978">
        <ele>234.0</ele>
        <time>2011-06-25T11:26:24Z</time>
      </trkpt>
      <trkpt lat="43.286795" lon="-8.429980">
        <ele>235.5</ele>
        <time>2011-06-25T11:26:25Z</time>
      </trkpt>
      <trkpt lat="43.286813" lon="-8.429978">
        <ele>236.5</ele>
        <time>2011-06-25T11:26:26Z</time>
      </trkpt>
      <trkpt lat="43.286828" lon="-8.429982">
        <ele>238.0</ele>
        <time>2011-06-25T11:26:27Z</time>
      </trkpt>
      <trkpt lat="43.286842" lon="-8.429980">
        <ele>240.0</ele>
        <time>2011-06-25T11:26:28Z</time>
      </trkpt>
      <trkpt lat="43.286857" lon="-8.429990">
        <ele>241.0</ele>
        <time>2011-06-25T11:26:29Z</time>
      </trkpt>
      <trkpt lat="43.286868" lon="-8.429987">
        <ele>243.0</ele>
        <time>2011-06-25T11:26:30Z</time>
      </trkpt>
      <trkpt lat="43.286885" lon="-8.429988">
        <ele>243.5</ele>
        <time>2011-06-25T11:26:31Z</time>
      </trkpt>
      <trkpt lat="43.286903" lon="-8.429995">
        <ele>243.0</ele>
        <time>2011-06-25T11:26:32Z</time>
      </trkpt>
      <trkpt lat="43.286915" lon="-8.430003">
        <ele>243.5</ele>
        <time>2011-06-25T11:26:33Z</time>
      </trkpt>
      <trkpt lat="43.286925" lon="-8.430007">
        <ele>245.0</ele>
        <time>2011-06-25T11:26:34Z</time>
      </trkpt>
      <trkpt lat="43.286930" lon="-8.430008">
        <ele>245.0</ele>
        <time>2011-06-25T11:26:35Z</time>
      </trkpt>
      <trkpt lat="43.286935" lon="-8.430022">
        <ele>245.5</ele>
        <time>2011-06-25T11:26:36Z</time>
      </trkpt>
      <trkpt lat="43.286943" lon="-8.430027">
        <ele>246.5</ele>
        <time>2011-06-25T11:26:37Z</time>
      </trkpt>
      <trkpt lat="43.286955" lon="-8.430025">
        <ele>247.5</ele>
        <time>2011-06-25T11:26:38Z</time>
      </trkpt>
      <trkpt lat="43.286965" lon="-8.430023">
        <ele>249.0</ele>
        <time>2011-06-25T11:26:39Z</time>
      </trkpt>
      <trkpt lat="43.286975" lon="-8.430022">
        <ele>250.0</ele>
        <time>2011-06-25T11:26:40Z</time>
      </trkpt>
      <trkpt lat="43.286992" lon="-8.430018">
        <ele>250.0</ele>
        <time>2011-06-25T11:26:41Z</time>
      </trkpt>
      <trkpt lat="43.286998" lon="-8.430020">
        <ele>251.5</ele>
        <time>2011-06-25T11:26:42Z</time>
      </trkpt>
      <trkpt lat="43.287005" lon="-8.430032">
        <ele>251.0</ele>
        <time>2011-06-25T11:26:43Z</time>
      </trkpt>
      <trkpt lat="43.287018" lon="-8.430025">
        <ele>252.5</ele>
        <time>2011-06-25T11:26:44Z</time>
      </trkpt>
      <trkpt lat="43.287028" lon="-8.430040">
        <ele>251.5</ele>
        <time>2011-06-25T11:26:45Z</time>
      </trkpt>
      <trkpt lat="43.287040" lon="-8.430062">
        <ele>251.0</ele>
        <time>2011-06-25T11:26:46Z</time>
      </trkpt>
      <trkpt lat="43.287058" lon="-8.430058">
        <ele>250.5</ele>
        <time>2011-06-25T11:26:47Z</time>
      </trkpt>
      <trkpt lat="43.287083" lon="-8.430062">
        <ele>251.0</ele>
        <time>2011-06-25T11:26:48Z</time>
      </trkpt>
      <trkpt lat="43.287110" lon="-8.430067">
        <ele>250.5</ele>
        <time>2011-06-25T11:26:49Z</time>
      </trkpt>
      <trkpt lat="43.287138" lon="-8.430073">
        <ele>250.5</ele>
        <time>2011-06-25T11:26:50Z</time>
      </trkpt>
      <trkpt lat="43.287175" lon="-8.430080">
        <ele>249.0</ele>
        <time>2011-06-25T11:26:52Z</time>
      </trkpt>
      <trkpt lat="43.287188" lon="-8.430077">
        <ele>249.0</ele>
        <time>2011-06-25T11:26:53Z</time>
      </trkpt>
      <trkpt lat="43.287200" lon="-8.430090">
        <ele>248.0</ele>
        <time>2011-06-25T11:26:54Z</time>
      </trkpt>
      <trkpt lat="43.287218" lon="-8.430108">
        <ele>246.0</ele>
        <time>2011-06-25T11:26:55Z</time>
      </trkpt>
      <trkpt lat="43.287243" lon="-8.430115">
        <ele>245.5</ele>
        <time>2011-06-25T11:26:56Z</time>
      </trkpt>
      <trkpt lat="43.287268" lon="-8.430122">
        <ele>245.0</ele>
        <time>2011-06-25T11:26:57Z</time>
      </trkpt>
      <trkpt lat="43.287295" lon="-8.430130">
        <ele>244.5</ele>
        <time>2011-06-25T11:26:58Z</time>
      </trkpt>
      <trkpt lat="43.287305" lon="-8.430130">
        <ele>243.5</ele>
        <time>2011-06-25T11:26:59Z</time>
      </trkpt>
      <trkpt lat="43.287318" lon="-8.430137">
        <ele>243.5</ele>
        <time>2011-06-25T11:27:00Z</time>
      </trkpt>
      <trkpt lat="43.287303" lon="-8.430142">
        <ele>245.0</ele>
        <time>2011-06-25T11:27:01Z</time>
      </trkpt>
      <trkpt lat="43.287310" lon="-8.430145">
        <ele>246.5</ele>
        <time>2011-06-25T11:27:02Z</time>
      </trkpt>
      <trkpt lat="43.287318" lon="-8.430152">
        <ele>247.5</ele>
        <time>2011-06-25T11:27:03Z</time>
      </trkpt>
      <trkpt lat="43.287328" lon="-8.430160">
        <ele>249.0</ele>
        <time>2011-06-25T11:27:04Z</time>
      </trkpt>
      <trkpt lat="43.287342" lon="-8.430172">
        <ele>249.0</ele>
        <time>2011-06-25T11:27:05Z</time>
      </trkpt>
      <trkpt lat="43.287353" lon="-8.430182">
        <ele>249.5</ele>
        <time>2011-06-25T11:27:06Z</time>
      </trkpt>
      <trkpt lat="43.287365" lon="-8.430188">
        <ele>250.0</ele>
        <time>2011-06-25T11:27:07Z</time>
      </trkpt>
      <trkpt lat="43.287380" lon="-8.430200">
        <ele>250.0</ele>
        <time>2011-06-25T11:27:08Z</time>
      </trkpt>
      <trkpt lat="43.287395" lon="-8.430212">
        <ele>251.0</ele>
        <time>2011-06-25T11:27:09Z</time>
      </trkpt>
      <trkpt lat="43.287413" lon="-8.430223">
        <ele>251.5</ele>
        <time>2011-06-25T11:27:10Z</time>
      </trkpt>
      <trkpt lat="43.287437" lon="-8.430233">
        <ele>252.0</ele>
        <time>2011-06-25T11:27:11Z</time>
      </trkpt>
      <trkpt lat="43.287462" lon="-8.430243">
        <ele>252.0</ele>
        <time>2011-06-25T11:27:12Z</time>
      </trkpt>
      <trkpt lat="43.287473" lon="-8.430253">
        <ele>253.5</ele>
        <time>2011-06-25T11:27:13Z</time>
      </trkpt>
      <trkpt lat="43.287485" lon="-8.430268">
        <ele>253.5</ele>
        <time>2011-06-25T11:27:14Z</time>
      </trkpt>
      <trkpt lat="43.287505" lon="-8.430282">
        <ele>253.5</ele>
        <time>2011-06-25T11:27:15Z</time>
      </trkpt>
      <trkpt lat="43.287525" lon="-8.430300">
        <ele>253.5</ele>
        <time>2011-06-25T11:27:16Z</time>
      </trkpt>
      <trkpt lat="43.287543" lon="-8.430313">
        <ele>253.0</ele>
        <time>2011-06-25T11:27:17Z</time>
      </trkpt>
      <trkpt lat="43.287555" lon="-8.430325">
        <ele>254.0</ele>
        <time>2011-06-25T11:27:18Z</time>
      </trkpt>
      <trkpt lat="43.287572" lon="-8.430337">
        <ele>254.5</ele>
        <time>2011-06-25T11:27:19Z</time>
      </trkpt>
      <trkpt lat="43.287588" lon="-8.430348">
        <ele>254.5</ele>
        <time>2011-06-25T11:27:20Z</time>
      </trkpt>
      <trkpt lat="43.287608" lon="-8.430358">
        <ele>254.5</ele>
        <time>2011-06-25T11:27:21Z</time>
      </trkpt>
      <trkpt lat="43.287622" lon="-8.430367">
        <ele>255.5</ele>
        <time>2011-06-25T11:27:22Z</time>
      </trkpt>
      <trkpt lat="43.287635" lon="-8.430383">
        <ele>255.5</ele>
        <time>2011-06-25T11:27:23Z</time>
      </trkpt>
      <trkpt lat="43.287648" lon="-8.430410">
        <ele>255.5</ele>
        <time>2011-06-25T11:27:24Z</time>
      </trkpt>
      <trkpt lat="43.287662" lon="-8.430428">
        <ele>256.0</ele>
        <time>2011-06-25T11:27:25Z</time>
      </trkpt>
      <trkpt lat="43.287677" lon="-8.430442">
        <ele>256.5</ele>
        <time>2011-06-25T11:27:26Z</time>
      </trkpt>
      <trkpt lat="43.287692" lon="-8.430453">
        <ele>256.5</ele>
        <time>2011-06-25T11:27:27Z</time>
      </trkpt>
      <trkpt lat="43.287700" lon="-8.430467">
        <ele>257.5</ele>
        <time>2011-06-25T11:27:28Z</time>
      </trkpt>
      <trkpt lat="43.287713" lon="-8.430455">
        <ele>257.0</ele>
        <time>2011-06-25T11:27:29Z</time>
      </trkpt>
      <trkpt lat="43.287722" lon="-8.430468">
        <ele>258.5</ele>
        <time>2011-06-25T11:27:30Z</time>
      </trkpt>
      <trkpt lat="43.287733" lon="-8.430488">
        <ele>258.5</ele>
        <time>2011-06-25T11:27:31Z</time>
      </trkpt>
      <trkpt lat="43.287745" lon="-8.430495">
        <ele>259.0</ele>
        <time>2011-06-25T11:27:32Z</time>
      </trkpt>
      <trkpt lat="43.287757" lon="-8.430502">
        <ele>259.5</ele>
        <time>2011-06-25T11:27:33Z</time>
      </trkpt>
      <trkpt lat="43.287770" lon="-8.430505">
        <ele>259.5</ele>
        <time>2011-06-25T11:27:34Z</time>
      </trkpt>
      <trkpt lat="43.287783" lon="-8.430515">
        <ele>259.0</ele>
        <time>2011-06-25T11:27:35Z</time>
      </trkpt>
      <trkpt lat="43.287798" lon="-8.430532">
        <ele>258.5</ele>
        <time>2011-06-25T11:27:36Z</time>
      </trkpt>
      <trkpt lat="43.287812" lon="-8.430543">
        <ele>258.5</ele>
        <time>2011-06-25T11:27:37Z</time>
      </trkpt>
      <trkpt lat="43.287827" lon="-8.430560">
        <ele>258.5</ele>
        <time>2011-06-25T11:27:38Z</time>
      </trkpt>
      <trkpt lat="43.287845" lon="-8.430572">
        <ele>258.0</ele>
        <time>2011-06-25T11:27:39Z</time>
      </trkpt>
      <trkpt lat="43.287860" lon="-8.430590">
        <ele>257.5</ele>
        <time>2011-06-25T11:27:40Z</time>
      </trkpt>
      <trkpt lat="43.287880" lon="-8.430605">
        <ele>255.5</ele>
        <time>2011-06-25T11:27:41Z</time>
      </trkpt>
      <trkpt lat="43.287890" lon="-8.430620">
        <ele>256.0</ele>
        <time>2011-06-25T11:27:42Z</time>
      </trkpt>
      <trkpt lat="43.287902" lon="-8.430637">
        <ele>257.0</ele>
        <time>2011-06-25T11:27:43Z</time>
      </trkpt>
      <trkpt lat="43.287913" lon="-8.430652">
        <ele>257.0</ele>
        <time>2011-06-25T11:27:44Z</time>
      </trkpt>
      <trkpt lat="43.287947" lon="-8.430702">
        <ele>256.0</ele>
        <time>2011-06-25T11:27:46Z</time>
      </trkpt>
      <trkpt lat="43.287967" lon="-8.430727">
        <ele>255.5</ele>
        <time>2011-06-25T11:27:47Z</time>
      </trkpt>
      <trkpt lat="43.287988" lon="-8.430740">
        <ele>255.5</ele>
        <time>2011-06-25T11:27:48Z</time>
      </trkpt>
      <trkpt lat="43.288007" lon="-8.430755">
        <ele>256.5</ele>
        <time>2011-06-25T11:27:49Z</time>
      </trkpt>
      <trkpt lat="43.288023" lon="-8.430772">
        <ele>256.5</ele>
        <time>2011-06-25T11:27:50Z</time>
      </trkpt>
      <trkpt lat="43.288037" lon="-8.430778">
        <ele>257.5</ele>
        <time>2011-06-25T11:27:51Z</time>
      </trkpt>
      <trkpt lat="43.288040" lon="-8.430793">
        <ele>258.0</ele>
        <time>2011-06-25T11:27:52Z</time>
      </trkpt>
      <trkpt lat="43.288042" lon="-8.430798">
        <ele>259.5</ele>
        <time>2011-06-25T11:27:53Z</time>
      </trkpt>
      <trkpt lat="43.288055" lon="-8.430810">
        <ele>260.0</ele>
        <time>2011-06-25T11:27:54Z</time>
      </trkpt>
      <trkpt lat="43.288062" lon="-8.430815">
        <ele>261.0</ele>
        <time>2011-06-25T11:27:55Z</time>
      </trkpt>
      <trkpt lat="43.288070" lon="-8.430817">
        <ele>261.0</ele>
        <time>2011-06-25T11:27:56Z</time>
      </trkpt>
      <trkpt lat="43.288080" lon="-8.430820">
        <ele>261.0</ele>
        <time>2011-06-25T11:27:57Z</time>
      </trkpt>
      <trkpt lat="43.288088" lon="-8.430843">
        <ele>260.0</ele>
        <time>2011-06-25T11:27:58Z</time>
      </trkpt>
      <trkpt lat="43.288100" lon="-8.430848">
        <ele>259.5</ele>
        <time>2011-06-25T11:27:59Z</time>
      </trkpt>
      <trkpt lat="43.288112" lon="-8.430853">
        <ele>259.5</ele>
        <time>2011-06-25T11:28:00Z</time>
      </trkpt>
      <trkpt lat="43.288118" lon="-8.430857">
        <ele>259.5</ele>
        <time>2011-06-25T11:28:01Z</time>
      </trkpt>
      <trkpt lat="43.288127" lon="-8.430863">
        <ele>259.0</ele>
        <time>2011-06-25T11:28:02Z</time>
      </trkpt>
      <trkpt lat="43.288140" lon="-8.430878">
        <ele>257.5</ele>
        <time>2011-06-25T11:28:03Z</time>
      </trkpt>
      <trkpt lat="43.288147" lon="-8.430892">
        <ele>256.5</ele>
        <time>2011-06-25T11:28:04Z</time>
      </trkpt>
      <trkpt lat="43.288155" lon="-8.430918">
        <ele>256.0</ele>
        <time>2011-06-25T11:28:05Z</time>
      </trkpt>
      <trkpt lat="43.288157" lon="-8.430930">
        <ele>256.0</ele>
        <time>2011-06-25T11:28:06Z</time>
      </trkpt>
      <trkpt lat="43.288157" lon="-8.430938">
        <ele>257.5</ele>
        <time>2011-06-25T11:28:07Z</time>
      </trkpt>
      <trkpt lat="43.288160" lon="-8.430947">
        <ele>259.0</ele>
        <time>2011-06-25T11:28:08Z</time>
      </trkpt>
      <trkpt lat="43.288160" lon="-8.430955">
        <ele>260.5</ele>
        <time>2011-06-25T11:28:09Z</time>
      </trkpt>
      <trkpt lat="43.288158" lon="-8.430965">
        <ele>261.5</ele>
        <time>2011-06-25T11:28:10Z</time>
      </trkpt>
      <trkpt lat="43.288163" lon="-8.430983">
        <ele>261.0</ele>
        <time>2011-06-25T11:28:11Z</time>
      </trkpt>
      <trkpt lat="43.288162" lon="-8.431005">
        <ele>260.5</ele>
        <time>2011-06-25T11:28:12Z</time>
      </trkpt>
      <trkpt lat="43.288170" lon="-8.431022">
        <ele>260.5</ele>
        <time>2011-06-25T11:28:13Z</time>
      </trkpt>
      <trkpt lat="43.288177" lon="-8.431042">
        <ele>260.5</ele>
        <time>2011-06-25T11:28:14Z</time>
      </trkpt>
      <trkpt lat="43.288182" lon="-8.431060">
        <ele>259.5</ele>
        <time>2011-06-25T11:28:15Z</time>
      </trkpt>
      <trkpt lat="43.288187" lon="-8.431068">
        <ele>258.5</ele>
        <time>2011-06-25T11:28:16Z</time>
      </trkpt>
      <trkpt lat="43.288185" lon="-8.431078">
        <ele>257.5</ele>
        <time>2011-06-25T11:28:17Z</time>
      </trkpt>
      <trkpt lat="43.288185" lon="-8.431078">
        <ele>257.5</ele>
        <time>2011-06-25T11:28:18Z</time>
      </trkpt>
      <trkpt lat="43.288192" lon="-8.431083">
        <ele>257.5</ele>
        <time>2011-06-25T11:28:19Z</time>
      </trkpt>
      <trkpt lat="43.288175" lon="-8.431075">
        <ele>256.0</ele>
        <time>2011-06-25T11:28:21Z</time>
      </trkpt>
      <trkpt lat="43.288175" lon="-8.431080">
        <ele>255.5</ele>
        <time>2011-06-25T11:28:22Z</time>
      </trkpt>
      <trkpt lat="43.288175" lon="-8.431085">
        <ele>254.5</ele>
        <time>2011-06-25T11:28:23Z</time>
      </trkpt>
      <trkpt lat="43.288182" lon="-8.431088">
        <ele>253.5</ele>
        <time>2011-06-25T11:28:24Z</time>
      </trkpt>
      <trkpt lat="43.288178" lon="-8.431093">
        <ele>252.0</ele>
        <time>2011-06-25T11:28:25Z</time>
      </trkpt>
      <trkpt lat="43.288178" lon="-8.431095">
        <ele>251.5</ele>
        <time>2011-06-25T11:28:26Z</time>
      </trkpt>
      <trkpt lat="43.288180" lon="-8.431098">
        <ele>251.5</ele>
        <time>2011-06-25T11:28:27Z</time>
      </trkpt>
      <trkpt lat="43.288187" lon="-8.431097">
        <ele>251.0</ele>
        <time>2011-06-25T11:28:28Z</time>
      </trkpt>
      <trkpt lat="43.288197" lon="-8.431108">
        <ele>253.0</ele>
        <time>2011-06-25T11:28:29Z</time>
      </trkpt>
      <trkpt lat="43.288208" lon="-8.431130">
        <ele>254.0</ele>
        <time>2011-06-25T11:28:30Z</time>
      </trkpt>
      <trkpt lat="43.288215" lon="-8.431138">
        <ele>256.5</ele>
        <time>2011-06-25T11:28:31Z</time>
      </trkpt>
      <trkpt lat="43.288222" lon="-8.431160">
        <ele>257.0</ele>
        <time>2011-06-25T11:28:32Z</time>
      </trkpt>
      <trkpt lat="43.288225" lon="-8.431182">
        <ele>257.0</ele>
        <time>2011-06-25T11:28:33Z</time>
      </trkpt>
      <trkpt lat="43.288238" lon="-8.431207">
        <ele>257.5</ele>
        <time>2011-06-25T11:28:34Z</time>
      </trkpt>
      <trkpt lat="43.288250" lon="-8.431227">
        <ele>259.5</ele>
        <time>2011-06-25T11:28:35Z</time>
      </trkpt>
      <trkpt lat="43.288257" lon="-8.431265">
        <ele>258.0</ele>
        <time>2011-06-25T11:28:36Z</time>
      </trkpt>
      <trkpt lat="43.288258" lon="-8.431303">
        <ele>258.0</ele>
        <time>2011-06-25T11:28:37Z</time>
      </trkpt>
      <trkpt lat="43.288253" lon="-8.431345">
        <ele>258.5</ele>
        <time>2011-06-25T11:28:38Z</time>
      </trkpt>
      <trkpt lat="43.288260" lon="-8.431443">
        <ele>258.0</ele>
        <time>2011-06-25T11:28:40Z</time>
      </trkpt>
      <trkpt lat="43.288260" lon="-8.431487">
        <ele>259.5</ele>
        <time>2011-06-25T11:28:41Z</time>
      </trkpt>
      <trkpt lat="43.288258" lon="-8.431518">
        <ele>260.0</ele>
        <time>2011-06-25T11:28:42Z</time>
      </trkpt>
      <trkpt lat="43.288260" lon="-8.431572">
        <ele>259.0</ele>
        <time>2011-06-25T11:28:43Z</time>
      </trkpt>
      <trkpt lat="43.288272" lon="-8.431625">
        <ele>260.5</ele>
        <time>2011-06-25T11:28:44Z</time>
      </trkpt>
      <trkpt lat="43.288302" lon="-8.431780">
        <ele>258.0</ele>
        <time>2011-06-25T11:28:46Z</time>
      </trkpt>
      <trkpt lat="43.288323" lon="-8.431847">
        <ele>258.5</ele>
        <time>2011-06-25T11:28:47Z</time>
      </trkpt>
      <trkpt lat="43.288350" lon="-8.431932">
        <ele>259.0</ele>
        <time>2011-06-25T11:28:48Z</time>
      </trkpt>
      <trkpt lat="43.288392" lon="-8.432013">
        <ele>259.5</ele>
        <time>2011-06-25T11:28:49Z</time>
      </trkpt>
      <trkpt lat="43.288443" lon="-8.432083">
        <ele>258.5</ele>
        <time>2011-06-25T11:28:50Z</time>
      </trkpt>
      <trkpt lat="43.288477" lon="-8.432140">
        <ele>260.0</ele>
        <time>2011-06-25T11:28:51Z</time>
      </trkpt>
      <trkpt lat="43.288497" lon="-8.432200">
        <ele>260.0</ele>
        <time>2011-06-25T11:28:52Z</time>
      </trkpt>
      <trkpt lat="43.288515" lon="-8.432262">
        <ele>259.5</ele>
        <time>2011-06-25T11:28:53Z</time>
      </trkpt>
      <trkpt lat="43.288533" lon="-8.432348">
        <ele>256.5</ele>
        <time>2011-06-25T11:28:54Z</time>
      </trkpt>
      <trkpt lat="43.288560" lon="-8.432430">
        <ele>254.5</ele>
        <time>2011-06-25T11:28:55Z</time>
      </trkpt>
      <trkpt lat="43.288593" lon="-8.432517">
        <ele>254.5</ele>
        <time>2011-06-25T11:28:56Z</time>
      </trkpt>
      <trkpt lat="43.288645" lon="-8.432588">
        <ele>254.0</ele>
        <time>2011-06-25T11:28:57Z</time>
      </trkpt>
      <trkpt lat="43.288677" lon="-8.432678">
        <ele>253.5</ele>
        <time>2011-06-25T11:28:58Z</time>
      </trkpt>
      <trkpt lat="43.288713" lon="-8.432753">
        <ele>253.5</ele>
        <time>2011-06-25T11:28:59Z</time>
      </trkpt>
      <trkpt lat="43.288735" lon="-8.432892">
        <ele>253.5</ele>
        <time>2011-06-25T11:29:01Z</time>
      </trkpt>
      <trkpt lat="43.288752" lon="-8.432972">
        <ele>253.5</ele>
        <time>2011-06-25T11:29:02Z</time>
      </trkpt>
      <trkpt lat="43.288788" lon="-8.433040">
        <ele>253.5</ele>
        <time>2011-06-25T11:29:03Z</time>
      </trkpt>
      <trkpt lat="43.288830" lon="-8.433117">
        <ele>253.5</ele>
        <time>2011-06-25T11:29:04Z</time>
      </trkpt>
      <trkpt lat="43.288875" lon="-8.433188">
        <ele>253.5</ele>
        <time>2011-06-25T11:29:05Z</time>
      </trkpt>
      <trkpt lat="43.288917" lon="-8.433253">
        <ele>253.0</ele>
        <time>2011-06-25T11:29:06Z</time>
      </trkpt>
      <trkpt lat="43.288975" lon="-8.433305">
        <ele>253.0</ele>
        <time>2011-06-25T11:29:07Z</time>
      </trkpt>
      <trkpt lat="43.289027" lon="-8.433345">
        <ele>254.0</ele>
        <time>2011-06-25T11:29:08Z</time>
      </trkpt>
      <trkpt lat="43.289070" lon="-8.433397">
        <ele>255.0</ele>
        <time>2011-06-25T11:29:09Z</time>
      </trkpt>
      <trkpt lat="43.289123" lon="-8.433442">
        <ele>255.0</ele>
        <time>2011-06-25T11:29:10Z</time>
      </trkpt>
      <trkpt lat="43.289167" lon="-8.433478">
        <ele>254.5</ele>
        <time>2011-06-25T11:29:11Z</time>
      </trkpt>
      <trkpt lat="43.289197" lon="-8.433515">
        <ele>253.5</ele>
        <time>2011-06-25T11:29:12Z</time>
      </trkpt>
      <trkpt lat="43.289220" lon="-8.433548">
        <ele>254.0</ele>
        <time>2011-06-25T11:29:13Z</time>
      </trkpt>
      <trkpt lat="43.289258" lon="-8.433575">
        <ele>253.5</ele>
        <time>2011-06-25T11:29:14Z</time>
      </trkpt>
      <trkpt lat="43.289293" lon="-8.433602">
        <ele>253.0</ele>
        <time>2011-06-25T11:29:15Z</time>
      </trkpt>
      <trkpt lat="43.289332" lon="-8.433625">
        <ele>254.0</ele>
        <time>2011-06-25T11:29:16Z</time>
      </trkpt>
      <trkpt lat="43.289363" lon="-8.433648">
        <ele>253.0</ele>
        <time>2011-06-25T11:29:17Z</time>
      </trkpt>
      <trkpt lat="43.289407" lon="-8.433663">
        <ele>253.0</ele>
        <time>2011-06-25T11:29:18Z</time>
      </trkpt>
      <trkpt lat="43.289447" lon="-8.433688">
        <ele>252.5</ele>
        <time>2011-06-25T11:29:19Z</time>
      </trkpt>
      <trkpt lat="43.289475" lon="-8.433712">
        <ele>253.0</ele>
        <time>2011-06-25T11:29:20Z</time>
      </trkpt>
      <trkpt lat="43.289495" lon="-8.433730">
        <ele>254.5</ele>
        <time>2011-06-25T11:29:21Z</time>
      </trkpt>
      <trkpt lat="43.289590" lon="-8.433777">
        <ele>253.0</ele>
        <time>2011-06-25T11:29:23Z</time>
      </trkpt>
      <trkpt lat="43.289628" lon="-8.433802">
        <ele>252.5</ele>
        <time>2011-06-25T11:29:24Z</time>
      </trkpt>
      <trkpt lat="43.289668" lon="-8.433835">
        <ele>251.5</ele>
        <time>2011-06-25T11:29:25Z</time>
      </trkpt>
      <trkpt lat="43.289700" lon="-8.433870">
        <ele>251.5</ele>
        <time>2011-06-25T11:29:26Z</time>
      </trkpt>
      <trkpt lat="43.289728" lon="-8.433908">
        <ele>252.0</ele>
        <time>2011-06-25T11:29:27Z</time>
      </trkpt>
      <trkpt lat="43.289770" lon="-8.433943">
        <ele>251.5</ele>
        <time>2011-06-25T11:29:28Z</time>
      </trkpt>
      <trkpt lat="43.289800" lon="-8.433985">
        <ele>252.5</ele>
        <time>2011-06-25T11:29:29Z</time>
      </trkpt>
      <trkpt lat="43.289837" lon="-8.434040">
        <ele>253.0</ele>
        <time>2011-06-25T11:29:30Z</time>
      </trkpt>
      <trkpt lat="43.289900" lon="-8.434190">
        <ele>249.0</ele>
        <time>2011-06-25T11:29:32Z</time>
      </trkpt>
      <trkpt lat="43.289913" lon="-8.434267">
        <ele>248.0</ele>
        <time>2011-06-25T11:29:33Z</time>
      </trkpt>
      <trkpt lat="43.289952" lon="-8.434332">
        <ele>245.5</ele>
        <time>2011-06-25T11:29:34Z</time>
      </trkpt>
      <trkpt lat="43.289983" lon="-8.434398">
        <ele>244.0</ele>
        <time>2011-06-25T11:29:35Z</time>
      </trkpt>
      <trkpt lat="43.289998" lon="-8.434442">
        <ele>245.0</ele>
        <time>2011-06-25T11:29:36Z</time>
      </trkpt>
      <trkpt lat="43.290023" lon="-8.434488">
        <ele>244.5</ele>
        <time>2011-06-25T11:29:37Z</time>
      </trkpt>
      <trkpt lat="43.290063" lon="-8.434537">
        <ele>243.0</ele>
        <time>2011-06-25T11:29:38Z</time>
      </trkpt>
      <trkpt lat="43.290063" lon="-8.434583">
        <ele>243.5</ele>
        <time>2011-06-25T11:29:39Z</time>
      </trkpt>
      <trkpt lat="43.290107" lon="-8.434707">
        <ele>243.5</ele>
        <time>2011-06-25T11:29:41Z</time>
      </trkpt>
      <trkpt lat="43.290180" lon="-8.434945">
        <ele>239.0</ele>
        <time>2011-06-25T11:29:44Z</time>
      </trkpt>
      <trkpt lat="43.290192" lon="-8.434997">
        <ele>237.5</ele>
        <time>2011-06-25T11:29:45Z</time>
      </trkpt>
      <trkpt lat="43.290208" lon="-8.435027">
        <ele>238.5</ele>
        <time>2011-06-25T11:29:46Z</time>
      </trkpt>
      <trkpt lat="43.290230" lon="-8.435062">
        <ele>240.0</ele>
        <time>2011-06-25T11:29:47Z</time>
      </trkpt>
      <trkpt lat="43.290257" lon="-8.435105">
        <ele>239.5</ele>
        <time>2011-06-25T11:29:48Z</time>
      </trkpt>
      <trkpt lat="43.290288" lon="-8.435153">
        <ele>240.0</ele>
        <time>2011-06-25T11:29:49Z</time>
      </trkpt>
      <trkpt lat="43.290323" lon="-8.435210">
        <ele>239.5</ele>
        <time>2011-06-25T11:29:50Z</time>
      </trkpt>
      <trkpt lat="43.290368" lon="-8.435267">
        <ele>240.0</ele>
        <time>2011-06-25T11:29:51Z</time>
      </trkpt>
      <trkpt lat="43.290415" lon="-8.435333">
        <ele>240.0</ele>
        <time>2011-06-25T11:29:52Z</time>
      </trkpt>
      <trkpt lat="43.290445" lon="-8.435388">
        <ele>239.5</ele>
        <time>2011-06-25T11:29:53Z</time>
      </trkpt>
      <trkpt lat="43.290485" lon="-8.435453">
        <ele>239.0</ele>
        <time>2011-06-25T11:29:55Z</time>
      </trkpt>
      <trkpt lat="43.290518" lon="-8.435525">
        <ele>237.5</ele>
        <time>2011-06-25T11:29:57Z</time>
      </trkpt>
      <trkpt lat="43.290527" lon="-8.435542">
        <ele>235.0</ele>
        <time>2011-06-25T11:29:58Z</time>
      </trkpt>
      <trkpt lat="43.290527" lon="-8.435553">
        <ele>234.0</ele>
        <time>2011-06-25T11:29:59Z</time>
      </trkpt>
      <trkpt lat="43.290528" lon="-8.435565">
        <ele>233.5</ele>
        <time>2011-06-25T11:30:00Z</time>
      </trkpt>
      <trkpt lat="43.290542" lon="-8.435620">
        <ele>230.0</ele>
        <time>2011-06-25T11:30:02Z</time>
      </trkpt>
      <trkpt lat="43.290547" lon="-8.435642">
        <ele>229.5</ele>
        <time>2011-06-25T11:30:03Z</time>
      </trkpt>
      <trkpt lat="43.290560" lon="-8.435708">
        <ele>228.5</ele>
        <time>2011-06-25T11:30:05Z</time>
      </trkpt>
      <trkpt lat="43.290568" lon="-8.435730">
        <ele>227.5</ele>
        <time>2011-06-25T11:30:06Z</time>
      </trkpt>
      <trkpt lat="43.290570" lon="-8.435750">
        <ele>227.0</ele>
        <time>2011-06-25T11:30:07Z</time>
      </trkpt>
      <trkpt lat="43.290563" lon="-8.435773">
        <ele>228.0</ele>
        <time>2011-06-25T11:30:08Z</time>
      </trkpt>
      <trkpt lat="43.290570" lon="-8.435795">
        <ele>225.5</ele>
        <time>2011-06-25T11:30:09Z</time>
      </trkpt>
      <trkpt lat="43.290572" lon="-8.435817">
        <ele>225.0</ele>
        <time>2011-06-25T11:30:10Z</time>
      </trkpt>
      <trkpt lat="43.290572" lon="-8.435818">
        <ele>225.0</ele>
        <time>2011-06-25T11:30:11Z</time>
      </trkpt>
      <trkpt lat="43.290577" lon="-8.435822">
        <ele>225.5</ele>
        <time>2011-06-25T11:30:12Z</time>
      </trkpt>
      <trkpt lat="43.290582" lon="-8.435838">
        <ele>225.0</ele>
        <time>2011-06-25T11:30:13Z</time>
      </trkpt>
      <trkpt lat="43.290587" lon="-8.435847">
        <ele>223.5</ele>
        <time>2011-06-25T11:30:14Z</time>
      </trkpt>
      <trkpt lat="43.290588" lon="-8.435855">
        <ele>223.0</ele>
        <time>2011-06-25T11:30:15Z</time>
      </trkpt>
      <trkpt lat="43.290588" lon="-8.435855">
        <ele>223.0</ele>
        <time>2011-06-25T11:30:16Z</time>
      </trkpt>
      <trkpt lat="43.290588" lon="-8.435853">
        <ele>223.0</ele>
        <time>2011-06-25T11:30:17Z</time>
      </trkpt>
      <trkpt lat="43.290598" lon="-8.435867">
        <ele>221.5</ele>
        <time>2011-06-25T11:30:18Z</time>
      </trkpt>
      <trkpt lat="43.290610" lon="-8.435885">
        <ele>220.0</ele>
        <time>2011-06-25T11:30:19Z</time>
      </trkpt>
      <trkpt lat="43.290620" lon="-8.435898">
        <ele>218.0</ele>
        <time>2011-06-25T11:30:20Z</time>
      </trkpt>
      <trkpt lat="43.290627" lon="-8.435918">
        <ele>215.5</ele>
        <time>2011-06-25T11:30:21Z</time>
      </trkpt>
      <trkpt lat="43.290633" lon="-8.435918">
        <ele>215.5</ele>
        <time>2011-06-25T11:30:22Z</time>
      </trkpt>
      <trkpt lat="43.290642" lon="-8.435913">
        <ele>215.5</ele>
        <time>2011-06-25T11:30:23Z</time>
      </trkpt>
      <trkpt lat="43.290648" lon="-8.435910">
        <ele>215.5</ele>
        <time>2011-06-25T11:30:24Z</time>
      </trkpt>
      <trkpt lat="43.290655" lon="-8.435905">
        <ele>216.0</ele>
        <time>2011-06-25T11:30:25Z</time>
      </trkpt>
      <trkpt lat="43.290658" lon="-8.435910">
        <ele>215.5</ele>
        <time>2011-06-25T11:30:26Z</time>
      </trkpt>
      <trkpt lat="43.290668" lon="-8.435913">
        <ele>215.0</ele>
        <time>2011-06-25T11:30:27Z</time>
      </trkpt>
      <trkpt lat="43.290678" lon="-8.435930">
        <ele>213.5</ele>
        <time>2011-06-25T11:30:28Z</time>
      </trkpt>
      <trkpt lat="43.290685" lon="-8.435943">
        <ele>213.5</ele>
        <time>2011-06-25T11:30:29Z</time>
      </trkpt>
      <trkpt lat="43.290697" lon="-8.435942">
        <ele>213.0</ele>
        <time>2011-06-25T11:30:30Z</time>
      </trkpt>
      <trkpt lat="43.290698" lon="-8.435947">
        <ele>213.0</ele>
        <time>2011-06-25T11:30:31Z</time>
      </trkpt>
      <trkpt lat="43.290705" lon="-8.435945">
        <ele>213.0</ele>
        <time>2011-06-25T11:30:32Z</time>
      </trkpt>
      <trkpt lat="43.290707" lon="-8.435945">
        <ele>213.0</ele>
        <time>2011-06-25T11:30:33Z</time>
      </trkpt>
      <trkpt lat="43.290710" lon="-8.435945">
        <ele>213.5</ele>
        <time>2011-06-25T11:30:34Z</time>
      </trkpt>
      <trkpt lat="43.290713" lon="-8.435945">
        <ele>213.5</ele>
        <time>2011-06-25T11:30:35Z</time>
      </trkpt>
      <trkpt lat="43.290713" lon="-8.435945">
        <ele>214.0</ele>
        <time>2011-06-25T11:30:36Z</time>
      </trkpt>
      <trkpt lat="43.290723" lon="-8.435953">
        <ele>214.5</ele>
        <time>2011-06-25T11:30:37Z</time>
      </trkpt>
      <trkpt lat="43.290727" lon="-8.435968">
        <ele>214.5</ele>
        <time>2011-06-25T11:30:38Z</time>
      </trkpt>
      <trkpt lat="43.290730" lon="-8.435985">
        <ele>214.5</ele>
        <time>2011-06-25T11:30:39Z</time>
      </trkpt>
      <trkpt lat="43.290747" lon="-8.436067">
        <ele>211.0</ele>
        <time>2011-06-25T11:30:41Z</time>
      </trkpt>
      <trkpt lat="43.290757" lon="-8.436098">
        <ele>211.0</ele>
        <time>2011-06-25T11:30:42Z</time>
      </trkpt>
      <trkpt lat="43.290768" lon="-8.436130">
        <ele>212.0</ele>
        <time>2011-06-25T11:30:43Z</time>
      </trkpt>
      <trkpt lat="43.290783" lon="-8.436172">
        <ele>212.0</ele>
        <time>2011-06-25T11:30:44Z</time>
      </trkpt>
      <trkpt lat="43.290792" lon="-8.436213">
        <ele>211.5</ele>
        <time>2011-06-25T11:30:45Z</time>
      </trkpt>
      <trkpt lat="43.290802" lon="-8.436217">
        <ele>211.5</ele>
        <time>2011-06-25T11:30:46Z</time>
      </trkpt>
      <trkpt lat="43.290805" lon="-8.436228">
        <ele>211.5</ele>
        <time>2011-06-25T11:30:47Z</time>
      </trkpt>
      <trkpt lat="43.290808" lon="-8.436227">
        <ele>212.5</ele>
        <time>2011-06-25T11:30:48Z</time>
      </trkpt>
      <trkpt lat="43.290807" lon="-8.436232">
        <ele>212.0</ele>
        <time>2011-06-25T11:30:49Z</time>
      </trkpt>
      <trkpt lat="43.290807" lon="-8.436237">
        <ele>211.5</ele>
        <time>2011-06-25T11:30:50Z</time>
      </trkpt>
      <trkpt lat="43.290807" lon="-8.436237">
        <ele>211.0</ele>
        <time>2011-06-25T11:30:51Z</time>
      </trkpt>
      <trkpt lat="43.290807" lon="-8.436240">
        <ele>210.5</ele>
        <time>2011-06-25T11:30:52Z</time>
      </trkpt>
      <trkpt lat="43.290807" lon="-8.436240">
        <ele>210.5</ele>
        <time>2011-06-25T11:30:53Z</time>
      </trkpt>
      <trkpt lat="43.290807" lon="-8.436242">
        <ele>210.5</ele>
        <time>2011-06-25T11:30:54Z</time>
      </trkpt>
      <trkpt lat="43.290807" lon="-8.436245">
        <ele>210.0</ele>
        <time>2011-06-25T11:30:55Z</time>
      </trkpt>
      <trkpt lat="43.290810" lon="-8.436245">
        <ele>210.5</ele>
        <time>2011-06-25T11:30:56Z</time>
      </trkpt>
      <trkpt lat="43.290815" lon="-8.436248">
        <ele>211.0</ele>
        <time>2011-06-25T11:30:57Z</time>
      </trkpt>
      <trkpt lat="43.290815" lon="-8.436250">
        <ele>211.0</ele>
        <time>2011-06-25T11:30:58Z</time>
      </trkpt>
      <trkpt lat="43.290813" lon="-8.436253">
        <ele>210.5</ele>
        <time>2011-06-25T11:30:59Z</time>
      </trkpt>
      <trkpt lat="43.290813" lon="-8.436258">
        <ele>210.0</ele>
        <time>2011-06-25T11:31:00Z</time>
      </trkpt>
      <trkpt lat="43.290812" lon="-8.436260">
        <ele>210.0</ele>
        <time>2011-06-25T11:31:01Z</time>
      </trkpt>
      <trkpt lat="43.290808" lon="-8.436268">
        <ele>208.5</ele>
        <time>2011-06-25T11:31:02Z</time>
      </trkpt>
      <trkpt lat="43.290807" lon="-8.436280">
        <ele>206.5</ele>
        <time>2011-06-25T11:31:03Z</time>
      </trkpt>
      <trkpt lat="43.290807" lon="-8.436283">
        <ele>206.0</ele>
        <time>2011-06-25T11:31:04Z</time>
      </trkpt>
      <trkpt lat="43.290803" lon="-8.436288">
        <ele>205.5</ele>
        <time>2011-06-25T11:31:05Z</time>
      </trkpt>
      <trkpt lat="43.290802" lon="-8.436295">
        <ele>204.0</ele>
        <time>2011-06-25T11:31:06Z</time>
      </trkpt>
      <trkpt lat="43.290802" lon="-8.436302">
        <ele>203.0</ele>
        <time>2011-06-25T11:31:07Z</time>
      </trkpt>
      <trkpt lat="43.290802" lon="-8.436305">
        <ele>203.0</ele>
        <time>2011-06-25T11:31:08Z</time>
      </trkpt>
      <trkpt lat="43.290802" lon="-8.436307">
        <ele>202.0</ele>
        <time>2011-06-25T11:31:09Z</time>
      </trkpt>
      <trkpt lat="43.290793" lon="-8.436312">
        <ele>199.0</ele>
        <time>2011-06-25T11:31:10Z</time>
      </trkpt>
      <trkpt lat="43.290793" lon="-8.436322">
        <ele>197.0</ele>
        <time>2011-06-25T11:31:11Z</time>
      </trkpt>
      <trkpt lat="43.290795" lon="-8.436325">
        <ele>198.0</ele>
        <time>2011-06-25T11:31:12Z</time>
      </trkpt>
      <trkpt lat="43.290793" lon="-8.436328">
        <ele>196.5</ele>
        <time>2011-06-25T11:31:13Z</time>
      </trkpt>
      <trkpt lat="43.290797" lon="-8.436335">
        <ele>195.5</ele>
        <time>2011-06-25T11:31:14Z</time>
      </trkpt>
      <trkpt lat="43.290797" lon="-8.436337">
        <ele>195.0</ele>
        <time>2011-06-25T11:31:15Z</time>
      </trkpt>
      <trkpt lat="43.290797" lon="-8.436340">
        <ele>194.0</ele>
        <time>2011-06-25T11:31:16Z</time>
      </trkpt>
      <trkpt lat="43.290795" lon="-8.436342">
        <ele>193.5</ele>
        <time>2011-06-25T11:31:17Z</time>
      </trkpt>
      <trkpt lat="43.290795" lon="-8.436343">
        <ele>192.5</ele>
        <time>2011-06-25T11:31:18Z</time>
      </trkpt>
      <trkpt lat="43.290793" lon="-8.436350">
        <ele>192.0</ele>
        <time>2011-06-25T11:31:19Z</time>
      </trkpt>
      <trkpt lat="43.290792" lon="-8.436352">
        <ele>191.5</ele>
        <time>2011-06-25T11:31:20Z</time>
      </trkpt>
      <trkpt lat="43.290790" lon="-8.436360">
        <ele>191.0</ele>
        <time>2011-06-25T11:31:21Z</time>
      </trkpt>
      <trkpt lat="43.290792" lon="-8.436362">
        <ele>191.0</ele>
        <time>2011-06-25T11:31:22Z</time>
      </trkpt>
      <trkpt lat="43.290785" lon="-8.436372">
        <ele>190.0</ele>
        <time>2011-06-25T11:31:23Z</time>
      </trkpt>
      <trkpt lat="43.290782" lon="-8.436382">
        <ele>189.0</ele>
        <time>2011-06-25T11:31:24Z</time>
      </trkpt>
      <trkpt lat="43.290795" lon="-8.436388">
        <ele>189.0</ele>
        <time>2011-06-25T11:31:25Z</time>
      </trkpt>
      <trkpt lat="43.290803" lon="-8.436393">
        <ele>189.0</ele>
        <time>2011-06-25T11:31:26Z</time>
      </trkpt>
      <trkpt lat="43.290803" lon="-8.436395">
        <ele>189.0</ele>
        <time>2011-06-25T11:31:27Z</time>
      </trkpt>
      <trkpt lat="43.290800" lon="-8.436400">
        <ele>188.5</ele>
        <time>2011-06-25T11:31:28Z</time>
      </trkpt>
      <trkpt lat="43.290805" lon="-8.436403">
        <ele>189.0</ele>
        <time>2011-06-25T11:31:29Z</time>
      </trkpt>
      <trkpt lat="43.290802" lon="-8.436407">
        <ele>189.0</ele>
        <time>2011-06-25T11:31:30Z</time>
      </trkpt>
      <trkpt lat="43.290800" lon="-8.436410">
        <ele>188.5</ele>
        <time>2011-06-25T11:31:31Z</time>
      </trkpt>
      <trkpt lat="43.290797" lon="-8.436413">
        <ele>188.0</ele>
        <time>2011-06-25T11:31:32Z</time>
      </trkpt>
      <trkpt lat="43.290795" lon="-8.436412">
        <ele>188.0</ele>
        <time>2011-06-25T11:31:33Z</time>
      </trkpt>
      <trkpt lat="43.290798" lon="-8.436417">
        <ele>185.5</ele>
        <time>2011-06-25T11:31:34Z</time>
      </trkpt>
      <trkpt lat="43.290798" lon="-8.436420">
        <ele>185.5</ele>
        <time>2011-06-25T11:31:35Z</time>
      </trkpt>
      <trkpt lat="43.290785" lon="-8.436415">
        <ele>185.0</ele>
        <time>2011-06-25T11:31:36Z</time>
      </trkpt>
      <trkpt lat="43.290770" lon="-8.436415">
        <ele>184.0</ele>
        <time>2011-06-25T11:31:37Z</time>
      </trkpt>
      <trkpt lat="43.290767" lon="-8.436420">
        <ele>183.5</ele>
        <time>2011-06-25T11:31:38Z</time>
      </trkpt>
      <trkpt lat="43.290765" lon="-8.436422">
        <ele>184.0</ele>
        <time>2011-06-25T11:31:39Z</time>
      </trkpt>
      <trkpt lat="43.290760" lon="-8.436422">
        <ele>183.5</ele>
        <time>2011-06-25T11:31:40Z</time>
      </trkpt>
      <trkpt lat="43.290758" lon="-8.436423">
        <ele>183.5</ele>
        <time>2011-06-25T11:31:41Z</time>
      </trkpt>
      <trkpt lat="43.290757" lon="-8.436423">
        <ele>183.5</ele>
        <time>2011-06-25T11:31:42Z</time>
      </trkpt>
      <trkpt lat="43.290755" lon="-8.436427">
        <ele>183.5</ele>
        <time>2011-06-25T11:31:43Z</time>
      </trkpt>
      <trkpt lat="43.290753" lon="-8.436427">
        <ele>183.5</ele>
        <time>2011-06-25T11:31:44Z</time>
      </trkpt>
      <trkpt lat="43.290752" lon="-8.436430">
        <ele>183.0</ele>
        <time>2011-06-25T11:31:45Z</time>
      </trkpt>
      <trkpt lat="43.290750" lon="-8.436432">
        <ele>183.0</ele>
        <time>2011-06-25T11:31:46Z</time>
      </trkpt>
      <trkpt lat="43.290750" lon="-8.436433">
        <ele>183.0</ele>
        <time>2011-06-25T11:31:47Z</time>
      </trkpt>
      <trkpt lat="43.290752" lon="-8.436435">
        <ele>183.0</ele>
        <time>2011-06-25T11:31:48Z</time>
      </trkpt>
      <trkpt lat="43.290752" lon="-8.436437">
        <ele>183.0</ele>
        <time>2011-06-25T11:31:49Z</time>
      </trkpt>
      <trkpt lat="43.290752" lon="-8.436437">
        <ele>183.0</ele>
        <time>2011-06-25T11:31:50Z</time>
      </trkpt>
      <trkpt lat="43.290750" lon="-8.436435">
        <ele>183.0</ele>
        <time>2011-06-25T11:31:51Z</time>
      </trkpt>
      <trkpt lat="43.290752" lon="-8.436438">
        <ele>183.0</ele>
        <time>2011-06-25T11:31:52Z</time>
      </trkpt>
      <trkpt lat="43.290753" lon="-8.436440">
        <ele>183.0</ele>
        <time>2011-06-25T11:31:53Z</time>
      </trkpt>
      <trkpt lat="43.290753" lon="-8.436440">
        <ele>183.0</ele>
        <time>2011-06-25T11:31:54Z</time>
      </trkpt>
      <trkpt lat="43.290752" lon="-8.436440">
        <ele>183.0</ele>
        <time>2011-06-25T11:31:55Z</time>
      </trkpt>
      <trkpt lat="43.290752" lon="-8.436440">
        <ele>183.0</ele>
        <time>2011-06-25T11:31:56Z</time>
      </trkpt>
      <trkpt lat="43.290752" lon="-8.436440">
        <ele>183.0</ele>
        <time>2011-06-25T11:31:57Z</time>
      </trkpt>
      <trkpt lat="43.290752" lon="-8.436440">
        <ele>182.5</ele>
        <time>2011-06-25T11:31:58Z</time>
      </trkpt>
      <trkpt lat="43.290752" lon="-8.436440">
        <ele>182.5</ele>
        <time>2011-06-25T11:31:59Z</time>
      </trkpt>
      <trkpt lat="43.290752" lon="-8.436440">
        <ele>182.5</ele>
        <time>2011-06-25T11:32:00Z</time>
      </trkpt>
      <trkpt lat="43.290752" lon="-8.436440">
        <ele>182.5</ele>
        <time>2011-06-25T11:32:01Z</time>
      </trkpt>
      <trkpt lat="43.290752" lon="-8.436440">
        <ele>182.5</ele>
        <time>2011-06-25T11:32:02Z</time>
      </trkpt>
      <trkpt lat="43.290752" lon="-8.436440">
        <ele>182.5</ele>
        <time>2011-06-25T11:32:03Z</time>
      </trkpt>
      <trkpt lat="43.290750" lon="-8.436440">
        <ele>182.5</ele>
        <time>2011-06-25T11:32:04Z</time>
      </trkpt>
      <trkpt lat="43.290750" lon="-8.436440">
        <ele>182.5</ele>
        <time>2011-06-25T11:32:05Z</time>
      </trkpt>
      <trkpt lat="43.290750" lon="-8.436440">
        <ele>182.5</ele>
        <time>2011-06-25T11:32:06Z</time>
      </trkpt>
      <trkpt lat="43.290750" lon="-8.436442">
        <ele>182.5</ele>
        <time>2011-06-25T11:32:07Z</time>
      </trkpt>
      <trkpt lat="43.290750" lon="-8.436442">
        <ele>182.5</ele>
        <time>2011-06-25T11:32:08Z</time>
      </trkpt>
      <trkpt lat="43.290748" lon="-8.436442">
        <ele>183.0</ele>
        <time>2011-06-25T11:32:09Z</time>
      </trkpt>
      <trkpt lat="43.290748" lon="-8.436442">
        <ele>182.5</ele>
        <time>2011-06-25T11:32:10Z</time>
      </trkpt>
      <trkpt lat="43.290748" lon="-8.436442">
        <ele>182.5</ele>
        <time>2011-06-25T11:32:11Z</time>
      </trkpt>
      <trkpt lat="43.290748" lon="-8.436442">
        <ele>182.5</ele>
        <time>2011-06-25T11:32:12Z</time>
      </trkpt>
      <trkpt lat="43.290747" lon="-8.436442">
        <ele>183.0</ele>
        <time>2011-06-25T11:32:13Z</time>
      </trkpt>
      <trkpt lat="43.290747" lon="-8.436443">
        <ele>183.0</ele>
        <time>2011-06-25T11:32:14Z</time>
      </trkpt>
      <trkpt lat="43.290747" lon="-8.436443">
        <ele>183.0</ele>
        <time>2011-06-25T11:32:15Z</time>
      </trkpt>
      <trkpt lat="43.290747" lon="-8.436443">
        <ele>183.0</ele>
        <time>2011-06-25T11:32:16Z</time>
      </trkpt>
      <trkpt lat="43.290747" lon="-8.436443">
        <ele>183.0</ele>
        <time>2011-06-25T11:32:17Z</time>
      </trkpt>
      <trkpt lat="43.290747" lon="-8.436443">
        <ele>183.0</ele>
        <time>2011-06-25T11:32:18Z</time>
      </trkpt>
      <trkpt lat="43.290747" lon="-8.436443">
        <ele>183.0</ele>
        <time>2011-06-25T11:32:19Z</time>
      </trkpt>
      <trkpt lat="43.290747" lon="-8.436443">
        <ele>183.0</ele>
        <time>2011-06-25T11:32:20Z</time>
      </trkpt>
      <trkpt lat="43.290747" lon="-8.436443">
        <ele>183.0</ele>
        <time>2011-06-25T11:32:21Z</time>
      </trkpt>
      <trkpt lat="43.290747" lon="-8.436443">
        <ele>183.0</ele>
        <time>2011-06-25T11:32:22Z</time>
      </trkpt>
      <trkpt lat="43.290745" lon="-8.436443">
        <ele>183.0</ele>
        <time>2011-06-25T11:32:23Z</time>
      </trkpt>
      <trkpt lat="43.290747" lon="-8.436443">
        <ele>183.0</ele>
        <time>2011-06-25T11:32:24Z</time>
      </trkpt>
      <trkpt lat="43.290747" lon="-8.436443">
        <ele>183.0</ele>
        <time>2011-06-25T11:32:25Z</time>
      </trkpt>
      <trkpt lat="43.290747" lon="-8.436443">
        <ele>183.0</ele>
        <time>2011-06-25T11:32:26Z</time>
      </trkpt>
      <trkpt lat="43.290747" lon="-8.436443">
        <ele>183.0</ele>
        <time>2011-06-25T11:32:27Z</time>
      </trkpt>
      <trkpt lat="43.290747" lon="-8.436443">
        <ele>183.0</ele>
        <time>2011-06-25T11:32:28Z</time>
      </trkpt>
      <trkpt lat="43.290747" lon="-8.436445">
        <ele>183.0</ele>
        <time>2011-06-25T11:32:29Z</time>
      </trkpt>
      <trkpt lat="43.290747" lon="-8.436445">
        <ele>183.0</ele>
        <time>2011-06-25T11:32:30Z</time>
      </trkpt>
      <trkpt lat="43.290747" lon="-8.436445">
        <ele>183.0</ele>
        <time>2011-06-25T11:32:31Z</time>
      </trkpt>
      <trkpt lat="43.290747" lon="-8.436445">
        <ele>183.0</ele>
        <time>2011-06-25T11:32:32Z</time>
      </trkpt>
      <trkpt lat="43.290747" lon="-8.436445">
        <ele>183.0</ele>
        <time>2011-06-25T11:32:33Z</time>
      </trkpt>
      <trkpt lat="43.290747" lon="-8.436445">
        <ele>183.0</ele>
        <time>2011-06-25T11:32:34Z</time>
      </trkpt>
      <trkpt lat="43.290747" lon="-8.436445">
        <ele>183.0</ele>
        <time>2011-06-25T11:32:35Z</time>
      </trkpt>
      <trkpt lat="43.290747" lon="-8.436445">
        <ele>183.0</ele>
        <time>2011-06-25T11:32:36Z</time>
      </trkpt>
      <trkpt lat="43.290747" lon="-8.436445">
        <ele>183.0</ele>
        <time>2011-06-25T11:32:37Z</time>
      </trkpt>
      <trkpt lat="43.290747" lon="-8.436445">
        <ele>183.0</ele>
        <time>2011-06-25T11:32:38Z</time>
      </trkpt>
      <trkpt lat="43.290748" lon="-8.436445">
        <ele>183.0</ele>
        <time>2011-06-25T11:32:39Z</time>
      </trkpt>
      <trkpt lat="43.290753" lon="-8.436443">
        <ele>183.5</ele>
        <time>2011-06-25T11:32:40Z</time>
      </trkpt>
      <trkpt lat="43.290767" lon="-8.436447">
        <ele>185.5</ele>
        <time>2011-06-25T11:32:41Z</time>
      </trkpt>
      <trkpt lat="43.290775" lon="-8.436448">
        <ele>186.0</ele>
        <time>2011-06-25T11:32:42Z</time>
      </trkpt>
      <trkpt lat="43.290790" lon="-8.436453">
        <ele>186.0</ele>
        <time>2011-06-25T11:32:43Z</time>
      </trkpt>
      <trkpt lat="43.290802" lon="-8.436450">
        <ele>187.0</ele>
        <time>2011-06-25T11:32:44Z</time>
      </trkpt>
      <trkpt lat="43.290812" lon="-8.436450">
        <ele>188.0</ele>
        <time>2011-06-25T11:32:45Z</time>
      </trkpt>
      <trkpt lat="43.290822" lon="-8.436448">
        <ele>189.0</ele>
        <time>2011-06-25T11:32:46Z</time>
      </trkpt>
      <trkpt lat="43.290828" lon="-8.436452">
        <ele>190.5</ele>
        <time>2011-06-25T11:32:47Z</time>
      </trkpt>
      <trkpt lat="43.290833" lon="-8.436450">
        <ele>191.5</ele>
        <time>2011-06-25T11:32:48Z</time>
      </trkpt>
      <trkpt lat="43.290837" lon="-8.436448">
        <ele>191.5</ele>
        <time>2011-06-25T11:32:49Z</time>
      </trkpt>
      <trkpt lat="43.290840" lon="-8.436447">
        <ele>192.5</ele>
        <time>2011-06-25T11:32:50Z</time>
      </trkpt>
      <trkpt lat="43.290863" lon="-8.436433">
        <ele>193.0</ele>
        <time>2011-06-25T11:32:52Z</time>
      </trkpt>
      <trkpt lat="43.290868" lon="-8.436437">
        <ele>193.5</ele>
        <time>2011-06-25T11:32:53Z</time>
      </trkpt>
      <trkpt lat="43.290872" lon="-8.436442">
        <ele>194.0</ele>
        <time>2011-06-25T11:32:54Z</time>
      </trkpt>
      <trkpt lat="43.290875" lon="-8.436445">
        <ele>194.5</ele>
        <time>2011-06-25T11:32:55Z</time>
      </trkpt>
      <trkpt lat="43.290878" lon="-8.436447">
        <ele>196.0</ele>
        <time>2011-06-25T11:32:56Z</time>
      </trkpt>
      <trkpt lat="43.290890" lon="-8.436450">
        <ele>196.5</ele>
        <time>2011-06-25T11:32:57Z</time>
      </trkpt>
      <trkpt lat="43.290900" lon="-8.436453">
        <ele>197.0</ele>
        <time>2011-06-25T11:32:58Z</time>
      </trkpt>
      <trkpt lat="43.290912" lon="-8.436457">
        <ele>196.0</ele>
        <time>2011-06-25T11:32:59Z</time>
      </trkpt>
      <trkpt lat="43.290912" lon="-8.436460">
        <ele>196.0</ele>
        <time>2011-06-25T11:33:00Z</time>
      </trkpt>
      <trkpt lat="43.290903" lon="-8.436458">
        <ele>195.0</ele>
        <time>2011-06-25T11:33:01Z</time>
      </trkpt>
      <trkpt lat="43.290912" lon="-8.436462">
        <ele>195.0</ele>
        <time>2011-06-25T11:33:02Z</time>
      </trkpt>
      <trkpt lat="43.290918" lon="-8.436463">
        <ele>195.5</ele>
        <time>2011-06-25T11:33:03Z</time>
      </trkpt>
      <trkpt lat="43.290923" lon="-8.436472">
        <ele>195.0</ele>
        <time>2011-06-25T11:33:04Z</time>
      </trkpt>
      <trkpt lat="43.290923" lon="-8.436480">
        <ele>194.5</ele>
        <time>2011-06-25T11:33:05Z</time>
      </trkpt>
      <trkpt lat="43.290933" lon="-8.436485">
        <ele>195.0</ele>
        <time>2011-06-25T11:33:06Z</time>
      </trkpt>
      <trkpt lat="43.290940" lon="-8.436490">
        <ele>195.0</ele>
        <time>2011-06-25T11:33:07Z</time>
      </trkpt>
      <trkpt lat="43.290950" lon="-8.436498">
        <ele>195.0</ele>
        <time>2011-06-25T11:33:08Z</time>
      </trkpt>
      <trkpt lat="43.290955" lon="-8.436503">
        <ele>192.5</ele>
        <time>2011-06-25T11:33:09Z</time>
      </trkpt>
      <trkpt lat="43.290965" lon="-8.436503">
        <ele>190.5</ele>
        <time>2011-06-25T11:33:10Z</time>
      </trkpt>
      <trkpt lat="43.290972" lon="-8.436508">
        <ele>188.5</ele>
        <time>2011-06-25T11:33:11Z</time>
      </trkpt>
      <trkpt lat="43.290980" lon="-8.436507">
        <ele>189.0</ele>
        <time>2011-06-25T11:33:12Z</time>
      </trkpt>
      <trkpt lat="43.290998" lon="-8.436510">
        <ele>190.0</ele>
        <time>2011-06-25T11:33:13Z</time>
      </trkpt>
      <trkpt lat="43.291010" lon="-8.436512">
        <ele>190.5</ele>
        <time>2011-06-25T11:33:14Z</time>
      </trkpt>
      <trkpt lat="43.291012" lon="-8.436503">
        <ele>192.5</ele>
        <time>2011-06-25T11:33:15Z</time>
      </trkpt>
      <trkpt lat="43.291028" lon="-8.436513">
        <ele>194.0</ele>
        <time>2011-06-25T11:33:16Z</time>
      </trkpt>
      <trkpt lat="43.291045" lon="-8.436523">
        <ele>194.5</ele>
        <time>2011-06-25T11:33:17Z</time>
      </trkpt>
      <trkpt lat="43.291058" lon="-8.436532">
        <ele>197.0</ele>
        <time>2011-06-25T11:33:18Z</time>
      </trkpt>
      <trkpt lat="43.291082" lon="-8.436550">
        <ele>197.5</ele>
        <time>2011-06-25T11:33:19Z</time>
      </trkpt>
      <trkpt lat="43.291110" lon="-8.436562">
        <ele>198.5</ele>
        <time>2011-06-25T11:33:20Z</time>
      </trkpt>
      <trkpt lat="43.291140" lon="-8.436587">
        <ele>199.5</ele>
        <time>2011-06-25T11:33:21Z</time>
      </trkpt>
      <trkpt lat="43.291175" lon="-8.436613">
        <ele>200.0</ele>
        <time>2011-06-25T11:33:22Z</time>
      </trkpt>
      <trkpt lat="43.291222" lon="-8.436645">
        <ele>201.5</ele>
        <time>2011-06-25T11:33:23Z</time>
      </trkpt>
      <trkpt lat="43.291257" lon="-8.436682">
        <ele>202.0</ele>
        <time>2011-06-25T11:33:24Z</time>
      </trkpt>
      <trkpt lat="43.291295" lon="-8.436710">
        <ele>202.5</ele>
        <time>2011-06-25T11:33:25Z</time>
      </trkpt>
      <trkpt lat="43.291338" lon="-8.436737">
        <ele>203.0</ele>
        <time>2011-06-25T11:33:26Z</time>
      </trkpt>
      <trkpt lat="43.291382" lon="-8.436758">
        <ele>203.5</ele>
        <time>2011-06-25T11:33:27Z</time>
      </trkpt>
      <trkpt lat="43.291420" lon="-8.436808">
        <ele>202.5</ele>
        <time>2011-06-25T11:33:28Z</time>
      </trkpt>
      <trkpt lat="43.291467" lon="-8.436848">
        <ele>203.0</ele>
        <time>2011-06-25T11:33:29Z</time>
      </trkpt>
      <trkpt lat="43.291507" lon="-8.436890">
        <ele>202.5</ele>
        <time>2011-06-25T11:33:30Z</time>
      </trkpt>
      <trkpt lat="43.291552" lon="-8.436918">
        <ele>203.0</ele>
        <time>2011-06-25T11:33:31Z</time>
      </trkpt>
      <trkpt lat="43.291588" lon="-8.436965">
        <ele>203.0</ele>
        <time>2011-06-25T11:33:32Z</time>
      </trkpt>
      <trkpt lat="43.291633" lon="-8.437010">
        <ele>203.5</ele>
        <time>2011-06-25T11:33:33Z</time>
      </trkpt>
      <trkpt lat="43.291682" lon="-8.437042">
        <ele>205.0</ele>
        <time>2011-06-25T11:33:35Z</time>
      </trkpt>
      <trkpt lat="43.291708" lon="-8.437068">
        <ele>205.0</ele>
        <time>2011-06-25T11:33:36Z</time>
      </trkpt>
      <trkpt lat="43.291733" lon="-8.437092">
        <ele>205.0</ele>
        <time>2011-06-25T11:33:37Z</time>
      </trkpt>
      <trkpt lat="43.291762" lon="-8.437110">
        <ele>206.0</ele>
        <time>2011-06-25T11:33:38Z</time>
      </trkpt>
      <trkpt lat="43.291797" lon="-8.437140">
        <ele>206.0</ele>
        <time>2011-06-25T11:33:39Z</time>
      </trkpt>
      <trkpt lat="43.291838" lon="-8.437177">
        <ele>206.0</ele>
        <time>2011-06-25T11:33:40Z</time>
      </trkpt>
      <trkpt lat="43.291870" lon="-8.437210">
        <ele>206.0</ele>
        <time>2011-06-25T11:33:41Z</time>
      </trkpt>
      <trkpt lat="43.291902" lon="-8.437265">
        <ele>206.0</ele>
        <time>2011-06-25T11:33:42Z</time>
      </trkpt>
      <trkpt lat="43.291937" lon="-8.437308">
        <ele>206.0</ele>
        <time>2011-06-25T11:33:43Z</time>
      </trkpt>
      <trkpt lat="43.291962" lon="-8.437345">
        <ele>206.0</ele>
        <time>2011-06-25T11:33:44Z</time>
      </trkpt>
      <trkpt lat="43.291987" lon="-8.437378">
        <ele>206.0</ele>
        <time>2011-06-25T11:33:45Z</time>
      </trkpt>
      <trkpt lat="43.292007" lon="-8.437407">
        <ele>206.0</ele>
        <time>2011-06-25T11:33:46Z</time>
      </trkpt>
      <trkpt lat="43.292020" lon="-8.437425">
        <ele>206.5</ele>
        <time>2011-06-25T11:33:47Z</time>
      </trkpt>
      <trkpt lat="43.292030" lon="-8.437458">
        <ele>206.5</ele>
        <time>2011-06-25T11:33:48Z</time>
      </trkpt>
      <trkpt lat="43.292060" lon="-8.437468">
        <ele>205.5</ele>
        <time>2011-06-25T11:33:49Z</time>
      </trkpt>
      <trkpt lat="43.292073" lon="-8.437485">
        <ele>206.0</ele>
        <time>2011-06-25T11:33:50Z</time>
      </trkpt>
      <trkpt lat="43.292078" lon="-8.437498">
        <ele>208.0</ele>
        <time>2011-06-25T11:33:51Z</time>
      </trkpt>
      <trkpt lat="43.292098" lon="-8.437515">
        <ele>207.5</ele>
        <time>2011-06-25T11:33:52Z</time>
      </trkpt>
      <trkpt lat="43.292118" lon="-8.437532">
        <ele>207.5</ele>
        <time>2011-06-25T11:33:53Z</time>
      </trkpt>
      <trkpt lat="43.292145" lon="-8.437515">
        <ele>205.0</ele>
        <time>2011-06-25T11:33:54Z</time>
      </trkpt>
      <trkpt lat="43.292158" lon="-8.437543">
        <ele>206.5</ele>
        <time>2011-06-25T11:33:55Z</time>
      </trkpt>
      <trkpt lat="43.292172" lon="-8.437557">
        <ele>207.0</ele>
        <time>2011-06-25T11:33:56Z</time>
      </trkpt>
      <trkpt lat="43.292183" lon="-8.437570">
        <ele>208.0</ele>
        <time>2011-06-25T11:33:57Z</time>
      </trkpt>
      <trkpt lat="43.292200" lon="-8.437565">
        <ele>207.5</ele>
        <time>2011-06-25T11:33:58Z</time>
      </trkpt>
      <trkpt lat="43.292235" lon="-8.437610">
        <ele>207.0</ele>
        <time>2011-06-25T11:34:00Z</time>
      </trkpt>
      <trkpt lat="43.292250" lon="-8.437628">
        <ele>207.0</ele>
        <time>2011-06-25T11:34:01Z</time>
      </trkpt>
      <trkpt lat="43.292267" lon="-8.437643">
        <ele>207.0</ele>
        <time>2011-06-25T11:34:02Z</time>
      </trkpt>
      <trkpt lat="43.292290" lon="-8.437658">
        <ele>206.0</ele>
        <time>2011-06-25T11:34:03Z</time>
      </trkpt>
      <trkpt lat="43.292315" lon="-8.437678">
        <ele>204.5</ele>
        <time>2011-06-25T11:34:04Z</time>
      </trkpt>
      <trkpt lat="43.292343" lon="-8.437698">
        <ele>203.0</ele>
        <time>2011-06-25T11:34:05Z</time>
      </trkpt>
      <trkpt lat="43.292362" lon="-8.437713">
        <ele>202.5</ele>
        <time>2011-06-25T11:34:06Z</time>
      </trkpt>
      <trkpt lat="43.292377" lon="-8.437725">
        <ele>202.5</ele>
        <time>2011-06-25T11:34:07Z</time>
      </trkpt>
      <trkpt lat="43.292400" lon="-8.437742">
        <ele>201.5</ele>
        <time>2011-06-25T11:34:08Z</time>
      </trkpt>
    </trkseg>
  </trk>
  <trk>
    <name>T2067676-17</name>
    <cmt>saida con compañeiros do C.C.Arteixo polos arredores da Coruña</cmt>
    <desc>saida con compañeiros do C.C.Arteixo polos arredores da Coruña</desc>
    <trkseg>
      <trkpt lat="43.292427" lon="-8.437763">
        <ele>200.0</ele>
        <time>2011-06-25T11:34:09Z</time>
      </trkpt>
      <trkpt lat="43.292457" lon="-8.437788">
        <ele>198.5</ele>
        <time>2011-06-25T11:34:10Z</time>
      </trkpt>
      <trkpt lat="43.292467" lon="-8.437783">
        <ele>199.5</ele>
        <time>2011-06-25T11:34:11Z</time>
      </trkpt>
      <trkpt lat="43.292520" lon="-8.437843">
        <ele>198.5</ele>
        <time>2011-06-25T11:34:13Z</time>
      </trkpt>
      <trkpt lat="43.292550" lon="-8.437868">
        <ele>197.5</ele>
        <time>2011-06-25T11:34:14Z</time>
      </trkpt>
      <trkpt lat="43.292617" lon="-8.437923">
        <ele>196.0</ele>
        <time>2011-06-25T11:34:16Z</time>
      </trkpt>
      <trkpt lat="43.292635" lon="-8.437945">
        <ele>196.5</ele>
        <time>2011-06-25T11:34:17Z</time>
      </trkpt>
      <trkpt lat="43.292660" lon="-8.437963">
        <ele>196.0</ele>
        <time>2011-06-25T11:34:18Z</time>
      </trkpt>
      <trkpt lat="43.292683" lon="-8.437980">
        <ele>196.0</ele>
        <time>2011-06-25T11:34:19Z</time>
      </trkpt>
      <trkpt lat="43.292710" lon="-8.438000">
        <ele>196.0</ele>
        <time>2011-06-25T11:34:20Z</time>
      </trkpt>
      <trkpt lat="43.292738" lon="-8.438025">
        <ele>194.5</ele>
        <time>2011-06-25T11:34:21Z</time>
      </trkpt>
      <trkpt lat="43.292767" lon="-8.438048">
        <ele>193.5</ele>
        <time>2011-06-25T11:34:22Z</time>
      </trkpt>
      <trkpt lat="43.292785" lon="-8.438067">
        <ele>194.0</ele>
        <time>2011-06-25T11:34:23Z</time>
      </trkpt>
      <trkpt lat="43.292805" lon="-8.438087">
        <ele>193.5</ele>
        <time>2011-06-25T11:34:24Z</time>
      </trkpt>
      <trkpt lat="43.292828" lon="-8.438108">
        <ele>193.0</ele>
        <time>2011-06-25T11:34:25Z</time>
      </trkpt>
      <trkpt lat="43.292852" lon="-8.438137">
        <ele>192.0</ele>
        <time>2011-06-25T11:34:26Z</time>
      </trkpt>
      <trkpt lat="43.292870" lon="-8.438157">
        <ele>192.0</ele>
        <time>2011-06-25T11:34:27Z</time>
      </trkpt>
      <trkpt lat="43.292888" lon="-8.438182">
        <ele>191.5</ele>
        <time>2011-06-25T11:34:28Z</time>
      </trkpt>
      <trkpt lat="43.292905" lon="-8.438205">
        <ele>191.0</ele>
        <time>2011-06-25T11:34:29Z</time>
      </trkpt>
      <trkpt lat="43.292923" lon="-8.438235">
        <ele>190.5</ele>
        <time>2011-06-25T11:34:30Z</time>
      </trkpt>
      <trkpt lat="43.292935" lon="-8.438258">
        <ele>190.0</ele>
        <time>2011-06-25T11:34:31Z</time>
      </trkpt>
      <trkpt lat="43.292945" lon="-8.438273">
        <ele>190.5</ele>
        <time>2011-06-25T11:34:32Z</time>
      </trkpt>
      <trkpt lat="43.292963" lon="-8.438285">
        <ele>191.0</ele>
        <time>2011-06-25T11:34:33Z</time>
      </trkpt>
      <trkpt lat="43.293013" lon="-8.438295">
        <ele>190.0</ele>
        <time>2011-06-25T11:34:35Z</time>
      </trkpt>
      <trkpt lat="43.293030" lon="-8.438287">
        <ele>190.5</ele>
        <time>2011-06-25T11:34:36Z</time>
      </trkpt>
      <trkpt lat="43.293045" lon="-8.438277">
        <ele>190.5</ele>
        <time>2011-06-25T11:34:37Z</time>
      </trkpt>
      <trkpt lat="43.293062" lon="-8.438263">
        <ele>191.0</ele>
        <time>2011-06-25T11:34:38Z</time>
      </trkpt>
      <trkpt lat="43.293072" lon="-8.438252">
        <ele>191.5</ele>
        <time>2011-06-25T11:34:39Z</time>
      </trkpt>
      <trkpt lat="43.293083" lon="-8.438240">
        <ele>192.0</ele>
        <time>2011-06-25T11:34:40Z</time>
      </trkpt>
      <trkpt lat="43.293098" lon="-8.438233">
        <ele>192.0</ele>
        <time>2011-06-25T11:34:41Z</time>
      </trkpt>
      <trkpt lat="43.293112" lon="-8.438227">
        <ele>192.0</ele>
        <time>2011-06-25T11:34:42Z</time>
      </trkpt>
      <trkpt lat="43.293122" lon="-8.438220">
        <ele>192.0</ele>
        <time>2011-06-25T11:34:43Z</time>
      </trkpt>
      <trkpt lat="43.293130" lon="-8.438212">
        <ele>191.5</ele>
        <time>2011-06-25T11:34:44Z</time>
      </trkpt>
      <trkpt lat="43.293135" lon="-8.438192">
        <ele>192.0</ele>
        <time>2011-06-25T11:34:45Z</time>
      </trkpt>
      <trkpt lat="43.293150" lon="-8.438173">
        <ele>191.5</ele>
        <time>2011-06-25T11:34:46Z</time>
      </trkpt>
      <trkpt lat="43.293152" lon="-8.438165">
        <ele>191.5</ele>
        <time>2011-06-25T11:34:47Z</time>
      </trkpt>
      <trkpt lat="43.293153" lon="-8.438147">
        <ele>192.5</ele>
        <time>2011-06-25T11:34:48Z</time>
      </trkpt>
      <trkpt lat="43.293153" lon="-8.438127">
        <ele>193.0</ele>
        <time>2011-06-25T11:34:49Z</time>
      </trkpt>
      <trkpt lat="43.293155" lon="-8.438110">
        <ele>194.0</ele>
        <time>2011-06-25T11:34:50Z</time>
      </trkpt>
      <trkpt lat="43.293157" lon="-8.438090">
        <ele>194.5</ele>
        <time>2011-06-25T11:34:51Z</time>
      </trkpt>
      <trkpt lat="43.293157" lon="-8.438073">
        <ele>195.5</ele>
        <time>2011-06-25T11:34:52Z</time>
      </trkpt>
      <trkpt lat="43.293158" lon="-8.438058">
        <ele>196.5</ele>
        <time>2011-06-25T11:34:53Z</time>
      </trkpt>
      <trkpt lat="43.293162" lon="-8.438042">
        <ele>197.5</ele>
        <time>2011-06-25T11:34:54Z</time>
      </trkpt>
      <trkpt lat="43.293163" lon="-8.438028">
        <ele>198.5</ele>
        <time>2011-06-25T11:34:55Z</time>
      </trkpt>
      <trkpt lat="43.293170" lon="-8.438017">
        <ele>199.0</ele>
        <time>2011-06-25T11:34:56Z</time>
      </trkpt>
      <trkpt lat="43.293178" lon="-8.438012">
        <ele>199.0</ele>
        <time>2011-06-25T11:34:57Z</time>
      </trkpt>
      <trkpt lat="43.293202" lon="-8.438028">
        <ele>197.5</ele>
        <time>2011-06-25T11:34:58Z</time>
      </trkpt>
      <trkpt lat="43.293210" lon="-8.438038">
        <ele>199.0</ele>
        <time>2011-06-25T11:34:59Z</time>
      </trkpt>
      <trkpt lat="43.293223" lon="-8.438047">
        <ele>198.5</ele>
        <time>2011-06-25T11:35:00Z</time>
      </trkpt>
      <trkpt lat="43.293233" lon="-8.438060">
        <ele>199.5</ele>
        <time>2011-06-25T11:35:01Z</time>
      </trkpt>
      <trkpt lat="43.293247" lon="-8.438072">
        <ele>199.5</ele>
        <time>2011-06-25T11:35:02Z</time>
      </trkpt>
      <trkpt lat="43.293257" lon="-8.438080">
        <ele>200.5</ele>
        <time>2011-06-25T11:35:03Z</time>
      </trkpt>
      <trkpt lat="43.293267" lon="-8.438088">
        <ele>201.0</ele>
        <time>2011-06-25T11:35:04Z</time>
      </trkpt>
      <trkpt lat="43.293273" lon="-8.438093">
        <ele>202.0</ele>
        <time>2011-06-25T11:35:05Z</time>
      </trkpt>
      <trkpt lat="43.293285" lon="-8.438102">
        <ele>202.0</ele>
        <time>2011-06-25T11:35:06Z</time>
      </trkpt>
      <trkpt lat="43.293295" lon="-8.438115">
        <ele>202.0</ele>
        <time>2011-06-25T11:35:07Z</time>
      </trkpt>
      <trkpt lat="43.293310" lon="-8.438125">
        <ele>201.0</ele>
        <time>2011-06-25T11:35:08Z</time>
      </trkpt>
      <trkpt lat="43.293325" lon="-8.438135">
        <ele>200.5</ele>
        <time>2011-06-25T11:35:09Z</time>
      </trkpt>
      <trkpt lat="43.293342" lon="-8.438155">
        <ele>200.5</ele>
        <time>2011-06-25T11:35:10Z</time>
      </trkpt>
      <trkpt lat="43.293355" lon="-8.438175">
        <ele>200.0</ele>
        <time>2011-06-25T11:35:11Z</time>
      </trkpt>
      <trkpt lat="43.293363" lon="-8.438187">
        <ele>200.5</ele>
        <time>2011-06-25T11:35:12Z</time>
      </trkpt>
      <trkpt lat="43.293373" lon="-8.438198">
        <ele>201.5</ele>
        <time>2011-06-25T11:35:13Z</time>
      </trkpt>
      <trkpt lat="43.293387" lon="-8.438213">
        <ele>202.0</ele>
        <time>2011-06-25T11:35:14Z</time>
      </trkpt>
      <trkpt lat="43.293397" lon="-8.438225">
        <ele>202.5</ele>
        <time>2011-06-25T11:35:15Z</time>
      </trkpt>
      <trkpt lat="43.293412" lon="-8.438250">
        <ele>202.5</ele>
        <time>2011-06-25T11:35:16Z</time>
      </trkpt>
      <trkpt lat="43.293423" lon="-8.438260">
        <ele>203.5</ele>
        <time>2011-06-25T11:35:17Z</time>
      </trkpt>
      <trkpt lat="43.293433" lon="-8.438272">
        <ele>204.0</ele>
        <time>2011-06-25T11:35:18Z</time>
      </trkpt>
      <trkpt lat="43.293443" lon="-8.438285">
        <ele>205.0</ele>
        <time>2011-06-25T11:35:19Z</time>
      </trkpt>
      <trkpt lat="43.293450" lon="-8.438293">
        <ele>205.5</ele>
        <time>2011-06-25T11:35:20Z</time>
      </trkpt>
      <trkpt lat="43.293458" lon="-8.438302">
        <ele>206.0</ele>
        <time>2011-06-25T11:35:21Z</time>
      </trkpt>
      <trkpt lat="43.293472" lon="-8.438315">
        <ele>205.5</ele>
        <time>2011-06-25T11:35:22Z</time>
      </trkpt>
      <trkpt lat="43.293477" lon="-8.438323">
        <ele>207.0</ele>
        <time>2011-06-25T11:35:23Z</time>
      </trkpt>
      <trkpt lat="43.293478" lon="-8.438335">
        <ele>207.0</ele>
        <time>2011-06-25T11:35:24Z</time>
      </trkpt>
      <trkpt lat="43.293478" lon="-8.438343">
        <ele>208.5</ele>
        <time>2011-06-25T11:35:25Z</time>
      </trkpt>
      <trkpt lat="43.293480" lon="-8.438362">
        <ele>209.0</ele>
        <time>2011-06-25T11:35:26Z</time>
      </trkpt>
      <trkpt lat="43.293483" lon="-8.438377">
        <ele>211.0</ele>
        <time>2011-06-25T11:35:27Z</time>
      </trkpt>
      <trkpt lat="43.293487" lon="-8.438402">
        <ele>210.5</ele>
        <time>2011-06-25T11:35:28Z</time>
      </trkpt>
      <trkpt lat="43.293485" lon="-8.438415">
        <ele>211.0</ele>
        <time>2011-06-25T11:35:29Z</time>
      </trkpt>
      <trkpt lat="43.293480" lon="-8.438428">
        <ele>211.0</ele>
        <time>2011-06-25T11:35:30Z</time>
      </trkpt>
      <trkpt lat="43.293475" lon="-8.438443">
        <ele>210.5</ele>
        <time>2011-06-25T11:35:31Z</time>
      </trkpt>
      <trkpt lat="43.293465" lon="-8.438455">
        <ele>210.5</ele>
        <time>2011-06-25T11:35:32Z</time>
      </trkpt>
      <trkpt lat="43.293460" lon="-8.438467">
        <ele>211.0</ele>
        <time>2011-06-25T11:35:33Z</time>
      </trkpt>
      <trkpt lat="43.293458" lon="-8.438477">
        <ele>211.0</ele>
        <time>2011-06-25T11:35:34Z</time>
      </trkpt>
      <trkpt lat="43.293457" lon="-8.438480">
        <ele>210.5</ele>
        <time>2011-06-25T11:35:35Z</time>
      </trkpt>
      <trkpt lat="43.293503" lon="-8.438497">
        <ele>208.0</ele>
        <time>2011-06-25T11:35:37Z</time>
      </trkpt>
      <trkpt lat="43.293505" lon="-8.438497">
        <ele>208.0</ele>
        <time>2011-06-25T11:35:38Z</time>
      </trkpt>
      <trkpt lat="43.293505" lon="-8.438498">
        <ele>208.0</ele>
        <time>2011-06-25T11:35:39Z</time>
      </trkpt>
      <trkpt lat="43.293510" lon="-8.438503">
        <ele>208.0</ele>
        <time>2011-06-25T11:35:40Z</time>
      </trkpt>
      <trkpt lat="43.293515" lon="-8.438508">
        <ele>207.5</ele>
        <time>2011-06-25T11:35:41Z</time>
      </trkpt>
      <trkpt lat="43.293522" lon="-8.438522">
        <ele>206.5</ele>
        <time>2011-06-25T11:35:42Z</time>
      </trkpt>
      <trkpt lat="43.293520" lon="-8.438527">
        <ele>206.5</ele>
        <time>2011-06-25T11:35:43Z</time>
      </trkpt>
      <trkpt lat="43.293523" lon="-8.438532">
        <ele>206.0</ele>
        <time>2011-06-25T11:35:44Z</time>
      </trkpt>
      <trkpt lat="43.293523" lon="-8.438535">
        <ele>206.5</ele>
        <time>2011-06-25T11:35:45Z</time>
      </trkpt>
      <trkpt lat="43.293522" lon="-8.438535">
        <ele>206.5</ele>
        <time>2011-06-25T11:35:46Z</time>
      </trkpt>
      <trkpt lat="43.293525" lon="-8.438537">
        <ele>206.5</ele>
        <time>2011-06-25T11:35:47Z</time>
      </trkpt>
      <trkpt lat="43.293528" lon="-8.438538">
        <ele>206.5</ele>
        <time>2011-06-25T11:35:48Z</time>
      </trkpt>
      <trkpt lat="43.293533" lon="-8.438540">
        <ele>206.0</ele>
        <time>2011-06-25T11:35:49Z</time>
      </trkpt>
      <trkpt lat="43.293533" lon="-8.438540">
        <ele>206.0</ele>
        <time>2011-06-25T11:35:50Z</time>
      </trkpt>
      <trkpt lat="43.293533" lon="-8.438540">
        <ele>206.0</ele>
        <time>2011-06-25T11:35:51Z</time>
      </trkpt>
      <trkpt lat="43.293533" lon="-8.438540">
        <ele>206.0</ele>
        <time>2011-06-25T11:35:52Z</time>
      </trkpt>
      <trkpt lat="43.293537" lon="-8.438540">
        <ele>206.0</ele>
        <time>2011-06-25T11:35:53Z</time>
      </trkpt>
      <trkpt lat="43.293540" lon="-8.438542">
        <ele>206.0</ele>
        <time>2011-06-25T11:35:54Z</time>
      </trkpt>
      <trkpt lat="43.293543" lon="-8.438543">
        <ele>205.5</ele>
        <time>2011-06-25T11:35:55Z</time>
      </trkpt>
      <trkpt lat="43.293543" lon="-8.438542">
        <ele>205.5</ele>
        <time>2011-06-25T11:35:56Z</time>
      </trkpt>
      <trkpt lat="43.293543" lon="-8.438543">
        <ele>205.5</ele>
        <time>2011-06-25T11:35:57Z</time>
      </trkpt>
      <trkpt lat="43.293543" lon="-8.438542">
        <ele>205.5</ele>
        <time>2011-06-25T11:35:58Z</time>
      </trkpt>
      <trkpt lat="43.293543" lon="-8.438542">
        <ele>205.0</ele>
        <time>2011-06-25T11:35:59Z</time>
      </trkpt>
      <trkpt lat="43.293543" lon="-8.438542">
        <ele>205.5</ele>
        <time>2011-06-25T11:36:00Z</time>
      </trkpt>
      <trkpt lat="43.293545" lon="-8.438543">
        <ele>205.0</ele>
        <time>2011-06-25T11:36:01Z</time>
      </trkpt>
      <trkpt lat="43.293557" lon="-8.438543">
        <ele>205.0</ele>
        <time>2011-06-25T11:36:02Z</time>
      </trkpt>
      <trkpt lat="43.293565" lon="-8.438545">
        <ele>204.5</ele>
        <time>2011-06-25T11:36:03Z</time>
      </trkpt>
      <trkpt lat="43.293568" lon="-8.438547">
        <ele>204.0</ele>
        <time>2011-06-25T11:36:04Z</time>
      </trkpt>
      <trkpt lat="43.293573" lon="-8.438548">
        <ele>204.0</ele>
        <time>2011-06-25T11:36:05Z</time>
      </trkpt>
      <trkpt lat="43.293575" lon="-8.438548">
        <ele>204.0</ele>
        <time>2011-06-25T11:36:06Z</time>
      </trkpt>
      <trkpt lat="43.293577" lon="-8.438550">
        <ele>203.5</ele>
        <time>2011-06-25T11:36:07Z</time>
      </trkpt>
      <trkpt lat="43.293580" lon="-8.438542">
        <ele>203.5</ele>
        <time>2011-06-25T11:36:08Z</time>
      </trkpt>
      <trkpt lat="43.293583" lon="-8.438548">
        <ele>202.5</ele>
        <time>2011-06-25T11:36:09Z</time>
      </trkpt>
      <trkpt lat="43.293587" lon="-8.438550">
        <ele>202.0</ele>
        <time>2011-06-25T11:36:10Z</time>
      </trkpt>
      <trkpt lat="43.293588" lon="-8.438552">
        <ele>202.0</ele>
        <time>2011-06-25T11:36:11Z</time>
      </trkpt>
      <trkpt lat="43.293590" lon="-8.438552">
        <ele>202.0</ele>
        <time>2011-06-25T11:36:12Z</time>
      </trkpt>
      <trkpt lat="43.293592" lon="-8.438553">
        <ele>202.0</ele>
        <time>2011-06-25T11:36:13Z</time>
      </trkpt>
      <trkpt lat="43.293593" lon="-8.438555">
        <ele>202.0</ele>
        <time>2011-06-25T11:36:14Z</time>
      </trkpt>
      <trkpt lat="43.293593" lon="-8.438555">
        <ele>202.0</ele>
        <time>2011-06-25T11:36:15Z</time>
      </trkpt>
      <trkpt lat="43.293593" lon="-8.438557">
        <ele>201.5</ele>
        <time>2011-06-25T11:36:16Z</time>
      </trkpt>
      <trkpt lat="43.293595" lon="-8.438558">
        <ele>201.5</ele>
        <time>2011-06-25T11:36:17Z</time>
      </trkpt>
      <trkpt lat="43.293595" lon="-8.438558">
        <ele>201.5</ele>
        <time>2011-06-25T11:36:18Z</time>
      </trkpt>
      <trkpt lat="43.293597" lon="-8.438560">
        <ele>201.5</ele>
        <time>2011-06-25T11:36:19Z</time>
      </trkpt>
      <trkpt lat="43.293597" lon="-8.438560">
        <ele>201.5</ele>
        <time>2011-06-25T11:36:20Z</time>
      </trkpt>
      <trkpt lat="43.293597" lon="-8.438562">
        <ele>201.5</ele>
        <time>2011-06-25T11:36:21Z</time>
      </trkpt>
      <trkpt lat="43.293597" lon="-8.438562">
        <ele>201.5</ele>
        <time>2011-06-25T11:36:22Z</time>
      </trkpt>
      <trkpt lat="43.293602" lon="-8.438570">
        <ele>201.5</ele>
        <time>2011-06-25T11:36:23Z</time>
      </trkpt>
      <trkpt lat="43.293607" lon="-8.438578">
        <ele>201.5</ele>
        <time>2011-06-25T11:36:24Z</time>
      </trkpt>
      <trkpt lat="43.293610" lon="-8.438578">
        <ele>201.5</ele>
        <time>2011-06-25T11:36:25Z</time>
      </trkpt>
      <trkpt lat="43.293612" lon="-8.438578">
        <ele>201.0</ele>
        <time>2011-06-25T11:36:26Z</time>
      </trkpt>
      <trkpt lat="43.293612" lon="-8.438580">
        <ele>201.0</ele>
        <time>2011-06-25T11:36:27Z</time>
      </trkpt>
      <trkpt lat="43.293613" lon="-8.438582">
        <ele>201.0</ele>
        <time>2011-06-25T11:36:28Z</time>
      </trkpt>
      <trkpt lat="43.293610" lon="-8.438590">
        <ele>200.5</ele>
        <time>2011-06-25T11:36:29Z</time>
      </trkpt>
      <trkpt lat="43.293607" lon="-8.438605">
        <ele>200.5</ele>
        <time>2011-06-25T11:36:30Z</time>
      </trkpt>
      <trkpt lat="43.293607" lon="-8.438618">
        <ele>201.5</ele>
        <time>2011-06-25T11:36:31Z</time>
      </trkpt>
      <trkpt lat="43.293612" lon="-8.438630">
        <ele>202.0</ele>
        <time>2011-06-25T11:36:32Z</time>
      </trkpt>
      <trkpt lat="43.293617" lon="-8.438638">
        <ele>203.5</ele>
        <time>2011-06-25T11:36:33Z</time>
      </trkpt>
      <trkpt lat="43.293618" lon="-8.438655">
        <ele>205.5</ele>
        <time>2011-06-25T11:36:34Z</time>
      </trkpt>
      <trkpt lat="43.293618" lon="-8.438677">
        <ele>206.0</ele>
        <time>2011-06-25T11:36:35Z</time>
      </trkpt>
      <trkpt lat="43.293618" lon="-8.438703">
        <ele>207.5</ele>
        <time>2011-06-25T11:36:36Z</time>
      </trkpt>
      <trkpt lat="43.293612" lon="-8.438725">
        <ele>208.0</ele>
        <time>2011-06-25T11:36:37Z</time>
      </trkpt>
      <trkpt lat="43.293605" lon="-8.438745">
        <ele>208.0</ele>
        <time>2011-06-25T11:36:38Z</time>
      </trkpt>
      <trkpt lat="43.293598" lon="-8.438767">
        <ele>208.0</ele>
        <time>2011-06-25T11:36:39Z</time>
      </trkpt>
      <trkpt lat="43.293592" lon="-8.438788">
        <ele>208.5</ele>
        <time>2011-06-25T11:36:40Z</time>
      </trkpt>
      <trkpt lat="43.293582" lon="-8.438812">
        <ele>208.5</ele>
        <time>2011-06-25T11:36:41Z</time>
      </trkpt>
      <trkpt lat="43.293567" lon="-8.438840">
        <ele>208.5</ele>
        <time>2011-06-25T11:36:42Z</time>
      </trkpt>
      <trkpt lat="43.293545" lon="-8.438873">
        <ele>208.0</ele>
        <time>2011-06-25T11:36:43Z</time>
      </trkpt>
      <trkpt lat="43.293530" lon="-8.438902">
        <ele>208.0</ele>
        <time>2011-06-25T11:36:44Z</time>
      </trkpt>
      <trkpt lat="43.293522" lon="-8.438927">
        <ele>208.0</ele>
        <time>2011-06-25T11:36:45Z</time>
      </trkpt>
      <trkpt lat="43.293505" lon="-8.438947">
        <ele>207.0</ele>
        <time>2011-06-25T11:36:46Z</time>
      </trkpt>
      <trkpt lat="43.293490" lon="-8.438965">
        <ele>205.5</ele>
        <time>2011-06-25T11:36:47Z</time>
      </trkpt>
      <trkpt lat="43.293477" lon="-8.438983">
        <ele>206.0</ele>
        <time>2011-06-25T11:36:48Z</time>
      </trkpt>
      <trkpt lat="43.293473" lon="-8.439002">
        <ele>206.0</ele>
        <time>2011-06-25T11:36:49Z</time>
      </trkpt>
      <trkpt lat="43.293475" lon="-8.439013">
        <ele>208.0</ele>
        <time>2011-06-25T11:36:50Z</time>
      </trkpt>
      <trkpt lat="43.293483" lon="-8.439020">
        <ele>210.0</ele>
        <time>2011-06-25T11:36:51Z</time>
      </trkpt>
      <trkpt lat="43.293488" lon="-8.439035">
        <ele>210.5</ele>
        <time>2011-06-25T11:36:52Z</time>
      </trkpt>
      <trkpt lat="43.293495" lon="-8.439038">
        <ele>212.0</ele>
        <time>2011-06-25T11:36:53Z</time>
      </trkpt>
      <trkpt lat="43.293502" lon="-8.439047">
        <ele>212.0</ele>
        <time>2011-06-25T11:36:54Z</time>
      </trkpt>
      <trkpt lat="43.293502" lon="-8.439053">
        <ele>212.0</ele>
        <time>2011-06-25T11:36:55Z</time>
      </trkpt>
      <trkpt lat="43.293508" lon="-8.439063">
        <ele>211.0</ele>
        <time>2011-06-25T11:36:56Z</time>
      </trkpt>
      <trkpt lat="43.293518" lon="-8.439068">
        <ele>212.0</ele>
        <time>2011-06-25T11:36:57Z</time>
      </trkpt>
      <trkpt lat="43.293527" lon="-8.439078">
        <ele>211.5</ele>
        <time>2011-06-25T11:36:58Z</time>
      </trkpt>
      <trkpt lat="43.293533" lon="-8.439088">
        <ele>211.0</ele>
        <time>2011-06-25T11:36:59Z</time>
      </trkpt>
      <trkpt lat="43.293548" lon="-8.439102">
        <ele>211.5</ele>
        <time>2011-06-25T11:37:00Z</time>
      </trkpt>
      <trkpt lat="43.293563" lon="-8.439122">
        <ele>209.5</ele>
        <time>2011-06-25T11:37:01Z</time>
      </trkpt>
      <trkpt lat="43.293578" lon="-8.439158">
        <ele>208.0</ele>
        <time>2011-06-25T11:37:02Z</time>
      </trkpt>
      <trkpt lat="43.293593" lon="-8.439192">
        <ele>208.0</ele>
        <time>2011-06-25T11:37:03Z</time>
      </trkpt>
      <trkpt lat="43.293610" lon="-8.439228">
        <ele>208.5</ele>
        <time>2011-06-25T11:37:04Z</time>
      </trkpt>
      <trkpt lat="43.293622" lon="-8.439273">
        <ele>206.5</ele>
        <time>2011-06-25T11:37:05Z</time>
      </trkpt>
      <trkpt lat="43.293640" lon="-8.439325">
        <ele>205.0</ele>
        <time>2011-06-25T11:37:06Z</time>
      </trkpt>
      <trkpt lat="43.293667" lon="-8.439385">
        <ele>205.0</ele>
        <time>2011-06-25T11:37:07Z</time>
      </trkpt>
      <trkpt lat="43.293698" lon="-8.439453">
        <ele>204.0</ele>
        <time>2011-06-25T11:37:08Z</time>
      </trkpt>
      <trkpt lat="43.293735" lon="-8.439513">
        <ele>203.0</ele>
        <time>2011-06-25T11:37:09Z</time>
      </trkpt>
      <trkpt lat="43.293787" lon="-8.439562">
        <ele>202.0</ele>
        <time>2011-06-25T11:37:10Z</time>
      </trkpt>
      <trkpt lat="43.293842" lon="-8.439613">
        <ele>201.0</ele>
        <time>2011-06-25T11:37:11Z</time>
      </trkpt>
      <trkpt lat="43.293895" lon="-8.439677">
        <ele>199.5</ele>
        <time>2011-06-25T11:37:12Z</time>
      </trkpt>
      <trkpt lat="43.293948" lon="-8.439753">
        <ele>198.5</ele>
        <time>2011-06-25T11:37:13Z</time>
      </trkpt>
      <trkpt lat="43.294000" lon="-8.439835">
        <ele>197.0</ele>
        <time>2011-06-25T11:37:14Z</time>
      </trkpt>
      <trkpt lat="43.294045" lon="-8.439920">
        <ele>195.5</ele>
        <time>2011-06-25T11:37:15Z</time>
      </trkpt>
      <trkpt lat="43.294093" lon="-8.440007">
        <ele>195.0</ele>
        <time>2011-06-25T11:37:16Z</time>
      </trkpt>
      <trkpt lat="43.294147" lon="-8.440085">
        <ele>194.5</ele>
        <time>2011-06-25T11:37:17Z</time>
      </trkpt>
      <trkpt lat="43.294202" lon="-8.440157">
        <ele>194.0</ele>
        <time>2011-06-25T11:37:18Z</time>
      </trkpt>
      <trkpt lat="43.294255" lon="-8.440248">
        <ele>193.5</ele>
        <time>2011-06-25T11:37:19Z</time>
      </trkpt>
      <trkpt lat="43.294328" lon="-8.440298">
        <ele>193.5</ele>
        <time>2011-06-25T11:37:20Z</time>
      </trkpt>
      <trkpt lat="43.294397" lon="-8.440325">
        <ele>194.0</ele>
        <time>2011-06-25T11:37:21Z</time>
      </trkpt>
      <trkpt lat="43.294457" lon="-8.440377">
        <ele>193.5</ele>
        <time>2011-06-25T11:37:22Z</time>
      </trkpt>
      <trkpt lat="43.294507" lon="-8.440468">
        <ele>195.5</ele>
        <time>2011-06-25T11:37:23Z</time>
      </trkpt>
      <trkpt lat="43.294555" lon="-8.440538">
        <ele>195.0</ele>
        <time>2011-06-25T11:37:24Z</time>
      </trkpt>
      <trkpt lat="43.294623" lon="-8.440575">
        <ele>195.0</ele>
        <time>2011-06-25T11:37:26Z</time>
      </trkpt>
      <trkpt lat="43.294673" lon="-8.440570">
        <ele>194.5</ele>
        <time>2011-06-25T11:37:27Z</time>
      </trkpt>
      <trkpt lat="43.294728" lon="-8.440595">
        <ele>194.0</ele>
        <time>2011-06-25T11:37:28Z</time>
      </trkpt>
      <trkpt lat="43.294770" lon="-8.440627">
        <ele>194.0</ele>
        <time>2011-06-25T11:37:29Z</time>
      </trkpt>
      <trkpt lat="43.294820" lon="-8.440640">
        <ele>194.0</ele>
        <time>2011-06-25T11:37:30Z</time>
      </trkpt>
      <trkpt lat="43.294867" lon="-8.440645">
        <ele>195.0</ele>
        <time>2011-06-25T11:37:31Z</time>
      </trkpt>
      <trkpt lat="43.294892" lon="-8.440673">
        <ele>195.5</ele>
        <time>2011-06-25T11:37:32Z</time>
      </trkpt>
      <trkpt lat="43.294920" lon="-8.440715">
        <ele>195.5</ele>
        <time>2011-06-25T11:37:33Z</time>
      </trkpt>
      <trkpt lat="43.294943" lon="-8.440743">
        <ele>195.5</ele>
        <time>2011-06-25T11:37:34Z</time>
      </trkpt>
      <trkpt lat="43.294962" lon="-8.440777">
        <ele>195.0</ele>
        <time>2011-06-25T11:37:35Z</time>
      </trkpt>
      <trkpt lat="43.294980" lon="-8.440813">
        <ele>194.5</ele>
        <time>2011-06-25T11:37:36Z</time>
      </trkpt>
      <trkpt lat="43.294997" lon="-8.440830">
        <ele>194.5</ele>
        <time>2011-06-25T11:37:37Z</time>
      </trkpt>
      <trkpt lat="43.295007" lon="-8.440852">
        <ele>194.5</ele>
        <time>2011-06-25T11:37:38Z</time>
      </trkpt>
      <trkpt lat="43.295007" lon="-8.440885">
        <ele>194.5</ele>
        <time>2011-06-25T11:37:39Z</time>
      </trkpt>
      <trkpt lat="43.295015" lon="-8.440908">
        <ele>194.5</ele>
        <time>2011-06-25T11:37:40Z</time>
      </trkpt>
      <trkpt lat="43.295027" lon="-8.440950">
        <ele>194.0</ele>
        <time>2011-06-25T11:37:41Z</time>
      </trkpt>
      <trkpt lat="43.295045" lon="-8.440982">
        <ele>193.5</ele>
        <time>2011-06-25T11:37:42Z</time>
      </trkpt>
      <trkpt lat="43.295063" lon="-8.441003">
        <ele>195.5</ele>
        <time>2011-06-25T11:37:43Z</time>
      </trkpt>
      <trkpt lat="43.295083" lon="-8.441023">
        <ele>196.5</ele>
        <time>2011-06-25T11:37:44Z</time>
      </trkpt>
      <trkpt lat="43.295100" lon="-8.441030">
        <ele>198.0</ele>
        <time>2011-06-25T11:37:45Z</time>
      </trkpt>
      <trkpt lat="43.295125" lon="-8.441052">
        <ele>197.5</ele>
        <time>2011-06-25T11:37:46Z</time>
      </trkpt>
      <trkpt lat="43.295142" lon="-8.441067">
        <ele>198.5</ele>
        <time>2011-06-25T11:37:47Z</time>
      </trkpt>
      <trkpt lat="43.295157" lon="-8.441087">
        <ele>199.0</ele>
        <time>2011-06-25T11:37:48Z</time>
      </trkpt>
      <trkpt lat="43.295175" lon="-8.441110">
        <ele>199.5</ele>
        <time>2011-06-25T11:37:49Z</time>
      </trkpt>
      <trkpt lat="43.295193" lon="-8.441137">
        <ele>199.0</ele>
        <time>2011-06-25T11:37:50Z</time>
      </trkpt>
      <trkpt lat="43.295208" lon="-8.441155">
        <ele>199.5</ele>
        <time>2011-06-25T11:37:51Z</time>
      </trkpt>
      <trkpt lat="43.295222" lon="-8.441170">
        <ele>200.5</ele>
        <time>2011-06-25T11:37:52Z</time>
      </trkpt>
      <trkpt lat="43.295237" lon="-8.441185">
        <ele>201.0</ele>
        <time>2011-06-25T11:37:53Z</time>
      </trkpt>
      <trkpt lat="43.295250" lon="-8.441198">
        <ele>202.0</ele>
        <time>2011-06-25T11:37:54Z</time>
      </trkpt>
      <trkpt lat="43.295265" lon="-8.441210">
        <ele>203.0</ele>
        <time>2011-06-25T11:37:55Z</time>
      </trkpt>
      <trkpt lat="43.295275" lon="-8.441222">
        <ele>204.5</ele>
        <time>2011-06-25T11:37:56Z</time>
      </trkpt>
      <trkpt lat="43.295285" lon="-8.441232">
        <ele>206.0</ele>
        <time>2011-06-25T11:37:57Z</time>
      </trkpt>
      <trkpt lat="43.295307" lon="-8.441245">
        <ele>205.5</ele>
        <time>2011-06-25T11:37:58Z</time>
      </trkpt>
      <trkpt lat="43.295320" lon="-8.441253">
        <ele>206.5</ele>
        <time>2011-06-25T11:37:59Z</time>
      </trkpt>
      <trkpt lat="43.295337" lon="-8.441268">
        <ele>205.0</ele>
        <time>2011-06-25T11:38:00Z</time>
      </trkpt>
      <trkpt lat="43.295350" lon="-8.441277">
        <ele>205.0</ele>
        <time>2011-06-25T11:38:01Z</time>
      </trkpt>
      <trkpt lat="43.295368" lon="-8.441297">
        <ele>204.5</ele>
        <time>2011-06-25T11:38:02Z</time>
      </trkpt>
      <trkpt lat="43.295382" lon="-8.441307">
        <ele>204.5</ele>
        <time>2011-06-25T11:38:03Z</time>
      </trkpt>
      <trkpt lat="43.295393" lon="-8.441315">
        <ele>205.5</ele>
        <time>2011-06-25T11:38:04Z</time>
      </trkpt>
      <trkpt lat="43.295407" lon="-8.441318">
        <ele>205.5</ele>
        <time>2011-06-25T11:38:05Z</time>
      </trkpt>
      <trkpt lat="43.295418" lon="-8.441327">
        <ele>206.5</ele>
        <time>2011-06-25T11:38:06Z</time>
      </trkpt>
      <trkpt lat="43.295432" lon="-8.441338">
        <ele>207.0</ele>
        <time>2011-06-25T11:38:07Z</time>
      </trkpt>
      <trkpt lat="43.295443" lon="-8.441352">
        <ele>207.0</ele>
        <time>2011-06-25T11:38:08Z</time>
      </trkpt>
      <trkpt lat="43.295460" lon="-8.441365">
        <ele>207.0</ele>
        <time>2011-06-25T11:38:09Z</time>
      </trkpt>
      <trkpt lat="43.295473" lon="-8.441375">
        <ele>208.0</ele>
        <time>2011-06-25T11:38:10Z</time>
      </trkpt>
      <trkpt lat="43.295485" lon="-8.441382">
        <ele>209.0</ele>
        <time>2011-06-25T11:38:11Z</time>
      </trkpt>
      <trkpt lat="43.295495" lon="-8.441388">
        <ele>210.5</ele>
        <time>2011-06-25T11:38:12Z</time>
      </trkpt>
      <trkpt lat="43.295508" lon="-8.441397">
        <ele>211.0</ele>
        <time>2011-06-25T11:38:13Z</time>
      </trkpt>
      <trkpt lat="43.295520" lon="-8.441407">
        <ele>212.0</ele>
        <time>2011-06-25T11:38:14Z</time>
      </trkpt>
      <trkpt lat="43.295533" lon="-8.441415">
        <ele>212.5</ele>
        <time>2011-06-25T11:38:15Z</time>
      </trkpt>
      <trkpt lat="43.295545" lon="-8.441427">
        <ele>213.5</ele>
        <time>2011-06-25T11:38:16Z</time>
      </trkpt>
      <trkpt lat="43.295555" lon="-8.441437">
        <ele>215.0</ele>
        <time>2011-06-25T11:38:17Z</time>
      </trkpt>
      <trkpt lat="43.295568" lon="-8.441453">
        <ele>214.5</ele>
        <time>2011-06-25T11:38:18Z</time>
      </trkpt>
      <trkpt lat="43.295577" lon="-8.441452">
        <ele>216.0</ele>
        <time>2011-06-25T11:38:19Z</time>
      </trkpt>
      <trkpt lat="43.295592" lon="-8.441463">
        <ele>215.5</ele>
        <time>2011-06-25T11:38:20Z</time>
      </trkpt>
      <trkpt lat="43.295607" lon="-8.441478">
        <ele>215.5</ele>
        <time>2011-06-25T11:38:21Z</time>
      </trkpt>
      <trkpt lat="43.295647" lon="-8.441548">
        <ele>212.0</ele>
        <time>2011-06-25T11:38:23Z</time>
      </trkpt>
      <trkpt lat="43.295657" lon="-8.441553">
        <ele>213.5</ele>
        <time>2011-06-25T11:38:24Z</time>
      </trkpt>
      <trkpt lat="43.295668" lon="-8.441550">
        <ele>215.0</ele>
        <time>2011-06-25T11:38:25Z</time>
      </trkpt>
      <trkpt lat="43.295680" lon="-8.441565">
        <ele>215.0</ele>
        <time>2011-06-25T11:38:26Z</time>
      </trkpt>
      <trkpt lat="43.295693" lon="-8.441578">
        <ele>216.0</ele>
        <time>2011-06-25T11:38:27Z</time>
      </trkpt>
      <trkpt lat="43.295740" lon="-8.441660">
        <ele>215.0</ele>
        <time>2011-06-25T11:38:29Z</time>
      </trkpt>
      <trkpt lat="43.295762" lon="-8.441690">
        <ele>215.5</ele>
        <time>2011-06-25T11:38:30Z</time>
      </trkpt>
      <trkpt lat="43.295787" lon="-8.441720">
        <ele>215.0</ele>
        <time>2011-06-25T11:38:31Z</time>
      </trkpt>
      <trkpt lat="43.295807" lon="-8.441735">
        <ele>216.0</ele>
        <time>2011-06-25T11:38:32Z</time>
      </trkpt>
      <trkpt lat="43.295862" lon="-8.441788">
        <ele>217.0</ele>
        <time>2011-06-25T11:38:34Z</time>
      </trkpt>
      <trkpt lat="43.295923" lon="-8.441847">
        <ele>216.0</ele>
        <time>2011-06-25T11:38:36Z</time>
      </trkpt>
      <trkpt lat="43.295958" lon="-8.441872">
        <ele>216.0</ele>
        <time>2011-06-25T11:38:37Z</time>
      </trkpt>
      <trkpt lat="43.295992" lon="-8.441888">
        <ele>215.5</ele>
        <time>2011-06-25T11:38:38Z</time>
      </trkpt>
      <trkpt lat="43.296010" lon="-8.441907">
        <ele>215.5</ele>
        <time>2011-06-25T11:38:39Z</time>
      </trkpt>
      <trkpt lat="43.296042" lon="-8.441927">
        <ele>214.0</ele>
        <time>2011-06-25T11:38:40Z</time>
      </trkpt>
      <trkpt lat="43.296075" lon="-8.441932">
        <ele>214.5</ele>
        <time>2011-06-25T11:38:41Z</time>
      </trkpt>
      <trkpt lat="43.296122" lon="-8.441943">
        <ele>213.5</ele>
        <time>2011-06-25T11:38:42Z</time>
      </trkpt>
      <trkpt lat="43.296157" lon="-8.441963">
        <ele>210.0</ele>
        <time>2011-06-25T11:38:43Z</time>
      </trkpt>
      <trkpt lat="43.296178" lon="-8.441975">
        <ele>209.5</ele>
        <time>2011-06-25T11:38:44Z</time>
      </trkpt>
      <trkpt lat="43.296200" lon="-8.441982">
        <ele>209.5</ele>
        <time>2011-06-25T11:38:45Z</time>
      </trkpt>
      <trkpt lat="43.296233" lon="-8.441993">
        <ele>209.0</ele>
        <time>2011-06-25T11:38:46Z</time>
      </trkpt>
      <trkpt lat="43.296258" lon="-8.442010">
        <ele>209.0</ele>
        <time>2011-06-25T11:38:47Z</time>
      </trkpt>
      <trkpt lat="43.296288" lon="-8.442037">
        <ele>209.0</ele>
        <time>2011-06-25T11:38:48Z</time>
      </trkpt>
      <trkpt lat="43.296327" lon="-8.442050">
        <ele>208.5</ele>
        <time>2011-06-25T11:38:49Z</time>
      </trkpt>
      <trkpt lat="43.296362" lon="-8.442070">
        <ele>209.5</ele>
        <time>2011-06-25T11:38:50Z</time>
      </trkpt>
      <trkpt lat="43.296397" lon="-8.442098">
        <ele>209.5</ele>
        <time>2011-06-25T11:38:51Z</time>
      </trkpt>
      <trkpt lat="43.296467" lon="-8.442168">
        <ele>208.5</ele>
        <time>2011-06-25T11:38:53Z</time>
      </trkpt>
      <trkpt lat="43.296503" lon="-8.442188">
        <ele>208.0</ele>
        <time>2011-06-25T11:38:54Z</time>
      </trkpt>
      <trkpt lat="43.296537" lon="-8.442198">
        <ele>207.5</ele>
        <time>2011-06-25T11:38:55Z</time>
      </trkpt>
      <trkpt lat="43.296610" lon="-8.442245">
        <ele>208.0</ele>
        <time>2011-06-25T11:38:57Z</time>
      </trkpt>
      <trkpt lat="43.296632" lon="-8.442290">
        <ele>206.0</ele>
        <time>2011-06-25T11:38:58Z</time>
      </trkpt>
      <trkpt lat="43.296643" lon="-8.442315">
        <ele>205.5</ele>
        <time>2011-06-25T11:38:59Z</time>
      </trkpt>
      <trkpt lat="43.296675" lon="-8.442322">
        <ele>205.0</ele>
        <time>2011-06-25T11:39:00Z</time>
      </trkpt>
      <trkpt lat="43.296708" lon="-8.442332">
        <ele>204.5</ele>
        <time>2011-06-25T11:39:01Z</time>
      </trkpt>
      <trkpt lat="43.296742" lon="-8.442363">
        <ele>204.5</ele>
        <time>2011-06-25T11:39:02Z</time>
      </trkpt>
      <trkpt lat="43.296773" lon="-8.442397">
        <ele>204.5</ele>
        <time>2011-06-25T11:39:03Z</time>
      </trkpt>
      <trkpt lat="43.296805" lon="-8.442425">
        <ele>204.0</ele>
        <time>2011-06-25T11:39:04Z</time>
      </trkpt>
      <trkpt lat="43.296842" lon="-8.442467">
        <ele>203.5</ele>
        <time>2011-06-25T11:39:05Z</time>
      </trkpt>
      <trkpt lat="43.296883" lon="-8.442510">
        <ele>204.0</ele>
        <time>2011-06-25T11:39:06Z</time>
      </trkpt>
      <trkpt lat="43.296965" lon="-8.442623">
        <ele>204.0</ele>
        <time>2011-06-25T11:39:08Z</time>
      </trkpt>
      <trkpt lat="43.297060" lon="-8.442708">
        <ele>204.0</ele>
        <time>2011-06-25T11:39:10Z</time>
      </trkpt>
      <trkpt lat="43.297100" lon="-8.442750">
        <ele>203.5</ele>
        <time>2011-06-25T11:39:11Z</time>
      </trkpt>
      <trkpt lat="43.297127" lon="-8.442798">
        <ele>202.5</ele>
        <time>2011-06-25T11:39:12Z</time>
      </trkpt>
      <trkpt lat="43.297217" lon="-8.442900">
        <ele>200.5</ele>
        <time>2011-06-25T11:39:14Z</time>
      </trkpt>
      <trkpt lat="43.297262" lon="-8.442912">
        <ele>200.5</ele>
        <time>2011-06-25T11:39:15Z</time>
      </trkpt>
      <trkpt lat="43.297302" lon="-8.442923">
        <ele>200.0</ele>
        <time>2011-06-25T11:39:16Z</time>
      </trkpt>
      <trkpt lat="43.297345" lon="-8.442942">
        <ele>199.5</ele>
        <time>2011-06-25T11:39:17Z</time>
      </trkpt>
      <trkpt lat="43.297388" lon="-8.442947">
        <ele>200.0</ele>
        <time>2011-06-25T11:39:18Z</time>
      </trkpt>
      <trkpt lat="43.297437" lon="-8.442968">
        <ele>200.5</ele>
        <time>2011-06-25T11:39:19Z</time>
      </trkpt>
      <trkpt lat="43.297470" lon="-8.442995">
        <ele>199.0</ele>
        <time>2011-06-25T11:39:20Z</time>
      </trkpt>
      <trkpt lat="43.297512" lon="-8.443033">
        <ele>201.0</ele>
        <time>2011-06-25T11:39:21Z</time>
      </trkpt>
      <trkpt lat="43.297550" lon="-8.443085">
        <ele>202.5</ele>
        <time>2011-06-25T11:39:22Z</time>
      </trkpt>
      <trkpt lat="43.297585" lon="-8.443137">
        <ele>204.0</ele>
        <time>2011-06-25T11:39:23Z</time>
      </trkpt>
      <trkpt lat="43.297627" lon="-8.443182">
        <ele>204.5</ele>
        <time>2011-06-25T11:39:24Z</time>
      </trkpt>
      <trkpt lat="43.297655" lon="-8.443222">
        <ele>205.0</ele>
        <time>2011-06-25T11:39:25Z</time>
      </trkpt>
      <trkpt lat="43.297683" lon="-8.443262">
        <ele>205.5</ele>
        <time>2011-06-25T11:39:26Z</time>
      </trkpt>
      <trkpt lat="43.297717" lon="-8.443295">
        <ele>205.5</ele>
        <time>2011-06-25T11:39:27Z</time>
      </trkpt>
      <trkpt lat="43.297748" lon="-8.443335">
        <ele>205.5</ele>
        <time>2011-06-25T11:39:28Z</time>
      </trkpt>
      <trkpt lat="43.297780" lon="-8.443377">
        <ele>205.0</ele>
        <time>2011-06-25T11:39:29Z</time>
      </trkpt>
      <trkpt lat="43.297805" lon="-8.443408">
        <ele>205.0</ele>
        <time>2011-06-25T11:39:30Z</time>
      </trkpt>
      <trkpt lat="43.297832" lon="-8.443440">
        <ele>205.0</ele>
        <time>2011-06-25T11:39:31Z</time>
      </trkpt>
      <trkpt lat="43.297857" lon="-8.443480">
        <ele>206.0</ele>
        <time>2011-06-25T11:39:32Z</time>
      </trkpt>
      <trkpt lat="43.297923" lon="-8.443612">
        <ele>207.0</ele>
        <time>2011-06-25T11:39:34Z</time>
      </trkpt>
      <trkpt lat="43.297990" lon="-8.443737">
        <ele>206.0</ele>
        <time>2011-06-25T11:39:36Z</time>
      </trkpt>
      <trkpt lat="43.298023" lon="-8.443778">
        <ele>206.5</ele>
        <time>2011-06-25T11:39:37Z</time>
      </trkpt>
      <trkpt lat="43.298048" lon="-8.443813">
        <ele>207.0</ele>
        <time>2011-06-25T11:39:38Z</time>
      </trkpt>
      <trkpt lat="43.298127" lon="-8.443980">
        <ele>203.5</ele>
        <time>2011-06-25T11:39:40Z</time>
      </trkpt>
      <trkpt lat="43.298173" lon="-8.444028">
        <ele>203.5</ele>
        <time>2011-06-25T11:39:41Z</time>
      </trkpt>
      <trkpt lat="43.298232" lon="-8.444058">
        <ele>203.5</ele>
        <time>2011-06-25T11:39:42Z</time>
      </trkpt>
      <trkpt lat="43.298287" lon="-8.444022">
        <ele>201.0</ele>
        <time>2011-06-25T11:39:44Z</time>
      </trkpt>
      <trkpt lat="43.298335" lon="-8.444003">
        <ele>199.5</ele>
        <time>2011-06-25T11:39:45Z</time>
      </trkpt>
      <trkpt lat="43.298425" lon="-8.444088">
        <ele>190.5</ele>
        <time>2011-06-25T11:39:47Z</time>
      </trkpt>
      <trkpt lat="43.298462" lon="-8.444095">
        <ele>189.5</ele>
        <time>2011-06-25T11:39:48Z</time>
      </trkpt>
      <trkpt lat="43.298503" lon="-8.444087">
        <ele>189.0</ele>
        <time>2011-06-25T11:39:49Z</time>
      </trkpt>
      <trkpt lat="43.298545" lon="-8.444083">
        <ele>187.5</ele>
        <time>2011-06-25T11:39:50Z</time>
      </trkpt>
      <trkpt lat="43.298578" lon="-8.444070">
        <ele>186.5</ele>
        <time>2011-06-25T11:39:51Z</time>
      </trkpt>
      <trkpt lat="43.298608" lon="-8.444048">
        <ele>187.0</ele>
        <time>2011-06-25T11:39:52Z</time>
      </trkpt>
      <trkpt lat="43.298633" lon="-8.444042">
        <ele>185.0</ele>
        <time>2011-06-25T11:39:53Z</time>
      </trkpt>
      <trkpt lat="43.298662" lon="-8.444040">
        <ele>183.0</ele>
        <time>2011-06-25T11:39:54Z</time>
      </trkpt>
      <trkpt lat="43.298702" lon="-8.444035">
        <ele>181.5</ele>
        <time>2011-06-25T11:39:55Z</time>
      </trkpt>
      <trkpt lat="43.298727" lon="-8.444017">
        <ele>181.5</ele>
        <time>2011-06-25T11:39:56Z</time>
      </trkpt>
      <trkpt lat="43.298747" lon="-8.444002">
        <ele>181.5</ele>
        <time>2011-06-25T11:39:57Z</time>
      </trkpt>
      <trkpt lat="43.298758" lon="-8.443997">
        <ele>181.5</ele>
        <time>2011-06-25T11:39:58Z</time>
      </trkpt>
      <trkpt lat="43.298772" lon="-8.443990">
        <ele>181.0</ele>
        <time>2011-06-25T11:39:59Z</time>
      </trkpt>
      <trkpt lat="43.298802" lon="-8.443975">
        <ele>180.0</ele>
        <time>2011-06-25T11:40:00Z</time>
      </trkpt>
      <trkpt lat="43.298830" lon="-8.443960">
        <ele>178.5</ele>
        <time>2011-06-25T11:40:01Z</time>
      </trkpt>
      <trkpt lat="43.298860" lon="-8.443947">
        <ele>177.5</ele>
        <time>2011-06-25T11:40:02Z</time>
      </trkpt>
      <trkpt lat="43.298888" lon="-8.443937">
        <ele>176.5</ele>
        <time>2011-06-25T11:40:03Z</time>
      </trkpt>
      <trkpt lat="43.298908" lon="-8.443913">
        <ele>176.5</ele>
        <time>2011-06-25T11:40:04Z</time>
      </trkpt>
      <trkpt lat="43.298933" lon="-8.443897">
        <ele>175.5</ele>
        <time>2011-06-25T11:40:05Z</time>
      </trkpt>
      <trkpt lat="43.298965" lon="-8.443883">
        <ele>175.5</ele>
        <time>2011-06-25T11:40:06Z</time>
      </trkpt>
      <trkpt lat="43.298995" lon="-8.443870">
        <ele>176.0</ele>
        <time>2011-06-25T11:40:07Z</time>
      </trkpt>
      <trkpt lat="43.299025" lon="-8.443867">
        <ele>176.5</ele>
        <time>2011-06-25T11:40:08Z</time>
      </trkpt>
      <trkpt lat="43.299052" lon="-8.443855">
        <ele>175.5</ele>
        <time>2011-06-25T11:40:09Z</time>
      </trkpt>
      <trkpt lat="43.299083" lon="-8.443843">
        <ele>174.5</ele>
        <time>2011-06-25T11:40:10Z</time>
      </trkpt>
      <trkpt lat="43.299107" lon="-8.443828">
        <ele>174.0</ele>
        <time>2011-06-25T11:40:11Z</time>
      </trkpt>
      <trkpt lat="43.299133" lon="-8.443815">
        <ele>173.5</ele>
        <time>2011-06-25T11:40:12Z</time>
      </trkpt>
      <trkpt lat="43.299163" lon="-8.443798">
        <ele>173.0</ele>
        <time>2011-06-25T11:40:13Z</time>
      </trkpt>
      <trkpt lat="43.299200" lon="-8.443785">
        <ele>173.0</ele>
        <time>2011-06-25T11:40:14Z</time>
      </trkpt>
      <trkpt lat="43.299230" lon="-8.443762">
        <ele>172.5</ele>
        <time>2011-06-25T11:40:15Z</time>
      </trkpt>
      <trkpt lat="43.299268" lon="-8.443742">
        <ele>172.5</ele>
        <time>2011-06-25T11:40:16Z</time>
      </trkpt>
      <trkpt lat="43.299302" lon="-8.443720">
        <ele>172.5</ele>
        <time>2011-06-25T11:40:17Z</time>
      </trkpt>
      <trkpt lat="43.299335" lon="-8.443693">
        <ele>172.5</ele>
        <time>2011-06-25T11:40:18Z</time>
      </trkpt>
      <trkpt lat="43.299370" lon="-8.443662">
        <ele>172.5</ele>
        <time>2011-06-25T11:40:19Z</time>
      </trkpt>
      <trkpt lat="43.299402" lon="-8.443627">
        <ele>172.5</ele>
        <time>2011-06-25T11:40:20Z</time>
      </trkpt>
      <trkpt lat="43.299435" lon="-8.443590">
        <ele>173.0</ele>
        <time>2011-06-25T11:40:21Z</time>
      </trkpt>
      <trkpt lat="43.299467" lon="-8.443552">
        <ele>172.5</ele>
        <time>2011-06-25T11:40:22Z</time>
      </trkpt>
      <trkpt lat="43.299498" lon="-8.443513">
        <ele>173.0</ele>
        <time>2011-06-25T11:40:23Z</time>
      </trkpt>
      <trkpt lat="43.299523" lon="-8.443472">
        <ele>173.5</ele>
        <time>2011-06-25T11:40:24Z</time>
      </trkpt>
      <trkpt lat="43.299543" lon="-8.443428">
        <ele>173.5</ele>
        <time>2011-06-25T11:40:25Z</time>
      </trkpt>
      <trkpt lat="43.299592" lon="-8.443398">
        <ele>175.0</ele>
        <time>2011-06-25T11:40:26Z</time>
      </trkpt>
      <trkpt lat="43.299642" lon="-8.443370">
        <ele>176.0</ele>
        <time>2011-06-25T11:40:27Z</time>
      </trkpt>
      <trkpt lat="43.299730" lon="-8.443300">
        <ele>177.0</ele>
        <time>2011-06-25T11:40:29Z</time>
      </trkpt>
      <trkpt lat="43.299758" lon="-8.443253">
        <ele>177.0</ele>
        <time>2011-06-25T11:40:30Z</time>
      </trkpt>
      <trkpt lat="43.299783" lon="-8.443212">
        <ele>177.5</ele>
        <time>2011-06-25T11:40:31Z</time>
      </trkpt>
      <trkpt lat="43.299815" lon="-8.443170">
        <ele>177.5</ele>
        <time>2011-06-25T11:40:32Z</time>
      </trkpt>
      <trkpt lat="43.299848" lon="-8.443128">
        <ele>178.5</ele>
        <time>2011-06-25T11:40:33Z</time>
      </trkpt>
      <trkpt lat="43.299882" lon="-8.443087">
        <ele>178.0</ele>
        <time>2011-06-25T11:40:34Z</time>
      </trkpt>
      <trkpt lat="43.299915" lon="-8.443052">
        <ele>178.0</ele>
        <time>2011-06-25T11:40:35Z</time>
      </trkpt>
      <trkpt lat="43.299963" lon="-8.443017">
        <ele>178.0</ele>
        <time>2011-06-25T11:40:36Z</time>
      </trkpt>
      <trkpt lat="43.300008" lon="-8.443002">
        <ele>178.5</ele>
        <time>2011-06-25T11:40:37Z</time>
      </trkpt>
      <trkpt lat="43.300048" lon="-8.442960">
        <ele>180.0</ele>
        <time>2011-06-25T11:40:39Z</time>
      </trkpt>
      <trkpt lat="43.300063" lon="-8.442940">
        <ele>180.0</ele>
        <time>2011-06-25T11:40:40Z</time>
      </trkpt>
      <trkpt lat="43.300078" lon="-8.442918">
        <ele>180.0</ele>
        <time>2011-06-25T11:40:41Z</time>
      </trkpt>
      <trkpt lat="43.300100" lon="-8.442900">
        <ele>180.0</ele>
        <time>2011-06-25T11:40:42Z</time>
      </trkpt>
      <trkpt lat="43.300125" lon="-8.442887">
        <ele>180.5</ele>
        <time>2011-06-25T11:40:43Z</time>
      </trkpt>
      <trkpt lat="43.300160" lon="-8.442880">
        <ele>179.5</ele>
        <time>2011-06-25T11:40:44Z</time>
      </trkpt>
      <trkpt lat="43.300205" lon="-8.442887">
        <ele>179.0</ele>
        <time>2011-06-25T11:40:45Z</time>
      </trkpt>
      <trkpt lat="43.300258" lon="-8.442905">
        <ele>178.5</ele>
        <time>2011-06-25T11:40:46Z</time>
      </trkpt>
      <trkpt lat="43.300315" lon="-8.442933">
        <ele>177.5</ele>
        <time>2011-06-25T11:40:47Z</time>
      </trkpt>
      <trkpt lat="43.300370" lon="-8.442970">
        <ele>178.5</ele>
        <time>2011-06-25T11:40:48Z</time>
      </trkpt>
      <trkpt lat="43.300430" lon="-8.443015">
        <ele>177.5</ele>
        <time>2011-06-25T11:40:49Z</time>
      </trkpt>
      <trkpt lat="43.300487" lon="-8.443062">
        <ele>177.0</ele>
        <time>2011-06-25T11:40:50Z</time>
      </trkpt>
      <trkpt lat="43.300542" lon="-8.443113">
        <ele>176.0</ele>
        <time>2011-06-25T11:40:51Z</time>
      </trkpt>
      <trkpt lat="43.300588" lon="-8.443182">
        <ele>176.0</ele>
        <time>2011-06-25T11:40:52Z</time>
      </trkpt>
      <trkpt lat="43.300635" lon="-8.443250">
        <ele>176.5</ele>
        <time>2011-06-25T11:40:53Z</time>
      </trkpt>
      <trkpt lat="43.300682" lon="-8.443317">
        <ele>176.0</ele>
        <time>2011-06-25T11:40:54Z</time>
      </trkpt>
      <trkpt lat="43.300728" lon="-8.443388">
        <ele>176.0</ele>
        <time>2011-06-25T11:40:55Z</time>
      </trkpt>
      <trkpt lat="43.300777" lon="-8.443467">
        <ele>176.5</ele>
        <time>2011-06-25T11:40:56Z</time>
      </trkpt>
      <trkpt lat="43.300822" lon="-8.443552">
        <ele>177.0</ele>
        <time>2011-06-25T11:40:57Z</time>
      </trkpt>
      <trkpt lat="43.300862" lon="-8.443638">
        <ele>177.0</ele>
        <time>2011-06-25T11:40:58Z</time>
      </trkpt>
      <trkpt lat="43.300900" lon="-8.443722">
        <ele>178.5</ele>
        <time>2011-06-25T11:40:59Z</time>
      </trkpt>
      <trkpt lat="43.300942" lon="-8.443808">
        <ele>179.0</ele>
        <time>2011-06-25T11:41:00Z</time>
      </trkpt>
      <trkpt lat="43.300992" lon="-8.443895">
        <ele>179.0</ele>
        <time>2011-06-25T11:41:01Z</time>
      </trkpt>
      <trkpt lat="43.301045" lon="-8.443983">
        <ele>179.0</ele>
        <time>2011-06-25T11:41:02Z</time>
      </trkpt>
      <trkpt lat="43.301098" lon="-8.444070">
        <ele>179.5</ele>
        <time>2011-06-25T11:41:03Z</time>
      </trkpt>
      <trkpt lat="43.301157" lon="-8.444147">
        <ele>180.5</ele>
        <time>2011-06-25T11:41:04Z</time>
      </trkpt>
      <trkpt lat="43.301218" lon="-8.444222">
        <ele>181.0</ele>
        <time>2011-06-25T11:41:05Z</time>
      </trkpt>
      <trkpt lat="43.301280" lon="-8.444293">
        <ele>182.0</ele>
        <time>2011-06-25T11:41:06Z</time>
      </trkpt>
      <trkpt lat="43.301337" lon="-8.444368">
        <ele>182.5</ele>
        <time>2011-06-25T11:41:07Z</time>
      </trkpt>
      <trkpt lat="43.301375" lon="-8.444453">
        <ele>184.5</ele>
        <time>2011-06-25T11:41:08Z</time>
      </trkpt>
      <trkpt lat="43.301420" lon="-8.444542">
        <ele>184.5</ele>
        <time>2011-06-25T11:41:09Z</time>
      </trkpt>
      <trkpt lat="43.301465" lon="-8.444632">
        <ele>184.5</ele>
        <time>2011-06-25T11:41:10Z</time>
      </trkpt>
      <trkpt lat="43.301505" lon="-8.444720">
        <ele>184.5</ele>
        <time>2011-06-25T11:41:11Z</time>
      </trkpt>
      <trkpt lat="43.301540" lon="-8.444805">
        <ele>184.5</ele>
        <time>2011-06-25T11:41:12Z</time>
      </trkpt>
      <trkpt lat="43.301570" lon="-8.444880">
        <ele>184.5</ele>
        <time>2011-06-25T11:41:13Z</time>
      </trkpt>
      <trkpt lat="43.301600" lon="-8.444950">
        <ele>184.0</ele>
        <time>2011-06-25T11:41:14Z</time>
      </trkpt>
      <trkpt lat="43.301630" lon="-8.445015">
        <ele>184.0</ele>
        <time>2011-06-25T11:41:15Z</time>
      </trkpt>
      <trkpt lat="43.301660" lon="-8.445077">
        <ele>184.0</ele>
        <time>2011-06-25T11:41:16Z</time>
      </trkpt>
      <trkpt lat="43.301695" lon="-8.445133">
        <ele>183.5</ele>
        <time>2011-06-25T11:41:17Z</time>
      </trkpt>
      <trkpt lat="43.301733" lon="-8.445185">
        <ele>183.0</ele>
        <time>2011-06-25T11:41:18Z</time>
      </trkpt>
      <trkpt lat="43.301775" lon="-8.445240">
        <ele>183.0</ele>
        <time>2011-06-25T11:41:19Z</time>
      </trkpt>
      <trkpt lat="43.301817" lon="-8.445295">
        <ele>182.5</ele>
        <time>2011-06-25T11:41:20Z</time>
      </trkpt>
      <trkpt lat="43.301862" lon="-8.445353">
        <ele>182.0</ele>
        <time>2011-06-25T11:41:21Z</time>
      </trkpt>
      <trkpt lat="43.301905" lon="-8.445412">
        <ele>181.5</ele>
        <time>2011-06-25T11:41:22Z</time>
      </trkpt>
      <trkpt lat="43.301948" lon="-8.445472">
        <ele>181.0</ele>
        <time>2011-06-25T11:41:23Z</time>
      </trkpt>
      <trkpt lat="43.301992" lon="-8.445530">
        <ele>180.0</ele>
        <time>2011-06-25T11:41:24Z</time>
      </trkpt>
      <trkpt lat="43.302030" lon="-8.445590">
        <ele>179.0</ele>
        <time>2011-06-25T11:41:25Z</time>
      </trkpt>
      <trkpt lat="43.302070" lon="-8.445648">
        <ele>178.5</ele>
        <time>2011-06-25T11:41:26Z</time>
      </trkpt>
      <trkpt lat="43.302105" lon="-8.445710">
        <ele>178.5</ele>
        <time>2011-06-25T11:41:27Z</time>
      </trkpt>
      <trkpt lat="43.302137" lon="-8.445775">
        <ele>178.0</ele>
        <time>2011-06-25T11:41:28Z</time>
      </trkpt>
      <trkpt lat="43.302163" lon="-8.445845">
        <ele>178.0</ele>
        <time>2011-06-25T11:41:29Z</time>
      </trkpt>
      <trkpt lat="43.302187" lon="-8.445920">
        <ele>177.5</ele>
        <time>2011-06-25T11:41:30Z</time>
      </trkpt>
      <trkpt lat="43.302208" lon="-8.446007">
        <ele>177.5</ele>
        <time>2011-06-25T11:41:31Z</time>
      </trkpt>
      <trkpt lat="43.302232" lon="-8.446070">
        <ele>179.0</ele>
        <time>2011-06-25T11:41:32Z</time>
      </trkpt>
      <trkpt lat="43.302265" lon="-8.446133">
        <ele>179.0</ele>
        <time>2011-06-25T11:41:33Z</time>
      </trkpt>
      <trkpt lat="43.302292" lon="-8.446197">
        <ele>180.5</ele>
        <time>2011-06-25T11:41:34Z</time>
      </trkpt>
      <trkpt lat="43.302322" lon="-8.446262">
        <ele>180.0</ele>
        <time>2011-06-25T11:41:35Z</time>
      </trkpt>
      <trkpt lat="43.302345" lon="-8.446332">
        <ele>179.5</ele>
        <time>2011-06-25T11:41:36Z</time>
      </trkpt>
      <trkpt lat="43.302360" lon="-8.446403">
        <ele>179.5</ele>
        <time>2011-06-25T11:41:37Z</time>
      </trkpt>
      <trkpt lat="43.302372" lon="-8.446477">
        <ele>179.0</ele>
        <time>2011-06-25T11:41:38Z</time>
      </trkpt>
      <trkpt lat="43.302388" lon="-8.446542">
        <ele>179.0</ele>
        <time>2011-06-25T11:41:39Z</time>
      </trkpt>
      <trkpt lat="43.302395" lon="-8.446615">
        <ele>178.5</ele>
        <time>2011-06-25T11:41:40Z</time>
      </trkpt>
      <trkpt lat="43.302407" lon="-8.446680">
        <ele>178.5</ele>
        <time>2011-06-25T11:41:41Z</time>
      </trkpt>
      <trkpt lat="43.302412" lon="-8.446743">
        <ele>178.5</ele>
        <time>2011-06-25T11:41:42Z</time>
      </trkpt>
      <trkpt lat="43.302450" lon="-8.446778">
        <ele>178.5</ele>
        <time>2011-06-25T11:41:43Z</time>
      </trkpt>
      <trkpt lat="43.302495" lon="-8.446767">
        <ele>179.0</ele>
        <time>2011-06-25T11:41:45Z</time>
      </trkpt>
      <trkpt lat="43.302517" lon="-8.446748">
        <ele>179.0</ele>
        <time>2011-06-25T11:41:46Z</time>
      </trkpt>
      <trkpt lat="43.302535" lon="-8.446740">
        <ele>179.0</ele>
        <time>2011-06-25T11:41:47Z</time>
      </trkpt>
      <trkpt lat="43.302553" lon="-8.446735">
        <ele>179.0</ele>
        <time>2011-06-25T11:41:48Z</time>
      </trkpt>
      <trkpt lat="43.302542" lon="-8.446733">
        <ele>178.5</ele>
        <time>2011-06-25T11:41:49Z</time>
      </trkpt>
      <trkpt lat="43.302755" lon="-8.446920">
        <ele>178.0</ele>
        <time>2011-06-25T11:41:53Z</time>
      </trkpt>
      <trkpt lat="43.302812" lon="-8.446945">
        <ele>178.0</ele>
        <time>2011-06-25T11:41:54Z</time>
      </trkpt>
      <trkpt lat="43.302885" lon="-8.446982">
        <ele>177.5</ele>
        <time>2011-06-25T11:41:56Z</time>
      </trkpt>
      <trkpt lat="43.302902" lon="-8.447007">
        <ele>177.5</ele>
        <time>2011-06-25T11:41:57Z</time>
      </trkpt>
      <trkpt lat="43.302917" lon="-8.447025">
        <ele>177.5</ele>
        <time>2011-06-25T11:41:58Z</time>
      </trkpt>
      <trkpt lat="43.302937" lon="-8.447032">
        <ele>177.5</ele>
        <time>2011-06-25T11:41:59Z</time>
      </trkpt>
      <trkpt lat="43.302952" lon="-8.447038">
        <ele>177.5</ele>
        <time>2011-06-25T11:41:59Z</time>
      </trkpt>
      <trkpt lat="43.302965" lon="-8.447040">
        <ele>177.0</ele>
        <time>2011-06-25T11:42:01Z</time>
      </trkpt>
      <trkpt lat="43.302970" lon="-8.447042">
        <ele>177.0</ele>
        <time>2011-06-25T11:42:01Z</time>
      </trkpt>
      <trkpt lat="43.302973" lon="-8.447045">
        <ele>176.5</ele>
        <time>2011-06-25T11:42:03Z</time>
      </trkpt>
      <trkpt lat="43.302975" lon="-8.447047">
        <ele>176.5</ele>
        <time>2011-06-25T11:42:04Z</time>
      </trkpt>
      <trkpt lat="43.302973" lon="-8.447048">
        <ele>176.5</ele>
        <time>2011-06-25T11:42:05Z</time>
      </trkpt>
      <trkpt lat="43.302973" lon="-8.447053">
        <ele>176.5</ele>
        <time>2011-06-25T11:42:06Z</time>
      </trkpt>
      <trkpt lat="43.302972" lon="-8.447055">
        <ele>176.0</ele>
        <time>2011-06-25T11:42:07Z</time>
      </trkpt>
      <trkpt lat="43.302972" lon="-8.447058">
        <ele>176.0</ele>
        <time>2011-06-25T11:42:08Z</time>
      </trkpt>
      <trkpt lat="43.302972" lon="-8.447058">
        <ele>176.0</ele>
        <time>2011-06-25T11:42:09Z</time>
      </trkpt>
      <trkpt lat="43.302970" lon="-8.447060">
        <ele>176.0</ele>
        <time>2011-06-25T11:42:10Z</time>
      </trkpt>
      <trkpt lat="43.302970" lon="-8.447062">
        <ele>176.0</ele>
        <time>2011-06-25T11:42:11Z</time>
      </trkpt>
      <trkpt lat="43.302970" lon="-8.447065">
        <ele>176.0</ele>
        <time>2011-06-25T11:42:12Z</time>
      </trkpt>
      <trkpt lat="43.302970" lon="-8.447065">
        <ele>176.0</ele>
        <time>2011-06-25T11:42:12Z</time>
      </trkpt>
      <trkpt lat="43.302970" lon="-8.447067">
        <ele>176.0</ele>
        <time>2011-06-25T11:42:13Z</time>
      </trkpt>
      <trkpt lat="43.302970" lon="-8.447067">
        <ele>175.5</ele>
        <time>2011-06-25T11:42:15Z</time>
      </trkpt>
      <trkpt lat="43.302970" lon="-8.447067">
        <ele>175.5</ele>
        <time>2011-06-25T11:42:16Z</time>
      </trkpt>
      <trkpt lat="43.302970" lon="-8.447068">
        <ele>175.5</ele>
        <time>2011-06-25T11:42:17Z</time>
      </trkpt>
      <trkpt lat="43.302970" lon="-8.447068">
        <ele>175.5</ele>
        <time>2011-06-25T11:42:18Z</time>
      </trkpt>
      <trkpt lat="43.302970" lon="-8.447072">
        <ele>175.5</ele>
        <time>2011-06-25T11:42:19Z</time>
      </trkpt>
      <trkpt lat="43.302973" lon="-8.447075">
        <ele>175.5</ele>
        <time>2011-06-25T11:42:20Z</time>
      </trkpt>
      <trkpt lat="43.302975" lon="-8.447088">
        <ele>175.0</ele>
        <time>2011-06-25T11:42:21Z</time>
      </trkpt>
      <trkpt lat="43.302978" lon="-8.447098">
        <ele>174.5</ele>
        <time>2011-06-25T11:42:22Z</time>
      </trkpt>
      <trkpt lat="43.302980" lon="-8.447107">
        <ele>174.5</ele>
        <time>2011-06-25T11:42:23Z</time>
      </trkpt>
      <trkpt lat="43.302985" lon="-8.447130">
        <ele>172.5</ele>
        <time>2011-06-25T11:42:24Z</time>
      </trkpt>
      <trkpt lat="43.302985" lon="-8.447133">
        <ele>172.5</ele>
        <time>2011-06-25T11:42:25Z</time>
      </trkpt>
      <trkpt lat="43.302987" lon="-8.447135">
        <ele>172.5</ele>
        <time>2011-06-25T11:42:26Z</time>
      </trkpt>
      <trkpt lat="43.302988" lon="-8.447140">
        <ele>172.0</ele>
        <time>2011-06-25T11:42:27Z</time>
      </trkpt>
      <trkpt lat="43.302990" lon="-8.447142">
        <ele>172.0</ele>
        <time>2011-06-25T11:42:28Z</time>
      </trkpt>
      <trkpt lat="43.302990" lon="-8.447148">
        <ele>171.5</ele>
        <time>2011-06-25T11:42:29Z</time>
      </trkpt>
      <trkpt lat="43.302995" lon="-8.447157">
        <ele>171.0</ele>
        <time>2011-06-25T11:42:30Z</time>
      </trkpt>
      <trkpt lat="43.303002" lon="-8.447165">
        <ele>171.0</ele>
        <time>2011-06-25T11:42:31Z</time>
      </trkpt>
      <trkpt lat="43.303002" lon="-8.447167">
        <ele>171.0</ele>
        <time>2011-06-25T11:42:32Z</time>
      </trkpt>
      <trkpt lat="43.303003" lon="-8.447168">
        <ele>171.0</ele>
        <time>2011-06-25T11:42:33Z</time>
      </trkpt>
      <trkpt lat="43.303005" lon="-8.447170">
        <ele>170.5</ele>
        <time>2011-06-25T11:42:34Z</time>
      </trkpt>
      <trkpt lat="43.303005" lon="-8.447170">
        <ele>171.0</ele>
        <time>2011-06-25T11:42:35Z</time>
      </trkpt>
      <trkpt lat="43.303008" lon="-8.447175">
        <ele>170.5</ele>
        <time>2011-06-25T11:42:36Z</time>
      </trkpt>
      <trkpt lat="43.303012" lon="-8.447182">
        <ele>170.5</ele>
        <time>2011-06-25T11:42:37Z</time>
      </trkpt>
      <trkpt lat="43.303012" lon="-8.447185">
        <ele>170.0</ele>
        <time>2011-06-25T11:42:38Z</time>
      </trkpt>
      <trkpt lat="43.303013" lon="-8.447195">
        <ele>170.5</ele>
        <time>2011-06-25T11:42:39Z</time>
      </trkpt>
      <trkpt lat="43.303015" lon="-8.447197">
        <ele>170.5</ele>
        <time>2011-06-25T11:42:40Z</time>
      </trkpt>
      <trkpt lat="43.303017" lon="-8.447198">
        <ele>171.0</ele>
        <time>2011-06-25T11:42:41Z</time>
      </trkpt>
      <trkpt lat="43.303017" lon="-8.447200">
        <ele>171.0</ele>
        <time>2011-06-25T11:42:42Z</time>
      </trkpt>
      <trkpt lat="43.303017" lon="-8.447203">
        <ele>171.0</ele>
        <time>2011-06-25T11:42:43Z</time>
      </trkpt>
      <trkpt lat="43.303018" lon="-8.447203">
        <ele>171.0</ele>
        <time>2011-06-25T11:42:44Z</time>
      </trkpt>
      <trkpt lat="43.303022" lon="-8.447202">
        <ele>170.5</ele>
        <time>2011-06-25T11:42:45Z</time>
      </trkpt>
      <trkpt lat="43.303022" lon="-8.447202">
        <ele>170.5</ele>
        <time>2011-06-25T11:42:46Z</time>
      </trkpt>
      <trkpt lat="43.303022" lon="-8.447202">
        <ele>170.5</ele>
        <time>2011-06-25T11:42:47Z</time>
      </trkpt>
      <trkpt lat="43.303022" lon="-8.447200">
        <ele>170.5</ele>
        <time>2011-06-25T11:42:48Z</time>
      </trkpt>
      <trkpt lat="43.303022" lon="-8.447200">
        <ele>170.0</ele>
        <time>2011-06-25T11:42:49Z</time>
      </trkpt>
      <trkpt lat="43.303023" lon="-8.447200">
        <ele>170.0</ele>
        <time>2011-06-25T11:42:50Z</time>
      </trkpt>
      <trkpt lat="43.303023" lon="-8.447200">
        <ele>170.0</ele>
        <time>2011-06-25T11:42:51Z</time>
      </trkpt>
      <trkpt lat="43.303023" lon="-8.447200">
        <ele>170.0</ele>
        <time>2011-06-25T11:42:52Z</time>
      </trkpt>
      <trkpt lat="43.303025" lon="-8.447202">
        <ele>170.0</ele>
        <time>2011-06-25T11:42:53Z</time>
      </trkpt>
      <trkpt lat="43.303025" lon="-8.447202">
        <ele>170.0</ele>
        <time>2011-06-25T11:42:54Z</time>
      </trkpt>
    </trkseg>
  </trk>
  <trk>
    <name>T2067676-18</name>
    <cmt>saida con compañeiros do C.C.Arteixo polos arredores da Coruña</cmt>
    <desc>saida con compañeiros do C.C.Arteixo polos arredores da Coruña</desc>
    <trkseg>
      <trkpt lat="43.303025" lon="-8.447203">
        <ele>170.0</ele>
        <time>2011-06-25T11:42:55Z</time>
      </trkpt>
      <trkpt lat="43.303025" lon="-8.447203">
        <ele>169.5</ele>
        <time>2011-06-25T11:42:56Z</time>
      </trkpt>
      <trkpt lat="43.303025" lon="-8.447205">
        <ele>169.5</ele>
        <time>2011-06-25T11:42:57Z</time>
      </trkpt>
      <trkpt lat="43.303025" lon="-8.447205">
        <ele>169.5</ele>
        <time>2011-06-25T11:42:58Z</time>
      </trkpt>
      <trkpt lat="43.303025" lon="-8.447205">
        <ele>169.5</ele>
        <time>2011-06-25T11:42:58Z</time>
      </trkpt>
      <trkpt lat="43.303018" lon="-8.447213">
        <ele>170.0</ele>
        <time>2011-06-25T11:43:00Z</time>
      </trkpt>
      <trkpt lat="43.303012" lon="-8.447220">
        <ele>170.5</ele>
        <time>2011-06-25T11:43:01Z</time>
      </trkpt>
      <trkpt lat="43.303013" lon="-8.447222">
        <ele>170.0</ele>
        <time>2011-06-25T11:43:02Z</time>
      </trkpt>
      <trkpt lat="43.303013" lon="-8.447225">
        <ele>169.5</ele>
        <time>2011-06-25T11:43:03Z</time>
      </trkpt>
      <trkpt lat="43.303013" lon="-8.447225">
        <ele>169.5</ele>
        <time>2011-06-25T11:43:04Z</time>
      </trkpt>
      <trkpt lat="43.303013" lon="-8.447227">
        <ele>169.5</ele>
        <time>2011-06-25T11:43:05Z</time>
      </trkpt>
      <trkpt lat="43.303015" lon="-8.447227">
        <ele>169.5</ele>
        <time>2011-06-25T11:43:06Z</time>
      </trkpt>
      <trkpt lat="43.303015" lon="-8.447227">
        <ele>169.5</ele>
        <time>2011-06-25T11:43:07Z</time>
      </trkpt>
      <trkpt lat="43.303015" lon="-8.447225">
        <ele>169.0</ele>
        <time>2011-06-25T11:43:08Z</time>
      </trkpt>
      <trkpt lat="43.303015" lon="-8.447227">
        <ele>169.0</ele>
        <time>2011-06-25T11:43:09Z</time>
      </trkpt>
      <trkpt lat="43.303017" lon="-8.447227">
        <ele>169.5</ele>
        <time>2011-06-25T11:43:10Z</time>
      </trkpt>
      <trkpt lat="43.303017" lon="-8.447227">
        <ele>169.5</ele>
        <time>2011-06-25T11:43:11Z</time>
      </trkpt>
      <trkpt lat="43.303017" lon="-8.447225">
        <ele>169.5</ele>
        <time>2011-06-25T11:43:12Z</time>
      </trkpt>
      <trkpt lat="43.303017" lon="-8.447225">
        <ele>169.5</ele>
        <time>2011-06-25T11:43:13Z</time>
      </trkpt>
      <trkpt lat="43.303022" lon="-8.447232">
        <ele>169.0</ele>
        <time>2011-06-25T11:43:14Z</time>
      </trkpt>
      <trkpt lat="43.303022" lon="-8.447233">
        <ele>169.0</ele>
        <time>2011-06-25T11:43:14Z</time>
      </trkpt>
      <trkpt lat="43.303025" lon="-8.447237">
        <ele>168.0</ele>
        <time>2011-06-25T11:43:16Z</time>
      </trkpt>
      <trkpt lat="43.303028" lon="-8.447233">
        <ele>168.0</ele>
        <time>2011-06-25T11:43:17Z</time>
      </trkpt>
      <trkpt lat="43.303033" lon="-8.447228">
        <ele>168.0</ele>
        <time>2011-06-25T11:43:18Z</time>
      </trkpt>
      <trkpt lat="43.303032" lon="-8.447220">
        <ele>168.0</ele>
        <time>2011-06-25T11:43:19Z</time>
      </trkpt>
      <trkpt lat="43.303033" lon="-8.447220">
        <ele>167.5</ele>
        <time>2011-06-25T11:43:20Z</time>
      </trkpt>
      <trkpt lat="43.303032" lon="-8.447217">
        <ele>167.5</ele>
        <time>2011-06-25T11:43:21Z</time>
      </trkpt>
      <trkpt lat="43.303032" lon="-8.447215">
        <ele>167.5</ele>
        <time>2011-06-25T11:43:22Z</time>
      </trkpt>
      <trkpt lat="43.303028" lon="-8.447217">
        <ele>167.5</ele>
        <time>2011-06-25T11:43:23Z</time>
      </trkpt>
      <trkpt lat="43.303030" lon="-8.447212">
        <ele>167.5</ele>
        <time>2011-06-25T11:43:24Z</time>
      </trkpt>
      <trkpt lat="43.303030" lon="-8.447210">
        <ele>167.5</ele>
        <time>2011-06-25T11:43:24Z</time>
      </trkpt>
      <trkpt lat="43.303033" lon="-8.447215">
        <ele>167.5</ele>
        <time>2011-06-25T11:43:26Z</time>
      </trkpt>
      <trkpt lat="43.303032" lon="-8.447222">
        <ele>167.5</ele>
        <time>2011-06-25T11:43:26Z</time>
      </trkpt>
      <trkpt lat="43.303030" lon="-8.447227">
        <ele>167.5</ele>
        <time>2011-06-25T11:43:28Z</time>
      </trkpt>
      <trkpt lat="43.303030" lon="-8.447228">
        <ele>167.5</ele>
        <time>2011-06-25T11:43:28Z</time>
      </trkpt>
      <trkpt lat="43.303030" lon="-8.447233">
        <ele>167.5</ele>
        <time>2011-06-25T11:43:29Z</time>
      </trkpt>
      <trkpt lat="43.303027" lon="-8.447245">
        <ele>167.5</ele>
        <time>2011-06-25T11:43:30Z</time>
      </trkpt>
      <trkpt lat="43.303027" lon="-8.447247">
        <ele>167.5</ele>
        <time>2011-06-25T11:43:31Z</time>
      </trkpt>
      <trkpt lat="43.303027" lon="-8.447248">
        <ele>167.5</ele>
        <time>2011-06-25T11:43:32Z</time>
      </trkpt>
      <trkpt lat="43.303025" lon="-8.447247">
        <ele>167.5</ele>
        <time>2011-06-25T11:43:33Z</time>
      </trkpt>
      <trkpt lat="43.303028" lon="-8.447252">
        <ele>167.5</ele>
        <time>2011-06-25T11:43:34Z</time>
      </trkpt>
      <trkpt lat="43.303028" lon="-8.447255">
        <ele>167.5</ele>
        <time>2011-06-25T11:43:35Z</time>
      </trkpt>
      <trkpt lat="43.303030" lon="-8.447258">
        <ele>167.5</ele>
        <time>2011-06-25T11:43:36Z</time>
      </trkpt>
      <trkpt lat="43.303032" lon="-8.447265">
        <ele>167.5</ele>
        <time>2011-06-25T11:43:37Z</time>
      </trkpt>
      <trkpt lat="43.303032" lon="-8.447268">
        <ele>167.5</ele>
        <time>2011-06-25T11:43:38Z</time>
      </trkpt>
      <trkpt lat="43.303033" lon="-8.447270">
        <ele>167.5</ele>
        <time>2011-06-25T11:43:39Z</time>
      </trkpt>
      <trkpt lat="43.303033" lon="-8.447283">
        <ele>167.5</ele>
        <time>2011-06-25T11:43:40Z</time>
      </trkpt>
      <trkpt lat="43.303033" lon="-8.447290">
        <ele>167.5</ele>
        <time>2011-06-25T11:43:41Z</time>
      </trkpt>
      <trkpt lat="43.303032" lon="-8.447293">
        <ele>167.5</ele>
        <time>2011-06-25T11:43:42Z</time>
      </trkpt>
      <trkpt lat="43.303032" lon="-8.447295">
        <ele>167.5</ele>
        <time>2011-06-25T11:43:43Z</time>
      </trkpt>
      <trkpt lat="43.303032" lon="-8.447298">
        <ele>167.5</ele>
        <time>2011-06-25T11:43:44Z</time>
      </trkpt>
      <trkpt lat="43.303032" lon="-8.447298">
        <ele>167.5</ele>
        <time>2011-06-25T11:43:45Z</time>
      </trkpt>
      <trkpt lat="43.303030" lon="-8.447302">
        <ele>167.5</ele>
        <time>2011-06-25T11:43:46Z</time>
      </trkpt>
      <trkpt lat="43.303028" lon="-8.447303">
        <ele>167.5</ele>
        <time>2011-06-25T11:43:47Z</time>
      </trkpt>
      <trkpt lat="43.303027" lon="-8.447303">
        <ele>167.5</ele>
        <time>2011-06-25T11:43:48Z</time>
      </trkpt>
      <trkpt lat="43.303027" lon="-8.447290">
        <ele>167.5</ele>
        <time>2011-06-25T11:43:49Z</time>
      </trkpt>
      <trkpt lat="43.303030" lon="-8.447283">
        <ele>167.5</ele>
        <time>2011-06-25T11:43:50Z</time>
      </trkpt>
      <trkpt lat="43.303027" lon="-8.447287">
        <ele>167.5</ele>
        <time>2011-06-25T11:43:51Z</time>
      </trkpt>
      <trkpt lat="43.303022" lon="-8.447282">
        <ele>167.5</ele>
        <time>2011-06-25T11:43:52Z</time>
      </trkpt>
      <trkpt lat="43.303023" lon="-8.447253">
        <ele>167.5</ele>
        <time>2011-06-25T11:43:53Z</time>
      </trkpt>
      <trkpt lat="43.303032" lon="-8.447243">
        <ele>167.5</ele>
        <time>2011-06-25T11:43:54Z</time>
      </trkpt>
      <trkpt lat="43.303030" lon="-8.447250">
        <ele>167.5</ele>
        <time>2011-06-25T11:43:55Z</time>
      </trkpt>
      <trkpt lat="43.303028" lon="-8.447243">
        <ele>167.5</ele>
        <time>2011-06-25T11:43:56Z</time>
      </trkpt>
      <trkpt lat="43.303035" lon="-8.447232">
        <ele>167.5</ele>
        <time>2011-06-25T11:43:57Z</time>
      </trkpt>
      <trkpt lat="43.303043" lon="-8.447237">
        <ele>167.0</ele>
        <time>2011-06-25T11:43:58Z</time>
      </trkpt>
      <trkpt lat="43.303047" lon="-8.447238">
        <ele>167.0</ele>
        <time>2011-06-25T11:43:59Z</time>
      </trkpt>
      <trkpt lat="43.303048" lon="-8.447237">
        <ele>167.0</ele>
        <time>2011-06-25T11:44:00Z</time>
      </trkpt>
      <trkpt lat="43.303053" lon="-8.447232">
        <ele>167.0</ele>
        <time>2011-06-25T11:44:01Z</time>
      </trkpt>
      <trkpt lat="43.303053" lon="-8.447228">
        <ele>167.0</ele>
        <time>2011-06-25T11:44:02Z</time>
      </trkpt>
      <trkpt lat="43.303058" lon="-8.447228">
        <ele>167.0</ele>
        <time>2011-06-25T11:44:03Z</time>
      </trkpt>
      <trkpt lat="43.303052" lon="-8.447243">
        <ele>167.0</ele>
        <time>2011-06-25T11:44:04Z</time>
      </trkpt>
      <trkpt lat="43.303060" lon="-8.447262">
        <ele>167.0</ele>
        <time>2011-06-25T11:44:05Z</time>
      </trkpt>
      <trkpt lat="43.303062" lon="-8.447268">
        <ele>167.0</ele>
        <time>2011-06-25T11:44:07Z</time>
      </trkpt>
      <trkpt lat="43.303067" lon="-8.447280">
        <ele>166.5</ele>
        <time>2011-06-25T11:44:07Z</time>
      </trkpt>
      <trkpt lat="43.303068" lon="-8.447287">
        <ele>166.5</ele>
        <time>2011-06-25T11:44:08Z</time>
      </trkpt>
      <trkpt lat="43.303070" lon="-8.447290">
        <ele>166.5</ele>
        <time>2011-06-25T11:44:09Z</time>
      </trkpt>
      <trkpt lat="43.303073" lon="-8.447295">
        <ele>166.5</ele>
        <time>2011-06-25T11:44:10Z</time>
      </trkpt>
      <trkpt lat="43.303075" lon="-8.447298">
        <ele>166.5</ele>
        <time>2011-06-25T11:44:11Z</time>
      </trkpt>
      <trkpt lat="43.303075" lon="-8.447300">
        <ele>166.5</ele>
        <time>2011-06-25T11:44:12Z</time>
      </trkpt>
      <trkpt lat="43.303073" lon="-8.447297">
        <ele>166.5</ele>
        <time>2011-06-25T11:44:13Z</time>
      </trkpt>
      <trkpt lat="43.303073" lon="-8.447297">
        <ele>166.5</ele>
        <time>2011-06-25T11:44:14Z</time>
      </trkpt>
      <trkpt lat="43.303073" lon="-8.447297">
        <ele>166.5</ele>
        <time>2011-06-25T11:44:15Z</time>
      </trkpt>
      <trkpt lat="43.303022" lon="-8.447358">
        <ele>167.0</ele>
        <time>2011-06-25T11:44:17Z</time>
      </trkpt>
      <trkpt lat="43.303010" lon="-8.447385">
        <ele>166.5</ele>
        <time>2011-06-25T11:44:18Z</time>
      </trkpt>
      <trkpt lat="43.303002" lon="-8.447405">
        <ele>166.5</ele>
        <time>2011-06-25T11:44:19Z</time>
      </trkpt>
      <trkpt lat="43.302993" lon="-8.447432">
        <ele>167.0</ele>
        <time>2011-06-25T11:44:22Z</time>
      </trkpt>
      <trkpt lat="43.303002" lon="-8.447457">
        <ele>166.5</ele>
        <time>2011-06-25T11:44:23Z</time>
      </trkpt>
      <trkpt lat="43.303003" lon="-8.447473">
        <ele>166.5</ele>
        <time>2011-06-25T11:44:24Z</time>
      </trkpt>
      <trkpt lat="43.303000" lon="-8.447487">
        <ele>166.5</ele>
        <time>2011-06-25T11:44:26Z</time>
      </trkpt>
      <trkpt lat="43.303000" lon="-8.447493">
        <ele>166.5</ele>
        <time>2011-06-25T11:44:28Z</time>
      </trkpt>
      <trkpt lat="43.302997" lon="-8.447508">
        <ele>166.5</ele>
        <time>2011-06-25T11:44:30Z</time>
      </trkpt>
      <trkpt lat="43.302995" lon="-8.447513">
        <ele>166.5</ele>
        <time>2011-06-25T11:44:32Z</time>
      </trkpt>
      <trkpt lat="43.302995" lon="-8.447533">
        <ele>166.5</ele>
        <time>2011-06-25T11:44:34Z</time>
      </trkpt>
      <trkpt lat="43.302998" lon="-8.447537">
        <ele>166.5</ele>
        <time>2011-06-25T11:44:36Z</time>
      </trkpt>
      <trkpt lat="43.303013" lon="-8.447525">
        <ele>166.5</ele>
        <time>2011-06-25T11:44:38Z</time>
      </trkpt>
      <trkpt lat="43.303018" lon="-8.447525">
        <ele>166.5</ele>
        <time>2011-06-25T11:44:39Z</time>
      </trkpt>
      <trkpt lat="43.303020" lon="-8.447523">
        <ele>166.5</ele>
        <time>2011-06-25T11:44:40Z</time>
      </trkpt>
      <trkpt lat="43.303023" lon="-8.447518">
        <ele>166.5</ele>
        <time>2011-06-25T11:44:41Z</time>
      </trkpt>
      <trkpt lat="43.303023" lon="-8.447518">
        <ele>166.5</ele>
        <time>2011-06-25T11:44:42Z</time>
      </trkpt>
      <trkpt lat="43.303022" lon="-8.447518">
        <ele>166.5</ele>
        <time>2011-06-25T11:44:43Z</time>
      </trkpt>
      <trkpt lat="43.303020" lon="-8.447520">
        <ele>166.5</ele>
        <time>2011-06-25T11:44:44Z</time>
      </trkpt>
      <trkpt lat="43.303018" lon="-8.447520">
        <ele>166.5</ele>
        <time>2011-06-25T11:44:45Z</time>
      </trkpt>
      <trkpt lat="43.303018" lon="-8.447518">
        <ele>166.5</ele>
        <time>2011-06-25T11:44:46Z</time>
      </trkpt>
      <trkpt lat="43.303017" lon="-8.447520">
        <ele>166.5</ele>
        <time>2011-06-25T11:44:47Z</time>
      </trkpt>
      <trkpt lat="43.303017" lon="-8.447520">
        <ele>166.5</ele>
        <time>2011-06-25T11:44:48Z</time>
      </trkpt>
      <trkpt lat="43.303022" lon="-8.447522">
        <ele>166.5</ele>
        <time>2011-06-25T11:44:49Z</time>
      </trkpt>
      <trkpt lat="43.303017" lon="-8.447528">
        <ele>166.5</ele>
        <time>2011-06-25T11:44:50Z</time>
      </trkpt>
      <trkpt lat="43.303013" lon="-8.447532">
        <ele>166.5</ele>
        <time>2011-06-25T11:44:51Z</time>
      </trkpt>
      <trkpt lat="43.303012" lon="-8.447533">
        <ele>166.5</ele>
        <time>2011-06-25T11:44:52Z</time>
      </trkpt>
      <trkpt lat="43.303018" lon="-8.447527">
        <ele>166.5</ele>
        <time>2011-06-25T11:44:54Z</time>
      </trkpt>
      <trkpt lat="43.303023" lon="-8.447520">
        <ele>166.5</ele>
        <time>2011-06-25T11:44:54Z</time>
      </trkpt>
      <trkpt lat="43.303023" lon="-8.447517">
        <ele>166.5</ele>
        <time>2011-06-25T11:44:55Z</time>
      </trkpt>
      <trkpt lat="43.303023" lon="-8.447513">
        <ele>166.5</ele>
        <time>2011-06-25T11:44:56Z</time>
      </trkpt>
      <trkpt lat="43.303030" lon="-8.447500">
        <ele>166.5</ele>
        <time>2011-06-25T11:44:57Z</time>
      </trkpt>
      <trkpt lat="43.303038" lon="-8.447487">
        <ele>166.5</ele>
        <time>2011-06-25T11:44:58Z</time>
      </trkpt>
      <trkpt lat="43.303043" lon="-8.447478">
        <ele>166.5</ele>
        <time>2011-06-25T11:44:59Z</time>
      </trkpt>
      <trkpt lat="43.303048" lon="-8.447472">
        <ele>166.5</ele>
        <time>2011-06-25T11:45:00Z</time>
      </trkpt>
      <trkpt lat="43.303045" lon="-8.447473">
        <ele>166.5</ele>
        <time>2011-06-25T11:45:01Z</time>
      </trkpt>
      <trkpt lat="43.303047" lon="-8.447468">
        <ele>166.5</ele>
        <time>2011-06-25T11:45:02Z</time>
      </trkpt>
      <trkpt lat="43.303048" lon="-8.447465">
        <ele>166.5</ele>
        <time>2011-06-25T11:45:03Z</time>
      </trkpt>
      <trkpt lat="43.303052" lon="-8.447462">
        <ele>166.5</ele>
        <time>2011-06-25T11:45:04Z</time>
      </trkpt>
      <trkpt lat="43.303053" lon="-8.447455">
        <ele>166.5</ele>
        <time>2011-06-25T11:45:05Z</time>
      </trkpt>
      <trkpt lat="43.303053" lon="-8.447455">
        <ele>166.5</ele>
        <time>2011-06-25T11:45:06Z</time>
      </trkpt>
      <trkpt lat="43.303053" lon="-8.447453">
        <ele>166.5</ele>
        <time>2011-06-25T11:45:07Z</time>
      </trkpt>
      <trkpt lat="43.303052" lon="-8.447452">
        <ele>166.5</ele>
        <time>2011-06-25T11:45:08Z</time>
      </trkpt>
      <trkpt lat="43.303048" lon="-8.447448">
        <ele>166.5</ele>
        <time>2011-06-25T11:45:09Z</time>
      </trkpt>
      <trkpt lat="43.303045" lon="-8.447448">
        <ele>166.5</ele>
        <time>2011-06-25T11:45:10Z</time>
      </trkpt>
      <trkpt lat="43.303043" lon="-8.447448">
        <ele>166.5</ele>
        <time>2011-06-25T11:45:11Z</time>
      </trkpt>
      <trkpt lat="43.303042" lon="-8.447447">
        <ele>166.5</ele>
        <time>2011-06-25T11:45:12Z</time>
      </trkpt>
      <trkpt lat="43.303043" lon="-8.447435">
        <ele>166.5</ele>
        <time>2011-06-25T11:45:13Z</time>
      </trkpt>
      <trkpt lat="43.303050" lon="-8.447428">
        <ele>166.5</ele>
        <time>2011-06-25T11:45:15Z</time>
      </trkpt>
      <trkpt lat="43.303055" lon="-8.447425">
        <ele>166.5</ele>
        <time>2011-06-25T11:45:15Z</time>
      </trkpt>
      <trkpt lat="43.303055" lon="-8.447423">
        <ele>166.5</ele>
        <time>2011-06-25T11:45:16Z</time>
      </trkpt>
      <trkpt lat="43.303058" lon="-8.447412">
        <ele>166.5</ele>
        <time>2011-06-25T11:45:17Z</time>
      </trkpt>
      <trkpt lat="43.303060" lon="-8.447407">
        <ele>166.5</ele>
        <time>2011-06-25T11:45:18Z</time>
      </trkpt>
      <trkpt lat="43.303058" lon="-8.447403">
        <ele>166.5</ele>
        <time>2011-06-25T11:45:19Z</time>
      </trkpt>
      <trkpt lat="43.303055" lon="-8.447398">
        <ele>166.5</ele>
        <time>2011-06-25T11:45:20Z</time>
      </trkpt>
      <trkpt lat="43.303063" lon="-8.447380">
        <ele>167.0</ele>
        <time>2011-06-25T11:45:21Z</time>
      </trkpt>
      <trkpt lat="43.303057" lon="-8.447382">
        <ele>167.0</ele>
        <time>2011-06-25T11:45:22Z</time>
      </trkpt>
      <trkpt lat="43.303057" lon="-8.447383">
        <ele>167.0</ele>
        <time>2011-06-25T11:45:23Z</time>
      </trkpt>
      <trkpt lat="43.303058" lon="-8.447385">
        <ele>166.5</ele>
        <time>2011-06-25T11:45:25Z</time>
      </trkpt>
      <trkpt lat="43.303077" lon="-8.447375">
        <ele>167.0</ele>
        <time>2011-06-25T11:45:25Z</time>
      </trkpt>
      <trkpt lat="43.303105" lon="-8.447337">
        <ele>167.0</ele>
        <time>2011-06-25T11:45:27Z</time>
      </trkpt>
      <trkpt lat="43.303112" lon="-8.447335">
        <ele>166.5</ele>
        <time>2011-06-25T11:45:28Z</time>
      </trkpt>
      <trkpt lat="43.303152" lon="-8.447283">
        <ele>167.0</ele>
        <time>2011-06-25T11:45:30Z</time>
      </trkpt>
      <trkpt lat="43.303160" lon="-8.447263">
        <ele>167.0</ele>
        <time>2011-06-25T11:45:31Z</time>
      </trkpt>
      <trkpt lat="43.303162" lon="-8.447252">
        <ele>167.0</ele>
        <time>2011-06-25T11:45:32Z</time>
      </trkpt>
      <trkpt lat="43.303162" lon="-8.447243">
        <ele>167.0</ele>
        <time>2011-06-25T11:45:33Z</time>
      </trkpt>
      <trkpt lat="43.303173" lon="-8.447198">
        <ele>166.5</ele>
        <time>2011-06-25T11:45:35Z</time>
      </trkpt>
      <trkpt lat="43.303175" lon="-8.447195">
        <ele>166.5</ele>
        <time>2011-06-25T11:45:36Z</time>
      </trkpt>
      <trkpt lat="43.303177" lon="-8.447193">
        <ele>166.5</ele>
        <time>2011-06-25T11:45:37Z</time>
      </trkpt>
      <trkpt lat="43.303187" lon="-8.447177">
        <ele>166.5</ele>
        <time>2011-06-25T11:45:38Z</time>
      </trkpt>
      <trkpt lat="43.303193" lon="-8.447168">
        <ele>166.5</ele>
        <time>2011-06-25T11:45:39Z</time>
      </trkpt>
      <trkpt lat="43.303203" lon="-8.447153">
        <ele>166.5</ele>
        <time>2011-06-25T11:45:40Z</time>
      </trkpt>
      <trkpt lat="43.303205" lon="-8.447148">
        <ele>166.5</ele>
        <time>2011-06-25T11:45:41Z</time>
      </trkpt>
      <trkpt lat="43.303207" lon="-8.447147">
        <ele>166.5</ele>
        <time>2011-06-25T11:45:42Z</time>
      </trkpt>
      <trkpt lat="43.303207" lon="-8.447145">
        <ele>166.5</ele>
        <time>2011-06-25T11:45:43Z</time>
      </trkpt>
      <trkpt lat="43.303210" lon="-8.447138">
        <ele>166.5</ele>
        <time>2011-06-25T11:45:44Z</time>
      </trkpt>
      <trkpt lat="43.303212" lon="-8.447133">
        <ele>166.5</ele>
        <time>2011-06-25T11:45:45Z</time>
      </trkpt>
      <trkpt lat="43.303212" lon="-8.447130">
        <ele>166.5</ele>
        <time>2011-06-25T11:45:46Z</time>
      </trkpt>
      <trkpt lat="43.303208" lon="-8.447128">
        <ele>166.5</ele>
        <time>2011-06-25T11:45:47Z</time>
      </trkpt>
      <trkpt lat="43.303203" lon="-8.447133">
        <ele>166.5</ele>
        <time>2011-06-25T11:45:48Z</time>
      </trkpt>
      <trkpt lat="43.303200" lon="-8.447135">
        <ele>166.5</ele>
        <time>2011-06-25T11:45:49Z</time>
      </trkpt>
      <trkpt lat="43.303197" lon="-8.447137">
        <ele>166.5</ele>
        <time>2011-06-25T11:45:50Z</time>
      </trkpt>
      <trkpt lat="43.303187" lon="-8.447142">
        <ele>166.5</ele>
        <time>2011-06-25T11:45:51Z</time>
      </trkpt>
      <trkpt lat="43.303183" lon="-8.447152">
        <ele>166.5</ele>
        <time>2011-06-25T11:45:52Z</time>
      </trkpt>
      <trkpt lat="43.303180" lon="-8.447157">
        <ele>166.5</ele>
        <time>2011-06-25T11:45:53Z</time>
      </trkpt>
      <trkpt lat="43.303177" lon="-8.447157">
        <ele>166.5</ele>
        <time>2011-06-25T11:45:54Z</time>
      </trkpt>
      <trkpt lat="43.303170" lon="-8.447158">
        <ele>166.5</ele>
        <time>2011-06-25T11:45:55Z</time>
      </trkpt>
      <trkpt lat="43.303160" lon="-8.447175">
        <ele>166.5</ele>
        <time>2011-06-25T11:45:56Z</time>
      </trkpt>
      <trkpt lat="43.303157" lon="-8.447187">
        <ele>166.5</ele>
        <time>2011-06-25T11:45:57Z</time>
      </trkpt>
      <trkpt lat="43.303153" lon="-8.447190">
        <ele>166.5</ele>
        <time>2011-06-25T11:45:58Z</time>
      </trkpt>
      <trkpt lat="43.303150" lon="-8.447192">
        <ele>166.5</ele>
        <time>2011-06-25T11:45:59Z</time>
      </trkpt>
      <trkpt lat="43.303113" lon="-8.447240">
        <ele>167.0</ele>
        <time>2011-06-25T11:46:01Z</time>
      </trkpt>
      <trkpt lat="43.303107" lon="-8.447250">
        <ele>167.0</ele>
        <time>2011-06-25T11:46:02Z</time>
      </trkpt>
      <trkpt lat="43.303102" lon="-8.447257">
        <ele>167.0</ele>
        <time>2011-06-25T11:46:03Z</time>
      </trkpt>
      <trkpt lat="43.303093" lon="-8.447263">
        <ele>167.0</ele>
        <time>2011-06-25T11:46:04Z</time>
      </trkpt>
      <trkpt lat="43.303090" lon="-8.447267">
        <ele>167.0</ele>
        <time>2011-06-25T11:46:05Z</time>
      </trkpt>
      <trkpt lat="43.303087" lon="-8.447270">
        <ele>167.0</ele>
        <time>2011-06-25T11:46:06Z</time>
      </trkpt>
      <trkpt lat="43.303085" lon="-8.447272">
        <ele>167.0</ele>
        <time>2011-06-25T11:46:07Z</time>
      </trkpt>
      <trkpt lat="43.303075" lon="-8.447277">
        <ele>167.0</ele>
        <time>2011-06-25T11:46:08Z</time>
      </trkpt>
      <trkpt lat="43.303077" lon="-8.447283">
        <ele>167.0</ele>
        <time>2011-06-25T11:46:09Z</time>
      </trkpt>
      <trkpt lat="43.303070" lon="-8.447295">
        <ele>167.0</ele>
        <time>2011-06-25T11:46:10Z</time>
      </trkpt>
      <trkpt lat="43.303065" lon="-8.447302">
        <ele>167.0</ele>
        <time>2011-06-25T11:46:11Z</time>
      </trkpt>
      <trkpt lat="43.303055" lon="-8.447315">
        <ele>167.0</ele>
        <time>2011-06-25T11:46:12Z</time>
      </trkpt>
      <trkpt lat="43.303050" lon="-8.447322">
        <ele>167.0</ele>
        <time>2011-06-25T11:46:13Z</time>
      </trkpt>
      <trkpt lat="43.303055" lon="-8.447330">
        <ele>167.0</ele>
        <time>2011-06-25T11:46:14Z</time>
      </trkpt>
      <trkpt lat="43.303053" lon="-8.447337">
        <ele>167.0</ele>
        <time>2011-06-25T11:46:15Z</time>
      </trkpt>
      <trkpt lat="43.303055" lon="-8.447338">
        <ele>167.0</ele>
        <time>2011-06-25T11:46:16Z</time>
      </trkpt>
      <trkpt lat="43.303060" lon="-8.447337">
        <ele>167.0</ele>
        <time>2011-06-25T11:46:17Z</time>
      </trkpt>
      <trkpt lat="43.303053" lon="-8.447340">
        <ele>167.0</ele>
        <time>2011-06-25T11:46:18Z</time>
      </trkpt>
      <trkpt lat="43.303048" lon="-8.447342">
        <ele>167.0</ele>
        <time>2011-06-25T11:46:19Z</time>
      </trkpt>
      <trkpt lat="43.303045" lon="-8.447348">
        <ele>167.0</ele>
        <time>2011-06-25T11:46:20Z</time>
      </trkpt>
      <trkpt lat="43.303045" lon="-8.447352">
        <ele>167.0</ele>
        <time>2011-06-25T11:46:21Z</time>
      </trkpt>
      <trkpt lat="43.303047" lon="-8.447345">
        <ele>167.0</ele>
        <time>2011-06-25T11:46:22Z</time>
      </trkpt>
      <trkpt lat="43.303048" lon="-8.447342">
        <ele>167.0</ele>
        <time>2011-06-25T11:46:23Z</time>
      </trkpt>
      <trkpt lat="43.303047" lon="-8.447360">
        <ele>167.0</ele>
        <time>2011-06-25T11:46:24Z</time>
      </trkpt>
      <trkpt lat="43.303047" lon="-8.447368">
        <ele>167.0</ele>
        <time>2011-06-25T11:46:25Z</time>
      </trkpt>
      <trkpt lat="43.303048" lon="-8.447370">
        <ele>167.0</ele>
        <time>2011-06-25T11:46:26Z</time>
      </trkpt>
      <trkpt lat="43.303052" lon="-8.447370">
        <ele>167.0</ele>
        <time>2011-06-25T11:46:27Z</time>
      </trkpt>
      <trkpt lat="43.303058" lon="-8.447363">
        <ele>167.0</ele>
        <time>2011-06-25T11:46:28Z</time>
      </trkpt>
      <trkpt lat="43.303070" lon="-8.447360">
        <ele>167.0</ele>
        <time>2011-06-25T11:46:29Z</time>
      </trkpt>
      <trkpt lat="43.303073" lon="-8.447357">
        <ele>167.0</ele>
        <time>2011-06-25T11:46:30Z</time>
      </trkpt>
      <trkpt lat="43.303075" lon="-8.447353">
        <ele>167.0</ele>
        <time>2011-06-25T11:46:31Z</time>
      </trkpt>
      <trkpt lat="43.303073" lon="-8.447348">
        <ele>167.0</ele>
        <time>2011-06-25T11:46:32Z</time>
      </trkpt>
      <trkpt lat="43.303073" lon="-8.447345">
        <ele>167.0</ele>
        <time>2011-06-25T11:46:33Z</time>
      </trkpt>
      <trkpt lat="43.303070" lon="-8.447340">
        <ele>167.0</ele>
        <time>2011-06-25T11:46:34Z</time>
      </trkpt>
      <trkpt lat="43.303070" lon="-8.447333">
        <ele>167.0</ele>
        <time>2011-06-25T11:46:35Z</time>
      </trkpt>
      <trkpt lat="43.303067" lon="-8.447320">
        <ele>167.0</ele>
        <time>2011-06-25T11:46:36Z</time>
      </trkpt>
      <trkpt lat="43.303062" lon="-8.447308">
        <ele>167.0</ele>
        <time>2011-06-25T11:46:37Z</time>
      </trkpt>
      <trkpt lat="43.303055" lon="-8.447298">
        <ele>167.0</ele>
        <time>2011-06-25T11:46:38Z</time>
      </trkpt>
      <trkpt lat="43.303058" lon="-8.447285">
        <ele>167.0</ele>
        <time>2011-06-25T11:46:39Z</time>
      </trkpt>
      <trkpt lat="43.303053" lon="-8.447285">
        <ele>167.0</ele>
        <time>2011-06-25T11:46:40Z</time>
      </trkpt>
      <trkpt lat="43.303047" lon="-8.447287">
        <ele>167.0</ele>
        <time>2011-06-25T11:46:41Z</time>
      </trkpt>
      <trkpt lat="43.303040" lon="-8.447287">
        <ele>167.0</ele>
        <time>2011-06-25T11:46:42Z</time>
      </trkpt>
      <trkpt lat="43.303045" lon="-8.447265">
        <ele>167.0</ele>
        <time>2011-06-25T11:46:43Z</time>
      </trkpt>
      <trkpt lat="43.303043" lon="-8.447260">
        <ele>167.0</ele>
        <time>2011-06-25T11:46:44Z</time>
      </trkpt>
      <trkpt lat="43.303042" lon="-8.447262">
        <ele>167.0</ele>
        <time>2011-06-25T11:46:45Z</time>
      </trkpt>
      <trkpt lat="43.303048" lon="-8.447253">
        <ele>167.0</ele>
        <time>2011-06-25T11:46:46Z</time>
      </trkpt>
      <trkpt lat="43.303053" lon="-8.447245">
        <ele>167.0</ele>
        <time>2011-06-25T11:46:47Z</time>
      </trkpt>
      <trkpt lat="43.303053" lon="-8.447250">
        <ele>167.0</ele>
        <time>2011-06-25T11:46:48Z</time>
      </trkpt>
      <trkpt lat="43.303055" lon="-8.447250">
        <ele>167.0</ele>
        <time>2011-06-25T11:46:49Z</time>
      </trkpt>
      <trkpt lat="43.303058" lon="-8.447250">
        <ele>167.0</ele>
        <time>2011-06-25T11:46:50Z</time>
      </trkpt>
      <trkpt lat="43.303060" lon="-8.447248">
        <ele>167.0</ele>
        <time>2011-06-25T11:46:51Z</time>
      </trkpt>
      <trkpt lat="43.303057" lon="-8.447257">
        <ele>167.0</ele>
        <time>2011-06-25T11:46:52Z</time>
      </trkpt>
      <trkpt lat="43.303055" lon="-8.447267">
        <ele>167.0</ele>
        <time>2011-06-25T11:46:53Z</time>
      </trkpt>
      <trkpt lat="43.303065" lon="-8.447265">
        <ele>167.0</ele>
        <time>2011-06-25T11:46:54Z</time>
      </trkpt>
      <trkpt lat="43.303063" lon="-8.447260">
        <ele>167.0</ele>
        <time>2011-06-25T11:46:56Z</time>
      </trkpt>
      <trkpt lat="43.303062" lon="-8.447258">
        <ele>167.0</ele>
        <time>2011-06-25T11:46:56Z</time>
      </trkpt>
      <trkpt lat="43.303057" lon="-8.447260">
        <ele>167.0</ele>
        <time>2011-06-25T11:46:57Z</time>
      </trkpt>
      <trkpt lat="43.303053" lon="-8.447263">
        <ele>167.0</ele>
        <time>2011-06-25T11:46:58Z</time>
      </trkpt>
      <trkpt lat="43.303050" lon="-8.447262">
        <ele>167.0</ele>
        <time>2011-06-25T11:46:59Z</time>
      </trkpt>
      <trkpt lat="43.303050" lon="-8.447260">
        <ele>167.0</ele>
        <time>2011-06-25T11:47:00Z</time>
      </trkpt>
      <trkpt lat="43.303052" lon="-8.447262">
        <ele>167.0</ele>
        <time>2011-06-25T11:47:01Z</time>
      </trkpt>
      <trkpt lat="43.303055" lon="-8.447263">
        <ele>167.0</ele>
        <time>2011-06-25T11:47:02Z</time>
      </trkpt>
      <trkpt lat="43.303060" lon="-8.447268">
        <ele>167.0</ele>
        <time>2011-06-25T11:47:03Z</time>
      </trkpt>
      <trkpt lat="43.303062" lon="-8.447272">
        <ele>167.0</ele>
        <time>2011-06-25T11:47:04Z</time>
      </trkpt>
      <trkpt lat="43.303085" lon="-8.447212">
        <ele>167.0</ele>
        <time>2011-06-25T11:47:06Z</time>
      </trkpt>
      <trkpt lat="43.303102" lon="-8.447218">
        <ele>167.0</ele>
        <time>2011-06-25T11:47:07Z</time>
      </trkpt>
      <trkpt lat="43.303145" lon="-8.447157">
        <ele>167.0</ele>
        <time>2011-06-25T11:47:10Z</time>
      </trkpt>
      <trkpt lat="43.303147" lon="-8.447143">
        <ele>167.0</ele>
        <time>2011-06-25T11:47:10Z</time>
      </trkpt>
      <trkpt lat="43.303148" lon="-8.447133">
        <ele>167.0</ele>
        <time>2011-06-25T11:47:11Z</time>
      </trkpt>
      <trkpt lat="43.303148" lon="-8.447127">
        <ele>167.0</ele>
        <time>2011-06-25T11:47:12Z</time>
      </trkpt>
      <trkpt lat="43.303150" lon="-8.447118">
        <ele>167.0</ele>
        <time>2011-06-25T11:47:13Z</time>
      </trkpt>
      <trkpt lat="43.303153" lon="-8.447110">
        <ele>167.0</ele>
        <time>2011-06-25T11:47:14Z</time>
      </trkpt>
      <trkpt lat="43.303157" lon="-8.447105">
        <ele>167.0</ele>
        <time>2011-06-25T11:47:15Z</time>
      </trkpt>
      <trkpt lat="43.303160" lon="-8.447098">
        <ele>167.0</ele>
        <time>2011-06-25T11:47:16Z</time>
      </trkpt>
      <trkpt lat="43.303157" lon="-8.447092">
        <ele>167.0</ele>
        <time>2011-06-25T11:47:17Z</time>
      </trkpt>
      <trkpt lat="43.303155" lon="-8.447088">
        <ele>167.0</ele>
        <time>2011-06-25T11:47:18Z</time>
      </trkpt>
      <trkpt lat="43.303152" lon="-8.447072">
        <ele>167.0</ele>
        <time>2011-06-25T11:47:19Z</time>
      </trkpt>
      <trkpt lat="43.303150" lon="-8.447060">
        <ele>167.0</ele>
        <time>2011-06-25T11:47:21Z</time>
      </trkpt>
      <trkpt lat="43.303147" lon="-8.447070">
        <ele>167.0</ele>
        <time>2011-06-25T11:47:22Z</time>
      </trkpt>
      <trkpt lat="43.303145" lon="-8.447077">
        <ele>167.0</ele>
        <time>2011-06-25T11:47:23Z</time>
      </trkpt>
      <trkpt lat="43.303143" lon="-8.447083">
        <ele>167.0</ele>
        <time>2011-06-25T11:47:23Z</time>
      </trkpt>
      <trkpt lat="43.303142" lon="-8.447088">
        <ele>167.0</ele>
        <time>2011-06-25T11:47:24Z</time>
      </trkpt>
      <trkpt lat="43.303130" lon="-8.447105">
        <ele>167.0</ele>
        <time>2011-06-25T11:47:25Z</time>
      </trkpt>
      <trkpt lat="43.303123" lon="-8.447108">
        <ele>167.0</ele>
        <time>2011-06-25T11:47:26Z</time>
      </trkpt>
      <trkpt lat="43.303115" lon="-8.447107">
        <ele>167.0</ele>
        <time>2011-06-25T11:47:27Z</time>
      </trkpt>
      <trkpt lat="43.303115" lon="-8.447105">
        <ele>167.0</ele>
        <time>2011-06-25T11:47:28Z</time>
      </trkpt>
      <trkpt lat="43.303112" lon="-8.447100">
        <ele>167.0</ele>
        <time>2011-06-25T11:47:30Z</time>
      </trkpt>
      <trkpt lat="43.303110" lon="-8.447088">
        <ele>167.0</ele>
        <time>2011-06-25T11:47:30Z</time>
      </trkpt>
      <trkpt lat="43.303108" lon="-8.447077">
        <ele>167.0</ele>
        <time>2011-06-25T11:47:32Z</time>
      </trkpt>
      <trkpt lat="43.303108" lon="-8.447067">
        <ele>167.0</ele>
        <time>2011-06-25T11:47:32Z</time>
      </trkpt>
      <trkpt lat="43.303110" lon="-8.447067">
        <ele>167.0</ele>
        <time>2011-06-25T11:47:34Z</time>
      </trkpt>
      <trkpt lat="43.303110" lon="-8.447062">
        <ele>167.0</ele>
        <time>2011-06-25T11:47:34Z</time>
      </trkpt>
      <trkpt lat="43.303108" lon="-8.447055">
        <ele>167.0</ele>
        <time>2011-06-25T11:47:35Z</time>
      </trkpt>
      <trkpt lat="43.303107" lon="-8.447050">
        <ele>167.0</ele>
        <time>2011-06-25T11:47:36Z</time>
      </trkpt>
      <trkpt lat="43.303105" lon="-8.447047">
        <ele>167.0</ele>
        <time>2011-06-25T11:47:37Z</time>
      </trkpt>
      <trkpt lat="43.303105" lon="-8.447045">
        <ele>167.0</ele>
        <time>2011-06-25T11:47:38Z</time>
      </trkpt>
      <trkpt lat="43.303105" lon="-8.447043">
        <ele>167.0</ele>
        <time>2011-06-25T11:47:39Z</time>
      </trkpt>
      <trkpt lat="43.303103" lon="-8.447042">
        <ele>167.0</ele>
        <time>2011-06-25T11:47:40Z</time>
      </trkpt>
      <trkpt lat="43.303105" lon="-8.447043">
        <ele>167.0</ele>
        <time>2011-06-25T11:47:41Z</time>
      </trkpt>
      <trkpt lat="43.303105" lon="-8.447045">
        <ele>167.0</ele>
        <time>2011-06-25T11:47:43Z</time>
      </trkpt>
      <trkpt lat="43.303103" lon="-8.447043">
        <ele>167.0</ele>
        <time>2011-06-25T11:47:43Z</time>
      </trkpt>
      <trkpt lat="43.303098" lon="-8.447043">
        <ele>167.0</ele>
        <time>2011-06-25T11:47:44Z</time>
      </trkpt>
      <trkpt lat="43.303095" lon="-8.447067">
        <ele>167.0</ele>
        <time>2011-06-25T11:47:45Z</time>
      </trkpt>
      <trkpt lat="43.303100" lon="-8.447070">
        <ele>167.0</ele>
        <time>2011-06-25T11:47:46Z</time>
      </trkpt>
      <trkpt lat="43.303105" lon="-8.447067">
        <ele>167.0</ele>
        <time>2011-06-25T11:47:47Z</time>
      </trkpt>
      <trkpt lat="43.303103" lon="-8.447097">
        <ele>167.0</ele>
        <time>2011-06-25T11:47:48Z</time>
      </trkpt>
      <trkpt lat="43.303102" lon="-8.447110">
        <ele>167.0</ele>
        <time>2011-06-25T11:47:49Z</time>
      </trkpt>
      <trkpt lat="43.303100" lon="-8.447120">
        <ele>167.0</ele>
        <time>2011-06-25T11:47:50Z</time>
      </trkpt>
      <trkpt lat="43.303098" lon="-8.447123">
        <ele>167.0</ele>
        <time>2011-06-25T11:47:51Z</time>
      </trkpt>
      <trkpt lat="43.303083" lon="-8.447177">
        <ele>167.0</ele>
        <time>2011-06-25T11:47:54Z</time>
      </trkpt>
      <trkpt lat="43.303080" lon="-8.447182">
        <ele>167.0</ele>
        <time>2011-06-25T11:47:54Z</time>
      </trkpt>
      <trkpt lat="43.303080" lon="-8.447193">
        <ele>167.0</ele>
        <time>2011-06-25T11:47:55Z</time>
      </trkpt>
      <trkpt lat="43.303080" lon="-8.447197">
        <ele>167.0</ele>
        <time>2011-06-25T11:47:56Z</time>
      </trkpt>
      <trkpt lat="43.303082" lon="-8.447198">
        <ele>167.0</ele>
        <time>2011-06-25T11:47:58Z</time>
      </trkpt>
      <trkpt lat="43.303082" lon="-8.447198">
        <ele>167.0</ele>
        <time>2011-06-25T11:47:59Z</time>
      </trkpt>
      <trkpt lat="43.303085" lon="-8.447210">
        <ele>167.0</ele>
        <time>2011-06-25T11:48:00Z</time>
      </trkpt>
      <trkpt lat="43.303087" lon="-8.447215">
        <ele>167.0</ele>
        <time>2011-06-25T11:48:01Z</time>
      </trkpt>
      <trkpt lat="43.303090" lon="-8.447225">
        <ele>167.0</ele>
        <time>2011-06-25T11:48:01Z</time>
      </trkpt>
      <trkpt lat="43.303100" lon="-8.447222">
        <ele>167.0</ele>
        <time>2011-06-25T11:48:02Z</time>
      </trkpt>
      <trkpt lat="43.303108" lon="-8.447232">
        <ele>167.0</ele>
        <time>2011-06-25T11:48:03Z</time>
      </trkpt>
      <trkpt lat="43.303118" lon="-8.447253">
        <ele>167.0</ele>
        <time>2011-06-25T11:48:04Z</time>
      </trkpt>
      <trkpt lat="43.303120" lon="-8.447262">
        <ele>167.0</ele>
        <time>2011-06-25T11:48:05Z</time>
      </trkpt>
      <trkpt lat="43.303122" lon="-8.447258">
        <ele>167.0</ele>
        <time>2011-06-25T11:48:07Z</time>
      </trkpt>
      <trkpt lat="43.303122" lon="-8.447255">
        <ele>167.0</ele>
        <time>2011-06-25T11:48:07Z</time>
      </trkpt>
      <trkpt lat="43.303123" lon="-8.447255">
        <ele>167.0</ele>
        <time>2011-06-25T11:48:09Z</time>
      </trkpt>
      <trkpt lat="43.303123" lon="-8.447255">
        <ele>167.0</ele>
        <time>2011-06-25T11:48:09Z</time>
      </trkpt>
      <trkpt lat="43.303127" lon="-8.447248">
        <ele>167.0</ele>
        <time>2011-06-25T11:48:10Z</time>
      </trkpt>
      <trkpt lat="43.303128" lon="-8.447247">
        <ele>167.0</ele>
        <time>2011-06-25T11:48:11Z</time>
      </trkpt>
      <trkpt lat="43.303128" lon="-8.447245">
        <ele>167.0</ele>
        <time>2011-06-25T11:48:12Z</time>
      </trkpt>
      <trkpt lat="43.303128" lon="-8.447242">
        <ele>167.0</ele>
        <time>2011-06-25T11:48:13Z</time>
      </trkpt>
      <trkpt lat="43.303127" lon="-8.447237">
        <ele>167.0</ele>
        <time>2011-06-25T11:48:14Z</time>
      </trkpt>
      <trkpt lat="43.303127" lon="-8.447235">
        <ele>167.0</ele>
        <time>2011-06-25T11:48:15Z</time>
      </trkpt>
      <trkpt lat="43.303123" lon="-8.447237">
        <ele>167.0</ele>
        <time>2011-06-25T11:48:16Z</time>
      </trkpt>
      <trkpt lat="43.303118" lon="-8.447237">
        <ele>167.0</ele>
        <time>2011-06-25T11:48:17Z</time>
      </trkpt>
      <trkpt lat="43.303110" lon="-8.447247">
        <ele>167.0</ele>
        <time>2011-06-25T11:48:18Z</time>
      </trkpt>
      <trkpt lat="43.303103" lon="-8.447248">
        <ele>167.0</ele>
        <time>2011-06-25T11:48:19Z</time>
      </trkpt>
      <trkpt lat="43.303098" lon="-8.447248">
        <ele>167.0</ele>
        <time>2011-06-25T11:48:20Z</time>
      </trkpt>
      <trkpt lat="43.303093" lon="-8.447245">
        <ele>167.0</ele>
        <time>2011-06-25T11:48:21Z</time>
      </trkpt>
      <trkpt lat="43.303097" lon="-8.447230">
        <ele>167.0</ele>
        <time>2011-06-25T11:48:23Z</time>
      </trkpt>
      <trkpt lat="43.303102" lon="-8.447228">
        <ele>167.0</ele>
        <time>2011-06-25T11:48:23Z</time>
      </trkpt>
      <trkpt lat="43.303103" lon="-8.447235">
        <ele>167.0</ele>
        <time>2011-06-25T11:48:24Z</time>
      </trkpt>
      <trkpt lat="43.303102" lon="-8.447237">
        <ele>167.0</ele>
        <time>2011-06-25T11:48:25Z</time>
      </trkpt>
      <trkpt lat="43.303112" lon="-8.447228">
        <ele>167.0</ele>
        <time>2011-06-25T11:48:28Z</time>
      </trkpt>
      <trkpt lat="43.303113" lon="-8.447228">
        <ele>167.0</ele>
        <time>2011-06-25T11:48:29Z</time>
      </trkpt>
      <trkpt lat="43.303113" lon="-8.447228">
        <ele>167.0</ele>
        <time>2011-06-25T11:48:30Z</time>
      </trkpt>
      <trkpt lat="43.303115" lon="-8.447228">
        <ele>167.0</ele>
        <time>2011-06-25T11:48:31Z</time>
      </trkpt>
      <trkpt lat="43.303113" lon="-8.447225">
        <ele>167.0</ele>
        <time>2011-06-25T11:48:32Z</time>
      </trkpt>
      <trkpt lat="43.303112" lon="-8.447222">
        <ele>167.0</ele>
        <time>2011-06-25T11:48:33Z</time>
      </trkpt>
      <trkpt lat="43.303110" lon="-8.447222">
        <ele>167.0</ele>
        <time>2011-06-25T11:48:34Z</time>
      </trkpt>
      <trkpt lat="43.303110" lon="-8.447217">
        <ele>167.0</ele>
        <time>2011-06-25T11:48:35Z</time>
      </trkpt>
      <trkpt lat="43.303108" lon="-8.447212">
        <ele>167.0</ele>
        <time>2011-06-25T11:48:36Z</time>
      </trkpt>
      <trkpt lat="43.303108" lon="-8.447210">
        <ele>167.0</ele>
        <time>2011-06-25T11:48:37Z</time>
      </trkpt>
      <trkpt lat="43.303108" lon="-8.447210">
        <ele>167.0</ele>
        <time>2011-06-25T11:48:38Z</time>
      </trkpt>
      <trkpt lat="43.303107" lon="-8.447215">
        <ele>167.0</ele>
        <time>2011-06-25T11:48:39Z</time>
      </trkpt>
      <trkpt lat="43.303107" lon="-8.447220">
        <ele>167.0</ele>
        <time>2011-06-25T11:48:40Z</time>
      </trkpt>
      <trkpt lat="43.303108" lon="-8.447223">
        <ele>167.0</ele>
        <time>2011-06-25T11:48:41Z</time>
      </trkpt>
      <trkpt lat="43.303110" lon="-8.447227">
        <ele>167.0</ele>
        <time>2011-06-25T11:48:42Z</time>
      </trkpt>
      <trkpt lat="43.303108" lon="-8.447240">
        <ele>167.0</ele>
        <time>2011-06-25T11:48:43Z</time>
      </trkpt>
      <trkpt lat="43.303108" lon="-8.447248">
        <ele>167.0</ele>
        <time>2011-06-25T11:48:44Z</time>
      </trkpt>
      <trkpt lat="43.303108" lon="-8.447252">
        <ele>167.0</ele>
        <time>2011-06-25T11:48:45Z</time>
      </trkpt>
      <trkpt lat="43.303110" lon="-8.447253">
        <ele>167.0</ele>
        <time>2011-06-25T11:48:46Z</time>
      </trkpt>
      <trkpt lat="43.303112" lon="-8.447265">
        <ele>167.0</ele>
        <time>2011-06-25T11:48:47Z</time>
      </trkpt>
      <trkpt lat="43.303113" lon="-8.447268">
        <ele>167.0</ele>
        <time>2011-06-25T11:48:48Z</time>
      </trkpt>
      <trkpt lat="43.303113" lon="-8.447270">
        <ele>167.0</ele>
        <time>2011-06-25T11:48:49Z</time>
      </trkpt>
      <trkpt lat="43.303113" lon="-8.447272">
        <ele>167.0</ele>
        <time>2011-06-25T11:48:50Z</time>
      </trkpt>
      <trkpt lat="43.303110" lon="-8.447277">
        <ele>167.0</ele>
        <time>2011-06-25T11:48:51Z</time>
      </trkpt>
      <trkpt lat="43.303108" lon="-8.447280">
        <ele>167.0</ele>
        <time>2011-06-25T11:48:52Z</time>
      </trkpt>
      <trkpt lat="43.303108" lon="-8.447282">
        <ele>167.0</ele>
        <time>2011-06-25T11:48:53Z</time>
      </trkpt>
      <trkpt lat="43.303110" lon="-8.447285">
        <ele>167.0</ele>
        <time>2011-06-25T11:48:54Z</time>
      </trkpt>
      <trkpt lat="43.303112" lon="-8.447285">
        <ele>167.0</ele>
        <time>2011-06-25T11:48:55Z</time>
      </trkpt>
      <trkpt lat="43.303112" lon="-8.447285">
        <ele>167.0</ele>
        <time>2011-06-25T11:48:56Z</time>
      </trkpt>
      <trkpt lat="43.303112" lon="-8.447285">
        <ele>167.0</ele>
        <time>2011-06-25T11:48:57Z</time>
      </trkpt>
      <trkpt lat="43.303113" lon="-8.447290">
        <ele>167.0</ele>
        <time>2011-06-25T11:48:58Z</time>
      </trkpt>
      <trkpt lat="43.303112" lon="-8.447295">
        <ele>167.0</ele>
        <time>2011-06-25T11:48:59Z</time>
      </trkpt>
      <trkpt lat="43.303110" lon="-8.447298">
        <ele>167.0</ele>
        <time>2011-06-25T11:49:00Z</time>
      </trkpt>
      <trkpt lat="43.303107" lon="-8.447302">
        <ele>167.0</ele>
        <time>2011-06-25T11:49:01Z</time>
      </trkpt>
      <trkpt lat="43.303103" lon="-8.447303">
        <ele>167.0</ele>
        <time>2011-06-25T11:49:02Z</time>
      </trkpt>
      <trkpt lat="43.303110" lon="-8.447298">
        <ele>167.0</ele>
        <time>2011-06-25T11:49:03Z</time>
      </trkpt>
      <trkpt lat="43.303113" lon="-8.447297">
        <ele>167.0</ele>
        <time>2011-06-25T11:49:04Z</time>
      </trkpt>
      <trkpt lat="43.303113" lon="-8.447297">
        <ele>167.0</ele>
        <time>2011-06-25T11:49:05Z</time>
      </trkpt>
      <trkpt lat="43.303102" lon="-8.447302">
        <ele>167.0</ele>
        <time>2011-06-25T11:49:06Z</time>
      </trkpt>
      <trkpt lat="43.303098" lon="-8.447303">
        <ele>167.0</ele>
        <time>2011-06-25T11:49:07Z</time>
      </trkpt>
      <trkpt lat="43.303097" lon="-8.447300">
        <ele>167.0</ele>
        <time>2011-06-25T11:49:08Z</time>
      </trkpt>
      <trkpt lat="43.303097" lon="-8.447300">
        <ele>167.0</ele>
        <time>2011-06-25T11:49:09Z</time>
      </trkpt>
      <trkpt lat="43.303095" lon="-8.447298">
        <ele>167.0</ele>
        <time>2011-06-25T11:49:10Z</time>
      </trkpt>
      <trkpt lat="43.303088" lon="-8.447303">
        <ele>167.0</ele>
        <time>2011-06-25T11:49:11Z</time>
      </trkpt>
      <trkpt lat="43.303087" lon="-8.447307">
        <ele>167.0</ele>
        <time>2011-06-25T11:49:12Z</time>
      </trkpt>
      <trkpt lat="43.303082" lon="-8.447307">
        <ele>167.0</ele>
        <time>2011-06-25T11:49:13Z</time>
      </trkpt>
      <trkpt lat="43.303080" lon="-8.447307">
        <ele>167.0</ele>
        <time>2011-06-25T11:49:14Z</time>
      </trkpt>
      <trkpt lat="43.303068" lon="-8.447292">
        <ele>167.0</ele>
        <time>2011-06-25T11:49:15Z</time>
      </trkpt>
      <trkpt lat="43.303060" lon="-8.447267">
        <ele>167.0</ele>
        <time>2011-06-25T11:49:16Z</time>
      </trkpt>
      <trkpt lat="43.303060" lon="-8.447247">
        <ele>167.0</ele>
        <time>2011-06-25T11:49:17Z</time>
      </trkpt>
      <trkpt lat="43.303063" lon="-8.447232">
        <ele>167.0</ele>
        <time>2011-06-25T11:49:18Z</time>
      </trkpt>
      <trkpt lat="43.303060" lon="-8.447265">
        <ele>167.0</ele>
        <time>2011-06-25T11:49:19Z</time>
      </trkpt>
      <trkpt lat="43.303058" lon="-8.447293">
        <ele>167.0</ele>
        <time>2011-06-25T11:49:20Z</time>
      </trkpt>
      <trkpt lat="43.303060" lon="-8.447313">
        <ele>167.0</ele>
        <time>2011-06-25T11:49:21Z</time>
      </trkpt>
      <trkpt lat="43.303060" lon="-8.447330">
        <ele>167.0</ele>
        <time>2011-06-25T11:49:22Z</time>
      </trkpt>
      <trkpt lat="43.303057" lon="-8.447358">
        <ele>167.0</ele>
        <time>2011-06-25T11:49:23Z</time>
      </trkpt>
      <trkpt lat="43.303053" lon="-8.447377">
        <ele>167.0</ele>
        <time>2011-06-25T11:49:24Z</time>
      </trkpt>
      <trkpt lat="43.303045" lon="-8.447397">
        <ele>167.0</ele>
        <time>2011-06-25T11:49:25Z</time>
      </trkpt>
      <trkpt lat="43.303042" lon="-8.447407">
        <ele>167.0</ele>
        <time>2011-06-25T11:49:26Z</time>
      </trkpt>
      <trkpt lat="43.303038" lon="-8.447413">
        <ele>167.0</ele>
        <time>2011-06-25T11:49:27Z</time>
      </trkpt>
      <trkpt lat="43.303035" lon="-8.447418">
        <ele>167.0</ele>
        <time>2011-06-25T11:49:28Z</time>
      </trkpt>
      <trkpt lat="43.303042" lon="-8.447413">
        <ele>167.0</ele>
        <time>2011-06-25T11:49:29Z</time>
      </trkpt>
      <trkpt lat="43.303053" lon="-8.447403">
        <ele>167.0</ele>
        <time>2011-06-25T11:49:31Z</time>
      </trkpt>
      <trkpt lat="43.303053" lon="-8.447397">
        <ele>167.0</ele>
        <time>2011-06-25T11:49:32Z</time>
      </trkpt>
      <trkpt lat="43.302998" lon="-8.447482">
        <ele>167.0</ele>
        <time>2011-06-25T11:49:35Z</time>
      </trkpt>
      <trkpt lat="43.302995" lon="-8.447477">
        <ele>167.0</ele>
        <time>2011-06-25T11:49:35Z</time>
      </trkpt>
      <trkpt lat="43.302998" lon="-8.447478">
        <ele>167.0</ele>
        <time>2011-06-25T11:49:36Z</time>
      </trkpt>
      <trkpt lat="43.303005" lon="-8.447480">
        <ele>167.0</ele>
        <time>2011-06-25T11:49:37Z</time>
      </trkpt>
      <trkpt lat="43.303012" lon="-8.447482">
        <ele>167.0</ele>
        <time>2011-06-25T11:49:38Z</time>
      </trkpt>
      <trkpt lat="43.303022" lon="-8.447472">
        <ele>167.0</ele>
        <time>2011-06-25T11:49:39Z</time>
      </trkpt>
      <trkpt lat="43.303027" lon="-8.447473">
        <ele>167.0</ele>
        <time>2011-06-25T11:49:40Z</time>
      </trkpt>
      <trkpt lat="43.303032" lon="-8.447483">
        <ele>167.0</ele>
        <time>2011-06-25T11:49:41Z</time>
      </trkpt>
      <trkpt lat="43.303035" lon="-8.447483">
        <ele>167.0</ele>
        <time>2011-06-25T11:49:42Z</time>
      </trkpt>
      <trkpt lat="43.303040" lon="-8.447485">
        <ele>167.0</ele>
        <time>2011-06-25T11:49:43Z</time>
      </trkpt>
      <trkpt lat="43.303047" lon="-8.447490">
        <ele>167.0</ele>
        <time>2011-06-25T11:49:44Z</time>
      </trkpt>
      <trkpt lat="43.303050" lon="-8.447487">
        <ele>167.0</ele>
        <time>2011-06-25T11:49:45Z</time>
      </trkpt>
      <trkpt lat="43.303077" lon="-8.447457">
        <ele>167.0</ele>
        <time>2011-06-25T11:49:48Z</time>
      </trkpt>
      <trkpt lat="43.303082" lon="-8.447453">
        <ele>167.0</ele>
        <time>2011-06-25T11:49:49Z</time>
      </trkpt>
      <trkpt lat="43.303093" lon="-8.447353">
        <ele>167.0</ele>
        <time>2011-06-25T11:49:51Z</time>
      </trkpt>
      <trkpt lat="43.303098" lon="-8.447323">
        <ele>167.0</ele>
        <time>2011-06-25T11:49:51Z</time>
      </trkpt>
      <trkpt lat="43.303110" lon="-8.447322">
        <ele>167.0</ele>
        <time>2011-06-25T11:49:53Z</time>
      </trkpt>
      <trkpt lat="43.303113" lon="-8.447317">
        <ele>167.0</ele>
        <time>2011-06-25T11:49:54Z</time>
      </trkpt>
      <trkpt lat="43.303113" lon="-8.447312">
        <ele>167.0</ele>
        <time>2011-06-25T11:49:55Z</time>
      </trkpt>
      <trkpt lat="43.303113" lon="-8.447307">
        <ele>167.0</ele>
        <time>2011-06-25T11:49:56Z</time>
      </trkpt>
      <trkpt lat="43.303120" lon="-8.447303">
        <ele>167.0</ele>
        <time>2011-06-25T11:49:57Z</time>
      </trkpt>
      <trkpt lat="43.303125" lon="-8.447297">
        <ele>167.0</ele>
        <time>2011-06-25T11:49:58Z</time>
      </trkpt>
      <trkpt lat="43.303103" lon="-8.447407">
        <ele>167.0</ele>
        <time>2011-06-25T11:50:00Z</time>
      </trkpt>
      <trkpt lat="43.303107" lon="-8.447410">
        <ele>167.0</ele>
        <time>2011-06-25T11:50:01Z</time>
      </trkpt>
      <trkpt lat="43.303110" lon="-8.447412">
        <ele>167.0</ele>
        <time>2011-06-25T11:50:01Z</time>
      </trkpt>
      <trkpt lat="43.303115" lon="-8.447410">
        <ele>167.0</ele>
        <time>2011-06-25T11:50:02Z</time>
      </trkpt>
      <trkpt lat="43.303123" lon="-8.447402">
        <ele>167.0</ele>
        <time>2011-06-25T11:50:04Z</time>
      </trkpt>
      <trkpt lat="43.303118" lon="-8.447402">
        <ele>167.0</ele>
        <time>2011-06-25T11:50:05Z</time>
      </trkpt>
      <trkpt lat="43.303112" lon="-8.447405">
        <ele>167.0</ele>
        <time>2011-06-25T11:50:06Z</time>
      </trkpt>
      <trkpt lat="43.303103" lon="-8.447428">
        <ele>167.0</ele>
        <time>2011-06-25T11:50:07Z</time>
      </trkpt>
      <trkpt lat="43.303102" lon="-8.447432">
        <ele>167.0</ele>
        <time>2011-06-25T11:50:08Z</time>
      </trkpt>
      <trkpt lat="43.303100" lon="-8.447423">
        <ele>167.0</ele>
        <time>2011-06-25T11:50:09Z</time>
      </trkpt>
      <trkpt lat="43.303100" lon="-8.447417">
        <ele>167.0</ele>
        <time>2011-06-25T11:50:10Z</time>
      </trkpt>
      <trkpt lat="43.303087" lon="-8.447417">
        <ele>167.0</ele>
        <time>2011-06-25T11:50:11Z</time>
      </trkpt>
      <trkpt lat="43.303077" lon="-8.447417">
        <ele>167.0</ele>
        <time>2011-06-25T11:50:12Z</time>
      </trkpt>
      <trkpt lat="43.303068" lon="-8.447413">
        <ele>167.0</ele>
        <time>2011-06-25T11:50:13Z</time>
      </trkpt>
      <trkpt lat="43.303060" lon="-8.447413">
        <ele>167.0</ele>
        <time>2011-06-25T11:50:14Z</time>
      </trkpt>
      <trkpt lat="43.303055" lon="-8.447413">
        <ele>167.0</ele>
        <time>2011-06-25T11:50:15Z</time>
      </trkpt>
      <trkpt lat="43.303048" lon="-8.447413">
        <ele>167.0</ele>
        <time>2011-06-25T11:50:16Z</time>
      </trkpt>
      <trkpt lat="43.303045" lon="-8.447407">
        <ele>167.0</ele>
        <time>2011-06-25T11:50:17Z</time>
      </trkpt>
      <trkpt lat="43.303047" lon="-8.447402">
        <ele>167.0</ele>
        <time>2011-06-25T11:50:18Z</time>
      </trkpt>
      <trkpt lat="43.303047" lon="-8.447400">
        <ele>167.0</ele>
        <time>2011-06-25T11:50:19Z</time>
      </trkpt>
      <trkpt lat="43.303045" lon="-8.447400">
        <ele>167.0</ele>
        <time>2011-06-25T11:50:20Z</time>
      </trkpt>
      <trkpt lat="43.303038" lon="-8.447388">
        <ele>167.0</ele>
        <time>2011-06-25T11:50:21Z</time>
      </trkpt>
      <trkpt lat="43.303035" lon="-8.447382">
        <ele>167.0</ele>
        <time>2011-06-25T11:50:22Z</time>
      </trkpt>
      <trkpt lat="43.303037" lon="-8.447382">
        <ele>167.0</ele>
        <time>2011-06-25T11:50:23Z</time>
      </trkpt>
      <trkpt lat="43.303037" lon="-8.447377">
        <ele>167.0</ele>
        <time>2011-06-25T11:50:24Z</time>
      </trkpt>
      <trkpt lat="43.303037" lon="-8.447363">
        <ele>167.0</ele>
        <time>2011-06-25T11:50:25Z</time>
      </trkpt>
      <trkpt lat="43.303042" lon="-8.447353">
        <ele>167.0</ele>
        <time>2011-06-25T11:50:26Z</time>
      </trkpt>
      <trkpt lat="43.303045" lon="-8.447352">
        <ele>167.0</ele>
        <time>2011-06-25T11:50:27Z</time>
      </trkpt>
      <trkpt lat="43.303057" lon="-8.447340">
        <ele>167.0</ele>
        <time>2011-06-25T11:50:28Z</time>
      </trkpt>
      <trkpt lat="43.303065" lon="-8.447333">
        <ele>167.0</ele>
        <time>2011-06-25T11:50:29Z</time>
      </trkpt>
      <trkpt lat="43.303072" lon="-8.447327">
        <ele>167.0</ele>
        <time>2011-06-25T11:50:30Z</time>
      </trkpt>
      <trkpt lat="43.303073" lon="-8.447333">
        <ele>167.0</ele>
        <time>2011-06-25T11:50:31Z</time>
      </trkpt>
      <trkpt lat="43.303077" lon="-8.447330">
        <ele>167.0</ele>
        <time>2011-06-25T11:50:32Z</time>
      </trkpt>
      <trkpt lat="43.303080" lon="-8.447328">
        <ele>167.0</ele>
        <time>2011-06-25T11:50:33Z</time>
      </trkpt>
      <trkpt lat="43.303080" lon="-8.447328">
        <ele>167.0</ele>
        <time>2011-06-25T11:50:34Z</time>
      </trkpt>
      <trkpt lat="43.303080" lon="-8.447323">
        <ele>167.0</ele>
        <time>2011-06-25T11:50:35Z</time>
      </trkpt>
      <trkpt lat="43.303078" lon="-8.447318">
        <ele>167.0</ele>
        <time>2011-06-25T11:50:36Z</time>
      </trkpt>
      <trkpt lat="43.303078" lon="-8.447317">
        <ele>167.0</ele>
        <time>2011-06-25T11:50:37Z</time>
      </trkpt>
      <trkpt lat="43.303078" lon="-8.447315">
        <ele>167.0</ele>
        <time>2011-06-25T11:50:38Z</time>
      </trkpt>
      <trkpt lat="43.303080" lon="-8.447307">
        <ele>167.0</ele>
        <time>2011-06-25T11:50:39Z</time>
      </trkpt>
      <trkpt lat="43.303080" lon="-8.447302">
        <ele>167.0</ele>
        <time>2011-06-25T11:50:40Z</time>
      </trkpt>
      <trkpt lat="43.303080" lon="-8.447302">
        <ele>167.0</ele>
        <time>2011-06-25T11:50:41Z</time>
      </trkpt>
      <trkpt lat="43.303078" lon="-8.447300">
        <ele>167.0</ele>
        <time>2011-06-25T11:50:42Z</time>
      </trkpt>
      <trkpt lat="43.303077" lon="-8.447303">
        <ele>167.0</ele>
        <time>2011-06-25T11:50:43Z</time>
      </trkpt>
      <trkpt lat="43.303075" lon="-8.447303">
        <ele>167.0</ele>
        <time>2011-06-25T11:50:44Z</time>
      </trkpt>
      <trkpt lat="43.303075" lon="-8.447303">
        <ele>167.0</ele>
        <time>2011-06-25T11:50:45Z</time>
      </trkpt>
      <trkpt lat="43.303077" lon="-8.447302">
        <ele>167.0</ele>
        <time>2011-06-25T11:50:45Z</time>
      </trkpt>
      <trkpt lat="43.303078" lon="-8.447298">
        <ele>167.0</ele>
        <time>2011-06-25T11:50:47Z</time>
      </trkpt>
      <trkpt lat="43.303085" lon="-8.447280">
        <ele>167.0</ele>
        <time>2011-06-25T11:50:48Z</time>
      </trkpt>
      <trkpt lat="43.303083" lon="-8.447285">
        <ele>167.0</ele>
        <time>2011-06-25T11:50:49Z</time>
      </trkpt>
      <trkpt lat="43.303087" lon="-8.447282">
        <ele>167.0</ele>
        <time>2011-06-25T11:50:49Z</time>
      </trkpt>
      <trkpt lat="43.303088" lon="-8.447273">
        <ele>167.0</ele>
        <time>2011-06-25T11:50:50Z</time>
      </trkpt>
      <trkpt lat="43.303090" lon="-8.447268">
        <ele>167.0</ele>
        <time>2011-06-25T11:50:52Z</time>
      </trkpt>
      <trkpt lat="43.303090" lon="-8.447263">
        <ele>167.0</ele>
        <time>2011-06-25T11:50:53Z</time>
      </trkpt>
      <trkpt lat="43.303090" lon="-8.447262">
        <ele>167.0</ele>
        <time>2011-06-25T11:50:54Z</time>
      </trkpt>
      <trkpt lat="43.303093" lon="-8.447247">
        <ele>167.0</ele>
        <time>2011-06-25T11:50:55Z</time>
      </trkpt>
      <trkpt lat="43.303093" lon="-8.447237">
        <ele>167.0</ele>
        <time>2011-06-25T11:50:56Z</time>
      </trkpt>
      <trkpt lat="43.303085" lon="-8.447247">
        <ele>167.0</ele>
        <time>2011-06-25T11:50:57Z</time>
      </trkpt>
      <trkpt lat="43.303082" lon="-8.447252">
        <ele>167.0</ele>
        <time>2011-06-25T11:50:58Z</time>
      </trkpt>
      <trkpt lat="43.303085" lon="-8.447235">
        <ele>167.0</ele>
        <time>2011-06-25T11:50:59Z</time>
      </trkpt>
      <trkpt lat="43.303085" lon="-8.447230">
        <ele>167.0</ele>
        <time>2011-06-25T11:51:00Z</time>
      </trkpt>
      <trkpt lat="43.303085" lon="-8.447227">
        <ele>167.0</ele>
        <time>2011-06-25T11:51:01Z</time>
      </trkpt>
      <trkpt lat="43.303082" lon="-8.447237">
        <ele>167.0</ele>
        <time>2011-06-25T11:51:02Z</time>
      </trkpt>
      <trkpt lat="43.303082" lon="-8.447293">
        <ele>167.0</ele>
        <time>2011-06-25T11:51:04Z</time>
      </trkpt>
      <trkpt lat="43.303062" lon="-8.447457">
        <ele>167.0</ele>
        <time>2011-06-25T11:51:10Z</time>
      </trkpt>
      <trkpt lat="43.303032" lon="-8.447417">
        <ele>167.0</ele>
        <time>2011-06-25T11:51:12Z</time>
      </trkpt>
      <trkpt lat="43.303030" lon="-8.447417">
        <ele>167.0</ele>
        <time>2011-06-25T11:51:13Z</time>
      </trkpt>
      <trkpt lat="43.303028" lon="-8.447405">
        <ele>167.0</ele>
        <time>2011-06-25T11:51:14Z</time>
      </trkpt>
      <trkpt lat="43.303023" lon="-8.447400">
        <ele>167.0</ele>
        <time>2011-06-25T11:51:15Z</time>
      </trkpt>
      <trkpt lat="43.303022" lon="-8.447398">
        <ele>167.0</ele>
        <time>2011-06-25T11:51:16Z</time>
      </trkpt>
      <trkpt lat="43.303025" lon="-8.447393">
        <ele>167.0</ele>
        <time>2011-06-25T11:51:17Z</time>
      </trkpt>
      <trkpt lat="43.303025" lon="-8.447393">
        <ele>167.0</ele>
        <time>2011-06-25T11:51:17Z</time>
      </trkpt>
      <trkpt lat="43.303025" lon="-8.447393">
        <ele>167.0</ele>
        <time>2011-06-25T11:51:18Z</time>
      </trkpt>
      <trkpt lat="43.303025" lon="-8.447393">
        <ele>167.0</ele>
        <time>2011-06-25T11:51:19Z</time>
      </trkpt>
      <trkpt lat="43.303025" lon="-8.447393">
        <ele>167.0</ele>
        <time>2011-06-25T11:51:20Z</time>
      </trkpt>
      <trkpt lat="43.303027" lon="-8.447388">
        <ele>167.0</ele>
        <time>2011-06-25T11:51:21Z</time>
      </trkpt>
      <trkpt lat="43.303028" lon="-8.447388">
        <ele>167.0</ele>
        <time>2011-06-25T11:51:22Z</time>
      </trkpt>
      <trkpt lat="43.303028" lon="-8.447388">
        <ele>167.0</ele>
        <time>2011-06-25T11:51:23Z</time>
      </trkpt>
      <trkpt lat="43.303028" lon="-8.447388">
        <ele>167.0</ele>
        <time>2011-06-25T11:51:24Z</time>
      </trkpt>
      <trkpt lat="43.303028" lon="-8.447378">
        <ele>167.0</ele>
        <time>2011-06-25T11:51:25Z</time>
      </trkpt>
      <trkpt lat="43.303028" lon="-8.447375">
        <ele>167.0</ele>
        <time>2011-06-25T11:51:26Z</time>
      </trkpt>
      <trkpt lat="43.303028" lon="-8.447373">
        <ele>167.0</ele>
        <time>2011-06-25T11:51:27Z</time>
      </trkpt>
      <trkpt lat="43.303052" lon="-8.447378">
        <ele>167.0</ele>
        <time>2011-06-25T11:51:33Z</time>
      </trkpt>
      <trkpt lat="43.303058" lon="-8.447383">
        <ele>167.0</ele>
        <time>2011-06-25T11:51:34Z</time>
      </trkpt>
      <trkpt lat="43.303063" lon="-8.447388">
        <ele>167.0</ele>
        <time>2011-06-25T11:51:35Z</time>
      </trkpt>
      <trkpt lat="43.303082" lon="-8.447400">
        <ele>167.0</ele>
        <time>2011-06-25T11:51:37Z</time>
      </trkpt>
      <trkpt lat="43.303088" lon="-8.447405">
        <ele>167.0</ele>
        <time>2011-06-25T11:51:37Z</time>
      </trkpt>
      <trkpt lat="43.303090" lon="-8.447408">
        <ele>167.0</ele>
        <time>2011-06-25T11:51:38Z</time>
      </trkpt>
      <trkpt lat="43.303092" lon="-8.447410">
        <ele>167.0</ele>
        <time>2011-06-25T11:51:40Z</time>
      </trkpt>
      <trkpt lat="43.303113" lon="-8.447407">
        <ele>167.0</ele>
        <time>2011-06-25T11:51:41Z</time>
      </trkpt>
      <trkpt lat="43.303118" lon="-8.447405">
        <ele>167.0</ele>
        <time>2011-06-25T11:51:42Z</time>
      </trkpt>
      <trkpt lat="43.303122" lon="-8.447408">
        <ele>167.0</ele>
        <time>2011-06-25T11:51:42Z</time>
      </trkpt>
      <trkpt lat="43.303127" lon="-8.447420">
        <ele>167.0</ele>
        <time>2011-06-25T11:51:44Z</time>
      </trkpt>
      <trkpt lat="43.303127" lon="-8.447432">
        <ele>167.0</ele>
        <time>2011-06-25T11:51:45Z</time>
      </trkpt>
      <trkpt lat="43.303130" lon="-8.447432">
        <ele>167.0</ele>
        <time>2011-06-25T11:51:45Z</time>
      </trkpt>
      <trkpt lat="43.303137" lon="-8.447427">
        <ele>167.0</ele>
        <time>2011-06-25T11:51:47Z</time>
      </trkpt>
      <trkpt lat="43.303138" lon="-8.447423">
        <ele>167.0</ele>
        <time>2011-06-25T11:51:47Z</time>
      </trkpt>
      <trkpt lat="43.303140" lon="-8.447422">
        <ele>167.0</ele>
        <time>2011-06-25T11:51:49Z</time>
      </trkpt>
      <trkpt lat="43.303140" lon="-8.447422">
        <ele>167.0</ele>
        <time>2011-06-25T11:51:50Z</time>
      </trkpt>
    </trkseg>
  </trk>
  <trk>
    <name>T2067676-19</name>
    <cmt>saida con compañeiros do C.C.Arteixo polos arredores da Coruña</cmt>
    <desc>saida con compañeiros do C.C.Arteixo polos arredores da Coruña</desc>
    <trkseg>
      <trkpt lat="43.303148" lon="-8.447413">
        <ele>167.0</ele>
        <time>2011-06-25T11:51:51Z</time>
      </trkpt>
      <trkpt lat="43.303153" lon="-8.447390">
        <ele>167.0</ele>
        <time>2011-06-25T11:51:52Z</time>
      </trkpt>
      <trkpt lat="43.303158" lon="-8.447373">
        <ele>167.0</ele>
        <time>2011-06-25T11:51:52Z</time>
      </trkpt>
      <trkpt lat="43.303167" lon="-8.447357">
        <ele>167.0</ele>
        <time>2011-06-25T11:51:53Z</time>
      </trkpt>
      <trkpt lat="43.303178" lon="-8.447340">
        <ele>167.0</ele>
        <time>2011-06-25T11:51:55Z</time>
      </trkpt>
      <trkpt lat="43.303188" lon="-8.447322">
        <ele>167.0</ele>
        <time>2011-06-25T11:51:56Z</time>
      </trkpt>
      <trkpt lat="43.303183" lon="-8.447315">
        <ele>167.0</ele>
        <time>2011-06-25T11:51:56Z</time>
      </trkpt>
      <trkpt lat="43.303172" lon="-8.447173">
        <ele>167.0</ele>
        <time>2011-06-25T11:52:00Z</time>
      </trkpt>
      <trkpt lat="43.303158" lon="-8.447192">
        <ele>167.0</ele>
        <time>2011-06-25T11:52:02Z</time>
      </trkpt>
      <trkpt lat="43.303150" lon="-8.447180">
        <ele>167.0</ele>
        <time>2011-06-25T11:52:02Z</time>
      </trkpt>
      <trkpt lat="43.303148" lon="-8.447177">
        <ele>167.0</ele>
        <time>2011-06-25T11:52:03Z</time>
      </trkpt>
      <trkpt lat="43.303143" lon="-8.447195">
        <ele>167.0</ele>
        <time>2011-06-25T11:52:05Z</time>
      </trkpt>
      <trkpt lat="43.303148" lon="-8.447118">
        <ele>167.0</ele>
        <time>2011-06-25T11:52:07Z</time>
      </trkpt>
      <trkpt lat="43.303150" lon="-8.447115">
        <ele>167.0</ele>
        <time>2011-06-25T11:52:08Z</time>
      </trkpt>
      <trkpt lat="43.303150" lon="-8.447115">
        <ele>167.0</ele>
        <time>2011-06-25T11:52:09Z</time>
      </trkpt>
      <trkpt lat="43.303150" lon="-8.447117">
        <ele>167.0</ele>
        <time>2011-06-25T11:52:10Z</time>
      </trkpt>
      <trkpt lat="43.303207" lon="-8.447077">
        <ele>167.0</ele>
        <time>2011-06-25T11:52:12Z</time>
      </trkpt>
      <trkpt lat="43.303215" lon="-8.447072">
        <ele>167.0</ele>
        <time>2011-06-25T11:52:13Z</time>
      </trkpt>
      <trkpt lat="43.303225" lon="-8.446997">
        <ele>167.0</ele>
        <time>2011-06-25T11:52:15Z</time>
      </trkpt>
      <trkpt lat="43.303235" lon="-8.446997">
        <ele>167.0</ele>
        <time>2011-06-25T11:52:16Z</time>
      </trkpt>
      <trkpt lat="43.303238" lon="-8.446998">
        <ele>167.0</ele>
        <time>2011-06-25T11:52:17Z</time>
      </trkpt>
      <trkpt lat="43.303247" lon="-8.447013">
        <ele>167.0</ele>
        <time>2011-06-25T11:52:18Z</time>
      </trkpt>
      <trkpt lat="43.303253" lon="-8.447025">
        <ele>167.0</ele>
        <time>2011-06-25T11:52:19Z</time>
      </trkpt>
      <trkpt lat="43.303258" lon="-8.447025">
        <ele>167.0</ele>
        <time>2011-06-25T11:52:20Z</time>
      </trkpt>
      <trkpt lat="43.303262" lon="-8.447022">
        <ele>167.0</ele>
        <time>2011-06-25T11:52:21Z</time>
      </trkpt>
      <trkpt lat="43.303262" lon="-8.447020">
        <ele>167.0</ele>
        <time>2011-06-25T11:52:22Z</time>
      </trkpt>
      <trkpt lat="43.303263" lon="-8.447018">
        <ele>167.0</ele>
        <time>2011-06-25T11:52:23Z</time>
      </trkpt>
      <trkpt lat="43.303265" lon="-8.447025">
        <ele>167.0</ele>
        <time>2011-06-25T11:52:24Z</time>
      </trkpt>
      <trkpt lat="43.303270" lon="-8.447033">
        <ele>167.0</ele>
        <time>2011-06-25T11:52:25Z</time>
      </trkpt>
      <trkpt lat="43.303265" lon="-8.447042">
        <ele>167.0</ele>
        <time>2011-06-25T11:52:26Z</time>
      </trkpt>
      <trkpt lat="43.303262" lon="-8.447042">
        <ele>167.0</ele>
        <time>2011-06-25T11:52:27Z</time>
      </trkpt>
      <trkpt lat="43.303257" lon="-8.447043">
        <ele>167.0</ele>
        <time>2011-06-25T11:52:28Z</time>
      </trkpt>
      <trkpt lat="43.303253" lon="-8.447058">
        <ele>167.0</ele>
        <time>2011-06-25T11:52:29Z</time>
      </trkpt>
      <trkpt lat="43.303233" lon="-8.447115">
        <ele>167.0</ele>
        <time>2011-06-25T11:52:31Z</time>
      </trkpt>
      <trkpt lat="43.303232" lon="-8.447122">
        <ele>167.0</ele>
        <time>2011-06-25T11:52:32Z</time>
      </trkpt>
      <trkpt lat="43.303222" lon="-8.447118">
        <ele>167.0</ele>
        <time>2011-06-25T11:52:33Z</time>
      </trkpt>
      <trkpt lat="43.303215" lon="-8.447115">
        <ele>167.0</ele>
        <time>2011-06-25T11:52:34Z</time>
      </trkpt>
      <trkpt lat="43.303210" lon="-8.447087">
        <ele>167.0</ele>
        <time>2011-06-25T11:52:35Z</time>
      </trkpt>
      <trkpt lat="43.303193" lon="-8.447085">
        <ele>167.0</ele>
        <time>2011-06-25T11:52:36Z</time>
      </trkpt>
      <trkpt lat="43.303175" lon="-8.447097">
        <ele>167.0</ele>
        <time>2011-06-25T11:52:37Z</time>
      </trkpt>
      <trkpt lat="43.303142" lon="-8.447165">
        <ele>167.0</ele>
        <time>2011-06-25T11:52:39Z</time>
      </trkpt>
      <trkpt lat="43.303132" lon="-8.447178">
        <ele>167.0</ele>
        <time>2011-06-25T11:52:40Z</time>
      </trkpt>
      <trkpt lat="43.303127" lon="-8.447178">
        <ele>167.0</ele>
        <time>2011-06-25T11:52:41Z</time>
      </trkpt>
      <trkpt lat="43.303123" lon="-8.447190">
        <ele>167.0</ele>
        <time>2011-06-25T11:52:42Z</time>
      </trkpt>
      <trkpt lat="43.303115" lon="-8.447128">
        <ele>167.0</ele>
        <time>2011-06-25T11:52:44Z</time>
      </trkpt>
      <trkpt lat="43.303110" lon="-8.447123">
        <ele>167.0</ele>
        <time>2011-06-25T11:52:45Z</time>
      </trkpt>
      <trkpt lat="43.303105" lon="-8.447255">
        <ele>167.0</ele>
        <time>2011-06-25T11:52:47Z</time>
      </trkpt>
      <trkpt lat="43.303103" lon="-8.447252">
        <ele>167.0</ele>
        <time>2011-06-25T11:52:48Z</time>
      </trkpt>
      <trkpt lat="43.303100" lon="-8.447250">
        <ele>167.0</ele>
        <time>2011-06-25T11:52:49Z</time>
      </trkpt>
      <trkpt lat="43.303098" lon="-8.447263">
        <ele>167.0</ele>
        <time>2011-06-25T11:52:50Z</time>
      </trkpt>
      <trkpt lat="43.303095" lon="-8.447265">
        <ele>167.0</ele>
        <time>2011-06-25T11:52:51Z</time>
      </trkpt>
      <trkpt lat="43.303090" lon="-8.447267">
        <ele>167.0</ele>
        <time>2011-06-25T11:52:52Z</time>
      </trkpt>
      <trkpt lat="43.303083" lon="-8.447265">
        <ele>167.0</ele>
        <time>2011-06-25T11:52:53Z</time>
      </trkpt>
      <trkpt lat="43.303082" lon="-8.447287">
        <ele>166.0</ele>
        <time>2011-06-25T11:52:54Z</time>
      </trkpt>
      <trkpt lat="43.303078" lon="-8.447263">
        <ele>166.0</ele>
        <time>2011-06-25T11:52:55Z</time>
      </trkpt>
      <trkpt lat="43.303078" lon="-8.447262">
        <ele>166.0</ele>
        <time>2011-06-25T11:52:56Z</time>
      </trkpt>
      <trkpt lat="43.303075" lon="-8.447257">
        <ele>166.0</ele>
        <time>2011-06-25T11:52:57Z</time>
      </trkpt>
      <trkpt lat="43.303075" lon="-8.447250">
        <ele>164.5</ele>
        <time>2011-06-25T11:52:58Z</time>
      </trkpt>
      <trkpt lat="43.303075" lon="-8.447245">
        <ele>164.0</ele>
        <time>2011-06-25T11:52:59Z</time>
      </trkpt>
      <trkpt lat="43.303075" lon="-8.447240">
        <ele>164.0</ele>
        <time>2011-06-25T11:53:00Z</time>
      </trkpt>
      <trkpt lat="43.303077" lon="-8.447233">
        <ele>163.5</ele>
        <time>2011-06-25T11:53:01Z</time>
      </trkpt>
      <trkpt lat="43.303077" lon="-8.447232">
        <ele>163.0</ele>
        <time>2011-06-25T11:53:02Z</time>
      </trkpt>
      <trkpt lat="43.303073" lon="-8.447240">
        <ele>164.5</ele>
        <time>2011-06-25T11:53:03Z</time>
      </trkpt>
      <trkpt lat="43.303075" lon="-8.447245">
        <ele>164.0</ele>
        <time>2011-06-25T11:53:04Z</time>
      </trkpt>
      <trkpt lat="43.303075" lon="-8.447245">
        <ele>162.5</ele>
        <time>2011-06-25T11:53:05Z</time>
      </trkpt>
      <trkpt lat="43.303075" lon="-8.447250">
        <ele>162.5</ele>
        <time>2011-06-25T11:53:06Z</time>
      </trkpt>
      <trkpt lat="43.303080" lon="-8.447247">
        <ele>160.0</ele>
        <time>2011-06-25T11:53:07Z</time>
      </trkpt>
      <trkpt lat="43.303087" lon="-8.447247">
        <ele>159.0</ele>
        <time>2011-06-25T11:53:08Z</time>
      </trkpt>
      <trkpt lat="43.303092" lon="-8.447245">
        <ele>156.0</ele>
        <time>2011-06-25T11:53:09Z</time>
      </trkpt>
      <trkpt lat="43.303108" lon="-8.447230">
        <ele>156.0</ele>
        <time>2011-06-25T11:53:10Z</time>
      </trkpt>
      <trkpt lat="43.303122" lon="-8.447240">
        <ele>156.0</ele>
        <time>2011-06-25T11:53:11Z</time>
      </trkpt>
      <trkpt lat="43.303133" lon="-8.447243">
        <ele>156.5</ele>
        <time>2011-06-25T11:53:12Z</time>
      </trkpt>
      <trkpt lat="43.303145" lon="-8.447247">
        <ele>152.5</ele>
        <time>2011-06-25T11:53:13Z</time>
      </trkpt>
      <trkpt lat="43.303155" lon="-8.447247">
        <ele>153.0</ele>
        <time>2011-06-25T11:53:14Z</time>
      </trkpt>
      <trkpt lat="43.303167" lon="-8.447250">
        <ele>152.0</ele>
        <time>2011-06-25T11:53:15Z</time>
      </trkpt>
      <trkpt lat="43.303167" lon="-8.447253">
        <ele>151.5</ele>
        <time>2011-06-25T11:53:16Z</time>
      </trkpt>
      <trkpt lat="43.303158" lon="-8.447257">
        <ele>150.0</ele>
        <time>2011-06-25T11:53:17Z</time>
      </trkpt>
      <trkpt lat="43.303170" lon="-8.447285">
        <ele>150.5</ele>
        <time>2011-06-25T11:53:18Z</time>
      </trkpt>
      <trkpt lat="43.303180" lon="-8.447295">
        <ele>150.5</ele>
        <time>2011-06-25T11:53:19Z</time>
      </trkpt>
      <trkpt lat="43.303185" lon="-8.447310">
        <ele>151.0</ele>
        <time>2011-06-25T11:53:20Z</time>
      </trkpt>
      <trkpt lat="43.303190" lon="-8.447318">
        <ele>151.5</ele>
        <time>2011-06-25T11:53:21Z</time>
      </trkpt>
      <trkpt lat="43.303188" lon="-8.447343">
        <ele>153.0</ele>
        <time>2011-06-25T11:53:22Z</time>
      </trkpt>
      <trkpt lat="43.303177" lon="-8.447325">
        <ele>154.5</ele>
        <time>2011-06-25T11:53:23Z</time>
      </trkpt>
      <trkpt lat="43.303172" lon="-8.447312">
        <ele>155.5</ele>
        <time>2011-06-25T11:53:24Z</time>
      </trkpt>
      <trkpt lat="43.303170" lon="-8.447302">
        <ele>155.5</ele>
        <time>2011-06-25T11:53:25Z</time>
      </trkpt>
      <trkpt lat="43.303165" lon="-8.447312">
        <ele>157.5</ele>
        <time>2011-06-25T11:53:26Z</time>
      </trkpt>
      <trkpt lat="43.303145" lon="-8.447307">
        <ele>158.5</ele>
        <time>2011-06-25T11:53:27Z</time>
      </trkpt>
      <trkpt lat="43.303137" lon="-8.447302">
        <ele>159.0</ele>
        <time>2011-06-25T11:53:28Z</time>
      </trkpt>
      <trkpt lat="43.303132" lon="-8.447298">
        <ele>159.0</ele>
        <time>2011-06-25T11:53:29Z</time>
      </trkpt>
      <trkpt lat="43.303118" lon="-8.447323">
        <ele>161.5</ele>
        <time>2011-06-25T11:53:30Z</time>
      </trkpt>
      <trkpt lat="43.303110" lon="-8.447333">
        <ele>162.5</ele>
        <time>2011-06-25T11:53:31Z</time>
      </trkpt>
      <trkpt lat="43.303108" lon="-8.447327">
        <ele>162.5</ele>
        <time>2011-06-25T11:53:32Z</time>
      </trkpt>
      <trkpt lat="43.303097" lon="-8.447337">
        <ele>162.5</ele>
        <time>2011-06-25T11:53:33Z</time>
      </trkpt>
      <trkpt lat="43.303080" lon="-8.447365">
        <ele>164.0</ele>
        <time>2011-06-25T11:53:34Z</time>
      </trkpt>
      <trkpt lat="43.303073" lon="-8.447353">
        <ele>164.5</ele>
        <time>2011-06-25T11:53:35Z</time>
      </trkpt>
      <trkpt lat="43.303068" lon="-8.447350">
        <ele>165.0</ele>
        <time>2011-06-25T11:53:36Z</time>
      </trkpt>
      <trkpt lat="43.303070" lon="-8.447350">
        <ele>165.0</ele>
        <time>2011-06-25T11:53:37Z</time>
      </trkpt>
      <trkpt lat="43.303067" lon="-8.447345">
        <ele>165.0</ele>
        <time>2011-06-25T11:53:38Z</time>
      </trkpt>
      <trkpt lat="43.303063" lon="-8.447342">
        <ele>165.0</ele>
        <time>2011-06-25T11:53:39Z</time>
      </trkpt>
      <trkpt lat="43.303058" lon="-8.447342">
        <ele>165.0</ele>
        <time>2011-06-25T11:53:40Z</time>
      </trkpt>
      <trkpt lat="43.303062" lon="-8.447347">
        <ele>164.5</ele>
        <time>2011-06-25T11:53:41Z</time>
      </trkpt>
      <trkpt lat="43.303048" lon="-8.447360">
        <ele>165.5</ele>
        <time>2011-06-25T11:53:42Z</time>
      </trkpt>
      <trkpt lat="43.303043" lon="-8.447367">
        <ele>165.0</ele>
        <time>2011-06-25T11:53:43Z</time>
      </trkpt>
      <trkpt lat="43.303042" lon="-8.447383">
        <ele>164.5</ele>
        <time>2011-06-25T11:53:44Z</time>
      </trkpt>
      <trkpt lat="43.303033" lon="-8.447397">
        <ele>164.0</ele>
        <time>2011-06-25T11:53:45Z</time>
      </trkpt>
      <trkpt lat="43.303030" lon="-8.447407">
        <ele>163.5</ele>
        <time>2011-06-25T11:53:46Z</time>
      </trkpt>
      <trkpt lat="43.303027" lon="-8.447412">
        <ele>164.0</ele>
        <time>2011-06-25T11:53:47Z</time>
      </trkpt>
      <trkpt lat="43.303032" lon="-8.447422">
        <ele>163.5</ele>
        <time>2011-06-25T11:53:48Z</time>
      </trkpt>
      <trkpt lat="43.303033" lon="-8.447425">
        <ele>163.5</ele>
        <time>2011-06-25T11:53:49Z</time>
      </trkpt>
      <trkpt lat="43.303030" lon="-8.447430">
        <ele>163.5</ele>
        <time>2011-06-25T11:53:50Z</time>
      </trkpt>
      <trkpt lat="43.303028" lon="-8.447433">
        <ele>163.5</ele>
        <time>2011-06-25T11:53:51Z</time>
      </trkpt>
      <trkpt lat="43.303035" lon="-8.447448">
        <ele>163.0</ele>
        <time>2011-06-25T11:53:52Z</time>
      </trkpt>
      <trkpt lat="43.303038" lon="-8.447453">
        <ele>162.5</ele>
        <time>2011-06-25T11:53:53Z</time>
      </trkpt>
      <trkpt lat="43.303037" lon="-8.447458">
        <ele>163.0</ele>
        <time>2011-06-25T11:53:54Z</time>
      </trkpt>
      <trkpt lat="43.303035" lon="-8.447462">
        <ele>163.0</ele>
        <time>2011-06-25T11:53:55Z</time>
      </trkpt>
      <trkpt lat="43.303037" lon="-8.447465">
        <ele>163.0</ele>
        <time>2011-06-25T11:53:56Z</time>
      </trkpt>
      <trkpt lat="43.303035" lon="-8.447470">
        <ele>162.5</ele>
        <time>2011-06-25T11:53:57Z</time>
      </trkpt>
      <trkpt lat="43.303035" lon="-8.447468">
        <ele>164.0</ele>
        <time>2011-06-25T11:53:58Z</time>
      </trkpt>
      <trkpt lat="43.303038" lon="-8.447465">
        <ele>164.0</ele>
        <time>2011-06-25T11:53:59Z</time>
      </trkpt>
      <trkpt lat="43.303040" lon="-8.447475">
        <ele>163.5</ele>
        <time>2011-06-25T11:54:00Z</time>
      </trkpt>
      <trkpt lat="43.303042" lon="-8.447482">
        <ele>163.5</ele>
        <time>2011-06-25T11:54:01Z</time>
      </trkpt>
      <trkpt lat="43.303037" lon="-8.447470">
        <ele>163.0</ele>
        <time>2011-06-25T11:54:02Z</time>
      </trkpt>
      <trkpt lat="43.303032" lon="-8.447462">
        <ele>162.5</ele>
        <time>2011-06-25T11:54:03Z</time>
      </trkpt>
      <trkpt lat="43.303032" lon="-8.447465">
        <ele>161.5</ele>
        <time>2011-06-25T11:54:04Z</time>
      </trkpt>
      <trkpt lat="43.303030" lon="-8.447465">
        <ele>161.0</ele>
        <time>2011-06-25T11:54:05Z</time>
      </trkpt>
      <trkpt lat="43.303028" lon="-8.447457">
        <ele>162.0</ele>
        <time>2011-06-25T11:54:06Z</time>
      </trkpt>
      <trkpt lat="43.303028" lon="-8.447450">
        <ele>162.0</ele>
        <time>2011-06-25T11:54:07Z</time>
      </trkpt>
      <trkpt lat="43.303028" lon="-8.447445">
        <ele>162.0</ele>
        <time>2011-06-25T11:54:08Z</time>
      </trkpt>
      <trkpt lat="43.303032" lon="-8.447450">
        <ele>160.0</ele>
        <time>2011-06-25T11:54:09Z</time>
      </trkpt>
      <trkpt lat="43.303032" lon="-8.447440">
        <ele>161.5</ele>
        <time>2011-06-25T11:54:10Z</time>
      </trkpt>
      <trkpt lat="43.303040" lon="-8.447430">
        <ele>161.0</ele>
        <time>2011-06-25T11:54:11Z</time>
      </trkpt>
      <trkpt lat="43.303047" lon="-8.447423">
        <ele>161.0</ele>
        <time>2011-06-25T11:54:12Z</time>
      </trkpt>
      <trkpt lat="43.303057" lon="-8.447432">
        <ele>160.5</ele>
        <time>2011-06-25T11:54:13Z</time>
      </trkpt>
      <trkpt lat="43.303060" lon="-8.447430">
        <ele>160.5</ele>
        <time>2011-06-25T11:54:14Z</time>
      </trkpt>
      <trkpt lat="43.303063" lon="-8.447430">
        <ele>160.5</ele>
        <time>2011-06-25T11:54:15Z</time>
      </trkpt>
      <trkpt lat="43.303065" lon="-8.447418">
        <ele>160.0</ele>
        <time>2011-06-25T11:54:16Z</time>
      </trkpt>
      <trkpt lat="43.303068" lon="-8.447425">
        <ele>160.0</ele>
        <time>2011-06-25T11:54:17Z</time>
      </trkpt>
      <trkpt lat="43.303068" lon="-8.447415">
        <ele>161.0</ele>
        <time>2011-06-25T11:54:18Z</time>
      </trkpt>
      <trkpt lat="43.303073" lon="-8.447423">
        <ele>158.0</ele>
        <time>2011-06-25T11:54:19Z</time>
      </trkpt>
      <trkpt lat="43.303078" lon="-8.447418">
        <ele>156.5</ele>
        <time>2011-06-25T11:54:20Z</time>
      </trkpt>
      <trkpt lat="43.303078" lon="-8.447420">
        <ele>155.5</ele>
        <time>2011-06-25T11:54:21Z</time>
      </trkpt>
      <trkpt lat="43.303070" lon="-8.447427">
        <ele>155.5</ele>
        <time>2011-06-25T11:54:22Z</time>
      </trkpt>
      <trkpt lat="43.303077" lon="-8.447410">
        <ele>151.0</ele>
        <time>2011-06-25T11:54:23Z</time>
      </trkpt>
      <trkpt lat="43.303083" lon="-8.447408">
        <ele>149.5</ele>
        <time>2011-06-25T11:54:24Z</time>
      </trkpt>
      <trkpt lat="43.303083" lon="-8.447408">
        <ele>150.0</ele>
        <time>2011-06-25T11:54:25Z</time>
      </trkpt>
      <trkpt lat="43.303078" lon="-8.447380">
        <ele>152.5</ele>
        <time>2011-06-25T11:54:26Z</time>
      </trkpt>
      <trkpt lat="43.303085" lon="-8.447382">
        <ele>150.0</ele>
        <time>2011-06-25T11:54:27Z</time>
      </trkpt>
      <trkpt lat="43.303090" lon="-8.447387">
        <ele>149.0</ele>
        <time>2011-06-25T11:54:28Z</time>
      </trkpt>
      <trkpt lat="43.303085" lon="-8.447363">
        <ele>149.5</ele>
        <time>2011-06-25T11:54:29Z</time>
      </trkpt>
      <trkpt lat="43.303078" lon="-8.447347">
        <ele>151.5</ele>
        <time>2011-06-25T11:54:30Z</time>
      </trkpt>
      <trkpt lat="43.303087" lon="-8.447353">
        <ele>148.0</ele>
        <time>2011-06-25T11:54:31Z</time>
      </trkpt>
      <trkpt lat="43.303093" lon="-8.447355">
        <ele>147.0</ele>
        <time>2011-06-25T11:54:32Z</time>
      </trkpt>
      <trkpt lat="43.303093" lon="-8.447345">
        <ele>147.0</ele>
        <time>2011-06-25T11:54:33Z</time>
      </trkpt>
      <trkpt lat="43.303095" lon="-8.447313">
        <ele>147.5</ele>
        <time>2011-06-25T11:54:35Z</time>
      </trkpt>
      <trkpt lat="43.303098" lon="-8.447310">
        <ele>147.5</ele>
        <time>2011-06-25T11:54:36Z</time>
      </trkpt>
      <trkpt lat="43.303092" lon="-8.447332">
        <ele>147.0</ele>
        <time>2011-06-25T11:54:37Z</time>
      </trkpt>
      <trkpt lat="43.303083" lon="-8.447293">
        <ele>146.5</ele>
        <time>2011-06-25T11:54:38Z</time>
      </trkpt>
      <trkpt lat="43.303078" lon="-8.447283">
        <ele>146.5</ele>
        <time>2011-06-25T11:54:39Z</time>
      </trkpt>
      <trkpt lat="43.303078" lon="-8.447277">
        <ele>146.0</ele>
        <time>2011-06-25T11:54:40Z</time>
      </trkpt>
      <trkpt lat="43.303078" lon="-8.447267">
        <ele>145.5</ele>
        <time>2011-06-25T11:54:41Z</time>
      </trkpt>
      <trkpt lat="43.303153" lon="-8.447180">
        <ele>144.5</ele>
        <time>2011-06-25T11:54:44Z</time>
      </trkpt>
      <trkpt lat="43.303140" lon="-8.447182">
        <ele>145.0</ele>
        <time>2011-06-25T11:54:46Z</time>
      </trkpt>
      <trkpt lat="43.303135" lon="-8.447167">
        <ele>145.0</ele>
        <time>2011-06-25T11:54:47Z</time>
      </trkpt>
      <trkpt lat="43.303125" lon="-8.447152">
        <ele>145.0</ele>
        <time>2011-06-25T11:54:48Z</time>
      </trkpt>
      <trkpt lat="43.303112" lon="-8.447253">
        <ele>147.0</ele>
        <time>2011-06-25T11:54:50Z</time>
      </trkpt>
      <trkpt lat="43.303112" lon="-8.447255">
        <ele>147.5</ele>
        <time>2011-06-25T11:54:51Z</time>
      </trkpt>
      <trkpt lat="43.303112" lon="-8.447252">
        <ele>147.5</ele>
        <time>2011-06-25T11:54:52Z</time>
      </trkpt>
      <trkpt lat="43.303117" lon="-8.447322">
        <ele>150.0</ele>
        <time>2011-06-25T11:54:54Z</time>
      </trkpt>
      <trkpt lat="43.303120" lon="-8.447333">
        <ele>150.5</ele>
        <time>2011-06-25T11:54:55Z</time>
      </trkpt>
      <trkpt lat="43.303120" lon="-8.447340">
        <ele>150.5</ele>
        <time>2011-06-25T11:54:56Z</time>
      </trkpt>
      <trkpt lat="43.303113" lon="-8.447403">
        <ele>152.0</ele>
        <time>2011-06-25T11:54:58Z</time>
      </trkpt>
      <trkpt lat="43.303112" lon="-8.447405">
        <ele>152.0</ele>
        <time>2011-06-25T11:54:59Z</time>
      </trkpt>
      <trkpt lat="43.303112" lon="-8.447405">
        <ele>152.0</ele>
        <time>2011-06-25T11:55:00Z</time>
      </trkpt>
      <trkpt lat="43.303105" lon="-8.447393">
        <ele>152.5</ele>
        <time>2011-06-25T11:55:01Z</time>
      </trkpt>
      <trkpt lat="43.303108" lon="-8.447373">
        <ele>154.5</ele>
        <time>2011-06-25T11:55:02Z</time>
      </trkpt>
      <trkpt lat="43.303110" lon="-8.447363">
        <ele>154.5</ele>
        <time>2011-06-25T11:55:03Z</time>
      </trkpt>
      <trkpt lat="43.303110" lon="-8.447355">
        <ele>154.5</ele>
        <time>2011-06-25T11:55:04Z</time>
      </trkpt>
      <trkpt lat="43.303105" lon="-8.447335">
        <ele>155.0</ele>
        <time>2011-06-25T11:55:05Z</time>
      </trkpt>
      <trkpt lat="43.303103" lon="-8.447327">
        <ele>155.0</ele>
        <time>2011-06-25T11:55:06Z</time>
      </trkpt>
      <trkpt lat="43.303102" lon="-8.447322">
        <ele>155.5</ele>
        <time>2011-06-25T11:55:07Z</time>
      </trkpt>
      <trkpt lat="43.303100" lon="-8.447322">
        <ele>155.5</ele>
        <time>2011-06-25T11:55:08Z</time>
      </trkpt>
      <trkpt lat="43.303083" lon="-8.447372">
        <ele>155.5</ele>
        <time>2011-06-25T11:55:10Z</time>
      </trkpt>
      <trkpt lat="43.303078" lon="-8.447378">
        <ele>155.5</ele>
        <time>2011-06-25T11:55:11Z</time>
      </trkpt>
      <trkpt lat="43.303077" lon="-8.447385">
        <ele>155.5</ele>
        <time>2011-06-25T11:55:12Z</time>
      </trkpt>
      <trkpt lat="43.303070" lon="-8.447388">
        <ele>155.5</ele>
        <time>2011-06-25T11:55:13Z</time>
      </trkpt>
      <trkpt lat="43.303065" lon="-8.447390">
        <ele>155.5</ele>
        <time>2011-06-25T11:55:14Z</time>
      </trkpt>
      <trkpt lat="43.303058" lon="-8.447392">
        <ele>155.5</ele>
        <time>2011-06-25T11:55:15Z</time>
      </trkpt>
      <trkpt lat="43.303052" lon="-8.447392">
        <ele>156.0</ele>
        <time>2011-06-25T11:55:16Z</time>
      </trkpt>
      <trkpt lat="43.303048" lon="-8.447373">
        <ele>156.0</ele>
        <time>2011-06-25T11:55:17Z</time>
      </trkpt>
      <trkpt lat="43.303048" lon="-8.447370">
        <ele>156.0</ele>
        <time>2011-06-25T11:55:18Z</time>
      </trkpt>
      <trkpt lat="43.303048" lon="-8.447367">
        <ele>156.0</ele>
        <time>2011-06-25T11:55:19Z</time>
      </trkpt>
      <trkpt lat="43.303050" lon="-8.447365">
        <ele>156.0</ele>
        <time>2011-06-25T11:55:20Z</time>
      </trkpt>
      <trkpt lat="43.303047" lon="-8.447360">
        <ele>156.0</ele>
        <time>2011-06-25T11:55:21Z</time>
      </trkpt>
      <trkpt lat="43.303050" lon="-8.447355">
        <ele>156.0</ele>
        <time>2011-06-25T11:55:22Z</time>
      </trkpt>
      <trkpt lat="43.303057" lon="-8.447348">
        <ele>156.5</ele>
        <time>2011-06-25T11:55:23Z</time>
      </trkpt>
      <trkpt lat="43.303063" lon="-8.447355">
        <ele>155.0</ele>
        <time>2011-06-25T11:55:24Z</time>
      </trkpt>
      <trkpt lat="43.303055" lon="-8.447328">
        <ele>155.0</ele>
        <time>2011-06-25T11:55:25Z</time>
      </trkpt>
      <trkpt lat="43.303053" lon="-8.447303">
        <ele>155.0</ele>
        <time>2011-06-25T11:55:26Z</time>
      </trkpt>
      <trkpt lat="43.303060" lon="-8.447283">
        <ele>155.0</ele>
        <time>2011-06-25T11:55:27Z</time>
      </trkpt>
      <trkpt lat="43.303068" lon="-8.447267">
        <ele>155.5</ele>
        <time>2011-06-25T11:55:28Z</time>
      </trkpt>
      <trkpt lat="43.303078" lon="-8.447252">
        <ele>155.5</ele>
        <time>2011-06-25T11:55:29Z</time>
      </trkpt>
      <trkpt lat="43.303082" lon="-8.447250">
        <ele>155.0</ele>
        <time>2011-06-25T11:55:30Z</time>
      </trkpt>
      <trkpt lat="43.303088" lon="-8.447240">
        <ele>155.0</ele>
        <time>2011-06-25T11:55:31Z</time>
      </trkpt>
      <trkpt lat="43.303093" lon="-8.447245">
        <ele>154.5</ele>
        <time>2011-06-25T11:55:32Z</time>
      </trkpt>
      <trkpt lat="43.303100" lon="-8.447243">
        <ele>154.0</ele>
        <time>2011-06-25T11:55:33Z</time>
      </trkpt>
      <trkpt lat="43.303107" lon="-8.447255">
        <ele>154.0</ele>
        <time>2011-06-25T11:55:34Z</time>
      </trkpt>
      <trkpt lat="43.303113" lon="-8.447245">
        <ele>154.0</ele>
        <time>2011-06-25T11:55:35Z</time>
      </trkpt>
      <trkpt lat="43.303127" lon="-8.447235">
        <ele>154.0</ele>
        <time>2011-06-25T11:55:36Z</time>
      </trkpt>
      <trkpt lat="43.303145" lon="-8.447230">
        <ele>153.5</ele>
        <time>2011-06-25T11:55:37Z</time>
      </trkpt>
      <trkpt lat="43.303155" lon="-8.447245">
        <ele>153.5</ele>
        <time>2011-06-25T11:55:38Z</time>
      </trkpt>
      <trkpt lat="43.303163" lon="-8.447230">
        <ele>153.5</ele>
        <time>2011-06-25T11:55:39Z</time>
      </trkpt>
      <trkpt lat="43.303163" lon="-8.447227">
        <ele>153.5</ele>
        <time>2011-06-25T11:55:40Z</time>
      </trkpt>
      <trkpt lat="43.303170" lon="-8.447223">
        <ele>153.0</ele>
        <time>2011-06-25T11:55:41Z</time>
      </trkpt>
      <trkpt lat="43.303173" lon="-8.447250">
        <ele>153.0</ele>
        <time>2011-06-25T11:55:42Z</time>
      </trkpt>
      <trkpt lat="43.303163" lon="-8.447227">
        <ele>153.0</ele>
        <time>2011-06-25T11:55:43Z</time>
      </trkpt>
      <trkpt lat="43.303168" lon="-8.447222">
        <ele>152.5</ele>
        <time>2011-06-25T11:55:44Z</time>
      </trkpt>
      <trkpt lat="43.303165" lon="-8.447212">
        <ele>152.5</ele>
        <time>2011-06-25T11:55:45Z</time>
      </trkpt>
      <trkpt lat="43.303157" lon="-8.447218">
        <ele>152.5</ele>
        <time>2011-06-25T11:55:47Z</time>
      </trkpt>
      <trkpt lat="43.303155" lon="-8.447220">
        <ele>152.5</ele>
        <time>2011-06-25T11:55:48Z</time>
      </trkpt>
      <trkpt lat="43.303150" lon="-8.447212">
        <ele>152.0</ele>
        <time>2011-06-25T11:55:49Z</time>
      </trkpt>
      <trkpt lat="43.303150" lon="-8.447245">
        <ele>152.0</ele>
        <time>2011-06-25T11:55:50Z</time>
      </trkpt>
      <trkpt lat="43.303150" lon="-8.447248">
        <ele>152.0</ele>
        <time>2011-06-25T11:55:51Z</time>
      </trkpt>
      <trkpt lat="43.303148" lon="-8.447245">
        <ele>152.0</ele>
        <time>2011-06-25T11:55:52Z</time>
      </trkpt>
      <trkpt lat="43.303147" lon="-8.447243">
        <ele>152.0</ele>
        <time>2011-06-25T11:55:53Z</time>
      </trkpt>
      <trkpt lat="43.303148" lon="-8.447253">
        <ele>152.5</ele>
        <time>2011-06-25T11:55:54Z</time>
      </trkpt>
      <trkpt lat="43.303148" lon="-8.447243">
        <ele>152.5</ele>
        <time>2011-06-25T11:55:55Z</time>
      </trkpt>
      <trkpt lat="43.303148" lon="-8.447232">
        <ele>152.5</ele>
        <time>2011-06-25T11:55:56Z</time>
      </trkpt>
      <trkpt lat="43.303148" lon="-8.447223">
        <ele>152.5</ele>
        <time>2011-06-25T11:55:57Z</time>
      </trkpt>
      <trkpt lat="43.303157" lon="-8.447240">
        <ele>152.5</ele>
        <time>2011-06-25T11:55:58Z</time>
      </trkpt>
      <trkpt lat="43.303153" lon="-8.447242">
        <ele>152.5</ele>
        <time>2011-06-25T11:55:59Z</time>
      </trkpt>
      <trkpt lat="43.303152" lon="-8.447255">
        <ele>152.5</ele>
        <time>2011-06-25T11:56:00Z</time>
      </trkpt>
      <trkpt lat="43.303148" lon="-8.447262">
        <ele>152.5</ele>
        <time>2011-06-25T11:56:01Z</time>
      </trkpt>
      <trkpt lat="43.303150" lon="-8.447262">
        <ele>152.5</ele>
        <time>2011-06-25T11:56:02Z</time>
      </trkpt>
      <trkpt lat="43.303147" lon="-8.447242">
        <ele>152.5</ele>
        <time>2011-06-25T11:56:03Z</time>
      </trkpt>
      <trkpt lat="43.303142" lon="-8.447248">
        <ele>152.5</ele>
        <time>2011-06-25T11:56:04Z</time>
      </trkpt>
      <trkpt lat="43.303137" lon="-8.447245">
        <ele>152.5</ele>
        <time>2011-06-25T11:56:05Z</time>
      </trkpt>
      <trkpt lat="43.303142" lon="-8.447242">
        <ele>153.0</ele>
        <time>2011-06-25T11:56:06Z</time>
      </trkpt>
      <trkpt lat="43.303140" lon="-8.447230">
        <ele>153.0</ele>
        <time>2011-06-25T11:56:07Z</time>
      </trkpt>
      <trkpt lat="43.303138" lon="-8.447230">
        <ele>153.0</ele>
        <time>2011-06-25T11:56:08Z</time>
      </trkpt>
      <trkpt lat="43.303137" lon="-8.447232">
        <ele>153.0</ele>
        <time>2011-06-25T11:56:09Z</time>
      </trkpt>
      <trkpt lat="43.303138" lon="-8.447227">
        <ele>153.0</ele>
        <time>2011-06-25T11:56:10Z</time>
      </trkpt>
      <trkpt lat="43.303132" lon="-8.447205">
        <ele>153.0</ele>
        <time>2011-06-25T11:56:11Z</time>
      </trkpt>
      <trkpt lat="43.303125" lon="-8.447210">
        <ele>153.5</ele>
        <time>2011-06-25T11:56:12Z</time>
      </trkpt>
      <trkpt lat="43.303120" lon="-8.447210">
        <ele>153.5</ele>
        <time>2011-06-25T11:56:13Z</time>
      </trkpt>
      <trkpt lat="43.303118" lon="-8.447198">
        <ele>153.5</ele>
        <time>2011-06-25T11:56:14Z</time>
      </trkpt>
      <trkpt lat="43.303115" lon="-8.447190">
        <ele>153.5</ele>
        <time>2011-06-25T11:56:15Z</time>
      </trkpt>
      <trkpt lat="43.303112" lon="-8.447203">
        <ele>153.5</ele>
        <time>2011-06-25T11:56:16Z</time>
      </trkpt>
      <trkpt lat="43.303108" lon="-8.447212">
        <ele>153.5</ele>
        <time>2011-06-25T11:56:17Z</time>
      </trkpt>
      <trkpt lat="43.303108" lon="-8.447217">
        <ele>153.5</ele>
        <time>2011-06-25T11:56:18Z</time>
      </trkpt>
      <trkpt lat="43.303108" lon="-8.447222">
        <ele>153.5</ele>
        <time>2011-06-25T11:56:19Z</time>
      </trkpt>
      <trkpt lat="43.303108" lon="-8.447208">
        <ele>154.0</ele>
        <time>2011-06-25T11:56:20Z</time>
      </trkpt>
      <trkpt lat="43.303107" lon="-8.447198">
        <ele>154.0</ele>
        <time>2011-06-25T11:56:21Z</time>
      </trkpt>
      <trkpt lat="43.303105" lon="-8.447200">
        <ele>154.0</ele>
        <time>2011-06-25T11:56:22Z</time>
      </trkpt>
      <trkpt lat="43.303105" lon="-8.447197">
        <ele>154.0</ele>
        <time>2011-06-25T11:56:23Z</time>
      </trkpt>
      <trkpt lat="43.303103" lon="-8.447203">
        <ele>154.0</ele>
        <time>2011-06-25T11:56:24Z</time>
      </trkpt>
      <trkpt lat="43.303105" lon="-8.447217">
        <ele>154.0</ele>
        <time>2011-06-25T11:56:25Z</time>
      </trkpt>
      <trkpt lat="43.303103" lon="-8.447220">
        <ele>154.0</ele>
        <time>2011-06-25T11:56:26Z</time>
      </trkpt>
      <trkpt lat="43.303108" lon="-8.447227">
        <ele>154.0</ele>
        <time>2011-06-25T11:56:27Z</time>
      </trkpt>
      <trkpt lat="43.303108" lon="-8.447225">
        <ele>154.0</ele>
        <time>2011-06-25T11:56:28Z</time>
      </trkpt>
      <trkpt lat="43.303112" lon="-8.447225">
        <ele>154.0</ele>
        <time>2011-06-25T11:56:29Z</time>
      </trkpt>
      <trkpt lat="43.303115" lon="-8.447223">
        <ele>154.0</ele>
        <time>2011-06-25T11:56:30Z</time>
      </trkpt>
      <trkpt lat="43.303118" lon="-8.447215">
        <ele>154.0</ele>
        <time>2011-06-25T11:56:31Z</time>
      </trkpt>
      <trkpt lat="43.303130" lon="-8.447213">
        <ele>154.0</ele>
        <time>2011-06-25T11:56:32Z</time>
      </trkpt>
      <trkpt lat="43.303140" lon="-8.447213">
        <ele>154.0</ele>
        <time>2011-06-25T11:56:33Z</time>
      </trkpt>
      <trkpt lat="43.303145" lon="-8.447268">
        <ele>154.0</ele>
        <time>2011-06-25T11:56:35Z</time>
      </trkpt>
      <trkpt lat="43.303140" lon="-8.447273">
        <ele>154.0</ele>
        <time>2011-06-25T11:56:36Z</time>
      </trkpt>
      <trkpt lat="43.303137" lon="-8.447277">
        <ele>154.0</ele>
        <time>2011-06-25T11:56:37Z</time>
      </trkpt>
      <trkpt lat="43.303115" lon="-8.447318">
        <ele>154.0</ele>
        <time>2011-06-25T11:56:39Z</time>
      </trkpt>
      <trkpt lat="43.303108" lon="-8.447318">
        <ele>154.0</ele>
        <time>2011-06-25T11:56:40Z</time>
      </trkpt>
      <trkpt lat="43.303102" lon="-8.447318">
        <ele>154.0</ele>
        <time>2011-06-25T11:56:41Z</time>
      </trkpt>
      <trkpt lat="43.303097" lon="-8.447327">
        <ele>154.0</ele>
        <time>2011-06-25T11:56:42Z</time>
      </trkpt>
      <trkpt lat="43.303048" lon="-8.447140">
        <ele>154.0</ele>
        <time>2011-06-25T11:56:45Z</time>
      </trkpt>
      <trkpt lat="43.303033" lon="-8.447145">
        <ele>154.0</ele>
        <time>2011-06-25T11:56:46Z</time>
      </trkpt>
      <trkpt lat="43.303030" lon="-8.447152">
        <ele>154.0</ele>
        <time>2011-06-25T11:56:47Z</time>
      </trkpt>
      <trkpt lat="43.303028" lon="-8.447153">
        <ele>154.0</ele>
        <time>2011-06-25T11:56:48Z</time>
      </trkpt>
      <trkpt lat="43.303028" lon="-8.447178">
        <ele>154.0</ele>
        <time>2011-06-25T11:56:49Z</time>
      </trkpt>
      <trkpt lat="43.303027" lon="-8.447197">
        <ele>154.0</ele>
        <time>2011-06-25T11:56:50Z</time>
      </trkpt>
      <trkpt lat="43.303027" lon="-8.447198">
        <ele>154.0</ele>
        <time>2011-06-25T11:56:51Z</time>
      </trkpt>
      <trkpt lat="43.303028" lon="-8.447198">
        <ele>154.0</ele>
        <time>2011-06-25T11:56:52Z</time>
      </trkpt>
      <trkpt lat="43.303030" lon="-8.447197">
        <ele>154.0</ele>
        <time>2011-06-25T11:56:53Z</time>
      </trkpt>
      <trkpt lat="43.303032" lon="-8.447203">
        <ele>153.5</ele>
        <time>2011-06-25T11:56:54Z</time>
      </trkpt>
      <trkpt lat="43.303033" lon="-8.447203">
        <ele>153.5</ele>
        <time>2011-06-25T11:56:55Z</time>
      </trkpt>
      <trkpt lat="43.303033" lon="-8.447203">
        <ele>153.0</ele>
        <time>2011-06-25T11:56:56Z</time>
      </trkpt>
      <trkpt lat="43.303035" lon="-8.447198">
        <ele>153.0</ele>
        <time>2011-06-25T11:56:57Z</time>
      </trkpt>
      <trkpt lat="43.303035" lon="-8.447198">
        <ele>153.0</ele>
        <time>2011-06-25T11:56:58Z</time>
      </trkpt>
      <trkpt lat="43.303037" lon="-8.447203">
        <ele>152.0</ele>
        <time>2011-06-25T11:56:59Z</time>
      </trkpt>
      <trkpt lat="43.303035" lon="-8.447207">
        <ele>152.0</ele>
        <time>2011-06-25T11:57:00Z</time>
      </trkpt>
      <trkpt lat="43.303033" lon="-8.447218">
        <ele>152.0</ele>
        <time>2011-06-25T11:57:01Z</time>
      </trkpt>
      <trkpt lat="43.303028" lon="-8.447232">
        <ele>151.5</ele>
        <time>2011-06-25T11:57:02Z</time>
      </trkpt>
      <trkpt lat="43.303023" lon="-8.447240">
        <ele>151.5</ele>
        <time>2011-06-25T11:57:03Z</time>
      </trkpt>
      <trkpt lat="43.303020" lon="-8.447247">
        <ele>151.5</ele>
        <time>2011-06-25T11:57:04Z</time>
      </trkpt>
      <trkpt lat="43.303018" lon="-8.447252">
        <ele>151.5</ele>
        <time>2011-06-25T11:57:05Z</time>
      </trkpt>
      <trkpt lat="43.303017" lon="-8.447257">
        <ele>151.5</ele>
        <time>2011-06-25T11:57:06Z</time>
      </trkpt>
      <trkpt lat="43.303015" lon="-8.447260">
        <ele>151.5</ele>
        <time>2011-06-25T11:57:07Z</time>
      </trkpt>
      <trkpt lat="43.303017" lon="-8.447260">
        <ele>151.5</ele>
        <time>2011-06-25T11:57:08Z</time>
      </trkpt>
      <trkpt lat="43.303018" lon="-8.447267">
        <ele>151.5</ele>
        <time>2011-06-25T11:57:09Z</time>
      </trkpt>
      <trkpt lat="43.303027" lon="-8.447245">
        <ele>151.5</ele>
        <time>2011-06-25T11:57:10Z</time>
      </trkpt>
      <trkpt lat="43.303030" lon="-8.447262">
        <ele>151.5</ele>
        <time>2011-06-25T11:57:11Z</time>
      </trkpt>
      <trkpt lat="43.303038" lon="-8.447278">
        <ele>151.5</ele>
        <time>2011-06-25T11:57:12Z</time>
      </trkpt>
      <trkpt lat="43.303042" lon="-8.447285">
        <ele>151.5</ele>
        <time>2011-06-25T11:57:13Z</time>
      </trkpt>
      <trkpt lat="43.303047" lon="-8.447283">
        <ele>151.5</ele>
        <time>2011-06-25T11:57:14Z</time>
      </trkpt>
      <trkpt lat="43.303052" lon="-8.447288">
        <ele>151.5</ele>
        <time>2011-06-25T11:57:15Z</time>
      </trkpt>
      <trkpt lat="43.303058" lon="-8.447288">
        <ele>151.5</ele>
        <time>2011-06-25T11:57:16Z</time>
      </trkpt>
      <trkpt lat="43.303062" lon="-8.447288">
        <ele>151.5</ele>
        <time>2011-06-25T11:57:17Z</time>
      </trkpt>
      <trkpt lat="43.303060" lon="-8.447293">
        <ele>152.0</ele>
        <time>2011-06-25T11:57:18Z</time>
      </trkpt>
      <trkpt lat="43.303067" lon="-8.447282">
        <ele>152.0</ele>
        <time>2011-06-25T11:57:19Z</time>
      </trkpt>
      <trkpt lat="43.303067" lon="-8.447270">
        <ele>152.0</ele>
        <time>2011-06-25T11:57:20Z</time>
      </trkpt>
      <trkpt lat="43.303067" lon="-8.447262">
        <ele>152.0</ele>
        <time>2011-06-25T11:57:21Z</time>
      </trkpt>
      <trkpt lat="43.303068" lon="-8.447250">
        <ele>152.0</ele>
        <time>2011-06-25T11:57:22Z</time>
      </trkpt>
      <trkpt lat="43.303072" lon="-8.447245">
        <ele>152.0</ele>
        <time>2011-06-25T11:57:23Z</time>
      </trkpt>
      <trkpt lat="43.303070" lon="-8.447245">
        <ele>152.0</ele>
        <time>2011-06-25T11:57:24Z</time>
      </trkpt>
      <trkpt lat="43.303072" lon="-8.447242">
        <ele>152.0</ele>
        <time>2011-06-25T11:57:25Z</time>
      </trkpt>
      <trkpt lat="43.303073" lon="-8.447242">
        <ele>152.0</ele>
        <time>2011-06-25T11:57:26Z</time>
      </trkpt>
      <trkpt lat="43.303072" lon="-8.447242">
        <ele>152.0</ele>
        <time>2011-06-25T11:57:27Z</time>
      </trkpt>
      <trkpt lat="43.303072" lon="-8.447242">
        <ele>152.0</ele>
        <time>2011-06-25T11:57:28Z</time>
      </trkpt>
      <trkpt lat="43.303077" lon="-8.447238">
        <ele>152.0</ele>
        <time>2011-06-25T11:57:29Z</time>
      </trkpt>
      <trkpt lat="43.303087" lon="-8.447240">
        <ele>152.0</ele>
        <time>2011-06-25T11:57:30Z</time>
      </trkpt>
      <trkpt lat="43.303093" lon="-8.447247">
        <ele>152.0</ele>
        <time>2011-06-25T11:57:31Z</time>
      </trkpt>
      <trkpt lat="43.303087" lon="-8.447243">
        <ele>152.0</ele>
        <time>2011-06-25T11:57:33Z</time>
      </trkpt>
      <trkpt lat="43.303090" lon="-8.447223">
        <ele>152.0</ele>
        <time>2011-06-25T11:57:34Z</time>
      </trkpt>
      <trkpt lat="43.303090" lon="-8.447215">
        <ele>152.0</ele>
        <time>2011-06-25T11:57:35Z</time>
      </trkpt>
      <trkpt lat="43.303090" lon="-8.447205">
        <ele>152.0</ele>
        <time>2011-06-25T11:57:36Z</time>
      </trkpt>
      <trkpt lat="43.303093" lon="-8.447212">
        <ele>152.0</ele>
        <time>2011-06-25T11:57:37Z</time>
      </trkpt>
      <trkpt lat="43.303097" lon="-8.447218">
        <ele>152.0</ele>
        <time>2011-06-25T11:57:38Z</time>
      </trkpt>
      <trkpt lat="43.303125" lon="-8.447300">
        <ele>152.0</ele>
        <time>2011-06-25T11:57:40Z</time>
      </trkpt>
      <trkpt lat="43.303133" lon="-8.447287">
        <ele>152.0</ele>
        <time>2011-06-25T11:57:41Z</time>
      </trkpt>
      <trkpt lat="43.303140" lon="-8.447275">
        <ele>152.0</ele>
        <time>2011-06-25T11:57:42Z</time>
      </trkpt>
      <trkpt lat="43.303145" lon="-8.447263">
        <ele>152.0</ele>
        <time>2011-06-25T11:57:43Z</time>
      </trkpt>
      <trkpt lat="43.303148" lon="-8.447255">
        <ele>152.0</ele>
        <time>2011-06-25T11:57:44Z</time>
      </trkpt>
      <trkpt lat="43.303148" lon="-8.447248">
        <ele>152.0</ele>
        <time>2011-06-25T11:57:45Z</time>
      </trkpt>
      <trkpt lat="43.303148" lon="-8.447235">
        <ele>152.0</ele>
        <time>2011-06-25T11:57:46Z</time>
      </trkpt>
      <trkpt lat="43.303143" lon="-8.447220">
        <ele>152.5</ele>
        <time>2011-06-25T11:57:47Z</time>
      </trkpt>
      <trkpt lat="43.303143" lon="-8.447212">
        <ele>152.5</ele>
        <time>2011-06-25T11:57:48Z</time>
      </trkpt>
      <trkpt lat="43.303140" lon="-8.447205">
        <ele>152.5</ele>
        <time>2011-06-25T11:57:49Z</time>
      </trkpt>
      <trkpt lat="43.303137" lon="-8.447210">
        <ele>152.5</ele>
        <time>2011-06-25T11:57:50Z</time>
      </trkpt>
      <trkpt lat="43.303128" lon="-8.447207">
        <ele>152.5</ele>
        <time>2011-06-25T11:57:51Z</time>
      </trkpt>
      <trkpt lat="43.303123" lon="-8.447203">
        <ele>152.5</ele>
        <time>2011-06-25T11:57:52Z</time>
      </trkpt>
      <trkpt lat="43.303102" lon="-8.447222">
        <ele>152.5</ele>
        <time>2011-06-25T11:57:53Z</time>
      </trkpt>
      <trkpt lat="43.303088" lon="-8.447228">
        <ele>152.5</ele>
        <time>2011-06-25T11:57:54Z</time>
      </trkpt>
      <trkpt lat="43.303085" lon="-8.447230">
        <ele>152.5</ele>
        <time>2011-06-25T11:57:55Z</time>
      </trkpt>
      <trkpt lat="43.303083" lon="-8.447232">
        <ele>152.5</ele>
        <time>2011-06-25T11:57:56Z</time>
      </trkpt>
      <trkpt lat="43.303062" lon="-8.447335">
        <ele>152.5</ele>
        <time>2011-06-25T11:57:59Z</time>
      </trkpt>
      <trkpt lat="43.303060" lon="-8.447337">
        <ele>152.5</ele>
        <time>2011-06-25T11:58:00Z</time>
      </trkpt>
      <trkpt lat="43.302985" lon="-8.447433">
        <ele>152.0</ele>
        <time>2011-06-25T11:58:02Z</time>
      </trkpt>
      <trkpt lat="43.303010" lon="-8.447412">
        <ele>152.5</ele>
        <time>2011-06-25T11:58:04Z</time>
      </trkpt>
      <trkpt lat="43.303013" lon="-8.447418">
        <ele>152.5</ele>
        <time>2011-06-25T11:58:04Z</time>
      </trkpt>
      <trkpt lat="43.303015" lon="-8.447422">
        <ele>152.5</ele>
        <time>2011-06-25T11:58:05Z</time>
      </trkpt>
      <trkpt lat="43.303110" lon="-8.447425">
        <ele>152.5</ele>
        <time>2011-06-25T11:58:13Z</time>
      </trkpt>
      <trkpt lat="43.303112" lon="-8.447373">
        <ele>152.5</ele>
        <time>2011-06-25T11:58:14Z</time>
      </trkpt>
      <trkpt lat="43.303117" lon="-8.447215">
        <ele>152.5</ele>
        <time>2011-06-25T11:58:17Z</time>
      </trkpt>
      <trkpt lat="43.303118" lon="-8.447192">
        <ele>152.5</ele>
        <time>2011-06-25T11:58:18Z</time>
      </trkpt>
      <trkpt lat="43.303117" lon="-8.447180">
        <ele>152.5</ele>
        <time>2011-06-25T11:58:19Z</time>
      </trkpt>
      <trkpt lat="43.303120" lon="-8.447103">
        <ele>152.5</ele>
        <time>2011-06-25T11:58:21Z</time>
      </trkpt>
      <trkpt lat="43.303120" lon="-8.447073">
        <ele>152.5</ele>
        <time>2011-06-25T11:58:22Z</time>
      </trkpt>
      <trkpt lat="43.303122" lon="-8.447057">
        <ele>152.5</ele>
        <time>2011-06-25T11:58:23Z</time>
      </trkpt>
      <trkpt lat="43.303132" lon="-8.447097">
        <ele>152.5</ele>
        <time>2011-06-25T11:58:25Z</time>
      </trkpt>
      <trkpt lat="43.303137" lon="-8.447150">
        <ele>153.0</ele>
        <time>2011-06-25T11:58:27Z</time>
      </trkpt>
      <trkpt lat="43.303133" lon="-8.447112">
        <ele>153.0</ele>
        <time>2011-06-25T11:58:29Z</time>
      </trkpt>
      <trkpt lat="43.303132" lon="-8.447097">
        <ele>153.5</ele>
        <time>2011-06-25T11:58:30Z</time>
      </trkpt>
      <trkpt lat="43.303123" lon="-8.447087">
        <ele>153.0</ele>
        <time>2011-06-25T11:58:31Z</time>
      </trkpt>
      <trkpt lat="43.303123" lon="-8.447072">
        <ele>153.0</ele>
        <time>2011-06-25T11:58:32Z</time>
      </trkpt>
      <trkpt lat="43.303125" lon="-8.447067">
        <ele>153.0</ele>
        <time>2011-06-25T11:58:33Z</time>
      </trkpt>
      <trkpt lat="43.303132" lon="-8.447133">
        <ele>153.5</ele>
        <time>2011-06-25T11:58:35Z</time>
      </trkpt>
      <trkpt lat="43.303133" lon="-8.447140">
        <ele>153.5</ele>
        <time>2011-06-25T11:58:36Z</time>
      </trkpt>
      <trkpt lat="43.303135" lon="-8.447148">
        <ele>154.0</ele>
        <time>2011-06-25T11:58:37Z</time>
      </trkpt>
      <trkpt lat="43.303137" lon="-8.447150">
        <ele>154.5</ele>
        <time>2011-06-25T11:58:38Z</time>
      </trkpt>
      <trkpt lat="43.303138" lon="-8.447148">
        <ele>154.5</ele>
        <time>2011-06-25T11:58:39Z</time>
      </trkpt>
      <trkpt lat="43.303138" lon="-8.447145">
        <ele>154.5</ele>
        <time>2011-06-25T11:58:40Z</time>
      </trkpt>
      <trkpt lat="43.303140" lon="-8.447143">
        <ele>154.5</ele>
        <time>2011-06-25T11:58:41Z</time>
      </trkpt>
      <trkpt lat="43.303140" lon="-8.447140">
        <ele>154.5</ele>
        <time>2011-06-25T11:58:42Z</time>
      </trkpt>
      <trkpt lat="43.303140" lon="-8.447140">
        <ele>154.5</ele>
        <time>2011-06-25T11:58:43Z</time>
      </trkpt>
      <trkpt lat="43.303133" lon="-8.447143">
        <ele>155.0</ele>
        <time>2011-06-25T11:58:44Z</time>
      </trkpt>
      <trkpt lat="43.303128" lon="-8.447143">
        <ele>155.5</ele>
        <time>2011-06-25T11:58:45Z</time>
      </trkpt>
      <trkpt lat="43.303123" lon="-8.447142">
        <ele>156.0</ele>
        <time>2011-06-25T11:58:46Z</time>
      </trkpt>
      <trkpt lat="43.303118" lon="-8.447142">
        <ele>156.5</ele>
        <time>2011-06-25T11:58:47Z</time>
      </trkpt>
      <trkpt lat="43.303113" lon="-8.447138">
        <ele>156.5</ele>
        <time>2011-06-25T11:58:48Z</time>
      </trkpt>
      <trkpt lat="43.303108" lon="-8.447140">
        <ele>157.0</ele>
        <time>2011-06-25T11:58:49Z</time>
      </trkpt>
      <trkpt lat="43.303105" lon="-8.447150">
        <ele>156.5</ele>
        <time>2011-06-25T11:58:50Z</time>
      </trkpt>
      <trkpt lat="43.303103" lon="-8.447155">
        <ele>157.0</ele>
        <time>2011-06-25T11:58:51Z</time>
      </trkpt>
      <trkpt lat="43.303103" lon="-8.447157">
        <ele>157.0</ele>
        <time>2011-06-25T11:58:52Z</time>
      </trkpt>
      <trkpt lat="43.303102" lon="-8.447158">
        <ele>157.0</ele>
        <time>2011-06-25T11:58:53Z</time>
      </trkpt>
      <trkpt lat="43.303102" lon="-8.447162">
        <ele>156.5</ele>
        <time>2011-06-25T11:58:54Z</time>
      </trkpt>
      <trkpt lat="43.303100" lon="-8.447163">
        <ele>156.5</ele>
        <time>2011-06-25T11:58:55Z</time>
      </trkpt>
      <trkpt lat="43.303100" lon="-8.447165">
        <ele>156.5</ele>
        <time>2011-06-25T11:58:56Z</time>
      </trkpt>
      <trkpt lat="43.303098" lon="-8.447167">
        <ele>156.5</ele>
        <time>2011-06-25T11:58:57Z</time>
      </trkpt>
      <trkpt lat="43.303097" lon="-8.447170">
        <ele>156.5</ele>
        <time>2011-06-25T11:58:58Z</time>
      </trkpt>
      <trkpt lat="43.303095" lon="-8.447172">
        <ele>156.5</ele>
        <time>2011-06-25T11:58:59Z</time>
      </trkpt>
      <trkpt lat="43.303095" lon="-8.447172">
        <ele>156.0</ele>
        <time>2011-06-25T11:59:00Z</time>
      </trkpt>
      <trkpt lat="43.303095" lon="-8.447165">
        <ele>156.0</ele>
        <time>2011-06-25T11:59:01Z</time>
      </trkpt>
      <trkpt lat="43.303095" lon="-8.447165">
        <ele>156.0</ele>
        <time>2011-06-25T11:59:02Z</time>
      </trkpt>
      <trkpt lat="43.303093" lon="-8.447170">
        <ele>156.0</ele>
        <time>2011-06-25T11:59:03Z</time>
      </trkpt>
      <trkpt lat="43.303092" lon="-8.447175">
        <ele>157.0</ele>
        <time>2011-06-25T11:59:04Z</time>
      </trkpt>
      <trkpt lat="43.303088" lon="-8.447183">
        <ele>157.5</ele>
        <time>2011-06-25T11:59:05Z</time>
      </trkpt>
      <trkpt lat="43.303087" lon="-8.447188">
        <ele>157.5</ele>
        <time>2011-06-25T11:59:06Z</time>
      </trkpt>
      <trkpt lat="43.303083" lon="-8.447192">
        <ele>158.0</ele>
        <time>2011-06-25T11:59:07Z</time>
      </trkpt>
      <trkpt lat="43.303082" lon="-8.447193">
        <ele>158.0</ele>
        <time>2011-06-25T11:59:08Z</time>
      </trkpt>
      <trkpt lat="43.303080" lon="-8.447198">
        <ele>158.0</ele>
        <time>2011-06-25T11:59:09Z</time>
      </trkpt>
      <trkpt lat="43.303080" lon="-8.447198">
        <ele>158.5</ele>
        <time>2011-06-25T11:59:10Z</time>
      </trkpt>
      <trkpt lat="43.303080" lon="-8.447200">
        <ele>158.5</ele>
        <time>2011-06-25T11:59:11Z</time>
      </trkpt>
      <trkpt lat="43.303078" lon="-8.447202">
        <ele>158.5</ele>
        <time>2011-06-25T11:59:12Z</time>
      </trkpt>
      <trkpt lat="43.303078" lon="-8.447203">
        <ele>158.5</ele>
        <time>2011-06-25T11:59:13Z</time>
      </trkpt>
      <trkpt lat="43.303080" lon="-8.447203">
        <ele>158.5</ele>
        <time>2011-06-25T11:59:14Z</time>
      </trkpt>
      <trkpt lat="43.303078" lon="-8.447203">
        <ele>158.5</ele>
        <time>2011-06-25T11:59:15Z</time>
      </trkpt>
      <trkpt lat="43.303078" lon="-8.447203">
        <ele>158.5</ele>
        <time>2011-06-25T11:59:16Z</time>
      </trkpt>
      <trkpt lat="43.303078" lon="-8.447202">
        <ele>158.5</ele>
        <time>2011-06-25T11:59:17Z</time>
      </trkpt>
      <trkpt lat="43.303078" lon="-8.447203">
        <ele>158.5</ele>
        <time>2011-06-25T11:59:18Z</time>
      </trkpt>
      <trkpt lat="43.303078" lon="-8.447202">
        <ele>158.5</ele>
        <time>2011-06-25T11:59:19Z</time>
      </trkpt>
      <trkpt lat="43.303078" lon="-8.447203">
        <ele>158.5</ele>
        <time>2011-06-25T11:59:20Z</time>
      </trkpt>
      <trkpt lat="43.303078" lon="-8.447203">
        <ele>158.5</ele>
        <time>2011-06-25T11:59:21Z</time>
      </trkpt>
      <trkpt lat="43.303078" lon="-8.447203">
        <ele>158.5</ele>
        <time>2011-06-25T11:59:22Z</time>
      </trkpt>
      <trkpt lat="43.303078" lon="-8.447203">
        <ele>158.5</ele>
        <time>2011-06-25T11:59:23Z</time>
      </trkpt>
      <trkpt lat="43.303077" lon="-8.447207">
        <ele>159.0</ele>
        <time>2011-06-25T11:59:24Z</time>
      </trkpt>
      <trkpt lat="43.303073" lon="-8.447213">
        <ele>158.0</ele>
        <time>2011-06-25T11:59:25Z</time>
      </trkpt>
      <trkpt lat="43.303073" lon="-8.447218">
        <ele>158.0</ele>
        <time>2011-06-25T11:59:26Z</time>
      </trkpt>
      <trkpt lat="43.303073" lon="-8.447217">
        <ele>158.0</ele>
        <time>2011-06-25T11:59:27Z</time>
      </trkpt>
      <trkpt lat="43.303073" lon="-8.447217">
        <ele>158.0</ele>
        <time>2011-06-25T11:59:28Z</time>
      </trkpt>
      <trkpt lat="43.303075" lon="-8.447215">
        <ele>158.0</ele>
        <time>2011-06-25T11:59:29Z</time>
      </trkpt>
      <trkpt lat="43.303080" lon="-8.447220">
        <ele>158.0</ele>
        <time>2011-06-25T11:59:30Z</time>
      </trkpt>
      <trkpt lat="43.303078" lon="-8.447220">
        <ele>158.0</ele>
        <time>2011-06-25T11:59:31Z</time>
      </trkpt>
      <trkpt lat="43.303078" lon="-8.447220">
        <ele>157.5</ele>
        <time>2011-06-25T11:59:32Z</time>
      </trkpt>
      <trkpt lat="43.303078" lon="-8.447222">
        <ele>157.5</ele>
        <time>2011-06-25T11:59:33Z</time>
      </trkpt>
      <trkpt lat="43.303077" lon="-8.447222">
        <ele>157.5</ele>
        <time>2011-06-25T11:59:34Z</time>
      </trkpt>
      <trkpt lat="43.303077" lon="-8.447222">
        <ele>157.5</ele>
        <time>2011-06-25T11:59:35Z</time>
      </trkpt>
      <trkpt lat="43.303075" lon="-8.447222">
        <ele>157.5</ele>
        <time>2011-06-25T11:59:36Z</time>
      </trkpt>
      <trkpt lat="43.303072" lon="-8.447225">
        <ele>157.5</ele>
        <time>2011-06-25T11:59:37Z</time>
      </trkpt>
      <trkpt lat="43.303070" lon="-8.447225">
        <ele>157.5</ele>
        <time>2011-06-25T11:59:38Z</time>
      </trkpt>
      <trkpt lat="43.303070" lon="-8.447225">
        <ele>157.5</ele>
        <time>2011-06-25T11:59:39Z</time>
      </trkpt>
      <trkpt lat="43.303070" lon="-8.447225">
        <ele>157.5</ele>
        <time>2011-06-25T11:59:40Z</time>
      </trkpt>
      <trkpt lat="43.303072" lon="-8.447222">
        <ele>156.5</ele>
        <time>2011-06-25T11:59:41Z</time>
      </trkpt>
      <trkpt lat="43.303075" lon="-8.447222">
        <ele>156.5</ele>
        <time>2011-06-25T11:59:42Z</time>
      </trkpt>
      <trkpt lat="43.303075" lon="-8.447218">
        <ele>156.0</ele>
        <time>2011-06-25T11:59:43Z</time>
      </trkpt>
      <trkpt lat="43.303077" lon="-8.447218">
        <ele>156.5</ele>
        <time>2011-06-25T11:59:44Z</time>
      </trkpt>
      <trkpt lat="43.303072" lon="-8.447223">
        <ele>158.0</ele>
        <time>2011-06-25T11:59:45Z</time>
      </trkpt>
      <trkpt lat="43.303070" lon="-8.447218">
        <ele>157.0</ele>
        <time>2011-06-25T11:59:46Z</time>
      </trkpt>
      <trkpt lat="43.303068" lon="-8.447220">
        <ele>157.5</ele>
        <time>2011-06-25T11:59:47Z</time>
      </trkpt>
      <trkpt lat="43.303078" lon="-8.447225">
        <ele>158.0</ele>
        <time>2011-06-25T11:59:48Z</time>
      </trkpt>
      <trkpt lat="43.303078" lon="-8.447230">
        <ele>159.0</ele>
        <time>2011-06-25T11:59:49Z</time>
      </trkpt>
      <trkpt lat="43.303077" lon="-8.447235">
        <ele>159.5</ele>
        <time>2011-06-25T11:59:50Z</time>
      </trkpt>
      <trkpt lat="43.303075" lon="-8.447238">
        <ele>160.0</ele>
        <time>2011-06-25T11:59:51Z</time>
      </trkpt>
      <trkpt lat="43.303075" lon="-8.447238">
        <ele>160.5</ele>
        <time>2011-06-25T11:59:52Z</time>
      </trkpt>
      <trkpt lat="43.303073" lon="-8.447238">
        <ele>160.5</ele>
        <time>2011-06-25T11:59:53Z</time>
      </trkpt>
      <trkpt lat="43.303073" lon="-8.447238">
        <ele>160.5</ele>
        <time>2011-06-25T11:59:54Z</time>
      </trkpt>
      <trkpt lat="43.303073" lon="-8.447237">
        <ele>160.5</ele>
        <time>2011-06-25T11:59:55Z</time>
      </trkpt>
      <trkpt lat="43.303073" lon="-8.447238">
        <ele>160.5</ele>
        <time>2011-06-25T11:59:56Z</time>
      </trkpt>
      <trkpt lat="43.303073" lon="-8.447238">
        <ele>160.5</ele>
        <time>2011-06-25T11:59:57Z</time>
      </trkpt>
      <trkpt lat="43.303072" lon="-8.447238">
        <ele>160.5</ele>
        <time>2011-06-25T11:59:58Z</time>
      </trkpt>
      <trkpt lat="43.303072" lon="-8.447240">
        <ele>160.5</ele>
        <time>2011-06-25T11:59:59Z</time>
      </trkpt>
      <trkpt lat="43.303072" lon="-8.447242">
        <ele>160.5</ele>
        <time>2011-06-25T12:00:00Z</time>
      </trkpt>
      <trkpt lat="43.303073" lon="-8.447242">
        <ele>160.5</ele>
        <time>2011-06-25T12:00:01Z</time>
      </trkpt>
      <trkpt lat="43.303072" lon="-8.447240">
        <ele>160.5</ele>
        <time>2011-06-25T12:00:02Z</time>
      </trkpt>
      <trkpt lat="43.303072" lon="-8.447240">
        <ele>160.5</ele>
        <time>2011-06-25T12:00:03Z</time>
      </trkpt>
      <trkpt lat="43.303072" lon="-8.447240">
        <ele>160.5</ele>
        <time>2011-06-25T12:00:04Z</time>
      </trkpt>
      <trkpt lat="43.303072" lon="-8.447240">
        <ele>160.5</ele>
        <time>2011-06-25T12:00:05Z</time>
      </trkpt>
      <trkpt lat="43.303072" lon="-8.447240">
        <ele>161.0</ele>
        <time>2011-06-25T12:00:06Z</time>
      </trkpt>
      <trkpt lat="43.303073" lon="-8.447240">
        <ele>161.0</ele>
        <time>2011-06-25T12:00:07Z</time>
      </trkpt>
      <trkpt lat="43.303073" lon="-8.447242">
        <ele>161.0</ele>
        <time>2011-06-25T12:00:08Z</time>
      </trkpt>
      <trkpt lat="43.303075" lon="-8.447242">
        <ele>160.5</ele>
        <time>2011-06-25T12:00:09Z</time>
      </trkpt>
      <trkpt lat="43.303075" lon="-8.447242">
        <ele>160.5</ele>
        <time>2011-06-25T12:00:10Z</time>
      </trkpt>
      <trkpt lat="43.303075" lon="-8.447242">
        <ele>160.5</ele>
        <time>2011-06-25T12:00:11Z</time>
      </trkpt>
      <trkpt lat="43.303075" lon="-8.447242">
        <ele>160.5</ele>
        <time>2011-06-25T12:00:12Z</time>
      </trkpt>
      <trkpt lat="43.303075" lon="-8.447243">
        <ele>160.5</ele>
        <time>2011-06-25T12:00:13Z</time>
      </trkpt>
      <trkpt lat="43.303075" lon="-8.447243">
        <ele>161.0</ele>
        <time>2011-06-25T12:00:14Z</time>
      </trkpt>
      <trkpt lat="43.303075" lon="-8.447243">
        <ele>161.0</ele>
        <time>2011-06-25T12:00:15Z</time>
      </trkpt>
      <trkpt lat="43.303075" lon="-8.447243">
        <ele>161.0</ele>
        <time>2011-06-25T12:00:16Z</time>
      </trkpt>
      <trkpt lat="43.303075" lon="-8.447243">
        <ele>161.0</ele>
        <time>2011-06-25T12:00:17Z</time>
      </trkpt>
      <trkpt lat="43.303075" lon="-8.447243">
        <ele>161.0</ele>
        <time>2011-06-25T12:00:18Z</time>
      </trkpt>
      <trkpt lat="43.303075" lon="-8.447243">
        <ele>161.0</ele>
        <time>2011-06-25T12:00:19Z</time>
      </trkpt>
      <trkpt lat="43.303075" lon="-8.447243">
        <ele>161.0</ele>
        <time>2011-06-25T12:00:20Z</time>
      </trkpt>
      <trkpt lat="43.303077" lon="-8.447243">
        <ele>161.0</ele>
        <time>2011-06-25T12:00:21Z</time>
      </trkpt>
      <trkpt lat="43.303077" lon="-8.447245">
        <ele>161.0</ele>
        <time>2011-06-25T12:00:22Z</time>
      </trkpt>
      <trkpt lat="43.303073" lon="-8.447248">
        <ele>161.5</ele>
        <time>2011-06-25T12:00:23Z</time>
      </trkpt>
      <trkpt lat="43.303073" lon="-8.447253">
        <ele>162.0</ele>
        <time>2011-06-25T12:00:24Z</time>
      </trkpt>
      <trkpt lat="43.303087" lon="-8.447257">
        <ele>163.0</ele>
        <time>2011-06-25T12:00:25Z</time>
      </trkpt>
      <trkpt lat="43.303085" lon="-8.447258">
        <ele>163.0</ele>
        <time>2011-06-25T12:00:26Z</time>
      </trkpt>
      <trkpt lat="43.303087" lon="-8.447262">
        <ele>163.5</ele>
        <time>2011-06-25T12:00:27Z</time>
      </trkpt>
      <trkpt lat="43.303095" lon="-8.447260">
        <ele>165.0</ele>
        <time>2011-06-25T12:00:28Z</time>
      </trkpt>
      <trkpt lat="43.303098" lon="-8.447262">
        <ele>166.0</ele>
        <time>2011-06-25T12:00:29Z</time>
      </trkpt>
      <trkpt lat="43.303100" lon="-8.447262">
        <ele>166.5</ele>
        <time>2011-06-25T12:00:30Z</time>
      </trkpt>
      <trkpt lat="43.303100" lon="-8.447262">
        <ele>167.0</ele>
        <time>2011-06-25T12:00:31Z</time>
      </trkpt>
      <trkpt lat="43.303100" lon="-8.447262">
        <ele>167.0</ele>
        <time>2011-06-25T12:00:32Z</time>
      </trkpt>
      <trkpt lat="43.303100" lon="-8.447260">
        <ele>167.5</ele>
        <time>2011-06-25T12:00:33Z</time>
      </trkpt>
      <trkpt lat="43.303100" lon="-8.447260">
        <ele>167.5</ele>
        <time>2011-06-25T12:00:34Z</time>
      </trkpt>
      <trkpt lat="43.303098" lon="-8.447257">
        <ele>168.0</ele>
        <time>2011-06-25T12:00:35Z</time>
      </trkpt>
      <trkpt lat="43.303097" lon="-8.447255">
        <ele>168.0</ele>
        <time>2011-06-25T12:00:36Z</time>
      </trkpt>
      <trkpt lat="43.303097" lon="-8.447255">
        <ele>168.0</ele>
        <time>2011-06-25T12:00:37Z</time>
      </trkpt>
      <trkpt lat="43.303095" lon="-8.447253">
        <ele>168.0</ele>
        <time>2011-06-25T12:00:38Z</time>
      </trkpt>
      <trkpt lat="43.303093" lon="-8.447252">
        <ele>167.5</ele>
        <time>2011-06-25T12:00:39Z</time>
      </trkpt>
      <trkpt lat="43.303093" lon="-8.447252">
        <ele>167.5</ele>
        <time>2011-06-25T12:00:40Z</time>
      </trkpt>
      <trkpt lat="43.303092" lon="-8.447250">
        <ele>167.5</ele>
        <time>2011-06-25T12:00:41Z</time>
      </trkpt>
      <trkpt lat="43.303092" lon="-8.447248">
        <ele>167.5</ele>
        <time>2011-06-25T12:00:42Z</time>
      </trkpt>
      <trkpt lat="43.303090" lon="-8.447248">
        <ele>167.5</ele>
        <time>2011-06-25T12:00:43Z</time>
      </trkpt>
      <trkpt lat="43.303090" lon="-8.447248">
        <ele>167.5</ele>
        <time>2011-06-25T12:00:44Z</time>
      </trkpt>
      <trkpt lat="43.303090" lon="-8.447248">
        <ele>167.5</ele>
        <time>2011-06-25T12:00:45Z</time>
      </trkpt>
      <trkpt lat="43.303087" lon="-8.447250">
        <ele>167.5</ele>
        <time>2011-06-25T12:00:46Z</time>
      </trkpt>
      <trkpt lat="43.303082" lon="-8.447263">
        <ele>167.5</ele>
        <time>2011-06-25T12:00:47Z</time>
      </trkpt>
      <trkpt lat="43.303075" lon="-8.447277">
        <ele>168.0</ele>
        <time>2011-06-25T12:00:48Z</time>
      </trkpt>
      <trkpt lat="43.303065" lon="-8.447288">
        <ele>168.5</ele>
        <time>2011-06-25T12:00:49Z</time>
      </trkpt>
      <trkpt lat="43.303052" lon="-8.447305">
        <ele>168.5</ele>
        <time>2011-06-25T12:00:50Z</time>
      </trkpt>
      <trkpt lat="43.303035" lon="-8.447323">
        <ele>168.0</ele>
        <time>2011-06-25T12:00:51Z</time>
      </trkpt>
      <trkpt lat="43.303022" lon="-8.447328">
        <ele>169.5</ele>
        <time>2011-06-25T12:00:52Z</time>
      </trkpt>
    </trkseg>
  </trk>
  <trk>
    <name>T2067676-20</name>
    <cmt>saida con compañeiros do C.C.Arteixo polos arredores da Coruña</cmt>
    <desc>saida con compañeiros do C.C.Arteixo polos arredores da Coruña</desc>
    <trkseg>
      <trkpt lat="43.303007" lon="-8.447358">
        <ele>168.0</ele>
        <time>2011-06-25T12:00:53Z</time>
      </trkpt>
      <trkpt lat="43.302998" lon="-8.447375">
        <ele>168.5</ele>
        <time>2011-06-25T12:00:54Z</time>
      </trkpt>
      <trkpt lat="43.302970" lon="-8.447392">
        <ele>167.5</ele>
        <time>2011-06-25T12:00:55Z</time>
      </trkpt>
      <trkpt lat="43.302952" lon="-8.447410">
        <ele>167.5</ele>
        <time>2011-06-25T12:00:56Z</time>
      </trkpt>
      <trkpt lat="43.302933" lon="-8.447432">
        <ele>167.0</ele>
        <time>2011-06-25T12:00:57Z</time>
      </trkpt>
      <trkpt lat="43.302917" lon="-8.447452">
        <ele>167.5</ele>
        <time>2011-06-25T12:00:58Z</time>
      </trkpt>
      <trkpt lat="43.302895" lon="-8.447473">
        <ele>167.0</ele>
        <time>2011-06-25T12:00:59Z</time>
      </trkpt>
      <trkpt lat="43.302875" lon="-8.447497">
        <ele>166.5</ele>
        <time>2011-06-25T12:01:00Z</time>
      </trkpt>
      <trkpt lat="43.302857" lon="-8.447520">
        <ele>166.5</ele>
        <time>2011-06-25T12:01:01Z</time>
      </trkpt>
      <trkpt lat="43.302847" lon="-8.447547">
        <ele>166.5</ele>
        <time>2011-06-25T12:01:02Z</time>
      </trkpt>
      <trkpt lat="43.302833" lon="-8.447577">
        <ele>166.5</ele>
        <time>2011-06-25T12:01:03Z</time>
      </trkpt>
      <trkpt lat="43.302822" lon="-8.447607">
        <ele>166.5</ele>
        <time>2011-06-25T12:01:04Z</time>
      </trkpt>
      <trkpt lat="43.302810" lon="-8.447633">
        <ele>166.5</ele>
        <time>2011-06-25T12:01:05Z</time>
      </trkpt>
      <trkpt lat="43.302790" lon="-8.447660">
        <ele>166.5</ele>
        <time>2011-06-25T12:01:06Z</time>
      </trkpt>
      <trkpt lat="43.302772" lon="-8.447690">
        <ele>166.5</ele>
        <time>2011-06-25T12:01:07Z</time>
      </trkpt>
      <trkpt lat="43.302755" lon="-8.447722">
        <ele>167.0</ele>
        <time>2011-06-25T12:01:08Z</time>
      </trkpt>
      <trkpt lat="43.302733" lon="-8.447753">
        <ele>167.0</ele>
        <time>2011-06-25T12:01:09Z</time>
      </trkpt>
      <trkpt lat="43.302710" lon="-8.447787">
        <ele>167.0</ele>
        <time>2011-06-25T12:01:10Z</time>
      </trkpt>
      <trkpt lat="43.302688" lon="-8.447813">
        <ele>167.0</ele>
        <time>2011-06-25T12:01:11Z</time>
      </trkpt>
      <trkpt lat="43.302665" lon="-8.447840">
        <ele>167.5</ele>
        <time>2011-06-25T12:01:12Z</time>
      </trkpt>
      <trkpt lat="43.302652" lon="-8.447873">
        <ele>167.5</ele>
        <time>2011-06-25T12:01:13Z</time>
      </trkpt>
      <trkpt lat="43.302648" lon="-8.447907">
        <ele>167.5</ele>
        <time>2011-06-25T12:01:14Z</time>
      </trkpt>
      <trkpt lat="43.302655" lon="-8.447933">
        <ele>168.0</ele>
        <time>2011-06-25T12:01:15Z</time>
      </trkpt>
      <trkpt lat="43.302662" lon="-8.447955">
        <ele>168.5</ele>
        <time>2011-06-25T12:01:16Z</time>
      </trkpt>
      <trkpt lat="43.302672" lon="-8.447977">
        <ele>169.0</ele>
        <time>2011-06-25T12:01:17Z</time>
      </trkpt>
      <trkpt lat="43.302683" lon="-8.447997">
        <ele>169.0</ele>
        <time>2011-06-25T12:01:18Z</time>
      </trkpt>
      <trkpt lat="43.302695" lon="-8.448012">
        <ele>169.0</ele>
        <time>2011-06-25T12:01:19Z</time>
      </trkpt>
      <trkpt lat="43.302707" lon="-8.448033">
        <ele>168.5</ele>
        <time>2011-06-25T12:01:20Z</time>
      </trkpt>
      <trkpt lat="43.302720" lon="-8.448055">
        <ele>168.5</ele>
        <time>2011-06-25T12:01:21Z</time>
      </trkpt>
      <trkpt lat="43.302737" lon="-8.448077">
        <ele>168.5</ele>
        <time>2011-06-25T12:01:22Z</time>
      </trkpt>
      <trkpt lat="43.302750" lon="-8.448095">
        <ele>169.0</ele>
        <time>2011-06-25T12:01:23Z</time>
      </trkpt>
      <trkpt lat="43.302765" lon="-8.448112">
        <ele>170.5</ele>
        <time>2011-06-25T12:01:24Z</time>
      </trkpt>
      <trkpt lat="43.302778" lon="-8.448130">
        <ele>171.5</ele>
        <time>2011-06-25T12:01:25Z</time>
      </trkpt>
      <trkpt lat="43.302790" lon="-8.448145">
        <ele>172.0</ele>
        <time>2011-06-25T12:01:26Z</time>
      </trkpt>
      <trkpt lat="43.302800" lon="-8.448158">
        <ele>172.5</ele>
        <time>2011-06-25T12:01:27Z</time>
      </trkpt>
      <trkpt lat="43.302813" lon="-8.448168">
        <ele>173.5</ele>
        <time>2011-06-25T12:01:28Z</time>
      </trkpt>
      <trkpt lat="43.302827" lon="-8.448173">
        <ele>173.0</ele>
        <time>2011-06-25T12:01:29Z</time>
      </trkpt>
      <trkpt lat="43.302840" lon="-8.448178">
        <ele>173.5</ele>
        <time>2011-06-25T12:01:30Z</time>
      </trkpt>
      <trkpt lat="43.302852" lon="-8.448183">
        <ele>174.5</ele>
        <time>2011-06-25T12:01:31Z</time>
      </trkpt>
      <trkpt lat="43.302855" lon="-8.448192">
        <ele>174.5</ele>
        <time>2011-06-25T12:01:32Z</time>
      </trkpt>
      <trkpt lat="43.302885" lon="-8.448255">
        <ele>175.0</ele>
        <time>2011-06-25T12:01:34Z</time>
      </trkpt>
      <trkpt lat="43.302905" lon="-8.448285">
        <ele>175.0</ele>
        <time>2011-06-25T12:01:35Z</time>
      </trkpt>
      <trkpt lat="43.302927" lon="-8.448305">
        <ele>176.5</ele>
        <time>2011-06-25T12:01:36Z</time>
      </trkpt>
      <trkpt lat="43.302948" lon="-8.448328">
        <ele>178.0</ele>
        <time>2011-06-25T12:01:37Z</time>
      </trkpt>
      <trkpt lat="43.302965" lon="-8.448353">
        <ele>178.5</ele>
        <time>2011-06-25T12:01:38Z</time>
      </trkpt>
      <trkpt lat="43.302982" lon="-8.448368">
        <ele>179.0</ele>
        <time>2011-06-25T12:01:39Z</time>
      </trkpt>
      <trkpt lat="43.302997" lon="-8.448382">
        <ele>180.5</ele>
        <time>2011-06-25T12:01:40Z</time>
      </trkpt>
      <trkpt lat="43.303018" lon="-8.448405">
        <ele>180.0</ele>
        <time>2011-06-25T12:01:41Z</time>
      </trkpt>
      <trkpt lat="43.303045" lon="-8.448412">
        <ele>178.0</ele>
        <time>2011-06-25T12:01:42Z</time>
      </trkpt>
      <trkpt lat="43.303067" lon="-8.448437">
        <ele>179.0</ele>
        <time>2011-06-25T12:01:43Z</time>
      </trkpt>
      <trkpt lat="43.303085" lon="-8.448458">
        <ele>180.0</ele>
        <time>2011-06-25T12:01:44Z</time>
      </trkpt>
      <trkpt lat="43.303100" lon="-8.448482">
        <ele>180.0</ele>
        <time>2011-06-25T12:01:45Z</time>
      </trkpt>
      <trkpt lat="43.303115" lon="-8.448500">
        <ele>180.5</ele>
        <time>2011-06-25T12:01:46Z</time>
      </trkpt>
      <trkpt lat="43.303125" lon="-8.448520">
        <ele>182.5</ele>
        <time>2011-06-25T12:01:47Z</time>
      </trkpt>
      <trkpt lat="43.303143" lon="-8.448532">
        <ele>182.5</ele>
        <time>2011-06-25T12:01:48Z</time>
      </trkpt>
      <trkpt lat="43.303153" lon="-8.448577">
        <ele>179.5</ele>
        <time>2011-06-25T12:01:49Z</time>
      </trkpt>
      <trkpt lat="43.303167" lon="-8.448602">
        <ele>179.5</ele>
        <time>2011-06-25T12:01:50Z</time>
      </trkpt>
      <trkpt lat="43.303180" lon="-8.448620">
        <ele>180.0</ele>
        <time>2011-06-25T12:01:51Z</time>
      </trkpt>
      <trkpt lat="43.303190" lon="-8.448638">
        <ele>180.5</ele>
        <time>2011-06-25T12:01:52Z</time>
      </trkpt>
      <trkpt lat="43.303202" lon="-8.448658">
        <ele>181.5</ele>
        <time>2011-06-25T12:01:53Z</time>
      </trkpt>
      <trkpt lat="43.303215" lon="-8.448678">
        <ele>182.0</ele>
        <time>2011-06-25T12:01:54Z</time>
      </trkpt>
      <trkpt lat="43.303228" lon="-8.448698">
        <ele>182.0</ele>
        <time>2011-06-25T12:01:55Z</time>
      </trkpt>
      <trkpt lat="43.303240" lon="-8.448717">
        <ele>182.5</ele>
        <time>2011-06-25T12:01:56Z</time>
      </trkpt>
      <trkpt lat="43.303250" lon="-8.448733">
        <ele>183.0</ele>
        <time>2011-06-25T12:01:57Z</time>
      </trkpt>
      <trkpt lat="43.303262" lon="-8.448757">
        <ele>183.0</ele>
        <time>2011-06-25T12:01:58Z</time>
      </trkpt>
      <trkpt lat="43.303272" lon="-8.448775">
        <ele>183.0</ele>
        <time>2011-06-25T12:01:59Z</time>
      </trkpt>
      <trkpt lat="43.303280" lon="-8.448798">
        <ele>183.5</ele>
        <time>2011-06-25T12:02:00Z</time>
      </trkpt>
      <trkpt lat="43.303297" lon="-8.448822">
        <ele>183.5</ele>
        <time>2011-06-25T12:02:01Z</time>
      </trkpt>
      <trkpt lat="43.303305" lon="-8.448845">
        <ele>183.5</ele>
        <time>2011-06-25T12:02:02Z</time>
      </trkpt>
      <trkpt lat="43.303310" lon="-8.448863">
        <ele>183.5</ele>
        <time>2011-06-25T12:02:03Z</time>
      </trkpt>
      <trkpt lat="43.303310" lon="-8.448885">
        <ele>184.0</ele>
        <time>2011-06-25T12:02:04Z</time>
      </trkpt>
      <trkpt lat="43.303322" lon="-8.448908">
        <ele>184.0</ele>
        <time>2011-06-25T12:02:05Z</time>
      </trkpt>
      <trkpt lat="43.303322" lon="-8.448928">
        <ele>184.5</ele>
        <time>2011-06-25T12:02:06Z</time>
      </trkpt>
      <trkpt lat="43.303323" lon="-8.448947">
        <ele>184.5</ele>
        <time>2011-06-25T12:02:07Z</time>
      </trkpt>
      <trkpt lat="43.303328" lon="-8.448968">
        <ele>184.5</ele>
        <time>2011-06-25T12:02:08Z</time>
      </trkpt>
      <trkpt lat="43.303335" lon="-8.448992">
        <ele>184.5</ele>
        <time>2011-06-25T12:02:09Z</time>
      </trkpt>
      <trkpt lat="43.303340" lon="-8.449023">
        <ele>185.0</ele>
        <time>2011-06-25T12:02:10Z</time>
      </trkpt>
      <trkpt lat="43.303347" lon="-8.449055">
        <ele>185.0</ele>
        <time>2011-06-25T12:02:11Z</time>
      </trkpt>
      <trkpt lat="43.303358" lon="-8.449088">
        <ele>185.5</ele>
        <time>2011-06-25T12:02:12Z</time>
      </trkpt>
      <trkpt lat="43.303363" lon="-8.449118">
        <ele>185.5</ele>
        <time>2011-06-25T12:02:13Z</time>
      </trkpt>
      <trkpt lat="43.303370" lon="-8.449152">
        <ele>185.5</ele>
        <time>2011-06-25T12:02:14Z</time>
      </trkpt>
      <trkpt lat="43.303378" lon="-8.449188">
        <ele>185.5</ele>
        <time>2011-06-25T12:02:15Z</time>
      </trkpt>
      <trkpt lat="43.303388" lon="-8.449215">
        <ele>185.5</ele>
        <time>2011-06-25T12:02:16Z</time>
      </trkpt>
      <trkpt lat="43.303400" lon="-8.449238">
        <ele>186.5</ele>
        <time>2011-06-25T12:02:17Z</time>
      </trkpt>
      <trkpt lat="43.303407" lon="-8.449267">
        <ele>187.5</ele>
        <time>2011-06-25T12:02:18Z</time>
      </trkpt>
      <trkpt lat="43.303417" lon="-8.449302">
        <ele>188.0</ele>
        <time>2011-06-25T12:02:19Z</time>
      </trkpt>
      <trkpt lat="43.303420" lon="-8.449333">
        <ele>188.5</ele>
        <time>2011-06-25T12:02:20Z</time>
      </trkpt>
      <trkpt lat="43.303427" lon="-8.449368">
        <ele>189.0</ele>
        <time>2011-06-25T12:02:21Z</time>
      </trkpt>
      <trkpt lat="43.303427" lon="-8.449403">
        <ele>189.0</ele>
        <time>2011-06-25T12:02:22Z</time>
      </trkpt>
      <trkpt lat="43.303428" lon="-8.449438">
        <ele>189.0</ele>
        <time>2011-06-25T12:02:23Z</time>
      </trkpt>
      <trkpt lat="43.303435" lon="-8.449465">
        <ele>190.0</ele>
        <time>2011-06-25T12:02:24Z</time>
      </trkpt>
      <trkpt lat="43.303437" lon="-8.449493">
        <ele>190.5</ele>
        <time>2011-06-25T12:02:25Z</time>
      </trkpt>
      <trkpt lat="43.303443" lon="-8.449518">
        <ele>190.5</ele>
        <time>2011-06-25T12:02:26Z</time>
      </trkpt>
      <trkpt lat="43.303448" lon="-8.449542">
        <ele>191.5</ele>
        <time>2011-06-25T12:02:27Z</time>
      </trkpt>
      <trkpt lat="43.303447" lon="-8.449565">
        <ele>191.5</ele>
        <time>2011-06-25T12:02:28Z</time>
      </trkpt>
      <trkpt lat="43.303447" lon="-8.449585">
        <ele>191.5</ele>
        <time>2011-06-25T12:02:29Z</time>
      </trkpt>
      <trkpt lat="43.303450" lon="-8.449602">
        <ele>192.0</ele>
        <time>2011-06-25T12:02:30Z</time>
      </trkpt>
      <trkpt lat="43.303460" lon="-8.449613">
        <ele>193.0</ele>
        <time>2011-06-25T12:02:31Z</time>
      </trkpt>
      <trkpt lat="43.303455" lon="-8.449632">
        <ele>192.0</ele>
        <time>2011-06-25T12:02:32Z</time>
      </trkpt>
      <trkpt lat="43.303460" lon="-8.449647">
        <ele>191.5</ele>
        <time>2011-06-25T12:02:33Z</time>
      </trkpt>
      <trkpt lat="43.303467" lon="-8.449665">
        <ele>191.5</ele>
        <time>2011-06-25T12:02:34Z</time>
      </trkpt>
      <trkpt lat="43.303478" lon="-8.449678">
        <ele>191.5</ele>
        <time>2011-06-25T12:02:35Z</time>
      </trkpt>
      <trkpt lat="43.303490" lon="-8.449690">
        <ele>192.0</ele>
        <time>2011-06-25T12:02:36Z</time>
      </trkpt>
      <trkpt lat="43.303495" lon="-8.449705">
        <ele>192.5</ele>
        <time>2011-06-25T12:02:37Z</time>
      </trkpt>
      <trkpt lat="43.303502" lon="-8.449722">
        <ele>192.5</ele>
        <time>2011-06-25T12:02:38Z</time>
      </trkpt>
      <trkpt lat="43.303512" lon="-8.449743">
        <ele>192.5</ele>
        <time>2011-06-25T12:02:39Z</time>
      </trkpt>
      <trkpt lat="43.303520" lon="-8.449758">
        <ele>193.5</ele>
        <time>2011-06-25T12:02:40Z</time>
      </trkpt>
      <trkpt lat="43.303530" lon="-8.449773">
        <ele>193.5</ele>
        <time>2011-06-25T12:02:41Z</time>
      </trkpt>
      <trkpt lat="43.303540" lon="-8.449790">
        <ele>193.0</ele>
        <time>2011-06-25T12:02:42Z</time>
      </trkpt>
      <trkpt lat="43.303548" lon="-8.449812">
        <ele>192.5</ele>
        <time>2011-06-25T12:02:43Z</time>
      </trkpt>
      <trkpt lat="43.303558" lon="-8.449828">
        <ele>192.5</ele>
        <time>2011-06-25T12:02:44Z</time>
      </trkpt>
      <trkpt lat="43.303568" lon="-8.449842">
        <ele>193.0</ele>
        <time>2011-06-25T12:02:45Z</time>
      </trkpt>
      <trkpt lat="43.303573" lon="-8.449862">
        <ele>193.0</ele>
        <time>2011-06-25T12:02:46Z</time>
      </trkpt>
      <trkpt lat="43.303578" lon="-8.449878">
        <ele>193.5</ele>
        <time>2011-06-25T12:02:47Z</time>
      </trkpt>
      <trkpt lat="43.303587" lon="-8.449895">
        <ele>194.0</ele>
        <time>2011-06-25T12:02:48Z</time>
      </trkpt>
      <trkpt lat="43.303592" lon="-8.449928">
        <ele>192.0</ele>
        <time>2011-06-25T12:02:49Z</time>
      </trkpt>
      <trkpt lat="43.303602" lon="-8.449953">
        <ele>191.5</ele>
        <time>2011-06-25T12:02:50Z</time>
      </trkpt>
      <trkpt lat="43.303612" lon="-8.449980">
        <ele>191.0</ele>
        <time>2011-06-25T12:02:51Z</time>
      </trkpt>
      <trkpt lat="43.303622" lon="-8.450005">
        <ele>191.0</ele>
        <time>2011-06-25T12:02:52Z</time>
      </trkpt>
      <trkpt lat="43.303633" lon="-8.450025">
        <ele>190.0</ele>
        <time>2011-06-25T12:02:53Z</time>
      </trkpt>
      <trkpt lat="43.303640" lon="-8.450045">
        <ele>190.5</ele>
        <time>2011-06-25T12:02:54Z</time>
      </trkpt>
      <trkpt lat="43.303647" lon="-8.450060">
        <ele>191.5</ele>
        <time>2011-06-25T12:02:55Z</time>
      </trkpt>
      <trkpt lat="43.303663" lon="-8.450080">
        <ele>192.5</ele>
        <time>2011-06-25T12:02:56Z</time>
      </trkpt>
      <trkpt lat="43.303673" lon="-8.450095">
        <ele>193.5</ele>
        <time>2011-06-25T12:02:57Z</time>
      </trkpt>
      <trkpt lat="43.303683" lon="-8.450113">
        <ele>194.0</ele>
        <time>2011-06-25T12:02:58Z</time>
      </trkpt>
      <trkpt lat="43.303690" lon="-8.450125">
        <ele>194.5</ele>
        <time>2011-06-25T12:02:59Z</time>
      </trkpt>
      <trkpt lat="43.303697" lon="-8.450133">
        <ele>194.0</ele>
        <time>2011-06-25T12:03:00Z</time>
      </trkpt>
      <trkpt lat="43.303702" lon="-8.450130">
        <ele>194.5</ele>
        <time>2011-06-25T12:03:01Z</time>
      </trkpt>
      <trkpt lat="43.303707" lon="-8.450138">
        <ele>194.0</ele>
        <time>2011-06-25T12:03:02Z</time>
      </trkpt>
      <trkpt lat="43.303710" lon="-8.450150">
        <ele>194.0</ele>
        <time>2011-06-25T12:03:03Z</time>
      </trkpt>
      <trkpt lat="43.303713" lon="-8.450162">
        <ele>195.5</ele>
        <time>2011-06-25T12:03:04Z</time>
      </trkpt>
      <trkpt lat="43.303713" lon="-8.450177">
        <ele>197.0</ele>
        <time>2011-06-25T12:03:05Z</time>
      </trkpt>
      <trkpt lat="43.303722" lon="-8.450192">
        <ele>197.0</ele>
        <time>2011-06-25T12:03:06Z</time>
      </trkpt>
      <trkpt lat="43.303728" lon="-8.450203">
        <ele>197.5</ele>
        <time>2011-06-25T12:03:07Z</time>
      </trkpt>
      <trkpt lat="43.303737" lon="-8.450215">
        <ele>198.0</ele>
        <time>2011-06-25T12:03:08Z</time>
      </trkpt>
      <trkpt lat="43.303743" lon="-8.450230">
        <ele>198.5</ele>
        <time>2011-06-25T12:03:09Z</time>
      </trkpt>
      <trkpt lat="43.303752" lon="-8.450242">
        <ele>199.0</ele>
        <time>2011-06-25T12:03:10Z</time>
      </trkpt>
      <trkpt lat="43.303758" lon="-8.450255">
        <ele>199.5</ele>
        <time>2011-06-25T12:03:11Z</time>
      </trkpt>
      <trkpt lat="43.303763" lon="-8.450268">
        <ele>199.5</ele>
        <time>2011-06-25T12:03:12Z</time>
      </trkpt>
      <trkpt lat="43.303772" lon="-8.450282">
        <ele>200.5</ele>
        <time>2011-06-25T12:03:13Z</time>
      </trkpt>
      <trkpt lat="43.303778" lon="-8.450295">
        <ele>200.5</ele>
        <time>2011-06-25T12:03:14Z</time>
      </trkpt>
      <trkpt lat="43.303780" lon="-8.450307">
        <ele>201.0</ele>
        <time>2011-06-25T12:03:15Z</time>
      </trkpt>
      <trkpt lat="43.303790" lon="-8.450322">
        <ele>202.0</ele>
        <time>2011-06-25T12:03:16Z</time>
      </trkpt>
      <trkpt lat="43.303798" lon="-8.450317">
        <ele>201.5</ele>
        <time>2011-06-25T12:03:17Z</time>
      </trkpt>
      <trkpt lat="43.303803" lon="-8.450330">
        <ele>201.0</ele>
        <time>2011-06-25T12:03:18Z</time>
      </trkpt>
      <trkpt lat="43.303808" lon="-8.450338">
        <ele>202.5</ele>
        <time>2011-06-25T12:03:19Z</time>
      </trkpt>
      <trkpt lat="43.303813" lon="-8.450347">
        <ele>204.0</ele>
        <time>2011-06-25T12:03:20Z</time>
      </trkpt>
      <trkpt lat="43.303820" lon="-8.450357">
        <ele>205.0</ele>
        <time>2011-06-25T12:03:21Z</time>
      </trkpt>
      <trkpt lat="43.303827" lon="-8.450367">
        <ele>206.0</ele>
        <time>2011-06-25T12:03:22Z</time>
      </trkpt>
      <trkpt lat="43.303832" lon="-8.450377">
        <ele>207.0</ele>
        <time>2011-06-25T12:03:23Z</time>
      </trkpt>
      <trkpt lat="43.303840" lon="-8.450390">
        <ele>208.0</ele>
        <time>2011-06-25T12:03:24Z</time>
      </trkpt>
      <trkpt lat="43.303850" lon="-8.450402">
        <ele>208.5</ele>
        <time>2011-06-25T12:03:25Z</time>
      </trkpt>
      <trkpt lat="43.303852" lon="-8.450403">
        <ele>209.5</ele>
        <time>2011-06-25T12:03:26Z</time>
      </trkpt>
      <trkpt lat="43.303860" lon="-8.450413">
        <ele>210.5</ele>
        <time>2011-06-25T12:03:27Z</time>
      </trkpt>
      <trkpt lat="43.303868" lon="-8.450422">
        <ele>211.5</ele>
        <time>2011-06-25T12:03:28Z</time>
      </trkpt>
      <trkpt lat="43.303887" lon="-8.450433">
        <ele>212.0</ele>
        <time>2011-06-25T12:03:29Z</time>
      </trkpt>
      <trkpt lat="43.303898" lon="-8.450442">
        <ele>213.0</ele>
        <time>2011-06-25T12:03:30Z</time>
      </trkpt>
      <trkpt lat="43.303907" lon="-8.450452">
        <ele>213.5</ele>
        <time>2011-06-25T12:03:31Z</time>
      </trkpt>
      <trkpt lat="43.303917" lon="-8.450462">
        <ele>214.0</ele>
        <time>2011-06-25T12:03:32Z</time>
      </trkpt>
      <trkpt lat="43.303925" lon="-8.450472">
        <ele>215.0</ele>
        <time>2011-06-25T12:03:33Z</time>
      </trkpt>
      <trkpt lat="43.303942" lon="-8.450482">
        <ele>216.5</ele>
        <time>2011-06-25T12:03:34Z</time>
      </trkpt>
      <trkpt lat="43.303953" lon="-8.450497">
        <ele>217.5</ele>
        <time>2011-06-25T12:03:35Z</time>
      </trkpt>
      <trkpt lat="43.303958" lon="-8.450507">
        <ele>218.0</ele>
        <time>2011-06-25T12:03:36Z</time>
      </trkpt>
      <trkpt lat="43.303965" lon="-8.450525">
        <ele>218.5</ele>
        <time>2011-06-25T12:03:37Z</time>
      </trkpt>
      <trkpt lat="43.303972" lon="-8.450543">
        <ele>219.0</ele>
        <time>2011-06-25T12:03:38Z</time>
      </trkpt>
      <trkpt lat="43.303972" lon="-8.450548">
        <ele>220.5</ele>
        <time>2011-06-25T12:03:39Z</time>
      </trkpt>
      <trkpt lat="43.303978" lon="-8.450565">
        <ele>221.5</ele>
        <time>2011-06-25T12:03:40Z</time>
      </trkpt>
      <trkpt lat="43.303988" lon="-8.450582">
        <ele>222.0</ele>
        <time>2011-06-25T12:03:41Z</time>
      </trkpt>
      <trkpt lat="43.303998" lon="-8.450597">
        <ele>223.5</ele>
        <time>2011-06-25T12:03:42Z</time>
      </trkpt>
      <trkpt lat="43.304007" lon="-8.450612">
        <ele>224.0</ele>
        <time>2011-06-25T12:03:43Z</time>
      </trkpt>
      <trkpt lat="43.304020" lon="-8.450618">
        <ele>226.0</ele>
        <time>2011-06-25T12:03:44Z</time>
      </trkpt>
      <trkpt lat="43.304028" lon="-8.450632">
        <ele>227.0</ele>
        <time>2011-06-25T12:03:45Z</time>
      </trkpt>
      <trkpt lat="43.304037" lon="-8.450643">
        <ele>228.0</ele>
        <time>2011-06-25T12:03:46Z</time>
      </trkpt>
      <trkpt lat="43.304045" lon="-8.450657">
        <ele>229.0</ele>
        <time>2011-06-25T12:03:47Z</time>
      </trkpt>
      <trkpt lat="43.304053" lon="-8.450670">
        <ele>229.5</ele>
        <time>2011-06-25T12:03:48Z</time>
      </trkpt>
      <trkpt lat="43.304062" lon="-8.450685">
        <ele>230.0</ele>
        <time>2011-06-25T12:03:49Z</time>
      </trkpt>
      <trkpt lat="43.304072" lon="-8.450697">
        <ele>231.0</ele>
        <time>2011-06-25T12:03:50Z</time>
      </trkpt>
      <trkpt lat="43.304077" lon="-8.450702">
        <ele>231.5</ele>
        <time>2011-06-25T12:03:51Z</time>
      </trkpt>
      <trkpt lat="43.304082" lon="-8.450712">
        <ele>232.0</ele>
        <time>2011-06-25T12:03:52Z</time>
      </trkpt>
      <trkpt lat="43.304087" lon="-8.450717">
        <ele>232.0</ele>
        <time>2011-06-25T12:03:53Z</time>
      </trkpt>
      <trkpt lat="43.304095" lon="-8.450732">
        <ele>232.5</ele>
        <time>2011-06-25T12:03:54Z</time>
      </trkpt>
      <trkpt lat="43.304098" lon="-8.450743">
        <ele>233.0</ele>
        <time>2011-06-25T12:03:55Z</time>
      </trkpt>
      <trkpt lat="43.304107" lon="-8.450755">
        <ele>233.5</ele>
        <time>2011-06-25T12:03:56Z</time>
      </trkpt>
      <trkpt lat="43.304115" lon="-8.450763">
        <ele>234.5</ele>
        <time>2011-06-25T12:03:57Z</time>
      </trkpt>
      <trkpt lat="43.304120" lon="-8.450773">
        <ele>235.0</ele>
        <time>2011-06-25T12:03:58Z</time>
      </trkpt>
      <trkpt lat="43.304138" lon="-8.450818">
        <ele>234.0</ele>
        <time>2011-06-25T12:04:00Z</time>
      </trkpt>
      <trkpt lat="43.304153" lon="-8.450837">
        <ele>234.0</ele>
        <time>2011-06-25T12:04:01Z</time>
      </trkpt>
      <trkpt lat="43.304158" lon="-8.450852">
        <ele>234.0</ele>
        <time>2011-06-25T12:04:02Z</time>
      </trkpt>
      <trkpt lat="43.304163" lon="-8.450872">
        <ele>234.5</ele>
        <time>2011-06-25T12:04:03Z</time>
      </trkpt>
      <trkpt lat="43.304173" lon="-8.450885">
        <ele>235.0</ele>
        <time>2011-06-25T12:04:04Z</time>
      </trkpt>
      <trkpt lat="43.304178" lon="-8.450895">
        <ele>235.0</ele>
        <time>2011-06-25T12:04:05Z</time>
      </trkpt>
      <trkpt lat="43.304192" lon="-8.450915">
        <ele>235.0</ele>
        <time>2011-06-25T12:04:06Z</time>
      </trkpt>
      <trkpt lat="43.304207" lon="-8.450940">
        <ele>235.0</ele>
        <time>2011-06-25T12:04:07Z</time>
      </trkpt>
      <trkpt lat="43.304220" lon="-8.450957">
        <ele>235.0</ele>
        <time>2011-06-25T12:04:08Z</time>
      </trkpt>
      <trkpt lat="43.304233" lon="-8.450972">
        <ele>235.0</ele>
        <time>2011-06-25T12:04:09Z</time>
      </trkpt>
      <trkpt lat="43.304247" lon="-8.450997">
        <ele>235.0</ele>
        <time>2011-06-25T12:04:10Z</time>
      </trkpt>
      <trkpt lat="43.304255" lon="-8.451018">
        <ele>234.5</ele>
        <time>2011-06-25T12:04:11Z</time>
      </trkpt>
      <trkpt lat="43.304265" lon="-8.451032">
        <ele>235.5</ele>
        <time>2011-06-25T12:04:12Z</time>
      </trkpt>
      <trkpt lat="43.304277" lon="-8.451050">
        <ele>235.5</ele>
        <time>2011-06-25T12:04:13Z</time>
      </trkpt>
      <trkpt lat="43.304285" lon="-8.451065">
        <ele>236.0</ele>
        <time>2011-06-25T12:04:14Z</time>
      </trkpt>
      <trkpt lat="43.304295" lon="-8.451098">
        <ele>235.5</ele>
        <time>2011-06-25T12:04:15Z</time>
      </trkpt>
      <trkpt lat="43.304305" lon="-8.451108">
        <ele>236.0</ele>
        <time>2011-06-25T12:04:16Z</time>
      </trkpt>
      <trkpt lat="43.304315" lon="-8.451120">
        <ele>236.5</ele>
        <time>2011-06-25T12:04:17Z</time>
      </trkpt>
      <trkpt lat="43.304325" lon="-8.451132">
        <ele>237.5</ele>
        <time>2011-06-25T12:04:18Z</time>
      </trkpt>
      <trkpt lat="43.304333" lon="-8.451152">
        <ele>237.5</ele>
        <time>2011-06-25T12:04:19Z</time>
      </trkpt>
      <trkpt lat="43.304347" lon="-8.451180">
        <ele>236.5</ele>
        <time>2011-06-25T12:04:20Z</time>
      </trkpt>
      <trkpt lat="43.304362" lon="-8.451193">
        <ele>237.0</ele>
        <time>2011-06-25T12:04:21Z</time>
      </trkpt>
      <trkpt lat="43.304375" lon="-8.451205">
        <ele>237.5</ele>
        <time>2011-06-25T12:04:22Z</time>
      </trkpt>
      <trkpt lat="43.304387" lon="-8.451217">
        <ele>237.5</ele>
        <time>2011-06-25T12:04:23Z</time>
      </trkpt>
      <trkpt lat="43.304402" lon="-8.451217">
        <ele>239.0</ele>
        <time>2011-06-25T12:04:24Z</time>
      </trkpt>
      <trkpt lat="43.304415" lon="-8.451227">
        <ele>239.0</ele>
        <time>2011-06-25T12:04:25Z</time>
      </trkpt>
      <trkpt lat="43.304430" lon="-8.451237">
        <ele>239.0</ele>
        <time>2011-06-25T12:04:26Z</time>
      </trkpt>
      <trkpt lat="43.304442" lon="-8.451245">
        <ele>239.5</ele>
        <time>2011-06-25T12:04:27Z</time>
      </trkpt>
      <trkpt lat="43.304455" lon="-8.451253">
        <ele>240.0</ele>
        <time>2011-06-25T12:04:28Z</time>
      </trkpt>
      <trkpt lat="43.304465" lon="-8.451265">
        <ele>240.5</ele>
        <time>2011-06-25T12:04:29Z</time>
      </trkpt>
      <trkpt lat="43.304480" lon="-8.451275">
        <ele>240.5</ele>
        <time>2011-06-25T12:04:30Z</time>
      </trkpt>
      <trkpt lat="43.304490" lon="-8.451283">
        <ele>240.5</ele>
        <time>2011-06-25T12:04:31Z</time>
      </trkpt>
      <trkpt lat="43.304500" lon="-8.451293">
        <ele>241.0</ele>
        <time>2011-06-25T12:04:32Z</time>
      </trkpt>
      <trkpt lat="43.304505" lon="-8.451297">
        <ele>241.0</ele>
        <time>2011-06-25T12:04:33Z</time>
      </trkpt>
      <trkpt lat="43.304510" lon="-8.451302">
        <ele>241.5</ele>
        <time>2011-06-25T12:04:34Z</time>
      </trkpt>
      <trkpt lat="43.304522" lon="-8.451310">
        <ele>241.0</ele>
        <time>2011-06-25T12:04:35Z</time>
      </trkpt>
      <trkpt lat="43.304533" lon="-8.451318">
        <ele>241.5</ele>
        <time>2011-06-25T12:04:36Z</time>
      </trkpt>
      <trkpt lat="43.304543" lon="-8.451325">
        <ele>241.5</ele>
        <time>2011-06-25T12:04:37Z</time>
      </trkpt>
      <trkpt lat="43.304555" lon="-8.451333">
        <ele>242.0</ele>
        <time>2011-06-25T12:04:38Z</time>
      </trkpt>
      <trkpt lat="43.304570" lon="-8.451345">
        <ele>242.0</ele>
        <time>2011-06-25T12:04:39Z</time>
      </trkpt>
      <trkpt lat="43.304582" lon="-8.451350">
        <ele>242.5</ele>
        <time>2011-06-25T12:04:40Z</time>
      </trkpt>
      <trkpt lat="43.304593" lon="-8.451358">
        <ele>242.5</ele>
        <time>2011-06-25T12:04:41Z</time>
      </trkpt>
      <trkpt lat="43.304607" lon="-8.451368">
        <ele>242.0</ele>
        <time>2011-06-25T12:04:42Z</time>
      </trkpt>
      <trkpt lat="43.304618" lon="-8.451373">
        <ele>242.5</ele>
        <time>2011-06-25T12:04:43Z</time>
      </trkpt>
      <trkpt lat="43.304632" lon="-8.451378">
        <ele>242.0</ele>
        <time>2011-06-25T12:04:44Z</time>
      </trkpt>
      <trkpt lat="43.304645" lon="-8.451415">
        <ele>239.5</ele>
        <time>2011-06-25T12:04:45Z</time>
      </trkpt>
      <trkpt lat="43.304660" lon="-8.451423">
        <ele>240.0</ele>
        <time>2011-06-25T12:04:46Z</time>
      </trkpt>
      <trkpt lat="43.304677" lon="-8.451452">
        <ele>238.5</ele>
        <time>2011-06-25T12:04:47Z</time>
      </trkpt>
      <trkpt lat="43.304693" lon="-8.451465">
        <ele>239.0</ele>
        <time>2011-06-25T12:04:48Z</time>
      </trkpt>
      <trkpt lat="43.304710" lon="-8.451478">
        <ele>239.5</ele>
        <time>2011-06-25T12:04:49Z</time>
      </trkpt>
      <trkpt lat="43.304725" lon="-8.451483">
        <ele>239.5</ele>
        <time>2011-06-25T12:04:50Z</time>
      </trkpt>
      <trkpt lat="43.304737" lon="-8.451488">
        <ele>240.5</ele>
        <time>2011-06-25T12:04:51Z</time>
      </trkpt>
      <trkpt lat="43.304748" lon="-8.451487">
        <ele>241.5</ele>
        <time>2011-06-25T12:04:52Z</time>
      </trkpt>
      <trkpt lat="43.304763" lon="-8.451498">
        <ele>241.5</ele>
        <time>2011-06-25T12:04:53Z</time>
      </trkpt>
      <trkpt lat="43.304780" lon="-8.451513">
        <ele>242.0</ele>
        <time>2011-06-25T12:04:54Z</time>
      </trkpt>
      <trkpt lat="43.304797" lon="-8.451530">
        <ele>240.5</ele>
        <time>2011-06-25T12:04:55Z</time>
      </trkpt>
      <trkpt lat="43.304808" lon="-8.451542">
        <ele>241.0</ele>
        <time>2011-06-25T12:04:56Z</time>
      </trkpt>
      <trkpt lat="43.304818" lon="-8.451553">
        <ele>241.5</ele>
        <time>2011-06-25T12:04:57Z</time>
      </trkpt>
      <trkpt lat="43.304827" lon="-8.451563">
        <ele>242.5</ele>
        <time>2011-06-25T12:04:58Z</time>
      </trkpt>
      <trkpt lat="43.304837" lon="-8.451575">
        <ele>243.5</ele>
        <time>2011-06-25T12:04:59Z</time>
      </trkpt>
      <trkpt lat="43.304843" lon="-8.451595">
        <ele>244.0</ele>
        <time>2011-06-25T12:05:00Z</time>
      </trkpt>
      <trkpt lat="43.304848" lon="-8.451607">
        <ele>245.0</ele>
        <time>2011-06-25T12:05:01Z</time>
      </trkpt>
      <trkpt lat="43.304860" lon="-8.451617">
        <ele>245.5</ele>
        <time>2011-06-25T12:05:02Z</time>
      </trkpt>
      <trkpt lat="43.304873" lon="-8.451628">
        <ele>245.5</ele>
        <time>2011-06-25T12:05:03Z</time>
      </trkpt>
      <trkpt lat="43.304887" lon="-8.451635">
        <ele>245.0</ele>
        <time>2011-06-25T12:05:04Z</time>
      </trkpt>
      <trkpt lat="43.304902" lon="-8.451645">
        <ele>244.5</ele>
        <time>2011-06-25T12:05:05Z</time>
      </trkpt>
      <trkpt lat="43.304918" lon="-8.451657">
        <ele>244.0</ele>
        <time>2011-06-25T12:05:06Z</time>
      </trkpt>
      <trkpt lat="43.304938" lon="-8.451673">
        <ele>243.0</ele>
        <time>2011-06-25T12:05:07Z</time>
      </trkpt>
      <trkpt lat="43.304953" lon="-8.451682">
        <ele>241.5</ele>
        <time>2011-06-25T12:05:08Z</time>
      </trkpt>
      <trkpt lat="43.304965" lon="-8.451690">
        <ele>241.0</ele>
        <time>2011-06-25T12:05:09Z</time>
      </trkpt>
      <trkpt lat="43.304978" lon="-8.451702">
        <ele>241.0</ele>
        <time>2011-06-25T12:05:10Z</time>
      </trkpt>
      <trkpt lat="43.304993" lon="-8.451710">
        <ele>240.0</ele>
        <time>2011-06-25T12:05:11Z</time>
      </trkpt>
      <trkpt lat="43.305007" lon="-8.451718">
        <ele>239.5</ele>
        <time>2011-06-25T12:05:12Z</time>
      </trkpt>
      <trkpt lat="43.305022" lon="-8.451723">
        <ele>238.5</ele>
        <time>2011-06-25T12:05:13Z</time>
      </trkpt>
      <trkpt lat="43.305033" lon="-8.451725">
        <ele>238.5</ele>
        <time>2011-06-25T12:05:14Z</time>
      </trkpt>
      <trkpt lat="43.305047" lon="-8.451738">
        <ele>237.0</ele>
        <time>2011-06-25T12:05:15Z</time>
      </trkpt>
      <trkpt lat="43.305060" lon="-8.451742">
        <ele>238.0</ele>
        <time>2011-06-25T12:05:16Z</time>
      </trkpt>
      <trkpt lat="43.305077" lon="-8.451748">
        <ele>238.0</ele>
        <time>2011-06-25T12:05:17Z</time>
      </trkpt>
      <trkpt lat="43.305093" lon="-8.451753">
        <ele>238.5</ele>
        <time>2011-06-25T12:05:18Z</time>
      </trkpt>
      <trkpt lat="43.305112" lon="-8.451762">
        <ele>239.0</ele>
        <time>2011-06-25T12:05:19Z</time>
      </trkpt>
      <trkpt lat="43.305135" lon="-8.451770">
        <ele>239.0</ele>
        <time>2011-06-25T12:05:20Z</time>
      </trkpt>
      <trkpt lat="43.305153" lon="-8.451770">
        <ele>239.5</ele>
        <time>2011-06-25T12:05:21Z</time>
      </trkpt>
      <trkpt lat="43.305208" lon="-8.451810">
        <ele>236.5</ele>
        <time>2011-06-25T12:05:23Z</time>
      </trkpt>
      <trkpt lat="43.305235" lon="-8.451815">
        <ele>237.5</ele>
        <time>2011-06-25T12:05:24Z</time>
      </trkpt>
      <trkpt lat="43.305265" lon="-8.451823">
        <ele>238.0</ele>
        <time>2011-06-25T12:05:25Z</time>
      </trkpt>
      <trkpt lat="43.305293" lon="-8.451830">
        <ele>238.5</ele>
        <time>2011-06-25T12:05:26Z</time>
      </trkpt>
      <trkpt lat="43.305327" lon="-8.451837">
        <ele>238.5</ele>
        <time>2011-06-25T12:05:27Z</time>
      </trkpt>
      <trkpt lat="43.305355" lon="-8.451847">
        <ele>238.5</ele>
        <time>2011-06-25T12:05:28Z</time>
      </trkpt>
      <trkpt lat="43.305392" lon="-8.451855">
        <ele>240.5</ele>
        <time>2011-06-25T12:05:29Z</time>
      </trkpt>
      <trkpt lat="43.305442" lon="-8.451858">
        <ele>239.0</ele>
        <time>2011-06-25T12:05:30Z</time>
      </trkpt>
      <trkpt lat="43.305490" lon="-8.451857">
        <ele>240.0</ele>
        <time>2011-06-25T12:05:31Z</time>
      </trkpt>
      <trkpt lat="43.305542" lon="-8.451863">
        <ele>240.5</ele>
        <time>2011-06-25T12:05:32Z</time>
      </trkpt>
      <trkpt lat="43.305597" lon="-8.451872">
        <ele>241.0</ele>
        <time>2011-06-25T12:05:33Z</time>
      </trkpt>
      <trkpt lat="43.305652" lon="-8.451873">
        <ele>241.5</ele>
        <time>2011-06-25T12:05:34Z</time>
      </trkpt>
      <trkpt lat="43.305700" lon="-8.451877">
        <ele>242.0</ele>
        <time>2011-06-25T12:05:35Z</time>
      </trkpt>
      <trkpt lat="43.305762" lon="-8.451883">
        <ele>242.5</ele>
        <time>2011-06-25T12:05:36Z</time>
      </trkpt>
      <trkpt lat="43.305823" lon="-8.451903">
        <ele>243.0</ele>
        <time>2011-06-25T12:05:37Z</time>
      </trkpt>
      <trkpt lat="43.305885" lon="-8.451912">
        <ele>243.0</ele>
        <time>2011-06-25T12:05:38Z</time>
      </trkpt>
      <trkpt lat="43.305947" lon="-8.451915">
        <ele>244.0</ele>
        <time>2011-06-25T12:05:39Z</time>
      </trkpt>
      <trkpt lat="43.306007" lon="-8.451920">
        <ele>244.5</ele>
        <time>2011-06-25T12:05:40Z</time>
      </trkpt>
      <trkpt lat="43.306065" lon="-8.451930">
        <ele>244.5</ele>
        <time>2011-06-25T12:05:41Z</time>
      </trkpt>
      <trkpt lat="43.306123" lon="-8.451950">
        <ele>245.0</ele>
        <time>2011-06-25T12:05:42Z</time>
      </trkpt>
      <trkpt lat="43.306175" lon="-8.451963">
        <ele>246.0</ele>
        <time>2011-06-25T12:05:43Z</time>
      </trkpt>
      <trkpt lat="43.306220" lon="-8.451967">
        <ele>246.5</ele>
        <time>2011-06-25T12:05:44Z</time>
      </trkpt>
      <trkpt lat="43.306255" lon="-8.451952">
        <ele>246.5</ele>
        <time>2011-06-25T12:05:45Z</time>
      </trkpt>
      <trkpt lat="43.306288" lon="-8.451942">
        <ele>244.0</ele>
        <time>2011-06-25T12:05:46Z</time>
      </trkpt>
      <trkpt lat="43.306305" lon="-8.451907">
        <ele>240.5</ele>
        <time>2011-06-25T12:05:48Z</time>
      </trkpt>
      <trkpt lat="43.306322" lon="-8.451912">
        <ele>237.0</ele>
        <time>2011-06-25T12:05:49Z</time>
      </trkpt>
      <trkpt lat="43.306328" lon="-8.451892">
        <ele>237.0</ele>
        <time>2011-06-25T12:05:50Z</time>
      </trkpt>
      <trkpt lat="43.306348" lon="-8.451890">
        <ele>236.5</ele>
        <time>2011-06-25T12:05:51Z</time>
      </trkpt>
      <trkpt lat="43.306367" lon="-8.451875">
        <ele>236.5</ele>
        <time>2011-06-25T12:05:52Z</time>
      </trkpt>
      <trkpt lat="43.306385" lon="-8.451855">
        <ele>237.0</ele>
        <time>2011-06-25T12:05:53Z</time>
      </trkpt>
      <trkpt lat="43.306400" lon="-8.451835">
        <ele>235.5</ele>
        <time>2011-06-25T12:05:54Z</time>
      </trkpt>
      <trkpt lat="43.306415" lon="-8.451818">
        <ele>235.0</ele>
        <time>2011-06-25T12:05:55Z</time>
      </trkpt>
      <trkpt lat="43.306430" lon="-8.451798">
        <ele>235.0</ele>
        <time>2011-06-25T12:05:56Z</time>
      </trkpt>
      <trkpt lat="43.306443" lon="-8.451803">
        <ele>234.5</ele>
        <time>2011-06-25T12:05:57Z</time>
      </trkpt>
      <trkpt lat="43.306457" lon="-8.451812">
        <ele>233.5</ele>
        <time>2011-06-25T12:05:58Z</time>
      </trkpt>
      <trkpt lat="43.306475" lon="-8.451818">
        <ele>231.5</ele>
        <time>2011-06-25T12:05:59Z</time>
      </trkpt>
      <trkpt lat="43.306488" lon="-8.451803">
        <ele>230.0</ele>
        <time>2011-06-25T12:06:00Z</time>
      </trkpt>
      <trkpt lat="43.306505" lon="-8.451790">
        <ele>227.5</ele>
        <time>2011-06-25T12:06:01Z</time>
      </trkpt>
      <trkpt lat="43.306515" lon="-8.451785">
        <ele>225.5</ele>
        <time>2011-06-25T12:06:02Z</time>
      </trkpt>
      <trkpt lat="43.306520" lon="-8.451782">
        <ele>223.5</ele>
        <time>2011-06-25T12:06:03Z</time>
      </trkpt>
      <trkpt lat="43.306520" lon="-8.451773">
        <ele>223.0</ele>
        <time>2011-06-25T12:06:04Z</time>
      </trkpt>
      <trkpt lat="43.306518" lon="-8.451750">
        <ele>222.5</ele>
        <time>2011-06-25T12:06:05Z</time>
      </trkpt>
      <trkpt lat="43.306518" lon="-8.451730">
        <ele>221.5</ele>
        <time>2011-06-25T12:06:06Z</time>
      </trkpt>
      <trkpt lat="43.306510" lon="-8.451715">
        <ele>222.5</ele>
        <time>2011-06-25T12:06:07Z</time>
      </trkpt>
      <trkpt lat="43.306502" lon="-8.451695">
        <ele>222.0</ele>
        <time>2011-06-25T12:06:08Z</time>
      </trkpt>
      <trkpt lat="43.306492" lon="-8.451677">
        <ele>222.0</ele>
        <time>2011-06-25T12:06:09Z</time>
      </trkpt>
      <trkpt lat="43.306482" lon="-8.451665">
        <ele>222.0</ele>
        <time>2011-06-25T12:06:10Z</time>
      </trkpt>
      <trkpt lat="43.306470" lon="-8.451660">
        <ele>223.0</ele>
        <time>2011-06-25T12:06:11Z</time>
      </trkpt>
      <trkpt lat="43.306457" lon="-8.451650">
        <ele>223.5</ele>
        <time>2011-06-25T12:06:12Z</time>
      </trkpt>
      <trkpt lat="43.306442" lon="-8.451640">
        <ele>224.0</ele>
        <time>2011-06-25T12:06:13Z</time>
      </trkpt>
      <trkpt lat="43.306432" lon="-8.451625">
        <ele>224.0</ele>
        <time>2011-06-25T12:06:14Z</time>
      </trkpt>
      <trkpt lat="43.306428" lon="-8.451618">
        <ele>224.0</ele>
        <time>2011-06-25T12:06:15Z</time>
      </trkpt>
      <trkpt lat="43.306418" lon="-8.451612">
        <ele>224.0</ele>
        <time>2011-06-25T12:06:16Z</time>
      </trkpt>
      <trkpt lat="43.306413" lon="-8.451600">
        <ele>223.5</ele>
        <time>2011-06-25T12:06:17Z</time>
      </trkpt>
      <trkpt lat="43.306403" lon="-8.451593">
        <ele>224.0</ele>
        <time>2011-06-25T12:06:18Z</time>
      </trkpt>
      <trkpt lat="43.306395" lon="-8.451588">
        <ele>224.0</ele>
        <time>2011-06-25T12:06:19Z</time>
      </trkpt>
      <trkpt lat="43.306390" lon="-8.451587">
        <ele>224.5</ele>
        <time>2011-06-25T12:06:20Z</time>
      </trkpt>
      <trkpt lat="43.306385" lon="-8.451575">
        <ele>224.5</ele>
        <time>2011-06-25T12:06:21Z</time>
      </trkpt>
      <trkpt lat="43.306378" lon="-8.451558">
        <ele>224.0</ele>
        <time>2011-06-25T12:06:22Z</time>
      </trkpt>
      <trkpt lat="43.306372" lon="-8.451542">
        <ele>224.5</ele>
        <time>2011-06-25T12:06:23Z</time>
      </trkpt>
      <trkpt lat="43.306367" lon="-8.451523">
        <ele>224.5</ele>
        <time>2011-06-25T12:06:24Z</time>
      </trkpt>
      <trkpt lat="43.306363" lon="-8.451505">
        <ele>224.0</ele>
        <time>2011-06-25T12:06:25Z</time>
      </trkpt>
      <trkpt lat="43.306360" lon="-8.451497">
        <ele>224.0</ele>
        <time>2011-06-25T12:06:26Z</time>
      </trkpt>
      <trkpt lat="43.306353" lon="-8.451487">
        <ele>224.0</ele>
        <time>2011-06-25T12:06:27Z</time>
      </trkpt>
      <trkpt lat="43.306345" lon="-8.451482">
        <ele>225.0</ele>
        <time>2011-06-25T12:06:28Z</time>
      </trkpt>
      <trkpt lat="43.306340" lon="-8.451463">
        <ele>224.5</ele>
        <time>2011-06-25T12:06:29Z</time>
      </trkpt>
      <trkpt lat="43.306338" lon="-8.451463">
        <ele>225.5</ele>
        <time>2011-06-25T12:06:30Z</time>
      </trkpt>
      <trkpt lat="43.306338" lon="-8.451455">
        <ele>225.5</ele>
        <time>2011-06-25T12:06:31Z</time>
      </trkpt>
      <trkpt lat="43.306333" lon="-8.451442">
        <ele>226.0</ele>
        <time>2011-06-25T12:06:32Z</time>
      </trkpt>
      <trkpt lat="43.306332" lon="-8.451432">
        <ele>225.5</ele>
        <time>2011-06-25T12:06:33Z</time>
      </trkpt>
      <trkpt lat="43.306328" lon="-8.451428">
        <ele>226.5</ele>
        <time>2011-06-25T12:06:34Z</time>
      </trkpt>
      <trkpt lat="43.306325" lon="-8.451417">
        <ele>226.0</ele>
        <time>2011-06-25T12:06:35Z</time>
      </trkpt>
      <trkpt lat="43.306322" lon="-8.451405">
        <ele>226.5</ele>
        <time>2011-06-25T12:06:36Z</time>
      </trkpt>
      <trkpt lat="43.306318" lon="-8.451387">
        <ele>226.5</ele>
        <time>2011-06-25T12:06:37Z</time>
      </trkpt>
      <trkpt lat="43.306320" lon="-8.451363">
        <ele>226.0</ele>
        <time>2011-06-25T12:06:38Z</time>
      </trkpt>
      <trkpt lat="43.306320" lon="-8.451343">
        <ele>226.0</ele>
        <time>2011-06-25T12:06:39Z</time>
      </trkpt>
      <trkpt lat="43.306313" lon="-8.451327">
        <ele>226.5</ele>
        <time>2011-06-25T12:06:40Z</time>
      </trkpt>
      <trkpt lat="43.306310" lon="-8.451305">
        <ele>225.5</ele>
        <time>2011-06-25T12:06:41Z</time>
      </trkpt>
      <trkpt lat="43.306305" lon="-8.451288">
        <ele>225.5</ele>
        <time>2011-06-25T12:06:42Z</time>
      </trkpt>
      <trkpt lat="43.306298" lon="-8.451278">
        <ele>226.0</ele>
        <time>2011-06-25T12:06:43Z</time>
      </trkpt>
      <trkpt lat="43.306292" lon="-8.451265">
        <ele>226.0</ele>
        <time>2011-06-25T12:06:44Z</time>
      </trkpt>
      <trkpt lat="43.306285" lon="-8.451262">
        <ele>226.5</ele>
        <time>2011-06-25T12:06:45Z</time>
      </trkpt>
      <trkpt lat="43.306278" lon="-8.451253">
        <ele>227.0</ele>
        <time>2011-06-25T12:06:46Z</time>
      </trkpt>
      <trkpt lat="43.306270" lon="-8.451237">
        <ele>226.5</ele>
        <time>2011-06-25T12:06:47Z</time>
      </trkpt>
      <trkpt lat="43.306262" lon="-8.451227">
        <ele>227.0</ele>
        <time>2011-06-25T12:06:48Z</time>
      </trkpt>
      <trkpt lat="43.306257" lon="-8.451218">
        <ele>227.0</ele>
        <time>2011-06-25T12:06:49Z</time>
      </trkpt>
      <trkpt lat="43.306252" lon="-8.451203">
        <ele>226.5</ele>
        <time>2011-06-25T12:06:50Z</time>
      </trkpt>
      <trkpt lat="43.306248" lon="-8.451188">
        <ele>226.0</ele>
        <time>2011-06-25T12:06:51Z</time>
      </trkpt>
      <trkpt lat="43.306242" lon="-8.451175">
        <ele>226.0</ele>
        <time>2011-06-25T12:06:52Z</time>
      </trkpt>
      <trkpt lat="43.306235" lon="-8.451163">
        <ele>226.0</ele>
        <time>2011-06-25T12:06:53Z</time>
      </trkpt>
      <trkpt lat="43.306230" lon="-8.451160">
        <ele>226.5</ele>
        <time>2011-06-25T12:06:54Z</time>
      </trkpt>
      <trkpt lat="43.306227" lon="-8.451150">
        <ele>227.5</ele>
        <time>2011-06-25T12:06:55Z</time>
      </trkpt>
      <trkpt lat="43.306220" lon="-8.451135">
        <ele>227.5</ele>
        <time>2011-06-25T12:06:56Z</time>
      </trkpt>
      <trkpt lat="43.306215" lon="-8.451120">
        <ele>228.0</ele>
        <time>2011-06-25T12:06:57Z</time>
      </trkpt>
      <trkpt lat="43.306210" lon="-8.451102">
        <ele>228.0</ele>
        <time>2011-06-25T12:06:58Z</time>
      </trkpt>
      <trkpt lat="43.306203" lon="-8.451088">
        <ele>228.5</ele>
        <time>2011-06-25T12:06:59Z</time>
      </trkpt>
      <trkpt lat="43.306197" lon="-8.451077">
        <ele>228.5</ele>
        <time>2011-06-25T12:07:00Z</time>
      </trkpt>
      <trkpt lat="43.306190" lon="-8.451060">
        <ele>229.0</ele>
        <time>2011-06-25T12:07:01Z</time>
      </trkpt>
      <trkpt lat="43.306183" lon="-8.451042">
        <ele>229.0</ele>
        <time>2011-06-25T12:07:02Z</time>
      </trkpt>
      <trkpt lat="43.306175" lon="-8.451020">
        <ele>229.0</ele>
        <time>2011-06-25T12:07:03Z</time>
      </trkpt>
      <trkpt lat="43.306163" lon="-8.451008">
        <ele>229.0</ele>
        <time>2011-06-25T12:07:04Z</time>
      </trkpt>
      <trkpt lat="43.306152" lon="-8.450995">
        <ele>229.5</ele>
        <time>2011-06-25T12:07:05Z</time>
      </trkpt>
      <trkpt lat="43.306140" lon="-8.450978">
        <ele>229.0</ele>
        <time>2011-06-25T12:07:06Z</time>
      </trkpt>
      <trkpt lat="43.306128" lon="-8.450967">
        <ele>229.0</ele>
        <time>2011-06-25T12:07:07Z</time>
      </trkpt>
      <trkpt lat="43.306117" lon="-8.450955">
        <ele>229.0</ele>
        <time>2011-06-25T12:07:08Z</time>
      </trkpt>
      <trkpt lat="43.306103" lon="-8.450945">
        <ele>229.5</ele>
        <time>2011-06-25T12:07:09Z</time>
      </trkpt>
      <trkpt lat="43.306090" lon="-8.450935">
        <ele>229.5</ele>
        <time>2011-06-25T12:07:10Z</time>
      </trkpt>
      <trkpt lat="43.306082" lon="-8.450935">
        <ele>229.5</ele>
        <time>2011-06-25T12:07:11Z</time>
      </trkpt>
      <trkpt lat="43.306068" lon="-8.450932">
        <ele>230.0</ele>
        <time>2011-06-25T12:07:12Z</time>
      </trkpt>
      <trkpt lat="43.306052" lon="-8.450913">
        <ele>230.5</ele>
        <time>2011-06-25T12:07:13Z</time>
      </trkpt>
      <trkpt lat="43.306040" lon="-8.450895">
        <ele>230.5</ele>
        <time>2011-06-25T12:07:14Z</time>
      </trkpt>
      <trkpt lat="43.306027" lon="-8.450885">
        <ele>230.5</ele>
        <time>2011-06-25T12:07:15Z</time>
      </trkpt>
      <trkpt lat="43.306012" lon="-8.450873">
        <ele>230.5</ele>
        <time>2011-06-25T12:07:16Z</time>
      </trkpt>
      <trkpt lat="43.305988" lon="-8.450850">
        <ele>230.5</ele>
        <time>2011-06-25T12:07:17Z</time>
      </trkpt>
      <trkpt lat="43.305977" lon="-8.450838">
        <ele>231.0</ele>
        <time>2011-06-25T12:07:18Z</time>
      </trkpt>
      <trkpt lat="43.305967" lon="-8.450827">
        <ele>231.0</ele>
        <time>2011-06-25T12:07:19Z</time>
      </trkpt>
      <trkpt lat="43.305960" lon="-8.450808">
        <ele>231.0</ele>
        <time>2011-06-25T12:07:20Z</time>
      </trkpt>
      <trkpt lat="43.305952" lon="-8.450792">
        <ele>232.0</ele>
        <time>2011-06-25T12:07:21Z</time>
      </trkpt>
      <trkpt lat="43.305943" lon="-8.450770">
        <ele>232.0</ele>
        <time>2011-06-25T12:07:22Z</time>
      </trkpt>
      <trkpt lat="43.305937" lon="-8.450748">
        <ele>232.0</ele>
        <time>2011-06-25T12:07:23Z</time>
      </trkpt>
      <trkpt lat="43.305933" lon="-8.450725">
        <ele>232.0</ele>
        <time>2011-06-25T12:07:24Z</time>
      </trkpt>
      <trkpt lat="43.305932" lon="-8.450698">
        <ele>231.5</ele>
        <time>2011-06-25T12:07:25Z</time>
      </trkpt>
      <trkpt lat="43.305932" lon="-8.450673">
        <ele>231.0</ele>
        <time>2011-06-25T12:07:26Z</time>
      </trkpt>
      <trkpt lat="43.305932" lon="-8.450647">
        <ele>231.0</ele>
        <time>2011-06-25T12:07:27Z</time>
      </trkpt>
      <trkpt lat="43.305933" lon="-8.450622">
        <ele>231.0</ele>
        <time>2011-06-25T12:07:28Z</time>
      </trkpt>
      <trkpt lat="43.305938" lon="-8.450598">
        <ele>230.5</ele>
        <time>2011-06-25T12:07:29Z</time>
      </trkpt>
      <trkpt lat="43.305943" lon="-8.450578">
        <ele>230.5</ele>
        <time>2011-06-25T12:07:30Z</time>
      </trkpt>
      <trkpt lat="43.305950" lon="-8.450555">
        <ele>230.0</ele>
        <time>2011-06-25T12:07:31Z</time>
      </trkpt>
      <trkpt lat="43.305957" lon="-8.450535">
        <ele>230.0</ele>
        <time>2011-06-25T12:07:32Z</time>
      </trkpt>
      <trkpt lat="43.305967" lon="-8.450520">
        <ele>230.0</ele>
        <time>2011-06-25T12:07:33Z</time>
      </trkpt>
      <trkpt lat="43.305982" lon="-8.450500">
        <ele>230.0</ele>
        <time>2011-06-25T12:07:34Z</time>
      </trkpt>
      <trkpt lat="43.305993" lon="-8.450480">
        <ele>230.0</ele>
        <time>2011-06-25T12:07:35Z</time>
      </trkpt>
      <trkpt lat="43.306008" lon="-8.450462">
        <ele>229.5</ele>
        <time>2011-06-25T12:07:36Z</time>
      </trkpt>
      <trkpt lat="43.306023" lon="-8.450443">
        <ele>229.5</ele>
        <time>2011-06-25T12:07:37Z</time>
      </trkpt>
      <trkpt lat="43.306040" lon="-8.450420">
        <ele>229.0</ele>
        <time>2011-06-25T12:07:38Z</time>
      </trkpt>
      <trkpt lat="43.306047" lon="-8.450402">
        <ele>229.0</ele>
        <time>2011-06-25T12:07:39Z</time>
      </trkpt>
      <trkpt lat="43.306057" lon="-8.450380">
        <ele>229.0</ele>
        <time>2011-06-25T12:07:40Z</time>
      </trkpt>
      <trkpt lat="43.306060" lon="-8.450360">
        <ele>228.5</ele>
        <time>2011-06-25T12:07:41Z</time>
      </trkpt>
      <trkpt lat="43.306060" lon="-8.450342">
        <ele>228.5</ele>
        <time>2011-06-25T12:07:42Z</time>
      </trkpt>
      <trkpt lat="43.306062" lon="-8.450325">
        <ele>228.5</ele>
        <time>2011-06-25T12:07:43Z</time>
      </trkpt>
      <trkpt lat="43.306063" lon="-8.450302">
        <ele>228.0</ele>
        <time>2011-06-25T12:07:44Z</time>
      </trkpt>
      <trkpt lat="43.306065" lon="-8.450277">
        <ele>227.5</ele>
        <time>2011-06-25T12:07:45Z</time>
      </trkpt>
      <trkpt lat="43.306062" lon="-8.450253">
        <ele>227.5</ele>
        <time>2011-06-25T12:07:46Z</time>
      </trkpt>
      <trkpt lat="43.306062" lon="-8.450230">
        <ele>227.5</ele>
        <time>2011-06-25T12:07:47Z</time>
      </trkpt>
      <trkpt lat="43.306060" lon="-8.450207">
        <ele>227.5</ele>
        <time>2011-06-25T12:07:48Z</time>
      </trkpt>
      <trkpt lat="43.306057" lon="-8.450183">
        <ele>227.5</ele>
        <time>2011-06-25T12:07:49Z</time>
      </trkpt>
      <trkpt lat="43.306050" lon="-8.450162">
        <ele>228.0</ele>
        <time>2011-06-25T12:07:50Z</time>
      </trkpt>
      <trkpt lat="43.306045" lon="-8.450142">
        <ele>228.5</ele>
        <time>2011-06-25T12:07:51Z</time>
      </trkpt>
      <trkpt lat="43.306040" lon="-8.450120">
        <ele>229.0</ele>
        <time>2011-06-25T12:07:52Z</time>
      </trkpt>
      <trkpt lat="43.306033" lon="-8.450095">
        <ele>229.5</ele>
        <time>2011-06-25T12:07:53Z</time>
      </trkpt>
      <trkpt lat="43.306028" lon="-8.450068">
        <ele>229.5</ele>
        <time>2011-06-25T12:07:54Z</time>
      </trkpt>
      <trkpt lat="43.306025" lon="-8.450033">
        <ele>229.5</ele>
        <time>2011-06-25T12:07:55Z</time>
      </trkpt>
      <trkpt lat="43.306020" lon="-8.450008">
        <ele>229.5</ele>
        <time>2011-06-25T12:07:56Z</time>
      </trkpt>
      <trkpt lat="43.306015" lon="-8.449985">
        <ele>230.0</ele>
        <time>2011-06-25T12:07:57Z</time>
      </trkpt>
      <trkpt lat="43.306012" lon="-8.449957">
        <ele>230.0</ele>
        <time>2011-06-25T12:07:58Z</time>
      </trkpt>
      <trkpt lat="43.306008" lon="-8.449932">
        <ele>230.0</ele>
        <time>2011-06-25T12:07:59Z</time>
      </trkpt>
      <trkpt lat="43.306003" lon="-8.449905">
        <ele>230.5</ele>
        <time>2011-06-25T12:08:00Z</time>
      </trkpt>
      <trkpt lat="43.305997" lon="-8.449872">
        <ele>230.5</ele>
        <time>2011-06-25T12:08:01Z</time>
      </trkpt>
      <trkpt lat="43.305987" lon="-8.449850">
        <ele>231.0</ele>
        <time>2011-06-25T12:08:02Z</time>
      </trkpt>
      <trkpt lat="43.305982" lon="-8.449815">
        <ele>231.0</ele>
        <time>2011-06-25T12:08:03Z</time>
      </trkpt>
      <trkpt lat="43.305975" lon="-8.449783">
        <ele>231.0</ele>
        <time>2011-06-25T12:08:04Z</time>
      </trkpt>
      <trkpt lat="43.305967" lon="-8.449750">
        <ele>231.0</ele>
        <time>2011-06-25T12:08:05Z</time>
      </trkpt>
      <trkpt lat="43.305960" lon="-8.449713">
        <ele>231.0</ele>
        <time>2011-06-25T12:08:06Z</time>
      </trkpt>
      <trkpt lat="43.305957" lon="-8.449677">
        <ele>231.0</ele>
        <time>2011-06-25T12:08:07Z</time>
      </trkpt>
      <trkpt lat="43.305955" lon="-8.449638">
        <ele>231.0</ele>
        <time>2011-06-25T12:08:08Z</time>
      </trkpt>
      <trkpt lat="43.305955" lon="-8.449603">
        <ele>230.5</ele>
        <time>2011-06-25T12:08:09Z</time>
      </trkpt>
      <trkpt lat="43.305960" lon="-8.449568">
        <ele>230.0</ele>
        <time>2011-06-25T12:08:10Z</time>
      </trkpt>
      <trkpt lat="43.305958" lon="-8.449535">
        <ele>230.0</ele>
        <time>2011-06-25T12:08:11Z</time>
      </trkpt>
      <trkpt lat="43.305952" lon="-8.449503">
        <ele>229.5</ele>
        <time>2011-06-25T12:08:12Z</time>
      </trkpt>
      <trkpt lat="43.305938" lon="-8.449475">
        <ele>229.5</ele>
        <time>2011-06-25T12:08:13Z</time>
      </trkpt>
      <trkpt lat="43.305928" lon="-8.449448">
        <ele>229.5</ele>
        <time>2011-06-25T12:08:14Z</time>
      </trkpt>
      <trkpt lat="43.305922" lon="-8.449418">
        <ele>229.0</ele>
        <time>2011-06-25T12:08:15Z</time>
      </trkpt>
      <trkpt lat="43.305917" lon="-8.449390">
        <ele>228.5</ele>
        <time>2011-06-25T12:08:16Z</time>
      </trkpt>
      <trkpt lat="43.305913" lon="-8.449368">
        <ele>228.5</ele>
        <time>2011-06-25T12:08:17Z</time>
      </trkpt>
      <trkpt lat="43.305907" lon="-8.449340">
        <ele>228.5</ele>
        <time>2011-06-25T12:08:18Z</time>
      </trkpt>
      <trkpt lat="43.305898" lon="-8.449317">
        <ele>229.0</ele>
        <time>2011-06-25T12:08:19Z</time>
      </trkpt>
      <trkpt lat="43.305895" lon="-8.449283">
        <ele>229.0</ele>
        <time>2011-06-25T12:08:20Z</time>
      </trkpt>
      <trkpt lat="43.305887" lon="-8.449258">
        <ele>229.0</ele>
        <time>2011-06-25T12:08:21Z</time>
      </trkpt>
      <trkpt lat="43.305882" lon="-8.449232">
        <ele>229.5</ele>
        <time>2011-06-25T12:08:22Z</time>
      </trkpt>
      <trkpt lat="43.305870" lon="-8.449205">
        <ele>228.0</ele>
        <time>2011-06-25T12:08:23Z</time>
      </trkpt>
      <trkpt lat="43.305862" lon="-8.449182">
        <ele>228.0</ele>
        <time>2011-06-25T12:08:24Z</time>
      </trkpt>
      <trkpt lat="43.305858" lon="-8.449150">
        <ele>227.5</ele>
        <time>2011-06-25T12:08:25Z</time>
      </trkpt>
      <trkpt lat="43.305853" lon="-8.449120">
        <ele>227.0</ele>
        <time>2011-06-25T12:08:26Z</time>
      </trkpt>
      <trkpt lat="43.305847" lon="-8.449092">
        <ele>226.5</ele>
        <time>2011-06-25T12:08:27Z</time>
      </trkpt>
      <trkpt lat="43.305833" lon="-8.449073">
        <ele>228.5</ele>
        <time>2011-06-25T12:08:28Z</time>
      </trkpt>
      <trkpt lat="43.305828" lon="-8.449052">
        <ele>228.5</ele>
        <time>2011-06-25T12:08:29Z</time>
      </trkpt>
      <trkpt lat="43.305827" lon="-8.449025">
        <ele>228.5</ele>
        <time>2011-06-25T12:08:30Z</time>
      </trkpt>
      <trkpt lat="43.305833" lon="-8.448995">
        <ele>228.5</ele>
        <time>2011-06-25T12:08:31Z</time>
      </trkpt>
      <trkpt lat="43.305838" lon="-8.448968">
        <ele>228.5</ele>
        <time>2011-06-25T12:08:32Z</time>
      </trkpt>
      <trkpt lat="43.305822" lon="-8.448950">
        <ele>229.0</ele>
        <time>2011-06-25T12:08:33Z</time>
      </trkpt>
      <trkpt lat="43.305840" lon="-8.448908">
        <ele>228.0</ele>
        <time>2011-06-25T12:08:34Z</time>
      </trkpt>
      <trkpt lat="43.305855" lon="-8.448850">
        <ele>227.5</ele>
        <time>2011-06-25T12:08:36Z</time>
      </trkpt>
      <trkpt lat="43.305865" lon="-8.448820">
        <ele>228.0</ele>
        <time>2011-06-25T12:08:37Z</time>
      </trkpt>
      <trkpt lat="43.305887" lon="-8.448795">
        <ele>228.0</ele>
        <time>2011-06-25T12:08:38Z</time>
      </trkpt>
      <trkpt lat="43.305913" lon="-8.448770">
        <ele>227.5</ele>
        <time>2011-06-25T12:08:39Z</time>
      </trkpt>
      <trkpt lat="43.305940" lon="-8.448750">
        <ele>227.0</ele>
        <time>2011-06-25T12:08:40Z</time>
      </trkpt>
      <trkpt lat="43.305975" lon="-8.448735">
        <ele>226.5</ele>
        <time>2011-06-25T12:08:41Z</time>
      </trkpt>
      <trkpt lat="43.306017" lon="-8.448722">
        <ele>225.5</ele>
        <time>2011-06-25T12:08:42Z</time>
      </trkpt>
      <trkpt lat="43.306065" lon="-8.448715">
        <ele>224.0</ele>
        <time>2011-06-25T12:08:43Z</time>
      </trkpt>
      <trkpt lat="43.306120" lon="-8.448720">
        <ele>222.5</ele>
        <time>2011-06-25T12:08:44Z</time>
      </trkpt>
      <trkpt lat="43.306175" lon="-8.448728">
        <ele>221.5</ele>
        <time>2011-06-25T12:08:45Z</time>
      </trkpt>
      <trkpt lat="43.306225" lon="-8.448738">
        <ele>221.0</ele>
        <time>2011-06-25T12:08:46Z</time>
      </trkpt>
      <trkpt lat="43.306275" lon="-8.448745">
        <ele>220.0</ele>
        <time>2011-06-25T12:08:47Z</time>
      </trkpt>
      <trkpt lat="43.306322" lon="-8.448737">
        <ele>219.5</ele>
        <time>2011-06-25T12:08:48Z</time>
      </trkpt>
      <trkpt lat="43.306367" lon="-8.448715">
        <ele>219.5</ele>
        <time>2011-06-25T12:08:49Z</time>
      </trkpt>
      <trkpt lat="43.306407" lon="-8.448683">
        <ele>220.0</ele>
        <time>2011-06-25T12:08:50Z</time>
      </trkpt>
      <trkpt lat="43.306443" lon="-8.448650">
        <ele>220.0</ele>
        <time>2011-06-25T12:08:51Z</time>
      </trkpt>
      <trkpt lat="43.306470" lon="-8.448603">
        <ele>220.0</ele>
        <time>2011-06-25T12:08:53Z</time>
      </trkpt>
      <trkpt lat="43.306488" lon="-8.448588">
        <ele>220.5</ele>
        <time>2011-06-25T12:08:54Z</time>
      </trkpt>
      <trkpt lat="43.306510" lon="-8.448583">
        <ele>220.5</ele>
        <time>2011-06-25T12:08:55Z</time>
      </trkpt>
      <trkpt lat="43.306528" lon="-8.448567">
        <ele>220.5</ele>
        <time>2011-06-25T12:08:56Z</time>
      </trkpt>
      <trkpt lat="43.306547" lon="-8.448552">
        <ele>220.0</ele>
        <time>2011-06-25T12:08:57Z</time>
      </trkpt>
      <trkpt lat="43.306555" lon="-8.448525">
        <ele>218.5</ele>
        <time>2011-06-25T12:08:58Z</time>
      </trkpt>
      <trkpt lat="43.306567" lon="-8.448505">
        <ele>217.0</ele>
        <time>2011-06-25T12:08:59Z</time>
      </trkpt>
      <trkpt lat="43.306580" lon="-8.448487">
        <ele>216.5</ele>
        <time>2011-06-25T12:09:00Z</time>
      </trkpt>
      <trkpt lat="43.306595" lon="-8.448473">
        <ele>217.5</ele>
        <time>2011-06-25T12:09:01Z</time>
      </trkpt>
      <trkpt lat="43.306607" lon="-8.448455">
        <ele>218.0</ele>
        <time>2011-06-25T12:09:02Z</time>
      </trkpt>
      <trkpt lat="43.306618" lon="-8.448440">
        <ele>218.5</ele>
        <time>2011-06-25T12:09:03Z</time>
      </trkpt>
      <trkpt lat="43.306628" lon="-8.448423">
        <ele>220.5</ele>
        <time>2011-06-25T12:09:04Z</time>
      </trkpt>
      <trkpt lat="43.306638" lon="-8.448405">
        <ele>220.0</ele>
        <time>2011-06-25T12:09:05Z</time>
      </trkpt>
      <trkpt lat="43.306650" lon="-8.448387">
        <ele>220.0</ele>
        <time>2011-06-25T12:09:06Z</time>
      </trkpt>
      <trkpt lat="43.306663" lon="-8.448368">
        <ele>220.0</ele>
        <time>2011-06-25T12:09:07Z</time>
      </trkpt>
      <trkpt lat="43.306675" lon="-8.448343">
        <ele>218.5</ele>
        <time>2011-06-25T12:09:08Z</time>
      </trkpt>
      <trkpt lat="43.306693" lon="-8.448327">
        <ele>218.5</ele>
        <time>2011-06-25T12:09:09Z</time>
      </trkpt>
      <trkpt lat="43.306708" lon="-8.448318">
        <ele>218.5</ele>
        <time>2011-06-25T12:09:10Z</time>
      </trkpt>
      <trkpt lat="43.306723" lon="-8.448290">
        <ele>219.0</ele>
        <time>2011-06-25T12:09:11Z</time>
      </trkpt>
      <trkpt lat="43.306740" lon="-8.448280">
        <ele>218.5</ele>
        <time>2011-06-25T12:09:12Z</time>
      </trkpt>
      <trkpt lat="43.306757" lon="-8.448265">
        <ele>217.0</ele>
        <time>2011-06-25T12:09:13Z</time>
      </trkpt>
      <trkpt lat="43.306773" lon="-8.448255">
        <ele>217.5</ele>
        <time>2011-06-25T12:09:14Z</time>
      </trkpt>
      <trkpt lat="43.306790" lon="-8.448247">
        <ele>217.5</ele>
        <time>2011-06-25T12:09:15Z</time>
      </trkpt>
      <trkpt lat="43.306805" lon="-8.448232">
        <ele>218.5</ele>
        <time>2011-06-25T12:09:16Z</time>
      </trkpt>
      <trkpt lat="43.306823" lon="-8.448218">
        <ele>218.0</ele>
        <time>2011-06-25T12:09:17Z</time>
      </trkpt>
      <trkpt lat="43.306838" lon="-8.448205">
        <ele>219.5</ele>
        <time>2011-06-25T12:09:18Z</time>
      </trkpt>
    </trkseg>
  </trk>
  <trk>
    <name>T2067676-21</name>
    <cmt>saida con compañeiros do C.C.Arteixo polos arredores da Coruña</cmt>
    <desc>saida con compañeiros do C.C.Arteixo polos arredores da Coruña</desc>
    <trkseg>
      <trkpt lat="43.306855" lon="-8.448193">
        <ele>219.0</ele>
        <time>2011-06-25T12:09:19Z</time>
      </trkpt>
      <trkpt lat="43.306867" lon="-8.448185">
        <ele>220.0</ele>
        <time>2011-06-25T12:09:20Z</time>
      </trkpt>
      <trkpt lat="43.306877" lon="-8.448182">
        <ele>220.0</ele>
        <time>2011-06-25T12:09:21Z</time>
      </trkpt>
      <trkpt lat="43.306890" lon="-8.448178">
        <ele>221.5</ele>
        <time>2011-06-25T12:09:22Z</time>
      </trkpt>
      <trkpt lat="43.306907" lon="-8.448177">
        <ele>222.0</ele>
        <time>2011-06-25T12:09:23Z</time>
      </trkpt>
      <trkpt lat="43.306927" lon="-8.448170">
        <ele>221.5</ele>
        <time>2011-06-25T12:09:24Z</time>
      </trkpt>
      <trkpt lat="43.306942" lon="-8.448168">
        <ele>223.0</ele>
        <time>2011-06-25T12:09:25Z</time>
      </trkpt>
      <trkpt lat="43.306952" lon="-8.448167">
        <ele>224.0</ele>
        <time>2011-06-25T12:09:26Z</time>
      </trkpt>
      <trkpt lat="43.306962" lon="-8.448165">
        <ele>225.5</ele>
        <time>2011-06-25T12:09:27Z</time>
      </trkpt>
      <trkpt lat="43.306973" lon="-8.448165">
        <ele>226.0</ele>
        <time>2011-06-25T12:09:28Z</time>
      </trkpt>
      <trkpt lat="43.306987" lon="-8.448162">
        <ele>225.5</ele>
        <time>2011-06-25T12:09:29Z</time>
      </trkpt>
      <trkpt lat="43.306997" lon="-8.448157">
        <ele>225.5</ele>
        <time>2011-06-25T12:09:30Z</time>
      </trkpt>
      <trkpt lat="43.307012" lon="-8.448155">
        <ele>225.0</ele>
        <time>2011-06-25T12:09:31Z</time>
      </trkpt>
      <trkpt lat="43.307025" lon="-8.448153">
        <ele>225.5</ele>
        <time>2011-06-25T12:09:32Z</time>
      </trkpt>
      <trkpt lat="43.307035" lon="-8.448152">
        <ele>227.0</ele>
        <time>2011-06-25T12:09:33Z</time>
      </trkpt>
      <trkpt lat="43.307047" lon="-8.448148">
        <ele>228.5</ele>
        <time>2011-06-25T12:09:34Z</time>
      </trkpt>
      <trkpt lat="43.307058" lon="-8.448150">
        <ele>230.0</ele>
        <time>2011-06-25T12:09:35Z</time>
      </trkpt>
      <trkpt lat="43.307068" lon="-8.448145">
        <ele>231.5</ele>
        <time>2011-06-25T12:09:36Z</time>
      </trkpt>
      <trkpt lat="43.307078" lon="-8.448138">
        <ele>233.0</ele>
        <time>2011-06-25T12:09:37Z</time>
      </trkpt>
      <trkpt lat="43.307092" lon="-8.448133">
        <ele>234.0</ele>
        <time>2011-06-25T12:09:38Z</time>
      </trkpt>
      <trkpt lat="43.307105" lon="-8.448132">
        <ele>234.0</ele>
        <time>2011-06-25T12:09:39Z</time>
      </trkpt>
      <trkpt lat="43.307122" lon="-8.448135">
        <ele>235.0</ele>
        <time>2011-06-25T12:09:40Z</time>
      </trkpt>
      <trkpt lat="43.307138" lon="-8.448137">
        <ele>236.0</ele>
        <time>2011-06-25T12:09:41Z</time>
      </trkpt>
      <trkpt lat="43.307148" lon="-8.448135">
        <ele>237.5</ele>
        <time>2011-06-25T12:09:42Z</time>
      </trkpt>
      <trkpt lat="43.307158" lon="-8.448135">
        <ele>238.5</ele>
        <time>2011-06-25T12:09:43Z</time>
      </trkpt>
      <trkpt lat="43.307173" lon="-8.448137">
        <ele>238.0</ele>
        <time>2011-06-25T12:09:44Z</time>
      </trkpt>
      <trkpt lat="43.307187" lon="-8.448140">
        <ele>238.5</ele>
        <time>2011-06-25T12:09:45Z</time>
      </trkpt>
      <trkpt lat="43.307200" lon="-8.448138">
        <ele>239.0</ele>
        <time>2011-06-25T12:09:46Z</time>
      </trkpt>
      <trkpt lat="43.307212" lon="-8.448140">
        <ele>239.0</ele>
        <time>2011-06-25T12:09:47Z</time>
      </trkpt>
      <trkpt lat="43.307222" lon="-8.448145">
        <ele>239.5</ele>
        <time>2011-06-25T12:09:48Z</time>
      </trkpt>
      <trkpt lat="43.307230" lon="-8.448147">
        <ele>240.0</ele>
        <time>2011-06-25T12:09:49Z</time>
      </trkpt>
      <trkpt lat="43.307243" lon="-8.448150">
        <ele>239.0</ele>
        <time>2011-06-25T12:09:50Z</time>
      </trkpt>
      <trkpt lat="43.307255" lon="-8.448150">
        <ele>239.5</ele>
        <time>2011-06-25T12:09:51Z</time>
      </trkpt>
      <trkpt lat="43.307267" lon="-8.448148">
        <ele>239.5</ele>
        <time>2011-06-25T12:09:52Z</time>
      </trkpt>
      <trkpt lat="43.307275" lon="-8.448145">
        <ele>241.0</ele>
        <time>2011-06-25T12:09:53Z</time>
      </trkpt>
      <trkpt lat="43.307287" lon="-8.448143">
        <ele>241.5</ele>
        <time>2011-06-25T12:09:54Z</time>
      </trkpt>
      <trkpt lat="43.307302" lon="-8.448140">
        <ele>241.0</ele>
        <time>2011-06-25T12:09:55Z</time>
      </trkpt>
      <trkpt lat="43.307317" lon="-8.448140">
        <ele>242.0</ele>
        <time>2011-06-25T12:09:56Z</time>
      </trkpt>
      <trkpt lat="43.307333" lon="-8.448142">
        <ele>242.5</ele>
        <time>2011-06-25T12:09:57Z</time>
      </trkpt>
      <trkpt lat="43.307347" lon="-8.448145">
        <ele>243.0</ele>
        <time>2011-06-25T12:09:58Z</time>
      </trkpt>
      <trkpt lat="43.307360" lon="-8.448152">
        <ele>244.0</ele>
        <time>2011-06-25T12:09:59Z</time>
      </trkpt>
      <trkpt lat="43.307375" lon="-8.448157">
        <ele>243.5</ele>
        <time>2011-06-25T12:10:00Z</time>
      </trkpt>
      <trkpt lat="43.307388" lon="-8.448157">
        <ele>244.0</ele>
        <time>2011-06-25T12:10:01Z</time>
      </trkpt>
      <trkpt lat="43.307403" lon="-8.448165">
        <ele>244.5</ele>
        <time>2011-06-25T12:10:02Z</time>
      </trkpt>
      <trkpt lat="43.307412" lon="-8.448168">
        <ele>245.0</ele>
        <time>2011-06-25T12:10:03Z</time>
      </trkpt>
      <trkpt lat="43.307423" lon="-8.448167">
        <ele>244.5</ele>
        <time>2011-06-25T12:10:04Z</time>
      </trkpt>
      <trkpt lat="43.307437" lon="-8.448172">
        <ele>244.5</ele>
        <time>2011-06-25T12:10:05Z</time>
      </trkpt>
      <trkpt lat="43.307447" lon="-8.448173">
        <ele>245.5</ele>
        <time>2011-06-25T12:10:06Z</time>
      </trkpt>
      <trkpt lat="43.307460" lon="-8.448172">
        <ele>245.5</ele>
        <time>2011-06-25T12:10:07Z</time>
      </trkpt>
      <trkpt lat="43.307467" lon="-8.448168">
        <ele>245.0</ele>
        <time>2011-06-25T12:10:08Z</time>
      </trkpt>
      <trkpt lat="43.307470" lon="-8.448167">
        <ele>245.0</ele>
        <time>2011-06-25T12:10:09Z</time>
      </trkpt>
      <trkpt lat="43.307472" lon="-8.448167">
        <ele>245.0</ele>
        <time>2011-06-25T12:10:10Z</time>
      </trkpt>
      <trkpt lat="43.307475" lon="-8.448170">
        <ele>245.5</ele>
        <time>2011-06-25T12:10:11Z</time>
      </trkpt>
      <trkpt lat="43.307477" lon="-8.448170">
        <ele>245.0</ele>
        <time>2011-06-25T12:10:12Z</time>
      </trkpt>
      <trkpt lat="43.307478" lon="-8.448172">
        <ele>245.0</ele>
        <time>2011-06-25T12:10:13Z</time>
      </trkpt>
      <trkpt lat="43.307480" lon="-8.448173">
        <ele>244.5</ele>
        <time>2011-06-25T12:10:14Z</time>
      </trkpt>
      <trkpt lat="43.307482" lon="-8.448175">
        <ele>244.5</ele>
        <time>2011-06-25T12:10:15Z</time>
      </trkpt>
      <trkpt lat="43.307487" lon="-8.448175">
        <ele>243.5</ele>
        <time>2011-06-25T12:10:16Z</time>
      </trkpt>
      <trkpt lat="43.307493" lon="-8.448178">
        <ele>243.0</ele>
        <time>2011-06-25T12:10:17Z</time>
      </trkpt>
      <trkpt lat="43.307500" lon="-8.448180">
        <ele>242.0</ele>
        <time>2011-06-25T12:10:18Z</time>
      </trkpt>
      <trkpt lat="43.307505" lon="-8.448180">
        <ele>241.5</ele>
        <time>2011-06-25T12:10:19Z</time>
      </trkpt>
      <trkpt lat="43.307510" lon="-8.448177">
        <ele>241.0</ele>
        <time>2011-06-25T12:10:20Z</time>
      </trkpt>
      <trkpt lat="43.307513" lon="-8.448180">
        <ele>240.5</ele>
        <time>2011-06-25T12:10:21Z</time>
      </trkpt>
      <trkpt lat="43.307513" lon="-8.448183">
        <ele>240.5</ele>
        <time>2011-06-25T12:10:22Z</time>
      </trkpt>
      <trkpt lat="43.307513" lon="-8.448185">
        <ele>240.5</ele>
        <time>2011-06-25T12:10:23Z</time>
      </trkpt>
      <trkpt lat="43.307515" lon="-8.448188">
        <ele>240.5</ele>
        <time>2011-06-25T12:10:24Z</time>
      </trkpt>
      <trkpt lat="43.307515" lon="-8.448188">
        <ele>241.0</ele>
        <time>2011-06-25T12:10:25Z</time>
      </trkpt>
      <trkpt lat="43.307517" lon="-8.448188">
        <ele>240.5</ele>
        <time>2011-06-25T12:10:26Z</time>
      </trkpt>
      <trkpt lat="43.307517" lon="-8.448190">
        <ele>241.0</ele>
        <time>2011-06-25T12:10:27Z</time>
      </trkpt>
      <trkpt lat="43.307518" lon="-8.448190">
        <ele>241.0</ele>
        <time>2011-06-25T12:10:28Z</time>
      </trkpt>
      <trkpt lat="43.307518" lon="-8.448192">
        <ele>241.0</ele>
        <time>2011-06-25T12:10:29Z</time>
      </trkpt>
      <trkpt lat="43.307520" lon="-8.448193">
        <ele>241.0</ele>
        <time>2011-06-25T12:10:30Z</time>
      </trkpt>
      <trkpt lat="43.307520" lon="-8.448193">
        <ele>241.0</ele>
        <time>2011-06-25T12:10:31Z</time>
      </trkpt>
      <trkpt lat="43.307520" lon="-8.448195">
        <ele>241.0</ele>
        <time>2011-06-25T12:10:32Z</time>
      </trkpt>
      <trkpt lat="43.307520" lon="-8.448195">
        <ele>241.0</ele>
        <time>2011-06-25T12:10:33Z</time>
      </trkpt>
      <trkpt lat="43.307520" lon="-8.448195">
        <ele>241.0</ele>
        <time>2011-06-25T12:10:34Z</time>
      </trkpt>
      <trkpt lat="43.307522" lon="-8.448195">
        <ele>241.0</ele>
        <time>2011-06-25T12:10:35Z</time>
      </trkpt>
      <trkpt lat="43.307522" lon="-8.448195">
        <ele>241.0</ele>
        <time>2011-06-25T12:10:36Z</time>
      </trkpt>
      <trkpt lat="43.307523" lon="-8.448193">
        <ele>241.5</ele>
        <time>2011-06-25T12:10:37Z</time>
      </trkpt>
      <trkpt lat="43.307530" lon="-8.448192">
        <ele>241.5</ele>
        <time>2011-06-25T12:10:38Z</time>
      </trkpt>
      <trkpt lat="43.307538" lon="-8.448190">
        <ele>241.5</ele>
        <time>2011-06-25T12:10:39Z</time>
      </trkpt>
      <trkpt lat="43.307540" lon="-8.448182">
        <ele>241.5</ele>
        <time>2011-06-25T12:10:40Z</time>
      </trkpt>
      <trkpt lat="43.307545" lon="-8.448187">
        <ele>241.5</ele>
        <time>2011-06-25T12:10:41Z</time>
      </trkpt>
      <trkpt lat="43.307547" lon="-8.448188">
        <ele>242.0</ele>
        <time>2011-06-25T12:10:42Z</time>
      </trkpt>
      <trkpt lat="43.307548" lon="-8.448190">
        <ele>242.5</ele>
        <time>2011-06-25T12:10:43Z</time>
      </trkpt>
      <trkpt lat="43.307552" lon="-8.448188">
        <ele>241.5</ele>
        <time>2011-06-25T12:10:44Z</time>
      </trkpt>
      <trkpt lat="43.307553" lon="-8.448190">
        <ele>243.0</ele>
        <time>2011-06-25T12:10:45Z</time>
      </trkpt>
      <trkpt lat="43.307553" lon="-8.448197">
        <ele>244.0</ele>
        <time>2011-06-25T12:10:46Z</time>
      </trkpt>
      <trkpt lat="43.307555" lon="-8.448203">
        <ele>244.5</ele>
        <time>2011-06-25T12:10:47Z</time>
      </trkpt>
      <trkpt lat="43.307553" lon="-8.448203">
        <ele>244.0</ele>
        <time>2011-06-25T12:10:48Z</time>
      </trkpt>
      <trkpt lat="43.307553" lon="-8.448208">
        <ele>244.0</ele>
        <time>2011-06-25T12:10:49Z</time>
      </trkpt>
      <trkpt lat="43.307555" lon="-8.448210">
        <ele>244.0</ele>
        <time>2011-06-25T12:10:50Z</time>
      </trkpt>
      <trkpt lat="43.307560" lon="-8.448213">
        <ele>244.5</ele>
        <time>2011-06-25T12:10:51Z</time>
      </trkpt>
      <trkpt lat="43.307565" lon="-8.448218">
        <ele>246.0</ele>
        <time>2011-06-25T12:10:52Z</time>
      </trkpt>
      <trkpt lat="43.307572" lon="-8.448225">
        <ele>247.0</ele>
        <time>2011-06-25T12:10:53Z</time>
      </trkpt>
      <trkpt lat="43.307573" lon="-8.448223">
        <ele>246.5</ele>
        <time>2011-06-25T12:10:54Z</time>
      </trkpt>
      <trkpt lat="43.307575" lon="-8.448223">
        <ele>246.5</ele>
        <time>2011-06-25T12:10:55Z</time>
      </trkpt>
      <trkpt lat="43.307577" lon="-8.448222">
        <ele>246.5</ele>
        <time>2011-06-25T12:10:56Z</time>
      </trkpt>
      <trkpt lat="43.307580" lon="-8.448223">
        <ele>247.0</ele>
        <time>2011-06-25T12:10:57Z</time>
      </trkpt>
      <trkpt lat="43.307582" lon="-8.448225">
        <ele>246.5</ele>
        <time>2011-06-25T12:10:58Z</time>
      </trkpt>
      <trkpt lat="43.307583" lon="-8.448225">
        <ele>246.5</ele>
        <time>2011-06-25T12:10:59Z</time>
      </trkpt>
      <trkpt lat="43.307585" lon="-8.448227">
        <ele>246.5</ele>
        <time>2011-06-25T12:11:00Z</time>
      </trkpt>
      <trkpt lat="43.307587" lon="-8.448227">
        <ele>246.5</ele>
        <time>2011-06-25T12:11:01Z</time>
      </trkpt>
      <trkpt lat="43.307587" lon="-8.448227">
        <ele>246.5</ele>
        <time>2011-06-25T12:11:02Z</time>
      </trkpt>
      <trkpt lat="43.307593" lon="-8.448223">
        <ele>247.0</ele>
        <time>2011-06-25T12:11:03Z</time>
      </trkpt>
      <trkpt lat="43.307603" lon="-8.448225">
        <ele>249.0</ele>
        <time>2011-06-25T12:11:04Z</time>
      </trkpt>
      <trkpt lat="43.307613" lon="-8.448227">
        <ele>249.5</ele>
        <time>2011-06-25T12:11:05Z</time>
      </trkpt>
      <trkpt lat="43.307620" lon="-8.448222">
        <ele>250.0</ele>
        <time>2011-06-25T12:11:06Z</time>
      </trkpt>
      <trkpt lat="43.307625" lon="-8.448218">
        <ele>249.5</ele>
        <time>2011-06-25T12:11:07Z</time>
      </trkpt>
      <trkpt lat="43.307627" lon="-8.448220">
        <ele>250.0</ele>
        <time>2011-06-25T12:11:08Z</time>
      </trkpt>
      <trkpt lat="43.307632" lon="-8.448222">
        <ele>251.0</ele>
        <time>2011-06-25T12:11:09Z</time>
      </trkpt>
      <trkpt lat="43.307637" lon="-8.448220">
        <ele>250.5</ele>
        <time>2011-06-25T12:11:10Z</time>
      </trkpt>
      <trkpt lat="43.307643" lon="-8.448217">
        <ele>250.0</ele>
        <time>2011-06-25T12:11:11Z</time>
      </trkpt>
      <trkpt lat="43.307648" lon="-8.448215">
        <ele>250.0</ele>
        <time>2011-06-25T12:11:12Z</time>
      </trkpt>
      <trkpt lat="43.307652" lon="-8.448218">
        <ele>251.0</ele>
        <time>2011-06-25T12:11:13Z</time>
      </trkpt>
      <trkpt lat="43.307657" lon="-8.448217">
        <ele>250.5</ele>
        <time>2011-06-25T12:11:14Z</time>
      </trkpt>
      <trkpt lat="43.307660" lon="-8.448213">
        <ele>250.5</ele>
        <time>2011-06-25T12:11:15Z</time>
      </trkpt>
      <trkpt lat="43.307665" lon="-8.448218">
        <ele>250.5</ele>
        <time>2011-06-25T12:11:16Z</time>
      </trkpt>
      <trkpt lat="43.307670" lon="-8.448222">
        <ele>250.5</ele>
        <time>2011-06-25T12:11:17Z</time>
      </trkpt>
      <trkpt lat="43.307672" lon="-8.448223">
        <ele>250.0</ele>
        <time>2011-06-25T12:11:18Z</time>
      </trkpt>
      <trkpt lat="43.307672" lon="-8.448225">
        <ele>250.0</ele>
        <time>2011-06-25T12:11:19Z</time>
      </trkpt>
      <trkpt lat="43.307673" lon="-8.448225">
        <ele>250.0</ele>
        <time>2011-06-25T12:11:20Z</time>
      </trkpt>
      <trkpt lat="43.307673" lon="-8.448227">
        <ele>250.5</ele>
        <time>2011-06-25T12:11:21Z</time>
      </trkpt>
      <trkpt lat="43.307673" lon="-8.448223">
        <ele>250.5</ele>
        <time>2011-06-25T12:11:22Z</time>
      </trkpt>
      <trkpt lat="43.307675" lon="-8.448225">
        <ele>250.5</ele>
        <time>2011-06-25T12:11:23Z</time>
      </trkpt>
      <trkpt lat="43.307673" lon="-8.448228">
        <ele>249.5</ele>
        <time>2011-06-25T12:11:24Z</time>
      </trkpt>
      <trkpt lat="43.307675" lon="-8.448232">
        <ele>250.0</ele>
        <time>2011-06-25T12:11:25Z</time>
      </trkpt>
      <trkpt lat="43.307675" lon="-8.448232">
        <ele>250.0</ele>
        <time>2011-06-25T12:11:26Z</time>
      </trkpt>
      <trkpt lat="43.307675" lon="-8.448233">
        <ele>250.5</ele>
        <time>2011-06-25T12:11:27Z</time>
      </trkpt>
      <trkpt lat="43.307673" lon="-8.448235">
        <ele>251.0</ele>
        <time>2011-06-25T12:11:28Z</time>
      </trkpt>
      <trkpt lat="43.307673" lon="-8.448237">
        <ele>251.0</ele>
        <time>2011-06-25T12:11:29Z</time>
      </trkpt>
      <trkpt lat="43.307673" lon="-8.448237">
        <ele>251.0</ele>
        <time>2011-06-25T12:11:30Z</time>
      </trkpt>
      <trkpt lat="43.307673" lon="-8.448238">
        <ele>251.5</ele>
        <time>2011-06-25T12:11:31Z</time>
      </trkpt>
      <trkpt lat="43.307673" lon="-8.448240">
        <ele>251.5</ele>
        <time>2011-06-25T12:11:32Z</time>
      </trkpt>
      <trkpt lat="43.307673" lon="-8.448240">
        <ele>252.0</ele>
        <time>2011-06-25T12:11:33Z</time>
      </trkpt>
      <trkpt lat="43.307673" lon="-8.448242">
        <ele>252.0</ele>
        <time>2011-06-25T12:11:34Z</time>
      </trkpt>
      <trkpt lat="43.307665" lon="-8.448243">
        <ele>252.0</ele>
        <time>2011-06-25T12:11:35Z</time>
      </trkpt>
      <trkpt lat="43.307667" lon="-8.448243">
        <ele>252.0</ele>
        <time>2011-06-25T12:11:36Z</time>
      </trkpt>
      <trkpt lat="43.307667" lon="-8.448245">
        <ele>252.0</ele>
        <time>2011-06-25T12:11:37Z</time>
      </trkpt>
      <trkpt lat="43.307668" lon="-8.448245">
        <ele>252.0</ele>
        <time>2011-06-25T12:11:38Z</time>
      </trkpt>
      <trkpt lat="43.307670" lon="-8.448248">
        <ele>251.5</ele>
        <time>2011-06-25T12:11:39Z</time>
      </trkpt>
      <trkpt lat="43.307670" lon="-8.448250">
        <ele>251.0</ele>
        <time>2011-06-25T12:11:40Z</time>
      </trkpt>
      <trkpt lat="43.307672" lon="-8.448248">
        <ele>251.0</ele>
        <time>2011-06-25T12:11:41Z</time>
      </trkpt>
      <trkpt lat="43.307672" lon="-8.448250">
        <ele>251.5</ele>
        <time>2011-06-25T12:11:42Z</time>
      </trkpt>
      <trkpt lat="43.307673" lon="-8.448248">
        <ele>251.5</ele>
        <time>2011-06-25T12:11:43Z</time>
      </trkpt>
      <trkpt lat="43.307675" lon="-8.448242">
        <ele>252.0</ele>
        <time>2011-06-25T12:11:44Z</time>
      </trkpt>
      <trkpt lat="43.307688" lon="-8.448233">
        <ele>252.5</ele>
        <time>2011-06-25T12:11:45Z</time>
      </trkpt>
      <trkpt lat="43.307690" lon="-8.448223">
        <ele>252.5</ele>
        <time>2011-06-25T12:11:46Z</time>
      </trkpt>
      <trkpt lat="43.307693" lon="-8.448212">
        <ele>252.5</ele>
        <time>2011-06-25T12:11:47Z</time>
      </trkpt>
      <trkpt lat="43.307702" lon="-8.448198">
        <ele>252.5</ele>
        <time>2011-06-25T12:11:48Z</time>
      </trkpt>
      <trkpt lat="43.307703" lon="-8.448195">
        <ele>252.5</ele>
        <time>2011-06-25T12:11:49Z</time>
      </trkpt>
      <trkpt lat="43.307705" lon="-8.448188">
        <ele>254.0</ele>
        <time>2011-06-25T12:11:50Z</time>
      </trkpt>
      <trkpt lat="43.307710" lon="-8.448178">
        <ele>255.5</ele>
        <time>2011-06-25T12:11:51Z</time>
      </trkpt>
      <trkpt lat="43.307715" lon="-8.448168">
        <ele>256.0</ele>
        <time>2011-06-25T12:11:52Z</time>
      </trkpt>
      <trkpt lat="43.307718" lon="-8.448177">
        <ele>257.0</ele>
        <time>2011-06-25T12:11:53Z</time>
      </trkpt>
      <trkpt lat="43.307727" lon="-8.448162">
        <ele>257.0</ele>
        <time>2011-06-25T12:11:54Z</time>
      </trkpt>
      <trkpt lat="43.307742" lon="-8.448155">
        <ele>257.5</ele>
        <time>2011-06-25T12:11:55Z</time>
      </trkpt>
      <trkpt lat="43.307752" lon="-8.448152">
        <ele>257.5</ele>
        <time>2011-06-25T12:11:56Z</time>
      </trkpt>
      <trkpt lat="43.307758" lon="-8.448148">
        <ele>258.0</ele>
        <time>2011-06-25T12:11:57Z</time>
      </trkpt>
      <trkpt lat="43.307763" lon="-8.448147">
        <ele>258.0</ele>
        <time>2011-06-25T12:11:58Z</time>
      </trkpt>
      <trkpt lat="43.307767" lon="-8.448152">
        <ele>257.5</ele>
        <time>2011-06-25T12:11:59Z</time>
      </trkpt>
      <trkpt lat="43.307765" lon="-8.448153">
        <ele>257.5</ele>
        <time>2011-06-25T12:12:00Z</time>
      </trkpt>
      <trkpt lat="43.307767" lon="-8.448152">
        <ele>256.5</ele>
        <time>2011-06-25T12:12:01Z</time>
      </trkpt>
      <trkpt lat="43.307772" lon="-8.448155">
        <ele>256.0</ele>
        <time>2011-06-25T12:12:02Z</time>
      </trkpt>
      <trkpt lat="43.307773" lon="-8.448157">
        <ele>255.5</ele>
        <time>2011-06-25T12:12:03Z</time>
      </trkpt>
      <trkpt lat="43.307775" lon="-8.448157">
        <ele>255.0</ele>
        <time>2011-06-25T12:12:04Z</time>
      </trkpt>
      <trkpt lat="43.307777" lon="-8.448152">
        <ele>254.0</ele>
        <time>2011-06-25T12:12:05Z</time>
      </trkpt>
      <trkpt lat="43.307780" lon="-8.448152">
        <ele>253.5</ele>
        <time>2011-06-25T12:12:06Z</time>
      </trkpt>
      <trkpt lat="43.307782" lon="-8.448155">
        <ele>252.5</ele>
        <time>2011-06-25T12:12:07Z</time>
      </trkpt>
      <trkpt lat="43.307782" lon="-8.448155">
        <ele>252.5</ele>
        <time>2011-06-25T12:12:08Z</time>
      </trkpt>
      <trkpt lat="43.307782" lon="-8.448153">
        <ele>252.0</ele>
        <time>2011-06-25T12:12:09Z</time>
      </trkpt>
      <trkpt lat="43.307783" lon="-8.448153">
        <ele>251.5</ele>
        <time>2011-06-25T12:12:10Z</time>
      </trkpt>
      <trkpt lat="43.307783" lon="-8.448153">
        <ele>251.5</ele>
        <time>2011-06-25T12:12:11Z</time>
      </trkpt>
      <trkpt lat="43.307785" lon="-8.448155">
        <ele>251.5</ele>
        <time>2011-06-25T12:12:12Z</time>
      </trkpt>
      <trkpt lat="43.307788" lon="-8.448153">
        <ele>251.0</ele>
        <time>2011-06-25T12:12:13Z</time>
      </trkpt>
      <trkpt lat="43.307793" lon="-8.448148">
        <ele>251.0</ele>
        <time>2011-06-25T12:12:14Z</time>
      </trkpt>
      <trkpt lat="43.307800" lon="-8.448137">
        <ele>251.0</ele>
        <time>2011-06-25T12:12:15Z</time>
      </trkpt>
      <trkpt lat="43.307803" lon="-8.448125">
        <ele>251.5</ele>
        <time>2011-06-25T12:12:16Z</time>
      </trkpt>
      <trkpt lat="43.307810" lon="-8.448115">
        <ele>252.0</ele>
        <time>2011-06-25T12:12:17Z</time>
      </trkpt>
      <trkpt lat="43.307823" lon="-8.448110">
        <ele>252.0</ele>
        <time>2011-06-25T12:12:18Z</time>
      </trkpt>
      <trkpt lat="43.307840" lon="-8.448103">
        <ele>253.0</ele>
        <time>2011-06-25T12:12:19Z</time>
      </trkpt>
      <trkpt lat="43.307855" lon="-8.448097">
        <ele>253.0</ele>
        <time>2011-06-25T12:12:20Z</time>
      </trkpt>
      <trkpt lat="43.307873" lon="-8.448082">
        <ele>253.0</ele>
        <time>2011-06-25T12:12:21Z</time>
      </trkpt>
      <trkpt lat="43.307888" lon="-8.448082">
        <ele>253.0</ele>
        <time>2011-06-25T12:12:22Z</time>
      </trkpt>
      <trkpt lat="43.307902" lon="-8.448073">
        <ele>253.0</ele>
        <time>2011-06-25T12:12:23Z</time>
      </trkpt>
      <trkpt lat="43.307917" lon="-8.448060">
        <ele>252.5</ele>
        <time>2011-06-25T12:12:24Z</time>
      </trkpt>
      <trkpt lat="43.307927" lon="-8.448053">
        <ele>253.5</ele>
        <time>2011-06-25T12:12:25Z</time>
      </trkpt>
      <trkpt lat="43.307938" lon="-8.448045">
        <ele>253.5</ele>
        <time>2011-06-25T12:12:26Z</time>
      </trkpt>
      <trkpt lat="43.307950" lon="-8.448037">
        <ele>253.5</ele>
        <time>2011-06-25T12:12:27Z</time>
      </trkpt>
      <trkpt lat="43.307960" lon="-8.448032">
        <ele>253.5</ele>
        <time>2011-06-25T12:12:28Z</time>
      </trkpt>
      <trkpt lat="43.307970" lon="-8.448022">
        <ele>253.5</ele>
        <time>2011-06-25T12:12:29Z</time>
      </trkpt>
      <trkpt lat="43.307982" lon="-8.448007">
        <ele>254.0</ele>
        <time>2011-06-25T12:12:30Z</time>
      </trkpt>
      <trkpt lat="43.307995" lon="-8.447992">
        <ele>254.0</ele>
        <time>2011-06-25T12:12:31Z</time>
      </trkpt>
      <trkpt lat="43.308007" lon="-8.447985">
        <ele>254.0</ele>
        <time>2011-06-25T12:12:32Z</time>
      </trkpt>
      <trkpt lat="43.308017" lon="-8.447980">
        <ele>255.0</ele>
        <time>2011-06-25T12:12:33Z</time>
      </trkpt>
      <trkpt lat="43.308028" lon="-8.447973">
        <ele>254.5</ele>
        <time>2011-06-25T12:12:34Z</time>
      </trkpt>
      <trkpt lat="43.308040" lon="-8.447967">
        <ele>254.5</ele>
        <time>2011-06-25T12:12:35Z</time>
      </trkpt>
      <trkpt lat="43.308050" lon="-8.447958">
        <ele>254.5</ele>
        <time>2011-06-25T12:12:36Z</time>
      </trkpt>
      <trkpt lat="43.308062" lon="-8.447950">
        <ele>254.0</ele>
        <time>2011-06-25T12:12:37Z</time>
      </trkpt>
      <trkpt lat="43.308073" lon="-8.447940">
        <ele>254.0</ele>
        <time>2011-06-25T12:12:38Z</time>
      </trkpt>
      <trkpt lat="43.308082" lon="-8.447930">
        <ele>253.5</ele>
        <time>2011-06-25T12:12:39Z</time>
      </trkpt>
      <trkpt lat="43.308092" lon="-8.447918">
        <ele>253.5</ele>
        <time>2011-06-25T12:12:40Z</time>
      </trkpt>
      <trkpt lat="43.308107" lon="-8.447893">
        <ele>253.0</ele>
        <time>2011-06-25T12:12:41Z</time>
      </trkpt>
      <trkpt lat="43.308108" lon="-8.447888">
        <ele>253.0</ele>
        <time>2011-06-25T12:12:42Z</time>
      </trkpt>
      <trkpt lat="43.308120" lon="-8.447877">
        <ele>253.5</ele>
        <time>2011-06-25T12:12:43Z</time>
      </trkpt>
      <trkpt lat="43.308135" lon="-8.447857">
        <ele>252.0</ele>
        <time>2011-06-25T12:12:44Z</time>
      </trkpt>
      <trkpt lat="43.308140" lon="-8.447852">
        <ele>251.5</ele>
        <time>2011-06-25T12:12:45Z</time>
      </trkpt>
      <trkpt lat="43.308150" lon="-8.447850">
        <ele>253.5</ele>
        <time>2011-06-25T12:12:46Z</time>
      </trkpt>
      <trkpt lat="43.308160" lon="-8.447843">
        <ele>253.0</ele>
        <time>2011-06-25T12:12:47Z</time>
      </trkpt>
      <trkpt lat="43.308172" lon="-8.447835">
        <ele>252.5</ele>
        <time>2011-06-25T12:12:48Z</time>
      </trkpt>
      <trkpt lat="43.308180" lon="-8.447828">
        <ele>253.0</ele>
        <time>2011-06-25T12:12:49Z</time>
      </trkpt>
      <trkpt lat="43.308187" lon="-8.447820">
        <ele>253.5</ele>
        <time>2011-06-25T12:12:50Z</time>
      </trkpt>
      <trkpt lat="43.308197" lon="-8.447813">
        <ele>253.0</ele>
        <time>2011-06-25T12:12:51Z</time>
      </trkpt>
      <trkpt lat="43.308212" lon="-8.447795">
        <ele>251.0</ele>
        <time>2011-06-25T12:12:52Z</time>
      </trkpt>
      <trkpt lat="43.308223" lon="-8.447778">
        <ele>250.0</ele>
        <time>2011-06-25T12:12:53Z</time>
      </trkpt>
      <trkpt lat="43.308232" lon="-8.447767">
        <ele>249.5</ele>
        <time>2011-06-25T12:12:54Z</time>
      </trkpt>
      <trkpt lat="43.308235" lon="-8.447757">
        <ele>250.0</ele>
        <time>2011-06-25T12:12:55Z</time>
      </trkpt>
      <trkpt lat="43.308243" lon="-8.447752">
        <ele>251.0</ele>
        <time>2011-06-25T12:12:56Z</time>
      </trkpt>
      <trkpt lat="43.308243" lon="-8.447743">
        <ele>252.0</ele>
        <time>2011-06-25T12:12:57Z</time>
      </trkpt>
      <trkpt lat="43.308252" lon="-8.447735">
        <ele>253.0</ele>
        <time>2011-06-25T12:12:58Z</time>
      </trkpt>
      <trkpt lat="43.308258" lon="-8.447723">
        <ele>253.5</ele>
        <time>2011-06-25T12:12:59Z</time>
      </trkpt>
      <trkpt lat="43.308272" lon="-8.447718">
        <ele>255.5</ele>
        <time>2011-06-25T12:13:00Z</time>
      </trkpt>
      <trkpt lat="43.308285" lon="-8.447702">
        <ele>255.5</ele>
        <time>2011-06-25T12:13:01Z</time>
      </trkpt>
      <trkpt lat="43.308297" lon="-8.447690">
        <ele>255.0</ele>
        <time>2011-06-25T12:13:02Z</time>
      </trkpt>
      <trkpt lat="43.308305" lon="-8.447675">
        <ele>254.5</ele>
        <time>2011-06-25T12:13:03Z</time>
      </trkpt>
      <trkpt lat="43.308312" lon="-8.447658">
        <ele>254.5</ele>
        <time>2011-06-25T12:13:04Z</time>
      </trkpt>
      <trkpt lat="43.308317" lon="-8.447645">
        <ele>255.0</ele>
        <time>2011-06-25T12:13:05Z</time>
      </trkpt>
      <trkpt lat="43.308327" lon="-8.447623">
        <ele>254.5</ele>
        <time>2011-06-25T12:13:06Z</time>
      </trkpt>
      <trkpt lat="43.308340" lon="-8.447605">
        <ele>256.0</ele>
        <time>2011-06-25T12:13:07Z</time>
      </trkpt>
      <trkpt lat="43.308350" lon="-8.447587">
        <ele>256.5</ele>
        <time>2011-06-25T12:13:08Z</time>
      </trkpt>
      <trkpt lat="43.308360" lon="-8.447568">
        <ele>257.5</ele>
        <time>2011-06-25T12:13:09Z</time>
      </trkpt>
      <trkpt lat="43.308370" lon="-8.447553">
        <ele>259.0</ele>
        <time>2011-06-25T12:13:10Z</time>
      </trkpt>
      <trkpt lat="43.308383" lon="-8.447535">
        <ele>259.5</ele>
        <time>2011-06-25T12:13:11Z</time>
      </trkpt>
      <trkpt lat="43.308395" lon="-8.447515">
        <ele>260.0</ele>
        <time>2011-06-25T12:13:12Z</time>
      </trkpt>
      <trkpt lat="43.308407" lon="-8.447493">
        <ele>259.5</ele>
        <time>2011-06-25T12:13:13Z</time>
      </trkpt>
      <trkpt lat="43.308420" lon="-8.447477">
        <ele>260.0</ele>
        <time>2011-06-25T12:13:14Z</time>
      </trkpt>
      <trkpt lat="43.308428" lon="-8.447460">
        <ele>261.5</ele>
        <time>2011-06-25T12:13:15Z</time>
      </trkpt>
      <trkpt lat="43.308440" lon="-8.447442">
        <ele>261.5</ele>
        <time>2011-06-25T12:13:16Z</time>
      </trkpt>
      <trkpt lat="43.308445" lon="-8.447430">
        <ele>262.0</ele>
        <time>2011-06-25T12:13:17Z</time>
      </trkpt>
      <trkpt lat="43.308450" lon="-8.447418">
        <ele>263.5</ele>
        <time>2011-06-25T12:13:18Z</time>
      </trkpt>
      <trkpt lat="43.308458" lon="-8.447402">
        <ele>263.5</ele>
        <time>2011-06-25T12:13:19Z</time>
      </trkpt>
      <trkpt lat="43.308465" lon="-8.447392">
        <ele>264.5</ele>
        <time>2011-06-25T12:13:20Z</time>
      </trkpt>
      <trkpt lat="43.308475" lon="-8.447373">
        <ele>264.0</ele>
        <time>2011-06-25T12:13:21Z</time>
      </trkpt>
      <trkpt lat="43.308487" lon="-8.447358">
        <ele>264.5</ele>
        <time>2011-06-25T12:13:22Z</time>
      </trkpt>
      <trkpt lat="43.308498" lon="-8.447345">
        <ele>266.5</ele>
        <time>2011-06-25T12:13:23Z</time>
      </trkpt>
      <trkpt lat="43.308508" lon="-8.447340">
        <ele>268.5</ele>
        <time>2011-06-25T12:13:24Z</time>
      </trkpt>
      <trkpt lat="43.308518" lon="-8.447325">
        <ele>269.0</ele>
        <time>2011-06-25T12:13:25Z</time>
      </trkpt>
      <trkpt lat="43.308527" lon="-8.447322">
        <ele>272.0</ele>
        <time>2011-06-25T12:13:26Z</time>
      </trkpt>
      <trkpt lat="43.308563" lon="-8.447277">
        <ele>274.0</ele>
        <time>2011-06-25T12:13:28Z</time>
      </trkpt>
      <trkpt lat="43.308572" lon="-8.447268">
        <ele>274.5</ele>
        <time>2011-06-25T12:13:29Z</time>
      </trkpt>
      <trkpt lat="43.308587" lon="-8.447263">
        <ele>275.5</ele>
        <time>2011-06-25T12:13:30Z</time>
      </trkpt>
      <trkpt lat="43.308597" lon="-8.447250">
        <ele>275.0</ele>
        <time>2011-06-25T12:13:31Z</time>
      </trkpt>
      <trkpt lat="43.308602" lon="-8.447242">
        <ele>276.5</ele>
        <time>2011-06-25T12:13:32Z</time>
      </trkpt>
      <trkpt lat="43.308605" lon="-8.447232">
        <ele>278.0</ele>
        <time>2011-06-25T12:13:33Z</time>
      </trkpt>
      <trkpt lat="43.308608" lon="-8.447217">
        <ele>278.0</ele>
        <time>2011-06-25T12:13:34Z</time>
      </trkpt>
      <trkpt lat="43.308615" lon="-8.447197">
        <ele>277.5</ele>
        <time>2011-06-25T12:13:35Z</time>
      </trkpt>
      <trkpt lat="43.308622" lon="-8.447180">
        <ele>277.0</ele>
        <time>2011-06-25T12:13:36Z</time>
      </trkpt>
      <trkpt lat="43.308630" lon="-8.447162">
        <ele>276.5</ele>
        <time>2011-06-25T12:13:37Z</time>
      </trkpt>
      <trkpt lat="43.308638" lon="-8.447138">
        <ele>275.5</ele>
        <time>2011-06-25T12:13:38Z</time>
      </trkpt>
      <trkpt lat="43.308638" lon="-8.447132">
        <ele>274.5</ele>
        <time>2011-06-25T12:13:39Z</time>
      </trkpt>
      <trkpt lat="43.308650" lon="-8.447073">
        <ele>276.5</ele>
        <time>2011-06-25T12:13:41Z</time>
      </trkpt>
      <trkpt lat="43.308657" lon="-8.447050">
        <ele>276.0</ele>
        <time>2011-06-25T12:13:42Z</time>
      </trkpt>
      <trkpt lat="43.308663" lon="-8.447023">
        <ele>275.0</ele>
        <time>2011-06-25T12:13:43Z</time>
      </trkpt>
      <trkpt lat="43.308672" lon="-8.446995">
        <ele>274.0</ele>
        <time>2011-06-25T12:13:44Z</time>
      </trkpt>
      <trkpt lat="43.308683" lon="-8.446968">
        <ele>273.0</ele>
        <time>2011-06-25T12:13:45Z</time>
      </trkpt>
      <trkpt lat="43.308695" lon="-8.446938">
        <ele>271.5</ele>
        <time>2011-06-25T12:13:46Z</time>
      </trkpt>
      <trkpt lat="43.308710" lon="-8.446910">
        <ele>270.0</ele>
        <time>2011-06-25T12:13:47Z</time>
      </trkpt>
      <trkpt lat="43.308725" lon="-8.446883">
        <ele>269.5</ele>
        <time>2011-06-25T12:13:48Z</time>
      </trkpt>
      <trkpt lat="43.308735" lon="-8.446862">
        <ele>269.5</ele>
        <time>2011-06-25T12:13:49Z</time>
      </trkpt>
      <trkpt lat="43.308738" lon="-8.446842">
        <ele>270.0</ele>
        <time>2011-06-25T12:13:50Z</time>
      </trkpt>
      <trkpt lat="43.308743" lon="-8.446820">
        <ele>271.5</ele>
        <time>2011-06-25T12:13:51Z</time>
      </trkpt>
      <trkpt lat="43.308747" lon="-8.446795">
        <ele>271.5</ele>
        <time>2011-06-25T12:13:52Z</time>
      </trkpt>
      <trkpt lat="43.308748" lon="-8.446778">
        <ele>272.0</ele>
        <time>2011-06-25T12:13:53Z</time>
      </trkpt>
      <trkpt lat="43.308748" lon="-8.446763">
        <ele>272.5</ele>
        <time>2011-06-25T12:13:54Z</time>
      </trkpt>
      <trkpt lat="43.308750" lon="-8.446755">
        <ele>272.5</ele>
        <time>2011-06-25T12:13:55Z</time>
      </trkpt>
      <trkpt lat="43.308750" lon="-8.446745">
        <ele>272.5</ele>
        <time>2011-06-25T12:13:56Z</time>
      </trkpt>
      <trkpt lat="43.308748" lon="-8.446720">
        <ele>272.5</ele>
        <time>2011-06-25T12:13:57Z</time>
      </trkpt>
      <trkpt lat="43.308748" lon="-8.446703">
        <ele>272.5</ele>
        <time>2011-06-25T12:13:58Z</time>
      </trkpt>
      <trkpt lat="43.308753" lon="-8.446682">
        <ele>272.5</ele>
        <time>2011-06-25T12:13:59Z</time>
      </trkpt>
      <trkpt lat="43.308767" lon="-8.446653">
        <ele>272.5</ele>
        <time>2011-06-25T12:14:00Z</time>
      </trkpt>
      <trkpt lat="43.308778" lon="-8.446627">
        <ele>271.0</ele>
        <time>2011-06-25T12:14:01Z</time>
      </trkpt>
      <trkpt lat="43.308797" lon="-8.446595">
        <ele>269.5</ele>
        <time>2011-06-25T12:14:02Z</time>
      </trkpt>
      <trkpt lat="43.308810" lon="-8.446567">
        <ele>268.0</ele>
        <time>2011-06-25T12:14:03Z</time>
      </trkpt>
      <trkpt lat="43.308822" lon="-8.446535">
        <ele>267.5</ele>
        <time>2011-06-25T12:14:04Z</time>
      </trkpt>
      <trkpt lat="43.308833" lon="-8.446505">
        <ele>268.0</ele>
        <time>2011-06-25T12:14:05Z</time>
      </trkpt>
      <trkpt lat="43.308850" lon="-8.446483">
        <ele>268.5</ele>
        <time>2011-06-25T12:14:06Z</time>
      </trkpt>
      <trkpt lat="43.308858" lon="-8.446448">
        <ele>270.0</ele>
        <time>2011-06-25T12:14:07Z</time>
      </trkpt>
      <trkpt lat="43.308868" lon="-8.446422">
        <ele>269.5</ele>
        <time>2011-06-25T12:14:08Z</time>
      </trkpt>
      <trkpt lat="43.308872" lon="-8.446400">
        <ele>270.5</ele>
        <time>2011-06-25T12:14:09Z</time>
      </trkpt>
      <trkpt lat="43.308878" lon="-8.446375">
        <ele>270.5</ele>
        <time>2011-06-25T12:14:10Z</time>
      </trkpt>
      <trkpt lat="43.308885" lon="-8.446353">
        <ele>271.0</ele>
        <time>2011-06-25T12:14:11Z</time>
      </trkpt>
      <trkpt lat="43.308893" lon="-8.446332">
        <ele>271.5</ele>
        <time>2011-06-25T12:14:12Z</time>
      </trkpt>
      <trkpt lat="43.308902" lon="-8.446310">
        <ele>271.5</ele>
        <time>2011-06-25T12:14:13Z</time>
      </trkpt>
      <trkpt lat="43.308915" lon="-8.446283">
        <ele>272.5</ele>
        <time>2011-06-25T12:14:14Z</time>
      </trkpt>
      <trkpt lat="43.308928" lon="-8.446265">
        <ele>273.0</ele>
        <time>2011-06-25T12:14:15Z</time>
      </trkpt>
      <trkpt lat="43.308940" lon="-8.446248">
        <ele>273.5</ele>
        <time>2011-06-25T12:14:16Z</time>
      </trkpt>
      <trkpt lat="43.308958" lon="-8.446223">
        <ele>273.5</ele>
        <time>2011-06-25T12:14:17Z</time>
      </trkpt>
      <trkpt lat="43.308967" lon="-8.446200">
        <ele>273.5</ele>
        <time>2011-06-25T12:14:18Z</time>
      </trkpt>
      <trkpt lat="43.308980" lon="-8.446177">
        <ele>273.5</ele>
        <time>2011-06-25T12:14:19Z</time>
      </trkpt>
      <trkpt lat="43.308988" lon="-8.446152">
        <ele>273.5</ele>
        <time>2011-06-25T12:14:20Z</time>
      </trkpt>
      <trkpt lat="43.309025" lon="-8.446090">
        <ele>273.0</ele>
        <time>2011-06-25T12:14:22Z</time>
      </trkpt>
      <trkpt lat="43.309033" lon="-8.446067">
        <ele>272.5</ele>
        <time>2011-06-25T12:14:23Z</time>
      </trkpt>
      <trkpt lat="43.309040" lon="-8.446047">
        <ele>272.5</ele>
        <time>2011-06-25T12:14:24Z</time>
      </trkpt>
      <trkpt lat="43.309053" lon="-8.446018">
        <ele>272.0</ele>
        <time>2011-06-25T12:14:25Z</time>
      </trkpt>
      <trkpt lat="43.309062" lon="-8.445998">
        <ele>271.5</ele>
        <time>2011-06-25T12:14:26Z</time>
      </trkpt>
      <trkpt lat="43.309077" lon="-8.445970">
        <ele>270.0</ele>
        <time>2011-06-25T12:14:27Z</time>
      </trkpt>
      <trkpt lat="43.309088" lon="-8.445940">
        <ele>269.5</ele>
        <time>2011-06-25T12:14:28Z</time>
      </trkpt>
      <trkpt lat="43.309097" lon="-8.445905">
        <ele>269.0</ele>
        <time>2011-06-25T12:14:29Z</time>
      </trkpt>
      <trkpt lat="43.309112" lon="-8.445858">
        <ele>266.0</ele>
        <time>2011-06-25T12:14:30Z</time>
      </trkpt>
      <trkpt lat="43.309113" lon="-8.445833">
        <ele>267.5</ele>
        <time>2011-06-25T12:14:31Z</time>
      </trkpt>
      <trkpt lat="43.309122" lon="-8.445805">
        <ele>266.5</ele>
        <time>2011-06-25T12:14:32Z</time>
      </trkpt>
      <trkpt lat="43.309128" lon="-8.445775">
        <ele>266.5</ele>
        <time>2011-06-25T12:14:33Z</time>
      </trkpt>
      <trkpt lat="43.309133" lon="-8.445745">
        <ele>267.0</ele>
        <time>2011-06-25T12:14:34Z</time>
      </trkpt>
      <trkpt lat="43.309137" lon="-8.445715">
        <ele>266.5</ele>
        <time>2011-06-25T12:14:35Z</time>
      </trkpt>
      <trkpt lat="43.309145" lon="-8.445680">
        <ele>266.0</ele>
        <time>2011-06-25T12:14:36Z</time>
      </trkpt>
      <trkpt lat="43.309152" lon="-8.445645">
        <ele>264.5</ele>
        <time>2011-06-25T12:14:37Z</time>
      </trkpt>
      <trkpt lat="43.309155" lon="-8.445620">
        <ele>265.5</ele>
        <time>2011-06-25T12:14:38Z</time>
      </trkpt>
      <trkpt lat="43.309158" lon="-8.445593">
        <ele>266.0</ele>
        <time>2011-06-25T12:14:39Z</time>
      </trkpt>
      <trkpt lat="43.309155" lon="-8.445573">
        <ele>266.0</ele>
        <time>2011-06-25T12:14:40Z</time>
      </trkpt>
      <trkpt lat="43.309175" lon="-8.445503">
        <ele>266.0</ele>
        <time>2011-06-25T12:14:42Z</time>
      </trkpt>
      <trkpt lat="43.309183" lon="-8.445472">
        <ele>265.0</ele>
        <time>2011-06-25T12:14:43Z</time>
      </trkpt>
      <trkpt lat="43.309192" lon="-8.445437">
        <ele>264.5</ele>
        <time>2011-06-25T12:14:44Z</time>
      </trkpt>
      <trkpt lat="43.309200" lon="-8.445400">
        <ele>263.5</ele>
        <time>2011-06-25T12:14:45Z</time>
      </trkpt>
      <trkpt lat="43.309207" lon="-8.445365">
        <ele>263.5</ele>
        <time>2011-06-25T12:14:46Z</time>
      </trkpt>
      <trkpt lat="43.309213" lon="-8.445332">
        <ele>264.0</ele>
        <time>2011-06-25T12:14:47Z</time>
      </trkpt>
      <trkpt lat="43.309222" lon="-8.445300">
        <ele>264.0</ele>
        <time>2011-06-25T12:14:48Z</time>
      </trkpt>
      <trkpt lat="43.309228" lon="-8.445270">
        <ele>264.5</ele>
        <time>2011-06-25T12:14:49Z</time>
      </trkpt>
      <trkpt lat="43.309230" lon="-8.445243">
        <ele>266.0</ele>
        <time>2011-06-25T12:14:50Z</time>
      </trkpt>
      <trkpt lat="43.309235" lon="-8.445212">
        <ele>266.0</ele>
        <time>2011-06-25T12:14:51Z</time>
      </trkpt>
      <trkpt lat="43.309242" lon="-8.445180">
        <ele>266.5</ele>
        <time>2011-06-25T12:14:52Z</time>
      </trkpt>
      <trkpt lat="43.309247" lon="-8.445152">
        <ele>267.0</ele>
        <time>2011-06-25T12:14:53Z</time>
      </trkpt>
      <trkpt lat="43.309252" lon="-8.445123">
        <ele>268.0</ele>
        <time>2011-06-25T12:14:54Z</time>
      </trkpt>
      <trkpt lat="43.309263" lon="-8.445088">
        <ele>266.5</ele>
        <time>2011-06-25T12:14:55Z</time>
      </trkpt>
      <trkpt lat="43.309263" lon="-8.445063">
        <ele>268.0</ele>
        <time>2011-06-25T12:14:56Z</time>
      </trkpt>
      <trkpt lat="43.309268" lon="-8.445033">
        <ele>268.0</ele>
        <time>2011-06-25T12:14:57Z</time>
      </trkpt>
      <trkpt lat="43.309277" lon="-8.445002">
        <ele>268.5</ele>
        <time>2011-06-25T12:14:58Z</time>
      </trkpt>
      <trkpt lat="43.309285" lon="-8.444968">
        <ele>268.5</ele>
        <time>2011-06-25T12:14:59Z</time>
      </trkpt>
      <trkpt lat="43.309290" lon="-8.444933">
        <ele>268.0</ele>
        <time>2011-06-25T12:15:00Z</time>
      </trkpt>
      <trkpt lat="43.309295" lon="-8.444903">
        <ele>268.5</ele>
        <time>2011-06-25T12:15:01Z</time>
      </trkpt>
      <trkpt lat="43.309300" lon="-8.444873">
        <ele>268.5</ele>
        <time>2011-06-25T12:15:02Z</time>
      </trkpt>
      <trkpt lat="43.309310" lon="-8.444835">
        <ele>268.0</ele>
        <time>2011-06-25T12:15:03Z</time>
      </trkpt>
      <trkpt lat="43.309315" lon="-8.444810">
        <ele>268.0</ele>
        <time>2011-06-25T12:15:04Z</time>
      </trkpt>
      <trkpt lat="43.309310" lon="-8.444798">
        <ele>270.5</ele>
        <time>2011-06-25T12:15:05Z</time>
      </trkpt>
      <trkpt lat="43.309317" lon="-8.444775">
        <ele>271.5</ele>
        <time>2011-06-25T12:15:06Z</time>
      </trkpt>
      <trkpt lat="43.309325" lon="-8.444745">
        <ele>271.5</ele>
        <time>2011-06-25T12:15:07Z</time>
      </trkpt>
      <trkpt lat="43.309335" lon="-8.444717">
        <ele>272.0</ele>
        <time>2011-06-25T12:15:08Z</time>
      </trkpt>
      <trkpt lat="43.309342" lon="-8.444692">
        <ele>272.5</ele>
        <time>2011-06-25T12:15:09Z</time>
      </trkpt>
      <trkpt lat="43.309350" lon="-8.444667">
        <ele>273.0</ele>
        <time>2011-06-25T12:15:10Z</time>
      </trkpt>
      <trkpt lat="43.309392" lon="-8.444557">
        <ele>268.0</ele>
        <time>2011-06-25T12:15:12Z</time>
      </trkpt>
      <trkpt lat="43.309398" lon="-8.444530">
        <ele>268.5</ele>
        <time>2011-06-25T12:15:13Z</time>
      </trkpt>
      <trkpt lat="43.309403" lon="-8.444505">
        <ele>269.0</ele>
        <time>2011-06-25T12:15:14Z</time>
      </trkpt>
      <trkpt lat="43.309448" lon="-8.444410">
        <ele>265.5</ele>
        <time>2011-06-25T12:15:16Z</time>
      </trkpt>
      <trkpt lat="43.309460" lon="-8.444383">
        <ele>266.5</ele>
        <time>2011-06-25T12:15:17Z</time>
      </trkpt>
      <trkpt lat="43.309470" lon="-8.444357">
        <ele>266.5</ele>
        <time>2011-06-25T12:15:18Z</time>
      </trkpt>
      <trkpt lat="43.309480" lon="-8.444328">
        <ele>267.0</ele>
        <time>2011-06-25T12:15:19Z</time>
      </trkpt>
      <trkpt lat="43.309490" lon="-8.444302">
        <ele>267.0</ele>
        <time>2011-06-25T12:15:20Z</time>
      </trkpt>
      <trkpt lat="43.309507" lon="-8.444270">
        <ele>266.5</ele>
        <time>2011-06-25T12:15:21Z</time>
      </trkpt>
      <trkpt lat="43.309527" lon="-8.444232">
        <ele>265.5</ele>
        <time>2011-06-25T12:15:22Z</time>
      </trkpt>
      <trkpt lat="43.309542" lon="-8.444200">
        <ele>265.0</ele>
        <time>2011-06-25T12:15:23Z</time>
      </trkpt>
      <trkpt lat="43.309553" lon="-8.444172">
        <ele>265.5</ele>
        <time>2011-06-25T12:15:24Z</time>
      </trkpt>
      <trkpt lat="43.309572" lon="-8.444138">
        <ele>266.5</ele>
        <time>2011-06-25T12:15:25Z</time>
      </trkpt>
      <trkpt lat="43.309585" lon="-8.444112">
        <ele>267.5</ele>
        <time>2011-06-25T12:15:26Z</time>
      </trkpt>
      <trkpt lat="43.309602" lon="-8.444085">
        <ele>268.0</ele>
        <time>2011-06-25T12:15:27Z</time>
      </trkpt>
      <trkpt lat="43.309618" lon="-8.444053">
        <ele>268.0</ele>
        <time>2011-06-25T12:15:28Z</time>
      </trkpt>
      <trkpt lat="43.309640" lon="-8.444018">
        <ele>268.5</ele>
        <time>2011-06-25T12:15:29Z</time>
      </trkpt>
      <trkpt lat="43.309692" lon="-8.443942">
        <ele>267.0</ele>
        <time>2011-06-25T12:15:31Z</time>
      </trkpt>
      <trkpt lat="43.309718" lon="-8.443900">
        <ele>266.0</ele>
        <time>2011-06-25T12:15:32Z</time>
      </trkpt>
      <trkpt lat="43.309752" lon="-8.443860">
        <ele>266.5</ele>
        <time>2011-06-25T12:15:33Z</time>
      </trkpt>
      <trkpt lat="43.309777" lon="-8.443827">
        <ele>267.0</ele>
        <time>2011-06-25T12:15:34Z</time>
      </trkpt>
      <trkpt lat="43.309805" lon="-8.443792">
        <ele>267.0</ele>
        <time>2011-06-25T12:15:35Z</time>
      </trkpt>
      <trkpt lat="43.309833" lon="-8.443755">
        <ele>266.0</ele>
        <time>2011-06-25T12:15:36Z</time>
      </trkpt>
      <trkpt lat="43.309857" lon="-8.443718">
        <ele>266.0</ele>
        <time>2011-06-25T12:15:37Z</time>
      </trkpt>
      <trkpt lat="43.309883" lon="-8.443678">
        <ele>265.5</ele>
        <time>2011-06-25T12:15:38Z</time>
      </trkpt>
      <trkpt lat="43.309913" lon="-8.443635">
        <ele>265.5</ele>
        <time>2011-06-25T12:15:39Z</time>
      </trkpt>
      <trkpt lat="43.309942" lon="-8.443585">
        <ele>265.0</ele>
        <time>2011-06-25T12:15:40Z</time>
      </trkpt>
      <trkpt lat="43.309977" lon="-8.443523">
        <ele>263.5</ele>
        <time>2011-06-25T12:15:41Z</time>
      </trkpt>
      <trkpt lat="43.310018" lon="-8.443460">
        <ele>262.0</ele>
        <time>2011-06-25T12:15:42Z</time>
      </trkpt>
      <trkpt lat="43.310060" lon="-8.443393">
        <ele>261.0</ele>
        <time>2011-06-25T12:15:43Z</time>
      </trkpt>
      <trkpt lat="43.310097" lon="-8.443328">
        <ele>260.0</ele>
        <time>2011-06-25T12:15:44Z</time>
      </trkpt>
      <trkpt lat="43.310140" lon="-8.443258">
        <ele>260.0</ele>
        <time>2011-06-25T12:15:45Z</time>
      </trkpt>
      <trkpt lat="43.310210" lon="-8.443195">
        <ele>258.5</ele>
        <time>2011-06-25T12:15:46Z</time>
      </trkpt>
      <trkpt lat="43.310265" lon="-8.443120">
        <ele>257.5</ele>
        <time>2011-06-25T12:15:47Z</time>
      </trkpt>
      <trkpt lat="43.310323" lon="-8.443040">
        <ele>257.0</ele>
        <time>2011-06-25T12:15:48Z</time>
      </trkpt>
      <trkpt lat="43.310383" lon="-8.442958">
        <ele>256.0</ele>
        <time>2011-06-25T12:15:49Z</time>
      </trkpt>
      <trkpt lat="43.310445" lon="-8.442870">
        <ele>255.0</ele>
        <time>2011-06-25T12:15:50Z</time>
      </trkpt>
      <trkpt lat="43.310513" lon="-8.442775">
        <ele>253.0</ele>
        <time>2011-06-25T12:15:51Z</time>
      </trkpt>
      <trkpt lat="43.310583" lon="-8.442680">
        <ele>252.0</ele>
        <time>2011-06-25T12:15:52Z</time>
      </trkpt>
      <trkpt lat="43.310658" lon="-8.442577">
        <ele>250.5</ele>
        <time>2011-06-25T12:15:53Z</time>
      </trkpt>
      <trkpt lat="43.310740" lon="-8.442472">
        <ele>249.0</ele>
        <time>2011-06-25T12:15:54Z</time>
      </trkpt>
      <trkpt lat="43.310823" lon="-8.442367">
        <ele>248.5</ele>
        <time>2011-06-25T12:15:55Z</time>
      </trkpt>
      <trkpt lat="43.310905" lon="-8.442258">
        <ele>247.5</ele>
        <time>2011-06-25T12:15:56Z</time>
      </trkpt>
      <trkpt lat="43.310985" lon="-8.442153">
        <ele>247.5</ele>
        <time>2011-06-25T12:15:57Z</time>
      </trkpt>
      <trkpt lat="43.311062" lon="-8.442052">
        <ele>247.0</ele>
        <time>2011-06-25T12:15:58Z</time>
      </trkpt>
      <trkpt lat="43.311137" lon="-8.441952">
        <ele>246.5</ele>
        <time>2011-06-25T12:15:59Z</time>
      </trkpt>
      <trkpt lat="43.311205" lon="-8.441857">
        <ele>246.0</ele>
        <time>2011-06-25T12:16:00Z</time>
      </trkpt>
      <trkpt lat="43.311278" lon="-8.441762">
        <ele>245.0</ele>
        <time>2011-06-25T12:16:01Z</time>
      </trkpt>
      <trkpt lat="43.311347" lon="-8.441680">
        <ele>245.0</ele>
        <time>2011-06-25T12:16:02Z</time>
      </trkpt>
      <trkpt lat="43.311417" lon="-8.441593">
        <ele>243.0</ele>
        <time>2011-06-25T12:16:03Z</time>
      </trkpt>
      <trkpt lat="43.311478" lon="-8.441520">
        <ele>242.0</ele>
        <time>2011-06-25T12:16:04Z</time>
      </trkpt>
      <trkpt lat="43.311540" lon="-8.441447">
        <ele>240.5</ele>
        <time>2011-06-25T12:16:05Z</time>
      </trkpt>
      <trkpt lat="43.311648" lon="-8.441422">
        <ele>238.5</ele>
        <time>2011-06-25T12:16:07Z</time>
      </trkpt>
      <trkpt lat="43.311728" lon="-8.441500">
        <ele>236.5</ele>
        <time>2011-06-25T12:16:09Z</time>
      </trkpt>
      <trkpt lat="43.311762" lon="-8.441578">
        <ele>237.5</ele>
        <time>2011-06-25T12:16:10Z</time>
      </trkpt>
      <trkpt lat="43.311768" lon="-8.441823">
        <ele>237.0</ele>
        <time>2011-06-25T12:16:12Z</time>
      </trkpt>
      <trkpt lat="43.311772" lon="-8.441958">
        <ele>236.0</ele>
        <time>2011-06-25T12:16:13Z</time>
      </trkpt>
      <trkpt lat="43.311782" lon="-8.442083">
        <ele>236.5</ele>
        <time>2011-06-25T12:16:14Z</time>
      </trkpt>
      <trkpt lat="43.311793" lon="-8.442203">
        <ele>235.5</ele>
        <time>2011-06-25T12:16:15Z</time>
      </trkpt>
      <trkpt lat="43.311815" lon="-8.442307">
        <ele>235.5</ele>
        <time>2011-06-25T12:16:16Z</time>
      </trkpt>
      <trkpt lat="43.311998" lon="-8.442685">
        <ele>232.5</ele>
        <time>2011-06-25T12:16:19Z</time>
      </trkpt>
      <trkpt lat="43.312100" lon="-8.442775">
        <ele>232.0</ele>
        <time>2011-06-25T12:16:20Z</time>
      </trkpt>
      <trkpt lat="43.312192" lon="-8.442848">
        <ele>231.0</ele>
        <time>2011-06-25T12:16:21Z</time>
      </trkpt>
      <trkpt lat="43.312293" lon="-8.442932">
        <ele>229.0</ele>
        <time>2011-06-25T12:16:22Z</time>
      </trkpt>
      <trkpt lat="43.312400" lon="-8.443017">
        <ele>227.0</ele>
        <time>2011-06-25T12:16:23Z</time>
      </trkpt>
      <trkpt lat="43.312507" lon="-8.443090">
        <ele>227.0</ele>
        <time>2011-06-25T12:16:24Z</time>
      </trkpt>
      <trkpt lat="43.312617" lon="-8.443168">
        <ele>225.0</ele>
        <time>2011-06-25T12:16:25Z</time>
      </trkpt>
      <trkpt lat="43.312730" lon="-8.443257">
        <ele>223.0</ele>
        <time>2011-06-25T12:16:26Z</time>
      </trkpt>
      <trkpt lat="43.312842" lon="-8.443335">
        <ele>222.5</ele>
        <time>2011-06-25T12:16:27Z</time>
      </trkpt>
      <trkpt lat="43.312952" lon="-8.443415">
        <ele>222.0</ele>
        <time>2011-06-25T12:16:28Z</time>
      </trkpt>
      <trkpt lat="43.313057" lon="-8.443480">
        <ele>222.5</ele>
        <time>2011-06-25T12:16:29Z</time>
      </trkpt>
      <trkpt lat="43.313162" lon="-8.443557">
        <ele>222.0</ele>
        <time>2011-06-25T12:16:30Z</time>
      </trkpt>
      <trkpt lat="43.313265" lon="-8.443630">
        <ele>221.0</ele>
        <time>2011-06-25T12:16:31Z</time>
      </trkpt>
      <trkpt lat="43.313365" lon="-8.443707">
        <ele>220.5</ele>
        <time>2011-06-25T12:16:32Z</time>
      </trkpt>
      <trkpt lat="43.313463" lon="-8.443782">
        <ele>219.5</ele>
        <time>2011-06-25T12:16:33Z</time>
      </trkpt>
      <trkpt lat="43.313558" lon="-8.443858">
        <ele>219.0</ele>
        <time>2011-06-25T12:16:34Z</time>
      </trkpt>
      <trkpt lat="43.313652" lon="-8.443937">
        <ele>218.0</ele>
        <time>2011-06-25T12:16:35Z</time>
      </trkpt>
      <trkpt lat="43.313747" lon="-8.444017">
        <ele>217.0</ele>
        <time>2011-06-25T12:16:36Z</time>
      </trkpt>
      <trkpt lat="43.313843" lon="-8.444083">
        <ele>215.5</ele>
        <time>2011-06-25T12:16:37Z</time>
      </trkpt>
      <trkpt lat="43.313952" lon="-8.444098">
        <ele>215.5</ele>
        <time>2011-06-25T12:16:38Z</time>
      </trkpt>
      <trkpt lat="43.314060" lon="-8.444107">
        <ele>214.0</ele>
        <time>2011-06-25T12:16:39Z</time>
      </trkpt>
      <trkpt lat="43.314177" lon="-8.444128">
        <ele>212.0</ele>
        <time>2011-06-25T12:16:40Z</time>
      </trkpt>
      <trkpt lat="43.314293" lon="-8.444142">
        <ele>210.5</ele>
        <time>2011-06-25T12:16:41Z</time>
      </trkpt>
      <trkpt lat="43.314413" lon="-8.444148">
        <ele>209.5</ele>
        <time>2011-06-25T12:16:42Z</time>
      </trkpt>
      <trkpt lat="43.314542" lon="-8.444180">
        <ele>209.5</ele>
        <time>2011-06-25T12:16:43Z</time>
      </trkpt>
      <trkpt lat="43.314665" lon="-8.444202">
        <ele>208.0</ele>
        <time>2011-06-25T12:16:44Z</time>
      </trkpt>
      <trkpt lat="43.314863" lon="-8.444233">
        <ele>206.0</ele>
        <time>2011-06-25T12:16:46Z</time>
      </trkpt>
      <trkpt lat="43.314950" lon="-8.444247">
        <ele>205.0</ele>
        <time>2011-06-25T12:16:47Z</time>
      </trkpt>
      <trkpt lat="43.315035" lon="-8.444260">
        <ele>204.0</ele>
        <time>2011-06-25T12:16:48Z</time>
      </trkpt>
      <trkpt lat="43.315120" lon="-8.444273">
        <ele>203.0</ele>
        <time>2011-06-25T12:16:49Z</time>
      </trkpt>
      <trkpt lat="43.315207" lon="-8.444283">
        <ele>201.5</ele>
        <time>2011-06-25T12:16:50Z</time>
      </trkpt>
      <trkpt lat="43.315292" lon="-8.444300">
        <ele>199.5</ele>
        <time>2011-06-25T12:16:51Z</time>
      </trkpt>
      <trkpt lat="43.315365" lon="-8.444297">
        <ele>199.5</ele>
        <time>2011-06-25T12:16:52Z</time>
      </trkpt>
      <trkpt lat="43.315428" lon="-8.444293">
        <ele>199.0</ele>
        <time>2011-06-25T12:16:53Z</time>
      </trkpt>
      <trkpt lat="43.315480" lon="-8.444292">
        <ele>198.5</ele>
        <time>2011-06-25T12:16:54Z</time>
      </trkpt>
      <trkpt lat="43.315522" lon="-8.444273">
        <ele>199.0</ele>
        <time>2011-06-25T12:16:55Z</time>
      </trkpt>
      <trkpt lat="43.315527" lon="-8.444237">
        <ele>200.0</ele>
        <time>2011-06-25T12:16:56Z</time>
      </trkpt>
      <trkpt lat="43.315530" lon="-8.444203">
        <ele>200.0</ele>
        <time>2011-06-25T12:16:57Z</time>
      </trkpt>
      <trkpt lat="43.315540" lon="-8.444075">
        <ele>199.5</ele>
        <time>2011-06-25T12:16:59Z</time>
      </trkpt>
      <trkpt lat="43.315547" lon="-8.444010">
        <ele>199.5</ele>
        <time>2011-06-25T12:17:00Z</time>
      </trkpt>
      <trkpt lat="43.315557" lon="-8.443947">
        <ele>199.0</ele>
        <time>2011-06-25T12:17:01Z</time>
      </trkpt>
      <trkpt lat="43.315568" lon="-8.443888">
        <ele>198.5</ele>
        <time>2011-06-25T12:17:02Z</time>
      </trkpt>
      <trkpt lat="43.315578" lon="-8.443825">
        <ele>197.5</ele>
        <time>2011-06-25T12:17:03Z</time>
      </trkpt>
      <trkpt lat="43.315587" lon="-8.443760">
        <ele>196.5</ele>
        <time>2011-06-25T12:17:04Z</time>
      </trkpt>
      <trkpt lat="43.315598" lon="-8.443693">
        <ele>196.0</ele>
        <time>2011-06-25T12:17:05Z</time>
      </trkpt>
      <trkpt lat="43.315613" lon="-8.443625">
        <ele>195.5</ele>
        <time>2011-06-25T12:17:06Z</time>
      </trkpt>
      <trkpt lat="43.315628" lon="-8.443562">
        <ele>196.0</ele>
        <time>2011-06-25T12:17:07Z</time>
      </trkpt>
      <trkpt lat="43.315648" lon="-8.443493">
        <ele>195.5</ele>
        <time>2011-06-25T12:17:08Z</time>
      </trkpt>
      <trkpt lat="43.315670" lon="-8.443425">
        <ele>195.0</ele>
        <time>2011-06-25T12:17:09Z</time>
      </trkpt>
      <trkpt lat="43.315697" lon="-8.443358">
        <ele>194.5</ele>
        <time>2011-06-25T12:17:10Z</time>
      </trkpt>
      <trkpt lat="43.315723" lon="-8.443292">
        <ele>193.5</ele>
        <time>2011-06-25T12:17:11Z</time>
      </trkpt>
      <trkpt lat="43.315753" lon="-8.443228">
        <ele>193.5</ele>
        <time>2011-06-25T12:17:12Z</time>
      </trkpt>
      <trkpt lat="43.315787" lon="-8.443167">
        <ele>193.0</ele>
        <time>2011-06-25T12:17:13Z</time>
      </trkpt>
      <trkpt lat="43.315822" lon="-8.443100">
        <ele>192.5</ele>
        <time>2011-06-25T12:17:14Z</time>
      </trkpt>
      <trkpt lat="43.315858" lon="-8.443043">
        <ele>193.0</ele>
        <time>2011-06-25T12:17:15Z</time>
      </trkpt>
      <trkpt lat="43.315897" lon="-8.442982">
        <ele>192.5</ele>
        <time>2011-06-25T12:17:16Z</time>
      </trkpt>
      <trkpt lat="43.315938" lon="-8.442915">
        <ele>192.0</ele>
        <time>2011-06-25T12:17:17Z</time>
      </trkpt>
      <trkpt lat="43.315982" lon="-8.442852">
        <ele>191.5</ele>
        <time>2011-06-25T12:17:18Z</time>
      </trkpt>
      <trkpt lat="43.316025" lon="-8.442793">
        <ele>191.0</ele>
        <time>2011-06-25T12:17:19Z</time>
      </trkpt>
      <trkpt lat="43.316072" lon="-8.442735">
        <ele>190.5</ele>
        <time>2011-06-25T12:17:20Z</time>
      </trkpt>
      <trkpt lat="43.316122" lon="-8.442680">
        <ele>190.0</ele>
        <time>2011-06-25T12:17:21Z</time>
      </trkpt>
      <trkpt lat="43.316170" lon="-8.442625">
        <ele>189.5</ele>
        <time>2011-06-25T12:17:22Z</time>
      </trkpt>
      <trkpt lat="43.316212" lon="-8.442578">
        <ele>190.0</ele>
        <time>2011-06-25T12:17:23Z</time>
      </trkpt>
      <trkpt lat="43.316248" lon="-8.442538">
        <ele>190.5</ele>
        <time>2011-06-25T12:17:24Z</time>
      </trkpt>
      <trkpt lat="43.316278" lon="-8.442487">
        <ele>190.5</ele>
        <time>2011-06-25T12:17:25Z</time>
      </trkpt>
      <trkpt lat="43.316318" lon="-8.442450">
        <ele>190.5</ele>
        <time>2011-06-25T12:17:26Z</time>
      </trkpt>
      <trkpt lat="43.316358" lon="-8.442417">
        <ele>191.5</ele>
        <time>2011-06-25T12:17:27Z</time>
      </trkpt>
      <trkpt lat="43.316405" lon="-8.442378">
        <ele>191.5</ele>
        <time>2011-06-25T12:17:28Z</time>
      </trkpt>
      <trkpt lat="43.316453" lon="-8.442333">
        <ele>191.0</ele>
        <time>2011-06-25T12:17:29Z</time>
      </trkpt>
      <trkpt lat="43.316498" lon="-8.442292">
        <ele>190.0</ele>
        <time>2011-06-25T12:17:30Z</time>
      </trkpt>
      <trkpt lat="43.316542" lon="-8.442273">
        <ele>190.5</ele>
        <time>2011-06-25T12:17:31Z</time>
      </trkpt>
      <trkpt lat="43.316627" lon="-8.442367">
        <ele>190.0</ele>
        <time>2011-06-25T12:17:33Z</time>
      </trkpt>
      <trkpt lat="43.316650" lon="-8.442410">
        <ele>189.5</ele>
        <time>2011-06-25T12:17:34Z</time>
      </trkpt>
      <trkpt lat="43.316678" lon="-8.442445">
        <ele>189.0</ele>
        <time>2011-06-25T12:17:35Z</time>
      </trkpt>
      <trkpt lat="43.316708" lon="-8.442483">
        <ele>188.5</ele>
        <time>2011-06-25T12:17:36Z</time>
      </trkpt>
      <trkpt lat="43.316743" lon="-8.442527">
        <ele>187.0</ele>
        <time>2011-06-25T12:17:37Z</time>
      </trkpt>
      <trkpt lat="43.316782" lon="-8.442578">
        <ele>186.0</ele>
        <time>2011-06-25T12:17:38Z</time>
      </trkpt>
      <trkpt lat="43.316825" lon="-8.442632">
        <ele>185.0</ele>
        <time>2011-06-25T12:17:39Z</time>
      </trkpt>
      <trkpt lat="43.316867" lon="-8.442692">
        <ele>184.0</ele>
        <time>2011-06-25T12:17:40Z</time>
      </trkpt>
      <trkpt lat="43.316908" lon="-8.442750">
        <ele>183.5</ele>
        <time>2011-06-25T12:17:41Z</time>
      </trkpt>
      <trkpt lat="43.316950" lon="-8.442810">
        <ele>183.0</ele>
        <time>2011-06-25T12:17:42Z</time>
      </trkpt>
      <trkpt lat="43.316995" lon="-8.442873">
        <ele>183.0</ele>
        <time>2011-06-25T12:17:43Z</time>
      </trkpt>
      <trkpt lat="43.317042" lon="-8.442920">
        <ele>181.5</ele>
        <time>2011-06-25T12:17:44Z</time>
      </trkpt>
      <trkpt lat="43.317077" lon="-8.442992">
        <ele>181.5</ele>
        <time>2011-06-25T12:17:45Z</time>
      </trkpt>
      <trkpt lat="43.317085" lon="-8.443065">
        <ele>181.0</ele>
        <time>2011-06-25T12:17:46Z</time>
      </trkpt>
      <trkpt lat="43.317068" lon="-8.443138">
        <ele>181.0</ele>
        <time>2011-06-25T12:17:47Z</time>
      </trkpt>
      <trkpt lat="43.317055" lon="-8.443217">
        <ele>180.5</ele>
        <time>2011-06-25T12:17:48Z</time>
      </trkpt>
      <trkpt lat="43.317047" lon="-8.443277">
        <ele>180.5</ele>
        <time>2011-06-25T12:17:49Z</time>
      </trkpt>
      <trkpt lat="43.317040" lon="-8.443332">
        <ele>181.0</ele>
        <time>2011-06-25T12:17:50Z</time>
      </trkpt>
      <trkpt lat="43.317037" lon="-8.443385">
        <ele>180.5</ele>
        <time>2011-06-25T12:17:51Z</time>
      </trkpt>
      <trkpt lat="43.317032" lon="-8.443433">
        <ele>180.5</ele>
        <time>2011-06-25T12:17:52Z</time>
      </trkpt>
      <trkpt lat="43.317033" lon="-8.443475">
        <ele>180.0</ele>
        <time>2011-06-25T12:17:53Z</time>
      </trkpt>
    </trkseg>
  </trk>
  <trk>
    <name>T2067676-22</name>
    <cmt>saida con compañeiros do C.C.Arteixo polos arredores da Coruña</cmt>
    <desc>saida con compañeiros do C.C.Arteixo polos arredores da Coruña</desc>
    <trkseg>
      <trkpt lat="43.317042" lon="-8.443513">
        <ele>180.0</ele>
        <time>2011-06-25T12:17:54Z</time>
      </trkpt>
      <trkpt lat="43.317058" lon="-8.443550">
        <ele>179.5</ele>
        <time>2011-06-25T12:17:55Z</time>
      </trkpt>
      <trkpt lat="43.317077" lon="-8.443587">
        <ele>179.0</ele>
        <time>2011-06-25T12:17:56Z</time>
      </trkpt>
      <trkpt lat="43.317095" lon="-8.443623">
        <ele>178.5</ele>
        <time>2011-06-25T12:17:57Z</time>
      </trkpt>
      <trkpt lat="43.317117" lon="-8.443658">
        <ele>178.0</ele>
        <time>2011-06-25T12:17:58Z</time>
      </trkpt>
      <trkpt lat="43.317135" lon="-8.443687">
        <ele>178.0</ele>
        <time>2011-06-25T12:17:59Z</time>
      </trkpt>
      <trkpt lat="43.317155" lon="-8.443722">
        <ele>178.0</ele>
        <time>2011-06-25T12:18:00Z</time>
      </trkpt>
      <trkpt lat="43.317173" lon="-8.443758">
        <ele>178.0</ele>
        <time>2011-06-25T12:18:01Z</time>
      </trkpt>
      <trkpt lat="43.317192" lon="-8.443793">
        <ele>177.5</ele>
        <time>2011-06-25T12:18:02Z</time>
      </trkpt>
      <trkpt lat="43.317212" lon="-8.443827">
        <ele>177.5</ele>
        <time>2011-06-25T12:18:03Z</time>
      </trkpt>
      <trkpt lat="43.317230" lon="-8.443862">
        <ele>177.5</ele>
        <time>2011-06-25T12:18:04Z</time>
      </trkpt>
      <trkpt lat="43.317250" lon="-8.443895">
        <ele>178.0</ele>
        <time>2011-06-25T12:18:05Z</time>
      </trkpt>
      <trkpt lat="43.317267" lon="-8.443927">
        <ele>178.0</ele>
        <time>2011-06-25T12:18:06Z</time>
      </trkpt>
      <trkpt lat="43.317280" lon="-8.443943">
        <ele>179.5</ele>
        <time>2011-06-25T12:18:07Z</time>
      </trkpt>
      <trkpt lat="43.317302" lon="-8.443980">
        <ele>179.5</ele>
        <time>2011-06-25T12:18:08Z</time>
      </trkpt>
      <trkpt lat="43.317320" lon="-8.444015">
        <ele>179.5</ele>
        <time>2011-06-25T12:18:09Z</time>
      </trkpt>
      <trkpt lat="43.317340" lon="-8.444043">
        <ele>180.0</ele>
        <time>2011-06-25T12:18:10Z</time>
      </trkpt>
      <trkpt lat="43.317365" lon="-8.444067">
        <ele>179.0</ele>
        <time>2011-06-25T12:18:11Z</time>
      </trkpt>
      <trkpt lat="43.317390" lon="-8.444072">
        <ele>179.0</ele>
        <time>2011-06-25T12:18:12Z</time>
      </trkpt>
      <trkpt lat="43.317415" lon="-8.444060">
        <ele>179.0</ele>
        <time>2011-06-25T12:18:13Z</time>
      </trkpt>
      <trkpt lat="43.317423" lon="-8.444025">
        <ele>179.5</ele>
        <time>2011-06-25T12:18:14Z</time>
      </trkpt>
      <trkpt lat="43.317432" lon="-8.443978">
        <ele>179.5</ele>
        <time>2011-06-25T12:18:15Z</time>
      </trkpt>
      <trkpt lat="43.317438" lon="-8.443933">
        <ele>179.5</ele>
        <time>2011-06-25T12:18:16Z</time>
      </trkpt>
      <trkpt lat="43.317443" lon="-8.443897">
        <ele>179.5</ele>
        <time>2011-06-25T12:18:17Z</time>
      </trkpt>
      <trkpt lat="43.317468" lon="-8.443768">
        <ele>179.0</ele>
        <time>2011-06-25T12:18:19Z</time>
      </trkpt>
      <trkpt lat="43.317475" lon="-8.443720">
        <ele>179.0</ele>
        <time>2011-06-25T12:18:20Z</time>
      </trkpt>
      <trkpt lat="43.317493" lon="-8.443663">
        <ele>178.0</ele>
        <time>2011-06-25T12:18:21Z</time>
      </trkpt>
      <trkpt lat="43.317515" lon="-8.443663">
        <ele>180.0</ele>
        <time>2011-06-25T12:18:23Z</time>
      </trkpt>
      <trkpt lat="43.317550" lon="-8.443650">
        <ele>181.5</ele>
        <time>2011-06-25T12:18:28Z</time>
      </trkpt>
      <trkpt lat="43.317517" lon="-8.443572">
        <ele>181.5</ele>
        <time>2011-06-25T12:18:30Z</time>
      </trkpt>
      <trkpt lat="43.317513" lon="-8.443510">
        <ele>181.5</ele>
        <time>2011-06-25T12:18:31Z</time>
      </trkpt>
      <trkpt lat="43.317485" lon="-8.443482">
        <ele>182.0</ele>
        <time>2011-06-25T12:18:33Z</time>
      </trkpt>
      <trkpt lat="43.317488" lon="-8.443463">
        <ele>182.0</ele>
        <time>2011-06-25T12:18:34Z</time>
      </trkpt>
      <trkpt lat="43.317653" lon="-8.443220">
        <ele>181.5</ele>
        <time>2011-06-25T12:18:38Z</time>
      </trkpt>
      <trkpt lat="43.317707" lon="-8.443167">
        <ele>182.0</ele>
        <time>2011-06-25T12:18:39Z</time>
      </trkpt>
      <trkpt lat="43.317778" lon="-8.443125">
        <ele>182.0</ele>
        <time>2011-06-25T12:18:41Z</time>
      </trkpt>
      <trkpt lat="43.317797" lon="-8.443100">
        <ele>182.0</ele>
        <time>2011-06-25T12:18:42Z</time>
      </trkpt>
      <trkpt lat="43.317808" lon="-8.443058">
        <ele>182.0</ele>
        <time>2011-06-25T12:18:43Z</time>
      </trkpt>
      <trkpt lat="43.317817" lon="-8.443027">
        <ele>182.0</ele>
        <time>2011-06-25T12:18:44Z</time>
      </trkpt>
      <trkpt lat="43.317902" lon="-8.443048">
        <ele>182.0</ele>
        <time>2011-06-25T12:18:46Z</time>
      </trkpt>
      <trkpt lat="43.317937" lon="-8.443037">
        <ele>181.5</ele>
        <time>2011-06-25T12:18:47Z</time>
      </trkpt>
      <trkpt lat="43.317968" lon="-8.443035">
        <ele>181.5</ele>
        <time>2011-06-25T12:18:48Z</time>
      </trkpt>
      <trkpt lat="43.317990" lon="-8.443037">
        <ele>181.5</ele>
        <time>2011-06-25T12:18:49Z</time>
      </trkpt>
      <trkpt lat="43.318012" lon="-8.443035">
        <ele>181.5</ele>
        <time>2011-06-25T12:18:50Z</time>
      </trkpt>
      <trkpt lat="43.318098" lon="-8.443047">
        <ele>180.5</ele>
        <time>2011-06-25T12:18:52Z</time>
      </trkpt>
      <trkpt lat="43.318142" lon="-8.443033">
        <ele>180.0</ele>
        <time>2011-06-25T12:18:53Z</time>
      </trkpt>
      <trkpt lat="43.318190" lon="-8.443018">
        <ele>180.0</ele>
        <time>2011-06-25T12:18:54Z</time>
      </trkpt>
      <trkpt lat="43.318242" lon="-8.443007">
        <ele>179.5</ele>
        <time>2011-06-25T12:18:55Z</time>
      </trkpt>
      <trkpt lat="43.318328" lon="-8.442767">
        <ele>180.0</ele>
        <time>2011-06-25T12:18:58Z</time>
      </trkpt>
      <trkpt lat="43.318570" lon="-8.442810">
        <ele>178.5</ele>
        <time>2011-06-25T12:19:01Z</time>
      </trkpt>
      <trkpt lat="43.318630" lon="-8.442817">
        <ele>179.0</ele>
        <time>2011-06-25T12:19:02Z</time>
      </trkpt>
      <trkpt lat="43.318690" lon="-8.442827">
        <ele>179.0</ele>
        <time>2011-06-25T12:19:03Z</time>
      </trkpt>
      <trkpt lat="43.318747" lon="-8.442838">
        <ele>179.0</ele>
        <time>2011-06-25T12:19:04Z</time>
      </trkpt>
      <trkpt lat="43.318798" lon="-8.442845">
        <ele>179.5</ele>
        <time>2011-06-25T12:19:05Z</time>
      </trkpt>
      <trkpt lat="43.318848" lon="-8.442855">
        <ele>179.5</ele>
        <time>2011-06-25T12:19:06Z</time>
      </trkpt>
      <trkpt lat="43.318892" lon="-8.442873">
        <ele>179.5</ele>
        <time>2011-06-25T12:19:07Z</time>
      </trkpt>
      <trkpt lat="43.318933" lon="-8.442880">
        <ele>179.5</ele>
        <time>2011-06-25T12:19:08Z</time>
      </trkpt>
      <trkpt lat="43.318977" lon="-8.442883">
        <ele>180.0</ele>
        <time>2011-06-25T12:19:09Z</time>
      </trkpt>
      <trkpt lat="43.319020" lon="-8.442893">
        <ele>180.0</ele>
        <time>2011-06-25T12:19:10Z</time>
      </trkpt>
      <trkpt lat="43.319062" lon="-8.442885">
        <ele>180.0</ele>
        <time>2011-06-25T12:19:11Z</time>
      </trkpt>
      <trkpt lat="43.319100" lon="-8.442872">
        <ele>180.0</ele>
        <time>2011-06-25T12:19:12Z</time>
      </trkpt>
      <trkpt lat="43.319140" lon="-8.442913">
        <ele>180.5</ele>
        <time>2011-06-25T12:19:13Z</time>
      </trkpt>
      <trkpt lat="43.319173" lon="-8.442947">
        <ele>180.5</ele>
        <time>2011-06-25T12:19:14Z</time>
      </trkpt>
      <trkpt lat="43.319218" lon="-8.442948">
        <ele>180.5</ele>
        <time>2011-06-25T12:19:15Z</time>
      </trkpt>
      <trkpt lat="43.319258" lon="-8.442943">
        <ele>180.5</ele>
        <time>2011-06-25T12:19:16Z</time>
      </trkpt>
      <trkpt lat="43.319290" lon="-8.442922">
        <ele>182.5</ele>
        <time>2011-06-25T12:19:17Z</time>
      </trkpt>
      <trkpt lat="43.319327" lon="-8.442915">
        <ele>182.5</ele>
        <time>2011-06-25T12:19:18Z</time>
      </trkpt>
      <trkpt lat="43.319363" lon="-8.442912">
        <ele>182.5</ele>
        <time>2011-06-25T12:19:19Z</time>
      </trkpt>
      <trkpt lat="43.319402" lon="-8.442908">
        <ele>182.5</ele>
        <time>2011-06-25T12:19:20Z</time>
      </trkpt>
      <trkpt lat="43.319428" lon="-8.442892">
        <ele>184.0</ele>
        <time>2011-06-25T12:19:21Z</time>
      </trkpt>
      <trkpt lat="43.319467" lon="-8.442885">
        <ele>184.0</ele>
        <time>2011-06-25T12:19:22Z</time>
      </trkpt>
      <trkpt lat="43.319518" lon="-8.442882">
        <ele>184.0</ele>
        <time>2011-06-25T12:19:24Z</time>
      </trkpt>
      <trkpt lat="43.319562" lon="-8.442862">
        <ele>184.0</ele>
        <time>2011-06-25T12:19:25Z</time>
      </trkpt>
      <trkpt lat="43.319610" lon="-8.442848">
        <ele>184.0</ele>
        <time>2011-06-25T12:19:26Z</time>
      </trkpt>
      <trkpt lat="43.319655" lon="-8.442840">
        <ele>184.0</ele>
        <time>2011-06-25T12:19:27Z</time>
      </trkpt>
      <trkpt lat="43.319703" lon="-8.442835">
        <ele>184.5</ele>
        <time>2011-06-25T12:19:28Z</time>
      </trkpt>
      <trkpt lat="43.319748" lon="-8.442825">
        <ele>184.5</ele>
        <time>2011-06-25T12:19:29Z</time>
      </trkpt>
      <trkpt lat="43.319790" lon="-8.442817">
        <ele>184.5</ele>
        <time>2011-06-25T12:19:30Z</time>
      </trkpt>
      <trkpt lat="43.319825" lon="-8.442808">
        <ele>184.5</ele>
        <time>2011-06-25T12:19:31Z</time>
      </trkpt>
      <trkpt lat="43.319860" lon="-8.442810">
        <ele>184.0</ele>
        <time>2011-06-25T12:19:32Z</time>
      </trkpt>
      <trkpt lat="43.319897" lon="-8.442798">
        <ele>183.5</ele>
        <time>2011-06-25T12:19:33Z</time>
      </trkpt>
      <trkpt lat="43.319937" lon="-8.442782">
        <ele>183.5</ele>
        <time>2011-06-25T12:19:34Z</time>
      </trkpt>
      <trkpt lat="43.319980" lon="-8.442767">
        <ele>183.5</ele>
        <time>2011-06-25T12:19:35Z</time>
      </trkpt>
      <trkpt lat="43.320025" lon="-8.442743">
        <ele>183.0</ele>
        <time>2011-06-25T12:19:36Z</time>
      </trkpt>
      <trkpt lat="43.320097" lon="-8.442725">
        <ele>183.0</ele>
        <time>2011-06-25T12:19:38Z</time>
      </trkpt>
      <trkpt lat="43.320128" lon="-8.442718">
        <ele>183.0</ele>
        <time>2011-06-25T12:19:39Z</time>
      </trkpt>
      <trkpt lat="43.320162" lon="-8.442672">
        <ele>183.0</ele>
        <time>2011-06-25T12:19:40Z</time>
      </trkpt>
      <trkpt lat="43.320178" lon="-8.442610">
        <ele>183.0</ele>
        <time>2011-06-25T12:19:41Z</time>
      </trkpt>
      <trkpt lat="43.320223" lon="-8.442552">
        <ele>183.5</ele>
        <time>2011-06-25T12:19:42Z</time>
      </trkpt>
      <trkpt lat="43.320268" lon="-8.442507">
        <ele>183.5</ele>
        <time>2011-06-25T12:19:43Z</time>
      </trkpt>
      <trkpt lat="43.320317" lon="-8.442467">
        <ele>184.0</ele>
        <time>2011-06-25T12:19:44Z</time>
      </trkpt>
      <trkpt lat="43.320355" lon="-8.442442">
        <ele>184.0</ele>
        <time>2011-06-25T12:19:45Z</time>
      </trkpt>
      <trkpt lat="43.320445" lon="-8.442368">
        <ele>184.0</ele>
        <time>2011-06-25T12:19:47Z</time>
      </trkpt>
      <trkpt lat="43.320505" lon="-8.442288">
        <ele>185.0</ele>
        <time>2011-06-25T12:19:49Z</time>
      </trkpt>
      <trkpt lat="43.320547" lon="-8.442238">
        <ele>185.5</ele>
        <time>2011-06-25T12:19:50Z</time>
      </trkpt>
      <trkpt lat="43.320567" lon="-8.442198">
        <ele>185.5</ele>
        <time>2011-06-25T12:19:51Z</time>
      </trkpt>
      <trkpt lat="43.320648" lon="-8.442067">
        <ele>186.0</ele>
        <time>2011-06-25T12:19:53Z</time>
      </trkpt>
      <trkpt lat="43.320720" lon="-8.441940">
        <ele>186.5</ele>
        <time>2011-06-25T12:19:55Z</time>
      </trkpt>
      <trkpt lat="43.320760" lon="-8.441875">
        <ele>187.0</ele>
        <time>2011-06-25T12:19:56Z</time>
      </trkpt>
      <trkpt lat="43.320788" lon="-8.441815">
        <ele>186.5</ele>
        <time>2011-06-25T12:19:57Z</time>
      </trkpt>
      <trkpt lat="43.320820" lon="-8.441757">
        <ele>186.5</ele>
        <time>2011-06-25T12:19:58Z</time>
      </trkpt>
      <trkpt lat="43.320845" lon="-8.441712">
        <ele>186.5</ele>
        <time>2011-06-25T12:19:59Z</time>
      </trkpt>
      <trkpt lat="43.320850" lon="-8.441647">
        <ele>186.5</ele>
        <time>2011-06-25T12:20:00Z</time>
      </trkpt>
      <trkpt lat="43.320862" lon="-8.441590">
        <ele>186.5</ele>
        <time>2011-06-25T12:20:01Z</time>
      </trkpt>
      <trkpt lat="43.320873" lon="-8.441543">
        <ele>186.5</ele>
        <time>2011-06-25T12:20:02Z</time>
      </trkpt>
      <trkpt lat="43.320905" lon="-8.441498">
        <ele>186.5</ele>
        <time>2011-06-25T12:20:03Z</time>
      </trkpt>
      <trkpt lat="43.320940" lon="-8.441457">
        <ele>185.5</ele>
        <time>2011-06-25T12:20:04Z</time>
      </trkpt>
      <trkpt lat="43.320972" lon="-8.441400">
        <ele>185.5</ele>
        <time>2011-06-25T12:20:05Z</time>
      </trkpt>
      <trkpt lat="43.321005" lon="-8.441343">
        <ele>185.5</ele>
        <time>2011-06-25T12:20:06Z</time>
      </trkpt>
      <trkpt lat="43.321040" lon="-8.441282">
        <ele>187.0</ele>
        <time>2011-06-25T12:20:07Z</time>
      </trkpt>
      <trkpt lat="43.321130" lon="-8.441135">
        <ele>186.5</ele>
        <time>2011-06-25T12:20:09Z</time>
      </trkpt>
      <trkpt lat="43.321173" lon="-8.441060">
        <ele>185.5</ele>
        <time>2011-06-25T12:20:10Z</time>
      </trkpt>
      <trkpt lat="43.321213" lon="-8.440987">
        <ele>184.5</ele>
        <time>2011-06-25T12:20:11Z</time>
      </trkpt>
      <trkpt lat="43.321290" lon="-8.440863">
        <ele>183.5</ele>
        <time>2011-06-25T12:20:13Z</time>
      </trkpt>
      <trkpt lat="43.321322" lon="-8.440805">
        <ele>183.0</ele>
        <time>2011-06-25T12:20:14Z</time>
      </trkpt>
      <trkpt lat="43.321355" lon="-8.440747">
        <ele>182.5</ele>
        <time>2011-06-25T12:20:15Z</time>
      </trkpt>
      <trkpt lat="43.321390" lon="-8.440692">
        <ele>180.5</ele>
        <time>2011-06-25T12:20:16Z</time>
      </trkpt>
      <trkpt lat="43.321412" lon="-8.440648">
        <ele>179.5</ele>
        <time>2011-06-25T12:20:17Z</time>
      </trkpt>
      <trkpt lat="43.321443" lon="-8.440608">
        <ele>178.5</ele>
        <time>2011-06-25T12:20:18Z</time>
      </trkpt>
      <trkpt lat="43.321473" lon="-8.440568">
        <ele>177.0</ele>
        <time>2011-06-25T12:20:19Z</time>
      </trkpt>
      <trkpt lat="43.321503" lon="-8.440538">
        <ele>175.5</ele>
        <time>2011-06-25T12:20:20Z</time>
      </trkpt>
      <trkpt lat="43.321532" lon="-8.440507">
        <ele>175.5</ele>
        <time>2011-06-25T12:20:21Z</time>
      </trkpt>
      <trkpt lat="43.321562" lon="-8.440472">
        <ele>175.5</ele>
        <time>2011-06-25T12:20:22Z</time>
      </trkpt>
      <trkpt lat="43.321592" lon="-8.440430">
        <ele>175.5</ele>
        <time>2011-06-25T12:20:23Z</time>
      </trkpt>
      <trkpt lat="43.321637" lon="-8.440390">
        <ele>175.0</ele>
        <time>2011-06-25T12:20:24Z</time>
      </trkpt>
      <trkpt lat="43.321668" lon="-8.440347">
        <ele>174.5</ele>
        <time>2011-06-25T12:20:25Z</time>
      </trkpt>
      <trkpt lat="43.321685" lon="-8.440312">
        <ele>174.0</ele>
        <time>2011-06-25T12:20:26Z</time>
      </trkpt>
      <trkpt lat="43.321712" lon="-8.440275">
        <ele>173.5</ele>
        <time>2011-06-25T12:20:27Z</time>
      </trkpt>
      <trkpt lat="43.321785" lon="-8.440163">
        <ele>171.0</ele>
        <time>2011-06-25T12:20:29Z</time>
      </trkpt>
      <trkpt lat="43.321805" lon="-8.440118">
        <ele>171.5</ele>
        <time>2011-06-25T12:20:30Z</time>
      </trkpt>
      <trkpt lat="43.321860" lon="-8.439982">
        <ele>173.0</ele>
        <time>2011-06-25T12:20:32Z</time>
      </trkpt>
      <trkpt lat="43.321890" lon="-8.439913">
        <ele>172.5</ele>
        <time>2011-06-25T12:20:33Z</time>
      </trkpt>
      <trkpt lat="43.321920" lon="-8.439837">
        <ele>172.5</ele>
        <time>2011-06-25T12:20:34Z</time>
      </trkpt>
      <trkpt lat="43.321945" lon="-8.439758">
        <ele>172.5</ele>
        <time>2011-06-25T12:20:35Z</time>
      </trkpt>
      <trkpt lat="43.321987" lon="-8.439680">
        <ele>172.0</ele>
        <time>2011-06-25T12:20:36Z</time>
      </trkpt>
      <trkpt lat="43.322022" lon="-8.439603">
        <ele>171.5</ele>
        <time>2011-06-25T12:20:37Z</time>
      </trkpt>
      <trkpt lat="43.322060" lon="-8.439525">
        <ele>171.5</ele>
        <time>2011-06-25T12:20:38Z</time>
      </trkpt>
      <trkpt lat="43.322102" lon="-8.439443">
        <ele>170.5</ele>
        <time>2011-06-25T12:20:39Z</time>
      </trkpt>
      <trkpt lat="43.322128" lon="-8.439377">
        <ele>170.0</ele>
        <time>2011-06-25T12:20:40Z</time>
      </trkpt>
      <trkpt lat="43.322167" lon="-8.439300">
        <ele>170.0</ele>
        <time>2011-06-25T12:20:41Z</time>
      </trkpt>
      <trkpt lat="43.322203" lon="-8.439212">
        <ele>169.5</ele>
        <time>2011-06-25T12:20:42Z</time>
      </trkpt>
      <trkpt lat="43.322245" lon="-8.439115">
        <ele>168.0</ele>
        <time>2011-06-25T12:20:43Z</time>
      </trkpt>
      <trkpt lat="43.322290" lon="-8.439020">
        <ele>166.5</ele>
        <time>2011-06-25T12:20:44Z</time>
      </trkpt>
      <trkpt lat="43.322342" lon="-8.438920">
        <ele>166.0</ele>
        <time>2011-06-25T12:20:45Z</time>
      </trkpt>
      <trkpt lat="43.322390" lon="-8.438830">
        <ele>165.5</ele>
        <time>2011-06-25T12:20:46Z</time>
      </trkpt>
      <trkpt lat="43.322443" lon="-8.438737">
        <ele>165.0</ele>
        <time>2011-06-25T12:20:47Z</time>
      </trkpt>
      <trkpt lat="43.322488" lon="-8.438645">
        <ele>164.5</ele>
        <time>2011-06-25T12:20:48Z</time>
      </trkpt>
      <trkpt lat="43.322535" lon="-8.438552">
        <ele>164.5</ele>
        <time>2011-06-25T12:20:49Z</time>
      </trkpt>
      <trkpt lat="43.322580" lon="-8.438470">
        <ele>164.5</ele>
        <time>2011-06-25T12:20:50Z</time>
      </trkpt>
      <trkpt lat="43.322625" lon="-8.438395">
        <ele>164.0</ele>
        <time>2011-06-25T12:20:51Z</time>
      </trkpt>
      <trkpt lat="43.322698" lon="-8.438335">
        <ele>164.0</ele>
        <time>2011-06-25T12:20:52Z</time>
      </trkpt>
      <trkpt lat="43.322767" lon="-8.438270">
        <ele>162.5</ele>
        <time>2011-06-25T12:20:53Z</time>
      </trkpt>
      <trkpt lat="43.322827" lon="-8.438200">
        <ele>162.0</ele>
        <time>2011-06-25T12:20:54Z</time>
      </trkpt>
      <trkpt lat="43.322860" lon="-8.438118">
        <ele>162.0</ele>
        <time>2011-06-25T12:20:55Z</time>
      </trkpt>
      <trkpt lat="43.322900" lon="-8.438038">
        <ele>161.5</ele>
        <time>2011-06-25T12:20:56Z</time>
      </trkpt>
      <trkpt lat="43.322935" lon="-8.437960">
        <ele>161.5</ele>
        <time>2011-06-25T12:20:57Z</time>
      </trkpt>
      <trkpt lat="43.322958" lon="-8.437890">
        <ele>161.5</ele>
        <time>2011-06-25T12:20:58Z</time>
      </trkpt>
      <trkpt lat="43.322985" lon="-8.437818">
        <ele>161.0</ele>
        <time>2011-06-25T12:20:59Z</time>
      </trkpt>
      <trkpt lat="43.323070" lon="-8.437590">
        <ele>160.5</ele>
        <time>2011-06-25T12:21:02Z</time>
      </trkpt>
      <trkpt lat="43.323090" lon="-8.437525">
        <ele>160.5</ele>
        <time>2011-06-25T12:21:03Z</time>
      </trkpt>
      <trkpt lat="43.323098" lon="-8.437473">
        <ele>161.5</ele>
        <time>2011-06-25T12:21:04Z</time>
      </trkpt>
      <trkpt lat="43.323108" lon="-8.437422">
        <ele>161.0</ele>
        <time>2011-06-25T12:21:05Z</time>
      </trkpt>
      <trkpt lat="43.323138" lon="-8.437367">
        <ele>161.0</ele>
        <time>2011-06-25T12:21:06Z</time>
      </trkpt>
      <trkpt lat="43.323165" lon="-8.437317">
        <ele>161.0</ele>
        <time>2011-06-25T12:21:07Z</time>
      </trkpt>
      <trkpt lat="43.323168" lon="-8.437280">
        <ele>160.5</ele>
        <time>2011-06-25T12:21:08Z</time>
      </trkpt>
      <trkpt lat="43.323183" lon="-8.437227">
        <ele>160.5</ele>
        <time>2011-06-25T12:21:09Z</time>
      </trkpt>
      <trkpt lat="43.323190" lon="-8.437162">
        <ele>160.5</ele>
        <time>2011-06-25T12:21:10Z</time>
      </trkpt>
      <trkpt lat="43.323202" lon="-8.437088">
        <ele>160.0</ele>
        <time>2011-06-25T12:21:11Z</time>
      </trkpt>
      <trkpt lat="43.323218" lon="-8.437013">
        <ele>160.0</ele>
        <time>2011-06-25T12:21:12Z</time>
      </trkpt>
      <trkpt lat="43.323230" lon="-8.436932">
        <ele>159.5</ele>
        <time>2011-06-25T12:21:13Z</time>
      </trkpt>
      <trkpt lat="43.323240" lon="-8.436850">
        <ele>159.0</ele>
        <time>2011-06-25T12:21:14Z</time>
      </trkpt>
      <trkpt lat="43.323255" lon="-8.436758">
        <ele>158.5</ele>
        <time>2011-06-25T12:21:15Z</time>
      </trkpt>
      <trkpt lat="43.323260" lon="-8.436667">
        <ele>157.5</ele>
        <time>2011-06-25T12:21:16Z</time>
      </trkpt>
      <trkpt lat="43.323253" lon="-8.436568">
        <ele>156.0</ele>
        <time>2011-06-25T12:21:17Z</time>
      </trkpt>
      <trkpt lat="43.323225" lon="-8.436473">
        <ele>155.5</ele>
        <time>2011-06-25T12:21:18Z</time>
      </trkpt>
      <trkpt lat="43.323198" lon="-8.436367">
        <ele>155.0</ele>
        <time>2011-06-25T12:21:19Z</time>
      </trkpt>
      <trkpt lat="43.323182" lon="-8.436242">
        <ele>153.0</ele>
        <time>2011-06-25T12:21:20Z</time>
      </trkpt>
      <trkpt lat="43.323175" lon="-8.436110">
        <ele>151.5</ele>
        <time>2011-06-25T12:21:21Z</time>
      </trkpt>
      <trkpt lat="43.323168" lon="-8.435970">
        <ele>149.0</ele>
        <time>2011-06-25T12:21:22Z</time>
      </trkpt>
      <trkpt lat="43.323157" lon="-8.435830">
        <ele>146.5</ele>
        <time>2011-06-25T12:21:23Z</time>
      </trkpt>
      <trkpt lat="43.323155" lon="-8.435683">
        <ele>144.0</ele>
        <time>2011-06-25T12:21:24Z</time>
      </trkpt>
      <trkpt lat="43.323163" lon="-8.435533">
        <ele>142.5</ele>
        <time>2011-06-25T12:21:25Z</time>
      </trkpt>
      <trkpt lat="43.323178" lon="-8.435300">
        <ele>140.5</ele>
        <time>2011-06-25T12:21:27Z</time>
      </trkpt>
      <trkpt lat="43.323120" lon="-8.435173">
        <ele>140.0</ele>
        <time>2011-06-25T12:21:29Z</time>
      </trkpt>
      <trkpt lat="43.323097" lon="-8.435070">
        <ele>137.0</ele>
        <time>2011-06-25T12:21:32Z</time>
      </trkpt>
      <trkpt lat="43.323093" lon="-8.435027">
        <ele>136.0</ele>
        <time>2011-06-25T12:21:33Z</time>
      </trkpt>
      <trkpt lat="43.323103" lon="-8.434983">
        <ele>136.0</ele>
        <time>2011-06-25T12:21:34Z</time>
      </trkpt>
      <trkpt lat="43.323120" lon="-8.434943">
        <ele>135.5</ele>
        <time>2011-06-25T12:21:35Z</time>
      </trkpt>
      <trkpt lat="43.323140" lon="-8.434900">
        <ele>135.5</ele>
        <time>2011-06-25T12:21:36Z</time>
      </trkpt>
      <trkpt lat="43.323158" lon="-8.434858">
        <ele>135.5</ele>
        <time>2011-06-25T12:21:37Z</time>
      </trkpt>
      <trkpt lat="43.323168" lon="-8.434820">
        <ele>137.0</ele>
        <time>2011-06-25T12:21:38Z</time>
      </trkpt>
      <trkpt lat="43.323182" lon="-8.434768">
        <ele>137.0</ele>
        <time>2011-06-25T12:21:39Z</time>
      </trkpt>
      <trkpt lat="43.323200" lon="-8.434715">
        <ele>136.5</ele>
        <time>2011-06-25T12:21:40Z</time>
      </trkpt>
      <trkpt lat="43.323202" lon="-8.434678">
        <ele>137.5</ele>
        <time>2011-06-25T12:21:41Z</time>
      </trkpt>
      <trkpt lat="43.323215" lon="-8.434630">
        <ele>137.0</ele>
        <time>2011-06-25T12:21:42Z</time>
      </trkpt>
      <trkpt lat="43.323238" lon="-8.434572">
        <ele>135.5</ele>
        <time>2011-06-25T12:21:43Z</time>
      </trkpt>
      <trkpt lat="43.323258" lon="-8.434517">
        <ele>135.0</ele>
        <time>2011-06-25T12:21:44Z</time>
      </trkpt>
      <trkpt lat="43.323275" lon="-8.434462">
        <ele>134.5</ele>
        <time>2011-06-25T12:21:45Z</time>
      </trkpt>
      <trkpt lat="43.323288" lon="-8.434405">
        <ele>133.5</ele>
        <time>2011-06-25T12:21:46Z</time>
      </trkpt>
      <trkpt lat="43.323300" lon="-8.434347">
        <ele>133.0</ele>
        <time>2011-06-25T12:21:47Z</time>
      </trkpt>
      <trkpt lat="43.323312" lon="-8.434283">
        <ele>132.5</ele>
        <time>2011-06-25T12:21:48Z</time>
      </trkpt>
      <trkpt lat="43.323315" lon="-8.434217">
        <ele>132.0</ele>
        <time>2011-06-25T12:21:49Z</time>
      </trkpt>
      <trkpt lat="43.323315" lon="-8.434147">
        <ele>131.5</ele>
        <time>2011-06-25T12:21:50Z</time>
      </trkpt>
      <trkpt lat="43.323308" lon="-8.434075">
        <ele>130.0</ele>
        <time>2011-06-25T12:21:51Z</time>
      </trkpt>
      <trkpt lat="43.323297" lon="-8.434007">
        <ele>129.0</ele>
        <time>2011-06-25T12:21:52Z</time>
      </trkpt>
      <trkpt lat="43.323280" lon="-8.433945">
        <ele>128.5</ele>
        <time>2011-06-25T12:21:53Z</time>
      </trkpt>
      <trkpt lat="43.323263" lon="-8.433878">
        <ele>127.5</ele>
        <time>2011-06-25T12:21:54Z</time>
      </trkpt>
      <trkpt lat="43.323248" lon="-8.433810">
        <ele>126.5</ele>
        <time>2011-06-25T12:21:55Z</time>
      </trkpt>
      <trkpt lat="43.323233" lon="-8.433742">
        <ele>126.0</ele>
        <time>2011-06-25T12:21:56Z</time>
      </trkpt>
      <trkpt lat="43.323218" lon="-8.433673">
        <ele>125.0</ele>
        <time>2011-06-25T12:21:57Z</time>
      </trkpt>
      <trkpt lat="43.323210" lon="-8.433603">
        <ele>124.5</ele>
        <time>2011-06-25T12:21:58Z</time>
      </trkpt>
      <trkpt lat="43.323207" lon="-8.433528">
        <ele>123.0</ele>
        <time>2011-06-25T12:21:59Z</time>
      </trkpt>
      <trkpt lat="43.323210" lon="-8.433453">
        <ele>122.0</ele>
        <time>2011-06-25T12:22:00Z</time>
      </trkpt>
      <trkpt lat="43.323217" lon="-8.433377">
        <ele>120.5</ele>
        <time>2011-06-25T12:22:01Z</time>
      </trkpt>
      <trkpt lat="43.323225" lon="-8.433302">
        <ele>119.5</ele>
        <time>2011-06-25T12:22:02Z</time>
      </trkpt>
      <trkpt lat="43.323237" lon="-8.433228">
        <ele>119.0</ele>
        <time>2011-06-25T12:22:03Z</time>
      </trkpt>
      <trkpt lat="43.323245" lon="-8.433162">
        <ele>118.5</ele>
        <time>2011-06-25T12:22:04Z</time>
      </trkpt>
      <trkpt lat="43.323248" lon="-8.433092">
        <ele>118.0</ele>
        <time>2011-06-25T12:22:05Z</time>
      </trkpt>
      <trkpt lat="43.323252" lon="-8.433018">
        <ele>117.0</ele>
        <time>2011-06-25T12:22:06Z</time>
      </trkpt>
      <trkpt lat="43.323243" lon="-8.432953">
        <ele>117.0</ele>
        <time>2011-06-25T12:22:07Z</time>
      </trkpt>
      <trkpt lat="43.323232" lon="-8.432890">
        <ele>117.0</ele>
        <time>2011-06-25T12:22:08Z</time>
      </trkpt>
      <trkpt lat="43.323217" lon="-8.432830">
        <ele>116.5</ele>
        <time>2011-06-25T12:22:09Z</time>
      </trkpt>
      <trkpt lat="43.323192" lon="-8.432778">
        <ele>116.0</ele>
        <time>2011-06-25T12:22:10Z</time>
      </trkpt>
      <trkpt lat="43.323158" lon="-8.432728">
        <ele>116.0</ele>
        <time>2011-06-25T12:22:11Z</time>
      </trkpt>
      <trkpt lat="43.323120" lon="-8.432682">
        <ele>115.5</ele>
        <time>2011-06-25T12:22:12Z</time>
      </trkpt>
      <trkpt lat="43.323080" lon="-8.432632">
        <ele>115.5</ele>
        <time>2011-06-25T12:22:13Z</time>
      </trkpt>
      <trkpt lat="43.323065" lon="-8.432560">
        <ele>115.5</ele>
        <time>2011-06-25T12:22:14Z</time>
      </trkpt>
      <trkpt lat="43.323067" lon="-8.432502">
        <ele>116.0</ele>
        <time>2011-06-25T12:22:15Z</time>
      </trkpt>
      <trkpt lat="43.323077" lon="-8.432435">
        <ele>115.5</ele>
        <time>2011-06-25T12:22:16Z</time>
      </trkpt>
      <trkpt lat="43.323090" lon="-8.432372">
        <ele>115.5</ele>
        <time>2011-06-25T12:22:17Z</time>
      </trkpt>
      <trkpt lat="43.323107" lon="-8.432307">
        <ele>115.5</ele>
        <time>2011-06-25T12:22:18Z</time>
      </trkpt>
      <trkpt lat="43.323125" lon="-8.432243">
        <ele>115.0</ele>
        <time>2011-06-25T12:22:19Z</time>
      </trkpt>
      <trkpt lat="43.323143" lon="-8.432180">
        <ele>115.0</ele>
        <time>2011-06-25T12:22:20Z</time>
      </trkpt>
      <trkpt lat="43.323162" lon="-8.432117">
        <ele>114.5</ele>
        <time>2011-06-25T12:22:21Z</time>
      </trkpt>
      <trkpt lat="43.323178" lon="-8.432055">
        <ele>114.5</ele>
        <time>2011-06-25T12:22:22Z</time>
      </trkpt>
      <trkpt lat="43.323195" lon="-8.431993">
        <ele>114.5</ele>
        <time>2011-06-25T12:22:23Z</time>
      </trkpt>
      <trkpt lat="43.323213" lon="-8.431933">
        <ele>114.5</ele>
        <time>2011-06-25T12:22:24Z</time>
      </trkpt>
      <trkpt lat="43.323233" lon="-8.431873">
        <ele>115.0</ele>
        <time>2011-06-25T12:22:25Z</time>
      </trkpt>
      <trkpt lat="43.323252" lon="-8.431815">
        <ele>114.5</ele>
        <time>2011-06-25T12:22:26Z</time>
      </trkpt>
      <trkpt lat="43.323270" lon="-8.431757">
        <ele>114.5</ele>
        <time>2011-06-25T12:22:27Z</time>
      </trkpt>
      <trkpt lat="43.323285" lon="-8.431700">
        <ele>114.5</ele>
        <time>2011-06-25T12:22:28Z</time>
      </trkpt>
      <trkpt lat="43.323290" lon="-8.431640">
        <ele>114.0</ele>
        <time>2011-06-25T12:22:29Z</time>
      </trkpt>
      <trkpt lat="43.323270" lon="-8.431577">
        <ele>113.0</ele>
        <time>2011-06-25T12:22:30Z</time>
      </trkpt>
      <trkpt lat="43.323230" lon="-8.431552">
        <ele>114.0</ele>
        <time>2011-06-25T12:22:31Z</time>
      </trkpt>
      <trkpt lat="43.323193" lon="-8.431523">
        <ele>113.5</ele>
        <time>2011-06-25T12:22:32Z</time>
      </trkpt>
      <trkpt lat="43.323153" lon="-8.431503">
        <ele>113.0</ele>
        <time>2011-06-25T12:22:33Z</time>
      </trkpt>
      <trkpt lat="43.323113" lon="-8.431490">
        <ele>113.0</ele>
        <time>2011-06-25T12:22:34Z</time>
      </trkpt>
      <trkpt lat="43.323072" lon="-8.431473">
        <ele>112.5</ele>
        <time>2011-06-25T12:22:35Z</time>
      </trkpt>
      <trkpt lat="43.323033" lon="-8.431458">
        <ele>112.5</ele>
        <time>2011-06-25T12:22:36Z</time>
      </trkpt>
      <trkpt lat="43.322992" lon="-8.431452">
        <ele>112.5</ele>
        <time>2011-06-25T12:22:37Z</time>
      </trkpt>
      <trkpt lat="43.322948" lon="-8.431455">
        <ele>112.5</ele>
        <time>2011-06-25T12:22:38Z</time>
      </trkpt>
      <trkpt lat="43.322912" lon="-8.431440">
        <ele>113.0</ele>
        <time>2011-06-25T12:22:39Z</time>
      </trkpt>
      <trkpt lat="43.322898" lon="-8.431413">
        <ele>113.0</ele>
        <time>2011-06-25T12:22:40Z</time>
      </trkpt>
      <trkpt lat="43.322883" lon="-8.431407">
        <ele>113.0</ele>
        <time>2011-06-25T12:22:41Z</time>
      </trkpt>
      <trkpt lat="43.322875" lon="-8.431398">
        <ele>113.0</ele>
        <time>2011-06-25T12:22:42Z</time>
      </trkpt>
      <trkpt lat="43.322870" lon="-8.431383">
        <ele>113.0</ele>
        <time>2011-06-25T12:22:43Z</time>
      </trkpt>
      <trkpt lat="43.322863" lon="-8.431365">
        <ele>113.0</ele>
        <time>2011-06-25T12:22:44Z</time>
      </trkpt>
      <trkpt lat="43.322860" lon="-8.431338">
        <ele>113.5</ele>
        <time>2011-06-25T12:22:45Z</time>
      </trkpt>
      <trkpt lat="43.322872" lon="-8.431302">
        <ele>112.0</ele>
        <time>2011-06-25T12:22:46Z</time>
      </trkpt>
      <trkpt lat="43.322875" lon="-8.431260">
        <ele>113.5</ele>
        <time>2011-06-25T12:22:47Z</time>
      </trkpt>
      <trkpt lat="43.322893" lon="-8.431213">
        <ele>114.0</ele>
        <time>2011-06-25T12:22:48Z</time>
      </trkpt>
      <trkpt lat="43.322912" lon="-8.431163">
        <ele>115.0</ele>
        <time>2011-06-25T12:22:49Z</time>
      </trkpt>
      <trkpt lat="43.322937" lon="-8.431108">
        <ele>116.0</ele>
        <time>2011-06-25T12:22:50Z</time>
      </trkpt>
      <trkpt lat="43.322957" lon="-8.431050">
        <ele>115.0</ele>
        <time>2011-06-25T12:22:51Z</time>
      </trkpt>
      <trkpt lat="43.322968" lon="-8.430988">
        <ele>116.5</ele>
        <time>2011-06-25T12:22:52Z</time>
      </trkpt>
      <trkpt lat="43.322988" lon="-8.430932">
        <ele>116.5</ele>
        <time>2011-06-25T12:22:53Z</time>
      </trkpt>
      <trkpt lat="43.323025" lon="-8.430883">
        <ele>117.0</ele>
        <time>2011-06-25T12:22:54Z</time>
      </trkpt>
      <trkpt lat="43.323047" lon="-8.430832">
        <ele>116.5</ele>
        <time>2011-06-25T12:22:55Z</time>
      </trkpt>
      <trkpt lat="43.323060" lon="-8.430768">
        <ele>115.5</ele>
        <time>2011-06-25T12:22:56Z</time>
      </trkpt>
      <trkpt lat="43.323055" lon="-8.430732">
        <ele>117.5</ele>
        <time>2011-06-25T12:22:57Z</time>
      </trkpt>
      <trkpt lat="43.323045" lon="-8.430680">
        <ele>117.5</ele>
        <time>2011-06-25T12:22:58Z</time>
      </trkpt>
      <trkpt lat="43.323018" lon="-8.430640">
        <ele>117.5</ele>
        <time>2011-06-25T12:22:59Z</time>
      </trkpt>
      <trkpt lat="43.322997" lon="-8.430600">
        <ele>117.5</ele>
        <time>2011-06-25T12:23:00Z</time>
      </trkpt>
      <trkpt lat="43.322977" lon="-8.430555">
        <ele>117.5</ele>
        <time>2011-06-25T12:23:01Z</time>
      </trkpt>
      <trkpt lat="43.322957" lon="-8.430513">
        <ele>117.5</ele>
        <time>2011-06-25T12:23:02Z</time>
      </trkpt>
      <trkpt lat="43.322937" lon="-8.430468">
        <ele>117.5</ele>
        <time>2011-06-25T12:23:03Z</time>
      </trkpt>
      <trkpt lat="43.322922" lon="-8.430425">
        <ele>118.0</ele>
        <time>2011-06-25T12:23:04Z</time>
      </trkpt>
      <trkpt lat="43.322908" lon="-8.430380">
        <ele>118.0</ele>
        <time>2011-06-25T12:23:05Z</time>
      </trkpt>
      <trkpt lat="43.322897" lon="-8.430335">
        <ele>118.0</ele>
        <time>2011-06-25T12:23:06Z</time>
      </trkpt>
      <trkpt lat="43.322883" lon="-8.430292">
        <ele>118.0</ele>
        <time>2011-06-25T12:23:07Z</time>
      </trkpt>
      <trkpt lat="43.322872" lon="-8.430247">
        <ele>118.0</ele>
        <time>2011-06-25T12:23:08Z</time>
      </trkpt>
      <trkpt lat="43.322862" lon="-8.430197">
        <ele>117.5</ele>
        <time>2011-06-25T12:23:09Z</time>
      </trkpt>
      <trkpt lat="43.322852" lon="-8.430143">
        <ele>117.5</ele>
        <time>2011-06-25T12:23:10Z</time>
      </trkpt>
      <trkpt lat="43.322838" lon="-8.430092">
        <ele>117.0</ele>
        <time>2011-06-25T12:23:11Z</time>
      </trkpt>
      <trkpt lat="43.322823" lon="-8.430038">
        <ele>117.0</ele>
        <time>2011-06-25T12:23:12Z</time>
      </trkpt>
      <trkpt lat="43.322810" lon="-8.429985">
        <ele>117.0</ele>
        <time>2011-06-25T12:23:13Z</time>
      </trkpt>
      <trkpt lat="43.322798" lon="-8.429928">
        <ele>116.5</ele>
        <time>2011-06-25T12:23:14Z</time>
      </trkpt>
      <trkpt lat="43.322790" lon="-8.429868">
        <ele>116.0</ele>
        <time>2011-06-25T12:23:15Z</time>
      </trkpt>
      <trkpt lat="43.322783" lon="-8.429805">
        <ele>115.5</ele>
        <time>2011-06-25T12:23:16Z</time>
      </trkpt>
      <trkpt lat="43.322780" lon="-8.429738">
        <ele>115.0</ele>
        <time>2011-06-25T12:23:17Z</time>
      </trkpt>
      <trkpt lat="43.322778" lon="-8.429672">
        <ele>114.5</ele>
        <time>2011-06-25T12:23:18Z</time>
      </trkpt>
      <trkpt lat="43.322780" lon="-8.429605">
        <ele>114.0</ele>
        <time>2011-06-25T12:23:19Z</time>
      </trkpt>
      <trkpt lat="43.322783" lon="-8.429537">
        <ele>113.5</ele>
        <time>2011-06-25T12:23:20Z</time>
      </trkpt>
      <trkpt lat="43.322785" lon="-8.429468">
        <ele>113.5</ele>
        <time>2011-06-25T12:23:21Z</time>
      </trkpt>
      <trkpt lat="43.322780" lon="-8.429402">
        <ele>113.0</ele>
        <time>2011-06-25T12:23:22Z</time>
      </trkpt>
      <trkpt lat="43.322770" lon="-8.429335">
        <ele>112.0</ele>
        <time>2011-06-25T12:23:23Z</time>
      </trkpt>
      <trkpt lat="43.322758" lon="-8.429270">
        <ele>111.5</ele>
        <time>2011-06-25T12:23:24Z</time>
      </trkpt>
      <trkpt lat="43.322745" lon="-8.429207">
        <ele>111.0</ele>
        <time>2011-06-25T12:23:25Z</time>
      </trkpt>
      <trkpt lat="43.322742" lon="-8.429138">
        <ele>110.0</ele>
        <time>2011-06-25T12:23:26Z</time>
      </trkpt>
      <trkpt lat="43.322740" lon="-8.429072">
        <ele>110.0</ele>
        <time>2011-06-25T12:23:27Z</time>
      </trkpt>
      <trkpt lat="43.322740" lon="-8.429005">
        <ele>109.5</ele>
        <time>2011-06-25T12:23:28Z</time>
      </trkpt>
      <trkpt lat="43.322742" lon="-8.428942">
        <ele>109.0</ele>
        <time>2011-06-25T12:23:29Z</time>
      </trkpt>
      <trkpt lat="43.322743" lon="-8.428880">
        <ele>109.0</ele>
        <time>2011-06-25T12:23:30Z</time>
      </trkpt>
      <trkpt lat="43.322748" lon="-8.428822">
        <ele>108.5</ele>
        <time>2011-06-25T12:23:31Z</time>
      </trkpt>
      <trkpt lat="43.322750" lon="-8.428762">
        <ele>108.5</ele>
        <time>2011-06-25T12:23:32Z</time>
      </trkpt>
      <trkpt lat="43.322753" lon="-8.428702">
        <ele>108.5</ele>
        <time>2011-06-25T12:23:33Z</time>
      </trkpt>
      <trkpt lat="43.322755" lon="-8.428643">
        <ele>108.0</ele>
        <time>2011-06-25T12:23:34Z</time>
      </trkpt>
      <trkpt lat="43.322752" lon="-8.428583">
        <ele>108.0</ele>
        <time>2011-06-25T12:23:35Z</time>
      </trkpt>
      <trkpt lat="43.322742" lon="-8.428527">
        <ele>108.5</ele>
        <time>2011-06-25T12:23:36Z</time>
      </trkpt>
      <trkpt lat="43.322720" lon="-8.428475">
        <ele>108.5</ele>
        <time>2011-06-25T12:23:37Z</time>
      </trkpt>
      <trkpt lat="43.322700" lon="-8.428425">
        <ele>109.0</ele>
        <time>2011-06-25T12:23:38Z</time>
      </trkpt>
      <trkpt lat="43.322680" lon="-8.428372">
        <ele>109.0</ele>
        <time>2011-06-25T12:23:39Z</time>
      </trkpt>
      <trkpt lat="43.322665" lon="-8.428315">
        <ele>109.0</ele>
        <time>2011-06-25T12:23:40Z</time>
      </trkpt>
      <trkpt lat="43.322655" lon="-8.428260">
        <ele>109.0</ele>
        <time>2011-06-25T12:23:41Z</time>
      </trkpt>
      <trkpt lat="43.322652" lon="-8.428205">
        <ele>109.5</ele>
        <time>2011-06-25T12:23:42Z</time>
      </trkpt>
      <trkpt lat="43.322648" lon="-8.428150">
        <ele>109.5</ele>
        <time>2011-06-25T12:23:43Z</time>
      </trkpt>
      <trkpt lat="43.322638" lon="-8.428093">
        <ele>109.0</ele>
        <time>2011-06-25T12:23:44Z</time>
      </trkpt>
      <trkpt lat="43.322630" lon="-8.428035">
        <ele>109.0</ele>
        <time>2011-06-25T12:23:45Z</time>
      </trkpt>
      <trkpt lat="43.322620" lon="-8.427980">
        <ele>109.5</ele>
        <time>2011-06-25T12:23:46Z</time>
      </trkpt>
      <trkpt lat="43.322617" lon="-8.427938">
        <ele>110.5</ele>
        <time>2011-06-25T12:23:47Z</time>
      </trkpt>
      <trkpt lat="43.322608" lon="-8.427883">
        <ele>110.5</ele>
        <time>2011-06-25T12:23:48Z</time>
      </trkpt>
      <trkpt lat="43.322605" lon="-8.427832">
        <ele>110.5</ele>
        <time>2011-06-25T12:23:49Z</time>
      </trkpt>
      <trkpt lat="43.322602" lon="-8.427780">
        <ele>111.0</ele>
        <time>2011-06-25T12:23:50Z</time>
      </trkpt>
      <trkpt lat="43.322600" lon="-8.427725">
        <ele>110.5</ele>
        <time>2011-06-25T12:23:51Z</time>
      </trkpt>
      <trkpt lat="43.322605" lon="-8.427670">
        <ele>110.5</ele>
        <time>2011-06-25T12:23:52Z</time>
      </trkpt>
      <trkpt lat="43.322603" lon="-8.427603">
        <ele>109.5</ele>
        <time>2011-06-25T12:23:53Z</time>
      </trkpt>
      <trkpt lat="43.322603" lon="-8.427545">
        <ele>109.0</ele>
        <time>2011-06-25T12:23:54Z</time>
      </trkpt>
      <trkpt lat="43.322610" lon="-8.427492">
        <ele>109.0</ele>
        <time>2011-06-25T12:23:55Z</time>
      </trkpt>
      <trkpt lat="43.322622" lon="-8.427440">
        <ele>109.0</ele>
        <time>2011-06-25T12:23:56Z</time>
      </trkpt>
      <trkpt lat="43.322637" lon="-8.427390">
        <ele>109.0</ele>
        <time>2011-06-25T12:23:57Z</time>
      </trkpt>
      <trkpt lat="43.322653" lon="-8.427342">
        <ele>109.5</ele>
        <time>2011-06-25T12:23:58Z</time>
      </trkpt>
      <trkpt lat="43.322670" lon="-8.427297">
        <ele>109.5</ele>
        <time>2011-06-25T12:23:59Z</time>
      </trkpt>
      <trkpt lat="43.322687" lon="-8.427253">
        <ele>109.5</ele>
        <time>2011-06-25T12:24:00Z</time>
      </trkpt>
      <trkpt lat="43.322702" lon="-8.427210">
        <ele>109.0</ele>
        <time>2011-06-25T12:24:01Z</time>
      </trkpt>
      <trkpt lat="43.322715" lon="-8.427170">
        <ele>109.5</ele>
        <time>2011-06-25T12:24:02Z</time>
      </trkpt>
      <trkpt lat="43.322733" lon="-8.427127">
        <ele>110.0</ele>
        <time>2011-06-25T12:24:03Z</time>
      </trkpt>
      <trkpt lat="43.322753" lon="-8.427087">
        <ele>110.5</ele>
        <time>2011-06-25T12:24:04Z</time>
      </trkpt>
      <trkpt lat="43.322775" lon="-8.427048">
        <ele>111.0</ele>
        <time>2011-06-25T12:24:05Z</time>
      </trkpt>
      <trkpt lat="43.322800" lon="-8.427007">
        <ele>110.5</ele>
        <time>2011-06-25T12:24:06Z</time>
      </trkpt>
      <trkpt lat="43.322822" lon="-8.426968">
        <ele>111.0</ele>
        <time>2011-06-25T12:24:07Z</time>
      </trkpt>
      <trkpt lat="43.322828" lon="-8.426935">
        <ele>111.0</ele>
        <time>2011-06-25T12:24:08Z</time>
      </trkpt>
      <trkpt lat="43.322833" lon="-8.426893">
        <ele>111.0</ele>
        <time>2011-06-25T12:24:09Z</time>
      </trkpt>
      <trkpt lat="43.322830" lon="-8.426863">
        <ele>111.0</ele>
        <time>2011-06-25T12:24:10Z</time>
      </trkpt>
      <trkpt lat="43.322842" lon="-8.426828">
        <ele>112.0</ele>
        <time>2011-06-25T12:24:11Z</time>
      </trkpt>
      <trkpt lat="43.322850" lon="-8.426798">
        <ele>112.0</ele>
        <time>2011-06-25T12:24:12Z</time>
      </trkpt>
      <trkpt lat="43.322867" lon="-8.426810">
        <ele>112.0</ele>
        <time>2011-06-25T12:24:13Z</time>
      </trkpt>
      <trkpt lat="43.322885" lon="-8.426797">
        <ele>111.5</ele>
        <time>2011-06-25T12:24:14Z</time>
      </trkpt>
      <trkpt lat="43.322905" lon="-8.426795">
        <ele>111.5</ele>
        <time>2011-06-25T12:24:15Z</time>
      </trkpt>
      <trkpt lat="43.322925" lon="-8.426802">
        <ele>112.0</ele>
        <time>2011-06-25T12:24:16Z</time>
      </trkpt>
      <trkpt lat="43.322942" lon="-8.426813">
        <ele>112.0</ele>
        <time>2011-06-25T12:24:17Z</time>
      </trkpt>
      <trkpt lat="43.322955" lon="-8.426820">
        <ele>111.5</ele>
        <time>2011-06-25T12:24:18Z</time>
      </trkpt>
      <trkpt lat="43.322968" lon="-8.426830">
        <ele>111.5</ele>
        <time>2011-06-25T12:24:19Z</time>
      </trkpt>
      <trkpt lat="43.322982" lon="-8.426845">
        <ele>111.5</ele>
        <time>2011-06-25T12:24:20Z</time>
      </trkpt>
      <trkpt lat="43.322995" lon="-8.426857">
        <ele>111.5</ele>
        <time>2011-06-25T12:24:21Z</time>
      </trkpt>
      <trkpt lat="43.323008" lon="-8.426865">
        <ele>111.5</ele>
        <time>2011-06-25T12:24:22Z</time>
      </trkpt>
      <trkpt lat="43.323030" lon="-8.426873">
        <ele>112.0</ele>
        <time>2011-06-25T12:24:23Z</time>
      </trkpt>
      <trkpt lat="43.323048" lon="-8.426877">
        <ele>113.0</ele>
        <time>2011-06-25T12:24:24Z</time>
      </trkpt>
      <trkpt lat="43.323067" lon="-8.426848">
        <ele>113.0</ele>
        <time>2011-06-25T12:24:25Z</time>
      </trkpt>
      <trkpt lat="43.323080" lon="-8.426835">
        <ele>114.0</ele>
        <time>2011-06-25T12:24:26Z</time>
      </trkpt>
      <trkpt lat="43.323092" lon="-8.426818">
        <ele>115.5</ele>
        <time>2011-06-25T12:24:27Z</time>
      </trkpt>
      <trkpt lat="43.323103" lon="-8.426793">
        <ele>117.0</ele>
        <time>2011-06-25T12:24:28Z</time>
      </trkpt>
      <trkpt lat="43.323113" lon="-8.426770">
        <ele>118.5</ele>
        <time>2011-06-25T12:24:29Z</time>
      </trkpt>
      <trkpt lat="43.323128" lon="-8.426757">
        <ele>119.5</ele>
        <time>2011-06-25T12:24:30Z</time>
      </trkpt>
      <trkpt lat="43.323142" lon="-8.426747">
        <ele>120.5</ele>
        <time>2011-06-25T12:24:31Z</time>
      </trkpt>
      <trkpt lat="43.323160" lon="-8.426738">
        <ele>120.5</ele>
        <time>2011-06-25T12:24:32Z</time>
      </trkpt>
      <trkpt lat="43.323165" lon="-8.426730">
        <ele>120.5</ele>
        <time>2011-06-25T12:24:33Z</time>
      </trkpt>
      <trkpt lat="43.323168" lon="-8.426718">
        <ele>121.5</ele>
        <time>2011-06-25T12:24:34Z</time>
      </trkpt>
      <trkpt lat="43.323180" lon="-8.426697">
        <ele>119.5</ele>
        <time>2011-06-25T12:24:35Z</time>
      </trkpt>
      <trkpt lat="43.323188" lon="-8.426682">
        <ele>119.5</ele>
        <time>2011-06-25T12:24:36Z</time>
      </trkpt>
      <trkpt lat="43.323198" lon="-8.426663">
        <ele>120.0</ele>
        <time>2011-06-25T12:24:37Z</time>
      </trkpt>
      <trkpt lat="43.323207" lon="-8.426647">
        <ele>121.0</ele>
        <time>2011-06-25T12:24:38Z</time>
      </trkpt>
      <trkpt lat="43.323210" lon="-8.426628">
        <ele>121.5</ele>
        <time>2011-06-25T12:24:39Z</time>
      </trkpt>
      <trkpt lat="43.323208" lon="-8.426615">
        <ele>122.0</ele>
        <time>2011-06-25T12:24:40Z</time>
      </trkpt>
      <trkpt lat="43.323195" lon="-8.426607">
        <ele>122.0</ele>
        <time>2011-06-25T12:24:41Z</time>
      </trkpt>
      <trkpt lat="43.323185" lon="-8.426597">
        <ele>123.0</ele>
        <time>2011-06-25T12:24:42Z</time>
      </trkpt>
      <trkpt lat="43.323175" lon="-8.426587">
        <ele>123.0</ele>
        <time>2011-06-25T12:24:43Z</time>
      </trkpt>
      <trkpt lat="43.323163" lon="-8.426585">
        <ele>125.0</ele>
        <time>2011-06-25T12:24:44Z</time>
      </trkpt>
      <trkpt lat="43.323153" lon="-8.426575">
        <ele>124.5</ele>
        <time>2011-06-25T12:24:45Z</time>
      </trkpt>
      <trkpt lat="43.323143" lon="-8.426563">
        <ele>125.0</ele>
        <time>2011-06-25T12:24:46Z</time>
      </trkpt>
      <trkpt lat="43.323140" lon="-8.426545">
        <ele>125.0</ele>
        <time>2011-06-25T12:24:47Z</time>
      </trkpt>
      <trkpt lat="43.323137" lon="-8.426525">
        <ele>125.5</ele>
        <time>2011-06-25T12:24:48Z</time>
      </trkpt>
      <trkpt lat="43.323132" lon="-8.426507">
        <ele>125.5</ele>
        <time>2011-06-25T12:24:49Z</time>
      </trkpt>
      <trkpt lat="43.323122" lon="-8.426485">
        <ele>125.5</ele>
        <time>2011-06-25T12:24:50Z</time>
      </trkpt>
      <trkpt lat="43.323117" lon="-8.426465">
        <ele>126.0</ele>
        <time>2011-06-25T12:24:51Z</time>
      </trkpt>
      <trkpt lat="43.323117" lon="-8.426448">
        <ele>126.5</ele>
        <time>2011-06-25T12:24:52Z</time>
      </trkpt>
      <trkpt lat="43.323112" lon="-8.426432">
        <ele>126.5</ele>
        <time>2011-06-25T12:24:53Z</time>
      </trkpt>
      <trkpt lat="43.323107" lon="-8.426417">
        <ele>127.0</ele>
        <time>2011-06-25T12:24:54Z</time>
      </trkpt>
      <trkpt lat="43.323102" lon="-8.426403">
        <ele>127.0</ele>
        <time>2011-06-25T12:24:55Z</time>
      </trkpt>
      <trkpt lat="43.323100" lon="-8.426390">
        <ele>127.5</ele>
        <time>2011-06-25T12:24:56Z</time>
      </trkpt>
      <trkpt lat="43.323097" lon="-8.426375">
        <ele>127.5</ele>
        <time>2011-06-25T12:24:57Z</time>
      </trkpt>
      <trkpt lat="43.323093" lon="-8.426358">
        <ele>127.5</ele>
        <time>2011-06-25T12:24:58Z</time>
      </trkpt>
      <trkpt lat="43.323090" lon="-8.426340">
        <ele>127.5</ele>
        <time>2011-06-25T12:24:59Z</time>
      </trkpt>
      <trkpt lat="43.323085" lon="-8.426328">
        <ele>128.0</ele>
        <time>2011-06-25T12:25:00Z</time>
      </trkpt>
      <trkpt lat="43.323078" lon="-8.426317">
        <ele>128.5</ele>
        <time>2011-06-25T12:25:01Z</time>
      </trkpt>
      <trkpt lat="43.323075" lon="-8.426303">
        <ele>128.5</ele>
        <time>2011-06-25T12:25:02Z</time>
      </trkpt>
      <trkpt lat="43.323070" lon="-8.426285">
        <ele>128.5</ele>
        <time>2011-06-25T12:25:03Z</time>
      </trkpt>
      <trkpt lat="43.323067" lon="-8.426270">
        <ele>129.0</ele>
        <time>2011-06-25T12:25:04Z</time>
      </trkpt>
      <trkpt lat="43.323062" lon="-8.426252">
        <ele>129.5</ele>
        <time>2011-06-25T12:25:05Z</time>
      </trkpt>
      <trkpt lat="43.323055" lon="-8.426235">
        <ele>129.5</ele>
        <time>2011-06-25T12:25:06Z</time>
      </trkpt>
      <trkpt lat="43.323053" lon="-8.426218">
        <ele>130.0</ele>
        <time>2011-06-25T12:25:07Z</time>
      </trkpt>
      <trkpt lat="43.323053" lon="-8.426202">
        <ele>130.5</ele>
        <time>2011-06-25T12:25:08Z</time>
      </trkpt>
      <trkpt lat="43.323053" lon="-8.426178">
        <ele>131.0</ele>
        <time>2011-06-25T12:25:09Z</time>
      </trkpt>
      <trkpt lat="43.323047" lon="-8.426160">
        <ele>131.5</ele>
        <time>2011-06-25T12:25:10Z</time>
      </trkpt>
      <trkpt lat="43.323038" lon="-8.426135">
        <ele>131.5</ele>
        <time>2011-06-25T12:25:11Z</time>
      </trkpt>
      <trkpt lat="43.323030" lon="-8.426108">
        <ele>131.5</ele>
        <time>2011-06-25T12:25:12Z</time>
      </trkpt>
      <trkpt lat="43.323023" lon="-8.426080">
        <ele>131.5</ele>
        <time>2011-06-25T12:25:13Z</time>
      </trkpt>
      <trkpt lat="43.323020" lon="-8.426058">
        <ele>131.0</ele>
        <time>2011-06-25T12:25:14Z</time>
      </trkpt>
      <trkpt lat="43.323017" lon="-8.426037">
        <ele>131.0</ele>
        <time>2011-06-25T12:25:15Z</time>
      </trkpt>
      <trkpt lat="43.323020" lon="-8.426013">
        <ele>131.0</ele>
        <time>2011-06-25T12:25:16Z</time>
      </trkpt>
      <trkpt lat="43.323022" lon="-8.425988">
        <ele>131.0</ele>
        <time>2011-06-25T12:25:17Z</time>
      </trkpt>
      <trkpt lat="43.323025" lon="-8.425962">
        <ele>131.5</ele>
        <time>2011-06-25T12:25:18Z</time>
      </trkpt>
      <trkpt lat="43.323030" lon="-8.425935">
        <ele>131.5</ele>
        <time>2011-06-25T12:25:19Z</time>
      </trkpt>
      <trkpt lat="43.323035" lon="-8.425907">
        <ele>131.0</ele>
        <time>2011-06-25T12:25:20Z</time>
      </trkpt>
      <trkpt lat="43.323042" lon="-8.425885">
        <ele>131.5</ele>
        <time>2011-06-25T12:25:21Z</time>
      </trkpt>
      <trkpt lat="43.323050" lon="-8.425860">
        <ele>131.0</ele>
        <time>2011-06-25T12:25:22Z</time>
      </trkpt>
      <trkpt lat="43.323055" lon="-8.425840">
        <ele>131.0</ele>
        <time>2011-06-25T12:25:23Z</time>
      </trkpt>
      <trkpt lat="43.323062" lon="-8.425820">
        <ele>131.5</ele>
        <time>2011-06-25T12:25:24Z</time>
      </trkpt>
      <trkpt lat="43.323070" lon="-8.425800">
        <ele>131.5</ele>
        <time>2011-06-25T12:25:25Z</time>
      </trkpt>
      <trkpt lat="43.323078" lon="-8.425782">
        <ele>131.5</ele>
        <time>2011-06-25T12:25:26Z</time>
      </trkpt>
      <trkpt lat="43.323090" lon="-8.425763">
        <ele>131.5</ele>
        <time>2011-06-25T12:25:27Z</time>
      </trkpt>
      <trkpt lat="43.323097" lon="-8.425742">
        <ele>131.5</ele>
        <time>2011-06-25T12:25:28Z</time>
      </trkpt>
      <trkpt lat="43.323105" lon="-8.425720">
        <ele>132.0</ele>
        <time>2011-06-25T12:25:29Z</time>
      </trkpt>
      <trkpt lat="43.323110" lon="-8.425700">
        <ele>131.5</ele>
        <time>2011-06-25T12:25:30Z</time>
      </trkpt>
      <trkpt lat="43.323118" lon="-8.425677">
        <ele>131.5</ele>
        <time>2011-06-25T12:25:31Z</time>
      </trkpt>
      <trkpt lat="43.323130" lon="-8.425657">
        <ele>131.5</ele>
        <time>2011-06-25T12:25:32Z</time>
      </trkpt>
      <trkpt lat="43.323140" lon="-8.425640">
        <ele>132.0</ele>
        <time>2011-06-25T12:25:33Z</time>
      </trkpt>
      <trkpt lat="43.323148" lon="-8.425613">
        <ele>132.0</ele>
        <time>2011-06-25T12:25:34Z</time>
      </trkpt>
      <trkpt lat="43.323155" lon="-8.425587">
        <ele>132.5</ele>
        <time>2011-06-25T12:25:35Z</time>
      </trkpt>
      <trkpt lat="43.323162" lon="-8.425567">
        <ele>133.0</ele>
        <time>2011-06-25T12:25:36Z</time>
      </trkpt>
      <trkpt lat="43.323172" lon="-8.425548">
        <ele>133.5</ele>
        <time>2011-06-25T12:25:37Z</time>
      </trkpt>
      <trkpt lat="43.323185" lon="-8.425532">
        <ele>134.0</ele>
        <time>2011-06-25T12:25:38Z</time>
      </trkpt>
      <trkpt lat="43.323200" lon="-8.425507">
        <ele>134.0</ele>
        <time>2011-06-25T12:25:39Z</time>
      </trkpt>
      <trkpt lat="43.323220" lon="-8.425485">
        <ele>134.5</ele>
        <time>2011-06-25T12:25:40Z</time>
      </trkpt>
      <trkpt lat="43.323240" lon="-8.425458">
        <ele>134.0</ele>
        <time>2011-06-25T12:25:41Z</time>
      </trkpt>
      <trkpt lat="43.323267" lon="-8.425420">
        <ele>133.5</ele>
        <time>2011-06-25T12:25:42Z</time>
      </trkpt>
      <trkpt lat="43.323287" lon="-8.425390">
        <ele>133.5</ele>
        <time>2011-06-25T12:25:43Z</time>
      </trkpt>
      <trkpt lat="43.323298" lon="-8.425367">
        <ele>133.5</ele>
        <time>2011-06-25T12:25:44Z</time>
      </trkpt>
      <trkpt lat="43.323335" lon="-8.425288">
        <ele>132.0</ele>
        <time>2011-06-25T12:25:46Z</time>
      </trkpt>
      <trkpt lat="43.323365" lon="-8.425203">
        <ele>134.0</ele>
        <time>2011-06-25T12:25:48Z</time>
      </trkpt>
      <trkpt lat="43.323373" lon="-8.425167">
        <ele>135.0</ele>
        <time>2011-06-25T12:25:49Z</time>
      </trkpt>
      <trkpt lat="43.323378" lon="-8.425130">
        <ele>135.0</ele>
        <time>2011-06-25T12:25:50Z</time>
      </trkpt>
      <trkpt lat="43.323382" lon="-8.425095">
        <ele>135.0</ele>
        <time>2011-06-25T12:25:51Z</time>
      </trkpt>
      <trkpt lat="43.323387" lon="-8.425060">
        <ele>135.0</ele>
        <time>2011-06-25T12:25:52Z</time>
      </trkpt>
      <trkpt lat="43.323392" lon="-8.425030">
        <ele>135.0</ele>
        <time>2011-06-25T12:25:53Z</time>
      </trkpt>
      <trkpt lat="43.323412" lon="-8.424977">
        <ele>134.5</ele>
        <time>2011-06-25T12:25:55Z</time>
      </trkpt>
      <trkpt lat="43.323420" lon="-8.424950">
        <ele>134.5</ele>
        <time>2011-06-25T12:25:56Z</time>
      </trkpt>
      <trkpt lat="43.323428" lon="-8.424923">
        <ele>135.0</ele>
        <time>2011-06-25T12:25:57Z</time>
      </trkpt>
      <trkpt lat="43.323438" lon="-8.424893">
        <ele>134.5</ele>
        <time>2011-06-25T12:25:58Z</time>
      </trkpt>
      <trkpt lat="43.323447" lon="-8.424862">
        <ele>134.5</ele>
        <time>2011-06-25T12:25:59Z</time>
      </trkpt>
      <trkpt lat="43.323458" lon="-8.424825">
        <ele>134.0</ele>
        <time>2011-06-25T12:26:00Z</time>
      </trkpt>
      <trkpt lat="43.323470" lon="-8.424792">
        <ele>135.0</ele>
        <time>2011-06-25T12:26:01Z</time>
      </trkpt>
      <trkpt lat="43.323485" lon="-8.424753">
        <ele>135.0</ele>
        <time>2011-06-25T12:26:02Z</time>
      </trkpt>
      <trkpt lat="43.323500" lon="-8.424705">
        <ele>134.5</ele>
        <time>2011-06-25T12:26:03Z</time>
      </trkpt>
      <trkpt lat="43.323512" lon="-8.424652">
        <ele>134.5</ele>
        <time>2011-06-25T12:26:04Z</time>
      </trkpt>
      <trkpt lat="43.323515" lon="-8.424595">
        <ele>134.5</ele>
        <time>2011-06-25T12:26:05Z</time>
      </trkpt>
      <trkpt lat="43.323518" lon="-8.424538">
        <ele>135.0</ele>
        <time>2011-06-25T12:26:06Z</time>
      </trkpt>
      <trkpt lat="43.323538" lon="-8.424492">
        <ele>135.0</ele>
        <time>2011-06-25T12:26:07Z</time>
      </trkpt>
      <trkpt lat="43.323575" lon="-8.424457">
        <ele>133.5</ele>
        <time>2011-06-25T12:26:08Z</time>
      </trkpt>
      <trkpt lat="43.323615" lon="-8.424445">
        <ele>133.0</ele>
        <time>2011-06-25T12:26:09Z</time>
      </trkpt>
      <trkpt lat="43.323652" lon="-8.424435">
        <ele>133.0</ele>
        <time>2011-06-25T12:26:10Z</time>
      </trkpt>
      <trkpt lat="43.323680" lon="-8.424413">
        <ele>132.0</ele>
        <time>2011-06-25T12:26:11Z</time>
      </trkpt>
      <trkpt lat="43.323695" lon="-8.424383">
        <ele>132.5</ele>
        <time>2011-06-25T12:26:12Z</time>
      </trkpt>
      <trkpt lat="43.323708" lon="-8.424347">
        <ele>131.5</ele>
        <time>2011-06-25T12:26:13Z</time>
      </trkpt>
      <trkpt lat="43.323710" lon="-8.424312">
        <ele>131.5</ele>
        <time>2011-06-25T12:26:14Z</time>
      </trkpt>
      <trkpt lat="43.323702" lon="-8.424280">
        <ele>131.5</ele>
        <time>2011-06-25T12:26:15Z</time>
      </trkpt>
      <trkpt lat="43.323697" lon="-8.424247">
        <ele>131.5</ele>
        <time>2011-06-25T12:26:16Z</time>
      </trkpt>
      <trkpt lat="43.323698" lon="-8.424210">
        <ele>131.5</ele>
        <time>2011-06-25T12:26:17Z</time>
      </trkpt>
      <trkpt lat="43.323703" lon="-8.424175">
        <ele>131.5</ele>
        <time>2011-06-25T12:26:18Z</time>
      </trkpt>
      <trkpt lat="43.323707" lon="-8.424137">
        <ele>131.5</ele>
        <time>2011-06-25T12:26:19Z</time>
      </trkpt>
      <trkpt lat="43.323712" lon="-8.424098">
        <ele>132.0</ele>
        <time>2011-06-25T12:26:20Z</time>
      </trkpt>
      <trkpt lat="43.323723" lon="-8.424058">
        <ele>131.5</ele>
        <time>2011-06-25T12:26:21Z</time>
      </trkpt>
      <trkpt lat="43.323735" lon="-8.424015">
        <ele>132.0</ele>
        <time>2011-06-25T12:26:22Z</time>
      </trkpt>
      <trkpt lat="43.323750" lon="-8.423968">
        <ele>132.5</ele>
        <time>2011-06-25T12:26:23Z</time>
      </trkpt>
      <trkpt lat="43.323768" lon="-8.423922">
        <ele>132.0</ele>
        <time>2011-06-25T12:26:24Z</time>
      </trkpt>
      <trkpt lat="43.323790" lon="-8.423870">
        <ele>132.0</ele>
        <time>2011-06-25T12:26:25Z</time>
      </trkpt>
      <trkpt lat="43.323797" lon="-8.423820">
        <ele>131.0</ele>
        <time>2011-06-25T12:26:26Z</time>
      </trkpt>
      <trkpt lat="43.323810" lon="-8.423768">
        <ele>131.0</ele>
        <time>2011-06-25T12:26:27Z</time>
      </trkpt>
      <trkpt lat="43.323830" lon="-8.423715">
        <ele>130.5</ele>
        <time>2011-06-25T12:26:28Z</time>
      </trkpt>
      <trkpt lat="43.323845" lon="-8.423662">
        <ele>130.5</ele>
        <time>2011-06-25T12:26:29Z</time>
      </trkpt>
      <trkpt lat="43.323858" lon="-8.423602">
        <ele>130.5</ele>
        <time>2011-06-25T12:26:30Z</time>
      </trkpt>
      <trkpt lat="43.323872" lon="-8.423542">
        <ele>130.0</ele>
        <time>2011-06-25T12:26:31Z</time>
      </trkpt>
      <trkpt lat="43.323882" lon="-8.423482">
        <ele>129.5</ele>
        <time>2011-06-25T12:26:32Z</time>
      </trkpt>
      <trkpt lat="43.323893" lon="-8.423422">
        <ele>129.5</ele>
        <time>2011-06-25T12:26:33Z</time>
      </trkpt>
      <trkpt lat="43.323910" lon="-8.423360">
        <ele>129.0</ele>
        <time>2011-06-25T12:26:34Z</time>
      </trkpt>
      <trkpt lat="43.323927" lon="-8.423310">
        <ele>129.0</ele>
        <time>2011-06-25T12:26:35Z</time>
      </trkpt>
      <trkpt lat="43.323945" lon="-8.423267">
        <ele>129.0</ele>
        <time>2011-06-25T12:26:36Z</time>
      </trkpt>
      <trkpt lat="43.323958" lon="-8.423238">
        <ele>129.0</ele>
        <time>2011-06-25T12:26:37Z</time>
      </trkpt>
      <trkpt lat="43.323973" lon="-8.423222">
        <ele>128.5</ele>
        <time>2011-06-25T12:26:38Z</time>
      </trkpt>
      <trkpt lat="43.323993" lon="-8.423217">
        <ele>128.5</ele>
        <time>2011-06-25T12:26:39Z</time>
      </trkpt>
      <trkpt lat="43.324022" lon="-8.423225">
        <ele>127.0</ele>
        <time>2011-06-25T12:26:40Z</time>
      </trkpt>
      <trkpt lat="43.324138" lon="-8.423270">
        <ele>124.5</ele>
        <time>2011-06-25T12:26:42Z</time>
      </trkpt>
      <trkpt lat="43.324200" lon="-8.423293">
        <ele>122.5</ele>
        <time>2011-06-25T12:26:43Z</time>
      </trkpt>
      <trkpt lat="43.324267" lon="-8.423317">
        <ele>120.5</ele>
        <time>2011-06-25T12:26:44Z</time>
      </trkpt>
      <trkpt lat="43.324327" lon="-8.423357">
        <ele>120.5</ele>
        <time>2011-06-25T12:26:45Z</time>
      </trkpt>
      <trkpt lat="43.324395" lon="-8.423400">
        <ele>118.5</ele>
        <time>2011-06-25T12:26:46Z</time>
      </trkpt>
      <trkpt lat="43.324550" lon="-8.423442">
        <ele>118.0</ele>
        <time>2011-06-25T12:26:48Z</time>
      </trkpt>
      <trkpt lat="43.324608" lon="-8.423473">
        <ele>116.5</ele>
        <time>2011-06-25T12:26:49Z</time>
      </trkpt>
      <trkpt lat="43.324680" lon="-8.423502">
        <ele>116.5</ele>
        <time>2011-06-25T12:26:50Z</time>
      </trkpt>
      <trkpt lat="43.324760" lon="-8.423515">
        <ele>116.0</ele>
        <time>2011-06-25T12:26:51Z</time>
      </trkpt>
      <trkpt lat="43.324840" lon="-8.423537">
        <ele>115.0</ele>
        <time>2011-06-25T12:26:52Z</time>
      </trkpt>
    </trkseg>
  </trk>
  <trk>
    <name>T2067676-23</name>
    <cmt>saida con compañeiros do C.C.Arteixo polos arredores da Coruña</cmt>
    <desc>saida con compañeiros do C.C.Arteixo polos arredores da Coruña</desc>
    <trkseg>
      <trkpt lat="43.324913" lon="-8.423552">
        <ele>116.0</ele>
        <time>2011-06-25T12:26:53Z</time>
      </trkpt>
      <trkpt lat="43.324985" lon="-8.423577">
        <ele>116.5</ele>
        <time>2011-06-25T12:26:54Z</time>
      </trkpt>
      <trkpt lat="43.325058" lon="-8.423612">
        <ele>116.0</ele>
        <time>2011-06-25T12:26:55Z</time>
      </trkpt>
      <trkpt lat="43.325125" lon="-8.423648">
        <ele>115.5</ele>
        <time>2011-06-25T12:26:56Z</time>
      </trkpt>
      <trkpt lat="43.325192" lon="-8.423688">
        <ele>115.5</ele>
        <time>2011-06-25T12:26:57Z</time>
      </trkpt>
      <trkpt lat="43.325250" lon="-8.423722">
        <ele>115.0</ele>
        <time>2011-06-25T12:26:58Z</time>
      </trkpt>
      <trkpt lat="43.325327" lon="-8.423775">
        <ele>112.0</ele>
        <time>2011-06-25T12:27:00Z</time>
      </trkpt>
      <trkpt lat="43.325382" lon="-8.423802">
        <ele>111.5</ele>
        <time>2011-06-25T12:27:01Z</time>
      </trkpt>
      <trkpt lat="43.325438" lon="-8.423820">
        <ele>111.5</ele>
        <time>2011-06-25T12:27:02Z</time>
      </trkpt>
      <trkpt lat="43.325492" lon="-8.423837">
        <ele>111.5</ele>
        <time>2011-06-25T12:27:03Z</time>
      </trkpt>
      <trkpt lat="43.325540" lon="-8.423850">
        <ele>111.5</ele>
        <time>2011-06-25T12:27:04Z</time>
      </trkpt>
      <trkpt lat="43.325583" lon="-8.423862">
        <ele>112.0</ele>
        <time>2011-06-25T12:27:05Z</time>
      </trkpt>
      <trkpt lat="43.325628" lon="-8.423863">
        <ele>111.0</ele>
        <time>2011-06-25T12:27:06Z</time>
      </trkpt>
      <trkpt lat="43.325678" lon="-8.423885">
        <ele>110.0</ele>
        <time>2011-06-25T12:27:07Z</time>
      </trkpt>
      <trkpt lat="43.325730" lon="-8.423910">
        <ele>109.0</ele>
        <time>2011-06-25T12:27:08Z</time>
      </trkpt>
      <trkpt lat="43.325778" lon="-8.423937">
        <ele>108.5</ele>
        <time>2011-06-25T12:27:09Z</time>
      </trkpt>
      <trkpt lat="43.325825" lon="-8.423962">
        <ele>108.0</ele>
        <time>2011-06-25T12:27:10Z</time>
      </trkpt>
      <trkpt lat="43.325870" lon="-8.423992">
        <ele>108.0</ele>
        <time>2011-06-25T12:27:11Z</time>
      </trkpt>
      <trkpt lat="43.325908" lon="-8.424017">
        <ele>107.5</ele>
        <time>2011-06-25T12:27:12Z</time>
      </trkpt>
      <trkpt lat="43.325950" lon="-8.424043">
        <ele>107.5</ele>
        <time>2011-06-25T12:27:13Z</time>
      </trkpt>
      <trkpt lat="43.325990" lon="-8.424065">
        <ele>108.0</ele>
        <time>2011-06-25T12:27:14Z</time>
      </trkpt>
      <trkpt lat="43.326028" lon="-8.424095">
        <ele>107.5</ele>
        <time>2011-06-25T12:27:15Z</time>
      </trkpt>
      <trkpt lat="43.326065" lon="-8.424130">
        <ele>107.5</ele>
        <time>2011-06-25T12:27:16Z</time>
      </trkpt>
      <trkpt lat="43.326100" lon="-8.424167">
        <ele>107.5</ele>
        <time>2011-06-25T12:27:17Z</time>
      </trkpt>
      <trkpt lat="43.326127" lon="-8.424202">
        <ele>107.5</ele>
        <time>2011-06-25T12:27:18Z</time>
      </trkpt>
      <trkpt lat="43.326145" lon="-8.424237">
        <ele>107.5</ele>
        <time>2011-06-25T12:27:19Z</time>
      </trkpt>
      <trkpt lat="43.326158" lon="-8.424258">
        <ele>107.5</ele>
        <time>2011-06-25T12:27:20Z</time>
      </trkpt>
      <trkpt lat="43.326168" lon="-8.424262">
        <ele>108.0</ele>
        <time>2011-06-25T12:27:21Z</time>
      </trkpt>
      <trkpt lat="43.326183" lon="-8.424273">
        <ele>108.0</ele>
        <time>2011-06-25T12:27:22Z</time>
      </trkpt>
      <trkpt lat="43.326198" lon="-8.424277">
        <ele>108.0</ele>
        <time>2011-06-25T12:27:23Z</time>
      </trkpt>
      <trkpt lat="43.326215" lon="-8.424270">
        <ele>108.0</ele>
        <time>2011-06-25T12:27:24Z</time>
      </trkpt>
      <trkpt lat="43.326230" lon="-8.424257">
        <ele>108.0</ele>
        <time>2011-06-25T12:27:25Z</time>
      </trkpt>
      <trkpt lat="43.326247" lon="-8.424242">
        <ele>107.5</ele>
        <time>2011-06-25T12:27:26Z</time>
      </trkpt>
      <trkpt lat="43.326263" lon="-8.424227">
        <ele>107.5</ele>
        <time>2011-06-25T12:27:27Z</time>
      </trkpt>
      <trkpt lat="43.326280" lon="-8.424208">
        <ele>107.5</ele>
        <time>2011-06-25T12:27:28Z</time>
      </trkpt>
      <trkpt lat="43.326295" lon="-8.424187">
        <ele>107.5</ele>
        <time>2011-06-25T12:27:29Z</time>
      </trkpt>
      <trkpt lat="43.326308" lon="-8.424160">
        <ele>107.0</ele>
        <time>2011-06-25T12:27:30Z</time>
      </trkpt>
      <trkpt lat="43.326322" lon="-8.424130">
        <ele>107.0</ele>
        <time>2011-06-25T12:27:31Z</time>
      </trkpt>
      <trkpt lat="43.326333" lon="-8.424103">
        <ele>107.0</ele>
        <time>2011-06-25T12:27:32Z</time>
      </trkpt>
      <trkpt lat="43.326343" lon="-8.424078">
        <ele>107.5</ele>
        <time>2011-06-25T12:27:33Z</time>
      </trkpt>
      <trkpt lat="43.326352" lon="-8.424058">
        <ele>107.5</ele>
        <time>2011-06-25T12:27:34Z</time>
      </trkpt>
      <trkpt lat="43.326360" lon="-8.424035">
        <ele>108.0</ele>
        <time>2011-06-25T12:27:35Z</time>
      </trkpt>
      <trkpt lat="43.326368" lon="-8.424008">
        <ele>108.0</ele>
        <time>2011-06-25T12:27:36Z</time>
      </trkpt>
      <trkpt lat="43.326375" lon="-8.423983">
        <ele>108.0</ele>
        <time>2011-06-25T12:27:37Z</time>
      </trkpt>
      <trkpt lat="43.326382" lon="-8.423952">
        <ele>108.0</ele>
        <time>2011-06-25T12:27:38Z</time>
      </trkpt>
      <trkpt lat="43.326390" lon="-8.423923">
        <ele>108.5</ele>
        <time>2011-06-25T12:27:39Z</time>
      </trkpt>
      <trkpt lat="43.326397" lon="-8.423893">
        <ele>108.5</ele>
        <time>2011-06-25T12:27:40Z</time>
      </trkpt>
      <trkpt lat="43.326405" lon="-8.423863">
        <ele>109.0</ele>
        <time>2011-06-25T12:27:41Z</time>
      </trkpt>
      <trkpt lat="43.326415" lon="-8.423828">
        <ele>109.0</ele>
        <time>2011-06-25T12:27:42Z</time>
      </trkpt>
      <trkpt lat="43.326423" lon="-8.423793">
        <ele>108.5</ele>
        <time>2011-06-25T12:27:43Z</time>
      </trkpt>
      <trkpt lat="43.326432" lon="-8.423755">
        <ele>109.0</ele>
        <time>2011-06-25T12:27:44Z</time>
      </trkpt>
      <trkpt lat="43.326443" lon="-8.423718">
        <ele>109.0</ele>
        <time>2011-06-25T12:27:45Z</time>
      </trkpt>
      <trkpt lat="43.326453" lon="-8.423682">
        <ele>109.0</ele>
        <time>2011-06-25T12:27:46Z</time>
      </trkpt>
      <trkpt lat="43.326463" lon="-8.423645">
        <ele>109.5</ele>
        <time>2011-06-25T12:27:47Z</time>
      </trkpt>
      <trkpt lat="43.326478" lon="-8.423610">
        <ele>110.0</ele>
        <time>2011-06-25T12:27:48Z</time>
      </trkpt>
      <trkpt lat="43.326495" lon="-8.423577">
        <ele>110.0</ele>
        <time>2011-06-25T12:27:49Z</time>
      </trkpt>
      <trkpt lat="43.326513" lon="-8.423545">
        <ele>110.5</ele>
        <time>2011-06-25T12:27:50Z</time>
      </trkpt>
      <trkpt lat="43.326532" lon="-8.423513">
        <ele>110.5</ele>
        <time>2011-06-25T12:27:51Z</time>
      </trkpt>
      <trkpt lat="43.326550" lon="-8.423485">
        <ele>111.5</ele>
        <time>2011-06-25T12:27:52Z</time>
      </trkpt>
      <trkpt lat="43.326568" lon="-8.423455">
        <ele>111.5</ele>
        <time>2011-06-25T12:27:53Z</time>
      </trkpt>
      <trkpt lat="43.326585" lon="-8.423425">
        <ele>112.0</ele>
        <time>2011-06-25T12:27:54Z</time>
      </trkpt>
      <trkpt lat="43.326602" lon="-8.423392">
        <ele>112.5</ele>
        <time>2011-06-25T12:27:55Z</time>
      </trkpt>
      <trkpt lat="43.326620" lon="-8.423358">
        <ele>113.0</ele>
        <time>2011-06-25T12:27:56Z</time>
      </trkpt>
      <trkpt lat="43.326638" lon="-8.423327">
        <ele>113.5</ele>
        <time>2011-06-25T12:27:57Z</time>
      </trkpt>
      <trkpt lat="43.326662" lon="-8.423297">
        <ele>113.5</ele>
        <time>2011-06-25T12:27:58Z</time>
      </trkpt>
      <trkpt lat="43.326687" lon="-8.423272">
        <ele>114.0</ele>
        <time>2011-06-25T12:27:59Z</time>
      </trkpt>
      <trkpt lat="43.326742" lon="-8.423218">
        <ele>114.5</ele>
        <time>2011-06-25T12:28:01Z</time>
      </trkpt>
      <trkpt lat="43.326770" lon="-8.423195">
        <ele>114.5</ele>
        <time>2011-06-25T12:28:02Z</time>
      </trkpt>
      <trkpt lat="43.326800" lon="-8.423172">
        <ele>115.0</ele>
        <time>2011-06-25T12:28:03Z</time>
      </trkpt>
      <trkpt lat="43.326830" lon="-8.423150">
        <ele>115.5</ele>
        <time>2011-06-25T12:28:04Z</time>
      </trkpt>
      <trkpt lat="43.326858" lon="-8.423128">
        <ele>115.5</ele>
        <time>2011-06-25T12:28:05Z</time>
      </trkpt>
      <trkpt lat="43.326888" lon="-8.423108">
        <ele>115.5</ele>
        <time>2011-06-25T12:28:06Z</time>
      </trkpt>
      <trkpt lat="43.326918" lon="-8.423088">
        <ele>115.5</ele>
        <time>2011-06-25T12:28:07Z</time>
      </trkpt>
      <trkpt lat="43.326947" lon="-8.423068">
        <ele>116.0</ele>
        <time>2011-06-25T12:28:08Z</time>
      </trkpt>
      <trkpt lat="43.326977" lon="-8.423048">
        <ele>116.0</ele>
        <time>2011-06-25T12:28:09Z</time>
      </trkpt>
      <trkpt lat="43.327007" lon="-8.423027">
        <ele>116.0</ele>
        <time>2011-06-25T12:28:10Z</time>
      </trkpt>
      <trkpt lat="43.327037" lon="-8.423003">
        <ele>116.0</ele>
        <time>2011-06-25T12:28:11Z</time>
      </trkpt>
      <trkpt lat="43.327070" lon="-8.422982">
        <ele>116.0</ele>
        <time>2011-06-25T12:28:12Z</time>
      </trkpt>
      <trkpt lat="43.327105" lon="-8.422958">
        <ele>116.0</ele>
        <time>2011-06-25T12:28:13Z</time>
      </trkpt>
      <trkpt lat="43.327142" lon="-8.422938">
        <ele>116.5</ele>
        <time>2011-06-25T12:28:14Z</time>
      </trkpt>
      <trkpt lat="43.327180" lon="-8.422922">
        <ele>116.0</ele>
        <time>2011-06-25T12:28:15Z</time>
      </trkpt>
      <trkpt lat="43.327218" lon="-8.422905">
        <ele>115.5</ele>
        <time>2011-06-25T12:28:16Z</time>
      </trkpt>
      <trkpt lat="43.327255" lon="-8.422885">
        <ele>115.5</ele>
        <time>2011-06-25T12:28:17Z</time>
      </trkpt>
      <trkpt lat="43.327295" lon="-8.422867">
        <ele>115.5</ele>
        <time>2011-06-25T12:28:18Z</time>
      </trkpt>
      <trkpt lat="43.327338" lon="-8.422853">
        <ele>115.0</ele>
        <time>2011-06-25T12:28:19Z</time>
      </trkpt>
      <trkpt lat="43.327382" lon="-8.422835">
        <ele>115.0</ele>
        <time>2011-06-25T12:28:20Z</time>
      </trkpt>
      <trkpt lat="43.327425" lon="-8.422808">
        <ele>114.5</ele>
        <time>2011-06-25T12:28:21Z</time>
      </trkpt>
      <trkpt lat="43.327467" lon="-8.422780">
        <ele>114.5</ele>
        <time>2011-06-25T12:28:22Z</time>
      </trkpt>
      <trkpt lat="43.327510" lon="-8.422750">
        <ele>114.0</ele>
        <time>2011-06-25T12:28:23Z</time>
      </trkpt>
      <trkpt lat="43.327552" lon="-8.422715">
        <ele>114.0</ele>
        <time>2011-06-25T12:28:24Z</time>
      </trkpt>
      <trkpt lat="43.327592" lon="-8.422673">
        <ele>113.5</ele>
        <time>2011-06-25T12:28:25Z</time>
      </trkpt>
      <trkpt lat="43.327627" lon="-8.422630">
        <ele>113.5</ele>
        <time>2011-06-25T12:28:26Z</time>
      </trkpt>
      <trkpt lat="43.327657" lon="-8.422580">
        <ele>113.0</ele>
        <time>2011-06-25T12:28:27Z</time>
      </trkpt>
      <trkpt lat="43.327682" lon="-8.422527">
        <ele>113.0</ele>
        <time>2011-06-25T12:28:28Z</time>
      </trkpt>
      <trkpt lat="43.327703" lon="-8.422473">
        <ele>112.5</ele>
        <time>2011-06-25T12:28:29Z</time>
      </trkpt>
      <trkpt lat="43.327723" lon="-8.422420">
        <ele>112.5</ele>
        <time>2011-06-25T12:28:30Z</time>
      </trkpt>
      <trkpt lat="43.327743" lon="-8.422358">
        <ele>113.0</ele>
        <time>2011-06-25T12:28:31Z</time>
      </trkpt>
      <trkpt lat="43.327767" lon="-8.422300">
        <ele>113.0</ele>
        <time>2011-06-25T12:28:32Z</time>
      </trkpt>
      <trkpt lat="43.327788" lon="-8.422243">
        <ele>113.0</ele>
        <time>2011-06-25T12:28:33Z</time>
      </trkpt>
      <trkpt lat="43.327813" lon="-8.422187">
        <ele>112.5</ele>
        <time>2011-06-25T12:28:34Z</time>
      </trkpt>
      <trkpt lat="43.327843" lon="-8.422132">
        <ele>112.5</ele>
        <time>2011-06-25T12:28:35Z</time>
      </trkpt>
      <trkpt lat="43.327873" lon="-8.422075">
        <ele>112.0</ele>
        <time>2011-06-25T12:28:36Z</time>
      </trkpt>
      <trkpt lat="43.327908" lon="-8.422020">
        <ele>112.0</ele>
        <time>2011-06-25T12:28:37Z</time>
      </trkpt>
      <trkpt lat="43.327948" lon="-8.421965">
        <ele>111.5</ele>
        <time>2011-06-25T12:28:38Z</time>
      </trkpt>
      <trkpt lat="43.327985" lon="-8.421908">
        <ele>111.0</ele>
        <time>2011-06-25T12:28:39Z</time>
      </trkpt>
      <trkpt lat="43.328023" lon="-8.421848">
        <ele>110.5</ele>
        <time>2011-06-25T12:28:40Z</time>
      </trkpt>
      <trkpt lat="43.328057" lon="-8.421787">
        <ele>110.5</ele>
        <time>2011-06-25T12:28:41Z</time>
      </trkpt>
      <trkpt lat="43.328082" lon="-8.421720">
        <ele>110.5</ele>
        <time>2011-06-25T12:28:42Z</time>
      </trkpt>
      <trkpt lat="43.328098" lon="-8.421652">
        <ele>110.5</ele>
        <time>2011-06-25T12:28:43Z</time>
      </trkpt>
      <trkpt lat="43.328108" lon="-8.421585">
        <ele>110.5</ele>
        <time>2011-06-25T12:28:44Z</time>
      </trkpt>
      <trkpt lat="43.328110" lon="-8.421518">
        <ele>110.5</ele>
        <time>2011-06-25T12:28:45Z</time>
      </trkpt>
      <trkpt lat="43.328113" lon="-8.421450">
        <ele>110.5</ele>
        <time>2011-06-25T12:28:46Z</time>
      </trkpt>
      <trkpt lat="43.328113" lon="-8.421378">
        <ele>110.5</ele>
        <time>2011-06-25T12:28:47Z</time>
      </trkpt>
      <trkpt lat="43.328113" lon="-8.421308">
        <ele>110.5</ele>
        <time>2011-06-25T12:28:48Z</time>
      </trkpt>
      <trkpt lat="43.328117" lon="-8.421242">
        <ele>110.5</ele>
        <time>2011-06-25T12:28:49Z</time>
      </trkpt>
      <trkpt lat="43.328127" lon="-8.421178">
        <ele>110.5</ele>
        <time>2011-06-25T12:28:50Z</time>
      </trkpt>
      <trkpt lat="43.328140" lon="-8.421123">
        <ele>111.0</ele>
        <time>2011-06-25T12:28:51Z</time>
      </trkpt>
      <trkpt lat="43.328162" lon="-8.421070">
        <ele>111.5</ele>
        <time>2011-06-25T12:28:52Z</time>
      </trkpt>
      <trkpt lat="43.328193" lon="-8.421027">
        <ele>112.5</ele>
        <time>2011-06-25T12:28:53Z</time>
      </trkpt>
      <trkpt lat="43.328238" lon="-8.420988">
        <ele>112.0</ele>
        <time>2011-06-25T12:28:54Z</time>
      </trkpt>
      <trkpt lat="43.328280" lon="-8.420958">
        <ele>112.5</ele>
        <time>2011-06-25T12:28:55Z</time>
      </trkpt>
      <trkpt lat="43.328320" lon="-8.420925">
        <ele>113.0</ele>
        <time>2011-06-25T12:28:56Z</time>
      </trkpt>
      <trkpt lat="43.328353" lon="-8.420887">
        <ele>112.5</ele>
        <time>2011-06-25T12:28:57Z</time>
      </trkpt>
      <trkpt lat="43.328380" lon="-8.420850">
        <ele>112.0</ele>
        <time>2011-06-25T12:28:58Z</time>
      </trkpt>
      <trkpt lat="43.328402" lon="-8.420805">
        <ele>111.5</ele>
        <time>2011-06-25T12:28:59Z</time>
      </trkpt>
      <trkpt lat="43.328425" lon="-8.420760">
        <ele>111.5</ele>
        <time>2011-06-25T12:29:00Z</time>
      </trkpt>
      <trkpt lat="43.328445" lon="-8.420713">
        <ele>111.0</ele>
        <time>2011-06-25T12:29:01Z</time>
      </trkpt>
      <trkpt lat="43.328458" lon="-8.420665">
        <ele>111.0</ele>
        <time>2011-06-25T12:29:02Z</time>
      </trkpt>
      <trkpt lat="43.328472" lon="-8.420620">
        <ele>111.5</ele>
        <time>2011-06-25T12:29:03Z</time>
      </trkpt>
      <trkpt lat="43.328485" lon="-8.420583">
        <ele>111.0</ele>
        <time>2011-06-25T12:29:04Z</time>
      </trkpt>
      <trkpt lat="43.328500" lon="-8.420552">
        <ele>111.5</ele>
        <time>2011-06-25T12:29:05Z</time>
      </trkpt>
      <trkpt lat="43.328515" lon="-8.420523">
        <ele>111.5</ele>
        <time>2011-06-25T12:29:06Z</time>
      </trkpt>
      <trkpt lat="43.328528" lon="-8.420500">
        <ele>111.5</ele>
        <time>2011-06-25T12:29:07Z</time>
      </trkpt>
      <trkpt lat="43.328543" lon="-8.420477">
        <ele>111.0</ele>
        <time>2011-06-25T12:29:08Z</time>
      </trkpt>
      <trkpt lat="43.328562" lon="-8.420462">
        <ele>112.0</ele>
        <time>2011-06-25T12:29:09Z</time>
      </trkpt>
      <trkpt lat="43.328577" lon="-8.420460">
        <ele>114.0</ele>
        <time>2011-06-25T12:29:10Z</time>
      </trkpt>
      <trkpt lat="43.328602" lon="-8.420455">
        <ele>113.5</ele>
        <time>2011-06-25T12:29:11Z</time>
      </trkpt>
      <trkpt lat="43.328628" lon="-8.420452">
        <ele>112.0</ele>
        <time>2011-06-25T12:29:12Z</time>
      </trkpt>
      <trkpt lat="43.328657" lon="-8.420448">
        <ele>110.0</ele>
        <time>2011-06-25T12:29:13Z</time>
      </trkpt>
      <trkpt lat="43.328685" lon="-8.420447">
        <ele>109.0</ele>
        <time>2011-06-25T12:29:14Z</time>
      </trkpt>
      <trkpt lat="43.328715" lon="-8.420447">
        <ele>109.5</ele>
        <time>2011-06-25T12:29:15Z</time>
      </trkpt>
      <trkpt lat="43.328745" lon="-8.420447">
        <ele>109.0</ele>
        <time>2011-06-25T12:29:16Z</time>
      </trkpt>
      <trkpt lat="43.328778" lon="-8.420445">
        <ele>109.0</ele>
        <time>2011-06-25T12:29:17Z</time>
      </trkpt>
      <trkpt lat="43.328815" lon="-8.420445">
        <ele>109.0</ele>
        <time>2011-06-25T12:29:18Z</time>
      </trkpt>
      <trkpt lat="43.328853" lon="-8.420452">
        <ele>109.0</ele>
        <time>2011-06-25T12:29:19Z</time>
      </trkpt>
      <trkpt lat="43.328897" lon="-8.420475">
        <ele>107.0</ele>
        <time>2011-06-25T12:29:20Z</time>
      </trkpt>
      <trkpt lat="43.329037" lon="-8.420517">
        <ele>108.0</ele>
        <time>2011-06-25T12:29:22Z</time>
      </trkpt>
      <trkpt lat="43.329070" lon="-8.420522">
        <ele>108.5</ele>
        <time>2011-06-25T12:29:23Z</time>
      </trkpt>
      <trkpt lat="43.329103" lon="-8.420525">
        <ele>108.0</ele>
        <time>2011-06-25T12:29:24Z</time>
      </trkpt>
      <trkpt lat="43.329135" lon="-8.420527">
        <ele>108.0</ele>
        <time>2011-06-25T12:29:25Z</time>
      </trkpt>
      <trkpt lat="43.329167" lon="-8.420527">
        <ele>108.0</ele>
        <time>2011-06-25T12:29:26Z</time>
      </trkpt>
      <trkpt lat="43.329202" lon="-8.420535">
        <ele>107.5</ele>
        <time>2011-06-25T12:29:27Z</time>
      </trkpt>
      <trkpt lat="43.329237" lon="-8.420545">
        <ele>107.5</ele>
        <time>2011-06-25T12:29:28Z</time>
      </trkpt>
      <trkpt lat="43.329270" lon="-8.420562">
        <ele>107.5</ele>
        <time>2011-06-25T12:29:29Z</time>
      </trkpt>
      <trkpt lat="43.329302" lon="-8.420578">
        <ele>107.0</ele>
        <time>2011-06-25T12:29:30Z</time>
      </trkpt>
      <trkpt lat="43.329335" lon="-8.420600">
        <ele>106.5</ele>
        <time>2011-06-25T12:29:31Z</time>
      </trkpt>
      <trkpt lat="43.329367" lon="-8.420627">
        <ele>106.5</ele>
        <time>2011-06-25T12:29:32Z</time>
      </trkpt>
      <trkpt lat="43.329397" lon="-8.420657">
        <ele>106.5</ele>
        <time>2011-06-25T12:29:33Z</time>
      </trkpt>
      <trkpt lat="43.329427" lon="-8.420687">
        <ele>106.5</ele>
        <time>2011-06-25T12:29:34Z</time>
      </trkpt>
      <trkpt lat="43.329457" lon="-8.420732">
        <ele>105.5</ele>
        <time>2011-06-25T12:29:35Z</time>
      </trkpt>
      <trkpt lat="43.329483" lon="-8.420770">
        <ele>105.0</ele>
        <time>2011-06-25T12:29:36Z</time>
      </trkpt>
      <trkpt lat="43.329502" lon="-8.420815">
        <ele>105.5</ele>
        <time>2011-06-25T12:29:37Z</time>
      </trkpt>
      <trkpt lat="43.329518" lon="-8.420865">
        <ele>106.5</ele>
        <time>2011-06-25T12:29:38Z</time>
      </trkpt>
      <trkpt lat="43.329533" lon="-8.420920">
        <ele>107.0</ele>
        <time>2011-06-25T12:29:39Z</time>
      </trkpt>
      <trkpt lat="43.329552" lon="-8.420980">
        <ele>107.0</ele>
        <time>2011-06-25T12:29:40Z</time>
      </trkpt>
      <trkpt lat="43.329575" lon="-8.421042">
        <ele>107.0</ele>
        <time>2011-06-25T12:29:41Z</time>
      </trkpt>
      <trkpt lat="43.329598" lon="-8.421107">
        <ele>107.0</ele>
        <time>2011-06-25T12:29:42Z</time>
      </trkpt>
      <trkpt lat="43.329623" lon="-8.421177">
        <ele>107.0</ele>
        <time>2011-06-25T12:29:43Z</time>
      </trkpt>
      <trkpt lat="43.329657" lon="-8.421237">
        <ele>107.5</ele>
        <time>2011-06-25T12:29:44Z</time>
      </trkpt>
      <trkpt lat="43.329707" lon="-8.421290">
        <ele>106.0</ele>
        <time>2011-06-25T12:29:45Z</time>
      </trkpt>
      <trkpt lat="43.329753" lon="-8.421333">
        <ele>106.0</ele>
        <time>2011-06-25T12:29:46Z</time>
      </trkpt>
      <trkpt lat="43.329803" lon="-8.421370">
        <ele>106.0</ele>
        <time>2011-06-25T12:29:47Z</time>
      </trkpt>
      <trkpt lat="43.329855" lon="-8.421403">
        <ele>105.5</ele>
        <time>2011-06-25T12:29:48Z</time>
      </trkpt>
      <trkpt lat="43.329907" lon="-8.421428">
        <ele>105.5</ele>
        <time>2011-06-25T12:29:49Z</time>
      </trkpt>
      <trkpt lat="43.329955" lon="-8.421453">
        <ele>106.0</ele>
        <time>2011-06-25T12:29:50Z</time>
      </trkpt>
      <trkpt lat="43.330000" lon="-8.421480">
        <ele>106.5</ele>
        <time>2011-06-25T12:29:51Z</time>
      </trkpt>
      <trkpt lat="43.330042" lon="-8.421500">
        <ele>106.5</ele>
        <time>2011-06-25T12:29:52Z</time>
      </trkpt>
      <trkpt lat="43.330080" lon="-8.421515">
        <ele>107.0</ele>
        <time>2011-06-25T12:29:53Z</time>
      </trkpt>
      <trkpt lat="43.330110" lon="-8.421535">
        <ele>107.0</ele>
        <time>2011-06-25T12:29:54Z</time>
      </trkpt>
      <trkpt lat="43.330132" lon="-8.421557">
        <ele>107.5</ele>
        <time>2011-06-25T12:29:55Z</time>
      </trkpt>
      <trkpt lat="43.330148" lon="-8.421572">
        <ele>108.0</ele>
        <time>2011-06-25T12:29:56Z</time>
      </trkpt>
      <trkpt lat="43.330170" lon="-8.421585">
        <ele>108.0</ele>
        <time>2011-06-25T12:29:57Z</time>
      </trkpt>
      <trkpt lat="43.330187" lon="-8.421580">
        <ele>108.5</ele>
        <time>2011-06-25T12:29:58Z</time>
      </trkpt>
      <trkpt lat="43.330197" lon="-8.421562">
        <ele>109.0</ele>
        <time>2011-06-25T12:29:59Z</time>
      </trkpt>
      <trkpt lat="43.330200" lon="-8.421533">
        <ele>109.5</ele>
        <time>2011-06-25T12:30:00Z</time>
      </trkpt>
      <trkpt lat="43.330205" lon="-8.421502">
        <ele>109.5</ele>
        <time>2011-06-25T12:30:01Z</time>
      </trkpt>
      <trkpt lat="43.330210" lon="-8.421475">
        <ele>109.5</ele>
        <time>2011-06-25T12:30:02Z</time>
      </trkpt>
      <trkpt lat="43.330213" lon="-8.421448">
        <ele>110.0</ele>
        <time>2011-06-25T12:30:03Z</time>
      </trkpt>
      <trkpt lat="43.330218" lon="-8.421422">
        <ele>110.0</ele>
        <time>2011-06-25T12:30:04Z</time>
      </trkpt>
      <trkpt lat="43.330222" lon="-8.421397">
        <ele>110.0</ele>
        <time>2011-06-25T12:30:05Z</time>
      </trkpt>
      <trkpt lat="43.330223" lon="-8.421373">
        <ele>110.5</ele>
        <time>2011-06-25T12:30:06Z</time>
      </trkpt>
      <trkpt lat="43.330228" lon="-8.421348">
        <ele>110.5</ele>
        <time>2011-06-25T12:30:07Z</time>
      </trkpt>
      <trkpt lat="43.330225" lon="-8.421328">
        <ele>111.5</ele>
        <time>2011-06-25T12:30:08Z</time>
      </trkpt>
      <trkpt lat="43.330217" lon="-8.421307">
        <ele>112.0</ele>
        <time>2011-06-25T12:30:09Z</time>
      </trkpt>
      <trkpt lat="43.330208" lon="-8.421283">
        <ele>113.0</ele>
        <time>2011-06-25T12:30:10Z</time>
      </trkpt>
      <trkpt lat="43.330195" lon="-8.421255">
        <ele>114.0</ele>
        <time>2011-06-25T12:30:11Z</time>
      </trkpt>
      <trkpt lat="43.330183" lon="-8.421225">
        <ele>115.0</ele>
        <time>2011-06-25T12:30:12Z</time>
      </trkpt>
      <trkpt lat="43.330177" lon="-8.421188">
        <ele>114.5</ele>
        <time>2011-06-25T12:30:13Z</time>
      </trkpt>
      <trkpt lat="43.330175" lon="-8.421150">
        <ele>115.0</ele>
        <time>2011-06-25T12:30:14Z</time>
      </trkpt>
      <trkpt lat="43.330170" lon="-8.421113">
        <ele>115.0</ele>
        <time>2011-06-25T12:30:15Z</time>
      </trkpt>
      <trkpt lat="43.330168" lon="-8.421073">
        <ele>115.5</ele>
        <time>2011-06-25T12:30:16Z</time>
      </trkpt>
      <trkpt lat="43.330168" lon="-8.421032">
        <ele>115.5</ele>
        <time>2011-06-25T12:30:17Z</time>
      </trkpt>
      <trkpt lat="43.330168" lon="-8.420987">
        <ele>116.0</ele>
        <time>2011-06-25T12:30:18Z</time>
      </trkpt>
      <trkpt lat="43.330167" lon="-8.420942">
        <ele>116.0</ele>
        <time>2011-06-25T12:30:19Z</time>
      </trkpt>
      <trkpt lat="43.330165" lon="-8.420898">
        <ele>117.0</ele>
        <time>2011-06-25T12:30:20Z</time>
      </trkpt>
      <trkpt lat="43.330167" lon="-8.420853">
        <ele>117.0</ele>
        <time>2011-06-25T12:30:21Z</time>
      </trkpt>
      <trkpt lat="43.330165" lon="-8.420807">
        <ele>118.0</ele>
        <time>2011-06-25T12:30:22Z</time>
      </trkpt>
      <trkpt lat="43.330163" lon="-8.420763">
        <ele>118.0</ele>
        <time>2011-06-25T12:30:23Z</time>
      </trkpt>
      <trkpt lat="43.330165" lon="-8.420720">
        <ele>118.5</ele>
        <time>2011-06-25T12:30:24Z</time>
      </trkpt>
      <trkpt lat="43.330168" lon="-8.420678">
        <ele>119.0</ele>
        <time>2011-06-25T12:30:25Z</time>
      </trkpt>
      <trkpt lat="43.330173" lon="-8.420648">
        <ele>119.5</ele>
        <time>2011-06-25T12:30:26Z</time>
      </trkpt>
      <trkpt lat="43.330178" lon="-8.420620">
        <ele>120.0</ele>
        <time>2011-06-25T12:30:27Z</time>
      </trkpt>
      <trkpt lat="43.330182" lon="-8.420595">
        <ele>120.5</ele>
        <time>2011-06-25T12:30:28Z</time>
      </trkpt>
      <trkpt lat="43.330190" lon="-8.420573">
        <ele>121.0</ele>
        <time>2011-06-25T12:30:29Z</time>
      </trkpt>
      <trkpt lat="43.330198" lon="-8.420547">
        <ele>121.5</ele>
        <time>2011-06-25T12:30:30Z</time>
      </trkpt>
      <trkpt lat="43.330202" lon="-8.420518">
        <ele>121.5</ele>
        <time>2011-06-25T12:30:31Z</time>
      </trkpt>
      <trkpt lat="43.330203" lon="-8.420485">
        <ele>121.0</ele>
        <time>2011-06-25T12:30:32Z</time>
      </trkpt>
      <trkpt lat="43.330202" lon="-8.420455">
        <ele>121.0</ele>
        <time>2011-06-25T12:30:33Z</time>
      </trkpt>
      <trkpt lat="43.330202" lon="-8.420427">
        <ele>121.5</ele>
        <time>2011-06-25T12:30:34Z</time>
      </trkpt>
      <trkpt lat="43.330200" lon="-8.420397">
        <ele>121.0</ele>
        <time>2011-06-25T12:30:35Z</time>
      </trkpt>
      <trkpt lat="43.330198" lon="-8.420367">
        <ele>121.0</ele>
        <time>2011-06-25T12:30:36Z</time>
      </trkpt>
      <trkpt lat="43.330192" lon="-8.420338">
        <ele>119.5</ele>
        <time>2011-06-25T12:30:37Z</time>
      </trkpt>
      <trkpt lat="43.330192" lon="-8.420305">
        <ele>119.0</ele>
        <time>2011-06-25T12:30:38Z</time>
      </trkpt>
      <trkpt lat="43.330190" lon="-8.420275">
        <ele>119.0</ele>
        <time>2011-06-25T12:30:39Z</time>
      </trkpt>
      <trkpt lat="43.330188" lon="-8.420242">
        <ele>119.0</ele>
        <time>2011-06-25T12:30:40Z</time>
      </trkpt>
      <trkpt lat="43.330187" lon="-8.420212">
        <ele>119.5</ele>
        <time>2011-06-25T12:30:41Z</time>
      </trkpt>
      <trkpt lat="43.330183" lon="-8.420183">
        <ele>119.0</ele>
        <time>2011-06-25T12:30:42Z</time>
      </trkpt>
      <trkpt lat="43.330182" lon="-8.420153">
        <ele>119.0</ele>
        <time>2011-06-25T12:30:43Z</time>
      </trkpt>
      <trkpt lat="43.330178" lon="-8.420123">
        <ele>118.5</ele>
        <time>2011-06-25T12:30:44Z</time>
      </trkpt>
      <trkpt lat="43.330177" lon="-8.420092">
        <ele>118.5</ele>
        <time>2011-06-25T12:30:45Z</time>
      </trkpt>
      <trkpt lat="43.330178" lon="-8.420063">
        <ele>118.5</ele>
        <time>2011-06-25T12:30:46Z</time>
      </trkpt>
      <trkpt lat="43.330183" lon="-8.420035">
        <ele>118.5</ele>
        <time>2011-06-25T12:30:47Z</time>
      </trkpt>
      <trkpt lat="43.330195" lon="-8.419982">
        <ele>119.0</ele>
        <time>2011-06-25T12:30:49Z</time>
      </trkpt>
      <trkpt lat="43.330198" lon="-8.419955">
        <ele>119.0</ele>
        <time>2011-06-25T12:30:50Z</time>
      </trkpt>
      <trkpt lat="43.330205" lon="-8.419928">
        <ele>119.0</ele>
        <time>2011-06-25T12:30:51Z</time>
      </trkpt>
      <trkpt lat="43.330217" lon="-8.419898">
        <ele>118.5</ele>
        <time>2011-06-25T12:30:52Z</time>
      </trkpt>
      <trkpt lat="43.330230" lon="-8.419877">
        <ele>118.0</ele>
        <time>2011-06-25T12:30:53Z</time>
      </trkpt>
      <trkpt lat="43.330248" lon="-8.419855">
        <ele>117.0</ele>
        <time>2011-06-25T12:30:54Z</time>
      </trkpt>
      <trkpt lat="43.330263" lon="-8.419843">
        <ele>117.5</ele>
        <time>2011-06-25T12:30:55Z</time>
      </trkpt>
      <trkpt lat="43.330277" lon="-8.419835">
        <ele>118.0</ele>
        <time>2011-06-25T12:30:56Z</time>
      </trkpt>
      <trkpt lat="43.330288" lon="-8.419822">
        <ele>118.5</ele>
        <time>2011-06-25T12:30:57Z</time>
      </trkpt>
      <trkpt lat="43.330297" lon="-8.419808">
        <ele>119.5</ele>
        <time>2011-06-25T12:30:58Z</time>
      </trkpt>
      <trkpt lat="43.330303" lon="-8.419792">
        <ele>121.0</ele>
        <time>2011-06-25T12:30:59Z</time>
      </trkpt>
      <trkpt lat="43.330310" lon="-8.419777">
        <ele>122.0</ele>
        <time>2011-06-25T12:31:00Z</time>
      </trkpt>
      <trkpt lat="43.330320" lon="-8.419762">
        <ele>122.0</ele>
        <time>2011-06-25T12:31:01Z</time>
      </trkpt>
      <trkpt lat="43.330327" lon="-8.419748">
        <ele>123.0</ele>
        <time>2011-06-25T12:31:02Z</time>
      </trkpt>
      <trkpt lat="43.330337" lon="-8.419735">
        <ele>124.0</ele>
        <time>2011-06-25T12:31:03Z</time>
      </trkpt>
      <trkpt lat="43.330345" lon="-8.419722">
        <ele>123.5</ele>
        <time>2011-06-25T12:31:04Z</time>
      </trkpt>
      <trkpt lat="43.330357" lon="-8.419712">
        <ele>124.5</ele>
        <time>2011-06-25T12:31:05Z</time>
      </trkpt>
      <trkpt lat="43.330367" lon="-8.419702">
        <ele>125.0</ele>
        <time>2011-06-25T12:31:06Z</time>
      </trkpt>
      <trkpt lat="43.330378" lon="-8.419688">
        <ele>125.5</ele>
        <time>2011-06-25T12:31:07Z</time>
      </trkpt>
      <trkpt lat="43.330390" lon="-8.419680">
        <ele>126.0</ele>
        <time>2011-06-25T12:31:08Z</time>
      </trkpt>
      <trkpt lat="43.330402" lon="-8.419670">
        <ele>126.5</ele>
        <time>2011-06-25T12:31:09Z</time>
      </trkpt>
      <trkpt lat="43.330413" lon="-8.419662">
        <ele>127.0</ele>
        <time>2011-06-25T12:31:10Z</time>
      </trkpt>
      <trkpt lat="43.330427" lon="-8.419650">
        <ele>127.0</ele>
        <time>2011-06-25T12:31:11Z</time>
      </trkpt>
      <trkpt lat="43.330440" lon="-8.419642">
        <ele>127.5</ele>
        <time>2011-06-25T12:31:12Z</time>
      </trkpt>
      <trkpt lat="43.330453" lon="-8.419632">
        <ele>127.5</ele>
        <time>2011-06-25T12:31:13Z</time>
      </trkpt>
      <trkpt lat="43.330465" lon="-8.419622">
        <ele>128.0</ele>
        <time>2011-06-25T12:31:14Z</time>
      </trkpt>
      <trkpt lat="43.330473" lon="-8.419612">
        <ele>128.0</ele>
        <time>2011-06-25T12:31:15Z</time>
      </trkpt>
      <trkpt lat="43.330483" lon="-8.419600">
        <ele>128.0</ele>
        <time>2011-06-25T12:31:16Z</time>
      </trkpt>
      <trkpt lat="43.330490" lon="-8.419590">
        <ele>129.0</ele>
        <time>2011-06-25T12:31:17Z</time>
      </trkpt>
      <trkpt lat="43.330493" lon="-8.419573">
        <ele>129.0</ele>
        <time>2011-06-25T12:31:18Z</time>
      </trkpt>
      <trkpt lat="43.330500" lon="-8.419560">
        <ele>129.5</ele>
        <time>2011-06-25T12:31:19Z</time>
      </trkpt>
      <trkpt lat="43.330508" lon="-8.419548">
        <ele>130.0</ele>
        <time>2011-06-25T12:31:20Z</time>
      </trkpt>
      <trkpt lat="43.330515" lon="-8.419538">
        <ele>131.0</ele>
        <time>2011-06-25T12:31:21Z</time>
      </trkpt>
      <trkpt lat="43.330520" lon="-8.419528">
        <ele>132.0</ele>
        <time>2011-06-25T12:31:22Z</time>
      </trkpt>
      <trkpt lat="43.330525" lon="-8.419520">
        <ele>134.0</ele>
        <time>2011-06-25T12:31:23Z</time>
      </trkpt>
      <trkpt lat="43.330532" lon="-8.419508">
        <ele>134.5</ele>
        <time>2011-06-25T12:31:24Z</time>
      </trkpt>
      <trkpt lat="43.330535" lon="-8.419498">
        <ele>136.0</ele>
        <time>2011-06-25T12:31:25Z</time>
      </trkpt>
      <trkpt lat="43.330542" lon="-8.419485">
        <ele>136.0</ele>
        <time>2011-06-25T12:31:26Z</time>
      </trkpt>
      <trkpt lat="43.330548" lon="-8.419470">
        <ele>136.5</ele>
        <time>2011-06-25T12:31:27Z</time>
      </trkpt>
      <trkpt lat="43.330553" lon="-8.419453">
        <ele>136.5</ele>
        <time>2011-06-25T12:31:28Z</time>
      </trkpt>
      <trkpt lat="43.330560" lon="-8.419438">
        <ele>136.5</ele>
        <time>2011-06-25T12:31:29Z</time>
      </trkpt>
      <trkpt lat="43.330567" lon="-8.419425">
        <ele>136.0</ele>
        <time>2011-06-25T12:31:30Z</time>
      </trkpt>
      <trkpt lat="43.330573" lon="-8.419410">
        <ele>136.0</ele>
        <time>2011-06-25T12:31:31Z</time>
      </trkpt>
      <trkpt lat="43.330578" lon="-8.419390">
        <ele>135.5</ele>
        <time>2011-06-25T12:31:32Z</time>
      </trkpt>
      <trkpt lat="43.330583" lon="-8.419373">
        <ele>135.0</ele>
        <time>2011-06-25T12:31:33Z</time>
      </trkpt>
      <trkpt lat="43.330588" lon="-8.419358">
        <ele>134.0</ele>
        <time>2011-06-25T12:31:34Z</time>
      </trkpt>
      <trkpt lat="43.330595" lon="-8.419340">
        <ele>133.0</ele>
        <time>2011-06-25T12:31:35Z</time>
      </trkpt>
      <trkpt lat="43.330602" lon="-8.419323">
        <ele>132.0</ele>
        <time>2011-06-25T12:31:36Z</time>
      </trkpt>
      <trkpt lat="43.330607" lon="-8.419307">
        <ele>131.5</ele>
        <time>2011-06-25T12:31:37Z</time>
      </trkpt>
      <trkpt lat="43.330612" lon="-8.419295">
        <ele>132.0</ele>
        <time>2011-06-25T12:31:38Z</time>
      </trkpt>
      <trkpt lat="43.330620" lon="-8.419280">
        <ele>132.0</ele>
        <time>2011-06-25T12:31:39Z</time>
      </trkpt>
      <trkpt lat="43.330632" lon="-8.419270">
        <ele>132.0</ele>
        <time>2011-06-25T12:31:40Z</time>
      </trkpt>
      <trkpt lat="43.330640" lon="-8.419258">
        <ele>132.5</ele>
        <time>2011-06-25T12:31:41Z</time>
      </trkpt>
      <trkpt lat="43.330650" lon="-8.419250">
        <ele>133.0</ele>
        <time>2011-06-25T12:31:42Z</time>
      </trkpt>
      <trkpt lat="43.330660" lon="-8.419240">
        <ele>133.5</ele>
        <time>2011-06-25T12:31:43Z</time>
      </trkpt>
      <trkpt lat="43.330670" lon="-8.419232">
        <ele>134.0</ele>
        <time>2011-06-25T12:31:44Z</time>
      </trkpt>
      <trkpt lat="43.330677" lon="-8.419222">
        <ele>134.5</ele>
        <time>2011-06-25T12:31:45Z</time>
      </trkpt>
      <trkpt lat="43.330682" lon="-8.419210">
        <ele>135.0</ele>
        <time>2011-06-25T12:31:46Z</time>
      </trkpt>
      <trkpt lat="43.330685" lon="-8.419193">
        <ele>135.0</ele>
        <time>2011-06-25T12:31:47Z</time>
      </trkpt>
      <trkpt lat="43.330687" lon="-8.419178">
        <ele>135.0</ele>
        <time>2011-06-25T12:31:48Z</time>
      </trkpt>
      <trkpt lat="43.330692" lon="-8.419165">
        <ele>135.5</ele>
        <time>2011-06-25T12:31:49Z</time>
      </trkpt>
      <trkpt lat="43.330698" lon="-8.419152">
        <ele>136.0</ele>
        <time>2011-06-25T12:31:50Z</time>
      </trkpt>
      <trkpt lat="43.330705" lon="-8.419140">
        <ele>137.0</ele>
        <time>2011-06-25T12:31:51Z</time>
      </trkpt>
      <trkpt lat="43.330710" lon="-8.419125">
        <ele>137.5</ele>
        <time>2011-06-25T12:31:52Z</time>
      </trkpt>
      <trkpt lat="43.330717" lon="-8.419112">
        <ele>137.5</ele>
        <time>2011-06-25T12:31:53Z</time>
      </trkpt>
      <trkpt lat="43.330723" lon="-8.419098">
        <ele>138.0</ele>
        <time>2011-06-25T12:31:54Z</time>
      </trkpt>
      <trkpt lat="43.330728" lon="-8.419087">
        <ele>139.0</ele>
        <time>2011-06-25T12:31:55Z</time>
      </trkpt>
      <trkpt lat="43.330737" lon="-8.419073">
        <ele>139.5</ele>
        <time>2011-06-25T12:31:56Z</time>
      </trkpt>
      <trkpt lat="43.330743" lon="-8.419060">
        <ele>140.0</ele>
        <time>2011-06-25T12:31:57Z</time>
      </trkpt>
      <trkpt lat="43.330752" lon="-8.419048">
        <ele>141.0</ele>
        <time>2011-06-25T12:31:58Z</time>
      </trkpt>
      <trkpt lat="43.330760" lon="-8.419038">
        <ele>141.5</ele>
        <time>2011-06-25T12:31:59Z</time>
      </trkpt>
      <trkpt lat="43.330768" lon="-8.419025">
        <ele>142.0</ele>
        <time>2011-06-25T12:32:00Z</time>
      </trkpt>
      <trkpt lat="43.330777" lon="-8.419012">
        <ele>143.0</ele>
        <time>2011-06-25T12:32:01Z</time>
      </trkpt>
      <trkpt lat="43.330785" lon="-8.419000">
        <ele>143.5</ele>
        <time>2011-06-25T12:32:02Z</time>
      </trkpt>
      <trkpt lat="43.330790" lon="-8.418987">
        <ele>144.0</ele>
        <time>2011-06-25T12:32:03Z</time>
      </trkpt>
      <trkpt lat="43.330797" lon="-8.418970">
        <ele>144.5</ele>
        <time>2011-06-25T12:32:04Z</time>
      </trkpt>
      <trkpt lat="43.330803" lon="-8.418953">
        <ele>145.0</ele>
        <time>2011-06-25T12:32:05Z</time>
      </trkpt>
      <trkpt lat="43.330808" lon="-8.418937">
        <ele>145.5</ele>
        <time>2011-06-25T12:32:06Z</time>
      </trkpt>
      <trkpt lat="43.330815" lon="-8.418920">
        <ele>145.0</ele>
        <time>2011-06-25T12:32:07Z</time>
      </trkpt>
      <trkpt lat="43.330822" lon="-8.418903">
        <ele>145.0</ele>
        <time>2011-06-25T12:32:08Z</time>
      </trkpt>
      <trkpt lat="43.330828" lon="-8.418888">
        <ele>145.0</ele>
        <time>2011-06-25T12:32:09Z</time>
      </trkpt>
      <trkpt lat="43.330837" lon="-8.418873">
        <ele>145.0</ele>
        <time>2011-06-25T12:32:10Z</time>
      </trkpt>
      <trkpt lat="43.330847" lon="-8.418863">
        <ele>145.5</ele>
        <time>2011-06-25T12:32:11Z</time>
      </trkpt>
      <trkpt lat="43.330855" lon="-8.418855">
        <ele>145.5</ele>
        <time>2011-06-25T12:32:12Z</time>
      </trkpt>
      <trkpt lat="43.330863" lon="-8.418847">
        <ele>145.0</ele>
        <time>2011-06-25T12:32:13Z</time>
      </trkpt>
      <trkpt lat="43.330870" lon="-8.418835">
        <ele>145.5</ele>
        <time>2011-06-25T12:32:14Z</time>
      </trkpt>
      <trkpt lat="43.330877" lon="-8.418827">
        <ele>146.0</ele>
        <time>2011-06-25T12:32:15Z</time>
      </trkpt>
      <trkpt lat="43.330885" lon="-8.418818">
        <ele>147.0</ele>
        <time>2011-06-25T12:32:16Z</time>
      </trkpt>
      <trkpt lat="43.330895" lon="-8.418800">
        <ele>146.5</ele>
        <time>2011-06-25T12:32:17Z</time>
      </trkpt>
      <trkpt lat="43.330900" lon="-8.418785">
        <ele>147.0</ele>
        <time>2011-06-25T12:32:18Z</time>
      </trkpt>
      <trkpt lat="43.330905" lon="-8.418767">
        <ele>147.0</ele>
        <time>2011-06-25T12:32:19Z</time>
      </trkpt>
      <trkpt lat="43.330912" lon="-8.418753">
        <ele>147.5</ele>
        <time>2011-06-25T12:32:20Z</time>
      </trkpt>
      <trkpt lat="43.330922" lon="-8.418743">
        <ele>148.5</ele>
        <time>2011-06-25T12:32:21Z</time>
      </trkpt>
      <trkpt lat="43.330930" lon="-8.418730">
        <ele>148.5</ele>
        <time>2011-06-25T12:32:22Z</time>
      </trkpt>
      <trkpt lat="43.330938" lon="-8.418717">
        <ele>148.5</ele>
        <time>2011-06-25T12:32:23Z</time>
      </trkpt>
      <trkpt lat="43.330947" lon="-8.418700">
        <ele>148.0</ele>
        <time>2011-06-25T12:32:24Z</time>
      </trkpt>
      <trkpt lat="43.330955" lon="-8.418688">
        <ele>148.5</ele>
        <time>2011-06-25T12:32:25Z</time>
      </trkpt>
      <trkpt lat="43.330965" lon="-8.418683">
        <ele>149.5</ele>
        <time>2011-06-25T12:32:26Z</time>
      </trkpt>
      <trkpt lat="43.330977" lon="-8.418677">
        <ele>150.5</ele>
        <time>2011-06-25T12:32:27Z</time>
      </trkpt>
      <trkpt lat="43.330992" lon="-8.418670">
        <ele>150.5</ele>
        <time>2011-06-25T12:32:28Z</time>
      </trkpt>
      <trkpt lat="43.331002" lon="-8.418665">
        <ele>151.0</ele>
        <time>2011-06-25T12:32:29Z</time>
      </trkpt>
      <trkpt lat="43.331013" lon="-8.418657">
        <ele>150.5</ele>
        <time>2011-06-25T12:32:30Z</time>
      </trkpt>
      <trkpt lat="43.331025" lon="-8.418652">
        <ele>151.5</ele>
        <time>2011-06-25T12:32:31Z</time>
      </trkpt>
      <trkpt lat="43.331038" lon="-8.418647">
        <ele>152.0</ele>
        <time>2011-06-25T12:32:32Z</time>
      </trkpt>
      <trkpt lat="43.331050" lon="-8.418642">
        <ele>152.5</ele>
        <time>2011-06-25T12:32:33Z</time>
      </trkpt>
      <trkpt lat="43.331065" lon="-8.418637">
        <ele>153.5</ele>
        <time>2011-06-25T12:32:34Z</time>
      </trkpt>
      <trkpt lat="43.331077" lon="-8.418630">
        <ele>154.5</ele>
        <time>2011-06-25T12:32:35Z</time>
      </trkpt>
      <trkpt lat="43.331092" lon="-8.418620">
        <ele>154.0</ele>
        <time>2011-06-25T12:32:36Z</time>
      </trkpt>
      <trkpt lat="43.331102" lon="-8.418610">
        <ele>154.5</ele>
        <time>2011-06-25T12:32:37Z</time>
      </trkpt>
      <trkpt lat="43.331113" lon="-8.418600">
        <ele>155.0</ele>
        <time>2011-06-25T12:32:38Z</time>
      </trkpt>
      <trkpt lat="43.331123" lon="-8.418592">
        <ele>155.5</ele>
        <time>2011-06-25T12:32:39Z</time>
      </trkpt>
      <trkpt lat="43.331133" lon="-8.418583">
        <ele>156.5</ele>
        <time>2011-06-25T12:32:40Z</time>
      </trkpt>
      <trkpt lat="43.331147" lon="-8.418578">
        <ele>157.0</ele>
        <time>2011-06-25T12:32:41Z</time>
      </trkpt>
      <trkpt lat="43.331163" lon="-8.418572">
        <ele>157.0</ele>
        <time>2011-06-25T12:32:42Z</time>
      </trkpt>
      <trkpt lat="43.331177" lon="-8.418568">
        <ele>157.5</ele>
        <time>2011-06-25T12:32:43Z</time>
      </trkpt>
      <trkpt lat="43.331185" lon="-8.418560">
        <ele>158.5</ele>
        <time>2011-06-25T12:32:44Z</time>
      </trkpt>
      <trkpt lat="43.331195" lon="-8.418547">
        <ele>159.0</ele>
        <time>2011-06-25T12:32:45Z</time>
      </trkpt>
      <trkpt lat="43.331203" lon="-8.418533">
        <ele>159.5</ele>
        <time>2011-06-25T12:32:46Z</time>
      </trkpt>
      <trkpt lat="43.331210" lon="-8.418523">
        <ele>161.0</ele>
        <time>2011-06-25T12:32:47Z</time>
      </trkpt>
      <trkpt lat="43.331222" lon="-8.418508">
        <ele>161.0</ele>
        <time>2011-06-25T12:32:48Z</time>
      </trkpt>
      <trkpt lat="43.331232" lon="-8.418490">
        <ele>160.5</ele>
        <time>2011-06-25T12:32:49Z</time>
      </trkpt>
      <trkpt lat="43.331242" lon="-8.418475">
        <ele>160.0</ele>
        <time>2011-06-25T12:32:50Z</time>
      </trkpt>
      <trkpt lat="43.331252" lon="-8.418458">
        <ele>159.5</ele>
        <time>2011-06-25T12:32:51Z</time>
      </trkpt>
      <trkpt lat="43.331257" lon="-8.418438">
        <ele>159.5</ele>
        <time>2011-06-25T12:32:52Z</time>
      </trkpt>
      <trkpt lat="43.331262" lon="-8.418420">
        <ele>159.5</ele>
        <time>2011-06-25T12:32:53Z</time>
      </trkpt>
      <trkpt lat="43.331270" lon="-8.418400">
        <ele>159.0</ele>
        <time>2011-06-25T12:32:54Z</time>
      </trkpt>
      <trkpt lat="43.331280" lon="-8.418380">
        <ele>157.5</ele>
        <time>2011-06-25T12:32:55Z</time>
      </trkpt>
      <trkpt lat="43.331297" lon="-8.418367">
        <ele>156.0</ele>
        <time>2011-06-25T12:32:56Z</time>
      </trkpt>
      <trkpt lat="43.331312" lon="-8.418362">
        <ele>156.5</ele>
        <time>2011-06-25T12:32:57Z</time>
      </trkpt>
      <trkpt lat="43.331330" lon="-8.418358">
        <ele>156.0</ele>
        <time>2011-06-25T12:32:58Z</time>
      </trkpt>
      <trkpt lat="43.331343" lon="-8.418357">
        <ele>156.5</ele>
        <time>2011-06-25T12:32:59Z</time>
      </trkpt>
      <trkpt lat="43.331353" lon="-8.418353">
        <ele>156.5</ele>
        <time>2011-06-25T12:33:00Z</time>
      </trkpt>
      <trkpt lat="43.331367" lon="-8.418343">
        <ele>155.0</ele>
        <time>2011-06-25T12:33:01Z</time>
      </trkpt>
      <trkpt lat="43.331377" lon="-8.418340">
        <ele>154.0</ele>
        <time>2011-06-25T12:33:02Z</time>
      </trkpt>
      <trkpt lat="43.331385" lon="-8.418342">
        <ele>154.0</ele>
        <time>2011-06-25T12:33:03Z</time>
      </trkpt>
      <trkpt lat="43.331393" lon="-8.418342">
        <ele>153.5</ele>
        <time>2011-06-25T12:33:04Z</time>
      </trkpt>
      <trkpt lat="43.331402" lon="-8.418342">
        <ele>152.5</ele>
        <time>2011-06-25T12:33:05Z</time>
      </trkpt>
      <trkpt lat="43.331410" lon="-8.418342">
        <ele>151.5</ele>
        <time>2011-06-25T12:33:06Z</time>
      </trkpt>
      <trkpt lat="43.331418" lon="-8.418345">
        <ele>151.0</ele>
        <time>2011-06-25T12:33:07Z</time>
      </trkpt>
      <trkpt lat="43.331427" lon="-8.418347">
        <ele>150.5</ele>
        <time>2011-06-25T12:33:08Z</time>
      </trkpt>
      <trkpt lat="43.331438" lon="-8.418342">
        <ele>149.5</ele>
        <time>2011-06-25T12:33:09Z</time>
      </trkpt>
      <trkpt lat="43.331450" lon="-8.418340">
        <ele>149.5</ele>
        <time>2011-06-25T12:33:10Z</time>
      </trkpt>
      <trkpt lat="43.331455" lon="-8.418340">
        <ele>149.5</ele>
        <time>2011-06-25T12:33:11Z</time>
      </trkpt>
      <trkpt lat="43.331455" lon="-8.418340">
        <ele>149.5</ele>
        <time>2011-06-25T12:33:12Z</time>
      </trkpt>
      <trkpt lat="43.331463" lon="-8.418338">
        <ele>149.0</ele>
        <time>2011-06-25T12:33:13Z</time>
      </trkpt>
      <trkpt lat="43.331478" lon="-8.418348">
        <ele>148.5</ele>
        <time>2011-06-25T12:33:14Z</time>
      </trkpt>
      <trkpt lat="43.331487" lon="-8.418358">
        <ele>149.0</ele>
        <time>2011-06-25T12:33:15Z</time>
      </trkpt>
      <trkpt lat="43.331497" lon="-8.418368">
        <ele>148.5</ele>
        <time>2011-06-25T12:33:16Z</time>
      </trkpt>
      <trkpt lat="43.331507" lon="-8.418377">
        <ele>148.0</ele>
        <time>2011-06-25T12:33:17Z</time>
      </trkpt>
      <trkpt lat="43.331515" lon="-8.418383">
        <ele>147.5</ele>
        <time>2011-06-25T12:33:18Z</time>
      </trkpt>
      <trkpt lat="43.331522" lon="-8.418390">
        <ele>147.0</ele>
        <time>2011-06-25T12:33:19Z</time>
      </trkpt>
      <trkpt lat="43.331530" lon="-8.418395">
        <ele>146.5</ele>
        <time>2011-06-25T12:33:20Z</time>
      </trkpt>
      <trkpt lat="43.331540" lon="-8.418403">
        <ele>145.5</ele>
        <time>2011-06-25T12:33:21Z</time>
      </trkpt>
      <trkpt lat="43.331550" lon="-8.418413">
        <ele>145.5</ele>
        <time>2011-06-25T12:33:22Z</time>
      </trkpt>
      <trkpt lat="43.331555" lon="-8.418422">
        <ele>145.0</ele>
        <time>2011-06-25T12:33:23Z</time>
      </trkpt>
      <trkpt lat="43.331563" lon="-8.418435">
        <ele>144.5</ele>
        <time>2011-06-25T12:33:24Z</time>
      </trkpt>
      <trkpt lat="43.331570" lon="-8.418445">
        <ele>144.0</ele>
        <time>2011-06-25T12:33:25Z</time>
      </trkpt>
      <trkpt lat="43.331580" lon="-8.418452">
        <ele>143.5</ele>
        <time>2011-06-25T12:33:26Z</time>
      </trkpt>
      <trkpt lat="43.331590" lon="-8.418460">
        <ele>143.5</ele>
        <time>2011-06-25T12:33:27Z</time>
      </trkpt>
      <trkpt lat="43.331600" lon="-8.418470">
        <ele>143.0</ele>
        <time>2011-06-25T12:33:28Z</time>
      </trkpt>
      <trkpt lat="43.331612" lon="-8.418477">
        <ele>143.0</ele>
        <time>2011-06-25T12:33:29Z</time>
      </trkpt>
      <trkpt lat="43.331623" lon="-8.418485">
        <ele>143.0</ele>
        <time>2011-06-25T12:33:30Z</time>
      </trkpt>
      <trkpt lat="43.331640" lon="-8.418497">
        <ele>143.0</ele>
        <time>2011-06-25T12:33:31Z</time>
      </trkpt>
      <trkpt lat="43.331653" lon="-8.418508">
        <ele>143.0</ele>
        <time>2011-06-25T12:33:32Z</time>
      </trkpt>
      <trkpt lat="43.331668" lon="-8.418525">
        <ele>143.0</ele>
        <time>2011-06-25T12:33:33Z</time>
      </trkpt>
      <trkpt lat="43.331682" lon="-8.418537">
        <ele>142.5</ele>
        <time>2011-06-25T12:33:34Z</time>
      </trkpt>
      <trkpt lat="43.331695" lon="-8.418552">
        <ele>142.5</ele>
        <time>2011-06-25T12:33:35Z</time>
      </trkpt>
      <trkpt lat="43.331708" lon="-8.418567">
        <ele>142.5</ele>
        <time>2011-06-25T12:33:36Z</time>
      </trkpt>
      <trkpt lat="43.331722" lon="-8.418577">
        <ele>142.5</ele>
        <time>2011-06-25T12:33:37Z</time>
      </trkpt>
      <trkpt lat="43.331740" lon="-8.418582">
        <ele>142.5</ele>
        <time>2011-06-25T12:33:38Z</time>
      </trkpt>
      <trkpt lat="43.331757" lon="-8.418590">
        <ele>142.0</ele>
        <time>2011-06-25T12:33:39Z</time>
      </trkpt>
      <trkpt lat="43.331775" lon="-8.418600">
        <ele>142.0</ele>
        <time>2011-06-25T12:33:40Z</time>
      </trkpt>
      <trkpt lat="43.331788" lon="-8.418618">
        <ele>142.0</ele>
        <time>2011-06-25T12:33:41Z</time>
      </trkpt>
      <trkpt lat="43.331802" lon="-8.418632">
        <ele>142.5</ele>
        <time>2011-06-25T12:33:42Z</time>
      </trkpt>
      <trkpt lat="43.331820" lon="-8.418647">
        <ele>142.5</ele>
        <time>2011-06-25T12:33:43Z</time>
      </trkpt>
      <trkpt lat="43.331843" lon="-8.418670">
        <ele>142.0</ele>
        <time>2011-06-25T12:33:44Z</time>
      </trkpt>
      <trkpt lat="43.331870" lon="-8.418695">
        <ele>142.0</ele>
        <time>2011-06-25T12:33:45Z</time>
      </trkpt>
      <trkpt lat="43.331897" lon="-8.418723">
        <ele>142.0</ele>
        <time>2011-06-25T12:33:46Z</time>
      </trkpt>
      <trkpt lat="43.331925" lon="-8.418752">
        <ele>142.0</ele>
        <time>2011-06-25T12:33:47Z</time>
      </trkpt>
      <trkpt lat="43.331948" lon="-8.418777">
        <ele>142.5</ele>
        <time>2011-06-25T12:33:48Z</time>
      </trkpt>
      <trkpt lat="43.331970" lon="-8.418798">
        <ele>142.0</ele>
        <time>2011-06-25T12:33:49Z</time>
      </trkpt>
      <trkpt lat="43.331990" lon="-8.418820">
        <ele>142.0</ele>
        <time>2011-06-25T12:33:50Z</time>
      </trkpt>
      <trkpt lat="43.332008" lon="-8.418837">
        <ele>142.0</ele>
        <time>2011-06-25T12:33:51Z</time>
      </trkpt>
      <trkpt lat="43.332027" lon="-8.418860">
        <ele>142.0</ele>
        <time>2011-06-25T12:33:52Z</time>
      </trkpt>
      <trkpt lat="43.332045" lon="-8.418877">
        <ele>142.0</ele>
        <time>2011-06-25T12:33:53Z</time>
      </trkpt>
      <trkpt lat="43.332057" lon="-8.418893">
        <ele>142.5</ele>
        <time>2011-06-25T12:33:54Z</time>
      </trkpt>
      <trkpt lat="43.332070" lon="-8.418912">
        <ele>142.0</ele>
        <time>2011-06-25T12:33:55Z</time>
      </trkpt>
      <trkpt lat="43.332082" lon="-8.418925">
        <ele>142.5</ele>
        <time>2011-06-25T12:33:56Z</time>
      </trkpt>
      <trkpt lat="43.332097" lon="-8.418935">
        <ele>142.5</ele>
        <time>2011-06-25T12:33:57Z</time>
      </trkpt>
      <trkpt lat="43.332110" lon="-8.418942">
        <ele>142.5</ele>
        <time>2011-06-25T12:33:58Z</time>
      </trkpt>
      <trkpt lat="43.332128" lon="-8.418948">
        <ele>143.0</ele>
        <time>2011-06-25T12:33:59Z</time>
      </trkpt>
      <trkpt lat="43.332147" lon="-8.418953">
        <ele>143.0</ele>
        <time>2011-06-25T12:34:00Z</time>
      </trkpt>
      <trkpt lat="43.332167" lon="-8.418957">
        <ele>143.0</ele>
        <time>2011-06-25T12:34:01Z</time>
      </trkpt>
      <trkpt lat="43.332183" lon="-8.418957">
        <ele>143.5</ele>
        <time>2011-06-25T12:34:02Z</time>
      </trkpt>
      <trkpt lat="43.332200" lon="-8.418957">
        <ele>143.5</ele>
        <time>2011-06-25T12:34:03Z</time>
      </trkpt>
      <trkpt lat="43.332215" lon="-8.418957">
        <ele>144.0</ele>
        <time>2011-06-25T12:34:04Z</time>
      </trkpt>
      <trkpt lat="43.332228" lon="-8.418957">
        <ele>144.0</ele>
        <time>2011-06-25T12:34:05Z</time>
      </trkpt>
      <trkpt lat="43.332240" lon="-8.418948">
        <ele>144.0</ele>
        <time>2011-06-25T12:34:06Z</time>
      </trkpt>
      <trkpt lat="43.332252" lon="-8.418938">
        <ele>143.5</ele>
        <time>2011-06-25T12:34:07Z</time>
      </trkpt>
      <trkpt lat="43.332263" lon="-8.418943">
        <ele>144.0</ele>
        <time>2011-06-25T12:34:08Z</time>
      </trkpt>
      <trkpt lat="43.332268" lon="-8.418957">
        <ele>144.0</ele>
        <time>2011-06-25T12:34:09Z</time>
      </trkpt>
      <trkpt lat="43.332272" lon="-8.418962">
        <ele>143.5</ele>
        <time>2011-06-25T12:34:10Z</time>
      </trkpt>
      <trkpt lat="43.332275" lon="-8.418967">
        <ele>143.5</ele>
        <time>2011-06-25T12:34:11Z</time>
      </trkpt>
      <trkpt lat="43.332275" lon="-8.418968">
        <ele>143.5</ele>
        <time>2011-06-25T12:34:12Z</time>
      </trkpt>
      <trkpt lat="43.332275" lon="-8.418970">
        <ele>143.5</ele>
        <time>2011-06-25T12:34:13Z</time>
      </trkpt>
      <trkpt lat="43.332275" lon="-8.418972">
        <ele>143.5</ele>
        <time>2011-06-25T12:34:14Z</time>
      </trkpt>
      <trkpt lat="43.332275" lon="-8.418973">
        <ele>143.0</ele>
        <time>2011-06-25T12:34:15Z</time>
      </trkpt>
      <trkpt lat="43.332277" lon="-8.418973">
        <ele>143.0</ele>
        <time>2011-06-25T12:34:16Z</time>
      </trkpt>
      <trkpt lat="43.332277" lon="-8.418975">
        <ele>143.0</ele>
        <time>2011-06-25T12:34:17Z</time>
      </trkpt>
      <trkpt lat="43.332277" lon="-8.418977">
        <ele>143.0</ele>
        <time>2011-06-25T12:34:18Z</time>
      </trkpt>
      <trkpt lat="43.332277" lon="-8.418977">
        <ele>143.0</ele>
        <time>2011-06-25T12:34:19Z</time>
      </trkpt>
      <trkpt lat="43.332282" lon="-8.418978">
        <ele>143.0</ele>
        <time>2011-06-25T12:34:20Z</time>
      </trkpt>
      <trkpt lat="43.332283" lon="-8.418982">
        <ele>143.0</ele>
        <time>2011-06-25T12:34:21Z</time>
      </trkpt>
      <trkpt lat="43.332283" lon="-8.418983">
        <ele>143.0</ele>
        <time>2011-06-25T12:34:22Z</time>
      </trkpt>
      <trkpt lat="43.332272" lon="-8.418968">
        <ele>141.5</ele>
        <time>2011-06-25T12:34:24Z</time>
      </trkpt>
      <trkpt lat="43.332272" lon="-8.418970">
        <ele>141.0</ele>
        <time>2011-06-25T12:34:25Z</time>
      </trkpt>
      <trkpt lat="43.332275" lon="-8.418968">
        <ele>141.0</ele>
        <time>2011-06-25T12:34:26Z</time>
      </trkpt>
      <trkpt lat="43.332277" lon="-8.418970">
        <ele>140.5</ele>
        <time>2011-06-25T12:34:27Z</time>
      </trkpt>
      <trkpt lat="43.332278" lon="-8.418972">
        <ele>140.5</ele>
        <time>2011-06-25T12:34:28Z</time>
      </trkpt>
      <trkpt lat="43.332282" lon="-8.418973">
        <ele>140.0</ele>
        <time>2011-06-25T12:34:29Z</time>
      </trkpt>
      <trkpt lat="43.332282" lon="-8.418975">
        <ele>140.0</ele>
        <time>2011-06-25T12:34:30Z</time>
      </trkpt>
      <trkpt lat="43.332283" lon="-8.418977">
        <ele>140.0</ele>
        <time>2011-06-25T12:34:31Z</time>
      </trkpt>
      <trkpt lat="43.332285" lon="-8.418978">
        <ele>140.0</ele>
        <time>2011-06-25T12:34:32Z</time>
      </trkpt>
      <trkpt lat="43.332285" lon="-8.418980">
        <ele>140.0</ele>
        <time>2011-06-25T12:34:33Z</time>
      </trkpt>
      <trkpt lat="43.332283" lon="-8.418982">
        <ele>140.0</ele>
        <time>2011-06-25T12:34:34Z</time>
      </trkpt>
      <trkpt lat="43.332283" lon="-8.418983">
        <ele>140.0</ele>
        <time>2011-06-25T12:34:35Z</time>
      </trkpt>
      <trkpt lat="43.332282" lon="-8.418983">
        <ele>140.0</ele>
        <time>2011-06-25T12:34:36Z</time>
      </trkpt>
      <trkpt lat="43.332282" lon="-8.418987">
        <ele>140.0</ele>
        <time>2011-06-25T12:34:37Z</time>
      </trkpt>
      <trkpt lat="43.332278" lon="-8.418990">
        <ele>140.0</ele>
        <time>2011-06-25T12:34:38Z</time>
      </trkpt>
      <trkpt lat="43.332277" lon="-8.418993">
        <ele>140.0</ele>
        <time>2011-06-25T12:34:39Z</time>
      </trkpt>
      <trkpt lat="43.332277" lon="-8.418993">
        <ele>140.0</ele>
        <time>2011-06-25T12:34:40Z</time>
      </trkpt>
      <trkpt lat="43.332278" lon="-8.419013">
        <ele>141.0</ele>
        <time>2011-06-25T12:34:41Z</time>
      </trkpt>
      <trkpt lat="43.332277" lon="-8.419017">
        <ele>141.0</ele>
        <time>2011-06-25T12:34:42Z</time>
      </trkpt>
      <trkpt lat="43.332277" lon="-8.419017">
        <ele>141.0</ele>
        <time>2011-06-25T12:34:43Z</time>
      </trkpt>
      <trkpt lat="43.332277" lon="-8.419017">
        <ele>141.0</ele>
        <time>2011-06-25T12:34:44Z</time>
      </trkpt>
      <trkpt lat="43.332275" lon="-8.419017">
        <ele>141.0</ele>
        <time>2011-06-25T12:34:45Z</time>
      </trkpt>
      <trkpt lat="43.332273" lon="-8.419013">
        <ele>140.5</ele>
        <time>2011-06-25T12:34:46Z</time>
      </trkpt>
      <trkpt lat="43.332272" lon="-8.419013">
        <ele>140.5</ele>
        <time>2011-06-25T12:34:47Z</time>
      </trkpt>
      <trkpt lat="43.332273" lon="-8.419000">
        <ele>141.0</ele>
        <time>2011-06-25T12:34:48Z</time>
      </trkpt>
      <trkpt lat="43.332277" lon="-8.418988">
        <ele>141.0</ele>
        <time>2011-06-25T12:34:49Z</time>
      </trkpt>
      <trkpt lat="43.332283" lon="-8.418968">
        <ele>141.0</ele>
        <time>2011-06-25T12:34:50Z</time>
      </trkpt>
      <trkpt lat="43.332292" lon="-8.418945">
        <ele>141.0</ele>
        <time>2011-06-25T12:34:51Z</time>
      </trkpt>
      <trkpt lat="43.332302" lon="-8.418918">
        <ele>141.5</ele>
        <time>2011-06-25T12:34:52Z</time>
      </trkpt>
      <trkpt lat="43.332312" lon="-8.418888">
        <ele>142.0</ele>
        <time>2011-06-25T12:34:53Z</time>
      </trkpt>
      <trkpt lat="43.332325" lon="-8.418850">
        <ele>142.5</ele>
        <time>2011-06-25T12:34:54Z</time>
      </trkpt>
      <trkpt lat="43.332340" lon="-8.418803">
        <ele>142.0</ele>
        <time>2011-06-25T12:34:55Z</time>
      </trkpt>
      <trkpt lat="43.332358" lon="-8.418752">
        <ele>142.0</ele>
        <time>2011-06-25T12:34:56Z</time>
      </trkpt>
      <trkpt lat="43.332377" lon="-8.418698">
        <ele>143.0</ele>
        <time>2011-06-25T12:34:57Z</time>
      </trkpt>
      <trkpt lat="43.332412" lon="-8.418642">
        <ele>142.5</ele>
        <time>2011-06-25T12:34:58Z</time>
      </trkpt>
      <trkpt lat="43.332455" lon="-8.418587">
        <ele>142.0</ele>
        <time>2011-06-25T12:34:59Z</time>
      </trkpt>
      <trkpt lat="43.332505" lon="-8.418540">
        <ele>141.5</ele>
        <time>2011-06-25T12:35:00Z</time>
      </trkpt>
      <trkpt lat="43.332560" lon="-8.418502">
        <ele>142.0</ele>
        <time>2011-06-25T12:35:01Z</time>
      </trkpt>
      <trkpt lat="43.332617" lon="-8.418458">
        <ele>142.0</ele>
        <time>2011-06-25T12:35:02Z</time>
      </trkpt>
      <trkpt lat="43.332675" lon="-8.418402">
        <ele>142.0</ele>
        <time>2011-06-25T12:35:03Z</time>
      </trkpt>
      <trkpt lat="43.332738" lon="-8.418340">
        <ele>142.0</ele>
        <time>2011-06-25T12:35:04Z</time>
      </trkpt>
      <trkpt lat="43.332803" lon="-8.418277">
        <ele>140.5</ele>
        <time>2011-06-25T12:35:05Z</time>
      </trkpt>
      <trkpt lat="43.332867" lon="-8.418213">
        <ele>139.5</ele>
        <time>2011-06-25T12:35:06Z</time>
      </trkpt>
      <trkpt lat="43.332925" lon="-8.418137">
        <ele>139.0</ele>
        <time>2011-06-25T12:35:07Z</time>
      </trkpt>
      <trkpt lat="43.332978" lon="-8.418050">
        <ele>138.0</ele>
        <time>2011-06-25T12:35:08Z</time>
      </trkpt>
      <trkpt lat="43.333027" lon="-8.417950">
        <ele>136.5</ele>
        <time>2011-06-25T12:35:09Z</time>
      </trkpt>
      <trkpt lat="43.333062" lon="-8.417843">
        <ele>135.5</ele>
        <time>2011-06-25T12:35:10Z</time>
      </trkpt>
      <trkpt lat="43.333088" lon="-8.417748">
        <ele>134.5</ele>
        <time>2011-06-25T12:35:11Z</time>
      </trkpt>
      <trkpt lat="43.333128" lon="-8.417652">
        <ele>133.0</ele>
        <time>2011-06-25T12:35:15Z</time>
      </trkpt>
      <trkpt lat="43.333138" lon="-8.417635">
        <ele>132.0</ele>
        <time>2011-06-25T12:35:16Z</time>
      </trkpt>
      <trkpt lat="43.333143" lon="-8.417620">
        <ele>132.0</ele>
        <time>2011-06-25T12:35:17Z</time>
      </trkpt>
      <trkpt lat="43.333148" lon="-8.417602">
        <ele>131.5</ele>
        <time>2011-06-25T12:35:18Z</time>
      </trkpt>
      <trkpt lat="43.333152" lon="-8.417582">
        <ele>131.0</ele>
        <time>2011-06-25T12:35:19Z</time>
      </trkpt>
      <trkpt lat="43.333160" lon="-8.417568">
        <ele>131.0</ele>
        <time>2011-06-25T12:35:20Z</time>
      </trkpt>
    </trkseg>
  </trk>
  <trk>
    <name>T2067676-24</name>
    <cmt>saida con compañeiros do C.C.Arteixo polos arredores da Coruña</cmt>
    <desc>saida con compañeiros do C.C.Arteixo polos arredores da Coruña</desc>
    <trkseg>
      <trkpt lat="43.333178" lon="-8.417558">
        <ele>129.5</ele>
        <time>2011-06-25T12:35:21Z</time>
      </trkpt>
      <trkpt lat="43.333185" lon="-8.417542">
        <ele>129.5</ele>
        <time>2011-06-25T12:35:22Z</time>
      </trkpt>
      <trkpt lat="43.333187" lon="-8.417523">
        <ele>129.0</ele>
        <time>2011-06-25T12:35:23Z</time>
      </trkpt>
      <trkpt lat="43.333172" lon="-8.417507">
        <ele>130.0</ele>
        <time>2011-06-25T12:35:24Z</time>
      </trkpt>
      <trkpt lat="43.333158" lon="-8.417487">
        <ele>130.0</ele>
        <time>2011-06-25T12:35:25Z</time>
      </trkpt>
      <trkpt lat="43.333143" lon="-8.417478">
        <ele>130.5</ele>
        <time>2011-06-25T12:35:26Z</time>
      </trkpt>
      <trkpt lat="43.333130" lon="-8.417453">
        <ele>130.5</ele>
        <time>2011-06-25T12:35:27Z</time>
      </trkpt>
      <trkpt lat="43.333113" lon="-8.417425">
        <ele>129.5</ele>
        <time>2011-06-25T12:35:28Z</time>
      </trkpt>
      <trkpt lat="43.333095" lon="-8.417393">
        <ele>129.0</ele>
        <time>2011-06-25T12:35:29Z</time>
      </trkpt>
      <trkpt lat="43.333080" lon="-8.417363">
        <ele>129.0</ele>
        <time>2011-06-25T12:35:30Z</time>
      </trkpt>
      <trkpt lat="43.333065" lon="-8.417320">
        <ele>128.0</ele>
        <time>2011-06-25T12:35:31Z</time>
      </trkpt>
      <trkpt lat="43.333047" lon="-8.417278">
        <ele>128.0</ele>
        <time>2011-06-25T12:35:32Z</time>
      </trkpt>
      <trkpt lat="43.333025" lon="-8.417245">
        <ele>128.5</ele>
        <time>2011-06-25T12:35:33Z</time>
      </trkpt>
      <trkpt lat="43.333002" lon="-8.417213">
        <ele>129.0</ele>
        <time>2011-06-25T12:35:34Z</time>
      </trkpt>
      <trkpt lat="43.332978" lon="-8.417173">
        <ele>128.0</ele>
        <time>2011-06-25T12:35:35Z</time>
      </trkpt>
      <trkpt lat="43.332957" lon="-8.417150">
        <ele>128.0</ele>
        <time>2011-06-25T12:35:36Z</time>
      </trkpt>
      <trkpt lat="43.332933" lon="-8.417127">
        <ele>128.0</ele>
        <time>2011-06-25T12:35:37Z</time>
      </trkpt>
      <trkpt lat="43.332903" lon="-8.417088">
        <ele>128.0</ele>
        <time>2011-06-25T12:35:38Z</time>
      </trkpt>
      <trkpt lat="43.332873" lon="-8.417062">
        <ele>128.0</ele>
        <time>2011-06-25T12:35:39Z</time>
      </trkpt>
      <trkpt lat="43.332838" lon="-8.417025">
        <ele>127.5</ele>
        <time>2011-06-25T12:35:40Z</time>
      </trkpt>
      <trkpt lat="43.332802" lon="-8.416985">
        <ele>127.0</ele>
        <time>2011-06-25T12:35:41Z</time>
      </trkpt>
      <trkpt lat="43.332767" lon="-8.416943">
        <ele>126.5</ele>
        <time>2011-06-25T12:35:42Z</time>
      </trkpt>
      <trkpt lat="43.332733" lon="-8.416902">
        <ele>126.5</ele>
        <time>2011-06-25T12:35:43Z</time>
      </trkpt>
      <trkpt lat="43.332707" lon="-8.416865">
        <ele>127.0</ele>
        <time>2011-06-25T12:35:44Z</time>
      </trkpt>
      <trkpt lat="43.332662" lon="-8.416808">
        <ele>128.0</ele>
        <time>2011-06-25T12:35:46Z</time>
      </trkpt>
      <trkpt lat="43.332633" lon="-8.416775">
        <ele>128.0</ele>
        <time>2011-06-25T12:35:47Z</time>
      </trkpt>
      <trkpt lat="43.332602" lon="-8.416738">
        <ele>128.0</ele>
        <time>2011-06-25T12:35:48Z</time>
      </trkpt>
      <trkpt lat="43.332572" lon="-8.416705">
        <ele>128.5</ele>
        <time>2011-06-25T12:35:49Z</time>
      </trkpt>
      <trkpt lat="43.332548" lon="-8.416678">
        <ele>129.0</ele>
        <time>2011-06-25T12:35:50Z</time>
      </trkpt>
      <trkpt lat="43.332530" lon="-8.416652">
        <ele>130.0</ele>
        <time>2011-06-25T12:35:51Z</time>
      </trkpt>
      <trkpt lat="43.332515" lon="-8.416613">
        <ele>129.5</ele>
        <time>2011-06-25T12:35:52Z</time>
      </trkpt>
      <trkpt lat="43.332505" lon="-8.416575">
        <ele>129.0</ele>
        <time>2011-06-25T12:35:53Z</time>
      </trkpt>
      <trkpt lat="43.332498" lon="-8.416552">
        <ele>129.0</ele>
        <time>2011-06-25T12:35:54Z</time>
      </trkpt>
      <trkpt lat="43.332487" lon="-8.416527">
        <ele>129.0</ele>
        <time>2011-06-25T12:35:55Z</time>
      </trkpt>
      <trkpt lat="43.332468" lon="-8.416493">
        <ele>129.0</ele>
        <time>2011-06-25T12:35:56Z</time>
      </trkpt>
      <trkpt lat="43.332445" lon="-8.416462">
        <ele>128.5</ele>
        <time>2011-06-25T12:35:57Z</time>
      </trkpt>
      <trkpt lat="43.332423" lon="-8.416442">
        <ele>129.0</ele>
        <time>2011-06-25T12:35:58Z</time>
      </trkpt>
      <trkpt lat="43.332403" lon="-8.416427">
        <ele>130.0</ele>
        <time>2011-06-25T12:35:59Z</time>
      </trkpt>
      <trkpt lat="43.332383" lon="-8.416402">
        <ele>130.0</ele>
        <time>2011-06-25T12:36:00Z</time>
      </trkpt>
      <trkpt lat="43.332362" lon="-8.416377">
        <ele>129.0</ele>
        <time>2011-06-25T12:36:01Z</time>
      </trkpt>
      <trkpt lat="43.332345" lon="-8.416348">
        <ele>129.0</ele>
        <time>2011-06-25T12:36:02Z</time>
      </trkpt>
      <trkpt lat="43.332330" lon="-8.416320">
        <ele>128.5</ele>
        <time>2011-06-25T12:36:03Z</time>
      </trkpt>
      <trkpt lat="43.332318" lon="-8.416292">
        <ele>128.5</ele>
        <time>2011-06-25T12:36:04Z</time>
      </trkpt>
      <trkpt lat="43.332310" lon="-8.416255">
        <ele>127.5</ele>
        <time>2011-06-25T12:36:05Z</time>
      </trkpt>
      <trkpt lat="43.332315" lon="-8.416212">
        <ele>126.0</ele>
        <time>2011-06-25T12:36:06Z</time>
      </trkpt>
      <trkpt lat="43.332355" lon="-8.416187">
        <ele>126.0</ele>
        <time>2011-06-25T12:36:07Z</time>
      </trkpt>
      <trkpt lat="43.332398" lon="-8.416175">
        <ele>125.5</ele>
        <time>2011-06-25T12:36:08Z</time>
      </trkpt>
      <trkpt lat="43.332450" lon="-8.416172">
        <ele>125.0</ele>
        <time>2011-06-25T12:36:09Z</time>
      </trkpt>
      <trkpt lat="43.332503" lon="-8.416155">
        <ele>124.5</ele>
        <time>2011-06-25T12:36:10Z</time>
      </trkpt>
      <trkpt lat="43.332548" lon="-8.416127">
        <ele>125.0</ele>
        <time>2011-06-25T12:36:11Z</time>
      </trkpt>
      <trkpt lat="43.332582" lon="-8.416062">
        <ele>125.0</ele>
        <time>2011-06-25T12:36:12Z</time>
      </trkpt>
      <trkpt lat="43.332617" lon="-8.415990">
        <ele>124.5</ele>
        <time>2011-06-25T12:36:13Z</time>
      </trkpt>
      <trkpt lat="43.332648" lon="-8.415907">
        <ele>123.0</ele>
        <time>2011-06-25T12:36:14Z</time>
      </trkpt>
      <trkpt lat="43.332662" lon="-8.415803">
        <ele>123.0</ele>
        <time>2011-06-25T12:36:15Z</time>
      </trkpt>
      <trkpt lat="43.332608" lon="-8.415768">
        <ele>123.0</ele>
        <time>2011-06-25T12:36:16Z</time>
      </trkpt>
      <trkpt lat="43.332567" lon="-8.415760">
        <ele>123.0</ele>
        <time>2011-06-25T12:36:17Z</time>
      </trkpt>
      <trkpt lat="43.332563" lon="-8.415727">
        <ele>123.0</ele>
        <time>2011-06-25T12:36:18Z</time>
      </trkpt>
      <trkpt lat="43.332572" lon="-8.415705">
        <ele>123.0</ele>
        <time>2011-06-25T12:36:19Z</time>
      </trkpt>
      <trkpt lat="43.332598" lon="-8.415690">
        <ele>123.0</ele>
        <time>2011-06-25T12:36:20Z</time>
      </trkpt>
      <trkpt lat="43.332632" lon="-8.415663">
        <ele>123.5</ele>
        <time>2011-06-25T12:36:21Z</time>
      </trkpt>
      <trkpt lat="43.332655" lon="-8.415635">
        <ele>123.5</ele>
        <time>2011-06-25T12:36:22Z</time>
      </trkpt>
      <trkpt lat="43.332698" lon="-8.415635">
        <ele>123.5</ele>
        <time>2011-06-25T12:36:23Z</time>
      </trkpt>
      <trkpt lat="43.332748" lon="-8.415637">
        <ele>123.5</ele>
        <time>2011-06-25T12:36:24Z</time>
      </trkpt>
      <trkpt lat="43.332798" lon="-8.415638">
        <ele>124.0</ele>
        <time>2011-06-25T12:36:25Z</time>
      </trkpt>
      <trkpt lat="43.332842" lon="-8.415637">
        <ele>126.0</ele>
        <time>2011-06-25T12:36:26Z</time>
      </trkpt>
      <trkpt lat="43.332872" lon="-8.415605">
        <ele>126.5</ele>
        <time>2011-06-25T12:36:27Z</time>
      </trkpt>
      <trkpt lat="43.332900" lon="-8.415558">
        <ele>127.0</ele>
        <time>2011-06-25T12:36:28Z</time>
      </trkpt>
      <trkpt lat="43.332933" lon="-8.415513">
        <ele>127.0</ele>
        <time>2011-06-25T12:36:29Z</time>
      </trkpt>
      <trkpt lat="43.332933" lon="-8.415452">
        <ele>128.5</ele>
        <time>2011-06-25T12:36:30Z</time>
      </trkpt>
      <trkpt lat="43.332930" lon="-8.415418">
        <ele>129.0</ele>
        <time>2011-06-25T12:36:31Z</time>
      </trkpt>
      <trkpt lat="43.332933" lon="-8.415382">
        <ele>130.5</ele>
        <time>2011-06-25T12:36:33Z</time>
      </trkpt>
      <trkpt lat="43.332942" lon="-8.415370">
        <ele>130.5</ele>
        <time>2011-06-25T12:36:34Z</time>
      </trkpt>
      <trkpt lat="43.332947" lon="-8.415365">
        <ele>130.5</ele>
        <time>2011-06-25T12:36:35Z</time>
      </trkpt>
      <trkpt lat="43.332963" lon="-8.415358">
        <ele>130.0</ele>
        <time>2011-06-25T12:36:36Z</time>
      </trkpt>
      <trkpt lat="43.332973" lon="-8.415350">
        <ele>130.0</ele>
        <time>2011-06-25T12:36:37Z</time>
      </trkpt>
      <trkpt lat="43.332982" lon="-8.415318">
        <ele>130.0</ele>
        <time>2011-06-25T12:36:38Z</time>
      </trkpt>
      <trkpt lat="43.332997" lon="-8.415292">
        <ele>131.0</ele>
        <time>2011-06-25T12:36:39Z</time>
      </trkpt>
      <trkpt lat="43.333025" lon="-8.415265">
        <ele>131.0</ele>
        <time>2011-06-25T12:36:40Z</time>
      </trkpt>
      <trkpt lat="43.333105" lon="-8.415237">
        <ele>130.0</ele>
        <time>2011-06-25T12:36:42Z</time>
      </trkpt>
      <trkpt lat="43.333130" lon="-8.415253">
        <ele>130.0</ele>
        <time>2011-06-25T12:36:43Z</time>
      </trkpt>
      <trkpt lat="43.333222" lon="-8.415278">
        <ele>129.0</ele>
        <time>2011-06-25T12:36:45Z</time>
      </trkpt>
      <trkpt lat="43.333280" lon="-8.415255">
        <ele>128.0</ele>
        <time>2011-06-25T12:36:47Z</time>
      </trkpt>
      <trkpt lat="43.333308" lon="-8.415248">
        <ele>127.5</ele>
        <time>2011-06-25T12:36:48Z</time>
      </trkpt>
      <trkpt lat="43.333350" lon="-8.415267">
        <ele>128.0</ele>
        <time>2011-06-25T12:36:49Z</time>
      </trkpt>
      <trkpt lat="43.333382" lon="-8.415278">
        <ele>128.0</ele>
        <time>2011-06-25T12:36:50Z</time>
      </trkpt>
      <trkpt lat="43.333403" lon="-8.415292">
        <ele>127.0</ele>
        <time>2011-06-25T12:36:51Z</time>
      </trkpt>
      <trkpt lat="43.333448" lon="-8.415315">
        <ele>125.5</ele>
        <time>2011-06-25T12:36:53Z</time>
      </trkpt>
      <trkpt lat="43.333467" lon="-8.415328">
        <ele>125.0</ele>
        <time>2011-06-25T12:36:54Z</time>
      </trkpt>
      <trkpt lat="43.333483" lon="-8.415345">
        <ele>124.5</ele>
        <time>2011-06-25T12:36:55Z</time>
      </trkpt>
      <trkpt lat="43.333503" lon="-8.415362">
        <ele>125.0</ele>
        <time>2011-06-25T12:36:56Z</time>
      </trkpt>
      <trkpt lat="43.333522" lon="-8.415383">
        <ele>125.0</ele>
        <time>2011-06-25T12:36:57Z</time>
      </trkpt>
      <trkpt lat="43.333547" lon="-8.415403">
        <ele>124.5</ele>
        <time>2011-06-25T12:36:58Z</time>
      </trkpt>
      <trkpt lat="43.333630" lon="-8.415417">
        <ele>127.5</ele>
        <time>2011-06-25T12:37:00Z</time>
      </trkpt>
      <trkpt lat="43.333653" lon="-8.415388">
        <ele>127.0</ele>
        <time>2011-06-25T12:37:01Z</time>
      </trkpt>
      <trkpt lat="43.333673" lon="-8.415357">
        <ele>128.5</ele>
        <time>2011-06-25T12:37:02Z</time>
      </trkpt>
      <trkpt lat="43.333697" lon="-8.415320">
        <ele>128.5</ele>
        <time>2011-06-25T12:37:03Z</time>
      </trkpt>
      <trkpt lat="43.333725" lon="-8.415288">
        <ele>128.0</ele>
        <time>2011-06-25T12:37:04Z</time>
      </trkpt>
      <trkpt lat="43.333755" lon="-8.415260">
        <ele>127.0</ele>
        <time>2011-06-25T12:37:05Z</time>
      </trkpt>
      <trkpt lat="43.333785" lon="-8.415240">
        <ele>126.5</ele>
        <time>2011-06-25T12:37:06Z</time>
      </trkpt>
      <trkpt lat="43.333807" lon="-8.415223">
        <ele>125.5</ele>
        <time>2011-06-25T12:37:07Z</time>
      </trkpt>
      <trkpt lat="43.333817" lon="-8.415213">
        <ele>124.5</ele>
        <time>2011-06-25T12:37:08Z</time>
      </trkpt>
      <trkpt lat="43.333828" lon="-8.415198">
        <ele>124.0</ele>
        <time>2011-06-25T12:37:09Z</time>
      </trkpt>
      <trkpt lat="43.333842" lon="-8.415183">
        <ele>123.5</ele>
        <time>2011-06-25T12:37:10Z</time>
      </trkpt>
      <trkpt lat="43.333857" lon="-8.415163">
        <ele>123.5</ele>
        <time>2011-06-25T12:37:11Z</time>
      </trkpt>
      <trkpt lat="43.333873" lon="-8.415148">
        <ele>123.5</ele>
        <time>2011-06-25T12:37:12Z</time>
      </trkpt>
      <trkpt lat="43.333888" lon="-8.415133">
        <ele>123.5</ele>
        <time>2011-06-25T12:37:13Z</time>
      </trkpt>
      <trkpt lat="43.333902" lon="-8.415117">
        <ele>123.0</ele>
        <time>2011-06-25T12:37:14Z</time>
      </trkpt>
      <trkpt lat="43.333915" lon="-8.415093">
        <ele>122.5</ele>
        <time>2011-06-25T12:37:15Z</time>
      </trkpt>
      <trkpt lat="43.333935" lon="-8.415063">
        <ele>121.0</ele>
        <time>2011-06-25T12:37:16Z</time>
      </trkpt>
      <trkpt lat="43.333955" lon="-8.415028">
        <ele>119.5</ele>
        <time>2011-06-25T12:37:17Z</time>
      </trkpt>
      <trkpt lat="43.333978" lon="-8.414990">
        <ele>119.0</ele>
        <time>2011-06-25T12:37:18Z</time>
      </trkpt>
      <trkpt lat="43.333997" lon="-8.414955">
        <ele>118.0</ele>
        <time>2011-06-25T12:37:19Z</time>
      </trkpt>
      <trkpt lat="43.334018" lon="-8.414920">
        <ele>116.5</ele>
        <time>2011-06-25T12:37:20Z</time>
      </trkpt>
      <trkpt lat="43.334038" lon="-8.414882">
        <ele>115.5</ele>
        <time>2011-06-25T12:37:21Z</time>
      </trkpt>
      <trkpt lat="43.334058" lon="-8.414842">
        <ele>114.0</ele>
        <time>2011-06-25T12:37:22Z</time>
      </trkpt>
      <trkpt lat="43.334080" lon="-8.414793">
        <ele>113.0</ele>
        <time>2011-06-25T12:37:23Z</time>
      </trkpt>
      <trkpt lat="43.334108" lon="-8.414745">
        <ele>113.0</ele>
        <time>2011-06-25T12:37:24Z</time>
      </trkpt>
      <trkpt lat="43.334137" lon="-8.414693">
        <ele>112.0</ele>
        <time>2011-06-25T12:37:25Z</time>
      </trkpt>
      <trkpt lat="43.334165" lon="-8.414638">
        <ele>111.5</ele>
        <time>2011-06-25T12:37:26Z</time>
      </trkpt>
      <trkpt lat="43.334192" lon="-8.414577">
        <ele>110.5</ele>
        <time>2011-06-25T12:37:27Z</time>
      </trkpt>
      <trkpt lat="43.334222" lon="-8.414512">
        <ele>110.0</ele>
        <time>2011-06-25T12:37:28Z</time>
      </trkpt>
      <trkpt lat="43.334257" lon="-8.414445">
        <ele>109.0</ele>
        <time>2011-06-25T12:37:29Z</time>
      </trkpt>
      <trkpt lat="43.334292" lon="-8.414377">
        <ele>108.0</ele>
        <time>2011-06-25T12:37:30Z</time>
      </trkpt>
      <trkpt lat="43.334330" lon="-8.414310">
        <ele>107.0</ele>
        <time>2011-06-25T12:37:31Z</time>
      </trkpt>
      <trkpt lat="43.334375" lon="-8.414252">
        <ele>107.0</ele>
        <time>2011-06-25T12:37:32Z</time>
      </trkpt>
      <trkpt lat="43.334418" lon="-8.414195">
        <ele>107.0</ele>
        <time>2011-06-25T12:37:33Z</time>
      </trkpt>
      <trkpt lat="43.334457" lon="-8.414137">
        <ele>106.5</ele>
        <time>2011-06-25T12:37:34Z</time>
      </trkpt>
      <trkpt lat="43.334495" lon="-8.414077">
        <ele>105.0</ele>
        <time>2011-06-25T12:37:35Z</time>
      </trkpt>
      <trkpt lat="43.334533" lon="-8.414012">
        <ele>104.0</ele>
        <time>2011-06-25T12:37:36Z</time>
      </trkpt>
      <trkpt lat="43.334572" lon="-8.413945">
        <ele>102.5</ele>
        <time>2011-06-25T12:37:37Z</time>
      </trkpt>
      <trkpt lat="43.334612" lon="-8.413878">
        <ele>102.0</ele>
        <time>2011-06-25T12:37:38Z</time>
      </trkpt>
      <trkpt lat="43.334648" lon="-8.413808">
        <ele>101.0</ele>
        <time>2011-06-25T12:37:39Z</time>
      </trkpt>
      <trkpt lat="43.334685" lon="-8.413740">
        <ele>101.5</ele>
        <time>2011-06-25T12:37:40Z</time>
      </trkpt>
      <trkpt lat="43.334717" lon="-8.413682">
        <ele>101.0</ele>
        <time>2011-06-25T12:37:41Z</time>
      </trkpt>
      <trkpt lat="43.334752" lon="-8.413628">
        <ele>100.5</ele>
        <time>2011-06-25T12:37:42Z</time>
      </trkpt>
      <trkpt lat="43.334793" lon="-8.413575">
        <ele>99.5</ele>
        <time>2011-06-25T12:37:43Z</time>
      </trkpt>
      <trkpt lat="43.334827" lon="-8.413520">
        <ele>102.5</ele>
        <time>2011-06-25T12:37:44Z</time>
      </trkpt>
      <trkpt lat="43.334865" lon="-8.413472">
        <ele>104.0</ele>
        <time>2011-06-25T12:37:45Z</time>
      </trkpt>
      <trkpt lat="43.334897" lon="-8.413433">
        <ele>105.0</ele>
        <time>2011-06-25T12:37:46Z</time>
      </trkpt>
      <trkpt lat="43.335045" lon="-8.413208">
        <ele>106.0</ele>
        <time>2011-06-25T12:37:49Z</time>
      </trkpt>
      <trkpt lat="43.335133" lon="-8.413027">
        <ele>106.0</ele>
        <time>2011-06-25T12:37:53Z</time>
      </trkpt>
      <trkpt lat="43.335292" lon="-8.412900">
        <ele>105.5</ele>
        <time>2011-06-25T12:37:57Z</time>
      </trkpt>
      <trkpt lat="43.335323" lon="-8.412872">
        <ele>105.0</ele>
        <time>2011-06-25T12:37:58Z</time>
      </trkpt>
      <trkpt lat="43.335330" lon="-8.412812">
        <ele>104.5</ele>
        <time>2011-06-25T12:37:59Z</time>
      </trkpt>
      <trkpt lat="43.335382" lon="-8.412790">
        <ele>104.0</ele>
        <time>2011-06-25T12:38:00Z</time>
      </trkpt>
      <trkpt lat="43.335503" lon="-8.412763">
        <ele>100.5</ele>
        <time>2011-06-25T12:38:02Z</time>
      </trkpt>
      <trkpt lat="43.335547" lon="-8.412785">
        <ele>100.5</ele>
        <time>2011-06-25T12:38:04Z</time>
      </trkpt>
      <trkpt lat="43.335560" lon="-8.412782">
        <ele>100.5</ele>
        <time>2011-06-25T12:38:05Z</time>
      </trkpt>
      <trkpt lat="43.335572" lon="-8.412778">
        <ele>100.5</ele>
        <time>2011-06-25T12:38:06Z</time>
      </trkpt>
      <trkpt lat="43.335648" lon="-8.412750">
        <ele>100.0</ele>
        <time>2011-06-25T12:38:08Z</time>
      </trkpt>
      <trkpt lat="43.335685" lon="-8.412742">
        <ele>100.0</ele>
        <time>2011-06-25T12:38:09Z</time>
      </trkpt>
      <trkpt lat="43.335890" lon="-8.412640">
        <ele>101.5</ele>
        <time>2011-06-25T12:38:12Z</time>
      </trkpt>
      <trkpt lat="43.335918" lon="-8.412592">
        <ele>101.5</ele>
        <time>2011-06-25T12:38:13Z</time>
      </trkpt>
      <trkpt lat="43.335948" lon="-8.412552">
        <ele>101.5</ele>
        <time>2011-06-25T12:38:14Z</time>
      </trkpt>
      <trkpt lat="43.336078" lon="-8.412517">
        <ele>102.5</ele>
        <time>2011-06-25T12:38:16Z</time>
      </trkpt>
      <trkpt lat="43.336123" lon="-8.412492">
        <ele>102.5</ele>
        <time>2011-06-25T12:38:17Z</time>
      </trkpt>
      <trkpt lat="43.336170" lon="-8.412463">
        <ele>102.0</ele>
        <time>2011-06-25T12:38:18Z</time>
      </trkpt>
      <trkpt lat="43.336217" lon="-8.412440">
        <ele>102.0</ele>
        <time>2011-06-25T12:38:19Z</time>
      </trkpt>
      <trkpt lat="43.336260" lon="-8.412412">
        <ele>102.0</ele>
        <time>2011-06-25T12:38:20Z</time>
      </trkpt>
      <trkpt lat="43.336302" lon="-8.412383">
        <ele>102.0</ele>
        <time>2011-06-25T12:38:21Z</time>
      </trkpt>
      <trkpt lat="43.336345" lon="-8.412363">
        <ele>102.0</ele>
        <time>2011-06-25T12:38:22Z</time>
      </trkpt>
      <trkpt lat="43.336393" lon="-8.412378">
        <ele>101.5</ele>
        <time>2011-06-25T12:38:23Z</time>
      </trkpt>
      <trkpt lat="43.336430" lon="-8.412385">
        <ele>102.0</ele>
        <time>2011-06-25T12:38:24Z</time>
      </trkpt>
      <trkpt lat="43.336460" lon="-8.412365">
        <ele>104.0</ele>
        <time>2011-06-25T12:38:25Z</time>
      </trkpt>
      <trkpt lat="43.336495" lon="-8.412342">
        <ele>105.5</ele>
        <time>2011-06-25T12:38:26Z</time>
      </trkpt>
      <trkpt lat="43.336533" lon="-8.412315">
        <ele>106.5</ele>
        <time>2011-06-25T12:38:27Z</time>
      </trkpt>
      <trkpt lat="43.336573" lon="-8.412290">
        <ele>107.0</ele>
        <time>2011-06-25T12:38:28Z</time>
      </trkpt>
      <trkpt lat="43.336610" lon="-8.412265">
        <ele>107.5</ele>
        <time>2011-06-25T12:38:29Z</time>
      </trkpt>
      <trkpt lat="43.336647" lon="-8.412243">
        <ele>108.0</ele>
        <time>2011-06-25T12:38:30Z</time>
      </trkpt>
      <trkpt lat="43.336680" lon="-8.412220">
        <ele>109.0</ele>
        <time>2011-06-25T12:38:31Z</time>
      </trkpt>
      <trkpt lat="43.336715" lon="-8.412200">
        <ele>109.5</ele>
        <time>2011-06-25T12:38:32Z</time>
      </trkpt>
      <trkpt lat="43.336747" lon="-8.412182">
        <ele>111.0</ele>
        <time>2011-06-25T12:38:33Z</time>
      </trkpt>
      <trkpt lat="43.336780" lon="-8.412165">
        <ele>111.5</ele>
        <time>2011-06-25T12:38:34Z</time>
      </trkpt>
      <trkpt lat="43.336813" lon="-8.412145">
        <ele>112.0</ele>
        <time>2011-06-25T12:38:35Z</time>
      </trkpt>
      <trkpt lat="43.336843" lon="-8.412125">
        <ele>112.5</ele>
        <time>2011-06-25T12:38:36Z</time>
      </trkpt>
      <trkpt lat="43.336870" lon="-8.412103">
        <ele>113.5</ele>
        <time>2011-06-25T12:38:37Z</time>
      </trkpt>
      <trkpt lat="43.336898" lon="-8.412082">
        <ele>113.5</ele>
        <time>2011-06-25T12:38:38Z</time>
      </trkpt>
      <trkpt lat="43.336928" lon="-8.412057">
        <ele>114.0</ele>
        <time>2011-06-25T12:38:39Z</time>
      </trkpt>
      <trkpt lat="43.336958" lon="-8.412030">
        <ele>114.0</ele>
        <time>2011-06-25T12:38:40Z</time>
      </trkpt>
      <trkpt lat="43.336990" lon="-8.412003">
        <ele>113.5</ele>
        <time>2011-06-25T12:38:41Z</time>
      </trkpt>
      <trkpt lat="43.337022" lon="-8.411977">
        <ele>113.0</ele>
        <time>2011-06-25T12:38:42Z</time>
      </trkpt>
      <trkpt lat="43.337053" lon="-8.411955">
        <ele>113.0</ele>
        <time>2011-06-25T12:38:43Z</time>
      </trkpt>
      <trkpt lat="43.337087" lon="-8.411932">
        <ele>113.0</ele>
        <time>2011-06-25T12:38:44Z</time>
      </trkpt>
      <trkpt lat="43.337113" lon="-8.411905">
        <ele>114.0</ele>
        <time>2011-06-25T12:38:45Z</time>
      </trkpt>
      <trkpt lat="43.337142" lon="-8.411882">
        <ele>114.5</ele>
        <time>2011-06-25T12:38:46Z</time>
      </trkpt>
      <trkpt lat="43.337172" lon="-8.411862">
        <ele>116.0</ele>
        <time>2011-06-25T12:38:47Z</time>
      </trkpt>
      <trkpt lat="43.337205" lon="-8.411837">
        <ele>116.5</ele>
        <time>2011-06-25T12:38:48Z</time>
      </trkpt>
      <trkpt lat="43.337240" lon="-8.411810">
        <ele>117.0</ele>
        <time>2011-06-25T12:38:49Z</time>
      </trkpt>
      <trkpt lat="43.337273" lon="-8.411783">
        <ele>116.5</ele>
        <time>2011-06-25T12:38:50Z</time>
      </trkpt>
      <trkpt lat="43.337295" lon="-8.411758">
        <ele>115.5</ele>
        <time>2011-06-25T12:38:51Z</time>
      </trkpt>
      <trkpt lat="43.337307" lon="-8.411735">
        <ele>115.0</ele>
        <time>2011-06-25T12:38:52Z</time>
      </trkpt>
      <trkpt lat="43.337317" lon="-8.411713">
        <ele>115.0</ele>
        <time>2011-06-25T12:38:53Z</time>
      </trkpt>
      <trkpt lat="43.337338" lon="-8.411690">
        <ele>115.0</ele>
        <time>2011-06-25T12:38:54Z</time>
      </trkpt>
      <trkpt lat="43.337368" lon="-8.411672">
        <ele>115.0</ele>
        <time>2011-06-25T12:38:55Z</time>
      </trkpt>
      <trkpt lat="43.337403" lon="-8.411648">
        <ele>115.5</ele>
        <time>2011-06-25T12:38:56Z</time>
      </trkpt>
      <trkpt lat="43.337448" lon="-8.411613">
        <ele>114.5</ele>
        <time>2011-06-25T12:38:57Z</time>
      </trkpt>
      <trkpt lat="43.337497" lon="-8.411578">
        <ele>114.5</ele>
        <time>2011-06-25T12:38:58Z</time>
      </trkpt>
      <trkpt lat="43.337553" lon="-8.411545">
        <ele>114.0</ele>
        <time>2011-06-25T12:38:59Z</time>
      </trkpt>
      <trkpt lat="43.337608" lon="-8.411508">
        <ele>114.0</ele>
        <time>2011-06-25T12:39:00Z</time>
      </trkpt>
      <trkpt lat="43.337658" lon="-8.411477">
        <ele>114.5</ele>
        <time>2011-06-25T12:39:01Z</time>
      </trkpt>
      <trkpt lat="43.337703" lon="-8.411443">
        <ele>114.0</ele>
        <time>2011-06-25T12:39:02Z</time>
      </trkpt>
      <trkpt lat="43.337743" lon="-8.411417">
        <ele>114.5</ele>
        <time>2011-06-25T12:39:03Z</time>
      </trkpt>
      <trkpt lat="43.337778" lon="-8.411392">
        <ele>116.0</ele>
        <time>2011-06-25T12:39:04Z</time>
      </trkpt>
      <trkpt lat="43.337813" lon="-8.411368">
        <ele>116.0</ele>
        <time>2011-06-25T12:39:05Z</time>
      </trkpt>
      <trkpt lat="43.337855" lon="-8.411340">
        <ele>115.0</ele>
        <time>2011-06-25T12:39:06Z</time>
      </trkpt>
      <trkpt lat="43.337887" lon="-8.411325">
        <ele>114.5</ele>
        <time>2011-06-25T12:39:07Z</time>
      </trkpt>
      <trkpt lat="43.337915" lon="-8.411293">
        <ele>112.0</ele>
        <time>2011-06-25T12:39:08Z</time>
      </trkpt>
      <trkpt lat="43.337953" lon="-8.411260">
        <ele>111.0</ele>
        <time>2011-06-25T12:39:09Z</time>
      </trkpt>
      <trkpt lat="43.337985" lon="-8.411233">
        <ele>110.5</ele>
        <time>2011-06-25T12:39:10Z</time>
      </trkpt>
      <trkpt lat="43.338018" lon="-8.411210">
        <ele>110.0</ele>
        <time>2011-06-25T12:39:11Z</time>
      </trkpt>
      <trkpt lat="43.338047" lon="-8.411185">
        <ele>109.5</ele>
        <time>2011-06-25T12:39:12Z</time>
      </trkpt>
      <trkpt lat="43.338032" lon="-8.411137">
        <ele>108.5</ele>
        <time>2011-06-25T12:39:13Z</time>
      </trkpt>
      <trkpt lat="43.338022" lon="-8.411093">
        <ele>106.5</ele>
        <time>2011-06-25T12:39:14Z</time>
      </trkpt>
      <trkpt lat="43.337998" lon="-8.411082">
        <ele>108.0</ele>
        <time>2011-06-25T12:39:15Z</time>
      </trkpt>
      <trkpt lat="43.337913" lon="-8.411083">
        <ele>105.0</ele>
        <time>2011-06-25T12:39:17Z</time>
      </trkpt>
      <trkpt lat="43.337868" lon="-8.411053">
        <ele>105.0</ele>
        <time>2011-06-25T12:39:18Z</time>
      </trkpt>
      <trkpt lat="43.337820" lon="-8.411045">
        <ele>103.5</ele>
        <time>2011-06-25T12:39:19Z</time>
      </trkpt>
      <trkpt lat="43.337782" lon="-8.411058">
        <ele>105.0</ele>
        <time>2011-06-25T12:39:20Z</time>
      </trkpt>
      <trkpt lat="43.337743" lon="-8.411050">
        <ele>105.5</ele>
        <time>2011-06-25T12:39:21Z</time>
      </trkpt>
      <trkpt lat="43.337725" lon="-8.411003">
        <ele>106.0</ele>
        <time>2011-06-25T12:39:22Z</time>
      </trkpt>
      <trkpt lat="43.337705" lon="-8.410950">
        <ele>105.0</ele>
        <time>2011-06-25T12:39:23Z</time>
      </trkpt>
      <trkpt lat="43.337698" lon="-8.410898">
        <ele>106.5</ele>
        <time>2011-06-25T12:39:24Z</time>
      </trkpt>
      <trkpt lat="43.337695" lon="-8.410852">
        <ele>106.5</ele>
        <time>2011-06-25T12:39:25Z</time>
      </trkpt>
      <trkpt lat="43.337685" lon="-8.410807">
        <ele>107.0</ele>
        <time>2011-06-25T12:39:26Z</time>
      </trkpt>
      <trkpt lat="43.337668" lon="-8.410755">
        <ele>107.0</ele>
        <time>2011-06-25T12:39:27Z</time>
      </trkpt>
      <trkpt lat="43.337648" lon="-8.410700">
        <ele>107.0</ele>
        <time>2011-06-25T12:39:28Z</time>
      </trkpt>
      <trkpt lat="43.337623" lon="-8.410642">
        <ele>107.0</ele>
        <time>2011-06-25T12:39:29Z</time>
      </trkpt>
      <trkpt lat="43.337607" lon="-8.410578">
        <ele>105.0</ele>
        <time>2011-06-25T12:39:30Z</time>
      </trkpt>
      <trkpt lat="43.337588" lon="-8.410515">
        <ele>102.5</ele>
        <time>2011-06-25T12:39:31Z</time>
      </trkpt>
      <trkpt lat="43.337565" lon="-8.410457">
        <ele>100.0</ele>
        <time>2011-06-25T12:39:32Z</time>
      </trkpt>
      <trkpt lat="43.337540" lon="-8.410403">
        <ele>96.5</ele>
        <time>2011-06-25T12:39:33Z</time>
      </trkpt>
      <trkpt lat="43.337518" lon="-8.410365">
        <ele>97.5</ele>
        <time>2011-06-25T12:39:34Z</time>
      </trkpt>
      <trkpt lat="43.337523" lon="-8.410315">
        <ele>96.5</ele>
        <time>2011-06-25T12:39:35Z</time>
      </trkpt>
      <trkpt lat="43.337538" lon="-8.410275">
        <ele>97.0</ele>
        <time>2011-06-25T12:39:36Z</time>
      </trkpt>
      <trkpt lat="43.337563" lon="-8.410220">
        <ele>98.5</ele>
        <time>2011-06-25T12:39:37Z</time>
      </trkpt>
      <trkpt lat="43.337575" lon="-8.410163">
        <ele>98.5</ele>
        <time>2011-06-25T12:39:38Z</time>
      </trkpt>
      <trkpt lat="43.337563" lon="-8.410127">
        <ele>100.0</ele>
        <time>2011-06-25T12:39:39Z</time>
      </trkpt>
      <trkpt lat="43.337547" lon="-8.410088">
        <ele>100.0</ele>
        <time>2011-06-25T12:39:40Z</time>
      </trkpt>
      <trkpt lat="43.337523" lon="-8.410052">
        <ele>100.0</ele>
        <time>2011-06-25T12:39:41Z</time>
      </trkpt>
      <trkpt lat="43.337497" lon="-8.410010">
        <ele>99.5</ele>
        <time>2011-06-25T12:39:42Z</time>
      </trkpt>
      <trkpt lat="43.337468" lon="-8.409968">
        <ele>99.0</ele>
        <time>2011-06-25T12:39:43Z</time>
      </trkpt>
      <trkpt lat="43.337442" lon="-8.409937">
        <ele>99.0</ele>
        <time>2011-06-25T12:39:44Z</time>
      </trkpt>
      <trkpt lat="43.337428" lon="-8.409902">
        <ele>98.5</ele>
        <time>2011-06-25T12:39:46Z</time>
      </trkpt>
      <trkpt lat="43.337427" lon="-8.409917">
        <ele>99.0</ele>
        <time>2011-06-25T12:39:47Z</time>
      </trkpt>
      <trkpt lat="43.337422" lon="-8.409922">
        <ele>98.5</ele>
        <time>2011-06-25T12:39:48Z</time>
      </trkpt>
      <trkpt lat="43.337435" lon="-8.409918">
        <ele>98.5</ele>
        <time>2011-06-25T12:39:49Z</time>
      </trkpt>
      <trkpt lat="43.337447" lon="-8.409918">
        <ele>98.0</ele>
        <time>2011-06-25T12:39:50Z</time>
      </trkpt>
      <trkpt lat="43.337455" lon="-8.409917">
        <ele>98.5</ele>
        <time>2011-06-25T12:39:51Z</time>
      </trkpt>
      <trkpt lat="43.337463" lon="-8.409917">
        <ele>98.0</ele>
        <time>2011-06-25T12:39:52Z</time>
      </trkpt>
      <trkpt lat="43.337470" lon="-8.409917">
        <ele>98.0</ele>
        <time>2011-06-25T12:39:53Z</time>
      </trkpt>
      <trkpt lat="43.337477" lon="-8.409877">
        <ele>105.5</ele>
        <time>2011-06-25T12:39:56Z</time>
      </trkpt>
      <trkpt lat="43.337517" lon="-8.409847">
        <ele>106.0</ele>
        <time>2011-06-25T12:39:57Z</time>
      </trkpt>
      <trkpt lat="43.337558" lon="-8.409808">
        <ele>106.5</ele>
        <time>2011-06-25T12:39:58Z</time>
      </trkpt>
      <trkpt lat="43.337598" lon="-8.409757">
        <ele>106.5</ele>
        <time>2011-06-25T12:39:59Z</time>
      </trkpt>
      <trkpt lat="43.337632" lon="-8.409700">
        <ele>106.5</ele>
        <time>2011-06-25T12:40:00Z</time>
      </trkpt>
      <trkpt lat="43.337677" lon="-8.409675">
        <ele>106.5</ele>
        <time>2011-06-25T12:40:01Z</time>
      </trkpt>
      <trkpt lat="43.337713" lon="-8.409647">
        <ele>106.5</ele>
        <time>2011-06-25T12:40:02Z</time>
      </trkpt>
      <trkpt lat="43.337757" lon="-8.409603">
        <ele>107.5</ele>
        <time>2011-06-25T12:40:03Z</time>
      </trkpt>
      <trkpt lat="43.337800" lon="-8.409550">
        <ele>109.0</ele>
        <time>2011-06-25T12:40:04Z</time>
      </trkpt>
      <trkpt lat="43.337850" lon="-8.409512">
        <ele>110.5</ele>
        <time>2011-06-25T12:40:05Z</time>
      </trkpt>
      <trkpt lat="43.337948" lon="-8.409433">
        <ele>111.5</ele>
        <time>2011-06-25T12:40:07Z</time>
      </trkpt>
      <trkpt lat="43.337993" lon="-8.409400">
        <ele>112.0</ele>
        <time>2011-06-25T12:40:08Z</time>
      </trkpt>
      <trkpt lat="43.338040" lon="-8.409367">
        <ele>112.0</ele>
        <time>2011-06-25T12:40:09Z</time>
      </trkpt>
      <trkpt lat="43.338088" lon="-8.409333">
        <ele>112.0</ele>
        <time>2011-06-25T12:40:10Z</time>
      </trkpt>
      <trkpt lat="43.338137" lon="-8.409302">
        <ele>112.0</ele>
        <time>2011-06-25T12:40:11Z</time>
      </trkpt>
      <trkpt lat="43.338187" lon="-8.409265">
        <ele>112.0</ele>
        <time>2011-06-25T12:40:12Z</time>
      </trkpt>
      <trkpt lat="43.338235" lon="-8.409218">
        <ele>112.0</ele>
        <time>2011-06-25T12:40:13Z</time>
      </trkpt>
      <trkpt lat="43.338288" lon="-8.409180">
        <ele>111.5</ele>
        <time>2011-06-25T12:40:14Z</time>
      </trkpt>
      <trkpt lat="43.338338" lon="-8.409163">
        <ele>111.0</ele>
        <time>2011-06-25T12:40:15Z</time>
      </trkpt>
      <trkpt lat="43.338392" lon="-8.409153">
        <ele>110.5</ele>
        <time>2011-06-25T12:40:16Z</time>
      </trkpt>
      <trkpt lat="43.338437" lon="-8.409123">
        <ele>111.5</ele>
        <time>2011-06-25T12:40:17Z</time>
      </trkpt>
      <trkpt lat="43.338478" lon="-8.409110">
        <ele>111.5</ele>
        <time>2011-06-25T12:40:18Z</time>
      </trkpt>
      <trkpt lat="43.338517" lon="-8.409095">
        <ele>111.5</ele>
        <time>2011-06-25T12:40:19Z</time>
      </trkpt>
      <trkpt lat="43.338562" lon="-8.409107">
        <ele>111.0</ele>
        <time>2011-06-25T12:40:20Z</time>
      </trkpt>
      <trkpt lat="43.339005" lon="-8.409957">
        <ele>111.0</ele>
        <time>2011-06-25T12:40:26Z</time>
      </trkpt>
      <trkpt lat="43.339085" lon="-8.410137">
        <ele>112.0</ele>
        <time>2011-06-25T12:40:27Z</time>
      </trkpt>
      <trkpt lat="43.339010" lon="-8.409485">
        <ele>126.0</ele>
        <time>2011-06-25T12:40:33Z</time>
      </trkpt>
      <trkpt lat="43.339020" lon="-8.409188">
        <ele>130.0</ele>
        <time>2011-06-25T12:40:36Z</time>
      </trkpt>
      <trkpt lat="43.339045" lon="-8.409153">
        <ele>129.0</ele>
        <time>2011-06-25T12:40:37Z</time>
      </trkpt>
      <trkpt lat="43.339062" lon="-8.409137">
        <ele>128.5</ele>
        <time>2011-06-25T12:40:38Z</time>
      </trkpt>
      <trkpt lat="43.339087" lon="-8.409115">
        <ele>127.0</ele>
        <time>2011-06-25T12:40:39Z</time>
      </trkpt>
      <trkpt lat="43.339103" lon="-8.409115">
        <ele>128.0</ele>
        <time>2011-06-25T12:40:40Z</time>
      </trkpt>
      <trkpt lat="43.339125" lon="-8.409113">
        <ele>126.5</ele>
        <time>2011-06-25T12:40:41Z</time>
      </trkpt>
      <trkpt lat="43.339147" lon="-8.409110">
        <ele>125.5</ele>
        <time>2011-06-25T12:40:42Z</time>
      </trkpt>
      <trkpt lat="43.339167" lon="-8.409103">
        <ele>127.0</ele>
        <time>2011-06-25T12:40:43Z</time>
      </trkpt>
      <trkpt lat="43.339175" lon="-8.409105">
        <ele>128.5</ele>
        <time>2011-06-25T12:40:44Z</time>
      </trkpt>
      <trkpt lat="43.339185" lon="-8.409103">
        <ele>129.0</ele>
        <time>2011-06-25T12:40:45Z</time>
      </trkpt>
      <trkpt lat="43.339203" lon="-8.409087">
        <ele>129.0</ele>
        <time>2011-06-25T12:40:46Z</time>
      </trkpt>
      <trkpt lat="43.339215" lon="-8.409077">
        <ele>130.5</ele>
        <time>2011-06-25T12:40:47Z</time>
      </trkpt>
      <trkpt lat="43.339230" lon="-8.409068">
        <ele>131.0</ele>
        <time>2011-06-25T12:40:48Z</time>
      </trkpt>
      <trkpt lat="43.339248" lon="-8.409067">
        <ele>131.5</ele>
        <time>2011-06-25T12:40:49Z</time>
      </trkpt>
      <trkpt lat="43.339267" lon="-8.409062">
        <ele>130.5</ele>
        <time>2011-06-25T12:40:50Z</time>
      </trkpt>
      <trkpt lat="43.339287" lon="-8.409055">
        <ele>129.5</ele>
        <time>2011-06-25T12:40:51Z</time>
      </trkpt>
      <trkpt lat="43.339305" lon="-8.409053">
        <ele>127.5</ele>
        <time>2011-06-25T12:40:52Z</time>
      </trkpt>
      <trkpt lat="43.339318" lon="-8.409053">
        <ele>125.5</ele>
        <time>2011-06-25T12:40:53Z</time>
      </trkpt>
      <trkpt lat="43.339333" lon="-8.409062">
        <ele>125.0</ele>
        <time>2011-06-25T12:40:54Z</time>
      </trkpt>
      <trkpt lat="43.339353" lon="-8.409075">
        <ele>125.0</ele>
        <time>2011-06-25T12:40:55Z</time>
      </trkpt>
      <trkpt lat="43.339370" lon="-8.409087">
        <ele>126.0</ele>
        <time>2011-06-25T12:40:56Z</time>
      </trkpt>
      <trkpt lat="43.339387" lon="-8.409078">
        <ele>122.0</ele>
        <time>2011-06-25T12:40:57Z</time>
      </trkpt>
      <trkpt lat="43.339403" lon="-8.409050">
        <ele>118.5</ele>
        <time>2011-06-25T12:40:58Z</time>
      </trkpt>
      <trkpt lat="43.339407" lon="-8.409048">
        <ele>118.0</ele>
        <time>2011-06-25T12:40:59Z</time>
      </trkpt>
      <trkpt lat="43.339408" lon="-8.409048">
        <ele>118.5</ele>
        <time>2011-06-25T12:41:00Z</time>
      </trkpt>
      <trkpt lat="43.339410" lon="-8.409045">
        <ele>117.5</ele>
        <time>2011-06-25T12:41:01Z</time>
      </trkpt>
      <trkpt lat="43.339412" lon="-8.409045">
        <ele>117.5</ele>
        <time>2011-06-25T12:41:02Z</time>
      </trkpt>
      <trkpt lat="43.339412" lon="-8.409045">
        <ele>117.5</ele>
        <time>2011-06-25T12:41:03Z</time>
      </trkpt>
      <trkpt lat="43.339412" lon="-8.409043">
        <ele>117.0</ele>
        <time>2011-06-25T12:41:04Z</time>
      </trkpt>
      <trkpt lat="43.339413" lon="-8.409040">
        <ele>116.5</ele>
        <time>2011-06-25T12:41:05Z</time>
      </trkpt>
      <trkpt lat="43.339415" lon="-8.409033">
        <ele>115.5</ele>
        <time>2011-06-25T12:41:06Z</time>
      </trkpt>
      <trkpt lat="43.339418" lon="-8.409030">
        <ele>114.5</ele>
        <time>2011-06-25T12:41:07Z</time>
      </trkpt>
      <trkpt lat="43.339422" lon="-8.409025">
        <ele>113.0</ele>
        <time>2011-06-25T12:41:08Z</time>
      </trkpt>
      <trkpt lat="43.339425" lon="-8.409018">
        <ele>111.5</ele>
        <time>2011-06-25T12:41:09Z</time>
      </trkpt>
      <trkpt lat="43.339425" lon="-8.409017">
        <ele>111.0</ele>
        <time>2011-06-25T12:41:10Z</time>
      </trkpt>
      <trkpt lat="43.339427" lon="-8.409015">
        <ele>110.0</ele>
        <time>2011-06-25T12:41:11Z</time>
      </trkpt>
      <trkpt lat="43.339428" lon="-8.409010">
        <ele>109.5</ele>
        <time>2011-06-25T12:41:12Z</time>
      </trkpt>
      <trkpt lat="43.339430" lon="-8.409005">
        <ele>108.5</ele>
        <time>2011-06-25T12:41:13Z</time>
      </trkpt>
      <trkpt lat="43.339432" lon="-8.409003">
        <ele>107.5</ele>
        <time>2011-06-25T12:41:14Z</time>
      </trkpt>
      <trkpt lat="43.339432" lon="-8.409003">
        <ele>107.5</ele>
        <time>2011-06-25T12:41:15Z</time>
      </trkpt>
      <trkpt lat="43.339433" lon="-8.409002">
        <ele>107.0</ele>
        <time>2011-06-25T12:41:16Z</time>
      </trkpt>
      <trkpt lat="43.339433" lon="-8.408998">
        <ele>106.5</ele>
        <time>2011-06-25T12:41:17Z</time>
      </trkpt>
      <trkpt lat="43.339432" lon="-8.408958">
        <ele>103.5</ele>
        <time>2011-06-25T12:41:19Z</time>
      </trkpt>
      <trkpt lat="43.339432" lon="-8.408957">
        <ele>103.0</ele>
        <time>2011-06-25T12:41:20Z</time>
      </trkpt>
      <trkpt lat="43.339432" lon="-8.408955">
        <ele>103.0</ele>
        <time>2011-06-25T12:41:21Z</time>
      </trkpt>
      <trkpt lat="43.339433" lon="-8.408955">
        <ele>103.5</ele>
        <time>2011-06-25T12:41:22Z</time>
      </trkpt>
      <trkpt lat="43.339435" lon="-8.408953">
        <ele>103.5</ele>
        <time>2011-06-25T12:41:23Z</time>
      </trkpt>
      <trkpt lat="43.339435" lon="-8.408953">
        <ele>103.5</ele>
        <time>2011-06-25T12:41:24Z</time>
      </trkpt>
      <trkpt lat="43.339435" lon="-8.408953">
        <ele>103.5</ele>
        <time>2011-06-25T12:41:25Z</time>
      </trkpt>
      <trkpt lat="43.339437" lon="-8.408953">
        <ele>103.5</ele>
        <time>2011-06-25T12:41:26Z</time>
      </trkpt>
      <trkpt lat="43.339437" lon="-8.408953">
        <ele>103.5</ele>
        <time>2011-06-25T12:41:27Z</time>
      </trkpt>
      <trkpt lat="43.339438" lon="-8.408953">
        <ele>103.5</ele>
        <time>2011-06-25T12:41:28Z</time>
      </trkpt>
      <trkpt lat="43.339440" lon="-8.408952">
        <ele>103.5</ele>
        <time>2011-06-25T12:41:29Z</time>
      </trkpt>
      <trkpt lat="43.339440" lon="-8.408948">
        <ele>103.0</ele>
        <time>2011-06-25T12:41:30Z</time>
      </trkpt>
      <trkpt lat="43.339440" lon="-8.408948">
        <ele>103.0</ele>
        <time>2011-06-25T12:41:31Z</time>
      </trkpt>
      <trkpt lat="43.339442" lon="-8.408947">
        <ele>103.0</ele>
        <time>2011-06-25T12:41:32Z</time>
      </trkpt>
      <trkpt lat="43.339443" lon="-8.408947">
        <ele>102.5</ele>
        <time>2011-06-25T12:41:33Z</time>
      </trkpt>
      <trkpt lat="43.339445" lon="-8.408947">
        <ele>102.5</ele>
        <time>2011-06-25T12:41:34Z</time>
      </trkpt>
      <trkpt lat="43.339447" lon="-8.408947">
        <ele>102.5</ele>
        <time>2011-06-25T12:41:35Z</time>
      </trkpt>
      <trkpt lat="43.339453" lon="-8.408952">
        <ele>101.5</ele>
        <time>2011-06-25T12:41:36Z</time>
      </trkpt>
      <trkpt lat="43.339457" lon="-8.408948">
        <ele>100.5</ele>
        <time>2011-06-25T12:41:37Z</time>
      </trkpt>
      <trkpt lat="43.339465" lon="-8.408945">
        <ele>99.0</ele>
        <time>2011-06-25T12:41:38Z</time>
      </trkpt>
      <trkpt lat="43.339470" lon="-8.408942">
        <ele>97.0</ele>
        <time>2011-06-25T12:41:39Z</time>
      </trkpt>
      <trkpt lat="43.339470" lon="-8.408933">
        <ele>96.0</ele>
        <time>2011-06-25T12:41:40Z</time>
      </trkpt>
      <trkpt lat="43.339473" lon="-8.408930">
        <ele>94.5</ele>
        <time>2011-06-25T12:41:41Z</time>
      </trkpt>
      <trkpt lat="43.339475" lon="-8.408927">
        <ele>94.0</ele>
        <time>2011-06-25T12:41:42Z</time>
      </trkpt>
      <trkpt lat="43.339477" lon="-8.408925">
        <ele>93.5</ele>
        <time>2011-06-25T12:41:43Z</time>
      </trkpt>
      <trkpt lat="43.339477" lon="-8.408923">
        <ele>93.5</ele>
        <time>2011-06-25T12:41:44Z</time>
      </trkpt>
      <trkpt lat="43.339475" lon="-8.408920">
        <ele>93.5</ele>
        <time>2011-06-25T12:41:45Z</time>
      </trkpt>
      <trkpt lat="43.339475" lon="-8.408917">
        <ele>93.0</ele>
        <time>2011-06-25T12:41:46Z</time>
      </trkpt>
      <trkpt lat="43.339473" lon="-8.408910">
        <ele>93.5</ele>
        <time>2011-06-25T12:41:47Z</time>
      </trkpt>
      <trkpt lat="43.339473" lon="-8.408902">
        <ele>93.5</ele>
        <time>2011-06-25T12:41:48Z</time>
      </trkpt>
      <trkpt lat="43.339470" lon="-8.408892">
        <ele>94.0</ele>
        <time>2011-06-25T12:41:49Z</time>
      </trkpt>
      <trkpt lat="43.339470" lon="-8.408890">
        <ele>94.0</ele>
        <time>2011-06-25T12:41:50Z</time>
      </trkpt>
      <trkpt lat="43.339470" lon="-8.408887">
        <ele>94.0</ele>
        <time>2011-06-25T12:41:51Z</time>
      </trkpt>
      <trkpt lat="43.339470" lon="-8.408885">
        <ele>94.0</ele>
        <time>2011-06-25T12:41:52Z</time>
      </trkpt>
      <trkpt lat="43.339470" lon="-8.408885">
        <ele>94.0</ele>
        <time>2011-06-25T12:41:53Z</time>
      </trkpt>
      <trkpt lat="43.339470" lon="-8.408883">
        <ele>94.0</ele>
        <time>2011-06-25T12:41:54Z</time>
      </trkpt>
      <trkpt lat="43.339470" lon="-8.408882">
        <ele>94.0</ele>
        <time>2011-06-25T12:41:55Z</time>
      </trkpt>
      <trkpt lat="43.339470" lon="-8.408878">
        <ele>94.0</ele>
        <time>2011-06-25T12:41:56Z</time>
      </trkpt>
      <trkpt lat="43.339470" lon="-8.408878">
        <ele>94.0</ele>
        <time>2011-06-25T12:41:57Z</time>
      </trkpt>
      <trkpt lat="43.339470" lon="-8.408878">
        <ele>94.0</ele>
        <time>2011-06-25T12:41:58Z</time>
      </trkpt>
      <trkpt lat="43.339468" lon="-8.408877">
        <ele>94.0</ele>
        <time>2011-06-25T12:41:59Z</time>
      </trkpt>
      <trkpt lat="43.339468" lon="-8.408875">
        <ele>94.5</ele>
        <time>2011-06-25T12:42:00Z</time>
      </trkpt>
      <trkpt lat="43.339468" lon="-8.408873">
        <ele>94.5</ele>
        <time>2011-06-25T12:42:01Z</time>
      </trkpt>
      <trkpt lat="43.339468" lon="-8.408873">
        <ele>94.5</ele>
        <time>2011-06-25T12:42:02Z</time>
      </trkpt>
      <trkpt lat="43.339468" lon="-8.408873">
        <ele>94.0</ele>
        <time>2011-06-25T12:42:03Z</time>
      </trkpt>
      <trkpt lat="43.339468" lon="-8.408872">
        <ele>94.0</ele>
        <time>2011-06-25T12:42:04Z</time>
      </trkpt>
      <trkpt lat="43.339468" lon="-8.408872">
        <ele>94.0</ele>
        <time>2011-06-25T12:42:05Z</time>
      </trkpt>
      <trkpt lat="43.339468" lon="-8.408868">
        <ele>94.0</ele>
        <time>2011-06-25T12:42:06Z</time>
      </trkpt>
      <trkpt lat="43.339468" lon="-8.408867">
        <ele>94.0</ele>
        <time>2011-06-25T12:42:07Z</time>
      </trkpt>
      <trkpt lat="43.339470" lon="-8.408867">
        <ele>94.0</ele>
        <time>2011-06-25T12:42:08Z</time>
      </trkpt>
      <trkpt lat="43.339470" lon="-8.408867">
        <ele>94.0</ele>
        <time>2011-06-25T12:42:09Z</time>
      </trkpt>
      <trkpt lat="43.339470" lon="-8.408865">
        <ele>94.0</ele>
        <time>2011-06-25T12:42:10Z</time>
      </trkpt>
      <trkpt lat="43.339470" lon="-8.408865">
        <ele>94.0</ele>
        <time>2011-06-25T12:42:11Z</time>
      </trkpt>
      <trkpt lat="43.339470" lon="-8.408863">
        <ele>94.0</ele>
        <time>2011-06-25T12:42:12Z</time>
      </trkpt>
      <trkpt lat="43.339470" lon="-8.408863">
        <ele>93.5</ele>
        <time>2011-06-25T12:42:13Z</time>
      </trkpt>
      <trkpt lat="43.339470" lon="-8.408863">
        <ele>93.5</ele>
        <time>2011-06-25T12:42:14Z</time>
      </trkpt>
      <trkpt lat="43.339470" lon="-8.408862">
        <ele>93.5</ele>
        <time>2011-06-25T12:42:15Z</time>
      </trkpt>
      <trkpt lat="43.339470" lon="-8.408862">
        <ele>93.5</ele>
        <time>2011-06-25T12:42:16Z</time>
      </trkpt>
      <trkpt lat="43.339470" lon="-8.408862">
        <ele>93.5</ele>
        <time>2011-06-25T12:42:17Z</time>
      </trkpt>
      <trkpt lat="43.339472" lon="-8.408862">
        <ele>93.5</ele>
        <time>2011-06-25T12:42:18Z</time>
      </trkpt>
      <trkpt lat="43.339472" lon="-8.408860">
        <ele>93.5</ele>
        <time>2011-06-25T12:42:19Z</time>
      </trkpt>
      <trkpt lat="43.339472" lon="-8.408860">
        <ele>93.5</ele>
        <time>2011-06-25T12:42:20Z</time>
      </trkpt>
      <trkpt lat="43.339472" lon="-8.408860">
        <ele>93.5</ele>
        <time>2011-06-25T12:42:21Z</time>
      </trkpt>
      <trkpt lat="43.339472" lon="-8.408858">
        <ele>93.5</ele>
        <time>2011-06-25T12:42:22Z</time>
      </trkpt>
      <trkpt lat="43.339472" lon="-8.408857">
        <ele>93.5</ele>
        <time>2011-06-25T12:42:23Z</time>
      </trkpt>
      <trkpt lat="43.339473" lon="-8.408857">
        <ele>93.5</ele>
        <time>2011-06-25T12:42:24Z</time>
      </trkpt>
      <trkpt lat="43.339473" lon="-8.408857">
        <ele>93.5</ele>
        <time>2011-06-25T12:42:25Z</time>
      </trkpt>
      <trkpt lat="43.339490" lon="-8.408862">
        <ele>93.0</ele>
        <time>2011-06-25T12:42:26Z</time>
      </trkpt>
      <trkpt lat="43.339507" lon="-8.408862">
        <ele>93.0</ele>
        <time>2011-06-25T12:42:27Z</time>
      </trkpt>
      <trkpt lat="43.339522" lon="-8.408860">
        <ele>93.0</ele>
        <time>2011-06-25T12:42:28Z</time>
      </trkpt>
      <trkpt lat="43.339523" lon="-8.408855">
        <ele>93.5</ele>
        <time>2011-06-25T12:42:29Z</time>
      </trkpt>
      <trkpt lat="43.339522" lon="-8.408838">
        <ele>93.0</ele>
        <time>2011-06-25T12:42:30Z</time>
      </trkpt>
      <trkpt lat="43.339523" lon="-8.408840">
        <ele>93.0</ele>
        <time>2011-06-25T12:42:31Z</time>
      </trkpt>
      <trkpt lat="43.339523" lon="-8.408840">
        <ele>93.0</ele>
        <time>2011-06-25T12:42:32Z</time>
      </trkpt>
      <trkpt lat="43.339525" lon="-8.408840">
        <ele>93.0</ele>
        <time>2011-06-25T12:42:33Z</time>
      </trkpt>
      <trkpt lat="43.339527" lon="-8.408840">
        <ele>93.0</ele>
        <time>2011-06-25T12:42:34Z</time>
      </trkpt>
      <trkpt lat="43.339527" lon="-8.408840">
        <ele>93.0</ele>
        <time>2011-06-25T12:42:35Z</time>
      </trkpt>
      <trkpt lat="43.339528" lon="-8.408840">
        <ele>93.0</ele>
        <time>2011-06-25T12:42:36Z</time>
      </trkpt>
      <trkpt lat="43.339528" lon="-8.408840">
        <ele>93.0</ele>
        <time>2011-06-25T12:42:37Z</time>
      </trkpt>
      <trkpt lat="43.339533" lon="-8.408855">
        <ele>92.0</ele>
        <time>2011-06-25T12:42:38Z</time>
      </trkpt>
      <trkpt lat="43.339535" lon="-8.408853">
        <ele>92.0</ele>
        <time>2011-06-25T12:42:39Z</time>
      </trkpt>
      <trkpt lat="43.339535" lon="-8.408852">
        <ele>92.0</ele>
        <time>2011-06-25T12:42:40Z</time>
      </trkpt>
      <trkpt lat="43.339535" lon="-8.408852">
        <ele>91.5</ele>
        <time>2011-06-25T12:42:41Z</time>
      </trkpt>
      <trkpt lat="43.339535" lon="-8.408852">
        <ele>91.5</ele>
        <time>2011-06-25T12:42:42Z</time>
      </trkpt>
      <trkpt lat="43.339535" lon="-8.408848">
        <ele>91.0</ele>
        <time>2011-06-25T12:42:43Z</time>
      </trkpt>
      <trkpt lat="43.339535" lon="-8.408848">
        <ele>91.0</ele>
        <time>2011-06-25T12:42:44Z</time>
      </trkpt>
      <trkpt lat="43.339535" lon="-8.408843">
        <ele>91.0</ele>
        <time>2011-06-25T12:42:45Z</time>
      </trkpt>
      <trkpt lat="43.339532" lon="-8.408835">
        <ele>91.0</ele>
        <time>2011-06-25T12:42:46Z</time>
      </trkpt>
      <trkpt lat="43.339530" lon="-8.408823">
        <ele>90.5</ele>
        <time>2011-06-25T12:42:47Z</time>
      </trkpt>
      <trkpt lat="43.339530" lon="-8.408823">
        <ele>90.5</ele>
        <time>2011-06-25T12:42:48Z</time>
      </trkpt>
      <trkpt lat="43.339530" lon="-8.408820">
        <ele>90.5</ele>
        <time>2011-06-25T12:42:49Z</time>
      </trkpt>
      <trkpt lat="43.339530" lon="-8.408820">
        <ele>90.5</ele>
        <time>2011-06-25T12:42:50Z</time>
      </trkpt>
      <trkpt lat="43.339532" lon="-8.408820">
        <ele>90.5</ele>
        <time>2011-06-25T12:42:51Z</time>
      </trkpt>
      <trkpt lat="43.339533" lon="-8.408820">
        <ele>90.5</ele>
        <time>2011-06-25T12:42:52Z</time>
      </trkpt>
      <trkpt lat="43.339543" lon="-8.408823">
        <ele>91.0</ele>
        <time>2011-06-25T12:42:53Z</time>
      </trkpt>
      <trkpt lat="43.339558" lon="-8.408835">
        <ele>91.0</ele>
        <time>2011-06-25T12:42:54Z</time>
      </trkpt>
      <trkpt lat="43.339570" lon="-8.408833">
        <ele>91.5</ele>
        <time>2011-06-25T12:42:55Z</time>
      </trkpt>
      <trkpt lat="43.339582" lon="-8.408835">
        <ele>92.0</ele>
        <time>2011-06-25T12:42:56Z</time>
      </trkpt>
      <trkpt lat="43.339578" lon="-8.408820">
        <ele>92.0</ele>
        <time>2011-06-25T12:42:57Z</time>
      </trkpt>
      <trkpt lat="43.339577" lon="-8.408815">
        <ele>92.0</ele>
        <time>2011-06-25T12:42:58Z</time>
      </trkpt>
      <trkpt lat="43.339578" lon="-8.408813">
        <ele>92.5</ele>
        <time>2011-06-25T12:42:59Z</time>
      </trkpt>
      <trkpt lat="43.339577" lon="-8.408808">
        <ele>92.5</ele>
        <time>2011-06-25T12:43:00Z</time>
      </trkpt>
      <trkpt lat="43.339573" lon="-8.408800">
        <ele>92.5</ele>
        <time>2011-06-25T12:43:01Z</time>
      </trkpt>
      <trkpt lat="43.339570" lon="-8.408787">
        <ele>92.5</ele>
        <time>2011-06-25T12:43:02Z</time>
      </trkpt>
      <trkpt lat="43.339565" lon="-8.408773">
        <ele>92.5</ele>
        <time>2011-06-25T12:43:03Z</time>
      </trkpt>
      <trkpt lat="43.339562" lon="-8.408758">
        <ele>92.5</ele>
        <time>2011-06-25T12:43:04Z</time>
      </trkpt>
      <trkpt lat="43.339558" lon="-8.408745">
        <ele>92.5</ele>
        <time>2011-06-25T12:43:05Z</time>
      </trkpt>
      <trkpt lat="43.339558" lon="-8.408745">
        <ele>92.5</ele>
        <time>2011-06-25T12:43:06Z</time>
      </trkpt>
      <trkpt lat="43.339558" lon="-8.408742">
        <ele>92.5</ele>
        <time>2011-06-25T12:43:07Z</time>
      </trkpt>
      <trkpt lat="43.339557" lon="-8.408740">
        <ele>92.0</ele>
        <time>2011-06-25T12:43:08Z</time>
      </trkpt>
      <trkpt lat="43.339557" lon="-8.408737">
        <ele>92.0</ele>
        <time>2011-06-25T12:43:09Z</time>
      </trkpt>
      <trkpt lat="43.339557" lon="-8.408737">
        <ele>92.0</ele>
        <time>2011-06-25T12:43:10Z</time>
      </trkpt>
      <trkpt lat="43.339555" lon="-8.408732">
        <ele>92.0</ele>
        <time>2011-06-25T12:43:11Z</time>
      </trkpt>
      <trkpt lat="43.339555" lon="-8.408732">
        <ele>92.0</ele>
        <time>2011-06-25T12:43:12Z</time>
      </trkpt>
      <trkpt lat="43.339555" lon="-8.408730">
        <ele>92.0</ele>
        <time>2011-06-25T12:43:13Z</time>
      </trkpt>
      <trkpt lat="43.339555" lon="-8.408728">
        <ele>92.0</ele>
        <time>2011-06-25T12:43:14Z</time>
      </trkpt>
      <trkpt lat="43.339553" lon="-8.408725">
        <ele>92.0</ele>
        <time>2011-06-25T12:43:15Z</time>
      </trkpt>
      <trkpt lat="43.339553" lon="-8.408725">
        <ele>92.0</ele>
        <time>2011-06-25T12:43:16Z</time>
      </trkpt>
      <trkpt lat="43.339553" lon="-8.408725">
        <ele>92.0</ele>
        <time>2011-06-25T12:43:17Z</time>
      </trkpt>
      <trkpt lat="43.339553" lon="-8.408723">
        <ele>92.0</ele>
        <time>2011-06-25T12:43:18Z</time>
      </trkpt>
      <trkpt lat="43.339553" lon="-8.408723">
        <ele>92.0</ele>
        <time>2011-06-25T12:43:19Z</time>
      </trkpt>
      <trkpt lat="43.339553" lon="-8.408723">
        <ele>92.0</ele>
        <time>2011-06-25T12:43:20Z</time>
      </trkpt>
      <trkpt lat="43.339552" lon="-8.408720">
        <ele>91.5</ele>
        <time>2011-06-25T12:43:21Z</time>
      </trkpt>
      <trkpt lat="43.339552" lon="-8.408718">
        <ele>91.5</ele>
        <time>2011-06-25T12:43:22Z</time>
      </trkpt>
      <trkpt lat="43.339552" lon="-8.408717">
        <ele>91.0</ele>
        <time>2011-06-25T12:43:23Z</time>
      </trkpt>
      <trkpt lat="43.339552" lon="-8.408717">
        <ele>90.5</ele>
        <time>2011-06-25T12:43:24Z</time>
      </trkpt>
      <trkpt lat="43.339553" lon="-8.408718">
        <ele>90.0</ele>
        <time>2011-06-25T12:43:25Z</time>
      </trkpt>
      <trkpt lat="43.339552" lon="-8.408713">
        <ele>89.0</ele>
        <time>2011-06-25T12:43:26Z</time>
      </trkpt>
      <trkpt lat="43.339550" lon="-8.408707">
        <ele>88.5</ele>
        <time>2011-06-25T12:43:27Z</time>
      </trkpt>
      <trkpt lat="43.339548" lon="-8.408700">
        <ele>88.5</ele>
        <time>2011-06-25T12:43:28Z</time>
      </trkpt>
      <trkpt lat="43.339547" lon="-8.408692">
        <ele>88.5</ele>
        <time>2011-06-25T12:43:29Z</time>
      </trkpt>
      <trkpt lat="43.339543" lon="-8.408685">
        <ele>88.5</ele>
        <time>2011-06-25T12:43:30Z</time>
      </trkpt>
      <trkpt lat="43.339545" lon="-8.408683">
        <ele>88.5</ele>
        <time>2011-06-25T12:43:31Z</time>
      </trkpt>
      <trkpt lat="43.339545" lon="-8.408683">
        <ele>88.5</ele>
        <time>2011-06-25T12:43:32Z</time>
      </trkpt>
      <trkpt lat="43.339545" lon="-8.408683">
        <ele>88.5</ele>
        <time>2011-06-25T12:43:33Z</time>
      </trkpt>
      <trkpt lat="43.339545" lon="-8.408683">
        <ele>88.5</ele>
        <time>2011-06-25T12:43:34Z</time>
      </trkpt>
      <trkpt lat="43.339545" lon="-8.408682">
        <ele>88.5</ele>
        <time>2011-06-25T12:43:35Z</time>
      </trkpt>
      <trkpt lat="43.339545" lon="-8.408682">
        <ele>88.5</ele>
        <time>2011-06-25T12:43:36Z</time>
      </trkpt>
      <trkpt lat="43.339545" lon="-8.408680">
        <ele>88.5</ele>
        <time>2011-06-25T12:43:37Z</time>
      </trkpt>
      <trkpt lat="43.339543" lon="-8.408678">
        <ele>88.5</ele>
        <time>2011-06-25T12:43:38Z</time>
      </trkpt>
      <trkpt lat="43.339543" lon="-8.408678">
        <ele>88.5</ele>
        <time>2011-06-25T12:43:39Z</time>
      </trkpt>
      <trkpt lat="43.339543" lon="-8.408677">
        <ele>88.5</ele>
        <time>2011-06-25T12:43:40Z</time>
      </trkpt>
      <trkpt lat="43.339543" lon="-8.408677">
        <ele>88.5</ele>
        <time>2011-06-25T12:43:41Z</time>
      </trkpt>
      <trkpt lat="43.339543" lon="-8.408675">
        <ele>88.5</ele>
        <time>2011-06-25T12:43:42Z</time>
      </trkpt>
      <trkpt lat="43.339543" lon="-8.408675">
        <ele>88.5</ele>
        <time>2011-06-25T12:43:43Z</time>
      </trkpt>
      <trkpt lat="43.339543" lon="-8.408675">
        <ele>88.5</ele>
        <time>2011-06-25T12:43:44Z</time>
      </trkpt>
      <trkpt lat="43.339543" lon="-8.408673">
        <ele>88.5</ele>
        <time>2011-06-25T12:43:45Z</time>
      </trkpt>
      <trkpt lat="43.339543" lon="-8.408673">
        <ele>88.5</ele>
        <time>2011-06-25T12:43:46Z</time>
      </trkpt>
      <trkpt lat="43.339543" lon="-8.408673">
        <ele>88.5</ele>
        <time>2011-06-25T12:43:47Z</time>
      </trkpt>
      <trkpt lat="43.339543" lon="-8.408673">
        <ele>88.5</ele>
        <time>2011-06-25T12:43:48Z</time>
      </trkpt>
      <trkpt lat="43.339543" lon="-8.408673">
        <ele>88.5</ele>
        <time>2011-06-25T12:43:49Z</time>
      </trkpt>
      <trkpt lat="43.339543" lon="-8.408672">
        <ele>88.5</ele>
        <time>2011-06-25T12:43:50Z</time>
      </trkpt>
      <trkpt lat="43.339543" lon="-8.408672">
        <ele>89.0</ele>
        <time>2011-06-25T12:43:51Z</time>
      </trkpt>
      <trkpt lat="43.339548" lon="-8.408657">
        <ele>90.0</ele>
        <time>2011-06-25T12:43:52Z</time>
      </trkpt>
      <trkpt lat="43.339558" lon="-8.408657">
        <ele>90.5</ele>
        <time>2011-06-25T12:43:53Z</time>
      </trkpt>
      <trkpt lat="43.339577" lon="-8.408657">
        <ele>92.5</ele>
        <time>2011-06-25T12:43:54Z</time>
      </trkpt>
      <trkpt lat="43.339582" lon="-8.408653">
        <ele>93.0</ele>
        <time>2011-06-25T12:43:55Z</time>
      </trkpt>
      <trkpt lat="43.339578" lon="-8.408647">
        <ele>93.0</ele>
        <time>2011-06-25T12:43:56Z</time>
      </trkpt>
      <trkpt lat="43.339580" lon="-8.408645">
        <ele>93.0</ele>
        <time>2011-06-25T12:43:57Z</time>
      </trkpt>
      <trkpt lat="43.339583" lon="-8.408643">
        <ele>93.5</ele>
        <time>2011-06-25T12:43:58Z</time>
      </trkpt>
      <trkpt lat="43.339587" lon="-8.408640">
        <ele>93.5</ele>
        <time>2011-06-25T12:43:59Z</time>
      </trkpt>
      <trkpt lat="43.339592" lon="-8.408637">
        <ele>93.5</ele>
        <time>2011-06-25T12:44:00Z</time>
      </trkpt>
      <trkpt lat="43.339590" lon="-8.408630">
        <ele>93.5</ele>
        <time>2011-06-25T12:44:01Z</time>
      </trkpt>
      <trkpt lat="43.339590" lon="-8.408627">
        <ele>93.5</ele>
        <time>2011-06-25T12:44:02Z</time>
      </trkpt>
      <trkpt lat="43.339590" lon="-8.408623">
        <ele>93.5</ele>
        <time>2011-06-25T12:44:03Z</time>
      </trkpt>
      <trkpt lat="43.339590" lon="-8.408618">
        <ele>94.0</ele>
        <time>2011-06-25T12:44:04Z</time>
      </trkpt>
      <trkpt lat="43.339590" lon="-8.408617">
        <ele>94.0</ele>
        <time>2011-06-25T12:44:05Z</time>
      </trkpt>
      <trkpt lat="43.339590" lon="-8.408613">
        <ele>94.0</ele>
        <time>2011-06-25T12:44:06Z</time>
      </trkpt>
      <trkpt lat="43.339590" lon="-8.408612">
        <ele>94.0</ele>
        <time>2011-06-25T12:44:07Z</time>
      </trkpt>
      <trkpt lat="43.339590" lon="-8.408608">
        <ele>94.0</ele>
        <time>2011-06-25T12:44:08Z</time>
      </trkpt>
      <trkpt lat="43.339592" lon="-8.408608">
        <ele>94.0</ele>
        <time>2011-06-25T12:44:09Z</time>
      </trkpt>
      <trkpt lat="43.339595" lon="-8.408607">
        <ele>94.5</ele>
        <time>2011-06-25T12:44:10Z</time>
      </trkpt>
      <trkpt lat="43.339597" lon="-8.408605">
        <ele>94.5</ele>
        <time>2011-06-25T12:44:11Z</time>
      </trkpt>
      <trkpt lat="43.339602" lon="-8.408603">
        <ele>94.5</ele>
        <time>2011-06-25T12:44:12Z</time>
      </trkpt>
      <trkpt lat="43.339605" lon="-8.408602">
        <ele>95.0</ele>
        <time>2011-06-25T12:44:13Z</time>
      </trkpt>
      <trkpt lat="43.339605" lon="-8.408600">
        <ele>95.0</ele>
        <time>2011-06-25T12:44:14Z</time>
      </trkpt>
      <trkpt lat="43.339607" lon="-8.408600">
        <ele>95.0</ele>
        <time>2011-06-25T12:44:15Z</time>
      </trkpt>
      <trkpt lat="43.339607" lon="-8.408600">
        <ele>95.0</ele>
        <time>2011-06-25T12:44:16Z</time>
      </trkpt>
      <trkpt lat="43.339607" lon="-8.408598">
        <ele>95.0</ele>
        <time>2011-06-25T12:44:17Z</time>
      </trkpt>
      <trkpt lat="43.339608" lon="-8.408598">
        <ele>95.0</ele>
        <time>2011-06-25T12:44:18Z</time>
      </trkpt>
      <trkpt lat="43.339608" lon="-8.408598">
        <ele>95.0</ele>
        <time>2011-06-25T12:44:19Z</time>
      </trkpt>
    </trkseg>
  </trk>
  <trk>
    <name>T2067676-25</name>
    <cmt>saida con compañeiros do C.C.Arteixo polos arredores da Coruña</cmt>
    <desc>saida con compañeiros do C.C.Arteixo polos arredores da Coruña</desc>
    <trkseg>
      <trkpt lat="43.339610" lon="-8.408597">
        <ele>95.0</ele>
        <time>2011-06-25T12:44:20Z</time>
      </trkpt>
      <trkpt lat="43.339610" lon="-8.408597">
        <ele>95.0</ele>
        <time>2011-06-25T12:44:21Z</time>
      </trkpt>
      <trkpt lat="43.339612" lon="-8.408597">
        <ele>95.0</ele>
        <time>2011-06-25T12:44:22Z</time>
      </trkpt>
      <trkpt lat="43.339612" lon="-8.408597">
        <ele>95.0</ele>
        <time>2011-06-25T12:44:23Z</time>
      </trkpt>
      <trkpt lat="43.339612" lon="-8.408595">
        <ele>95.5</ele>
        <time>2011-06-25T12:44:24Z</time>
      </trkpt>
      <trkpt lat="43.339612" lon="-8.408595">
        <ele>95.5</ele>
        <time>2011-06-25T12:44:25Z</time>
      </trkpt>
      <trkpt lat="43.339613" lon="-8.408595">
        <ele>95.5</ele>
        <time>2011-06-25T12:44:26Z</time>
      </trkpt>
      <trkpt lat="43.339613" lon="-8.408595">
        <ele>95.5</ele>
        <time>2011-06-25T12:44:27Z</time>
      </trkpt>
      <trkpt lat="43.339613" lon="-8.408595">
        <ele>95.0</ele>
        <time>2011-06-25T12:44:28Z</time>
      </trkpt>
      <trkpt lat="43.339613" lon="-8.408595">
        <ele>95.0</ele>
        <time>2011-06-25T12:44:29Z</time>
      </trkpt>
      <trkpt lat="43.339613" lon="-8.408595">
        <ele>95.0</ele>
        <time>2011-06-25T12:44:30Z</time>
      </trkpt>
      <trkpt lat="43.339613" lon="-8.408595">
        <ele>95.0</ele>
        <time>2011-06-25T12:44:31Z</time>
      </trkpt>
      <trkpt lat="43.339613" lon="-8.408593">
        <ele>95.0</ele>
        <time>2011-06-25T12:44:32Z</time>
      </trkpt>
      <trkpt lat="43.339613" lon="-8.408593">
        <ele>95.0</ele>
        <time>2011-06-25T12:44:33Z</time>
      </trkpt>
      <trkpt lat="43.339613" lon="-8.408593">
        <ele>95.0</ele>
        <time>2011-06-25T12:44:34Z</time>
      </trkpt>
      <trkpt lat="43.339613" lon="-8.408593">
        <ele>95.0</ele>
        <time>2011-06-25T12:44:35Z</time>
      </trkpt>
      <trkpt lat="43.339613" lon="-8.408593">
        <ele>95.0</ele>
        <time>2011-06-25T12:44:36Z</time>
      </trkpt>
      <trkpt lat="43.339613" lon="-8.408593">
        <ele>95.0</ele>
        <time>2011-06-25T12:44:37Z</time>
      </trkpt>
      <trkpt lat="43.339613" lon="-8.408593">
        <ele>95.0</ele>
        <time>2011-06-25T12:44:38Z</time>
      </trkpt>
      <trkpt lat="43.339613" lon="-8.408593">
        <ele>95.0</ele>
        <time>2011-06-25T12:44:39Z</time>
      </trkpt>
      <trkpt lat="43.339613" lon="-8.408593">
        <ele>95.0</ele>
        <time>2011-06-25T12:44:40Z</time>
      </trkpt>
      <trkpt lat="43.339613" lon="-8.408592">
        <ele>95.0</ele>
        <time>2011-06-25T12:44:41Z</time>
      </trkpt>
      <trkpt lat="43.339613" lon="-8.408592">
        <ele>95.0</ele>
        <time>2011-06-25T12:44:42Z</time>
      </trkpt>
      <trkpt lat="43.339613" lon="-8.408592">
        <ele>95.0</ele>
        <time>2011-06-25T12:44:43Z</time>
      </trkpt>
      <trkpt lat="43.339613" lon="-8.408592">
        <ele>95.0</ele>
        <time>2011-06-25T12:44:44Z</time>
      </trkpt>
      <trkpt lat="43.339613" lon="-8.408592">
        <ele>95.0</ele>
        <time>2011-06-25T12:44:45Z</time>
      </trkpt>
      <trkpt lat="43.339615" lon="-8.408592">
        <ele>95.5</ele>
        <time>2011-06-25T12:44:46Z</time>
      </trkpt>
      <trkpt lat="43.339615" lon="-8.408592">
        <ele>95.5</ele>
        <time>2011-06-25T12:44:47Z</time>
      </trkpt>
      <trkpt lat="43.339615" lon="-8.408590">
        <ele>95.5</ele>
        <time>2011-06-25T12:44:48Z</time>
      </trkpt>
      <trkpt lat="43.339615" lon="-8.408590">
        <ele>95.5</ele>
        <time>2011-06-25T12:44:49Z</time>
      </trkpt>
      <trkpt lat="43.339615" lon="-8.408590">
        <ele>95.5</ele>
        <time>2011-06-25T12:44:50Z</time>
      </trkpt>
      <trkpt lat="43.339617" lon="-8.408590">
        <ele>95.5</ele>
        <time>2011-06-25T12:44:51Z</time>
      </trkpt>
      <trkpt lat="43.339617" lon="-8.408590">
        <ele>95.5</ele>
        <time>2011-06-25T12:44:52Z</time>
      </trkpt>
      <trkpt lat="43.339617" lon="-8.408590">
        <ele>95.5</ele>
        <time>2011-06-25T12:44:53Z</time>
      </trkpt>
      <trkpt lat="43.339617" lon="-8.408590">
        <ele>95.5</ele>
        <time>2011-06-25T12:44:54Z</time>
      </trkpt>
      <trkpt lat="43.339617" lon="-8.408590">
        <ele>95.5</ele>
        <time>2011-06-25T12:44:55Z</time>
      </trkpt>
      <trkpt lat="43.339618" lon="-8.408590">
        <ele>95.5</ele>
        <time>2011-06-25T12:44:56Z</time>
      </trkpt>
      <trkpt lat="43.339622" lon="-8.408588">
        <ele>95.5</ele>
        <time>2011-06-25T12:44:57Z</time>
      </trkpt>
      <trkpt lat="43.339622" lon="-8.408588">
        <ele>95.5</ele>
        <time>2011-06-25T12:44:58Z</time>
      </trkpt>
      <trkpt lat="43.339622" lon="-8.408588">
        <ele>95.5</ele>
        <time>2011-06-25T12:44:59Z</time>
      </trkpt>
      <trkpt lat="43.339623" lon="-8.408588">
        <ele>95.5</ele>
        <time>2011-06-25T12:45:00Z</time>
      </trkpt>
      <trkpt lat="43.339623" lon="-8.408588">
        <ele>95.5</ele>
        <time>2011-06-25T12:45:01Z</time>
      </trkpt>
      <trkpt lat="43.339625" lon="-8.408587">
        <ele>95.5</ele>
        <time>2011-06-25T12:45:02Z</time>
      </trkpt>
      <trkpt lat="43.339625" lon="-8.408587">
        <ele>95.5</ele>
        <time>2011-06-25T12:45:03Z</time>
      </trkpt>
      <trkpt lat="43.339625" lon="-8.408587">
        <ele>95.5</ele>
        <time>2011-06-25T12:45:04Z</time>
      </trkpt>
      <trkpt lat="43.339625" lon="-8.408587">
        <ele>95.5</ele>
        <time>2011-06-25T12:45:05Z</time>
      </trkpt>
      <trkpt lat="43.339625" lon="-8.408587">
        <ele>95.5</ele>
        <time>2011-06-25T12:45:06Z</time>
      </trkpt>
      <trkpt lat="43.339625" lon="-8.408587">
        <ele>95.5</ele>
        <time>2011-06-25T12:45:07Z</time>
      </trkpt>
      <trkpt lat="43.339625" lon="-8.408587">
        <ele>95.5</ele>
        <time>2011-06-25T12:45:08Z</time>
      </trkpt>
      <trkpt lat="43.339625" lon="-8.408587">
        <ele>95.5</ele>
        <time>2011-06-25T12:45:09Z</time>
      </trkpt>
      <trkpt lat="43.339625" lon="-8.408587">
        <ele>95.5</ele>
        <time>2011-06-25T12:45:10Z</time>
      </trkpt>
      <trkpt lat="43.339627" lon="-8.408587">
        <ele>95.5</ele>
        <time>2011-06-25T12:45:11Z</time>
      </trkpt>
      <trkpt lat="43.339627" lon="-8.408587">
        <ele>95.5</ele>
        <time>2011-06-25T12:45:12Z</time>
      </trkpt>
      <trkpt lat="43.339627" lon="-8.408587">
        <ele>95.5</ele>
        <time>2011-06-25T12:45:13Z</time>
      </trkpt>
      <trkpt lat="43.339627" lon="-8.408587">
        <ele>95.5</ele>
        <time>2011-06-25T12:45:14Z</time>
      </trkpt>
      <trkpt lat="43.339628" lon="-8.408575">
        <ele>96.0</ele>
        <time>2011-06-25T12:45:15Z</time>
      </trkpt>
      <trkpt lat="43.339628" lon="-8.408580">
        <ele>96.0</ele>
        <time>2011-06-25T12:45:16Z</time>
      </trkpt>
      <trkpt lat="43.339630" lon="-8.408580">
        <ele>96.0</ele>
        <time>2011-06-25T12:45:17Z</time>
      </trkpt>
      <trkpt lat="43.339630" lon="-8.408580">
        <ele>96.0</ele>
        <time>2011-06-25T12:45:18Z</time>
      </trkpt>
      <trkpt lat="43.339633" lon="-8.408583">
        <ele>96.0</ele>
        <time>2011-06-25T12:45:19Z</time>
      </trkpt>
      <trkpt lat="43.339635" lon="-8.408583">
        <ele>96.0</ele>
        <time>2011-06-25T12:45:20Z</time>
      </trkpt>
      <trkpt lat="43.339633" lon="-8.408577">
        <ele>96.0</ele>
        <time>2011-06-25T12:45:22Z</time>
      </trkpt>
      <trkpt lat="43.339633" lon="-8.408568">
        <ele>96.5</ele>
        <time>2011-06-25T12:45:23Z</time>
      </trkpt>
      <trkpt lat="43.339633" lon="-8.408570">
        <ele>96.5</ele>
        <time>2011-06-25T12:45:24Z</time>
      </trkpt>
      <trkpt lat="43.339633" lon="-8.408567">
        <ele>96.5</ele>
        <time>2011-06-25T12:45:25Z</time>
      </trkpt>
      <trkpt lat="43.339633" lon="-8.408568">
        <ele>97.0</ele>
        <time>2011-06-25T12:45:26Z</time>
      </trkpt>
      <trkpt lat="43.339633" lon="-8.408568">
        <ele>97.0</ele>
        <time>2011-06-25T12:45:27Z</time>
      </trkpt>
      <trkpt lat="43.339633" lon="-8.408567">
        <ele>97.0</ele>
        <time>2011-06-25T12:45:27Z</time>
      </trkpt>
      <trkpt lat="43.339635" lon="-8.408567">
        <ele>97.0</ele>
        <time>2011-06-25T12:45:29Z</time>
      </trkpt>
      <trkpt lat="43.339635" lon="-8.408568">
        <ele>97.0</ele>
        <time>2011-06-25T12:45:30Z</time>
      </trkpt>
      <trkpt lat="43.339635" lon="-8.408568">
        <ele>97.0</ele>
        <time>2011-06-25T12:45:31Z</time>
      </trkpt>
      <trkpt lat="43.339635" lon="-8.408568">
        <ele>97.0</ele>
        <time>2011-06-25T12:45:32Z</time>
      </trkpt>
      <trkpt lat="43.339635" lon="-8.408568">
        <ele>97.0</ele>
        <time>2011-06-25T12:45:33Z</time>
      </trkpt>
      <trkpt lat="43.339635" lon="-8.408568">
        <ele>97.0</ele>
        <time>2011-06-25T12:45:34Z</time>
      </trkpt>
      <trkpt lat="43.339635" lon="-8.408568">
        <ele>97.0</ele>
        <time>2011-06-25T12:45:35Z</time>
      </trkpt>
      <trkpt lat="43.339635" lon="-8.408568">
        <ele>97.0</ele>
        <time>2011-06-25T12:45:36Z</time>
      </trkpt>
      <trkpt lat="43.339635" lon="-8.408568">
        <ele>97.0</ele>
        <time>2011-06-25T12:45:37Z</time>
      </trkpt>
      <trkpt lat="43.339635" lon="-8.408568">
        <ele>97.0</ele>
        <time>2011-06-25T12:45:38Z</time>
      </trkpt>
      <trkpt lat="43.339635" lon="-8.408568">
        <ele>97.0</ele>
        <time>2011-06-25T12:45:39Z</time>
      </trkpt>
      <trkpt lat="43.339635" lon="-8.408568">
        <ele>97.0</ele>
        <time>2011-06-25T12:45:40Z</time>
      </trkpt>
      <trkpt lat="43.339635" lon="-8.408568">
        <ele>97.0</ele>
        <time>2011-06-25T12:45:41Z</time>
      </trkpt>
      <trkpt lat="43.339635" lon="-8.408568">
        <ele>97.0</ele>
        <time>2011-06-25T12:45:42Z</time>
      </trkpt>
      <trkpt lat="43.339635" lon="-8.408568">
        <ele>97.0</ele>
        <time>2011-06-25T12:45:43Z</time>
      </trkpt>
      <trkpt lat="43.339635" lon="-8.408568">
        <ele>97.0</ele>
        <time>2011-06-25T12:45:44Z</time>
      </trkpt>
      <trkpt lat="43.339635" lon="-8.408568">
        <ele>97.0</ele>
        <time>2011-06-25T12:45:45Z</time>
      </trkpt>
      <trkpt lat="43.339637" lon="-8.408568">
        <ele>97.0</ele>
        <time>2011-06-25T12:45:46Z</time>
      </trkpt>
      <trkpt lat="43.339637" lon="-8.408568">
        <ele>97.0</ele>
        <time>2011-06-25T12:45:47Z</time>
      </trkpt>
      <trkpt lat="43.339637" lon="-8.408568">
        <ele>97.0</ele>
        <time>2011-06-25T12:45:48Z</time>
      </trkpt>
      <trkpt lat="43.339637" lon="-8.408568">
        <ele>97.0</ele>
        <time>2011-06-25T12:45:49Z</time>
      </trkpt>
      <trkpt lat="43.339637" lon="-8.408568">
        <ele>97.0</ele>
        <time>2011-06-25T12:45:50Z</time>
      </trkpt>
      <trkpt lat="43.339637" lon="-8.408568">
        <ele>97.0</ele>
        <time>2011-06-25T12:45:51Z</time>
      </trkpt>
      <trkpt lat="43.339638" lon="-8.408568">
        <ele>97.5</ele>
        <time>2011-06-25T12:45:52Z</time>
      </trkpt>
      <trkpt lat="43.339638" lon="-8.408543">
        <ele>98.5</ele>
        <time>2011-06-25T12:45:53Z</time>
      </trkpt>
      <trkpt lat="43.339638" lon="-8.408578">
        <ele>97.0</ele>
        <time>2011-06-25T12:45:54Z</time>
      </trkpt>
      <trkpt lat="43.339640" lon="-8.408598">
        <ele>96.0</ele>
        <time>2011-06-25T12:45:55Z</time>
      </trkpt>
      <trkpt lat="43.339642" lon="-8.408598">
        <ele>96.5</ele>
        <time>2011-06-25T12:45:56Z</time>
      </trkpt>
      <trkpt lat="43.339645" lon="-8.408597">
        <ele>96.5</ele>
        <time>2011-06-25T12:45:57Z</time>
      </trkpt>
      <trkpt lat="43.339647" lon="-8.408600">
        <ele>96.5</ele>
        <time>2011-06-25T12:45:58Z</time>
      </trkpt>
      <trkpt lat="43.339647" lon="-8.408602">
        <ele>96.0</ele>
        <time>2011-06-25T12:45:59Z</time>
      </trkpt>
      <trkpt lat="43.339648" lon="-8.408605">
        <ele>96.0</ele>
        <time>2011-06-25T12:46:00Z</time>
      </trkpt>
      <trkpt lat="43.339650" lon="-8.408605">
        <ele>96.0</ele>
        <time>2011-06-25T12:46:01Z</time>
      </trkpt>
      <trkpt lat="43.339652" lon="-8.408605">
        <ele>96.0</ele>
        <time>2011-06-25T12:46:02Z</time>
      </trkpt>
      <trkpt lat="43.339652" lon="-8.408605">
        <ele>96.5</ele>
        <time>2011-06-25T12:46:03Z</time>
      </trkpt>
      <trkpt lat="43.339653" lon="-8.408607">
        <ele>96.5</ele>
        <time>2011-06-25T12:46:04Z</time>
      </trkpt>
      <trkpt lat="43.339653" lon="-8.408607">
        <ele>96.5</ele>
        <time>2011-06-25T12:46:05Z</time>
      </trkpt>
      <trkpt lat="43.339655" lon="-8.408605">
        <ele>96.5</ele>
        <time>2011-06-25T12:46:06Z</time>
      </trkpt>
      <trkpt lat="43.339655" lon="-8.408605">
        <ele>96.5</ele>
        <time>2011-06-25T12:46:07Z</time>
      </trkpt>
      <trkpt lat="43.339655" lon="-8.408607">
        <ele>96.5</ele>
        <time>2011-06-25T12:46:08Z</time>
      </trkpt>
      <trkpt lat="43.339655" lon="-8.408607">
        <ele>96.5</ele>
        <time>2011-06-25T12:46:09Z</time>
      </trkpt>
      <trkpt lat="43.339655" lon="-8.408607">
        <ele>96.5</ele>
        <time>2011-06-25T12:46:10Z</time>
      </trkpt>
      <trkpt lat="43.339655" lon="-8.408607">
        <ele>96.5</ele>
        <time>2011-06-25T12:46:11Z</time>
      </trkpt>
      <trkpt lat="43.339655" lon="-8.408607">
        <ele>96.5</ele>
        <time>2011-06-25T12:46:12Z</time>
      </trkpt>
      <trkpt lat="43.339655" lon="-8.408607">
        <ele>96.5</ele>
        <time>2011-06-25T12:46:13Z</time>
      </trkpt>
      <trkpt lat="43.339655" lon="-8.408607">
        <ele>96.5</ele>
        <time>2011-06-25T12:46:14Z</time>
      </trkpt>
      <trkpt lat="43.339655" lon="-8.408607">
        <ele>96.5</ele>
        <time>2011-06-25T12:46:15Z</time>
      </trkpt>
      <trkpt lat="43.339655" lon="-8.408608">
        <ele>96.5</ele>
        <time>2011-06-25T12:46:16Z</time>
      </trkpt>
      <trkpt lat="43.339655" lon="-8.408607">
        <ele>96.5</ele>
        <time>2011-06-25T12:46:17Z</time>
      </trkpt>
      <trkpt lat="43.339655" lon="-8.408607">
        <ele>96.5</ele>
        <time>2011-06-25T12:46:18Z</time>
      </trkpt>
      <trkpt lat="43.339655" lon="-8.408607">
        <ele>96.5</ele>
        <time>2011-06-25T12:46:19Z</time>
      </trkpt>
      <trkpt lat="43.339657" lon="-8.408605">
        <ele>96.5</ele>
        <time>2011-06-25T12:46:20Z</time>
      </trkpt>
      <trkpt lat="43.339658" lon="-8.408607">
        <ele>96.5</ele>
        <time>2011-06-25T12:46:21Z</time>
      </trkpt>
      <trkpt lat="43.339658" lon="-8.408605">
        <ele>96.5</ele>
        <time>2011-06-25T12:46:22Z</time>
      </trkpt>
      <trkpt lat="43.339660" lon="-8.408605">
        <ele>96.5</ele>
        <time>2011-06-25T12:46:23Z</time>
      </trkpt>
      <trkpt lat="43.339660" lon="-8.408605">
        <ele>96.5</ele>
        <time>2011-06-25T12:46:24Z</time>
      </trkpt>
      <trkpt lat="43.339660" lon="-8.408605">
        <ele>96.5</ele>
        <time>2011-06-25T12:46:25Z</time>
      </trkpt>
      <trkpt lat="43.339660" lon="-8.408605">
        <ele>96.5</ele>
        <time>2011-06-25T12:46:26Z</time>
      </trkpt>
      <trkpt lat="43.339660" lon="-8.408605">
        <ele>96.5</ele>
        <time>2011-06-25T12:46:27Z</time>
      </trkpt>
      <trkpt lat="43.339660" lon="-8.408607">
        <ele>96.5</ele>
        <time>2011-06-25T12:46:28Z</time>
      </trkpt>
      <trkpt lat="43.339662" lon="-8.408607">
        <ele>96.5</ele>
        <time>2011-06-25T12:46:29Z</time>
      </trkpt>
      <trkpt lat="43.339662" lon="-8.408608">
        <ele>96.5</ele>
        <time>2011-06-25T12:46:30Z</time>
      </trkpt>
      <trkpt lat="43.339662" lon="-8.408608">
        <ele>96.5</ele>
        <time>2011-06-25T12:46:31Z</time>
      </trkpt>
      <trkpt lat="43.339662" lon="-8.408608">
        <ele>97.0</ele>
        <time>2011-06-25T12:46:32Z</time>
      </trkpt>
      <trkpt lat="43.339663" lon="-8.408607">
        <ele>97.0</ele>
        <time>2011-06-25T12:46:33Z</time>
      </trkpt>
      <trkpt lat="43.339663" lon="-8.408607">
        <ele>97.0</ele>
        <time>2011-06-25T12:46:34Z</time>
      </trkpt>
      <trkpt lat="43.339665" lon="-8.408607">
        <ele>97.0</ele>
        <time>2011-06-25T12:46:35Z</time>
      </trkpt>
      <trkpt lat="43.339665" lon="-8.408607">
        <ele>97.0</ele>
        <time>2011-06-25T12:46:36Z</time>
      </trkpt>
      <trkpt lat="43.339665" lon="-8.408608">
        <ele>97.0</ele>
        <time>2011-06-25T12:46:37Z</time>
      </trkpt>
      <trkpt lat="43.339667" lon="-8.408607">
        <ele>97.0</ele>
        <time>2011-06-25T12:46:38Z</time>
      </trkpt>
      <trkpt lat="43.339667" lon="-8.408607">
        <ele>97.0</ele>
        <time>2011-06-25T12:46:38Z</time>
      </trkpt>
      <trkpt lat="43.339667" lon="-8.408607">
        <ele>97.0</ele>
        <time>2011-06-25T12:46:40Z</time>
      </trkpt>
      <trkpt lat="43.339667" lon="-8.408608">
        <ele>97.0</ele>
        <time>2011-06-25T12:46:41Z</time>
      </trkpt>
      <trkpt lat="43.339667" lon="-8.408608">
        <ele>97.0</ele>
        <time>2011-06-25T12:46:42Z</time>
      </trkpt>
      <trkpt lat="43.339667" lon="-8.408608">
        <ele>97.0</ele>
        <time>2011-06-25T12:46:43Z</time>
      </trkpt>
      <trkpt lat="43.339668" lon="-8.408608">
        <ele>97.0</ele>
        <time>2011-06-25T12:46:43Z</time>
      </trkpt>
      <trkpt lat="43.339668" lon="-8.408610">
        <ele>97.0</ele>
        <time>2011-06-25T12:46:45Z</time>
      </trkpt>
      <trkpt lat="43.339668" lon="-8.408612">
        <ele>97.0</ele>
        <time>2011-06-25T12:46:46Z</time>
      </trkpt>
      <trkpt lat="43.339668" lon="-8.408612">
        <ele>97.0</ele>
        <time>2011-06-25T12:46:47Z</time>
      </trkpt>
      <trkpt lat="43.339668" lon="-8.408615">
        <ele>97.0</ele>
        <time>2011-06-25T12:46:48Z</time>
      </trkpt>
      <trkpt lat="43.339668" lon="-8.408615">
        <ele>97.0</ele>
        <time>2011-06-25T12:46:49Z</time>
      </trkpt>
      <trkpt lat="43.339670" lon="-8.408615">
        <ele>97.0</ele>
        <time>2011-06-25T12:46:50Z</time>
      </trkpt>
      <trkpt lat="43.339670" lon="-8.408615">
        <ele>97.0</ele>
        <time>2011-06-25T12:46:51Z</time>
      </trkpt>
      <trkpt lat="43.339670" lon="-8.408617">
        <ele>97.0</ele>
        <time>2011-06-25T12:46:52Z</time>
      </trkpt>
      <trkpt lat="43.339670" lon="-8.408617">
        <ele>97.0</ele>
        <time>2011-06-25T12:46:53Z</time>
      </trkpt>
      <trkpt lat="43.339670" lon="-8.408617">
        <ele>97.0</ele>
        <time>2011-06-25T12:46:54Z</time>
      </trkpt>
      <trkpt lat="43.339670" lon="-8.408617">
        <ele>97.0</ele>
        <time>2011-06-25T12:46:55Z</time>
      </trkpt>
      <trkpt lat="43.339670" lon="-8.408617">
        <ele>97.0</ele>
        <time>2011-06-25T12:46:56Z</time>
      </trkpt>
      <trkpt lat="43.339670" lon="-8.408617">
        <ele>97.0</ele>
        <time>2011-06-25T12:46:57Z</time>
      </trkpt>
      <trkpt lat="43.339670" lon="-8.408617">
        <ele>97.0</ele>
        <time>2011-06-25T12:46:58Z</time>
      </trkpt>
      <trkpt lat="43.339670" lon="-8.408617">
        <ele>97.0</ele>
        <time>2011-06-25T12:46:59Z</time>
      </trkpt>
      <trkpt lat="43.339670" lon="-8.408618">
        <ele>97.0</ele>
        <time>2011-06-25T12:47:00Z</time>
      </trkpt>
      <trkpt lat="43.339670" lon="-8.408620">
        <ele>97.0</ele>
        <time>2011-06-25T12:47:01Z</time>
      </trkpt>
      <trkpt lat="43.339670" lon="-8.408620">
        <ele>97.0</ele>
        <time>2011-06-25T12:47:02Z</time>
      </trkpt>
      <trkpt lat="43.339670" lon="-8.408620">
        <ele>97.0</ele>
        <time>2011-06-25T12:47:03Z</time>
      </trkpt>
      <trkpt lat="43.339670" lon="-8.408620">
        <ele>97.0</ele>
        <time>2011-06-25T12:47:04Z</time>
      </trkpt>
      <trkpt lat="43.339670" lon="-8.408620">
        <ele>97.0</ele>
        <time>2011-06-25T12:47:05Z</time>
      </trkpt>
      <trkpt lat="43.339670" lon="-8.408620">
        <ele>97.0</ele>
        <time>2011-06-25T12:47:06Z</time>
      </trkpt>
      <trkpt lat="43.339670" lon="-8.408620">
        <ele>97.0</ele>
        <time>2011-06-25T12:47:07Z</time>
      </trkpt>
      <trkpt lat="43.339670" lon="-8.408620">
        <ele>97.0</ele>
        <time>2011-06-25T12:47:08Z</time>
      </trkpt>
      <trkpt lat="43.339670" lon="-8.408622">
        <ele>97.0</ele>
        <time>2011-06-25T12:47:09Z</time>
      </trkpt>
      <trkpt lat="43.339672" lon="-8.408622">
        <ele>97.0</ele>
        <time>2011-06-25T12:47:10Z</time>
      </trkpt>
      <trkpt lat="43.339672" lon="-8.408623">
        <ele>97.0</ele>
        <time>2011-06-25T12:47:11Z</time>
      </trkpt>
      <trkpt lat="43.339672" lon="-8.408623">
        <ele>97.0</ele>
        <time>2011-06-25T12:47:12Z</time>
      </trkpt>
      <trkpt lat="43.339672" lon="-8.408625">
        <ele>97.0</ele>
        <time>2011-06-25T12:47:13Z</time>
      </trkpt>
      <trkpt lat="43.339672" lon="-8.408625">
        <ele>97.0</ele>
        <time>2011-06-25T12:47:14Z</time>
      </trkpt>
      <trkpt lat="43.339672" lon="-8.408627">
        <ele>97.0</ele>
        <time>2011-06-25T12:47:15Z</time>
      </trkpt>
      <trkpt lat="43.339672" lon="-8.408627">
        <ele>97.0</ele>
        <time>2011-06-25T12:47:16Z</time>
      </trkpt>
      <trkpt lat="43.339672" lon="-8.408627">
        <ele>97.0</ele>
        <time>2011-06-25T12:47:17Z</time>
      </trkpt>
      <trkpt lat="43.339672" lon="-8.408628">
        <ele>97.0</ele>
        <time>2011-06-25T12:47:18Z</time>
      </trkpt>
      <trkpt lat="43.339672" lon="-8.408628">
        <ele>97.0</ele>
        <time>2011-06-25T12:47:19Z</time>
      </trkpt>
      <trkpt lat="43.339673" lon="-8.408628">
        <ele>97.0</ele>
        <time>2011-06-25T12:47:20Z</time>
      </trkpt>
      <trkpt lat="43.339673" lon="-8.408630">
        <ele>97.0</ele>
        <time>2011-06-25T12:47:21Z</time>
      </trkpt>
      <trkpt lat="43.339673" lon="-8.408630">
        <ele>97.0</ele>
        <time>2011-06-25T12:47:22Z</time>
      </trkpt>
      <trkpt lat="43.339673" lon="-8.408630">
        <ele>97.0</ele>
        <time>2011-06-25T12:47:23Z</time>
      </trkpt>
      <trkpt lat="43.339673" lon="-8.408630">
        <ele>97.0</ele>
        <time>2011-06-25T12:47:24Z</time>
      </trkpt>
      <trkpt lat="43.339673" lon="-8.408630">
        <ele>97.0</ele>
        <time>2011-06-25T12:47:25Z</time>
      </trkpt>
      <trkpt lat="43.339673" lon="-8.408630">
        <ele>97.0</ele>
        <time>2011-06-25T12:47:26Z</time>
      </trkpt>
      <trkpt lat="43.339673" lon="-8.408630">
        <ele>97.0</ele>
        <time>2011-06-25T12:47:27Z</time>
      </trkpt>
      <trkpt lat="43.339673" lon="-8.408630">
        <ele>97.0</ele>
        <time>2011-06-25T12:47:28Z</time>
      </trkpt>
      <trkpt lat="43.339673" lon="-8.408630">
        <ele>97.0</ele>
        <time>2011-06-25T12:47:29Z</time>
      </trkpt>
      <trkpt lat="43.339673" lon="-8.408630">
        <ele>97.0</ele>
        <time>2011-06-25T12:47:30Z</time>
      </trkpt>
      <trkpt lat="43.339673" lon="-8.408630">
        <ele>97.0</ele>
        <time>2011-06-25T12:47:31Z</time>
      </trkpt>
      <trkpt lat="43.339673" lon="-8.408630">
        <ele>97.0</ele>
        <time>2011-06-25T12:47:32Z</time>
      </trkpt>
      <trkpt lat="43.339675" lon="-8.408630">
        <ele>97.0</ele>
        <time>2011-06-25T12:47:33Z</time>
      </trkpt>
      <trkpt lat="43.339675" lon="-8.408630">
        <ele>97.0</ele>
        <time>2011-06-25T12:47:34Z</time>
      </trkpt>
      <trkpt lat="43.339675" lon="-8.408630">
        <ele>97.0</ele>
        <time>2011-06-25T12:47:35Z</time>
      </trkpt>
      <trkpt lat="43.339675" lon="-8.408630">
        <ele>97.0</ele>
        <time>2011-06-25T12:47:36Z</time>
      </trkpt>
      <trkpt lat="43.339675" lon="-8.408630">
        <ele>97.0</ele>
        <time>2011-06-25T12:47:37Z</time>
      </trkpt>
      <trkpt lat="43.339675" lon="-8.408630">
        <ele>97.0</ele>
        <time>2011-06-25T12:47:38Z</time>
      </trkpt>
      <trkpt lat="43.339675" lon="-8.408630">
        <ele>97.0</ele>
        <time>2011-06-25T12:47:39Z</time>
      </trkpt>
      <trkpt lat="43.339675" lon="-8.408630">
        <ele>97.0</ele>
        <time>2011-06-25T12:47:40Z</time>
      </trkpt>
      <trkpt lat="43.339675" lon="-8.408630">
        <ele>97.0</ele>
        <time>2011-06-25T12:47:41Z</time>
      </trkpt>
      <trkpt lat="43.339675" lon="-8.408630">
        <ele>97.0</ele>
        <time>2011-06-25T12:47:42Z</time>
      </trkpt>
      <trkpt lat="43.339675" lon="-8.408630">
        <ele>97.0</ele>
        <time>2011-06-25T12:47:43Z</time>
      </trkpt>
      <trkpt lat="43.339675" lon="-8.408630">
        <ele>97.0</ele>
        <time>2011-06-25T12:47:44Z</time>
      </trkpt>
      <trkpt lat="43.339675" lon="-8.408630">
        <ele>97.0</ele>
        <time>2011-06-25T12:47:45Z</time>
      </trkpt>
      <trkpt lat="43.339675" lon="-8.408630">
        <ele>97.0</ele>
        <time>2011-06-25T12:47:46Z</time>
      </trkpt>
      <trkpt lat="43.339675" lon="-8.408632">
        <ele>97.0</ele>
        <time>2011-06-25T12:47:47Z</time>
      </trkpt>
      <trkpt lat="43.339675" lon="-8.408632">
        <ele>97.0</ele>
        <time>2011-06-25T12:47:48Z</time>
      </trkpt>
      <trkpt lat="43.339675" lon="-8.408630">
        <ele>97.5</ele>
        <time>2011-06-25T12:47:49Z</time>
      </trkpt>
      <trkpt lat="43.339677" lon="-8.408630">
        <ele>97.5</ele>
        <time>2011-06-25T12:47:50Z</time>
      </trkpt>
      <trkpt lat="43.339678" lon="-8.408630">
        <ele>97.5</ele>
        <time>2011-06-25T12:47:51Z</time>
      </trkpt>
      <trkpt lat="43.339678" lon="-8.408632">
        <ele>97.5</ele>
        <time>2011-06-25T12:47:52Z</time>
      </trkpt>
      <trkpt lat="43.339682" lon="-8.408633">
        <ele>97.5</ele>
        <time>2011-06-25T12:47:53Z</time>
      </trkpt>
      <trkpt lat="43.339685" lon="-8.408643">
        <ele>97.5</ele>
        <time>2011-06-25T12:47:54Z</time>
      </trkpt>
      <trkpt lat="43.339690" lon="-8.408647">
        <ele>98.0</ele>
        <time>2011-06-25T12:47:55Z</time>
      </trkpt>
      <trkpt lat="43.339690" lon="-8.408647">
        <ele>98.0</ele>
        <time>2011-06-25T12:47:56Z</time>
      </trkpt>
      <trkpt lat="43.339688" lon="-8.408648">
        <ele>98.0</ele>
        <time>2011-06-25T12:47:57Z</time>
      </trkpt>
      <trkpt lat="43.339690" lon="-8.408648">
        <ele>98.0</ele>
        <time>2011-06-25T12:47:58Z</time>
      </trkpt>
      <trkpt lat="43.339688" lon="-8.408652">
        <ele>98.0</ele>
        <time>2011-06-25T12:47:59Z</time>
      </trkpt>
      <trkpt lat="43.339687" lon="-8.408653">
        <ele>98.0</ele>
        <time>2011-06-25T12:48:00Z</time>
      </trkpt>
      <trkpt lat="43.339688" lon="-8.408653">
        <ele>98.0</ele>
        <time>2011-06-25T12:48:01Z</time>
      </trkpt>
      <trkpt lat="43.339687" lon="-8.408660">
        <ele>97.5</ele>
        <time>2011-06-25T12:48:02Z</time>
      </trkpt>
      <trkpt lat="43.339690" lon="-8.408667">
        <ele>97.5</ele>
        <time>2011-06-25T12:48:03Z</time>
      </trkpt>
      <trkpt lat="43.339692" lon="-8.408665">
        <ele>98.0</ele>
        <time>2011-06-25T12:48:04Z</time>
      </trkpt>
      <trkpt lat="43.339698" lon="-8.408667">
        <ele>98.0</ele>
        <time>2011-06-25T12:48:05Z</time>
      </trkpt>
      <trkpt lat="43.339710" lon="-8.408653">
        <ele>98.5</ele>
        <time>2011-06-25T12:48:06Z</time>
      </trkpt>
      <trkpt lat="43.339725" lon="-8.408642">
        <ele>98.5</ele>
        <time>2011-06-25T12:48:07Z</time>
      </trkpt>
      <trkpt lat="43.339738" lon="-8.408643">
        <ele>99.0</ele>
        <time>2011-06-25T12:48:08Z</time>
      </trkpt>
      <trkpt lat="43.339755" lon="-8.408623">
        <ele>99.0</ele>
        <time>2011-06-25T12:48:09Z</time>
      </trkpt>
      <trkpt lat="43.339768" lon="-8.408592">
        <ele>99.0</ele>
        <time>2011-06-25T12:48:10Z</time>
      </trkpt>
      <trkpt lat="43.339778" lon="-8.408553">
        <ele>99.0</ele>
        <time>2011-06-25T12:48:11Z</time>
      </trkpt>
      <trkpt lat="43.339787" lon="-8.408518">
        <ele>99.0</ele>
        <time>2011-06-25T12:48:12Z</time>
      </trkpt>
      <trkpt lat="43.339795" lon="-8.408483">
        <ele>99.0</ele>
        <time>2011-06-25T12:48:13Z</time>
      </trkpt>
      <trkpt lat="43.339800" lon="-8.408452">
        <ele>98.5</ele>
        <time>2011-06-25T12:48:14Z</time>
      </trkpt>
      <trkpt lat="43.339808" lon="-8.408422">
        <ele>98.0</ele>
        <time>2011-06-25T12:48:15Z</time>
      </trkpt>
      <trkpt lat="43.339813" lon="-8.408388">
        <ele>97.5</ele>
        <time>2011-06-25T12:48:16Z</time>
      </trkpt>
      <trkpt lat="43.339820" lon="-8.408352">
        <ele>97.5</ele>
        <time>2011-06-25T12:48:17Z</time>
      </trkpt>
      <trkpt lat="43.339825" lon="-8.408315">
        <ele>97.5</ele>
        <time>2011-06-25T12:48:18Z</time>
      </trkpt>
      <trkpt lat="43.339832" lon="-8.408297">
        <ele>96.5</ele>
        <time>2011-06-25T12:48:19Z</time>
      </trkpt>
      <trkpt lat="43.339838" lon="-8.408270">
        <ele>95.5</ele>
        <time>2011-06-25T12:48:20Z</time>
      </trkpt>
      <trkpt lat="43.339840" lon="-8.408255">
        <ele>94.0</ele>
        <time>2011-06-25T12:48:21Z</time>
      </trkpt>
      <trkpt lat="43.339837" lon="-8.408237">
        <ele>92.0</ele>
        <time>2011-06-25T12:48:22Z</time>
      </trkpt>
      <trkpt lat="43.339828" lon="-8.408215">
        <ele>90.5</ele>
        <time>2011-06-25T12:48:23Z</time>
      </trkpt>
      <trkpt lat="43.339815" lon="-8.408185">
        <ele>90.0</ele>
        <time>2011-06-25T12:48:24Z</time>
      </trkpt>
      <trkpt lat="43.339803" lon="-8.408153">
        <ele>90.0</ele>
        <time>2011-06-25T12:48:25Z</time>
      </trkpt>
      <trkpt lat="43.339793" lon="-8.408120">
        <ele>89.5</ele>
        <time>2011-06-25T12:48:26Z</time>
      </trkpt>
      <trkpt lat="43.339788" lon="-8.408070">
        <ele>88.0</ele>
        <time>2011-06-25T12:48:28Z</time>
      </trkpt>
      <trkpt lat="43.339818" lon="-8.408043">
        <ele>87.5</ele>
        <time>2011-06-25T12:48:29Z</time>
      </trkpt>
      <trkpt lat="43.339847" lon="-8.408017">
        <ele>87.5</ele>
        <time>2011-06-25T12:48:30Z</time>
      </trkpt>
      <trkpt lat="43.339878" lon="-8.407988">
        <ele>87.0</ele>
        <time>2011-06-25T12:48:31Z</time>
      </trkpt>
      <trkpt lat="43.339912" lon="-8.407960">
        <ele>87.0</ele>
        <time>2011-06-25T12:48:32Z</time>
      </trkpt>
      <trkpt lat="43.339947" lon="-8.407937">
        <ele>86.5</ele>
        <time>2011-06-25T12:48:33Z</time>
      </trkpt>
      <trkpt lat="43.339978" lon="-8.407915">
        <ele>86.5</ele>
        <time>2011-06-25T12:48:34Z</time>
      </trkpt>
      <trkpt lat="43.340010" lon="-8.407893">
        <ele>87.0</ele>
        <time>2011-06-25T12:48:35Z</time>
      </trkpt>
      <trkpt lat="43.340043" lon="-8.407873">
        <ele>86.5</ele>
        <time>2011-06-25T12:48:36Z</time>
      </trkpt>
      <trkpt lat="43.340068" lon="-8.407855">
        <ele>87.0</ele>
        <time>2011-06-25T12:48:37Z</time>
      </trkpt>
      <trkpt lat="43.340087" lon="-8.407848">
        <ele>87.0</ele>
        <time>2011-06-25T12:48:38Z</time>
      </trkpt>
      <trkpt lat="43.340108" lon="-8.407832">
        <ele>87.5</ele>
        <time>2011-06-25T12:48:39Z</time>
      </trkpt>
      <trkpt lat="43.340128" lon="-8.407817">
        <ele>87.5</ele>
        <time>2011-06-25T12:48:40Z</time>
      </trkpt>
      <trkpt lat="43.340133" lon="-8.407803">
        <ele>85.0</ele>
        <time>2011-06-25T12:48:41Z</time>
      </trkpt>
      <trkpt lat="43.340158" lon="-8.407793">
        <ele>85.5</ele>
        <time>2011-06-25T12:48:42Z</time>
      </trkpt>
      <trkpt lat="43.340182" lon="-8.407777">
        <ele>86.0</ele>
        <time>2011-06-25T12:48:43Z</time>
      </trkpt>
      <trkpt lat="43.340175" lon="-8.407752">
        <ele>86.0</ele>
        <time>2011-06-25T12:48:45Z</time>
      </trkpt>
      <trkpt lat="43.340233" lon="-8.407678">
        <ele>85.5</ele>
        <time>2011-06-25T12:48:47Z</time>
      </trkpt>
      <trkpt lat="43.340275" lon="-8.407650">
        <ele>85.5</ele>
        <time>2011-06-25T12:48:48Z</time>
      </trkpt>
      <trkpt lat="43.340313" lon="-8.407645">
        <ele>85.5</ele>
        <time>2011-06-25T12:48:49Z</time>
      </trkpt>
      <trkpt lat="43.340353" lon="-8.407633">
        <ele>86.0</ele>
        <time>2011-06-25T12:48:50Z</time>
      </trkpt>
      <trkpt lat="43.340380" lon="-8.407605">
        <ele>86.5</ele>
        <time>2011-06-25T12:48:51Z</time>
      </trkpt>
      <trkpt lat="43.340407" lon="-8.407567">
        <ele>86.0</ele>
        <time>2011-06-25T12:48:52Z</time>
      </trkpt>
      <trkpt lat="43.340437" lon="-8.407528">
        <ele>86.0</ele>
        <time>2011-06-25T12:48:53Z</time>
      </trkpt>
      <trkpt lat="43.340468" lon="-8.407492">
        <ele>86.0</ele>
        <time>2011-06-25T12:48:54Z</time>
      </trkpt>
      <trkpt lat="43.340497" lon="-8.407460">
        <ele>86.0</ele>
        <time>2011-06-25T12:48:55Z</time>
      </trkpt>
      <trkpt lat="43.340518" lon="-8.407425">
        <ele>86.0</ele>
        <time>2011-06-25T12:48:56Z</time>
      </trkpt>
      <trkpt lat="43.340547" lon="-8.407393">
        <ele>85.5</ele>
        <time>2011-06-25T12:48:57Z</time>
      </trkpt>
      <trkpt lat="43.340558" lon="-8.407368">
        <ele>87.5</ele>
        <time>2011-06-25T12:48:58Z</time>
      </trkpt>
      <trkpt lat="43.340612" lon="-8.407387">
        <ele>87.5</ele>
        <time>2011-06-25T12:49:00Z</time>
      </trkpt>
      <trkpt lat="43.340633" lon="-8.407410">
        <ele>87.5</ele>
        <time>2011-06-25T12:49:01Z</time>
      </trkpt>
      <trkpt lat="43.340658" lon="-8.407453">
        <ele>88.5</ele>
        <time>2011-06-25T12:49:03Z</time>
      </trkpt>
      <trkpt lat="43.340655" lon="-8.407487">
        <ele>90.0</ele>
        <time>2011-06-25T12:49:03Z</time>
      </trkpt>
      <trkpt lat="43.340632" lon="-8.407493">
        <ele>90.0</ele>
        <time>2011-06-25T12:49:04Z</time>
      </trkpt>
      <trkpt lat="43.340603" lon="-8.407470">
        <ele>90.0</ele>
        <time>2011-06-25T12:49:05Z</time>
      </trkpt>
      <trkpt lat="43.340597" lon="-8.407422">
        <ele>90.5</ele>
        <time>2011-06-25T12:49:06Z</time>
      </trkpt>
      <trkpt lat="43.340617" lon="-8.407382">
        <ele>90.5</ele>
        <time>2011-06-25T12:49:07Z</time>
      </trkpt>
      <trkpt lat="43.340628" lon="-8.407340">
        <ele>91.0</ele>
        <time>2011-06-25T12:49:09Z</time>
      </trkpt>
      <trkpt lat="43.340642" lon="-8.407298">
        <ele>91.0</ele>
        <time>2011-06-25T12:49:09Z</time>
      </trkpt>
      <trkpt lat="43.340657" lon="-8.407258">
        <ele>92.0</ele>
        <time>2011-06-25T12:49:10Z</time>
      </trkpt>
      <trkpt lat="43.340673" lon="-8.407218">
        <ele>92.5</ele>
        <time>2011-06-25T12:49:11Z</time>
      </trkpt>
      <trkpt lat="43.340688" lon="-8.407182">
        <ele>93.5</ele>
        <time>2011-06-25T12:49:12Z</time>
      </trkpt>
      <trkpt lat="43.340703" lon="-8.407147">
        <ele>94.0</ele>
        <time>2011-06-25T12:49:14Z</time>
      </trkpt>
      <trkpt lat="43.340718" lon="-8.407110">
        <ele>94.0</ele>
        <time>2011-06-25T12:49:14Z</time>
      </trkpt>
      <trkpt lat="43.340735" lon="-8.407072">
        <ele>93.5</ele>
        <time>2011-06-25T12:49:16Z</time>
      </trkpt>
      <trkpt lat="43.340752" lon="-8.407035">
        <ele>93.0</ele>
        <time>2011-06-25T12:49:16Z</time>
      </trkpt>
      <trkpt lat="43.340768" lon="-8.406992">
        <ele>92.5</ele>
        <time>2011-06-25T12:49:17Z</time>
      </trkpt>
      <trkpt lat="43.340787" lon="-8.406942">
        <ele>91.5</ele>
        <time>2011-06-25T12:49:18Z</time>
      </trkpt>
      <trkpt lat="43.340810" lon="-8.406890">
        <ele>91.5</ele>
        <time>2011-06-25T12:49:19Z</time>
      </trkpt>
      <trkpt lat="43.340833" lon="-8.406832">
        <ele>90.0</ele>
        <time>2011-06-25T12:49:20Z</time>
      </trkpt>
      <trkpt lat="43.340843" lon="-8.406770">
        <ele>89.5</ele>
        <time>2011-06-25T12:49:21Z</time>
      </trkpt>
      <trkpt lat="43.340825" lon="-8.406715">
        <ele>88.5</ele>
        <time>2011-06-25T12:49:22Z</time>
      </trkpt>
      <trkpt lat="43.340782" lon="-8.406698">
        <ele>88.5</ele>
        <time>2011-06-25T12:49:23Z</time>
      </trkpt>
      <trkpt lat="43.340775" lon="-8.406845">
        <ele>87.0</ele>
        <time>2011-06-25T12:49:25Z</time>
      </trkpt>
      <trkpt lat="43.340825" lon="-8.406892">
        <ele>86.0</ele>
        <time>2011-06-25T12:49:28Z</time>
      </trkpt>
      <trkpt lat="43.340867" lon="-8.406890">
        <ele>86.0</ele>
        <time>2011-06-25T12:49:28Z</time>
      </trkpt>
      <trkpt lat="43.340918" lon="-8.406857">
        <ele>87.0</ele>
        <time>2011-06-25T12:49:29Z</time>
      </trkpt>
      <trkpt lat="43.341025" lon="-8.406680">
        <ele>84.0</ele>
        <time>2011-06-25T12:49:31Z</time>
      </trkpt>
      <trkpt lat="43.341067" lon="-8.406600">
        <ele>83.5</ele>
        <time>2011-06-25T12:49:32Z</time>
      </trkpt>
      <trkpt lat="43.341107" lon="-8.406520">
        <ele>83.0</ele>
        <time>2011-06-25T12:49:34Z</time>
      </trkpt>
      <trkpt lat="43.341142" lon="-8.406442">
        <ele>83.0</ele>
        <time>2011-06-25T12:49:35Z</time>
      </trkpt>
      <trkpt lat="43.341170" lon="-8.406365">
        <ele>83.0</ele>
        <time>2011-06-25T12:49:35Z</time>
      </trkpt>
      <trkpt lat="43.341218" lon="-8.406268">
        <ele>83.0</ele>
        <time>2011-06-25T12:49:37Z</time>
      </trkpt>
      <trkpt lat="43.341227" lon="-8.406230">
        <ele>83.5</ele>
        <time>2011-06-25T12:49:38Z</time>
      </trkpt>
      <trkpt lat="43.341238" lon="-8.406185">
        <ele>84.5</ele>
        <time>2011-06-25T12:49:39Z</time>
      </trkpt>
      <trkpt lat="43.341250" lon="-8.406143">
        <ele>85.5</ele>
        <time>2011-06-25T12:49:40Z</time>
      </trkpt>
      <trkpt lat="43.341248" lon="-8.406093">
        <ele>85.5</ele>
        <time>2011-06-25T12:49:41Z</time>
      </trkpt>
      <trkpt lat="43.341248" lon="-8.406047">
        <ele>85.0</ele>
        <time>2011-06-25T12:49:42Z</time>
      </trkpt>
      <trkpt lat="43.341247" lon="-8.406000">
        <ele>85.5</ele>
        <time>2011-06-25T12:49:43Z</time>
      </trkpt>
      <trkpt lat="43.341282" lon="-8.405975">
        <ele>83.5</ele>
        <time>2011-06-25T12:49:44Z</time>
      </trkpt>
      <trkpt lat="43.341300" lon="-8.405940">
        <ele>83.5</ele>
        <time>2011-06-25T12:49:45Z</time>
      </trkpt>
      <trkpt lat="43.341308" lon="-8.405893">
        <ele>83.5</ele>
        <time>2011-06-25T12:49:47Z</time>
      </trkpt>
      <trkpt lat="43.341422" lon="-8.405852">
        <ele>84.5</ele>
        <time>2011-06-25T12:49:49Z</time>
      </trkpt>
      <trkpt lat="43.341453" lon="-8.405815">
        <ele>84.5</ele>
        <time>2011-06-25T12:49:49Z</time>
      </trkpt>
      <trkpt lat="43.341537" lon="-8.405762">
        <ele>84.5</ele>
        <time>2011-06-25T12:49:51Z</time>
      </trkpt>
      <trkpt lat="43.341503" lon="-8.405723">
        <ele>84.0</ele>
        <time>2011-06-25T12:49:53Z</time>
      </trkpt>
      <trkpt lat="43.341488" lon="-8.405722">
        <ele>84.0</ele>
        <time>2011-06-25T12:49:54Z</time>
      </trkpt>
      <trkpt lat="43.341487" lon="-8.405727">
        <ele>84.5</ele>
        <time>2011-06-25T12:49:55Z</time>
      </trkpt>
      <trkpt lat="43.341610" lon="-8.405765">
        <ele>87.0</ele>
        <time>2011-06-25T12:49:58Z</time>
      </trkpt>
      <trkpt lat="43.341630" lon="-8.405757">
        <ele>87.0</ele>
        <time>2011-06-25T12:49:59Z</time>
      </trkpt>
      <trkpt lat="43.341630" lon="-8.405738">
        <ele>88.0</ele>
        <time>2011-06-25T12:50:00Z</time>
      </trkpt>
      <trkpt lat="43.341643" lon="-8.405725">
        <ele>88.0</ele>
        <time>2011-06-25T12:50:01Z</time>
      </trkpt>
      <trkpt lat="43.341655" lon="-8.405712">
        <ele>87.5</ele>
        <time>2011-06-25T12:50:02Z</time>
      </trkpt>
      <trkpt lat="43.341655" lon="-8.405685">
        <ele>87.0</ele>
        <time>2011-06-25T12:50:03Z</time>
      </trkpt>
      <trkpt lat="43.341667" lon="-8.405693">
        <ele>87.0</ele>
        <time>2011-06-25T12:50:04Z</time>
      </trkpt>
      <trkpt lat="43.341672" lon="-8.405670">
        <ele>88.0</ele>
        <time>2011-06-25T12:50:05Z</time>
      </trkpt>
      <trkpt lat="43.341680" lon="-8.405645">
        <ele>89.0</ele>
        <time>2011-06-25T12:50:06Z</time>
      </trkpt>
      <trkpt lat="43.341698" lon="-8.405627">
        <ele>90.5</ele>
        <time>2011-06-25T12:50:07Z</time>
      </trkpt>
      <trkpt lat="43.341730" lon="-8.405602">
        <ele>91.0</ele>
        <time>2011-06-25T12:50:08Z</time>
      </trkpt>
      <trkpt lat="43.341755" lon="-8.405582">
        <ele>92.0</ele>
        <time>2011-06-25T12:50:09Z</time>
      </trkpt>
      <trkpt lat="43.341775" lon="-8.405530">
        <ele>91.5</ele>
        <time>2011-06-25T12:50:10Z</time>
      </trkpt>
      <trkpt lat="43.341793" lon="-8.405482">
        <ele>91.5</ele>
        <time>2011-06-25T12:50:11Z</time>
      </trkpt>
      <trkpt lat="43.341812" lon="-8.405450">
        <ele>92.5</ele>
        <time>2011-06-25T12:50:12Z</time>
      </trkpt>
      <trkpt lat="43.341827" lon="-8.405415">
        <ele>92.5</ele>
        <time>2011-06-25T12:50:14Z</time>
      </trkpt>
      <trkpt lat="43.341845" lon="-8.405383">
        <ele>94.0</ele>
        <time>2011-06-25T12:50:15Z</time>
      </trkpt>
      <trkpt lat="43.341860" lon="-8.405358">
        <ele>93.5</ele>
        <time>2011-06-25T12:50:15Z</time>
      </trkpt>
      <trkpt lat="43.341873" lon="-8.405343">
        <ele>93.0</ele>
        <time>2011-06-25T12:50:16Z</time>
      </trkpt>
      <trkpt lat="43.341885" lon="-8.405308">
        <ele>93.5</ele>
        <time>2011-06-25T12:50:18Z</time>
      </trkpt>
      <trkpt lat="43.341897" lon="-8.405275">
        <ele>93.5</ele>
        <time>2011-06-25T12:50:18Z</time>
      </trkpt>
      <trkpt lat="43.341907" lon="-8.405240">
        <ele>93.0</ele>
        <time>2011-06-25T12:50:19Z</time>
      </trkpt>
      <trkpt lat="43.341915" lon="-8.405202">
        <ele>93.0</ele>
        <time>2011-06-25T12:50:20Z</time>
      </trkpt>
      <trkpt lat="43.341928" lon="-8.405167">
        <ele>92.0</ele>
        <time>2011-06-25T12:50:22Z</time>
      </trkpt>
      <trkpt lat="43.341938" lon="-8.405133">
        <ele>92.0</ele>
        <time>2011-06-25T12:50:22Z</time>
      </trkpt>
      <trkpt lat="43.341952" lon="-8.405108">
        <ele>92.5</ele>
        <time>2011-06-25T12:50:23Z</time>
      </trkpt>
      <trkpt lat="43.341962" lon="-8.405088">
        <ele>93.5</ele>
        <time>2011-06-25T12:50:24Z</time>
      </trkpt>
      <trkpt lat="43.341970" lon="-8.405070">
        <ele>94.5</ele>
        <time>2011-06-25T12:50:25Z</time>
      </trkpt>
      <trkpt lat="43.341978" lon="-8.405058">
        <ele>95.5</ele>
        <time>2011-06-25T12:50:26Z</time>
      </trkpt>
      <trkpt lat="43.341992" lon="-8.405047">
        <ele>95.5</ele>
        <time>2011-06-25T12:50:27Z</time>
      </trkpt>
      <trkpt lat="43.342005" lon="-8.405032">
        <ele>95.5</ele>
        <time>2011-06-25T12:50:28Z</time>
      </trkpt>
      <trkpt lat="43.342025" lon="-8.405018">
        <ele>95.0</ele>
        <time>2011-06-25T12:50:29Z</time>
      </trkpt>
      <trkpt lat="43.342048" lon="-8.405010">
        <ele>96.0</ele>
        <time>2011-06-25T12:50:30Z</time>
      </trkpt>
      <trkpt lat="43.342237" lon="-8.405017">
        <ele>102.0</ele>
        <time>2011-06-25T12:50:33Z</time>
      </trkpt>
      <trkpt lat="43.342268" lon="-8.405012">
        <ele>102.5</ele>
        <time>2011-06-25T12:50:35Z</time>
      </trkpt>
      <trkpt lat="43.342290" lon="-8.405003">
        <ele>104.5</ele>
        <time>2011-06-25T12:50:35Z</time>
      </trkpt>
      <trkpt lat="43.342312" lon="-8.404987">
        <ele>106.5</ele>
        <time>2011-06-25T12:50:36Z</time>
      </trkpt>
      <trkpt lat="43.342340" lon="-8.404963">
        <ele>108.5</ele>
        <time>2011-06-25T12:50:37Z</time>
      </trkpt>
      <trkpt lat="43.342373" lon="-8.404942">
        <ele>110.5</ele>
        <time>2011-06-25T12:50:38Z</time>
      </trkpt>
      <trkpt lat="43.342412" lon="-8.404930">
        <ele>112.5</ele>
        <time>2011-06-25T12:50:39Z</time>
      </trkpt>
      <trkpt lat="43.342452" lon="-8.404920">
        <ele>113.0</ele>
        <time>2011-06-25T12:50:41Z</time>
      </trkpt>
      <trkpt lat="43.342497" lon="-8.404925">
        <ele>113.0</ele>
        <time>2011-06-25T12:50:42Z</time>
      </trkpt>
      <trkpt lat="43.342542" lon="-8.404917">
        <ele>113.5</ele>
        <time>2011-06-25T12:50:42Z</time>
      </trkpt>
      <trkpt lat="43.342578" lon="-8.404932">
        <ele>114.0</ele>
        <time>2011-06-25T12:50:43Z</time>
      </trkpt>
      <trkpt lat="43.342607" lon="-8.404973">
        <ele>116.0</ele>
        <time>2011-06-25T12:50:44Z</time>
      </trkpt>
      <trkpt lat="43.342737" lon="-8.405107">
        <ele>115.0</ele>
        <time>2011-06-25T12:50:48Z</time>
      </trkpt>
      <trkpt lat="43.342780" lon="-8.405158">
        <ele>114.5</ele>
        <time>2011-06-25T12:50:48Z</time>
      </trkpt>
      <trkpt lat="43.342915" lon="-8.405307">
        <ele>110.0</ele>
        <time>2011-06-25T12:50:51Z</time>
      </trkpt>
      <trkpt lat="43.343000" lon="-8.405420">
        <ele>107.0</ele>
        <time>2011-06-25T12:50:53Z</time>
      </trkpt>
      <trkpt lat="43.343037" lon="-8.405482">
        <ele>107.0</ele>
        <time>2011-06-25T12:50:54Z</time>
      </trkpt>
      <trkpt lat="43.343088" lon="-8.405538">
        <ele>103.5</ele>
        <time>2011-06-25T12:50:55Z</time>
      </trkpt>
      <trkpt lat="43.343140" lon="-8.405597">
        <ele>100.5</ele>
        <time>2011-06-25T12:50:56Z</time>
      </trkpt>
      <trkpt lat="43.343182" lon="-8.405658">
        <ele>99.0</ele>
        <time>2011-06-25T12:50:57Z</time>
      </trkpt>
      <trkpt lat="43.343225" lon="-8.405723">
        <ele>97.5</ele>
        <time>2011-06-25T12:50:58Z</time>
      </trkpt>
      <trkpt lat="43.343265" lon="-8.405788">
        <ele>97.0</ele>
        <time>2011-06-25T12:50:59Z</time>
      </trkpt>
      <trkpt lat="43.343305" lon="-8.405850">
        <ele>95.5</ele>
        <time>2011-06-25T12:51:00Z</time>
      </trkpt>
      <trkpt lat="43.343343" lon="-8.405912">
        <ele>95.5</ele>
        <time>2011-06-25T12:51:01Z</time>
      </trkpt>
      <trkpt lat="43.343388" lon="-8.405970">
        <ele>94.0</ele>
        <time>2011-06-25T12:51:02Z</time>
      </trkpt>
      <trkpt lat="43.343430" lon="-8.406028">
        <ele>93.0</ele>
        <time>2011-06-25T12:51:03Z</time>
      </trkpt>
      <trkpt lat="43.343473" lon="-8.406085">
        <ele>91.5</ele>
        <time>2011-06-25T12:51:04Z</time>
      </trkpt>
      <trkpt lat="43.343520" lon="-8.406143">
        <ele>90.5</ele>
        <time>2011-06-25T12:51:05Z</time>
      </trkpt>
      <trkpt lat="43.343572" lon="-8.406193">
        <ele>89.5</ele>
        <time>2011-06-25T12:51:06Z</time>
      </trkpt>
      <trkpt lat="43.343627" lon="-8.406242">
        <ele>87.5</ele>
        <time>2011-06-25T12:51:07Z</time>
      </trkpt>
      <trkpt lat="43.343672" lon="-8.406277">
        <ele>88.0</ele>
        <time>2011-06-25T12:51:08Z</time>
      </trkpt>
      <trkpt lat="43.343722" lon="-8.406313">
        <ele>88.0</ele>
        <time>2011-06-25T12:51:09Z</time>
      </trkpt>
      <trkpt lat="43.343765" lon="-8.406347">
        <ele>88.5</ele>
        <time>2011-06-25T12:51:10Z</time>
      </trkpt>
      <trkpt lat="43.343810" lon="-8.406377">
        <ele>88.5</ele>
        <time>2011-06-25T12:51:11Z</time>
      </trkpt>
      <trkpt lat="43.343862" lon="-8.406385">
        <ele>88.5</ele>
        <time>2011-06-25T12:51:12Z</time>
      </trkpt>
      <trkpt lat="43.343917" lon="-8.406390">
        <ele>88.5</ele>
        <time>2011-06-25T12:51:12Z</time>
      </trkpt>
      <trkpt lat="43.343970" lon="-8.406400">
        <ele>88.5</ele>
        <time>2011-06-25T12:51:13Z</time>
      </trkpt>
      <trkpt lat="43.344020" lon="-8.406412">
        <ele>89.0</ele>
        <time>2011-06-25T12:51:14Z</time>
      </trkpt>
      <trkpt lat="43.344073" lon="-8.406417">
        <ele>89.0</ele>
        <time>2011-06-25T12:51:16Z</time>
      </trkpt>
      <trkpt lat="43.344123" lon="-8.406432">
        <ele>89.0</ele>
        <time>2011-06-25T12:51:16Z</time>
      </trkpt>
      <trkpt lat="43.344178" lon="-8.406442">
        <ele>89.0</ele>
        <time>2011-06-25T12:51:17Z</time>
      </trkpt>
      <trkpt lat="43.344225" lon="-8.406457">
        <ele>90.5</ele>
        <time>2011-06-25T12:51:18Z</time>
      </trkpt>
      <trkpt lat="43.344280" lon="-8.406475">
        <ele>90.5</ele>
        <time>2011-06-25T12:51:19Z</time>
      </trkpt>
      <trkpt lat="43.344335" lon="-8.406493">
        <ele>90.5</ele>
        <time>2011-06-25T12:51:21Z</time>
      </trkpt>
      <trkpt lat="43.344390" lon="-8.406508">
        <ele>90.5</ele>
        <time>2011-06-25T12:51:22Z</time>
      </trkpt>
      <trkpt lat="43.344445" lon="-8.406522">
        <ele>90.5</ele>
        <time>2011-06-25T12:51:23Z</time>
      </trkpt>
      <trkpt lat="43.344498" lon="-8.406540">
        <ele>91.0</ele>
        <time>2011-06-25T12:51:24Z</time>
      </trkpt>
      <trkpt lat="43.344548" lon="-8.406568">
        <ele>91.0</ele>
        <time>2011-06-25T12:51:25Z</time>
      </trkpt>
      <trkpt lat="43.344587" lon="-8.406593">
        <ele>91.0</ele>
        <time>2011-06-25T12:51:25Z</time>
      </trkpt>
      <trkpt lat="43.344643" lon="-8.406583">
        <ele>91.0</ele>
        <time>2011-06-25T12:51:26Z</time>
      </trkpt>
      <trkpt lat="43.344690" lon="-8.406572">
        <ele>91.0</ele>
        <time>2011-06-25T12:51:28Z</time>
      </trkpt>
      <trkpt lat="43.344775" lon="-8.406580">
        <ele>91.0</ele>
        <time>2011-06-25T12:51:29Z</time>
      </trkpt>
      <trkpt lat="43.344820" lon="-8.406583">
        <ele>91.5</ele>
        <time>2011-06-25T12:51:30Z</time>
      </trkpt>
      <trkpt lat="43.344868" lon="-8.406570">
        <ele>91.5</ele>
        <time>2011-06-25T12:51:32Z</time>
      </trkpt>
      <trkpt lat="43.344915" lon="-8.406558">
        <ele>91.5</ele>
        <time>2011-06-25T12:51:33Z</time>
      </trkpt>
      <trkpt lat="43.344973" lon="-8.406562">
        <ele>92.0</ele>
        <time>2011-06-25T12:51:34Z</time>
      </trkpt>
      <trkpt lat="43.345025" lon="-8.406552">
        <ele>92.5</ele>
        <time>2011-06-25T12:51:35Z</time>
      </trkpt>
      <trkpt lat="43.345077" lon="-8.406542">
        <ele>93.0</ele>
        <time>2011-06-25T12:51:36Z</time>
      </trkpt>
      <trkpt lat="43.345128" lon="-8.406533">
        <ele>93.0</ele>
        <time>2011-06-25T12:51:37Z</time>
      </trkpt>
      <trkpt lat="43.345167" lon="-8.406530">
        <ele>93.5</ele>
        <time>2011-06-25T12:51:37Z</time>
      </trkpt>
      <trkpt lat="43.345268" lon="-8.406512">
        <ele>93.5</ele>
        <time>2011-06-25T12:51:40Z</time>
      </trkpt>
      <trkpt lat="43.345318" lon="-8.406503">
        <ele>94.0</ele>
        <time>2011-06-25T12:51:40Z</time>
      </trkpt>
      <trkpt lat="43.345362" lon="-8.406488">
        <ele>94.0</ele>
        <time>2011-06-25T12:51:41Z</time>
      </trkpt>
      <trkpt lat="43.345393" lon="-8.406467">
        <ele>94.5</ele>
        <time>2011-06-25T12:51:43Z</time>
      </trkpt>
      <trkpt lat="43.345443" lon="-8.406453">
        <ele>93.0</ele>
        <time>2011-06-25T12:51:43Z</time>
      </trkpt>
      <trkpt lat="43.345492" lon="-8.406442">
        <ele>93.0</ele>
        <time>2011-06-25T12:51:45Z</time>
      </trkpt>
      <trkpt lat="43.345538" lon="-8.406430">
        <ele>92.5</ele>
        <time>2011-06-25T12:51:46Z</time>
      </trkpt>
      <trkpt lat="43.345595" lon="-8.406412">
        <ele>92.0</ele>
        <time>2011-06-25T12:51:47Z</time>
      </trkpt>
      <trkpt lat="43.345643" lon="-8.406395">
        <ele>92.5</ele>
        <time>2011-06-25T12:51:48Z</time>
      </trkpt>
      <trkpt lat="43.345697" lon="-8.406387">
        <ele>91.5</ele>
        <time>2011-06-25T12:51:49Z</time>
      </trkpt>
      <trkpt lat="43.345738" lon="-8.406373">
        <ele>92.0</ele>
        <time>2011-06-25T12:51:50Z</time>
      </trkpt>
      <trkpt lat="43.345787" lon="-8.406357">
        <ele>93.0</ele>
        <time>2011-06-25T12:51:51Z</time>
      </trkpt>
      <trkpt lat="43.345828" lon="-8.406330">
        <ele>92.5</ele>
        <time>2011-06-25T12:51:52Z</time>
      </trkpt>
      <trkpt lat="43.345863" lon="-8.406317">
        <ele>92.0</ele>
        <time>2011-06-25T12:51:53Z</time>
      </trkpt>
      <trkpt lat="43.345902" lon="-8.406313">
        <ele>91.0</ele>
        <time>2011-06-25T12:51:54Z</time>
      </trkpt>
      <trkpt lat="43.345940" lon="-8.406307">
        <ele>89.5</ele>
        <time>2011-06-25T12:51:55Z</time>
      </trkpt>
      <trkpt lat="43.345980" lon="-8.406305">
        <ele>87.5</ele>
        <time>2011-06-25T12:51:56Z</time>
      </trkpt>
      <trkpt lat="43.346020" lon="-8.406305">
        <ele>87.0</ele>
        <time>2011-06-25T12:51:57Z</time>
      </trkpt>
      <trkpt lat="43.346058" lon="-8.406302">
        <ele>86.0</ele>
        <time>2011-06-25T12:51:58Z</time>
      </trkpt>
      <trkpt lat="43.346095" lon="-8.406290">
        <ele>85.5</ele>
        <time>2011-06-25T12:51:59Z</time>
      </trkpt>
      <trkpt lat="43.346140" lon="-8.406283">
        <ele>84.5</ele>
        <time>2011-06-25T12:52:00Z</time>
      </trkpt>
      <trkpt lat="43.346182" lon="-8.406277">
        <ele>84.5</ele>
        <time>2011-06-25T12:52:01Z</time>
      </trkpt>
      <trkpt lat="43.346227" lon="-8.406265">
        <ele>84.5</ele>
        <time>2011-06-25T12:52:02Z</time>
      </trkpt>
      <trkpt lat="43.346278" lon="-8.406237">
        <ele>83.0</ele>
        <time>2011-06-25T12:52:03Z</time>
      </trkpt>
      <trkpt lat="43.346318" lon="-8.406243">
        <ele>83.0</ele>
        <time>2011-06-25T12:52:04Z</time>
      </trkpt>
      <trkpt lat="43.346358" lon="-8.406237">
        <ele>82.5</ele>
        <time>2011-06-25T12:52:05Z</time>
      </trkpt>
      <trkpt lat="43.346405" lon="-8.406230">
        <ele>82.5</ele>
        <time>2011-06-25T12:52:06Z</time>
      </trkpt>
      <trkpt lat="43.346452" lon="-8.406218">
        <ele>82.5</ele>
        <time>2011-06-25T12:52:06Z</time>
      </trkpt>
      <trkpt lat="43.346497" lon="-8.406205">
        <ele>83.0</ele>
        <time>2011-06-25T12:52:08Z</time>
      </trkpt>
      <trkpt lat="43.346545" lon="-8.406192">
        <ele>83.0</ele>
        <time>2011-06-25T12:52:09Z</time>
      </trkpt>
      <trkpt lat="43.346577" lon="-8.406203">
        <ele>84.0</ele>
        <time>2011-06-25T12:52:10Z</time>
      </trkpt>
      <trkpt lat="43.346620" lon="-8.406203">
        <ele>83.0</ele>
        <time>2011-06-25T12:52:10Z</time>
      </trkpt>
      <trkpt lat="43.346662" lon="-8.406197">
        <ele>84.0</ele>
        <time>2011-06-25T12:52:12Z</time>
      </trkpt>
      <trkpt lat="43.346710" lon="-8.406188">
        <ele>84.0</ele>
        <time>2011-06-25T12:52:13Z</time>
      </trkpt>
      <trkpt lat="43.346762" lon="-8.406180">
        <ele>84.5</ele>
        <time>2011-06-25T12:52:14Z</time>
      </trkpt>
      <trkpt lat="43.346810" lon="-8.406170">
        <ele>84.0</ele>
        <time>2011-06-25T12:52:15Z</time>
      </trkpt>
      <trkpt lat="43.346858" lon="-8.406160">
        <ele>83.5</ele>
        <time>2011-06-25T12:52:16Z</time>
      </trkpt>
      <trkpt lat="43.346905" lon="-8.406148">
        <ele>83.0</ele>
        <time>2011-06-25T12:52:17Z</time>
      </trkpt>
      <trkpt lat="43.346948" lon="-8.406138">
        <ele>82.5</ele>
        <time>2011-06-25T12:52:18Z</time>
      </trkpt>
      <trkpt lat="43.347017" lon="-8.406117">
        <ele>82.5</ele>
        <time>2011-06-25T12:52:20Z</time>
      </trkpt>
      <trkpt lat="43.347065" lon="-8.406102">
        <ele>83.0</ele>
        <time>2011-06-25T12:52:21Z</time>
      </trkpt>
      <trkpt lat="43.347115" lon="-8.406088">
        <ele>84.0</ele>
        <time>2011-06-25T12:52:22Z</time>
      </trkpt>
      <trkpt lat="43.347165" lon="-8.406075">
        <ele>84.0</ele>
        <time>2011-06-25T12:52:22Z</time>
      </trkpt>
      <trkpt lat="43.347213" lon="-8.406065">
        <ele>84.5</ele>
        <time>2011-06-25T12:52:24Z</time>
      </trkpt>
      <trkpt lat="43.347263" lon="-8.406048">
        <ele>84.0</ele>
        <time>2011-06-25T12:52:25Z</time>
      </trkpt>
      <trkpt lat="43.347318" lon="-8.406033">
        <ele>83.5</ele>
        <time>2011-06-25T12:52:26Z</time>
      </trkpt>
      <trkpt lat="43.347370" lon="-8.406042">
        <ele>83.5</ele>
        <time>2011-06-25T12:52:27Z</time>
      </trkpt>
      <trkpt lat="43.347423" lon="-8.406000">
        <ele>84.0</ele>
        <time>2011-06-25T12:52:29Z</time>
      </trkpt>
      <trkpt lat="43.347463" lon="-8.405985">
        <ele>85.0</ele>
        <time>2011-06-25T12:52:30Z</time>
      </trkpt>
      <trkpt lat="43.347505" lon="-8.405972">
        <ele>85.0</ele>
        <time>2011-06-25T12:52:31Z</time>
      </trkpt>
      <trkpt lat="43.347548" lon="-8.405958">
        <ele>84.5</ele>
        <time>2011-06-25T12:52:32Z</time>
      </trkpt>
      <trkpt lat="43.347592" lon="-8.405953">
        <ele>85.0</ele>
        <time>2011-06-25T12:52:33Z</time>
      </trkpt>
      <trkpt lat="43.347635" lon="-8.405947">
        <ele>86.0</ele>
        <time>2011-06-25T12:52:34Z</time>
      </trkpt>
      <trkpt lat="43.347683" lon="-8.405940">
        <ele>86.0</ele>
        <time>2011-06-25T12:52:35Z</time>
      </trkpt>
      <trkpt lat="43.347735" lon="-8.405935">
        <ele>86.5</ele>
        <time>2011-06-25T12:52:36Z</time>
      </trkpt>
      <trkpt lat="43.347777" lon="-8.405928">
        <ele>87.5</ele>
        <time>2011-06-25T12:52:37Z</time>
      </trkpt>
      <trkpt lat="43.347820" lon="-8.405917">
        <ele>88.0</ele>
        <time>2011-06-25T12:52:38Z</time>
      </trkpt>
      <trkpt lat="43.347860" lon="-8.405908">
        <ele>89.0</ele>
        <time>2011-06-25T12:52:39Z</time>
      </trkpt>
      <trkpt lat="43.347902" lon="-8.405898">
        <ele>90.0</ele>
        <time>2011-06-25T12:52:40Z</time>
      </trkpt>
      <trkpt lat="43.347937" lon="-8.405887">
        <ele>90.5</ele>
        <time>2011-06-25T12:52:41Z</time>
      </trkpt>
      <trkpt lat="43.347975" lon="-8.405878">
        <ele>91.5</ele>
        <time>2011-06-25T12:52:42Z</time>
      </trkpt>
      <trkpt lat="43.348008" lon="-8.405870">
        <ele>92.5</ele>
        <time>2011-06-25T12:52:43Z</time>
      </trkpt>
      <trkpt lat="43.348032" lon="-8.405853">
        <ele>93.0</ele>
        <time>2011-06-25T12:52:44Z</time>
      </trkpt>
      <trkpt lat="43.348058" lon="-8.405842">
        <ele>94.0</ele>
        <time>2011-06-25T12:52:45Z</time>
      </trkpt>
      <trkpt lat="43.348090" lon="-8.405832">
        <ele>95.5</ele>
        <time>2011-06-25T12:52:46Z</time>
      </trkpt>
      <trkpt lat="43.348127" lon="-8.405823">
        <ele>95.0</ele>
        <time>2011-06-25T12:52:47Z</time>
      </trkpt>
      <trkpt lat="43.348167" lon="-8.405817">
        <ele>94.0</ele>
        <time>2011-06-25T12:52:48Z</time>
      </trkpt>
      <trkpt lat="43.348253" lon="-8.405765">
        <ele>94.0</ele>
        <time>2011-06-25T12:52:50Z</time>
      </trkpt>
      <trkpt lat="43.348292" lon="-8.405752">
        <ele>93.5</ele>
        <time>2011-06-25T12:52:51Z</time>
      </trkpt>
      <trkpt lat="43.348332" lon="-8.405733">
        <ele>93.0</ele>
        <time>2011-06-25T12:52:52Z</time>
      </trkpt>
      <trkpt lat="43.348373" lon="-8.405717">
        <ele>93.0</ele>
        <time>2011-06-25T12:52:53Z</time>
      </trkpt>
      <trkpt lat="43.348410" lon="-8.405697">
        <ele>92.5</ele>
        <time>2011-06-25T12:52:54Z</time>
      </trkpt>
      <trkpt lat="43.348448" lon="-8.405673">
        <ele>91.0</ele>
        <time>2011-06-25T12:52:55Z</time>
      </trkpt>
      <trkpt lat="43.348488" lon="-8.405650">
        <ele>89.5</ele>
        <time>2011-06-25T12:52:56Z</time>
      </trkpt>
      <trkpt lat="43.348527" lon="-8.405627">
        <ele>88.5</ele>
        <time>2011-06-25T12:52:57Z</time>
      </trkpt>
      <trkpt lat="43.348568" lon="-8.405602">
        <ele>87.5</ele>
        <time>2011-06-25T12:52:58Z</time>
      </trkpt>
      <trkpt lat="43.348617" lon="-8.405592">
        <ele>88.0</ele>
        <time>2011-06-25T12:52:59Z</time>
      </trkpt>
      <trkpt lat="43.348652" lon="-8.405568">
        <ele>88.0</ele>
        <time>2011-06-25T12:53:00Z</time>
      </trkpt>
      <trkpt lat="43.348692" lon="-8.405545">
        <ele>88.0</ele>
        <time>2011-06-25T12:53:01Z</time>
      </trkpt>
      <trkpt lat="43.348730" lon="-8.405517">
        <ele>87.5</ele>
        <time>2011-06-25T12:53:02Z</time>
      </trkpt>
      <trkpt lat="43.348775" lon="-8.405487">
        <ele>87.5</ele>
        <time>2011-06-25T12:53:03Z</time>
      </trkpt>
      <trkpt lat="43.348817" lon="-8.405455">
        <ele>87.0</ele>
        <time>2011-06-25T12:53:04Z</time>
      </trkpt>
      <trkpt lat="43.348858" lon="-8.405423">
        <ele>87.0</ele>
        <time>2011-06-25T12:53:05Z</time>
      </trkpt>
    </trkseg>
  </trk>
  <trk>
    <name>T2067676-26</name>
    <cmt>saida con compañeiros do C.C.Arteixo polos arredores da Coruña</cmt>
    <desc>saida con compañeiros do C.C.Arteixo polos arredores da Coruña</desc>
    <trkseg>
      <trkpt lat="43.348897" lon="-8.405390">
        <ele>87.0</ele>
        <time>2011-06-25T12:53:06Z</time>
      </trkpt>
      <trkpt lat="43.348935" lon="-8.405353">
        <ele>87.0</ele>
        <time>2011-06-25T12:53:07Z</time>
      </trkpt>
      <trkpt lat="43.348950" lon="-8.405310">
        <ele>88.5</ele>
        <time>2011-06-25T12:53:08Z</time>
      </trkpt>
      <trkpt lat="43.348990" lon="-8.405273">
        <ele>89.0</ele>
        <time>2011-06-25T12:53:09Z</time>
      </trkpt>
      <trkpt lat="43.349030" lon="-8.405237">
        <ele>89.0</ele>
        <time>2011-06-25T12:53:10Z</time>
      </trkpt>
      <trkpt lat="43.349068" lon="-8.405200">
        <ele>88.5</ele>
        <time>2011-06-25T12:53:11Z</time>
      </trkpt>
      <trkpt lat="43.349110" lon="-8.405160">
        <ele>88.5</ele>
        <time>2011-06-25T12:53:12Z</time>
      </trkpt>
      <trkpt lat="43.349153" lon="-8.405118">
        <ele>88.5</ele>
        <time>2011-06-25T12:53:13Z</time>
      </trkpt>
      <trkpt lat="43.349192" lon="-8.405080">
        <ele>89.5</ele>
        <time>2011-06-25T12:53:14Z</time>
      </trkpt>
      <trkpt lat="43.349235" lon="-8.405040">
        <ele>89.5</ele>
        <time>2011-06-25T12:53:15Z</time>
      </trkpt>
      <trkpt lat="43.349278" lon="-8.404997">
        <ele>89.5</ele>
        <time>2011-06-25T12:53:16Z</time>
      </trkpt>
      <trkpt lat="43.349327" lon="-8.404950">
        <ele>89.0</ele>
        <time>2011-06-25T12:53:17Z</time>
      </trkpt>
      <trkpt lat="43.349373" lon="-8.404907">
        <ele>89.0</ele>
        <time>2011-06-25T12:53:18Z</time>
      </trkpt>
      <trkpt lat="43.349458" lon="-8.404820">
        <ele>88.0</ele>
        <time>2011-06-25T12:53:20Z</time>
      </trkpt>
      <trkpt lat="43.349490" lon="-8.404758">
        <ele>87.0</ele>
        <time>2011-06-25T12:53:21Z</time>
      </trkpt>
      <trkpt lat="43.349600" lon="-8.404672">
        <ele>85.5</ele>
        <time>2011-06-25T12:53:22Z</time>
      </trkpt>
      <trkpt lat="43.349653" lon="-8.404627">
        <ele>84.5</ele>
        <time>2011-06-25T12:53:23Z</time>
      </trkpt>
      <trkpt lat="43.349685" lon="-8.404588">
        <ele>84.0</ele>
        <time>2011-06-25T12:53:24Z</time>
      </trkpt>
      <trkpt lat="43.349700" lon="-8.404538">
        <ele>83.0</ele>
        <time>2011-06-25T12:53:25Z</time>
      </trkpt>
      <trkpt lat="43.349687" lon="-8.404478">
        <ele>83.0</ele>
        <time>2011-06-25T12:53:26Z</time>
      </trkpt>
      <trkpt lat="43.349705" lon="-8.404425">
        <ele>82.5</ele>
        <time>2011-06-25T12:53:27Z</time>
      </trkpt>
      <trkpt lat="43.349730" lon="-8.404380">
        <ele>83.0</ele>
        <time>2011-06-25T12:53:28Z</time>
      </trkpt>
      <trkpt lat="43.349757" lon="-8.404338">
        <ele>83.5</ele>
        <time>2011-06-25T12:53:29Z</time>
      </trkpt>
      <trkpt lat="43.349788" lon="-8.404305">
        <ele>84.0</ele>
        <time>2011-06-25T12:53:30Z</time>
      </trkpt>
      <trkpt lat="43.349823" lon="-8.404275">
        <ele>84.0</ele>
        <time>2011-06-25T12:53:31Z</time>
      </trkpt>
      <trkpt lat="43.349853" lon="-8.404252">
        <ele>84.0</ele>
        <time>2011-06-25T12:53:33Z</time>
      </trkpt>
      <trkpt lat="43.349877" lon="-8.404260">
        <ele>83.5</ele>
        <time>2011-06-25T12:53:35Z</time>
      </trkpt>
      <trkpt lat="43.349978" lon="-8.404257">
        <ele>83.0</ele>
        <time>2011-06-25T12:53:36Z</time>
      </trkpt>
      <trkpt lat="43.349997" lon="-8.404253">
        <ele>83.0</ele>
        <time>2011-06-25T12:53:37Z</time>
      </trkpt>
      <trkpt lat="43.350028" lon="-8.404258">
        <ele>84.0</ele>
        <time>2011-06-25T12:53:39Z</time>
      </trkpt>
      <trkpt lat="43.350327" lon="-8.404202">
        <ele>89.5</ele>
        <time>2011-06-25T12:53:43Z</time>
      </trkpt>
      <trkpt lat="43.350370" lon="-8.404142">
        <ele>89.5</ele>
        <time>2011-06-25T12:53:44Z</time>
      </trkpt>
      <trkpt lat="43.350403" lon="-8.404100">
        <ele>89.5</ele>
        <time>2011-06-25T12:53:44Z</time>
      </trkpt>
      <trkpt lat="43.350422" lon="-8.404072">
        <ele>89.0</ele>
        <time>2011-06-25T12:53:46Z</time>
      </trkpt>
      <trkpt lat="43.351230" lon="-8.404213">
        <ele>89.5</ele>
        <time>2011-06-25T12:53:55Z</time>
      </trkpt>
      <trkpt lat="43.351187" lon="-8.403883">
        <ele>89.5</ele>
        <time>2011-06-25T12:53:58Z</time>
      </trkpt>
      <trkpt lat="43.351222" lon="-8.403507">
        <ele>90.5</ele>
        <time>2011-06-25T12:54:01Z</time>
      </trkpt>
      <trkpt lat="43.351223" lon="-8.403457">
        <ele>92.5</ele>
        <time>2011-06-25T12:54:02Z</time>
      </trkpt>
      <trkpt lat="43.351247" lon="-8.403417">
        <ele>94.0</ele>
        <time>2011-06-25T12:54:03Z</time>
      </trkpt>
      <trkpt lat="43.351292" lon="-8.403313">
        <ele>94.5</ele>
        <time>2011-06-25T12:54:05Z</time>
      </trkpt>
      <trkpt lat="43.351408" lon="-8.403273">
        <ele>94.5</ele>
        <time>2011-06-25T12:54:07Z</time>
      </trkpt>
      <trkpt lat="43.351463" lon="-8.403255">
        <ele>95.0</ele>
        <time>2011-06-25T12:54:08Z</time>
      </trkpt>
      <trkpt lat="43.351513" lon="-8.403227">
        <ele>95.0</ele>
        <time>2011-06-25T12:54:09Z</time>
      </trkpt>
      <trkpt lat="43.351570" lon="-8.403198">
        <ele>95.0</ele>
        <time>2011-06-25T12:54:10Z</time>
      </trkpt>
      <trkpt lat="43.351718" lon="-8.403127">
        <ele>93.5</ele>
        <time>2011-06-25T12:54:12Z</time>
      </trkpt>
      <trkpt lat="43.351855" lon="-8.403077">
        <ele>95.5</ele>
        <time>2011-06-25T12:54:14Z</time>
      </trkpt>
      <trkpt lat="43.352020" lon="-8.403027">
        <ele>97.0</ele>
        <time>2011-06-25T12:54:16Z</time>
      </trkpt>
      <trkpt lat="43.352200" lon="-8.403002">
        <ele>96.5</ele>
        <time>2011-06-25T12:54:18Z</time>
      </trkpt>
      <trkpt lat="43.352343" lon="-8.402978">
        <ele>95.5</ele>
        <time>2011-06-25T12:54:20Z</time>
      </trkpt>
      <trkpt lat="43.352397" lon="-8.402963">
        <ele>96.0</ele>
        <time>2011-06-25T12:54:21Z</time>
      </trkpt>
      <trkpt lat="43.352450" lon="-8.402952">
        <ele>96.5</ele>
        <time>2011-06-25T12:54:22Z</time>
      </trkpt>
      <trkpt lat="43.352498" lon="-8.402937">
        <ele>97.5</ele>
        <time>2011-06-25T12:54:23Z</time>
      </trkpt>
      <trkpt lat="43.352545" lon="-8.402918">
        <ele>98.5</ele>
        <time>2011-06-25T12:54:24Z</time>
      </trkpt>
      <trkpt lat="43.352595" lon="-8.402895">
        <ele>98.0</ele>
        <time>2011-06-25T12:54:25Z</time>
      </trkpt>
      <trkpt lat="43.352638" lon="-8.402882">
        <ele>98.0</ele>
        <time>2011-06-25T12:54:26Z</time>
      </trkpt>
      <trkpt lat="43.352683" lon="-8.402878">
        <ele>98.5</ele>
        <time>2011-06-25T12:54:27Z</time>
      </trkpt>
      <trkpt lat="43.352735" lon="-8.402872">
        <ele>98.0</ele>
        <time>2011-06-25T12:54:28Z</time>
      </trkpt>
      <trkpt lat="43.352778" lon="-8.402873">
        <ele>99.0</ele>
        <time>2011-06-25T12:54:29Z</time>
      </trkpt>
      <trkpt lat="43.352825" lon="-8.402882">
        <ele>99.5</ele>
        <time>2011-06-25T12:54:30Z</time>
      </trkpt>
      <trkpt lat="43.352865" lon="-8.402895">
        <ele>101.0</ele>
        <time>2011-06-25T12:54:31Z</time>
      </trkpt>
      <trkpt lat="43.352908" lon="-8.402903">
        <ele>101.5</ele>
        <time>2011-06-25T12:54:32Z</time>
      </trkpt>
      <trkpt lat="43.352952" lon="-8.402912">
        <ele>102.0</ele>
        <time>2011-06-25T12:54:33Z</time>
      </trkpt>
      <trkpt lat="43.353002" lon="-8.402925">
        <ele>100.5</ele>
        <time>2011-06-25T12:54:34Z</time>
      </trkpt>
      <trkpt lat="43.353045" lon="-8.402943">
        <ele>100.0</ele>
        <time>2011-06-25T12:54:35Z</time>
      </trkpt>
      <trkpt lat="43.353085" lon="-8.402963">
        <ele>100.5</ele>
        <time>2011-06-25T12:54:36Z</time>
      </trkpt>
      <trkpt lat="43.353130" lon="-8.402985">
        <ele>100.0</ele>
        <time>2011-06-25T12:54:37Z</time>
      </trkpt>
      <trkpt lat="43.353170" lon="-8.403007">
        <ele>100.0</ele>
        <time>2011-06-25T12:54:38Z</time>
      </trkpt>
      <trkpt lat="43.353210" lon="-8.403033">
        <ele>100.0</ele>
        <time>2011-06-25T12:54:39Z</time>
      </trkpt>
      <trkpt lat="43.353250" lon="-8.403062">
        <ele>100.0</ele>
        <time>2011-06-25T12:54:40Z</time>
      </trkpt>
      <trkpt lat="43.353287" lon="-8.403090">
        <ele>100.0</ele>
        <time>2011-06-25T12:54:41Z</time>
      </trkpt>
      <trkpt lat="43.353330" lon="-8.403115">
        <ele>99.0</ele>
        <time>2011-06-25T12:54:42Z</time>
      </trkpt>
      <trkpt lat="43.353367" lon="-8.403147">
        <ele>99.5</ele>
        <time>2011-06-25T12:54:43Z</time>
      </trkpt>
      <trkpt lat="43.353405" lon="-8.403177">
        <ele>99.0</ele>
        <time>2011-06-25T12:54:44Z</time>
      </trkpt>
      <trkpt lat="43.353447" lon="-8.403210">
        <ele>98.5</ele>
        <time>2011-06-25T12:54:45Z</time>
      </trkpt>
      <trkpt lat="43.353490" lon="-8.403245">
        <ele>97.0</ele>
        <time>2011-06-25T12:54:46Z</time>
      </trkpt>
      <trkpt lat="43.353535" lon="-8.403278">
        <ele>95.5</ele>
        <time>2011-06-25T12:54:47Z</time>
      </trkpt>
      <trkpt lat="43.353582" lon="-8.403312">
        <ele>93.5</ele>
        <time>2011-06-25T12:54:48Z</time>
      </trkpt>
      <trkpt lat="43.353620" lon="-8.403347">
        <ele>93.5</ele>
        <time>2011-06-25T12:54:49Z</time>
      </trkpt>
      <trkpt lat="43.353660" lon="-8.403378">
        <ele>92.5</ele>
        <time>2011-06-25T12:54:50Z</time>
      </trkpt>
      <trkpt lat="43.353700" lon="-8.403408">
        <ele>90.5</ele>
        <time>2011-06-25T12:54:50Z</time>
      </trkpt>
      <trkpt lat="43.353743" lon="-8.403445">
        <ele>89.5</ele>
        <time>2011-06-25T12:54:52Z</time>
      </trkpt>
      <trkpt lat="43.353780" lon="-8.403480">
        <ele>89.5</ele>
        <time>2011-06-25T12:54:53Z</time>
      </trkpt>
      <trkpt lat="43.353818" lon="-8.403515">
        <ele>89.5</ele>
        <time>2011-06-25T12:54:54Z</time>
      </trkpt>
      <trkpt lat="43.353852" lon="-8.403548">
        <ele>89.0</ele>
        <time>2011-06-25T12:54:54Z</time>
      </trkpt>
      <trkpt lat="43.353893" lon="-8.403578">
        <ele>88.5</ele>
        <time>2011-06-25T12:54:56Z</time>
      </trkpt>
      <trkpt lat="43.353927" lon="-8.403608">
        <ele>89.0</ele>
        <time>2011-06-25T12:54:57Z</time>
      </trkpt>
      <trkpt lat="43.353960" lon="-8.403642">
        <ele>90.0</ele>
        <time>2011-06-25T12:54:58Z</time>
      </trkpt>
      <trkpt lat="43.353995" lon="-8.403670">
        <ele>90.5</ele>
        <time>2011-06-25T12:54:59Z</time>
      </trkpt>
      <trkpt lat="43.354028" lon="-8.403698">
        <ele>90.0</ele>
        <time>2011-06-25T12:55:00Z</time>
      </trkpt>
      <trkpt lat="43.354060" lon="-8.403723">
        <ele>89.5</ele>
        <time>2011-06-25T12:55:01Z</time>
      </trkpt>
      <trkpt lat="43.354087" lon="-8.403738">
        <ele>89.5</ele>
        <time>2011-06-25T12:55:02Z</time>
      </trkpt>
      <trkpt lat="43.354097" lon="-8.403755">
        <ele>92.0</ele>
        <time>2011-06-25T12:55:03Z</time>
      </trkpt>
      <trkpt lat="43.354113" lon="-8.403767">
        <ele>91.5</ele>
        <time>2011-06-25T12:55:04Z</time>
      </trkpt>
      <trkpt lat="43.354128" lon="-8.403777">
        <ele>91.5</ele>
        <time>2011-06-25T12:55:05Z</time>
      </trkpt>
      <trkpt lat="43.354143" lon="-8.403785">
        <ele>90.5</ele>
        <time>2011-06-25T12:55:06Z</time>
      </trkpt>
      <trkpt lat="43.354158" lon="-8.403795">
        <ele>89.5</ele>
        <time>2011-06-25T12:55:07Z</time>
      </trkpt>
      <trkpt lat="43.354173" lon="-8.403800">
        <ele>88.5</ele>
        <time>2011-06-25T12:55:08Z</time>
      </trkpt>
      <trkpt lat="43.354192" lon="-8.403812">
        <ele>87.5</ele>
        <time>2011-06-25T12:55:09Z</time>
      </trkpt>
      <trkpt lat="43.354213" lon="-8.403827">
        <ele>86.0</ele>
        <time>2011-06-25T12:55:10Z</time>
      </trkpt>
      <trkpt lat="43.354242" lon="-8.403845">
        <ele>85.5</ele>
        <time>2011-06-25T12:55:11Z</time>
      </trkpt>
      <trkpt lat="43.354275" lon="-8.403863">
        <ele>84.0</ele>
        <time>2011-06-25T12:55:12Z</time>
      </trkpt>
      <trkpt lat="43.354317" lon="-8.403878">
        <ele>82.0</ele>
        <time>2011-06-25T12:55:13Z</time>
      </trkpt>
      <trkpt lat="43.354362" lon="-8.403893">
        <ele>80.0</ele>
        <time>2011-06-25T12:55:14Z</time>
      </trkpt>
      <trkpt lat="43.354410" lon="-8.403913">
        <ele>78.0</ele>
        <time>2011-06-25T12:55:15Z</time>
      </trkpt>
      <trkpt lat="43.354460" lon="-8.403933">
        <ele>75.5</ele>
        <time>2011-06-25T12:55:16Z</time>
      </trkpt>
      <trkpt lat="43.354510" lon="-8.403945">
        <ele>73.5</ele>
        <time>2011-06-25T12:55:17Z</time>
      </trkpt>
      <trkpt lat="43.354563" lon="-8.403957">
        <ele>72.0</ele>
        <time>2011-06-25T12:55:18Z</time>
      </trkpt>
      <trkpt lat="43.354615" lon="-8.403970">
        <ele>70.5</ele>
        <time>2011-06-25T12:55:19Z</time>
      </trkpt>
      <trkpt lat="43.354660" lon="-8.403988">
        <ele>70.5</ele>
        <time>2011-06-25T12:55:20Z</time>
      </trkpt>
      <trkpt lat="43.354703" lon="-8.404008">
        <ele>70.5</ele>
        <time>2011-06-25T12:55:21Z</time>
      </trkpt>
      <trkpt lat="43.354743" lon="-8.404028">
        <ele>71.0</ele>
        <time>2011-06-25T12:55:22Z</time>
      </trkpt>
      <trkpt lat="43.354777" lon="-8.404047">
        <ele>71.0</ele>
        <time>2011-06-25T12:55:23Z</time>
      </trkpt>
      <trkpt lat="43.354845" lon="-8.404083">
        <ele>73.0</ele>
        <time>2011-06-25T12:55:25Z</time>
      </trkpt>
      <trkpt lat="43.354835" lon="-8.404138">
        <ele>79.5</ele>
        <time>2011-06-25T12:55:26Z</time>
      </trkpt>
      <trkpt lat="43.354843" lon="-8.404190">
        <ele>81.5</ele>
        <time>2011-06-25T12:55:27Z</time>
      </trkpt>
      <trkpt lat="43.354878" lon="-8.404188">
        <ele>81.5</ele>
        <time>2011-06-25T12:55:28Z</time>
      </trkpt>
      <trkpt lat="43.354953" lon="-8.404192">
        <ele>81.5</ele>
        <time>2011-06-25T12:55:30Z</time>
      </trkpt>
      <trkpt lat="43.354993" lon="-8.404198">
        <ele>82.0</ele>
        <time>2011-06-25T12:55:31Z</time>
      </trkpt>
      <trkpt lat="43.355038" lon="-8.404207">
        <ele>82.0</ele>
        <time>2011-06-25T12:55:32Z</time>
      </trkpt>
      <trkpt lat="43.355087" lon="-8.404212">
        <ele>82.0</ele>
        <time>2011-06-25T12:55:33Z</time>
      </trkpt>
      <trkpt lat="43.355140" lon="-8.404218">
        <ele>81.5</ele>
        <time>2011-06-25T12:55:34Z</time>
      </trkpt>
      <trkpt lat="43.355188" lon="-8.404230">
        <ele>81.5</ele>
        <time>2011-06-25T12:55:35Z</time>
      </trkpt>
      <trkpt lat="43.355235" lon="-8.404243">
        <ele>82.0</ele>
        <time>2011-06-25T12:55:36Z</time>
      </trkpt>
      <trkpt lat="43.355268" lon="-8.404245">
        <ele>84.0</ele>
        <time>2011-06-25T12:55:37Z</time>
      </trkpt>
      <trkpt lat="43.355315" lon="-8.404252">
        <ele>84.5</ele>
        <time>2011-06-25T12:55:37Z</time>
      </trkpt>
      <trkpt lat="43.355358" lon="-8.404260">
        <ele>84.5</ele>
        <time>2011-06-25T12:55:39Z</time>
      </trkpt>
      <trkpt lat="43.355392" lon="-8.404275">
        <ele>85.5</ele>
        <time>2011-06-25T12:55:40Z</time>
      </trkpt>
      <trkpt lat="43.355428" lon="-8.404295">
        <ele>86.5</ele>
        <time>2011-06-25T12:55:41Z</time>
      </trkpt>
      <trkpt lat="43.355455" lon="-8.404323">
        <ele>86.5</ele>
        <time>2011-06-25T12:55:42Z</time>
      </trkpt>
      <trkpt lat="43.355552" lon="-8.404338">
        <ele>86.0</ele>
        <time>2011-06-25T12:55:44Z</time>
      </trkpt>
      <trkpt lat="43.355597" lon="-8.404345">
        <ele>86.0</ele>
        <time>2011-06-25T12:55:45Z</time>
      </trkpt>
      <trkpt lat="43.355633" lon="-8.404365">
        <ele>86.5</ele>
        <time>2011-06-25T12:55:46Z</time>
      </trkpt>
      <trkpt lat="43.355675" lon="-8.404378">
        <ele>86.5</ele>
        <time>2011-06-25T12:55:47Z</time>
      </trkpt>
      <trkpt lat="43.355717" lon="-8.404397">
        <ele>86.5</ele>
        <time>2011-06-25T12:55:48Z</time>
      </trkpt>
      <trkpt lat="43.355755" lon="-8.404415">
        <ele>87.5</ele>
        <time>2011-06-25T12:55:49Z</time>
      </trkpt>
      <trkpt lat="43.355793" lon="-8.404438">
        <ele>88.0</ele>
        <time>2011-06-25T12:55:49Z</time>
      </trkpt>
      <trkpt lat="43.355827" lon="-8.404462">
        <ele>88.0</ele>
        <time>2011-06-25T12:55:51Z</time>
      </trkpt>
      <trkpt lat="43.355872" lon="-8.404473">
        <ele>88.5</ele>
        <time>2011-06-25T12:55:52Z</time>
      </trkpt>
      <trkpt lat="43.355918" lon="-8.404480">
        <ele>88.5</ele>
        <time>2011-06-25T12:55:53Z</time>
      </trkpt>
      <trkpt lat="43.355963" lon="-8.404485">
        <ele>88.5</ele>
        <time>2011-06-25T12:55:54Z</time>
      </trkpt>
      <trkpt lat="43.356022" lon="-8.404452">
        <ele>89.0</ele>
        <time>2011-06-25T12:55:55Z</time>
      </trkpt>
      <trkpt lat="43.356098" lon="-8.404468">
        <ele>89.0</ele>
        <time>2011-06-25T12:55:57Z</time>
      </trkpt>
      <trkpt lat="43.356153" lon="-8.404485">
        <ele>89.5</ele>
        <time>2011-06-25T12:55:59Z</time>
      </trkpt>
      <trkpt lat="43.356180" lon="-8.404498">
        <ele>89.5</ele>
        <time>2011-06-25T12:56:00Z</time>
      </trkpt>
      <trkpt lat="43.356208" lon="-8.404498">
        <ele>89.5</ele>
        <time>2011-06-25T12:56:00Z</time>
      </trkpt>
      <trkpt lat="43.356230" lon="-8.404478">
        <ele>89.5</ele>
        <time>2011-06-25T12:56:02Z</time>
      </trkpt>
      <trkpt lat="43.356252" lon="-8.404488">
        <ele>89.5</ele>
        <time>2011-06-25T12:56:03Z</time>
      </trkpt>
      <trkpt lat="43.356268" lon="-8.404492">
        <ele>89.5</ele>
        <time>2011-06-25T12:56:04Z</time>
      </trkpt>
      <trkpt lat="43.356298" lon="-8.404468">
        <ele>89.0</ele>
        <time>2011-06-25T12:56:05Z</time>
      </trkpt>
      <trkpt lat="43.356327" lon="-8.404462">
        <ele>89.5</ele>
        <time>2011-06-25T12:56:06Z</time>
      </trkpt>
      <trkpt lat="43.356395" lon="-8.404378">
        <ele>88.5</ele>
        <time>2011-06-25T12:56:08Z</time>
      </trkpt>
      <trkpt lat="43.356430" lon="-8.404327">
        <ele>88.0</ele>
        <time>2011-06-25T12:56:09Z</time>
      </trkpt>
      <trkpt lat="43.356467" lon="-8.404283">
        <ele>89.0</ele>
        <time>2011-06-25T12:56:10Z</time>
      </trkpt>
      <trkpt lat="43.356470" lon="-8.404215">
        <ele>90.5</ele>
        <time>2011-06-25T12:56:11Z</time>
      </trkpt>
      <trkpt lat="43.356513" lon="-8.404178">
        <ele>90.5</ele>
        <time>2011-06-25T12:56:12Z</time>
      </trkpt>
      <trkpt lat="43.356535" lon="-8.404132">
        <ele>89.5</ele>
        <time>2011-06-25T12:56:13Z</time>
      </trkpt>
      <trkpt lat="43.356557" lon="-8.404097">
        <ele>88.5</ele>
        <time>2011-06-25T12:56:14Z</time>
      </trkpt>
      <trkpt lat="43.356580" lon="-8.404058">
        <ele>88.0</ele>
        <time>2011-06-25T12:56:15Z</time>
      </trkpt>
      <trkpt lat="43.356608" lon="-8.404022">
        <ele>86.5</ele>
        <time>2011-06-25T12:56:16Z</time>
      </trkpt>
      <trkpt lat="43.356683" lon="-8.403955">
        <ele>84.5</ele>
        <time>2011-06-25T12:56:18Z</time>
      </trkpt>
      <trkpt lat="43.356703" lon="-8.403923">
        <ele>84.5</ele>
        <time>2011-06-25T12:56:19Z</time>
      </trkpt>
      <trkpt lat="43.356727" lon="-8.403910">
        <ele>85.5</ele>
        <time>2011-06-25T12:56:20Z</time>
      </trkpt>
      <trkpt lat="43.356902" lon="-8.403948">
        <ele>87.0</ele>
        <time>2011-06-25T12:56:23Z</time>
      </trkpt>
      <trkpt lat="43.356955" lon="-8.403963">
        <ele>87.0</ele>
        <time>2011-06-25T12:56:24Z</time>
      </trkpt>
      <trkpt lat="43.356992" lon="-8.403977">
        <ele>87.5</ele>
        <time>2011-06-25T12:56:25Z</time>
      </trkpt>
      <trkpt lat="43.357128" lon="-8.404020">
        <ele>92.0</ele>
        <time>2011-06-25T12:56:27Z</time>
      </trkpt>
      <trkpt lat="43.357193" lon="-8.404032">
        <ele>94.5</ele>
        <time>2011-06-25T12:56:28Z</time>
      </trkpt>
      <trkpt lat="43.357248" lon="-8.404060">
        <ele>96.5</ele>
        <time>2011-06-25T12:56:29Z</time>
      </trkpt>
      <trkpt lat="43.357287" lon="-8.404070">
        <ele>98.5</ele>
        <time>2011-06-25T12:56:30Z</time>
      </trkpt>
      <trkpt lat="43.357335" lon="-8.404082">
        <ele>99.5</ele>
        <time>2011-06-25T12:56:31Z</time>
      </trkpt>
      <trkpt lat="43.357517" lon="-8.404053">
        <ele>100.0</ele>
        <time>2011-06-25T12:56:34Z</time>
      </trkpt>
      <trkpt lat="43.357577" lon="-8.404035">
        <ele>100.5</ele>
        <time>2011-06-25T12:56:35Z</time>
      </trkpt>
      <trkpt lat="43.357630" lon="-8.404020">
        <ele>100.5</ele>
        <time>2011-06-25T12:56:36Z</time>
      </trkpt>
      <trkpt lat="43.357722" lon="-8.403992">
        <ele>100.5</ele>
        <time>2011-06-25T12:56:38Z</time>
      </trkpt>
      <trkpt lat="43.357868" lon="-8.403930">
        <ele>100.5</ele>
        <time>2011-06-25T12:56:41Z</time>
      </trkpt>
      <trkpt lat="43.357925" lon="-8.403898">
        <ele>101.0</ele>
        <time>2011-06-25T12:56:41Z</time>
      </trkpt>
      <trkpt lat="43.358343" lon="-8.403970">
        <ele>101.5</ele>
        <time>2011-06-25T12:56:46Z</time>
      </trkpt>
      <trkpt lat="43.358397" lon="-8.403935">
        <ele>101.5</ele>
        <time>2011-06-25T12:56:47Z</time>
      </trkpt>
      <trkpt lat="43.358538" lon="-8.403792">
        <ele>103.0</ele>
        <time>2011-06-25T12:56:49Z</time>
      </trkpt>
      <trkpt lat="43.358712" lon="-8.403650">
        <ele>104.5</ele>
        <time>2011-06-25T12:56:51Z</time>
      </trkpt>
      <trkpt lat="43.358798" lon="-8.403582">
        <ele>104.0</ele>
        <time>2011-06-25T12:56:52Z</time>
      </trkpt>
      <trkpt lat="43.358798" lon="-8.403368">
        <ele>104.0</ele>
        <time>2011-06-25T12:56:56Z</time>
      </trkpt>
      <trkpt lat="43.358793" lon="-8.403377">
        <ele>103.5</ele>
        <time>2011-06-25T12:56:58Z</time>
      </trkpt>
      <trkpt lat="43.358798" lon="-8.403362">
        <ele>105.0</ele>
        <time>2011-06-25T12:56:58Z</time>
      </trkpt>
      <trkpt lat="43.358807" lon="-8.403350">
        <ele>105.5</ele>
        <time>2011-06-25T12:56:59Z</time>
      </trkpt>
      <trkpt lat="43.358797" lon="-8.403320">
        <ele>106.5</ele>
        <time>2011-06-25T12:57:00Z</time>
      </trkpt>
      <trkpt lat="43.358787" lon="-8.403302">
        <ele>106.5</ele>
        <time>2011-06-25T12:57:01Z</time>
      </trkpt>
      <trkpt lat="43.358778" lon="-8.403285">
        <ele>107.5</ele>
        <time>2011-06-25T12:57:02Z</time>
      </trkpt>
      <trkpt lat="43.358772" lon="-8.403295">
        <ele>107.5</ele>
        <time>2011-06-25T12:57:04Z</time>
      </trkpt>
      <trkpt lat="43.358765" lon="-8.403278">
        <ele>108.5</ele>
        <time>2011-06-25T12:57:04Z</time>
      </trkpt>
      <trkpt lat="43.358755" lon="-8.403258">
        <ele>109.5</ele>
        <time>2011-06-25T12:57:05Z</time>
      </trkpt>
      <trkpt lat="43.358738" lon="-8.403240">
        <ele>110.0</ele>
        <time>2011-06-25T12:57:06Z</time>
      </trkpt>
      <trkpt lat="43.358732" lon="-8.403223">
        <ele>110.0</ele>
        <time>2011-06-25T12:57:07Z</time>
      </trkpt>
      <trkpt lat="43.358733" lon="-8.403223">
        <ele>110.0</ele>
        <time>2011-06-25T12:57:08Z</time>
      </trkpt>
      <trkpt lat="43.358730" lon="-8.403217">
        <ele>110.5</ele>
        <time>2011-06-25T12:57:09Z</time>
      </trkpt>
      <trkpt lat="43.358727" lon="-8.403212">
        <ele>110.5</ele>
        <time>2011-06-25T12:57:10Z</time>
      </trkpt>
      <trkpt lat="43.358723" lon="-8.403203">
        <ele>111.5</ele>
        <time>2011-06-25T12:57:12Z</time>
      </trkpt>
      <trkpt lat="43.358727" lon="-8.403203">
        <ele>111.5</ele>
        <time>2011-06-25T12:57:12Z</time>
      </trkpt>
      <trkpt lat="43.358743" lon="-8.403202">
        <ele>110.5</ele>
        <time>2011-06-25T12:57:13Z</time>
      </trkpt>
      <trkpt lat="43.358757" lon="-8.403192">
        <ele>111.5</ele>
        <time>2011-06-25T12:57:14Z</time>
      </trkpt>
      <trkpt lat="43.358780" lon="-8.403172">
        <ele>112.5</ele>
        <time>2011-06-25T12:57:15Z</time>
      </trkpt>
      <trkpt lat="43.358812" lon="-8.403165">
        <ele>113.0</ele>
        <time>2011-06-25T12:57:16Z</time>
      </trkpt>
      <trkpt lat="43.358852" lon="-8.403160">
        <ele>113.5</ele>
        <time>2011-06-25T12:57:17Z</time>
      </trkpt>
      <trkpt lat="43.358898" lon="-8.403160">
        <ele>113.5</ele>
        <time>2011-06-25T12:57:18Z</time>
      </trkpt>
      <trkpt lat="43.358947" lon="-8.403168">
        <ele>113.5</ele>
        <time>2011-06-25T12:57:19Z</time>
      </trkpt>
      <trkpt lat="43.358992" lon="-8.403183">
        <ele>114.0</ele>
        <time>2011-06-25T12:57:21Z</time>
      </trkpt>
      <trkpt lat="43.359033" lon="-8.403207">
        <ele>114.5</ele>
        <time>2011-06-25T12:57:21Z</time>
      </trkpt>
      <trkpt lat="43.359078" lon="-8.403233">
        <ele>114.5</ele>
        <time>2011-06-25T12:57:23Z</time>
      </trkpt>
      <trkpt lat="43.359115" lon="-8.403267">
        <ele>114.5</ele>
        <time>2011-06-25T12:57:23Z</time>
      </trkpt>
      <trkpt lat="43.359152" lon="-8.403297">
        <ele>114.5</ele>
        <time>2011-06-25T12:57:24Z</time>
      </trkpt>
      <trkpt lat="43.359198" lon="-8.403313">
        <ele>113.5</ele>
        <time>2011-06-25T12:57:25Z</time>
      </trkpt>
      <trkpt lat="43.359233" lon="-8.403340">
        <ele>113.5</ele>
        <time>2011-06-25T12:57:26Z</time>
      </trkpt>
      <trkpt lat="43.359263" lon="-8.403368">
        <ele>114.0</ele>
        <time>2011-06-25T12:57:27Z</time>
      </trkpt>
      <trkpt lat="43.359305" lon="-8.403388">
        <ele>113.5</ele>
        <time>2011-06-25T12:57:28Z</time>
      </trkpt>
      <trkpt lat="43.359340" lon="-8.403415">
        <ele>113.5</ele>
        <time>2011-06-25T12:57:29Z</time>
      </trkpt>
      <trkpt lat="43.359378" lon="-8.403445">
        <ele>112.0</ele>
        <time>2011-06-25T12:57:30Z</time>
      </trkpt>
      <trkpt lat="43.359413" lon="-8.403473">
        <ele>111.0</ele>
        <time>2011-06-25T12:57:31Z</time>
      </trkpt>
      <trkpt lat="43.359450" lon="-8.403498">
        <ele>109.5</ele>
        <time>2011-06-25T12:57:33Z</time>
      </trkpt>
      <trkpt lat="43.359487" lon="-8.403520">
        <ele>109.0</ele>
        <time>2011-06-25T12:57:33Z</time>
      </trkpt>
      <trkpt lat="43.359523" lon="-8.403550">
        <ele>108.0</ele>
        <time>2011-06-25T12:57:34Z</time>
      </trkpt>
      <trkpt lat="43.359562" lon="-8.403563">
        <ele>107.0</ele>
        <time>2011-06-25T12:57:35Z</time>
      </trkpt>
      <trkpt lat="43.359598" lon="-8.403597">
        <ele>106.5</ele>
        <time>2011-06-25T12:57:36Z</time>
      </trkpt>
      <trkpt lat="43.359633" lon="-8.403630">
        <ele>105.0</ele>
        <time>2011-06-25T12:57:37Z</time>
      </trkpt>
      <trkpt lat="43.359667" lon="-8.403662">
        <ele>103.5</ele>
        <time>2011-06-25T12:57:38Z</time>
      </trkpt>
      <trkpt lat="43.359700" lon="-8.403688">
        <ele>102.0</ele>
        <time>2011-06-25T12:57:39Z</time>
      </trkpt>
      <trkpt lat="43.359735" lon="-8.403717">
        <ele>101.0</ele>
        <time>2011-06-25T12:57:40Z</time>
      </trkpt>
      <trkpt lat="43.359768" lon="-8.403750">
        <ele>101.0</ele>
        <time>2011-06-25T12:57:42Z</time>
      </trkpt>
      <trkpt lat="43.359800" lon="-8.403787">
        <ele>101.5</ele>
        <time>2011-06-25T12:57:42Z</time>
      </trkpt>
      <trkpt lat="43.359835" lon="-8.403822">
        <ele>101.5</ele>
        <time>2011-06-25T12:57:44Z</time>
      </trkpt>
      <trkpt lat="43.359868" lon="-8.403860">
        <ele>101.5</ele>
        <time>2011-06-25T12:57:44Z</time>
      </trkpt>
      <trkpt lat="43.359908" lon="-8.403895">
        <ele>101.0</ele>
        <time>2011-06-25T12:57:45Z</time>
      </trkpt>
      <trkpt lat="43.359942" lon="-8.403932">
        <ele>101.0</ele>
        <time>2011-06-25T12:57:46Z</time>
      </trkpt>
      <trkpt lat="43.359975" lon="-8.403967">
        <ele>101.5</ele>
        <time>2011-06-25T12:57:48Z</time>
      </trkpt>
      <trkpt lat="43.360010" lon="-8.404000">
        <ele>102.0</ele>
        <time>2011-06-25T12:57:49Z</time>
      </trkpt>
      <trkpt lat="43.360045" lon="-8.404035">
        <ele>102.0</ele>
        <time>2011-06-25T12:57:49Z</time>
      </trkpt>
      <trkpt lat="43.360083" lon="-8.404070">
        <ele>102.0</ele>
        <time>2011-06-25T12:57:50Z</time>
      </trkpt>
      <trkpt lat="43.360118" lon="-8.404098">
        <ele>100.5</ele>
        <time>2011-06-25T12:57:51Z</time>
      </trkpt>
      <trkpt lat="43.360153" lon="-8.404130">
        <ele>101.0</ele>
        <time>2011-06-25T12:57:52Z</time>
      </trkpt>
      <trkpt lat="43.360193" lon="-8.404170">
        <ele>100.0</ele>
        <time>2011-06-25T12:57:53Z</time>
      </trkpt>
      <trkpt lat="43.360235" lon="-8.404203">
        <ele>99.5</ele>
        <time>2011-06-25T12:57:54Z</time>
      </trkpt>
      <trkpt lat="43.360277" lon="-8.404240">
        <ele>98.5</ele>
        <time>2011-06-25T12:57:56Z</time>
      </trkpt>
      <trkpt lat="43.360322" lon="-8.404277">
        <ele>97.5</ele>
        <time>2011-06-25T12:57:56Z</time>
      </trkpt>
      <trkpt lat="43.360357" lon="-8.404312">
        <ele>97.0</ele>
        <time>2011-06-25T12:57:58Z</time>
      </trkpt>
      <trkpt lat="43.360400" lon="-8.404345">
        <ele>96.5</ele>
        <time>2011-06-25T12:57:58Z</time>
      </trkpt>
      <trkpt lat="43.360447" lon="-8.404380">
        <ele>95.0</ele>
        <time>2011-06-25T12:57:59Z</time>
      </trkpt>
      <trkpt lat="43.360490" lon="-8.404413">
        <ele>94.5</ele>
        <time>2011-06-25T12:58:00Z</time>
      </trkpt>
      <trkpt lat="43.360528" lon="-8.404445">
        <ele>94.0</ele>
        <time>2011-06-25T12:58:01Z</time>
      </trkpt>
      <trkpt lat="43.360570" lon="-8.404472">
        <ele>94.0</ele>
        <time>2011-06-25T12:58:02Z</time>
      </trkpt>
      <trkpt lat="43.360618" lon="-8.404500">
        <ele>94.0</ele>
        <time>2011-06-25T12:58:04Z</time>
      </trkpt>
      <trkpt lat="43.360662" lon="-8.404528">
        <ele>94.0</ele>
        <time>2011-06-25T12:58:04Z</time>
      </trkpt>
      <trkpt lat="43.360703" lon="-8.404550">
        <ele>94.0</ele>
        <time>2011-06-25T12:58:05Z</time>
      </trkpt>
      <trkpt lat="43.360743" lon="-8.404573">
        <ele>94.0</ele>
        <time>2011-06-25T12:58:06Z</time>
      </trkpt>
      <trkpt lat="43.360787" lon="-8.404605">
        <ele>93.5</ele>
        <time>2011-06-25T12:58:07Z</time>
      </trkpt>
      <trkpt lat="43.360832" lon="-8.404633">
        <ele>93.5</ele>
        <time>2011-06-25T12:58:08Z</time>
      </trkpt>
      <trkpt lat="43.360882" lon="-8.404662">
        <ele>93.0</ele>
        <time>2011-06-25T12:58:09Z</time>
      </trkpt>
      <trkpt lat="43.360928" lon="-8.404692">
        <ele>92.5</ele>
        <time>2011-06-25T12:58:10Z</time>
      </trkpt>
      <trkpt lat="43.360982" lon="-8.404720">
        <ele>92.5</ele>
        <time>2011-06-25T12:58:11Z</time>
      </trkpt>
      <trkpt lat="43.361032" lon="-8.404748">
        <ele>92.5</ele>
        <time>2011-06-25T12:58:12Z</time>
      </trkpt>
      <trkpt lat="43.361075" lon="-8.404800">
        <ele>92.0</ele>
        <time>2011-06-25T12:58:13Z</time>
      </trkpt>
      <trkpt lat="43.361130" lon="-8.404827">
        <ele>91.5</ele>
        <time>2011-06-25T12:58:14Z</time>
      </trkpt>
      <trkpt lat="43.361183" lon="-8.404853">
        <ele>91.5</ele>
        <time>2011-06-25T12:58:15Z</time>
      </trkpt>
      <trkpt lat="43.361233" lon="-8.404878">
        <ele>91.5</ele>
        <time>2011-06-25T12:58:17Z</time>
      </trkpt>
      <trkpt lat="43.361207" lon="-8.404908">
        <ele>91.5</ele>
        <time>2011-06-25T12:58:18Z</time>
      </trkpt>
      <trkpt lat="43.361228" lon="-8.404935">
        <ele>91.5</ele>
        <time>2011-06-25T12:58:18Z</time>
      </trkpt>
      <trkpt lat="43.361245" lon="-8.404953">
        <ele>91.5</ele>
        <time>2011-06-25T12:58:20Z</time>
      </trkpt>
      <trkpt lat="43.361255" lon="-8.404963">
        <ele>92.0</ele>
        <time>2011-06-25T12:58:20Z</time>
      </trkpt>
      <trkpt lat="43.361403" lon="-8.405003">
        <ele>91.5</ele>
        <time>2011-06-25T12:58:23Z</time>
      </trkpt>
      <trkpt lat="43.361462" lon="-8.405017">
        <ele>91.5</ele>
        <time>2011-06-25T12:58:24Z</time>
      </trkpt>
      <trkpt lat="43.361508" lon="-8.405027">
        <ele>91.5</ele>
        <time>2011-06-25T12:58:25Z</time>
      </trkpt>
      <trkpt lat="43.361627" lon="-8.405048">
        <ele>93.5</ele>
        <time>2011-06-25T12:58:27Z</time>
      </trkpt>
      <trkpt lat="43.361777" lon="-8.405075">
        <ele>95.0</ele>
        <time>2011-06-25T12:58:29Z</time>
      </trkpt>
      <trkpt lat="43.361837" lon="-8.405092">
        <ele>95.0</ele>
        <time>2011-06-25T12:58:31Z</time>
      </trkpt>
      <trkpt lat="43.361887" lon="-8.405102">
        <ele>94.5</ele>
        <time>2011-06-25T12:58:31Z</time>
      </trkpt>
      <trkpt lat="43.362013" lon="-8.405123">
        <ele>94.5</ele>
        <time>2011-06-25T12:58:33Z</time>
      </trkpt>
      <trkpt lat="43.362058" lon="-8.405133">
        <ele>95.0</ele>
        <time>2011-06-25T12:58:34Z</time>
      </trkpt>
      <trkpt lat="43.362100" lon="-8.405142">
        <ele>96.0</ele>
        <time>2011-06-25T12:58:35Z</time>
      </trkpt>
      <trkpt lat="43.362142" lon="-8.405152">
        <ele>96.0</ele>
        <time>2011-06-25T12:58:36Z</time>
      </trkpt>
      <trkpt lat="43.362180" lon="-8.405158">
        <ele>96.0</ele>
        <time>2011-06-25T12:58:37Z</time>
      </trkpt>
      <trkpt lat="43.362213" lon="-8.405165">
        <ele>96.0</ele>
        <time>2011-06-25T12:58:39Z</time>
      </trkpt>
      <trkpt lat="43.362243" lon="-8.405170">
        <ele>96.0</ele>
        <time>2011-06-25T12:58:39Z</time>
      </trkpt>
      <trkpt lat="43.362270" lon="-8.405172">
        <ele>96.5</ele>
        <time>2011-06-25T12:58:40Z</time>
      </trkpt>
      <trkpt lat="43.362297" lon="-8.405173">
        <ele>96.0</ele>
        <time>2011-06-25T12:58:41Z</time>
      </trkpt>
      <trkpt lat="43.362322" lon="-8.405168">
        <ele>96.0</ele>
        <time>2011-06-25T12:58:42Z</time>
      </trkpt>
      <trkpt lat="43.362345" lon="-8.405165">
        <ele>96.0</ele>
        <time>2011-06-25T12:58:43Z</time>
      </trkpt>
      <trkpt lat="43.362370" lon="-8.405165">
        <ele>96.0</ele>
        <time>2011-06-25T12:58:45Z</time>
      </trkpt>
      <trkpt lat="43.362397" lon="-8.405168">
        <ele>96.0</ele>
        <time>2011-06-25T12:58:45Z</time>
      </trkpt>
      <trkpt lat="43.362428" lon="-8.405173">
        <ele>95.5</ele>
        <time>2011-06-25T12:58:46Z</time>
      </trkpt>
      <trkpt lat="43.362453" lon="-8.405170">
        <ele>96.0</ele>
        <time>2011-06-25T12:58:47Z</time>
      </trkpt>
      <trkpt lat="43.362483" lon="-8.405160">
        <ele>97.0</ele>
        <time>2011-06-25T12:58:48Z</time>
      </trkpt>
      <trkpt lat="43.362512" lon="-8.405140">
        <ele>98.5</ele>
        <time>2011-06-25T12:58:49Z</time>
      </trkpt>
      <trkpt lat="43.362547" lon="-8.405120">
        <ele>99.0</ele>
        <time>2011-06-25T12:58:50Z</time>
      </trkpt>
      <trkpt lat="43.362592" lon="-8.405103">
        <ele>99.0</ele>
        <time>2011-06-25T12:58:51Z</time>
      </trkpt>
      <trkpt lat="43.362637" lon="-8.405095">
        <ele>99.0</ele>
        <time>2011-06-25T12:58:52Z</time>
      </trkpt>
      <trkpt lat="43.362685" lon="-8.405093">
        <ele>99.0</ele>
        <time>2011-06-25T12:58:53Z</time>
      </trkpt>
      <trkpt lat="43.362732" lon="-8.405093">
        <ele>99.0</ele>
        <time>2011-06-25T12:58:54Z</time>
      </trkpt>
      <trkpt lat="43.362783" lon="-8.405093">
        <ele>98.5</ele>
        <time>2011-06-25T12:58:55Z</time>
      </trkpt>
      <trkpt lat="43.362840" lon="-8.405095">
        <ele>97.0</ele>
        <time>2011-06-25T12:58:56Z</time>
      </trkpt>
      <trkpt lat="43.362895" lon="-8.405093">
        <ele>96.5</ele>
        <time>2011-06-25T12:58:57Z</time>
      </trkpt>
      <trkpt lat="43.362945" lon="-8.405088">
        <ele>96.0</ele>
        <time>2011-06-25T12:58:58Z</time>
      </trkpt>
      <trkpt lat="43.362997" lon="-8.405083">
        <ele>95.5</ele>
        <time>2011-06-25T12:58:59Z</time>
      </trkpt>
      <trkpt lat="43.363050" lon="-8.405077">
        <ele>95.0</ele>
        <time>2011-06-25T12:59:00Z</time>
      </trkpt>
      <trkpt lat="43.363105" lon="-8.405070">
        <ele>94.0</ele>
        <time>2011-06-25T12:59:01Z</time>
      </trkpt>
      <trkpt lat="43.363162" lon="-8.405065">
        <ele>93.0</ele>
        <time>2011-06-25T12:59:02Z</time>
      </trkpt>
      <trkpt lat="43.363220" lon="-8.405060">
        <ele>91.5</ele>
        <time>2011-06-25T12:59:04Z</time>
      </trkpt>
      <trkpt lat="43.363273" lon="-8.405052">
        <ele>91.0</ele>
        <time>2011-06-25T12:59:04Z</time>
      </trkpt>
      <trkpt lat="43.363330" lon="-8.405043">
        <ele>90.5</ele>
        <time>2011-06-25T12:59:05Z</time>
      </trkpt>
      <trkpt lat="43.363388" lon="-8.405037">
        <ele>90.0</ele>
        <time>2011-06-25T12:59:06Z</time>
      </trkpt>
      <trkpt lat="43.363442" lon="-8.405032">
        <ele>89.5</ele>
        <time>2011-06-25T12:59:07Z</time>
      </trkpt>
      <trkpt lat="43.363497" lon="-8.405025">
        <ele>89.0</ele>
        <time>2011-06-25T12:59:08Z</time>
      </trkpt>
      <trkpt lat="43.363550" lon="-8.405017">
        <ele>88.5</ele>
        <time>2011-06-25T12:59:09Z</time>
      </trkpt>
      <trkpt lat="43.363605" lon="-8.405010">
        <ele>88.5</ele>
        <time>2011-06-25T12:59:10Z</time>
      </trkpt>
      <trkpt lat="43.363658" lon="-8.405002">
        <ele>88.5</ele>
        <time>2011-06-25T12:59:12Z</time>
      </trkpt>
      <trkpt lat="43.363713" lon="-8.404993">
        <ele>88.0</ele>
        <time>2011-06-25T12:59:12Z</time>
      </trkpt>
      <trkpt lat="43.363768" lon="-8.404983">
        <ele>88.0</ele>
        <time>2011-06-25T12:59:13Z</time>
      </trkpt>
      <trkpt lat="43.363822" lon="-8.404973">
        <ele>88.5</ele>
        <time>2011-06-25T12:59:14Z</time>
      </trkpt>
      <trkpt lat="43.363877" lon="-8.404962">
        <ele>88.5</ele>
        <time>2011-06-25T12:59:15Z</time>
      </trkpt>
      <trkpt lat="43.363932" lon="-8.404950">
        <ele>89.0</ele>
        <time>2011-06-25T12:59:16Z</time>
      </trkpt>
      <trkpt lat="43.363980" lon="-8.404945">
        <ele>88.5</ele>
        <time>2011-06-25T12:59:17Z</time>
      </trkpt>
      <trkpt lat="43.364030" lon="-8.404937">
        <ele>89.5</ele>
        <time>2011-06-25T12:59:18Z</time>
      </trkpt>
      <trkpt lat="43.364085" lon="-8.404928">
        <ele>89.5</ele>
        <time>2011-06-25T12:59:20Z</time>
      </trkpt>
      <trkpt lat="43.364140" lon="-8.404922">
        <ele>89.5</ele>
        <time>2011-06-25T12:59:21Z</time>
      </trkpt>
      <trkpt lat="43.364197" lon="-8.404917">
        <ele>89.5</ele>
        <time>2011-06-25T12:59:21Z</time>
      </trkpt>
      <trkpt lat="43.364253" lon="-8.404912">
        <ele>89.5</ele>
        <time>2011-06-25T12:59:22Z</time>
      </trkpt>
      <trkpt lat="43.364313" lon="-8.404907">
        <ele>88.5</ele>
        <time>2011-06-25T12:59:23Z</time>
      </trkpt>
      <trkpt lat="43.364373" lon="-8.404907">
        <ele>88.0</ele>
        <time>2011-06-25T12:59:24Z</time>
      </trkpt>
      <trkpt lat="43.364435" lon="-8.404898">
        <ele>87.5</ele>
        <time>2011-06-25T12:59:25Z</time>
      </trkpt>
      <trkpt lat="43.364522" lon="-8.404912">
        <ele>97.0</ele>
        <time>2011-06-25T12:59:27Z</time>
      </trkpt>
      <trkpt lat="43.364578" lon="-8.404905">
        <ele>96.5</ele>
        <time>2011-06-25T12:59:28Z</time>
      </trkpt>
      <trkpt lat="43.364635" lon="-8.404898">
        <ele>96.5</ele>
        <time>2011-06-25T12:59:29Z</time>
      </trkpt>
      <trkpt lat="43.364697" lon="-8.404895">
        <ele>96.0</ele>
        <time>2011-06-25T12:59:30Z</time>
      </trkpt>
      <trkpt lat="43.364755" lon="-8.404890">
        <ele>95.5</ele>
        <time>2011-06-25T12:59:32Z</time>
      </trkpt>
      <trkpt lat="43.364812" lon="-8.404887">
        <ele>95.5</ele>
        <time>2011-06-25T12:59:33Z</time>
      </trkpt>
      <trkpt lat="43.364882" lon="-8.404880">
        <ele>93.5</ele>
        <time>2011-06-25T12:59:33Z</time>
      </trkpt>
      <trkpt lat="43.364940" lon="-8.404872">
        <ele>93.0</ele>
        <time>2011-06-25T12:59:35Z</time>
      </trkpt>
      <trkpt lat="43.364998" lon="-8.404865">
        <ele>92.5</ele>
        <time>2011-06-25T12:59:35Z</time>
      </trkpt>
      <trkpt lat="43.365055" lon="-8.404855">
        <ele>92.5</ele>
        <time>2011-06-25T12:59:36Z</time>
      </trkpt>
      <trkpt lat="43.365110" lon="-8.404845">
        <ele>92.0</ele>
        <time>2011-06-25T12:59:37Z</time>
      </trkpt>
      <trkpt lat="43.365168" lon="-8.404830">
        <ele>91.5</ele>
        <time>2011-06-25T12:59:38Z</time>
      </trkpt>
      <trkpt lat="43.365225" lon="-8.404813">
        <ele>91.5</ele>
        <time>2011-06-25T12:59:39Z</time>
      </trkpt>
      <trkpt lat="43.365287" lon="-8.404797">
        <ele>91.0</ele>
        <time>2011-06-25T12:59:41Z</time>
      </trkpt>
      <trkpt lat="43.365353" lon="-8.404785">
        <ele>90.0</ele>
        <time>2011-06-25T12:59:42Z</time>
      </trkpt>
      <trkpt lat="43.365417" lon="-8.404768">
        <ele>88.5</ele>
        <time>2011-06-25T12:59:43Z</time>
      </trkpt>
      <trkpt lat="43.365473" lon="-8.404748">
        <ele>88.0</ele>
        <time>2011-06-25T12:59:43Z</time>
      </trkpt>
      <trkpt lat="43.365518" lon="-8.404735">
        <ele>88.5</ele>
        <time>2011-06-25T12:59:44Z</time>
      </trkpt>
      <trkpt lat="43.365640" lon="-8.404717">
        <ele>85.5</ele>
        <time>2011-06-25T12:59:46Z</time>
      </trkpt>
      <trkpt lat="43.365698" lon="-8.404703">
        <ele>84.5</ele>
        <time>2011-06-25T12:59:48Z</time>
      </trkpt>
      <trkpt lat="43.365757" lon="-8.404688">
        <ele>84.0</ele>
        <time>2011-06-25T12:59:49Z</time>
      </trkpt>
      <trkpt lat="43.365813" lon="-8.404680">
        <ele>83.0</ele>
        <time>2011-06-25T12:59:50Z</time>
      </trkpt>
      <trkpt lat="43.365870" lon="-8.404672">
        <ele>82.5</ele>
        <time>2011-06-25T12:59:50Z</time>
      </trkpt>
      <trkpt lat="43.365920" lon="-8.404658">
        <ele>84.0</ele>
        <time>2011-06-25T12:59:51Z</time>
      </trkpt>
      <trkpt lat="43.365965" lon="-8.404648">
        <ele>84.0</ele>
        <time>2011-06-25T12:59:52Z</time>
      </trkpt>
      <trkpt lat="43.366075" lon="-8.404612">
        <ele>83.5</ele>
        <time>2011-06-25T12:59:54Z</time>
      </trkpt>
      <trkpt lat="43.366118" lon="-8.404607">
        <ele>83.5</ele>
        <time>2011-06-25T12:59:55Z</time>
      </trkpt>
      <trkpt lat="43.366172" lon="-8.404580">
        <ele>83.5</ele>
        <time>2011-06-25T12:59:56Z</time>
      </trkpt>
      <trkpt lat="43.366222" lon="-8.404547">
        <ele>84.5</ele>
        <time>2011-06-25T12:59:57Z</time>
      </trkpt>
      <trkpt lat="43.366268" lon="-8.404517">
        <ele>85.5</ele>
        <time>2011-06-25T12:59:58Z</time>
      </trkpt>
      <trkpt lat="43.366310" lon="-8.404508">
        <ele>85.5</ele>
        <time>2011-06-25T12:59:59Z</time>
      </trkpt>
      <trkpt lat="43.366360" lon="-8.404480">
        <ele>85.5</ele>
        <time>2011-06-25T13:00:00Z</time>
      </trkpt>
      <trkpt lat="43.366410" lon="-8.404437">
        <ele>86.0</ele>
        <time>2011-06-25T13:00:01Z</time>
      </trkpt>
      <trkpt lat="43.366458" lon="-8.404393">
        <ele>86.5</ele>
        <time>2011-06-25T13:00:02Z</time>
      </trkpt>
      <trkpt lat="43.366507" lon="-8.404348">
        <ele>86.5</ele>
        <time>2011-06-25T13:00:03Z</time>
      </trkpt>
      <trkpt lat="43.366553" lon="-8.404300">
        <ele>86.5</ele>
        <time>2011-06-25T13:00:04Z</time>
      </trkpt>
      <trkpt lat="43.366602" lon="-8.404252">
        <ele>87.0</ele>
        <time>2011-06-25T13:00:05Z</time>
      </trkpt>
      <trkpt lat="43.366670" lon="-8.404217">
        <ele>87.0</ele>
        <time>2011-06-25T13:00:07Z</time>
      </trkpt>
      <trkpt lat="43.366717" lon="-8.404123">
        <ele>88.5</ele>
        <time>2011-06-25T13:00:08Z</time>
      </trkpt>
      <trkpt lat="43.366767" lon="-8.404093">
        <ele>88.5</ele>
        <time>2011-06-25T13:00:10Z</time>
      </trkpt>
      <trkpt lat="43.366795" lon="-8.404032">
        <ele>88.5</ele>
        <time>2011-06-25T13:00:11Z</time>
      </trkpt>
      <trkpt lat="43.366885" lon="-8.403970">
        <ele>88.5</ele>
        <time>2011-06-25T13:00:12Z</time>
      </trkpt>
      <trkpt lat="43.366938" lon="-8.403933">
        <ele>88.5</ele>
        <time>2011-06-25T13:00:13Z</time>
      </trkpt>
      <trkpt lat="43.366997" lon="-8.403895">
        <ele>88.5</ele>
        <time>2011-06-25T13:00:15Z</time>
      </trkpt>
      <trkpt lat="43.367037" lon="-8.403855">
        <ele>88.5</ele>
        <time>2011-06-25T13:00:15Z</time>
      </trkpt>
      <trkpt lat="43.367078" lon="-8.403812">
        <ele>88.5</ele>
        <time>2011-06-25T13:00:16Z</time>
      </trkpt>
      <trkpt lat="43.367113" lon="-8.403752">
        <ele>88.5</ele>
        <time>2011-06-25T13:00:17Z</time>
      </trkpt>
      <trkpt lat="43.367182" lon="-8.403725">
        <ele>87.5</ele>
        <time>2011-06-25T13:00:19Z</time>
      </trkpt>
      <trkpt lat="43.367213" lon="-8.403722">
        <ele>87.5</ele>
        <time>2011-06-25T13:00:21Z</time>
      </trkpt>
      <trkpt lat="43.367372" lon="-8.403558">
        <ele>87.5</ele>
        <time>2011-06-25T13:00:23Z</time>
      </trkpt>
      <trkpt lat="43.367413" lon="-8.403505">
        <ele>88.0</ele>
        <time>2011-06-25T13:00:24Z</time>
      </trkpt>
      <trkpt lat="43.367472" lon="-8.403435">
        <ele>88.0</ele>
        <time>2011-06-25T13:00:25Z</time>
      </trkpt>
      <trkpt lat="43.367525" lon="-8.403360">
        <ele>88.0</ele>
        <time>2011-06-25T13:00:26Z</time>
      </trkpt>
      <trkpt lat="43.367667" lon="-8.403200">
        <ele>87.5</ele>
        <time>2011-06-25T13:00:28Z</time>
      </trkpt>
      <trkpt lat="43.367793" lon="-8.403042">
        <ele>89.5</ele>
        <time>2011-06-25T13:00:31Z</time>
      </trkpt>
      <trkpt lat="43.367858" lon="-8.402962">
        <ele>89.0</ele>
        <time>2011-06-25T13:00:31Z</time>
      </trkpt>
      <trkpt lat="43.367898" lon="-8.402870">
        <ele>89.5</ele>
        <time>2011-06-25T13:00:32Z</time>
      </trkpt>
      <trkpt lat="43.367940" lon="-8.402787">
        <ele>90.0</ele>
        <time>2011-06-25T13:00:33Z</time>
      </trkpt>
      <trkpt lat="43.368005" lon="-8.402708">
        <ele>90.0</ele>
        <time>2011-06-25T13:00:34Z</time>
      </trkpt>
      <trkpt lat="43.368078" lon="-8.402630">
        <ele>90.5</ele>
        <time>2011-06-25T13:00:36Z</time>
      </trkpt>
      <trkpt lat="43.368133" lon="-8.402547">
        <ele>90.5</ele>
        <time>2011-06-25T13:00:37Z</time>
      </trkpt>
      <trkpt lat="43.368192" lon="-8.402465">
        <ele>91.0</ele>
        <time>2011-06-25T13:00:37Z</time>
      </trkpt>
      <trkpt lat="43.368235" lon="-8.402383">
        <ele>91.0</ele>
        <time>2011-06-25T13:00:38Z</time>
      </trkpt>
      <trkpt lat="43.368288" lon="-8.402310">
        <ele>90.5</ele>
        <time>2011-06-25T13:00:39Z</time>
      </trkpt>
      <trkpt lat="43.368345" lon="-8.402233">
        <ele>90.0</ele>
        <time>2011-06-25T13:00:40Z</time>
      </trkpt>
      <trkpt lat="43.368395" lon="-8.402162">
        <ele>91.0</ele>
        <time>2011-06-25T13:00:41Z</time>
      </trkpt>
      <trkpt lat="43.368442" lon="-8.402088">
        <ele>90.5</ele>
        <time>2011-06-25T13:00:42Z</time>
      </trkpt>
      <trkpt lat="43.368485" lon="-8.402018">
        <ele>92.0</ele>
        <time>2011-06-25T13:00:43Z</time>
      </trkpt>
      <trkpt lat="43.368538" lon="-8.401948">
        <ele>91.5</ele>
        <time>2011-06-25T13:00:44Z</time>
      </trkpt>
      <trkpt lat="43.368583" lon="-8.401875">
        <ele>91.0</ele>
        <time>2011-06-25T13:00:45Z</time>
      </trkpt>
      <trkpt lat="43.368622" lon="-8.401798">
        <ele>91.0</ele>
        <time>2011-06-25T13:00:46Z</time>
      </trkpt>
      <trkpt lat="43.368673" lon="-8.401720">
        <ele>89.0</ele>
        <time>2011-06-25T13:00:47Z</time>
      </trkpt>
      <trkpt lat="43.368742" lon="-8.401608">
        <ele>85.5</ele>
        <time>2011-06-25T13:00:49Z</time>
      </trkpt>
      <trkpt lat="43.368788" lon="-8.401552">
        <ele>84.5</ele>
        <time>2011-06-25T13:00:50Z</time>
      </trkpt>
      <trkpt lat="43.368817" lon="-8.401495">
        <ele>84.0</ele>
        <time>2011-06-25T13:00:51Z</time>
      </trkpt>
      <trkpt lat="43.368862" lon="-8.401412">
        <ele>83.5</ele>
        <time>2011-06-25T13:00:53Z</time>
      </trkpt>
      <trkpt lat="43.368892" lon="-8.401360">
        <ele>83.5</ele>
        <time>2011-06-25T13:00:54Z</time>
      </trkpt>
      <trkpt lat="43.368917" lon="-8.401307">
        <ele>83.5</ele>
        <time>2011-06-25T13:00:55Z</time>
      </trkpt>
      <trkpt lat="43.368928" lon="-8.401260">
        <ele>85.0</ele>
        <time>2011-06-25T13:00:57Z</time>
      </trkpt>
      <trkpt lat="43.368963" lon="-8.401175">
        <ele>85.5</ele>
        <time>2011-06-25T13:00:59Z</time>
      </trkpt>
      <trkpt lat="43.368993" lon="-8.401127">
        <ele>85.5</ele>
        <time>2011-06-25T13:01:00Z</time>
      </trkpt>
      <trkpt lat="43.369023" lon="-8.401072">
        <ele>85.5</ele>
        <time>2011-06-25T13:01:01Z</time>
      </trkpt>
      <trkpt lat="43.369048" lon="-8.401032">
        <ele>85.5</ele>
        <time>2011-06-25T13:01:02Z</time>
      </trkpt>
      <trkpt lat="43.369077" lon="-8.400987">
        <ele>84.5</ele>
        <time>2011-06-25T13:01:03Z</time>
      </trkpt>
      <trkpt lat="43.369113" lon="-8.400940">
        <ele>83.0</ele>
        <time>2011-06-25T13:01:04Z</time>
      </trkpt>
      <trkpt lat="43.369142" lon="-8.400908">
        <ele>81.0</ele>
        <time>2011-06-25T13:01:05Z</time>
      </trkpt>
      <trkpt lat="43.369207" lon="-8.400835">
        <ele>78.5</ele>
        <time>2011-06-25T13:01:07Z</time>
      </trkpt>
      <trkpt lat="43.369283" lon="-8.400750">
        <ele>73.5</ele>
        <time>2011-06-25T13:01:09Z</time>
      </trkpt>
      <trkpt lat="43.369302" lon="-8.400717">
        <ele>73.5</ele>
        <time>2011-06-25T13:01:10Z</time>
      </trkpt>
      <trkpt lat="43.369323" lon="-8.400705">
        <ele>73.0</ele>
        <time>2011-06-25T13:01:11Z</time>
      </trkpt>
      <trkpt lat="43.369323" lon="-8.400698">
        <ele>73.0</ele>
        <time>2011-06-25T13:01:12Z</time>
      </trkpt>
      <trkpt lat="43.369317" lon="-8.400693">
        <ele>71.5</ele>
        <time>2011-06-25T13:01:13Z</time>
      </trkpt>
      <trkpt lat="43.369318" lon="-8.400683">
        <ele>71.5</ele>
        <time>2011-06-25T13:01:14Z</time>
      </trkpt>
      <trkpt lat="43.369318" lon="-8.400673">
        <ele>71.5</ele>
        <time>2011-06-25T13:01:15Z</time>
      </trkpt>
      <trkpt lat="43.369315" lon="-8.400667">
        <ele>71.0</ele>
        <time>2011-06-25T13:01:16Z</time>
      </trkpt>
      <trkpt lat="43.369312" lon="-8.400663">
        <ele>71.0</ele>
        <time>2011-06-25T13:01:17Z</time>
      </trkpt>
      <trkpt lat="43.369310" lon="-8.400652">
        <ele>70.5</ele>
        <time>2011-06-25T13:01:18Z</time>
      </trkpt>
      <trkpt lat="43.369312" lon="-8.400647">
        <ele>70.0</ele>
        <time>2011-06-25T13:01:19Z</time>
      </trkpt>
      <trkpt lat="43.369312" lon="-8.400647">
        <ele>70.0</ele>
        <time>2011-06-25T13:01:20Z</time>
      </trkpt>
      <trkpt lat="43.369307" lon="-8.400640">
        <ele>70.0</ele>
        <time>2011-06-25T13:01:21Z</time>
      </trkpt>
      <trkpt lat="43.369303" lon="-8.400637">
        <ele>70.0</ele>
        <time>2011-06-25T13:01:22Z</time>
      </trkpt>
      <trkpt lat="43.369300" lon="-8.400635">
        <ele>70.5</ele>
        <time>2011-06-25T13:01:23Z</time>
      </trkpt>
      <trkpt lat="43.369297" lon="-8.400635">
        <ele>70.5</ele>
        <time>2011-06-25T13:01:24Z</time>
      </trkpt>
      <trkpt lat="43.369292" lon="-8.400633">
        <ele>71.0</ele>
        <time>2011-06-25T13:01:25Z</time>
      </trkpt>
      <trkpt lat="43.369288" lon="-8.400630">
        <ele>71.0</ele>
        <time>2011-06-25T13:01:26Z</time>
      </trkpt>
      <trkpt lat="43.369287" lon="-8.400628">
        <ele>71.0</ele>
        <time>2011-06-25T13:01:27Z</time>
      </trkpt>
      <trkpt lat="43.369285" lon="-8.400627">
        <ele>71.0</ele>
        <time>2011-06-25T13:01:28Z</time>
      </trkpt>
      <trkpt lat="43.369283" lon="-8.400625">
        <ele>70.5</ele>
        <time>2011-06-25T13:01:29Z</time>
      </trkpt>
      <trkpt lat="43.369282" lon="-8.400623">
        <ele>70.5</ele>
        <time>2011-06-25T13:01:30Z</time>
      </trkpt>
      <trkpt lat="43.369280" lon="-8.400622">
        <ele>70.5</ele>
        <time>2011-06-25T13:01:31Z</time>
      </trkpt>
      <trkpt lat="43.369278" lon="-8.400620">
        <ele>70.5</ele>
        <time>2011-06-25T13:01:32Z</time>
      </trkpt>
      <trkpt lat="43.369275" lon="-8.400620">
        <ele>70.5</ele>
        <time>2011-06-25T13:01:33Z</time>
      </trkpt>
      <trkpt lat="43.369272" lon="-8.400618">
        <ele>71.0</ele>
        <time>2011-06-25T13:01:34Z</time>
      </trkpt>
      <trkpt lat="43.369270" lon="-8.400617">
        <ele>71.0</ele>
        <time>2011-06-25T13:01:35Z</time>
      </trkpt>
      <trkpt lat="43.369267" lon="-8.400615">
        <ele>71.5</ele>
        <time>2011-06-25T13:01:36Z</time>
      </trkpt>
      <trkpt lat="43.369265" lon="-8.400615">
        <ele>71.5</ele>
        <time>2011-06-25T13:01:37Z</time>
      </trkpt>
      <trkpt lat="43.369263" lon="-8.400613">
        <ele>71.5</ele>
        <time>2011-06-25T13:01:38Z</time>
      </trkpt>
      <trkpt lat="43.369263" lon="-8.400613">
        <ele>71.5</ele>
        <time>2011-06-25T13:01:39Z</time>
      </trkpt>
      <trkpt lat="43.369263" lon="-8.400613">
        <ele>71.5</ele>
        <time>2011-06-25T13:01:40Z</time>
      </trkpt>
      <trkpt lat="43.369262" lon="-8.400612">
        <ele>71.5</ele>
        <time>2011-06-25T13:01:41Z</time>
      </trkpt>
      <trkpt lat="43.369260" lon="-8.400612">
        <ele>71.5</ele>
        <time>2011-06-25T13:01:42Z</time>
      </trkpt>
      <trkpt lat="43.369260" lon="-8.400610">
        <ele>71.5</ele>
        <time>2011-06-25T13:01:43Z</time>
      </trkpt>
      <trkpt lat="43.369260" lon="-8.400610">
        <ele>71.5</ele>
        <time>2011-06-25T13:01:44Z</time>
      </trkpt>
      <trkpt lat="43.369258" lon="-8.400610">
        <ele>71.5</ele>
        <time>2011-06-25T13:01:45Z</time>
      </trkpt>
      <trkpt lat="43.369258" lon="-8.400608">
        <ele>71.5</ele>
        <time>2011-06-25T13:01:46Z</time>
      </trkpt>
      <trkpt lat="43.369258" lon="-8.400608">
        <ele>71.5</ele>
        <time>2011-06-25T13:01:47Z</time>
      </trkpt>
      <trkpt lat="43.369258" lon="-8.400608">
        <ele>71.0</ele>
        <time>2011-06-25T13:01:48Z</time>
      </trkpt>
      <trkpt lat="43.369258" lon="-8.400607">
        <ele>71.0</ele>
        <time>2011-06-25T13:01:49Z</time>
      </trkpt>
      <trkpt lat="43.369257" lon="-8.400607">
        <ele>71.0</ele>
        <time>2011-06-25T13:01:50Z</time>
      </trkpt>
      <trkpt lat="43.369257" lon="-8.400607">
        <ele>71.0</ele>
        <time>2011-06-25T13:01:51Z</time>
      </trkpt>
      <trkpt lat="43.369257" lon="-8.400605">
        <ele>70.5</ele>
        <time>2011-06-25T13:01:52Z</time>
      </trkpt>
      <trkpt lat="43.369255" lon="-8.400605">
        <ele>70.5</ele>
        <time>2011-06-25T13:01:53Z</time>
      </trkpt>
      <trkpt lat="43.369255" lon="-8.400603">
        <ele>70.5</ele>
        <time>2011-06-25T13:01:54Z</time>
      </trkpt>
      <trkpt lat="43.369255" lon="-8.400603">
        <ele>70.5</ele>
        <time>2011-06-25T13:01:55Z</time>
      </trkpt>
      <trkpt lat="43.369260" lon="-8.400603">
        <ele>70.5</ele>
        <time>2011-06-25T13:01:56Z</time>
      </trkpt>
      <trkpt lat="43.369258" lon="-8.400602">
        <ele>70.0</ele>
        <time>2011-06-25T13:01:57Z</time>
      </trkpt>
      <trkpt lat="43.369258" lon="-8.400600">
        <ele>69.5</ele>
        <time>2011-06-25T13:01:58Z</time>
      </trkpt>
      <trkpt lat="43.369260" lon="-8.400600">
        <ele>70.0</ele>
        <time>2011-06-25T13:01:59Z</time>
      </trkpt>
      <trkpt lat="43.369262" lon="-8.400598">
        <ele>69.5</ele>
        <time>2011-06-25T13:02:00Z</time>
      </trkpt>
      <trkpt lat="43.369262" lon="-8.400598">
        <ele>70.0</ele>
        <time>2011-06-25T13:02:01Z</time>
      </trkpt>
      <trkpt lat="43.369247" lon="-8.400592">
        <ele>70.0</ele>
        <time>2011-06-25T13:02:03Z</time>
      </trkpt>
      <trkpt lat="43.369248" lon="-8.400592">
        <ele>70.5</ele>
        <time>2011-06-25T13:02:04Z</time>
      </trkpt>
      <trkpt lat="43.369247" lon="-8.400592">
        <ele>71.0</ele>
        <time>2011-06-25T13:02:05Z</time>
      </trkpt>
      <trkpt lat="43.369243" lon="-8.400590">
        <ele>71.0</ele>
        <time>2011-06-25T13:02:06Z</time>
      </trkpt>
      <trkpt lat="43.369242" lon="-8.400590">
        <ele>71.0</ele>
        <time>2011-06-25T13:02:07Z</time>
      </trkpt>
      <trkpt lat="43.369238" lon="-8.400588">
        <ele>71.0</ele>
        <time>2011-06-25T13:02:08Z</time>
      </trkpt>
      <trkpt lat="43.369235" lon="-8.400588">
        <ele>70.5</ele>
        <time>2011-06-25T13:02:09Z</time>
      </trkpt>
      <trkpt lat="43.369235" lon="-8.400587">
        <ele>70.5</ele>
        <time>2011-06-25T13:02:10Z</time>
      </trkpt>
      <trkpt lat="43.369233" lon="-8.400587">
        <ele>70.5</ele>
        <time>2011-06-25T13:02:11Z</time>
      </trkpt>
      <trkpt lat="43.369230" lon="-8.400585">
        <ele>70.5</ele>
        <time>2011-06-25T13:02:12Z</time>
      </trkpt>
      <trkpt lat="43.369230" lon="-8.400585">
        <ele>70.5</ele>
        <time>2011-06-25T13:02:13Z</time>
      </trkpt>
      <trkpt lat="43.369228" lon="-8.400583">
        <ele>70.0</ele>
        <time>2011-06-25T13:02:14Z</time>
      </trkpt>
      <trkpt lat="43.369227" lon="-8.400583">
        <ele>70.0</ele>
        <time>2011-06-25T13:02:15Z</time>
      </trkpt>
      <trkpt lat="43.369232" lon="-8.400587">
        <ele>71.0</ele>
        <time>2011-06-25T13:02:16Z</time>
      </trkpt>
      <trkpt lat="43.369235" lon="-8.400583">
        <ele>71.5</ele>
        <time>2011-06-25T13:02:17Z</time>
      </trkpt>
      <trkpt lat="43.369245" lon="-8.400578">
        <ele>72.0</ele>
        <time>2011-06-25T13:02:18Z</time>
      </trkpt>
      <trkpt lat="43.369258" lon="-8.400573">
        <ele>71.5</ele>
        <time>2011-06-25T13:02:19Z</time>
      </trkpt>
      <trkpt lat="43.369328" lon="-8.400577">
        <ele>76.5</ele>
        <time>2011-06-25T13:02:21Z</time>
      </trkpt>
      <trkpt lat="43.369330" lon="-8.400553">
        <ele>76.5</ele>
        <time>2011-06-25T13:02:22Z</time>
      </trkpt>
      <trkpt lat="43.369343" lon="-8.400553">
        <ele>78.0</ele>
        <time>2011-06-25T13:02:23Z</time>
      </trkpt>
      <trkpt lat="43.369352" lon="-8.400528">
        <ele>77.0</ele>
        <time>2011-06-25T13:02:24Z</time>
      </trkpt>
      <trkpt lat="43.369377" lon="-8.400520">
        <ele>78.0</ele>
        <time>2011-06-25T13:02:25Z</time>
      </trkpt>
      <trkpt lat="43.369782" lon="-8.400492">
        <ele>79.5</ele>
        <time>2011-06-25T13:02:31Z</time>
      </trkpt>
      <trkpt lat="43.369855" lon="-8.400602">
        <ele>80.5</ele>
        <time>2011-06-25T13:02:37Z</time>
      </trkpt>
      <trkpt lat="43.369868" lon="-8.400605">
        <ele>80.5</ele>
        <time>2011-06-25T13:02:38Z</time>
      </trkpt>
      <trkpt lat="43.369878" lon="-8.400595">
        <ele>80.5</ele>
        <time>2011-06-25T13:02:39Z</time>
      </trkpt>
      <trkpt lat="43.369893" lon="-8.400585">
        <ele>80.5</ele>
        <time>2011-06-25T13:02:40Z</time>
      </trkpt>
      <trkpt lat="43.369905" lon="-8.400580">
        <ele>81.0</ele>
        <time>2011-06-25T13:02:41Z</time>
      </trkpt>
      <trkpt lat="43.369908" lon="-8.400585">
        <ele>81.0</ele>
        <time>2011-06-25T13:02:42Z</time>
      </trkpt>
      <trkpt lat="43.369907" lon="-8.400637">
        <ele>81.0</ele>
        <time>2011-06-25T13:02:45Z</time>
      </trkpt>
      <trkpt lat="43.369927" lon="-8.400605">
        <ele>81.0</ele>
        <time>2011-06-25T13:02:46Z</time>
      </trkpt>
      <trkpt lat="43.369918" lon="-8.400568">
        <ele>81.0</ele>
        <time>2011-06-25T13:02:48Z</time>
      </trkpt>
      <trkpt lat="43.369910" lon="-8.400530">
        <ele>80.5</ele>
        <time>2011-06-25T13:02:49Z</time>
      </trkpt>
      <trkpt lat="43.369910" lon="-8.400498">
        <ele>80.0</ele>
        <time>2011-06-25T13:02:50Z</time>
      </trkpt>
    </trkseg>
  </trk>
  <trk>
    <name>T2067676-27</name>
    <cmt>saida con compañeiros do C.C.Arteixo polos arredores da Coruña</cmt>
    <desc>saida con compañeiros do C.C.Arteixo polos arredores da Coruña</desc>
    <trkseg>
      <trkpt lat="43.369923" lon="-8.400470">
        <ele>80.0</ele>
        <time>2011-06-25T13:02:51Z</time>
      </trkpt>
      <trkpt lat="43.369912" lon="-8.400433">
        <ele>80.0</ele>
        <time>2011-06-25T13:02:52Z</time>
      </trkpt>
      <trkpt lat="43.369815" lon="-8.400358">
        <ele>82.0</ele>
        <time>2011-06-25T13:02:54Z</time>
      </trkpt>
      <trkpt lat="43.369822" lon="-8.400315">
        <ele>83.0</ele>
        <time>2011-06-25T13:02:56Z</time>
      </trkpt>
      <trkpt lat="43.369797" lon="-8.400298">
        <ele>83.5</ele>
        <time>2011-06-25T13:02:57Z</time>
      </trkpt>
      <trkpt lat="43.369837" lon="-8.400250">
        <ele>84.0</ele>
        <time>2011-06-25T13:02:59Z</time>
      </trkpt>
      <trkpt lat="43.369863" lon="-8.400233">
        <ele>84.0</ele>
        <time>2011-06-25T13:02:59Z</time>
      </trkpt>
      <trkpt lat="43.369877" lon="-8.400193">
        <ele>84.0</ele>
        <time>2011-06-25T13:03:01Z</time>
      </trkpt>
      <trkpt lat="43.369877" lon="-8.400153">
        <ele>84.0</ele>
        <time>2011-06-25T13:03:02Z</time>
      </trkpt>
      <trkpt lat="43.370015" lon="-8.400120">
        <ele>84.0</ele>
        <time>2011-06-25T13:03:04Z</time>
      </trkpt>
      <trkpt lat="43.370005" lon="-8.400045">
        <ele>83.5</ele>
        <time>2011-06-25T13:03:06Z</time>
      </trkpt>
      <trkpt lat="43.370027" lon="-8.399998">
        <ele>82.5</ele>
        <time>2011-06-25T13:03:08Z</time>
      </trkpt>
      <trkpt lat="43.370038" lon="-8.399972">
        <ele>82.0</ele>
        <time>2011-06-25T13:03:10Z</time>
      </trkpt>
      <trkpt lat="43.370055" lon="-8.399903">
        <ele>81.0</ele>
        <time>2011-06-25T13:03:11Z</time>
      </trkpt>
      <trkpt lat="43.370038" lon="-8.399867">
        <ele>79.5</ele>
        <time>2011-06-25T13:03:13Z</time>
      </trkpt>
      <trkpt lat="43.370068" lon="-8.399868">
        <ele>79.0</ele>
        <time>2011-06-25T13:03:15Z</time>
      </trkpt>
      <trkpt lat="43.370048" lon="-8.399862">
        <ele>79.0</ele>
        <time>2011-06-25T13:03:15Z</time>
      </trkpt>
      <trkpt lat="43.370093" lon="-8.399807">
        <ele>79.0</ele>
        <time>2011-06-25T13:03:18Z</time>
      </trkpt>
      <trkpt lat="43.370090" lon="-8.399775">
        <ele>79.0</ele>
        <time>2011-06-25T13:03:18Z</time>
      </trkpt>
      <trkpt lat="43.370085" lon="-8.399750">
        <ele>79.0</ele>
        <time>2011-06-25T13:03:19Z</time>
      </trkpt>
      <trkpt lat="43.370078" lon="-8.399727">
        <ele>79.0</ele>
        <time>2011-06-25T13:03:20Z</time>
      </trkpt>
      <trkpt lat="43.370063" lon="-8.399698">
        <ele>79.0</ele>
        <time>2011-06-25T13:03:21Z</time>
      </trkpt>
      <trkpt lat="43.370082" lon="-8.399597">
        <ele>79.5</ele>
        <time>2011-06-25T13:03:24Z</time>
      </trkpt>
      <trkpt lat="43.370103" lon="-8.399558">
        <ele>79.5</ele>
        <time>2011-06-25T13:03:25Z</time>
      </trkpt>
      <trkpt lat="43.370115" lon="-8.399530">
        <ele>79.5</ele>
        <time>2011-06-25T13:03:26Z</time>
      </trkpt>
      <trkpt lat="43.370518" lon="-8.399613">
        <ele>78.0</ele>
        <time>2011-06-25T13:03:31Z</time>
      </trkpt>
      <trkpt lat="43.370468" lon="-8.399475">
        <ele>78.0</ele>
        <time>2011-06-25T13:03:33Z</time>
      </trkpt>
      <trkpt lat="43.370403" lon="-8.399387">
        <ele>78.0</ele>
        <time>2011-06-25T13:03:35Z</time>
      </trkpt>
      <trkpt lat="43.370378" lon="-8.399352">
        <ele>78.0</ele>
        <time>2011-06-25T13:03:35Z</time>
      </trkpt>
      <trkpt lat="43.370310" lon="-8.399283">
        <ele>78.5</ele>
        <time>2011-06-25T13:03:38Z</time>
      </trkpt>
      <trkpt lat="43.370315" lon="-8.399253">
        <ele>79.0</ele>
        <time>2011-06-25T13:03:39Z</time>
      </trkpt>
      <trkpt lat="43.370358" lon="-8.399247">
        <ele>79.0</ele>
        <time>2011-06-25T13:03:41Z</time>
      </trkpt>
      <trkpt lat="43.370398" lon="-8.399258">
        <ele>79.5</ele>
        <time>2011-06-25T13:03:42Z</time>
      </trkpt>
      <trkpt lat="43.370430" lon="-8.399255">
        <ele>80.0</ele>
        <time>2011-06-25T13:03:43Z</time>
      </trkpt>
      <trkpt lat="43.370470" lon="-8.399253">
        <ele>80.5</ele>
        <time>2011-06-25T13:03:43Z</time>
      </trkpt>
      <trkpt lat="43.370597" lon="-8.399267">
        <ele>81.0</ele>
        <time>2011-06-25T13:03:45Z</time>
      </trkpt>
      <trkpt lat="43.370673" lon="-8.399232">
        <ele>81.5</ele>
        <time>2011-06-25T13:03:48Z</time>
      </trkpt>
      <trkpt lat="43.370698" lon="-8.399233">
        <ele>81.5</ele>
        <time>2011-06-25T13:03:49Z</time>
      </trkpt>
      <trkpt lat="43.370717" lon="-8.399227">
        <ele>81.5</ele>
        <time>2011-06-25T13:03:50Z</time>
      </trkpt>
      <trkpt lat="43.370737" lon="-8.399220">
        <ele>82.0</ele>
        <time>2011-06-25T13:03:51Z</time>
      </trkpt>
      <trkpt lat="43.370755" lon="-8.399222">
        <ele>82.0</ele>
        <time>2011-06-25T13:03:52Z</time>
      </trkpt>
      <trkpt lat="43.370775" lon="-8.399222">
        <ele>82.0</ele>
        <time>2011-06-25T13:03:52Z</time>
      </trkpt>
      <trkpt lat="43.370802" lon="-8.399212">
        <ele>82.0</ele>
        <time>2011-06-25T13:03:55Z</time>
      </trkpt>
      <trkpt lat="43.370847" lon="-8.399237">
        <ele>82.5</ele>
        <time>2011-06-25T13:03:56Z</time>
      </trkpt>
      <trkpt lat="43.370890" lon="-8.399233">
        <ele>82.5</ele>
        <time>2011-06-25T13:03:57Z</time>
      </trkpt>
      <trkpt lat="43.370932" lon="-8.399237">
        <ele>82.5</ele>
        <time>2011-06-25T13:03:58Z</time>
      </trkpt>
      <trkpt lat="43.371087" lon="-8.398990">
        <ele>83.5</ele>
        <time>2011-06-25T13:04:01Z</time>
      </trkpt>
      <trkpt lat="43.371117" lon="-8.398953">
        <ele>83.5</ele>
        <time>2011-06-25T13:04:02Z</time>
      </trkpt>
      <trkpt lat="43.371152" lon="-8.398943">
        <ele>83.5</ele>
        <time>2011-06-25T13:04:03Z</time>
      </trkpt>
      <trkpt lat="43.371190" lon="-8.398947">
        <ele>83.5</ele>
        <time>2011-06-25T13:04:04Z</time>
      </trkpt>
      <trkpt lat="43.371228" lon="-8.398958">
        <ele>83.5</ele>
        <time>2011-06-25T13:04:04Z</time>
      </trkpt>
      <trkpt lat="43.371247" lon="-8.398975">
        <ele>83.5</ele>
        <time>2011-06-25T13:04:07Z</time>
      </trkpt>
      <trkpt lat="43.371255" lon="-8.398987">
        <ele>83.5</ele>
        <time>2011-06-25T13:04:08Z</time>
      </trkpt>
      <trkpt lat="43.371272" lon="-8.399002">
        <ele>83.5</ele>
        <time>2011-06-25T13:04:09Z</time>
      </trkpt>
      <trkpt lat="43.371288" lon="-8.399017">
        <ele>83.5</ele>
        <time>2011-06-25T13:04:10Z</time>
      </trkpt>
      <trkpt lat="43.371295" lon="-8.399027">
        <ele>83.5</ele>
        <time>2011-06-25T13:04:10Z</time>
      </trkpt>
      <trkpt lat="43.371307" lon="-8.399035">
        <ele>83.5</ele>
        <time>2011-06-25T13:04:11Z</time>
      </trkpt>
      <trkpt lat="43.371320" lon="-8.399047">
        <ele>83.5</ele>
        <time>2011-06-25T13:04:12Z</time>
      </trkpt>
      <trkpt lat="43.371330" lon="-8.399065">
        <ele>83.5</ele>
        <time>2011-06-25T13:04:14Z</time>
      </trkpt>
      <trkpt lat="43.371342" lon="-8.399065">
        <ele>84.0</ele>
        <time>2011-06-25T13:04:15Z</time>
      </trkpt>
      <trkpt lat="43.371352" lon="-8.399073">
        <ele>84.0</ele>
        <time>2011-06-25T13:04:16Z</time>
      </trkpt>
      <trkpt lat="43.371407" lon="-8.399080">
        <ele>84.5</ele>
        <time>2011-06-25T13:04:18Z</time>
      </trkpt>
      <trkpt lat="43.371427" lon="-8.399077">
        <ele>84.5</ele>
        <time>2011-06-25T13:04:18Z</time>
      </trkpt>
      <trkpt lat="43.371443" lon="-8.399093">
        <ele>84.5</ele>
        <time>2011-06-25T13:04:19Z</time>
      </trkpt>
      <trkpt lat="43.371450" lon="-8.399063">
        <ele>85.5</ele>
        <time>2011-06-25T13:04:20Z</time>
      </trkpt>
      <trkpt lat="43.371503" lon="-8.399087">
        <ele>86.0</ele>
        <time>2011-06-25T13:04:22Z</time>
      </trkpt>
      <trkpt lat="43.371592" lon="-8.399105">
        <ele>83.5</ele>
        <time>2011-06-25T13:04:25Z</time>
      </trkpt>
      <trkpt lat="43.371638" lon="-8.399152">
        <ele>83.5</ele>
        <time>2011-06-25T13:04:27Z</time>
      </trkpt>
      <trkpt lat="43.371665" lon="-8.399153">
        <ele>83.5</ele>
        <time>2011-06-25T13:04:28Z</time>
      </trkpt>
      <trkpt lat="43.371723" lon="-8.399248">
        <ele>83.5</ele>
        <time>2011-06-25T13:04:30Z</time>
      </trkpt>
      <trkpt lat="43.371752" lon="-8.399277">
        <ele>84.0</ele>
        <time>2011-06-25T13:04:30Z</time>
      </trkpt>
      <trkpt lat="43.371768" lon="-8.399298">
        <ele>84.0</ele>
        <time>2011-06-25T13:04:31Z</time>
      </trkpt>
      <trkpt lat="43.371823" lon="-8.399347">
        <ele>84.0</ele>
        <time>2011-06-25T13:04:33Z</time>
      </trkpt>
      <trkpt lat="43.371858" lon="-8.399350">
        <ele>84.0</ele>
        <time>2011-06-25T13:04:36Z</time>
      </trkpt>
      <trkpt lat="43.371883" lon="-8.399367">
        <ele>83.5</ele>
        <time>2011-06-25T13:04:37Z</time>
      </trkpt>
      <trkpt lat="43.371880" lon="-8.399420">
        <ele>83.5</ele>
        <time>2011-06-25T13:04:38Z</time>
      </trkpt>
      <trkpt lat="43.371968" lon="-8.399413">
        <ele>83.5</ele>
        <time>2011-06-25T13:04:40Z</time>
      </trkpt>
      <trkpt lat="43.371987" lon="-8.399413">
        <ele>83.5</ele>
        <time>2011-06-25T13:04:41Z</time>
      </trkpt>
      <trkpt lat="43.372025" lon="-8.399293">
        <ele>83.5</ele>
        <time>2011-06-25T13:04:45Z</time>
      </trkpt>
      <trkpt lat="43.372023" lon="-8.399253">
        <ele>83.5</ele>
        <time>2011-06-25T13:04:46Z</time>
      </trkpt>
      <trkpt lat="43.372018" lon="-8.399200">
        <ele>83.5</ele>
        <time>2011-06-25T13:04:47Z</time>
      </trkpt>
      <trkpt lat="43.372047" lon="-8.399193">
        <ele>83.5</ele>
        <time>2011-06-25T13:04:49Z</time>
      </trkpt>
      <trkpt lat="43.372072" lon="-8.399160">
        <ele>83.5</ele>
        <time>2011-06-25T13:04:50Z</time>
      </trkpt>
      <trkpt lat="43.372102" lon="-8.399133">
        <ele>84.0</ele>
        <time>2011-06-25T13:04:51Z</time>
      </trkpt>
      <trkpt lat="43.372185" lon="-8.399118">
        <ele>84.0</ele>
        <time>2011-06-25T13:04:53Z</time>
      </trkpt>
      <trkpt lat="43.372263" lon="-8.399120">
        <ele>84.5</ele>
        <time>2011-06-25T13:04:55Z</time>
      </trkpt>
      <trkpt lat="43.372273" lon="-8.399103">
        <ele>84.5</ele>
        <time>2011-06-25T13:04:57Z</time>
      </trkpt>
      <trkpt lat="43.372302" lon="-8.399078">
        <ele>84.5</ele>
        <time>2011-06-25T13:04:58Z</time>
      </trkpt>
      <trkpt lat="43.372330" lon="-8.399053">
        <ele>84.5</ele>
        <time>2011-06-25T13:04:58Z</time>
      </trkpt>
      <trkpt lat="43.372363" lon="-8.399032">
        <ele>84.5</ele>
        <time>2011-06-25T13:05:00Z</time>
      </trkpt>
      <trkpt lat="43.372395" lon="-8.399030">
        <ele>84.5</ele>
        <time>2011-06-25T13:05:00Z</time>
      </trkpt>
      <trkpt lat="43.372403" lon="-8.399052">
        <ele>84.5</ele>
        <time>2011-06-25T13:05:02Z</time>
      </trkpt>
      <trkpt lat="43.372410" lon="-8.399030">
        <ele>84.5</ele>
        <time>2011-06-25T13:05:02Z</time>
      </trkpt>
      <trkpt lat="43.372420" lon="-8.399000">
        <ele>84.5</ele>
        <time>2011-06-25T13:05:03Z</time>
      </trkpt>
      <trkpt lat="43.372442" lon="-8.398982">
        <ele>84.5</ele>
        <time>2011-06-25T13:05:05Z</time>
      </trkpt>
      <trkpt lat="43.372460" lon="-8.398968">
        <ele>84.5</ele>
        <time>2011-06-25T13:05:05Z</time>
      </trkpt>
      <trkpt lat="43.372475" lon="-8.398935">
        <ele>84.5</ele>
        <time>2011-06-25T13:05:07Z</time>
      </trkpt>
      <trkpt lat="43.372488" lon="-8.398905">
        <ele>84.5</ele>
        <time>2011-06-25T13:05:08Z</time>
      </trkpt>
      <trkpt lat="43.372602" lon="-8.398928">
        <ele>85.0</ele>
        <time>2011-06-25T13:05:10Z</time>
      </trkpt>
      <trkpt lat="43.372682" lon="-8.398895">
        <ele>85.5</ele>
        <time>2011-06-25T13:05:12Z</time>
      </trkpt>
      <trkpt lat="43.372687" lon="-8.398872">
        <ele>85.5</ele>
        <time>2011-06-25T13:05:13Z</time>
      </trkpt>
      <trkpt lat="43.372700" lon="-8.398838">
        <ele>85.5</ele>
        <time>2011-06-25T13:05:14Z</time>
      </trkpt>
      <trkpt lat="43.372718" lon="-8.398808">
        <ele>85.5</ele>
        <time>2011-06-25T13:05:15Z</time>
      </trkpt>
      <trkpt lat="43.372725" lon="-8.398773">
        <ele>85.5</ele>
        <time>2011-06-25T13:05:16Z</time>
      </trkpt>
      <trkpt lat="43.372737" lon="-8.398737">
        <ele>85.5</ele>
        <time>2011-06-25T13:05:16Z</time>
      </trkpt>
      <trkpt lat="43.372758" lon="-8.398708">
        <ele>85.5</ele>
        <time>2011-06-25T13:05:17Z</time>
      </trkpt>
      <trkpt lat="43.372780" lon="-8.398673">
        <ele>85.5</ele>
        <time>2011-06-25T13:05:18Z</time>
      </trkpt>
      <trkpt lat="43.372802" lon="-8.398655">
        <ele>85.5</ele>
        <time>2011-06-25T13:05:20Z</time>
      </trkpt>
      <trkpt lat="43.372818" lon="-8.398637">
        <ele>85.5</ele>
        <time>2011-06-25T13:05:21Z</time>
      </trkpt>
      <trkpt lat="43.372830" lon="-8.398610">
        <ele>86.0</ele>
        <time>2011-06-25T13:05:22Z</time>
      </trkpt>
      <trkpt lat="43.372863" lon="-8.398590">
        <ele>86.0</ele>
        <time>2011-06-25T13:05:23Z</time>
      </trkpt>
      <trkpt lat="43.372852" lon="-8.398540">
        <ele>86.0</ele>
        <time>2011-06-25T13:05:24Z</time>
      </trkpt>
      <trkpt lat="43.372853" lon="-8.398503">
        <ele>86.0</ele>
        <time>2011-06-25T13:05:25Z</time>
      </trkpt>
      <trkpt lat="43.372867" lon="-8.398475">
        <ele>86.0</ele>
        <time>2011-06-25T13:05:26Z</time>
      </trkpt>
      <trkpt lat="43.372937" lon="-8.398420">
        <ele>86.0</ele>
        <time>2011-06-25T13:05:28Z</time>
      </trkpt>
      <trkpt lat="43.372952" lon="-8.398402">
        <ele>86.5</ele>
        <time>2011-06-25T13:05:29Z</time>
      </trkpt>
      <trkpt lat="43.372967" lon="-8.398388">
        <ele>86.5</ele>
        <time>2011-06-25T13:05:29Z</time>
      </trkpt>
      <trkpt lat="43.373028" lon="-8.398392">
        <ele>86.5</ele>
        <time>2011-06-25T13:05:32Z</time>
      </trkpt>
      <trkpt lat="43.373045" lon="-8.398382">
        <ele>86.5</ele>
        <time>2011-06-25T13:05:33Z</time>
      </trkpt>
      <trkpt lat="43.373057" lon="-8.398365">
        <ele>87.0</ele>
        <time>2011-06-25T13:05:34Z</time>
      </trkpt>
      <trkpt lat="43.373095" lon="-8.398383">
        <ele>87.0</ele>
        <time>2011-06-25T13:05:36Z</time>
      </trkpt>
      <trkpt lat="43.373102" lon="-8.398373">
        <ele>87.0</ele>
        <time>2011-06-25T13:05:37Z</time>
      </trkpt>
      <trkpt lat="43.373102" lon="-8.398360">
        <ele>87.0</ele>
        <time>2011-06-25T13:05:38Z</time>
      </trkpt>
      <trkpt lat="43.373148" lon="-8.398387">
        <ele>87.0</ele>
        <time>2011-06-25T13:05:40Z</time>
      </trkpt>
      <trkpt lat="43.373147" lon="-8.398375">
        <ele>87.0</ele>
        <time>2011-06-25T13:05:41Z</time>
      </trkpt>
      <trkpt lat="43.373152" lon="-8.398368">
        <ele>87.0</ele>
        <time>2011-06-25T13:05:41Z</time>
      </trkpt>
      <trkpt lat="43.373155" lon="-8.398353">
        <ele>87.0</ele>
        <time>2011-06-25T13:05:43Z</time>
      </trkpt>
      <trkpt lat="43.373170" lon="-8.398347">
        <ele>86.5</ele>
        <time>2011-06-25T13:05:43Z</time>
      </trkpt>
      <trkpt lat="43.373182" lon="-8.398337">
        <ele>86.5</ele>
        <time>2011-06-25T13:05:44Z</time>
      </trkpt>
      <trkpt lat="43.373187" lon="-8.398343">
        <ele>87.0</ele>
        <time>2011-06-25T13:05:46Z</time>
      </trkpt>
      <trkpt lat="43.373190" lon="-8.398343">
        <ele>87.0</ele>
        <time>2011-06-25T13:05:46Z</time>
      </trkpt>
      <trkpt lat="43.373172" lon="-8.398320">
        <ele>86.5</ele>
        <time>2011-06-25T13:05:48Z</time>
      </trkpt>
      <trkpt lat="43.373107" lon="-8.398290">
        <ele>87.5</ele>
        <time>2011-06-25T13:05:50Z</time>
      </trkpt>
      <trkpt lat="43.373073" lon="-8.398253">
        <ele>87.0</ele>
        <time>2011-06-25T13:05:52Z</time>
      </trkpt>
      <trkpt lat="43.373062" lon="-8.398240">
        <ele>87.0</ele>
        <time>2011-06-25T13:05:53Z</time>
      </trkpt>
      <trkpt lat="43.373058" lon="-8.398232">
        <ele>87.0</ele>
        <time>2011-06-25T13:05:53Z</time>
      </trkpt>
      <trkpt lat="43.373055" lon="-8.398220">
        <ele>86.5</ele>
        <time>2011-06-25T13:05:55Z</time>
      </trkpt>
      <trkpt lat="43.373043" lon="-8.398213">
        <ele>86.5</ele>
        <time>2011-06-25T13:05:56Z</time>
      </trkpt>
      <trkpt lat="43.373055" lon="-8.398222">
        <ele>86.5</ele>
        <time>2011-06-25T13:05:57Z</time>
      </trkpt>
      <trkpt lat="43.373060" lon="-8.398223">
        <ele>86.5</ele>
        <time>2011-06-25T13:05:58Z</time>
      </trkpt>
      <trkpt lat="43.373068" lon="-8.398230">
        <ele>86.0</ele>
        <time>2011-06-25T13:05:59Z</time>
      </trkpt>
      <trkpt lat="43.373075" lon="-8.398235">
        <ele>86.0</ele>
        <time>2011-06-25T13:06:00Z</time>
      </trkpt>
      <trkpt lat="43.373055" lon="-8.398225">
        <ele>86.5</ele>
        <time>2011-06-25T13:06:01Z</time>
      </trkpt>
      <trkpt lat="43.373047" lon="-8.398218">
        <ele>86.0</ele>
        <time>2011-06-25T13:06:02Z</time>
      </trkpt>
      <trkpt lat="43.373048" lon="-8.398218">
        <ele>86.0</ele>
        <time>2011-06-25T13:06:03Z</time>
      </trkpt>
      <trkpt lat="43.373038" lon="-8.398173">
        <ele>84.0</ele>
        <time>2011-06-25T13:06:05Z</time>
      </trkpt>
      <trkpt lat="43.373020" lon="-8.398163">
        <ele>84.0</ele>
        <time>2011-06-25T13:06:06Z</time>
      </trkpt>
      <trkpt lat="43.373012" lon="-8.398160">
        <ele>84.0</ele>
        <time>2011-06-25T13:06:06Z</time>
      </trkpt>
      <trkpt lat="43.373000" lon="-8.398150">
        <ele>84.0</ele>
        <time>2011-06-25T13:06:08Z</time>
      </trkpt>
      <trkpt lat="43.372998" lon="-8.398145">
        <ele>84.0</ele>
        <time>2011-06-25T13:06:09Z</time>
      </trkpt>
      <trkpt lat="43.372982" lon="-8.398130">
        <ele>83.5</ele>
        <time>2011-06-25T13:06:09Z</time>
      </trkpt>
      <trkpt lat="43.372967" lon="-8.398117">
        <ele>83.5</ele>
        <time>2011-06-25T13:06:11Z</time>
      </trkpt>
      <trkpt lat="43.372975" lon="-8.398118">
        <ele>83.5</ele>
        <time>2011-06-25T13:06:12Z</time>
      </trkpt>
      <trkpt lat="43.372985" lon="-8.398130">
        <ele>83.0</ele>
        <time>2011-06-25T13:06:13Z</time>
      </trkpt>
      <trkpt lat="43.372997" lon="-8.398140">
        <ele>83.0</ele>
        <time>2011-06-25T13:06:13Z</time>
      </trkpt>
      <trkpt lat="43.373005" lon="-8.398148">
        <ele>82.5</ele>
        <time>2011-06-25T13:06:15Z</time>
      </trkpt>
      <trkpt lat="43.373003" lon="-8.398148">
        <ele>82.5</ele>
        <time>2011-06-25T13:06:15Z</time>
      </trkpt>
      <trkpt lat="43.373002" lon="-8.398148">
        <ele>82.5</ele>
        <time>2011-06-25T13:06:16Z</time>
      </trkpt>
      <trkpt lat="43.373003" lon="-8.398152">
        <ele>82.5</ele>
        <time>2011-06-25T13:06:18Z</time>
      </trkpt>
      <trkpt lat="43.372995" lon="-8.398148">
        <ele>82.5</ele>
        <time>2011-06-25T13:06:18Z</time>
      </trkpt>
      <trkpt lat="43.373000" lon="-8.398152">
        <ele>82.0</ele>
        <time>2011-06-25T13:06:20Z</time>
      </trkpt>
      <trkpt lat="43.373005" lon="-8.398153">
        <ele>82.0</ele>
        <time>2011-06-25T13:06:21Z</time>
      </trkpt>
      <trkpt lat="43.373008" lon="-8.398155">
        <ele>82.0</ele>
        <time>2011-06-25T13:06:22Z</time>
      </trkpt>
      <trkpt lat="43.373010" lon="-8.398157">
        <ele>81.5</ele>
        <time>2011-06-25T13:06:23Z</time>
      </trkpt>
      <trkpt lat="43.372953" lon="-8.398128">
        <ele>84.0</ele>
        <time>2011-06-25T13:06:25Z</time>
      </trkpt>
      <trkpt lat="43.372947" lon="-8.398127">
        <ele>84.0</ele>
        <time>2011-06-25T13:06:26Z</time>
      </trkpt>
      <trkpt lat="43.372952" lon="-8.398117">
        <ele>84.0</ele>
        <time>2011-06-25T13:06:27Z</time>
      </trkpt>
      <trkpt lat="43.372948" lon="-8.398113">
        <ele>83.5</ele>
        <time>2011-06-25T13:06:28Z</time>
      </trkpt>
      <trkpt lat="43.372952" lon="-8.398115">
        <ele>83.5</ele>
        <time>2011-06-25T13:06:29Z</time>
      </trkpt>
      <trkpt lat="43.372948" lon="-8.398113">
        <ele>83.5</ele>
        <time>2011-06-25T13:06:30Z</time>
      </trkpt>
      <trkpt lat="43.372952" lon="-8.398117">
        <ele>83.0</ele>
        <time>2011-06-25T13:06:31Z</time>
      </trkpt>
      <trkpt lat="43.372953" lon="-8.398118">
        <ele>83.0</ele>
        <time>2011-06-25T13:06:32Z</time>
      </trkpt>
      <trkpt lat="43.372957" lon="-8.398122">
        <ele>83.5</ele>
        <time>2011-06-25T13:06:33Z</time>
      </trkpt>
      <trkpt lat="43.372953" lon="-8.398123">
        <ele>83.5</ele>
        <time>2011-06-25T13:06:33Z</time>
      </trkpt>
      <trkpt lat="43.372967" lon="-8.398137">
        <ele>84.5</ele>
        <time>2011-06-25T13:06:35Z</time>
      </trkpt>
      <trkpt lat="43.372972" lon="-8.398142">
        <ele>84.5</ele>
        <time>2011-06-25T13:06:36Z</time>
      </trkpt>
      <trkpt lat="43.372970" lon="-8.398137">
        <ele>83.5</ele>
        <time>2011-06-25T13:06:37Z</time>
      </trkpt>
      <trkpt lat="43.372972" lon="-8.398132">
        <ele>83.5</ele>
        <time>2011-06-25T13:06:38Z</time>
      </trkpt>
      <trkpt lat="43.372960" lon="-8.398127">
        <ele>84.5</ele>
        <time>2011-06-25T13:06:39Z</time>
      </trkpt>
      <trkpt lat="43.372905" lon="-8.398103">
        <ele>87.0</ele>
        <time>2011-06-25T13:06:41Z</time>
      </trkpt>
      <trkpt lat="43.372898" lon="-8.398100">
        <ele>87.0</ele>
        <time>2011-06-25T13:06:42Z</time>
      </trkpt>
      <trkpt lat="43.372907" lon="-8.398103">
        <ele>87.0</ele>
        <time>2011-06-25T13:06:43Z</time>
      </trkpt>
      <trkpt lat="43.372907" lon="-8.398103">
        <ele>87.0</ele>
        <time>2011-06-25T13:06:44Z</time>
      </trkpt>
      <trkpt lat="43.372895" lon="-8.398100">
        <ele>87.0</ele>
        <time>2011-06-25T13:06:45Z</time>
      </trkpt>
      <trkpt lat="43.372883" lon="-8.398102">
        <ele>87.5</ele>
        <time>2011-06-25T13:06:46Z</time>
      </trkpt>
      <trkpt lat="43.372835" lon="-8.398107">
        <ele>90.0</ele>
        <time>2011-06-25T13:06:48Z</time>
      </trkpt>
      <trkpt lat="43.372817" lon="-8.398102">
        <ele>90.0</ele>
        <time>2011-06-25T13:06:49Z</time>
      </trkpt>
      <trkpt lat="43.372813" lon="-8.398102">
        <ele>90.0</ele>
        <time>2011-06-25T13:06:50Z</time>
      </trkpt>
      <trkpt lat="43.372803" lon="-8.398103">
        <ele>90.5</ele>
        <time>2011-06-25T13:06:51Z</time>
      </trkpt>
      <trkpt lat="43.372800" lon="-8.398108">
        <ele>90.5</ele>
        <time>2011-06-25T13:06:52Z</time>
      </trkpt>
      <trkpt lat="43.372785" lon="-8.398107">
        <ele>91.0</ele>
        <time>2011-06-25T13:06:53Z</time>
      </trkpt>
      <trkpt lat="43.372775" lon="-8.398105">
        <ele>91.0</ele>
        <time>2011-06-25T13:06:54Z</time>
      </trkpt>
      <trkpt lat="43.372778" lon="-8.398105">
        <ele>91.0</ele>
        <time>2011-06-25T13:06:55Z</time>
      </trkpt>
      <trkpt lat="43.372782" lon="-8.398108">
        <ele>91.5</ele>
        <time>2011-06-25T13:06:56Z</time>
      </trkpt>
      <trkpt lat="43.372783" lon="-8.398110">
        <ele>92.0</ele>
        <time>2011-06-25T13:06:57Z</time>
      </trkpt>
      <trkpt lat="43.372785" lon="-8.398110">
        <ele>92.0</ele>
        <time>2011-06-25T13:06:58Z</time>
      </trkpt>
      <trkpt lat="43.372783" lon="-8.398112">
        <ele>92.0</ele>
        <time>2011-06-25T13:06:59Z</time>
      </trkpt>
      <trkpt lat="43.372785" lon="-8.398113">
        <ele>92.0</ele>
        <time>2011-06-25T13:07:00Z</time>
      </trkpt>
      <trkpt lat="43.372785" lon="-8.398113">
        <ele>92.0</ele>
        <time>2011-06-25T13:07:01Z</time>
      </trkpt>
      <trkpt lat="43.372785" lon="-8.398113">
        <ele>91.5</ele>
        <time>2011-06-25T13:07:02Z</time>
      </trkpt>
      <trkpt lat="43.372790" lon="-8.398117">
        <ele>91.5</ele>
        <time>2011-06-25T13:07:03Z</time>
      </trkpt>
      <trkpt lat="43.372792" lon="-8.398118">
        <ele>91.0</ele>
        <time>2011-06-25T13:07:04Z</time>
      </trkpt>
      <trkpt lat="43.372792" lon="-8.398115">
        <ele>91.0</ele>
        <time>2011-06-25T13:07:05Z</time>
      </trkpt>
      <trkpt lat="43.372795" lon="-8.398113">
        <ele>91.0</ele>
        <time>2011-06-25T13:07:06Z</time>
      </trkpt>
      <trkpt lat="43.372798" lon="-8.398113">
        <ele>91.0</ele>
        <time>2011-06-25T13:07:07Z</time>
      </trkpt>
      <trkpt lat="43.372803" lon="-8.398112">
        <ele>90.5</ele>
        <time>2011-06-25T13:07:08Z</time>
      </trkpt>
      <trkpt lat="43.372812" lon="-8.398110">
        <ele>89.5</ele>
        <time>2011-06-25T13:07:09Z</time>
      </trkpt>
      <trkpt lat="43.372820" lon="-8.398110">
        <ele>88.5</ele>
        <time>2011-06-25T13:07:10Z</time>
      </trkpt>
      <trkpt lat="43.372818" lon="-8.398108">
        <ele>88.5</ele>
        <time>2011-06-25T13:07:11Z</time>
      </trkpt>
      <trkpt lat="43.372822" lon="-8.398108">
        <ele>88.5</ele>
        <time>2011-06-25T13:07:12Z</time>
      </trkpt>
      <trkpt lat="43.372825" lon="-8.398105">
        <ele>88.5</ele>
        <time>2011-06-25T13:07:13Z</time>
      </trkpt>
      <trkpt lat="43.372835" lon="-8.398110">
        <ele>88.5</ele>
        <time>2011-06-25T13:07:14Z</time>
      </trkpt>
      <trkpt lat="43.372838" lon="-8.398113">
        <ele>88.5</ele>
        <time>2011-06-25T13:07:15Z</time>
      </trkpt>
      <trkpt lat="43.372843" lon="-8.398117">
        <ele>88.0</ele>
        <time>2011-06-25T13:07:16Z</time>
      </trkpt>
      <trkpt lat="43.372847" lon="-8.398123">
        <ele>88.0</ele>
        <time>2011-06-25T13:07:17Z</time>
      </trkpt>
      <trkpt lat="43.372840" lon="-8.398125">
        <ele>88.0</ele>
        <time>2011-06-25T13:07:18Z</time>
      </trkpt>
      <trkpt lat="43.372845" lon="-8.398135">
        <ele>87.5</ele>
        <time>2011-06-25T13:07:19Z</time>
      </trkpt>
      <trkpt lat="43.372828" lon="-8.398132">
        <ele>87.5</ele>
        <time>2011-06-25T13:07:21Z</time>
      </trkpt>
      <trkpt lat="43.372835" lon="-8.398147">
        <ele>88.0</ele>
        <time>2011-06-25T13:07:21Z</time>
      </trkpt>
      <trkpt lat="43.372890" lon="-8.398145">
        <ele>86.5</ele>
        <time>2011-06-25T13:07:24Z</time>
      </trkpt>
      <trkpt lat="43.372953" lon="-8.398182">
        <ele>85.5</ele>
        <time>2011-06-25T13:07:26Z</time>
      </trkpt>
      <trkpt lat="43.372975" lon="-8.398192">
        <ele>85.5</ele>
        <time>2011-06-25T13:07:27Z</time>
      </trkpt>
      <trkpt lat="43.373003" lon="-8.398203">
        <ele>85.5</ele>
        <time>2011-06-25T13:07:28Z</time>
      </trkpt>
      <trkpt lat="43.372998" lon="-8.398193">
        <ele>85.5</ele>
        <time>2011-06-25T13:07:29Z</time>
      </trkpt>
      <trkpt lat="43.373005" lon="-8.398193">
        <ele>85.0</ele>
        <time>2011-06-25T13:07:30Z</time>
      </trkpt>
      <trkpt lat="43.373003" lon="-8.398185">
        <ele>85.0</ele>
        <time>2011-06-25T13:07:31Z</time>
      </trkpt>
      <trkpt lat="43.373003" lon="-8.398185">
        <ele>85.0</ele>
        <time>2011-06-25T13:07:32Z</time>
      </trkpt>
      <trkpt lat="43.373002" lon="-8.398178">
        <ele>85.0</ele>
        <time>2011-06-25T13:07:33Z</time>
      </trkpt>
      <trkpt lat="43.373002" lon="-8.398175">
        <ele>85.0</ele>
        <time>2011-06-25T13:07:34Z</time>
      </trkpt>
      <trkpt lat="43.373008" lon="-8.398172">
        <ele>84.5</ele>
        <time>2011-06-25T13:07:34Z</time>
      </trkpt>
      <trkpt lat="43.373008" lon="-8.398172">
        <ele>84.5</ele>
        <time>2011-06-25T13:07:36Z</time>
      </trkpt>
      <trkpt lat="43.373013" lon="-8.398175">
        <ele>84.0</ele>
        <time>2011-06-25T13:07:37Z</time>
      </trkpt>
      <trkpt lat="43.373010" lon="-8.398172">
        <ele>84.5</ele>
        <time>2011-06-25T13:07:38Z</time>
      </trkpt>
      <trkpt lat="43.373012" lon="-8.398175">
        <ele>84.5</ele>
        <time>2011-06-25T13:07:39Z</time>
      </trkpt>
      <trkpt lat="43.372950" lon="-8.398185">
        <ele>88.0</ele>
        <time>2011-06-25T13:07:41Z</time>
      </trkpt>
      <trkpt lat="43.372927" lon="-8.398192">
        <ele>89.5</ele>
        <time>2011-06-25T13:07:43Z</time>
      </trkpt>
      <trkpt lat="43.372928" lon="-8.398197">
        <ele>90.5</ele>
        <time>2011-06-25T13:07:44Z</time>
      </trkpt>
      <trkpt lat="43.372923" lon="-8.398197">
        <ele>91.5</ele>
        <time>2011-06-25T13:07:45Z</time>
      </trkpt>
      <trkpt lat="43.372917" lon="-8.398197">
        <ele>93.0</ele>
        <time>2011-06-25T13:07:45Z</time>
      </trkpt>
      <trkpt lat="43.372903" lon="-8.398195">
        <ele>93.5</ele>
        <time>2011-06-25T13:07:46Z</time>
      </trkpt>
      <trkpt lat="43.372893" lon="-8.398200">
        <ele>94.5</ele>
        <time>2011-06-25T13:07:48Z</time>
      </trkpt>
      <trkpt lat="43.372878" lon="-8.398205">
        <ele>95.5</ele>
        <time>2011-06-25T13:07:49Z</time>
      </trkpt>
      <trkpt lat="43.372873" lon="-8.398203">
        <ele>95.5</ele>
        <time>2011-06-25T13:07:50Z</time>
      </trkpt>
      <trkpt lat="43.372872" lon="-8.398207">
        <ele>96.0</ele>
        <time>2011-06-25T13:07:51Z</time>
      </trkpt>
      <trkpt lat="43.372875" lon="-8.398207">
        <ele>96.0</ele>
        <time>2011-06-25T13:07:52Z</time>
      </trkpt>
      <trkpt lat="43.372867" lon="-8.398198">
        <ele>96.0</ele>
        <time>2011-06-25T13:07:53Z</time>
      </trkpt>
      <trkpt lat="43.372825" lon="-8.398165">
        <ele>97.5</ele>
        <time>2011-06-25T13:07:55Z</time>
      </trkpt>
      <trkpt lat="43.372832" lon="-8.398167">
        <ele>97.0</ele>
        <time>2011-06-25T13:07:56Z</time>
      </trkpt>
      <trkpt lat="43.372835" lon="-8.398170">
        <ele>97.5</ele>
        <time>2011-06-25T13:07:57Z</time>
      </trkpt>
      <trkpt lat="43.372843" lon="-8.398177">
        <ele>97.0</ele>
        <time>2011-06-25T13:07:58Z</time>
      </trkpt>
      <trkpt lat="43.372860" lon="-8.398185">
        <ele>96.5</ele>
        <time>2011-06-25T13:07:58Z</time>
      </trkpt>
      <trkpt lat="43.372863" lon="-8.398188">
        <ele>96.0</ele>
        <time>2011-06-25T13:08:00Z</time>
      </trkpt>
      <trkpt lat="43.372868" lon="-8.398190">
        <ele>95.5</ele>
        <time>2011-06-25T13:08:01Z</time>
      </trkpt>
      <trkpt lat="43.372877" lon="-8.398195">
        <ele>95.5</ele>
        <time>2011-06-25T13:08:02Z</time>
      </trkpt>
      <trkpt lat="43.372887" lon="-8.398202">
        <ele>96.0</ele>
        <time>2011-06-25T13:08:03Z</time>
      </trkpt>
      <trkpt lat="43.372902" lon="-8.398208">
        <ele>95.5</ele>
        <time>2011-06-25T13:08:04Z</time>
      </trkpt>
      <trkpt lat="43.372918" lon="-8.398220">
        <ele>95.5</ele>
        <time>2011-06-25T13:08:05Z</time>
      </trkpt>
      <trkpt lat="43.372925" lon="-8.398225">
        <ele>95.0</ele>
        <time>2011-06-25T13:08:06Z</time>
      </trkpt>
      <trkpt lat="43.372925" lon="-8.398227">
        <ele>95.0</ele>
        <time>2011-06-25T13:08:07Z</time>
      </trkpt>
      <trkpt lat="43.372925" lon="-8.398225">
        <ele>95.0</ele>
        <time>2011-06-25T13:08:08Z</time>
      </trkpt>
      <trkpt lat="43.372965" lon="-8.398243">
        <ele>94.5</ele>
        <time>2011-06-25T13:08:10Z</time>
      </trkpt>
      <trkpt lat="43.372972" lon="-8.398237">
        <ele>93.0</ele>
        <time>2011-06-25T13:08:10Z</time>
      </trkpt>
      <trkpt lat="43.372973" lon="-8.398232">
        <ele>92.5</ele>
        <time>2011-06-25T13:08:12Z</time>
      </trkpt>
      <trkpt lat="43.373038" lon="-8.398255">
        <ele>91.5</ele>
        <time>2011-06-25T13:08:14Z</time>
      </trkpt>
      <trkpt lat="43.373053" lon="-8.398258">
        <ele>91.0</ele>
        <time>2011-06-25T13:08:15Z</time>
      </trkpt>
      <trkpt lat="43.373067" lon="-8.398260">
        <ele>90.5</ele>
        <time>2011-06-25T13:08:16Z</time>
      </trkpt>
      <trkpt lat="43.373070" lon="-8.398255">
        <ele>90.0</ele>
        <time>2011-06-25T13:08:17Z</time>
      </trkpt>
      <trkpt lat="43.373077" lon="-8.398245">
        <ele>88.0</ele>
        <time>2011-06-25T13:08:18Z</time>
      </trkpt>
      <trkpt lat="43.373087" lon="-8.398242">
        <ele>86.5</ele>
        <time>2011-06-25T13:08:18Z</time>
      </trkpt>
      <trkpt lat="43.373123" lon="-8.398242">
        <ele>81.5</ele>
        <time>2011-06-25T13:08:21Z</time>
      </trkpt>
      <trkpt lat="43.373128" lon="-8.398230">
        <ele>80.5</ele>
        <time>2011-06-25T13:08:22Z</time>
      </trkpt>
      <trkpt lat="43.373113" lon="-8.398220">
        <ele>80.5</ele>
        <time>2011-06-25T13:08:22Z</time>
      </trkpt>
      <trkpt lat="43.373108" lon="-8.398213">
        <ele>80.0</ele>
        <time>2011-06-25T13:08:24Z</time>
      </trkpt>
      <trkpt lat="43.373105" lon="-8.398210">
        <ele>79.5</ele>
        <time>2011-06-25T13:08:25Z</time>
      </trkpt>
      <trkpt lat="43.373107" lon="-8.398213">
        <ele>79.5</ele>
        <time>2011-06-25T13:08:26Z</time>
      </trkpt>
      <trkpt lat="43.373100" lon="-8.398213">
        <ele>80.0</ele>
        <time>2011-06-25T13:08:27Z</time>
      </trkpt>
      <trkpt lat="43.373100" lon="-8.398217">
        <ele>79.5</ele>
        <time>2011-06-25T13:08:28Z</time>
      </trkpt>
      <trkpt lat="43.373098" lon="-8.398215">
        <ele>79.5</ele>
        <time>2011-06-25T13:08:29Z</time>
      </trkpt>
      <trkpt lat="43.373052" lon="-8.398195">
        <ele>83.5</ele>
        <time>2011-06-25T13:08:31Z</time>
      </trkpt>
      <trkpt lat="43.373047" lon="-8.398190">
        <ele>83.0</ele>
        <time>2011-06-25T13:08:32Z</time>
      </trkpt>
      <trkpt lat="43.373013" lon="-8.398167">
        <ele>83.5</ele>
        <time>2011-06-25T13:08:34Z</time>
      </trkpt>
      <trkpt lat="43.373000" lon="-8.398155">
        <ele>83.0</ele>
        <time>2011-06-25T13:08:35Z</time>
      </trkpt>
      <trkpt lat="43.372957" lon="-8.398123">
        <ele>82.0</ele>
        <time>2011-06-25T13:08:37Z</time>
      </trkpt>
      <trkpt lat="43.372883" lon="-8.398077">
        <ele>82.0</ele>
        <time>2011-06-25T13:08:39Z</time>
      </trkpt>
      <trkpt lat="43.372858" lon="-8.398062">
        <ele>82.0</ele>
        <time>2011-06-25T13:08:40Z</time>
      </trkpt>
      <trkpt lat="43.372865" lon="-8.398067">
        <ele>82.0</ele>
        <time>2011-06-25T13:08:42Z</time>
      </trkpt>
      <trkpt lat="43.372877" lon="-8.398075">
        <ele>82.0</ele>
        <time>2011-06-25T13:08:43Z</time>
      </trkpt>
      <trkpt lat="43.372925" lon="-8.398108">
        <ele>82.5</ele>
        <time>2011-06-25T13:08:45Z</time>
      </trkpt>
      <trkpt lat="43.372953" lon="-8.398130">
        <ele>82.5</ele>
        <time>2011-06-25T13:08:46Z</time>
      </trkpt>
      <trkpt lat="43.372960" lon="-8.398135">
        <ele>82.0</ele>
        <time>2011-06-25T13:08:48Z</time>
      </trkpt>
      <trkpt lat="43.372968" lon="-8.398142">
        <ele>82.0</ele>
        <time>2011-06-25T13:08:49Z</time>
      </trkpt>
      <trkpt lat="43.372972" lon="-8.398145">
        <ele>82.0</ele>
        <time>2011-06-25T13:08:50Z</time>
      </trkpt>
      <trkpt lat="43.372973" lon="-8.398150">
        <ele>82.0</ele>
        <time>2011-06-25T13:08:51Z</time>
      </trkpt>
      <trkpt lat="43.372977" lon="-8.398155">
        <ele>82.0</ele>
        <time>2011-06-25T13:08:52Z</time>
      </trkpt>
      <trkpt lat="43.372980" lon="-8.398167">
        <ele>83.0</ele>
        <time>2011-06-25T13:08:53Z</time>
      </trkpt>
      <trkpt lat="43.372968" lon="-8.398177">
        <ele>84.5</ele>
        <time>2011-06-25T13:08:54Z</time>
      </trkpt>
      <trkpt lat="43.372968" lon="-8.398178">
        <ele>84.5</ele>
        <time>2011-06-25T13:08:54Z</time>
      </trkpt>
      <trkpt lat="43.372965" lon="-8.398183">
        <ele>85.5</ele>
        <time>2011-06-25T13:08:56Z</time>
      </trkpt>
      <trkpt lat="43.372958" lon="-8.398192">
        <ele>87.0</ele>
        <time>2011-06-25T13:08:57Z</time>
      </trkpt>
      <trkpt lat="43.372952" lon="-8.398195">
        <ele>87.5</ele>
        <time>2011-06-25T13:08:58Z</time>
      </trkpt>
      <trkpt lat="43.372953" lon="-8.398205">
        <ele>88.5</ele>
        <time>2011-06-25T13:08:59Z</time>
      </trkpt>
      <trkpt lat="43.372937" lon="-8.398210">
        <ele>90.0</ele>
        <time>2011-06-25T13:09:00Z</time>
      </trkpt>
      <trkpt lat="43.372925" lon="-8.398215">
        <ele>91.5</ele>
        <time>2011-06-25T13:09:00Z</time>
      </trkpt>
      <trkpt lat="43.372927" lon="-8.398217">
        <ele>91.5</ele>
        <time>2011-06-25T13:09:02Z</time>
      </trkpt>
      <trkpt lat="43.372937" lon="-8.398223">
        <ele>92.0</ele>
        <time>2011-06-25T13:09:02Z</time>
      </trkpt>
      <trkpt lat="43.372933" lon="-8.398228">
        <ele>92.5</ele>
        <time>2011-06-25T13:09:04Z</time>
      </trkpt>
      <trkpt lat="43.372945" lon="-8.398238">
        <ele>93.0</ele>
        <time>2011-06-25T13:09:05Z</time>
      </trkpt>
      <trkpt lat="43.372947" lon="-8.398240">
        <ele>93.0</ele>
        <time>2011-06-25T13:09:06Z</time>
      </trkpt>
      <trkpt lat="43.372945" lon="-8.398238">
        <ele>93.0</ele>
        <time>2011-06-25T13:09:07Z</time>
      </trkpt>
      <trkpt lat="43.372927" lon="-8.398227">
        <ele>93.5</ele>
        <time>2011-06-25T13:09:07Z</time>
      </trkpt>
      <trkpt lat="43.372908" lon="-8.398228">
        <ele>95.0</ele>
        <time>2011-06-25T13:09:09Z</time>
      </trkpt>
      <trkpt lat="43.372897" lon="-8.398220">
        <ele>95.5</ele>
        <time>2011-06-25T13:09:10Z</time>
      </trkpt>
      <trkpt lat="43.372885" lon="-8.398212">
        <ele>96.0</ele>
        <time>2011-06-25T13:09:10Z</time>
      </trkpt>
      <trkpt lat="43.372868" lon="-8.398200">
        <ele>97.0</ele>
        <time>2011-06-25T13:09:12Z</time>
      </trkpt>
      <trkpt lat="43.372852" lon="-8.398193">
        <ele>98.0</ele>
        <time>2011-06-25T13:09:12Z</time>
      </trkpt>
      <trkpt lat="43.372845" lon="-8.398187">
        <ele>98.0</ele>
        <time>2011-06-25T13:09:14Z</time>
      </trkpt>
      <trkpt lat="43.372840" lon="-8.398183">
        <ele>98.5</ele>
        <time>2011-06-25T13:09:15Z</time>
      </trkpt>
      <trkpt lat="43.372807" lon="-8.398160">
        <ele>99.5</ele>
        <time>2011-06-25T13:09:17Z</time>
      </trkpt>
      <trkpt lat="43.372815" lon="-8.398157">
        <ele>99.0</ele>
        <time>2011-06-25T13:09:17Z</time>
      </trkpt>
      <trkpt lat="43.372807" lon="-8.398152">
        <ele>99.0</ele>
        <time>2011-06-25T13:09:18Z</time>
      </trkpt>
      <trkpt lat="43.372798" lon="-8.398143">
        <ele>99.5</ele>
        <time>2011-06-25T13:09:19Z</time>
      </trkpt>
      <trkpt lat="43.372808" lon="-8.398155">
        <ele>100.0</ele>
        <time>2011-06-25T13:09:20Z</time>
      </trkpt>
      <trkpt lat="43.372807" lon="-8.398162">
        <ele>101.0</ele>
        <time>2011-06-25T13:09:22Z</time>
      </trkpt>
      <trkpt lat="43.372802" lon="-8.398167">
        <ele>102.5</ele>
        <time>2011-06-25T13:09:23Z</time>
      </trkpt>
      <trkpt lat="43.372823" lon="-8.398183">
        <ele>103.5</ele>
        <time>2011-06-25T13:09:24Z</time>
      </trkpt>
      <trkpt lat="43.372782" lon="-8.398165">
        <ele>104.5</ele>
        <time>2011-06-25T13:09:27Z</time>
      </trkpt>
      <trkpt lat="43.372770" lon="-8.398163">
        <ele>104.5</ele>
        <time>2011-06-25T13:09:28Z</time>
      </trkpt>
      <trkpt lat="43.372777" lon="-8.398172">
        <ele>105.0</ele>
        <time>2011-06-25T13:09:29Z</time>
      </trkpt>
      <trkpt lat="43.372773" lon="-8.398168">
        <ele>105.0</ele>
        <time>2011-06-25T13:09:29Z</time>
      </trkpt>
      <trkpt lat="43.372932" lon="-8.398258">
        <ele>107.5</ele>
        <time>2011-06-25T13:09:32Z</time>
      </trkpt>
      <trkpt lat="43.372922" lon="-8.398247">
        <ele>108.0</ele>
        <time>2011-06-25T13:09:33Z</time>
      </trkpt>
      <trkpt lat="43.372920" lon="-8.398245">
        <ele>108.0</ele>
        <time>2011-06-25T13:09:35Z</time>
      </trkpt>
      <trkpt lat="43.372932" lon="-8.398252">
        <ele>107.5</ele>
        <time>2011-06-25T13:09:36Z</time>
      </trkpt>
      <trkpt lat="43.372940" lon="-8.398257">
        <ele>107.5</ele>
        <time>2011-06-25T13:09:37Z</time>
      </trkpt>
      <trkpt lat="43.372948" lon="-8.398260">
        <ele>107.5</ele>
        <time>2011-06-25T13:09:38Z</time>
      </trkpt>
      <trkpt lat="43.372957" lon="-8.398263">
        <ele>107.0</ele>
        <time>2011-06-25T13:09:39Z</time>
      </trkpt>
      <trkpt lat="43.372968" lon="-8.398253">
        <ele>106.5</ele>
        <time>2011-06-25T13:09:41Z</time>
      </trkpt>
      <trkpt lat="43.372965" lon="-8.398252">
        <ele>106.0</ele>
        <time>2011-06-25T13:09:42Z</time>
      </trkpt>
      <trkpt lat="43.372960" lon="-8.398243">
        <ele>106.0</ele>
        <time>2011-06-25T13:09:43Z</time>
      </trkpt>
      <trkpt lat="43.372962" lon="-8.398247">
        <ele>104.0</ele>
        <time>2011-06-25T13:09:44Z</time>
      </trkpt>
      <trkpt lat="43.372963" lon="-8.398245">
        <ele>104.0</ele>
        <time>2011-06-25T13:09:45Z</time>
      </trkpt>
      <trkpt lat="43.372998" lon="-8.398253">
        <ele>104.0</ele>
        <time>2011-06-25T13:09:47Z</time>
      </trkpt>
      <trkpt lat="43.372993" lon="-8.398248">
        <ele>104.0</ele>
        <time>2011-06-25T13:09:48Z</time>
      </trkpt>
      <trkpt lat="43.373013" lon="-8.398250">
        <ele>104.0</ele>
        <time>2011-06-25T13:09:50Z</time>
      </trkpt>
      <trkpt lat="43.372995" lon="-8.398233">
        <ele>104.5</ele>
        <time>2011-06-25T13:09:51Z</time>
      </trkpt>
      <trkpt lat="43.372992" lon="-8.398227">
        <ele>104.5</ele>
        <time>2011-06-25T13:09:52Z</time>
      </trkpt>
      <trkpt lat="43.372988" lon="-8.398212">
        <ele>104.5</ele>
        <time>2011-06-25T13:09:53Z</time>
      </trkpt>
      <trkpt lat="43.372985" lon="-8.398193">
        <ele>104.5</ele>
        <time>2011-06-25T13:09:54Z</time>
      </trkpt>
      <trkpt lat="43.372957" lon="-8.398165">
        <ele>104.5</ele>
        <time>2011-06-25T13:09:56Z</time>
      </trkpt>
      <trkpt lat="43.372942" lon="-8.398152">
        <ele>104.5</ele>
        <time>2011-06-25T13:09:57Z</time>
      </trkpt>
      <trkpt lat="43.372930" lon="-8.398143">
        <ele>104.5</ele>
        <time>2011-06-25T13:09:59Z</time>
      </trkpt>
      <trkpt lat="43.372918" lon="-8.398132">
        <ele>104.0</ele>
        <time>2011-06-25T13:10:00Z</time>
      </trkpt>
      <trkpt lat="43.372903" lon="-8.398122">
        <ele>104.5</ele>
        <time>2011-06-25T13:10:01Z</time>
      </trkpt>
      <trkpt lat="43.372940" lon="-8.398140">
        <ele>104.5</ele>
        <time>2011-06-25T13:10:03Z</time>
      </trkpt>
      <trkpt lat="43.372933" lon="-8.398133">
        <ele>105.0</ele>
        <time>2011-06-25T13:10:03Z</time>
      </trkpt>
      <trkpt lat="43.372947" lon="-8.398143">
        <ele>105.0</ele>
        <time>2011-06-25T13:10:05Z</time>
      </trkpt>
      <trkpt lat="43.373005" lon="-8.398182">
        <ele>105.5</ele>
        <time>2011-06-25T13:10:07Z</time>
      </trkpt>
      <trkpt lat="43.373000" lon="-8.398178">
        <ele>105.0</ele>
        <time>2011-06-25T13:10:08Z</time>
      </trkpt>
      <trkpt lat="43.373103" lon="-8.398240">
        <ele>105.0</ele>
        <time>2011-06-25T13:10:11Z</time>
      </trkpt>
      <trkpt lat="43.373105" lon="-8.398240">
        <ele>104.0</ele>
        <time>2011-06-25T13:10:12Z</time>
      </trkpt>
      <trkpt lat="43.373105" lon="-8.398240">
        <ele>104.0</ele>
        <time>2011-06-25T13:10:12Z</time>
      </trkpt>
      <trkpt lat="43.373103" lon="-8.398240">
        <ele>104.0</ele>
        <time>2011-06-25T13:10:14Z</time>
      </trkpt>
      <trkpt lat="43.373105" lon="-8.398245">
        <ele>104.0</ele>
        <time>2011-06-25T13:10:15Z</time>
      </trkpt>
      <trkpt lat="43.373095" lon="-8.398242">
        <ele>104.0</ele>
        <time>2011-06-25T13:10:15Z</time>
      </trkpt>
      <trkpt lat="43.373080" lon="-8.398235">
        <ele>104.5</ele>
        <time>2011-06-25T13:10:16Z</time>
      </trkpt>
      <trkpt lat="43.373072" lon="-8.398232">
        <ele>104.5</ele>
        <time>2011-06-25T13:10:18Z</time>
      </trkpt>
      <trkpt lat="43.373023" lon="-8.398208">
        <ele>104.5</ele>
        <time>2011-06-25T13:10:20Z</time>
      </trkpt>
      <trkpt lat="43.373015" lon="-8.398203">
        <ele>104.5</ele>
        <time>2011-06-25T13:10:21Z</time>
      </trkpt>
      <trkpt lat="43.373015" lon="-8.398210">
        <ele>104.5</ele>
        <time>2011-06-25T13:10:21Z</time>
      </trkpt>
      <trkpt lat="43.373022" lon="-8.398223">
        <ele>104.5</ele>
        <time>2011-06-25T13:10:23Z</time>
      </trkpt>
      <trkpt lat="43.372948" lon="-8.398202">
        <ele>106.5</ele>
        <time>2011-06-25T13:10:24Z</time>
      </trkpt>
      <trkpt lat="43.372930" lon="-8.398205">
        <ele>107.5</ele>
        <time>2011-06-25T13:10:26Z</time>
      </trkpt>
      <trkpt lat="43.372928" lon="-8.398208">
        <ele>107.5</ele>
        <time>2011-06-25T13:10:27Z</time>
      </trkpt>
      <trkpt lat="43.372930" lon="-8.398222">
        <ele>108.0</ele>
        <time>2011-06-25T13:10:27Z</time>
      </trkpt>
      <trkpt lat="43.372968" lon="-8.398280">
        <ele>111.0</ele>
        <time>2011-06-25T13:10:30Z</time>
      </trkpt>
      <trkpt lat="43.373007" lon="-8.398358">
        <ele>117.5</ele>
        <time>2011-06-25T13:10:32Z</time>
      </trkpt>
      <trkpt lat="43.372990" lon="-8.398378">
        <ele>120.5</ele>
        <time>2011-06-25T13:10:34Z</time>
      </trkpt>
      <trkpt lat="43.372977" lon="-8.398367">
        <ele>120.5</ele>
        <time>2011-06-25T13:10:35Z</time>
      </trkpt>
      <trkpt lat="43.372963" lon="-8.398353">
        <ele>119.5</ele>
        <time>2011-06-25T13:10:35Z</time>
      </trkpt>
      <trkpt lat="43.372965" lon="-8.398345">
        <ele>118.0</ele>
        <time>2011-06-25T13:10:37Z</time>
      </trkpt>
      <trkpt lat="43.372963" lon="-8.398332">
        <ele>117.0</ele>
        <time>2011-06-25T13:10:38Z</time>
      </trkpt>
      <trkpt lat="43.372973" lon="-8.398330">
        <ele>116.5</ele>
        <time>2011-06-25T13:10:39Z</time>
      </trkpt>
      <trkpt lat="43.372963" lon="-8.398323">
        <ele>115.5</ele>
        <time>2011-06-25T13:10:39Z</time>
      </trkpt>
      <trkpt lat="43.372960" lon="-8.398322">
        <ele>115.5</ele>
        <time>2011-06-25T13:10:41Z</time>
      </trkpt>
      <trkpt lat="43.372958" lon="-8.398323">
        <ele>115.0</ele>
        <time>2011-06-25T13:10:42Z</time>
      </trkpt>
      <trkpt lat="43.372955" lon="-8.398313">
        <ele>113.0</ele>
        <time>2011-06-25T13:10:43Z</time>
      </trkpt>
      <trkpt lat="43.372960" lon="-8.398323">
        <ele>113.5</ele>
        <time>2011-06-25T13:10:44Z</time>
      </trkpt>
      <trkpt lat="43.372963" lon="-8.398337">
        <ele>114.5</ele>
        <time>2011-06-25T13:10:45Z</time>
      </trkpt>
      <trkpt lat="43.372977" lon="-8.398348">
        <ele>114.5</ele>
        <time>2011-06-25T13:10:46Z</time>
      </trkpt>
      <trkpt lat="43.373018" lon="-8.398360">
        <ele>112.0</ele>
        <time>2011-06-25T13:10:48Z</time>
      </trkpt>
      <trkpt lat="43.373017" lon="-8.398357">
        <ele>111.5</ele>
        <time>2011-06-25T13:10:49Z</time>
      </trkpt>
      <trkpt lat="43.373013" lon="-8.398353">
        <ele>111.5</ele>
        <time>2011-06-25T13:10:50Z</time>
      </trkpt>
      <trkpt lat="43.373015" lon="-8.398343">
        <ele>110.0</ele>
        <time>2011-06-25T13:10:51Z</time>
      </trkpt>
      <trkpt lat="43.372883" lon="-8.398282">
        <ele>112.5</ele>
        <time>2011-06-25T13:10:53Z</time>
      </trkpt>
      <trkpt lat="43.372880" lon="-8.398270">
        <ele>112.0</ele>
        <time>2011-06-25T13:10:55Z</time>
      </trkpt>
      <trkpt lat="43.372868" lon="-8.398253">
        <ele>111.5</ele>
        <time>2011-06-25T13:10:56Z</time>
      </trkpt>
      <trkpt lat="43.372865" lon="-8.398242">
        <ele>111.0</ele>
        <time>2011-06-25T13:10:57Z</time>
      </trkpt>
      <trkpt lat="43.372853" lon="-8.398230">
        <ele>110.5</ele>
        <time>2011-06-25T13:10:58Z</time>
      </trkpt>
      <trkpt lat="43.372845" lon="-8.398218">
        <ele>110.0</ele>
        <time>2011-06-25T13:10:59Z</time>
      </trkpt>
      <trkpt lat="43.372840" lon="-8.398205">
        <ele>109.5</ele>
        <time>2011-06-25T13:11:00Z</time>
      </trkpt>
      <trkpt lat="43.372845" lon="-8.398200">
        <ele>109.0</ele>
        <time>2011-06-25T13:11:01Z</time>
      </trkpt>
      <trkpt lat="43.372848" lon="-8.398195">
        <ele>108.5</ele>
        <time>2011-06-25T13:11:01Z</time>
      </trkpt>
      <trkpt lat="43.372837" lon="-8.398187">
        <ele>108.5</ele>
        <time>2011-06-25T13:11:03Z</time>
      </trkpt>
      <trkpt lat="43.372825" lon="-8.398180">
        <ele>108.5</ele>
        <time>2011-06-25T13:11:04Z</time>
      </trkpt>
      <trkpt lat="43.372762" lon="-8.398148">
        <ele>109.0</ele>
        <time>2011-06-25T13:11:06Z</time>
      </trkpt>
      <trkpt lat="43.372665" lon="-8.398100">
        <ele>109.0</ele>
        <time>2011-06-25T13:11:08Z</time>
      </trkpt>
      <trkpt lat="43.372632" lon="-8.398092">
        <ele>110.5</ele>
        <time>2011-06-25T13:11:11Z</time>
      </trkpt>
      <trkpt lat="43.372628" lon="-8.398095">
        <ele>111.5</ele>
        <time>2011-06-25T13:11:12Z</time>
      </trkpt>
      <trkpt lat="43.372622" lon="-8.398097">
        <ele>112.0</ele>
        <time>2011-06-25T13:11:12Z</time>
      </trkpt>
      <trkpt lat="43.372617" lon="-8.398095">
        <ele>112.0</ele>
        <time>2011-06-25T13:11:13Z</time>
      </trkpt>
      <trkpt lat="43.372617" lon="-8.398092">
        <ele>112.0</ele>
        <time>2011-06-25T13:11:14Z</time>
      </trkpt>
      <trkpt lat="43.372615" lon="-8.398090">
        <ele>111.5</ele>
        <time>2011-06-25T13:11:15Z</time>
      </trkpt>
      <trkpt lat="43.372625" lon="-8.398093">
        <ele>111.5</ele>
        <time>2011-06-25T13:11:17Z</time>
      </trkpt>
      <trkpt lat="43.372635" lon="-8.398092">
        <ele>110.0</ele>
        <time>2011-06-25T13:11:18Z</time>
      </trkpt>
      <trkpt lat="43.372640" lon="-8.398097">
        <ele>109.5</ele>
        <time>2011-06-25T13:11:19Z</time>
      </trkpt>
      <trkpt lat="43.372642" lon="-8.398093">
        <ele>109.5</ele>
        <time>2011-06-25T13:11:20Z</time>
      </trkpt>
      <trkpt lat="43.372677" lon="-8.398120">
        <ele>111.0</ele>
        <time>2011-06-25T13:11:21Z</time>
      </trkpt>
      <trkpt lat="43.372838" lon="-8.398260">
        <ele>123.0</ele>
        <time>2011-06-25T13:11:26Z</time>
      </trkpt>
      <trkpt lat="43.372838" lon="-8.398262">
        <ele>123.5</ele>
        <time>2011-06-25T13:11:26Z</time>
      </trkpt>
      <trkpt lat="43.372837" lon="-8.398263">
        <ele>123.5</ele>
        <time>2011-06-25T13:11:27Z</time>
      </trkpt>
      <trkpt lat="43.372840" lon="-8.398268">
        <ele>124.0</ele>
        <time>2011-06-25T13:11:29Z</time>
      </trkpt>
      <trkpt lat="43.372862" lon="-8.398278">
        <ele>122.5</ele>
        <time>2011-06-25T13:11:30Z</time>
      </trkpt>
      <trkpt lat="43.372860" lon="-8.398277">
        <ele>122.0</ele>
        <time>2011-06-25T13:11:32Z</time>
      </trkpt>
      <trkpt lat="43.372863" lon="-8.398277">
        <ele>121.5</ele>
        <time>2011-06-25T13:11:33Z</time>
      </trkpt>
      <trkpt lat="43.372868" lon="-8.398283">
        <ele>122.0</ele>
        <time>2011-06-25T13:11:34Z</time>
      </trkpt>
      <trkpt lat="43.372903" lon="-8.398327">
        <ele>127.0</ele>
        <time>2011-06-25T13:11:35Z</time>
      </trkpt>
      <trkpt lat="43.372920" lon="-8.398338">
        <ele>127.0</ele>
        <time>2011-06-25T13:11:37Z</time>
      </trkpt>
      <trkpt lat="43.372912" lon="-8.398337">
        <ele>127.5</ele>
        <time>2011-06-25T13:11:37Z</time>
      </trkpt>
      <trkpt lat="43.372900" lon="-8.398330">
        <ele>127.0</ele>
        <time>2011-06-25T13:11:39Z</time>
      </trkpt>
      <trkpt lat="43.372898" lon="-8.398330">
        <ele>127.0</ele>
        <time>2011-06-25T13:11:39Z</time>
      </trkpt>
      <trkpt lat="43.372892" lon="-8.398327">
        <ele>127.0</ele>
        <time>2011-06-25T13:11:41Z</time>
      </trkpt>
      <trkpt lat="43.372885" lon="-8.398315">
        <ele>126.0</ele>
        <time>2011-06-25T13:11:42Z</time>
      </trkpt>
      <trkpt lat="43.372877" lon="-8.398313">
        <ele>126.5</ele>
        <time>2011-06-25T13:11:43Z</time>
      </trkpt>
      <trkpt lat="43.372863" lon="-8.398302">
        <ele>126.0</ele>
        <time>2011-06-25T13:11:44Z</time>
      </trkpt>
      <trkpt lat="43.372855" lon="-8.398295">
        <ele>126.0</ele>
        <time>2011-06-25T13:11:45Z</time>
      </trkpt>
      <trkpt lat="43.372848" lon="-8.398293">
        <ele>126.0</ele>
        <time>2011-06-25T13:11:46Z</time>
      </trkpt>
      <trkpt lat="43.372843" lon="-8.398288">
        <ele>126.0</ele>
        <time>2011-06-25T13:11:47Z</time>
      </trkpt>
      <trkpt lat="43.372802" lon="-8.398270">
        <ele>126.5</ele>
        <time>2011-06-25T13:11:48Z</time>
      </trkpt>
      <trkpt lat="43.372768" lon="-8.398260">
        <ele>127.5</ele>
        <time>2011-06-25T13:11:51Z</time>
      </trkpt>
      <trkpt lat="43.372765" lon="-8.398258">
        <ele>127.5</ele>
        <time>2011-06-25T13:11:52Z</time>
      </trkpt>
      <trkpt lat="43.372733" lon="-8.398238">
        <ele>127.5</ele>
        <time>2011-06-25T13:11:54Z</time>
      </trkpt>
      <trkpt lat="43.372718" lon="-8.398230">
        <ele>127.5</ele>
        <time>2011-06-25T13:11:55Z</time>
      </trkpt>
      <trkpt lat="43.372670" lon="-8.398203">
        <ele>128.0</ele>
        <time>2011-06-25T13:11:57Z</time>
      </trkpt>
      <trkpt lat="43.372625" lon="-8.398165">
        <ele>127.0</ele>
        <time>2011-06-25T13:11:59Z</time>
      </trkpt>
      <trkpt lat="43.372620" lon="-8.398155">
        <ele>126.5</ele>
        <time>2011-06-25T13:12:00Z</time>
      </trkpt>
      <trkpt lat="43.372620" lon="-8.398145">
        <ele>125.5</ele>
        <time>2011-06-25T13:12:01Z</time>
      </trkpt>
      <trkpt lat="43.372610" lon="-8.398137">
        <ele>125.5</ele>
        <time>2011-06-25T13:12:02Z</time>
      </trkpt>
      <trkpt lat="43.372610" lon="-8.398123">
        <ele>125.0</ele>
        <time>2011-06-25T13:12:03Z</time>
      </trkpt>
      <trkpt lat="43.372595" lon="-8.398112">
        <ele>124.5</ele>
        <time>2011-06-25T13:12:04Z</time>
      </trkpt>
      <trkpt lat="43.372587" lon="-8.398105">
        <ele>124.0</ele>
        <time>2011-06-25T13:12:05Z</time>
      </trkpt>
      <trkpt lat="43.372583" lon="-8.398102">
        <ele>123.5</ele>
        <time>2011-06-25T13:12:06Z</time>
      </trkpt>
      <trkpt lat="43.372583" lon="-8.398100">
        <ele>123.5</ele>
        <time>2011-06-25T13:12:06Z</time>
      </trkpt>
      <trkpt lat="43.372582" lon="-8.398102">
        <ele>123.5</ele>
        <time>2011-06-25T13:12:08Z</time>
      </trkpt>
      <trkpt lat="43.372602" lon="-8.398077">
        <ele>120.0</ele>
        <time>2011-06-25T13:12:10Z</time>
      </trkpt>
      <trkpt lat="43.372600" lon="-8.398072">
        <ele>119.5</ele>
        <time>2011-06-25T13:12:11Z</time>
      </trkpt>
      <trkpt lat="43.372602" lon="-8.398072">
        <ele>119.0</ele>
        <time>2011-06-25T13:12:12Z</time>
      </trkpt>
      <trkpt lat="43.372600" lon="-8.398072">
        <ele>119.0</ele>
        <time>2011-06-25T13:12:13Z</time>
      </trkpt>
      <trkpt lat="43.372608" lon="-8.398077">
        <ele>119.0</ele>
        <time>2011-06-25T13:12:14Z</time>
      </trkpt>
      <trkpt lat="43.372613" lon="-8.398080">
        <ele>119.0</ele>
        <time>2011-06-25T13:12:14Z</time>
      </trkpt>
      <trkpt lat="43.372622" lon="-8.398087">
        <ele>119.0</ele>
        <time>2011-06-25T13:12:16Z</time>
      </trkpt>
      <trkpt lat="43.372622" lon="-8.398087">
        <ele>118.5</ele>
        <time>2011-06-25T13:12:17Z</time>
      </trkpt>
      <trkpt lat="43.372628" lon="-8.398090">
        <ele>118.5</ele>
        <time>2011-06-25T13:12:18Z</time>
      </trkpt>
      <trkpt lat="43.372622" lon="-8.398083">
        <ele>118.5</ele>
        <time>2011-06-25T13:12:19Z</time>
      </trkpt>
      <trkpt lat="43.372597" lon="-8.398040">
        <ele>114.5</ele>
        <time>2011-06-25T13:12:21Z</time>
      </trkpt>
      <trkpt lat="43.372600" lon="-8.398043">
        <ele>114.5</ele>
        <time>2011-06-25T13:12:22Z</time>
      </trkpt>
      <trkpt lat="43.372598" lon="-8.398040">
        <ele>114.0</ele>
        <time>2011-06-25T13:12:23Z</time>
      </trkpt>
      <trkpt lat="43.372565" lon="-8.398002">
        <ele>111.0</ele>
        <time>2011-06-25T13:12:25Z</time>
      </trkpt>
      <trkpt lat="43.372565" lon="-8.398002">
        <ele>111.0</ele>
        <time>2011-06-25T13:12:25Z</time>
      </trkpt>
      <trkpt lat="43.372568" lon="-8.398003">
        <ele>111.0</ele>
        <time>2011-06-25T13:12:26Z</time>
      </trkpt>
      <trkpt lat="43.372568" lon="-8.398005">
        <ele>111.0</ele>
        <time>2011-06-25T13:12:28Z</time>
      </trkpt>
      <trkpt lat="43.372565" lon="-8.398000">
        <ele>110.5</ele>
        <time>2011-06-25T13:12:29Z</time>
      </trkpt>
      <trkpt lat="43.372563" lon="-8.398012">
        <ele>110.5</ele>
        <time>2011-06-25T13:12:30Z</time>
      </trkpt>
      <trkpt lat="43.372565" lon="-8.398017">
        <ele>110.5</ele>
        <time>2011-06-25T13:12:31Z</time>
      </trkpt>
      <trkpt lat="43.372568" lon="-8.398023">
        <ele>110.5</ele>
        <time>2011-06-25T13:12:31Z</time>
      </trkpt>
      <trkpt lat="43.372577" lon="-8.398025">
        <ele>110.5</ele>
        <time>2011-06-25T13:12:32Z</time>
      </trkpt>
      <trkpt lat="43.372567" lon="-8.398025">
        <ele>111.0</ele>
        <time>2011-06-25T13:12:34Z</time>
      </trkpt>
      <trkpt lat="43.372558" lon="-8.398015">
        <ele>109.0</ele>
        <time>2011-06-25T13:12:35Z</time>
      </trkpt>
      <trkpt lat="43.372552" lon="-8.398013">
        <ele>108.5</ele>
        <time>2011-06-25T13:12:36Z</time>
      </trkpt>
      <trkpt lat="43.372567" lon="-8.398013">
        <ele>108.5</ele>
        <time>2011-06-25T13:12:37Z</time>
      </trkpt>
      <trkpt lat="43.372573" lon="-8.398012">
        <ele>108.5</ele>
        <time>2011-06-25T13:12:37Z</time>
      </trkpt>
      <trkpt lat="43.372575" lon="-8.398015">
        <ele>108.5</ele>
        <time>2011-06-25T13:12:39Z</time>
      </trkpt>
      <trkpt lat="43.372572" lon="-8.398015">
        <ele>108.0</ele>
        <time>2011-06-25T13:12:39Z</time>
      </trkpt>
      <trkpt lat="43.372567" lon="-8.398003">
        <ele>106.5</ele>
        <time>2011-06-25T13:12:41Z</time>
      </trkpt>
      <trkpt lat="43.372565" lon="-8.398005">
        <ele>106.5</ele>
        <time>2011-06-25T13:12:41Z</time>
      </trkpt>
      <trkpt lat="43.372565" lon="-8.398005">
        <ele>106.5</ele>
        <time>2011-06-25T13:12:43Z</time>
      </trkpt>
      <trkpt lat="43.372568" lon="-8.398008">
        <ele>106.5</ele>
        <time>2011-06-25T13:12:44Z</time>
      </trkpt>
      <trkpt lat="43.372575" lon="-8.398012">
        <ele>106.5</ele>
        <time>2011-06-25T13:12:45Z</time>
      </trkpt>
      <trkpt lat="43.372578" lon="-8.398017">
        <ele>106.0</ele>
        <time>2011-06-25T13:12:46Z</time>
      </trkpt>
      <trkpt lat="43.372580" lon="-8.398020">
        <ele>106.0</ele>
        <time>2011-06-25T13:12:47Z</time>
      </trkpt>
      <trkpt lat="43.372577" lon="-8.398020">
        <ele>105.5</ele>
        <time>2011-06-25T13:12:48Z</time>
      </trkpt>
      <trkpt lat="43.372585" lon="-8.398022">
        <ele>105.5</ele>
        <time>2011-06-25T13:12:49Z</time>
      </trkpt>
      <trkpt lat="43.372587" lon="-8.398025">
        <ele>105.5</ele>
        <time>2011-06-25T13:12:50Z</time>
      </trkpt>
      <trkpt lat="43.372587" lon="-8.398025">
        <ele>105.5</ele>
        <time>2011-06-25T13:12:51Z</time>
      </trkpt>
      <trkpt lat="43.372587" lon="-8.398025">
        <ele>105.0</ele>
        <time>2011-06-25T13:12:52Z</time>
      </trkpt>
      <trkpt lat="43.372592" lon="-8.398023">
        <ele>105.0</ele>
        <time>2011-06-25T13:12:53Z</time>
      </trkpt>
      <trkpt lat="43.372590" lon="-8.398025">
        <ele>105.0</ele>
        <time>2011-06-25T13:12:54Z</time>
      </trkpt>
      <trkpt lat="43.372613" lon="-8.398025">
        <ele>105.0</ele>
        <time>2011-06-25T13:12:56Z</time>
      </trkpt>
      <trkpt lat="43.372613" lon="-8.398023">
        <ele>104.5</ele>
        <time>2011-06-25T13:12:57Z</time>
      </trkpt>
      <trkpt lat="43.372615" lon="-8.398023">
        <ele>104.5</ele>
        <time>2011-06-25T13:12:58Z</time>
      </trkpt>
      <trkpt lat="43.372622" lon="-8.398023">
        <ele>104.5</ele>
        <time>2011-06-25T13:12:59Z</time>
      </trkpt>
    </trkseg>
  </trk>
  <trk>
    <name>T2067676-28</name>
    <cmt>saida con compañeiros do C.C.Arteixo polos arredores da Coruña</cmt>
    <desc>saida con compañeiros do C.C.Arteixo polos arredores da Coruña</desc>
    <trkseg>
      <trkpt lat="43.372618" lon="-8.398020">
        <ele>104.0</ele>
        <time>2011-06-25T13:13:00Z</time>
      </trkpt>
      <trkpt lat="43.372622" lon="-8.398020">
        <ele>104.0</ele>
        <time>2011-06-25T13:13:01Z</time>
      </trkpt>
      <trkpt lat="43.372622" lon="-8.398020">
        <ele>103.5</ele>
        <time>2011-06-25T13:13:02Z</time>
      </trkpt>
      <trkpt lat="43.372625" lon="-8.398020">
        <ele>103.5</ele>
        <time>2011-06-25T13:13:03Z</time>
      </trkpt>
      <trkpt lat="43.372628" lon="-8.398027">
        <ele>103.5</ele>
        <time>2011-06-25T13:13:04Z</time>
      </trkpt>
      <trkpt lat="43.372623" lon="-8.398022">
        <ele>103.0</ele>
        <time>2011-06-25T13:13:05Z</time>
      </trkpt>
      <trkpt lat="43.372617" lon="-8.398015">
        <ele>103.0</ele>
        <time>2011-06-25T13:13:06Z</time>
      </trkpt>
      <trkpt lat="43.372620" lon="-8.398013">
        <ele>103.0</ele>
        <time>2011-06-25T13:13:07Z</time>
      </trkpt>
      <trkpt lat="43.372618" lon="-8.398015">
        <ele>102.5</ele>
        <time>2011-06-25T13:13:08Z</time>
      </trkpt>
      <trkpt lat="43.372612" lon="-8.398010">
        <ele>102.5</ele>
        <time>2011-06-25T13:13:09Z</time>
      </trkpt>
      <trkpt lat="43.372612" lon="-8.398007">
        <ele>102.0</ele>
        <time>2011-06-25T13:13:10Z</time>
      </trkpt>
      <trkpt lat="43.372600" lon="-8.398002">
        <ele>102.0</ele>
        <time>2011-06-25T13:13:11Z</time>
      </trkpt>
      <trkpt lat="43.372610" lon="-8.398008">
        <ele>102.0</ele>
        <time>2011-06-25T13:13:12Z</time>
      </trkpt>
      <trkpt lat="43.372622" lon="-8.398008">
        <ele>102.0</ele>
        <time>2011-06-25T13:13:13Z</time>
      </trkpt>
      <trkpt lat="43.372637" lon="-8.398013">
        <ele>101.5</ele>
        <time>2011-06-25T13:13:14Z</time>
      </trkpt>
      <trkpt lat="43.372625" lon="-8.398012">
        <ele>101.5</ele>
        <time>2011-06-25T13:13:15Z</time>
      </trkpt>
      <trkpt lat="43.372625" lon="-8.398017">
        <ele>101.5</ele>
        <time>2011-06-25T13:13:15Z</time>
      </trkpt>
      <trkpt lat="43.372638" lon="-8.398018">
        <ele>101.5</ele>
        <time>2011-06-25T13:13:18Z</time>
      </trkpt>
      <trkpt lat="43.372680" lon="-8.398053">
        <ele>101.0</ele>
        <time>2011-06-25T13:13:20Z</time>
      </trkpt>
      <trkpt lat="43.372697" lon="-8.398067">
        <ele>101.0</ele>
        <time>2011-06-25T13:13:21Z</time>
      </trkpt>
      <trkpt lat="43.372697" lon="-8.398068">
        <ele>101.5</ele>
        <time>2011-06-25T13:13:22Z</time>
      </trkpt>
      <trkpt lat="43.372715" lon="-8.398093">
        <ele>101.5</ele>
        <time>2011-06-25T13:13:24Z</time>
      </trkpt>
      <trkpt lat="43.372730" lon="-8.398103">
        <ele>102.0</ele>
        <time>2011-06-25T13:13:25Z</time>
      </trkpt>
      <trkpt lat="43.372730" lon="-8.398100">
        <ele>102.0</ele>
        <time>2011-06-25T13:13:26Z</time>
      </trkpt>
      <trkpt lat="43.372743" lon="-8.398095">
        <ele>101.5</ele>
        <time>2011-06-25T13:13:27Z</time>
      </trkpt>
      <trkpt lat="43.372822" lon="-8.398120">
        <ele>101.5</ele>
        <time>2011-06-25T13:13:30Z</time>
      </trkpt>
      <trkpt lat="43.372837" lon="-8.398120">
        <ele>101.5</ele>
        <time>2011-06-25T13:13:31Z</time>
      </trkpt>
      <trkpt lat="43.372863" lon="-8.398133">
        <ele>101.5</ele>
        <time>2011-06-25T13:13:33Z</time>
      </trkpt>
      <trkpt lat="43.372877" lon="-8.398147">
        <ele>101.5</ele>
        <time>2011-06-25T13:13:34Z</time>
      </trkpt>
      <trkpt lat="43.372883" lon="-8.398145">
        <ele>100.5</ele>
        <time>2011-06-25T13:13:35Z</time>
      </trkpt>
      <trkpt lat="43.372882" lon="-8.398147">
        <ele>100.5</ele>
        <time>2011-06-25T13:13:36Z</time>
      </trkpt>
      <trkpt lat="43.372887" lon="-8.398157">
        <ele>100.5</ele>
        <time>2011-06-25T13:13:37Z</time>
      </trkpt>
      <trkpt lat="43.372902" lon="-8.398168">
        <ele>100.5</ele>
        <time>2011-06-25T13:13:38Z</time>
      </trkpt>
      <trkpt lat="43.372918" lon="-8.398178">
        <ele>100.5</ele>
        <time>2011-06-25T13:13:39Z</time>
      </trkpt>
      <trkpt lat="43.372932" lon="-8.398187">
        <ele>100.5</ele>
        <time>2011-06-25T13:13:41Z</time>
      </trkpt>
      <trkpt lat="43.372940" lon="-8.398193">
        <ele>100.0</ele>
        <time>2011-06-25T13:13:42Z</time>
      </trkpt>
      <trkpt lat="43.372973" lon="-8.398230">
        <ele>101.0</ele>
        <time>2011-06-25T13:13:44Z</time>
      </trkpt>
      <trkpt lat="43.372968" lon="-8.398230">
        <ele>101.0</ele>
        <time>2011-06-25T13:13:45Z</time>
      </trkpt>
      <trkpt lat="43.372908" lon="-8.398210">
        <ele>102.0</ele>
        <time>2011-06-25T13:13:47Z</time>
      </trkpt>
      <trkpt lat="43.372892" lon="-8.398202">
        <ele>102.0</ele>
        <time>2011-06-25T13:13:47Z</time>
      </trkpt>
      <trkpt lat="43.372870" lon="-8.398190">
        <ele>101.5</ele>
        <time>2011-06-25T13:13:49Z</time>
      </trkpt>
      <trkpt lat="43.372860" lon="-8.398185">
        <ele>102.0</ele>
        <time>2011-06-25T13:13:50Z</time>
      </trkpt>
      <trkpt lat="43.372822" lon="-8.398170">
        <ele>104.0</ele>
        <time>2011-06-25T13:13:52Z</time>
      </trkpt>
      <trkpt lat="43.372812" lon="-8.398168">
        <ele>104.0</ele>
        <time>2011-06-25T13:13:53Z</time>
      </trkpt>
      <trkpt lat="43.372793" lon="-8.398162">
        <ele>104.5</ele>
        <time>2011-06-25T13:13:54Z</time>
      </trkpt>
      <trkpt lat="43.372775" lon="-8.398157">
        <ele>106.0</ele>
        <time>2011-06-25T13:13:55Z</time>
      </trkpt>
      <trkpt lat="43.372750" lon="-8.398152">
        <ele>107.0</ele>
        <time>2011-06-25T13:13:56Z</time>
      </trkpt>
      <trkpt lat="43.372733" lon="-8.398148">
        <ele>107.5</ele>
        <time>2011-06-25T13:13:57Z</time>
      </trkpt>
      <trkpt lat="43.372723" lon="-8.398143">
        <ele>107.5</ele>
        <time>2011-06-25T13:13:58Z</time>
      </trkpt>
      <trkpt lat="43.372707" lon="-8.398130">
        <ele>107.0</ele>
        <time>2011-06-25T13:13:59Z</time>
      </trkpt>
      <trkpt lat="43.372678" lon="-8.398110">
        <ele>106.5</ele>
        <time>2011-06-25T13:14:01Z</time>
      </trkpt>
      <trkpt lat="43.372667" lon="-8.398100">
        <ele>106.5</ele>
        <time>2011-06-25T13:14:02Z</time>
      </trkpt>
      <trkpt lat="43.372662" lon="-8.398095">
        <ele>106.0</ele>
        <time>2011-06-25T13:14:03Z</time>
      </trkpt>
      <trkpt lat="43.372603" lon="-8.398068">
        <ele>107.5</ele>
        <time>2011-06-25T13:14:05Z</time>
      </trkpt>
      <trkpt lat="43.372573" lon="-8.398048">
        <ele>107.0</ele>
        <time>2011-06-25T13:14:07Z</time>
      </trkpt>
      <trkpt lat="43.372575" lon="-8.398050">
        <ele>107.0</ele>
        <time>2011-06-25T13:14:08Z</time>
      </trkpt>
      <trkpt lat="43.372552" lon="-8.398035">
        <ele>106.0</ele>
        <time>2011-06-25T13:14:09Z</time>
      </trkpt>
      <trkpt lat="43.372545" lon="-8.398028">
        <ele>105.5</ele>
        <time>2011-06-25T13:14:10Z</time>
      </trkpt>
      <trkpt lat="43.372547" lon="-8.398027">
        <ele>105.5</ele>
        <time>2011-06-25T13:14:11Z</time>
      </trkpt>
      <trkpt lat="43.372543" lon="-8.398027">
        <ele>105.5</ele>
        <time>2011-06-25T13:14:12Z</time>
      </trkpt>
      <trkpt lat="43.372587" lon="-8.398047">
        <ele>105.0</ele>
        <time>2011-06-25T13:14:14Z</time>
      </trkpt>
      <trkpt lat="43.372587" lon="-8.398047">
        <ele>105.0</ele>
        <time>2011-06-25T13:14:15Z</time>
      </trkpt>
      <trkpt lat="43.372647" lon="-8.398092">
        <ele>106.0</ele>
        <time>2011-06-25T13:14:17Z</time>
      </trkpt>
      <trkpt lat="43.372750" lon="-8.398142">
        <ele>104.5</ele>
        <time>2011-06-25T13:14:20Z</time>
      </trkpt>
      <trkpt lat="43.372752" lon="-8.398140">
        <ele>104.0</ele>
        <time>2011-06-25T13:14:21Z</time>
      </trkpt>
      <trkpt lat="43.372750" lon="-8.398140">
        <ele>104.0</ele>
        <time>2011-06-25T13:14:23Z</time>
      </trkpt>
      <trkpt lat="43.372748" lon="-8.398137">
        <ele>104.0</ele>
        <time>2011-06-25T13:14:24Z</time>
      </trkpt>
      <trkpt lat="43.372752" lon="-8.398133">
        <ele>103.5</ele>
        <time>2011-06-25T13:14:25Z</time>
      </trkpt>
      <trkpt lat="43.372740" lon="-8.398127">
        <ele>103.5</ele>
        <time>2011-06-25T13:14:26Z</time>
      </trkpt>
      <trkpt lat="43.372732" lon="-8.398123">
        <ele>104.0</ele>
        <time>2011-06-25T13:14:27Z</time>
      </trkpt>
      <trkpt lat="43.372728" lon="-8.398122">
        <ele>104.0</ele>
        <time>2011-06-25T13:14:28Z</time>
      </trkpt>
      <trkpt lat="43.372717" lon="-8.398117">
        <ele>104.5</ele>
        <time>2011-06-25T13:14:29Z</time>
      </trkpt>
      <trkpt lat="43.372712" lon="-8.398115">
        <ele>104.5</ele>
        <time>2011-06-25T13:14:30Z</time>
      </trkpt>
      <trkpt lat="43.372710" lon="-8.398113">
        <ele>103.5</ele>
        <time>2011-06-25T13:14:31Z</time>
      </trkpt>
      <trkpt lat="43.372692" lon="-8.398102">
        <ele>103.0</ele>
        <time>2011-06-25T13:14:32Z</time>
      </trkpt>
      <trkpt lat="43.372640" lon="-8.398067">
        <ele>102.0</ele>
        <time>2011-06-25T13:14:34Z</time>
      </trkpt>
      <trkpt lat="43.372598" lon="-8.398037">
        <ele>101.0</ele>
        <time>2011-06-25T13:14:36Z</time>
      </trkpt>
      <trkpt lat="43.372600" lon="-8.398037">
        <ele>101.0</ele>
        <time>2011-06-25T13:14:37Z</time>
      </trkpt>
      <trkpt lat="43.372603" lon="-8.398037">
        <ele>100.5</ele>
        <time>2011-06-25T13:14:37Z</time>
      </trkpt>
      <trkpt lat="43.372608" lon="-8.398037">
        <ele>100.5</ele>
        <time>2011-06-25T13:14:39Z</time>
      </trkpt>
      <trkpt lat="43.372618" lon="-8.398033">
        <ele>99.0</ele>
        <time>2011-06-25T13:14:40Z</time>
      </trkpt>
      <trkpt lat="43.372627" lon="-8.398032">
        <ele>98.0</ele>
        <time>2011-06-25T13:14:41Z</time>
      </trkpt>
      <trkpt lat="43.372627" lon="-8.398032">
        <ele>97.5</ele>
        <time>2011-06-25T13:14:42Z</time>
      </trkpt>
      <trkpt lat="43.372633" lon="-8.398030">
        <ele>97.0</ele>
        <time>2011-06-25T13:14:42Z</time>
      </trkpt>
      <trkpt lat="43.372635" lon="-8.398032">
        <ele>97.0</ele>
        <time>2011-06-25T13:14:44Z</time>
      </trkpt>
      <trkpt lat="43.372647" lon="-8.398033">
        <ele>96.5</ele>
        <time>2011-06-25T13:14:44Z</time>
      </trkpt>
      <trkpt lat="43.372655" lon="-8.398032">
        <ele>96.0</ele>
        <time>2011-06-25T13:14:46Z</time>
      </trkpt>
      <trkpt lat="43.372657" lon="-8.398032">
        <ele>96.0</ele>
        <time>2011-06-25T13:14:47Z</time>
      </trkpt>
      <trkpt lat="43.372657" lon="-8.398030">
        <ele>95.5</ele>
        <time>2011-06-25T13:14:48Z</time>
      </trkpt>
      <trkpt lat="43.372663" lon="-8.398033">
        <ele>96.0</ele>
        <time>2011-06-25T13:14:49Z</time>
      </trkpt>
      <trkpt lat="43.372682" lon="-8.398037">
        <ele>95.5</ele>
        <time>2011-06-25T13:14:50Z</time>
      </trkpt>
      <trkpt lat="43.372675" lon="-8.398037">
        <ele>96.0</ele>
        <time>2011-06-25T13:14:51Z</time>
      </trkpt>
      <trkpt lat="43.372663" lon="-8.398038">
        <ele>96.5</ele>
        <time>2011-06-25T13:14:52Z</time>
      </trkpt>
      <trkpt lat="43.372653" lon="-8.398038">
        <ele>97.0</ele>
        <time>2011-06-25T13:14:53Z</time>
      </trkpt>
      <trkpt lat="43.372650" lon="-8.398038">
        <ele>97.0</ele>
        <time>2011-06-25T13:14:54Z</time>
      </trkpt>
      <trkpt lat="43.372643" lon="-8.398033">
        <ele>97.0</ele>
        <time>2011-06-25T13:14:54Z</time>
      </trkpt>
      <trkpt lat="43.372652" lon="-8.398038">
        <ele>97.5</ele>
        <time>2011-06-25T13:14:55Z</time>
      </trkpt>
      <trkpt lat="43.372663" lon="-8.398045">
        <ele>97.5</ele>
        <time>2011-06-25T13:14:57Z</time>
      </trkpt>
      <trkpt lat="43.372658" lon="-8.398042">
        <ele>97.5</ele>
        <time>2011-06-25T13:14:58Z</time>
      </trkpt>
      <trkpt lat="43.372660" lon="-8.398042">
        <ele>97.5</ele>
        <time>2011-06-25T13:14:59Z</time>
      </trkpt>
      <trkpt lat="43.372658" lon="-8.398043">
        <ele>98.5</ele>
        <time>2011-06-25T13:15:00Z</time>
      </trkpt>
      <trkpt lat="43.372653" lon="-8.398040">
        <ele>98.5</ele>
        <time>2011-06-25T13:15:01Z</time>
      </trkpt>
      <trkpt lat="43.372650" lon="-8.398037">
        <ele>98.5</ele>
        <time>2011-06-25T13:15:02Z</time>
      </trkpt>
      <trkpt lat="43.372645" lon="-8.398033">
        <ele>98.0</ele>
        <time>2011-06-25T13:15:02Z</time>
      </trkpt>
      <trkpt lat="43.372647" lon="-8.398032">
        <ele>98.0</ele>
        <time>2011-06-25T13:15:04Z</time>
      </trkpt>
      <trkpt lat="43.372648" lon="-8.398032">
        <ele>98.0</ele>
        <time>2011-06-25T13:15:04Z</time>
      </trkpt>
      <trkpt lat="43.372650" lon="-8.398032">
        <ele>98.0</ele>
        <time>2011-06-25T13:15:06Z</time>
      </trkpt>
      <trkpt lat="43.372647" lon="-8.398032">
        <ele>99.0</ele>
        <time>2011-06-25T13:15:06Z</time>
      </trkpt>
      <trkpt lat="43.372643" lon="-8.398030">
        <ele>99.0</ele>
        <time>2011-06-25T13:15:08Z</time>
      </trkpt>
      <trkpt lat="43.372653" lon="-8.398037">
        <ele>99.0</ele>
        <time>2011-06-25T13:15:09Z</time>
      </trkpt>
      <trkpt lat="43.372667" lon="-8.398043">
        <ele>99.5</ele>
        <time>2011-06-25T13:15:10Z</time>
      </trkpt>
      <trkpt lat="43.372680" lon="-8.398053">
        <ele>100.0</ele>
        <time>2011-06-25T13:15:11Z</time>
      </trkpt>
      <trkpt lat="43.372678" lon="-8.398052">
        <ele>100.0</ele>
        <time>2011-06-25T13:15:12Z</time>
      </trkpt>
      <trkpt lat="43.372678" lon="-8.398052">
        <ele>100.0</ele>
        <time>2011-06-25T13:15:13Z</time>
      </trkpt>
      <trkpt lat="43.372677" lon="-8.398052">
        <ele>100.0</ele>
        <time>2011-06-25T13:15:14Z</time>
      </trkpt>
      <trkpt lat="43.372678" lon="-8.398053">
        <ele>100.0</ele>
        <time>2011-06-25T13:15:15Z</time>
      </trkpt>
      <trkpt lat="43.372678" lon="-8.398050">
        <ele>100.0</ele>
        <time>2011-06-25T13:15:15Z</time>
      </trkpt>
      <trkpt lat="43.372675" lon="-8.398047">
        <ele>100.0</ele>
        <time>2011-06-25T13:15:17Z</time>
      </trkpt>
      <trkpt lat="43.372677" lon="-8.398047">
        <ele>100.0</ele>
        <time>2011-06-25T13:15:18Z</time>
      </trkpt>
      <trkpt lat="43.372675" lon="-8.398047">
        <ele>100.5</ele>
        <time>2011-06-25T13:15:18Z</time>
      </trkpt>
      <trkpt lat="43.372683" lon="-8.398050">
        <ele>100.0</ele>
        <time>2011-06-25T13:15:20Z</time>
      </trkpt>
      <trkpt lat="43.372688" lon="-8.398052">
        <ele>99.5</ele>
        <time>2011-06-25T13:15:21Z</time>
      </trkpt>
      <trkpt lat="43.372700" lon="-8.398058">
        <ele>99.5</ele>
        <time>2011-06-25T13:15:22Z</time>
      </trkpt>
      <trkpt lat="43.372703" lon="-8.398057">
        <ele>99.0</ele>
        <time>2011-06-25T13:15:23Z</time>
      </trkpt>
      <trkpt lat="43.372725" lon="-8.398065">
        <ele>99.0</ele>
        <time>2011-06-25T13:15:25Z</time>
      </trkpt>
      <trkpt lat="43.372727" lon="-8.398065">
        <ele>98.5</ele>
        <time>2011-06-25T13:15:26Z</time>
      </trkpt>
      <trkpt lat="43.372728" lon="-8.398065">
        <ele>98.5</ele>
        <time>2011-06-25T13:15:27Z</time>
      </trkpt>
      <trkpt lat="43.372725" lon="-8.398065">
        <ele>98.5</ele>
        <time>2011-06-25T13:15:28Z</time>
      </trkpt>
      <trkpt lat="43.372722" lon="-8.398065">
        <ele>98.5</ele>
        <time>2011-06-25T13:15:29Z</time>
      </trkpt>
      <trkpt lat="43.372718" lon="-8.398062">
        <ele>98.0</ele>
        <time>2011-06-25T13:15:30Z</time>
      </trkpt>
      <trkpt lat="43.372718" lon="-8.398062">
        <ele>97.5</ele>
        <time>2011-06-25T13:15:31Z</time>
      </trkpt>
      <trkpt lat="43.372717" lon="-8.398060">
        <ele>97.5</ele>
        <time>2011-06-25T13:15:32Z</time>
      </trkpt>
      <trkpt lat="43.372718" lon="-8.398062">
        <ele>97.5</ele>
        <time>2011-06-25T13:15:33Z</time>
      </trkpt>
      <trkpt lat="43.372713" lon="-8.398057">
        <ele>97.0</ele>
        <time>2011-06-25T13:15:34Z</time>
      </trkpt>
      <trkpt lat="43.372712" lon="-8.398057">
        <ele>96.5</ele>
        <time>2011-06-25T13:15:35Z</time>
      </trkpt>
      <trkpt lat="43.372710" lon="-8.398058">
        <ele>97.0</ele>
        <time>2011-06-25T13:15:36Z</time>
      </trkpt>
      <trkpt lat="43.372708" lon="-8.398057">
        <ele>96.5</ele>
        <time>2011-06-25T13:15:37Z</time>
      </trkpt>
      <trkpt lat="43.372688" lon="-8.398040">
        <ele>95.5</ele>
        <time>2011-06-25T13:15:39Z</time>
      </trkpt>
      <trkpt lat="43.372687" lon="-8.398040">
        <ele>95.5</ele>
        <time>2011-06-25T13:15:40Z</time>
      </trkpt>
      <trkpt lat="43.372675" lon="-8.398030">
        <ele>95.0</ele>
        <time>2011-06-25T13:15:41Z</time>
      </trkpt>
      <trkpt lat="43.372660" lon="-8.398020">
        <ele>94.5</ele>
        <time>2011-06-25T13:15:42Z</time>
      </trkpt>
      <trkpt lat="43.372637" lon="-8.398005">
        <ele>94.0</ele>
        <time>2011-06-25T13:15:44Z</time>
      </trkpt>
      <trkpt lat="43.372632" lon="-8.398000">
        <ele>94.0</ele>
        <time>2011-06-25T13:15:45Z</time>
      </trkpt>
      <trkpt lat="43.372630" lon="-8.397997">
        <ele>93.5</ele>
        <time>2011-06-25T13:15:46Z</time>
      </trkpt>
      <trkpt lat="43.372638" lon="-8.397997">
        <ele>92.5</ele>
        <time>2011-06-25T13:15:47Z</time>
      </trkpt>
      <trkpt lat="43.372643" lon="-8.397997">
        <ele>92.0</ele>
        <time>2011-06-25T13:15:48Z</time>
      </trkpt>
      <trkpt lat="43.372638" lon="-8.397988">
        <ele>91.5</ele>
        <time>2011-06-25T13:15:49Z</time>
      </trkpt>
      <trkpt lat="43.372647" lon="-8.397988">
        <ele>91.0</ele>
        <time>2011-06-25T13:15:50Z</time>
      </trkpt>
      <trkpt lat="43.372653" lon="-8.397987">
        <ele>90.0</ele>
        <time>2011-06-25T13:15:51Z</time>
      </trkpt>
      <trkpt lat="43.372648" lon="-8.397987">
        <ele>89.5</ele>
        <time>2011-06-25T13:15:52Z</time>
      </trkpt>
      <trkpt lat="43.372645" lon="-8.397985">
        <ele>89.0</ele>
        <time>2011-06-25T13:15:53Z</time>
      </trkpt>
      <trkpt lat="43.372643" lon="-8.397983">
        <ele>89.0</ele>
        <time>2011-06-25T13:15:54Z</time>
      </trkpt>
      <trkpt lat="43.372647" lon="-8.397982">
        <ele>88.5</ele>
        <time>2011-06-25T13:15:55Z</time>
      </trkpt>
      <trkpt lat="43.372645" lon="-8.397982">
        <ele>88.0</ele>
        <time>2011-06-25T13:15:56Z</time>
      </trkpt>
      <trkpt lat="43.372640" lon="-8.397978">
        <ele>88.0</ele>
        <time>2011-06-25T13:15:57Z</time>
      </trkpt>
      <trkpt lat="43.372637" lon="-8.397980">
        <ele>88.5</ele>
        <time>2011-06-25T13:15:58Z</time>
      </trkpt>
      <trkpt lat="43.372635" lon="-8.397983">
        <ele>89.0</ele>
        <time>2011-06-25T13:15:59Z</time>
      </trkpt>
      <trkpt lat="43.372635" lon="-8.397982">
        <ele>89.0</ele>
        <time>2011-06-25T13:16:00Z</time>
      </trkpt>
      <trkpt lat="43.372633" lon="-8.397980">
        <ele>89.0</ele>
        <time>2011-06-25T13:16:01Z</time>
      </trkpt>
      <trkpt lat="43.372630" lon="-8.397978">
        <ele>88.5</ele>
        <time>2011-06-25T13:16:02Z</time>
      </trkpt>
      <trkpt lat="43.372632" lon="-8.397978">
        <ele>88.5</ele>
        <time>2011-06-25T13:16:02Z</time>
      </trkpt>
      <trkpt lat="43.372632" lon="-8.397978">
        <ele>88.5</ele>
        <time>2011-06-25T13:16:03Z</time>
      </trkpt>
      <trkpt lat="43.372630" lon="-8.397977">
        <ele>89.0</ele>
        <time>2011-06-25T13:16:05Z</time>
      </trkpt>
      <trkpt lat="43.372630" lon="-8.397977">
        <ele>89.0</ele>
        <time>2011-06-25T13:16:06Z</time>
      </trkpt>
      <trkpt lat="43.372628" lon="-8.397978">
        <ele>89.0</ele>
        <time>2011-06-25T13:16:07Z</time>
      </trkpt>
      <trkpt lat="43.372630" lon="-8.397980">
        <ele>89.0</ele>
        <time>2011-06-25T13:16:08Z</time>
      </trkpt>
      <trkpt lat="43.372632" lon="-8.397980">
        <ele>89.0</ele>
        <time>2011-06-25T13:16:09Z</time>
      </trkpt>
      <trkpt lat="43.372632" lon="-8.397980">
        <ele>88.5</ele>
        <time>2011-06-25T13:16:10Z</time>
      </trkpt>
      <trkpt lat="43.372630" lon="-8.397982">
        <ele>88.5</ele>
        <time>2011-06-25T13:16:11Z</time>
      </trkpt>
      <trkpt lat="43.372630" lon="-8.397983">
        <ele>89.0</ele>
        <time>2011-06-25T13:16:12Z</time>
      </trkpt>
      <trkpt lat="43.372630" lon="-8.397983">
        <ele>89.0</ele>
        <time>2011-06-25T13:16:13Z</time>
      </trkpt>
      <trkpt lat="43.372623" lon="-8.397985">
        <ele>89.5</ele>
        <time>2011-06-25T13:16:14Z</time>
      </trkpt>
      <trkpt lat="43.372622" lon="-8.397987">
        <ele>89.5</ele>
        <time>2011-06-25T13:16:15Z</time>
      </trkpt>
      <trkpt lat="43.372623" lon="-8.397990">
        <ele>89.5</ele>
        <time>2011-06-25T13:16:16Z</time>
      </trkpt>
      <trkpt lat="43.372628" lon="-8.397992">
        <ele>90.0</ele>
        <time>2011-06-25T13:16:17Z</time>
      </trkpt>
      <trkpt lat="43.372625" lon="-8.397995">
        <ele>90.5</ele>
        <time>2011-06-25T13:16:18Z</time>
      </trkpt>
      <trkpt lat="43.372628" lon="-8.397998">
        <ele>91.0</ele>
        <time>2011-06-25T13:16:19Z</time>
      </trkpt>
      <trkpt lat="43.372642" lon="-8.398000">
        <ele>91.0</ele>
        <time>2011-06-25T13:16:20Z</time>
      </trkpt>
      <trkpt lat="43.372645" lon="-8.398002">
        <ele>91.0</ele>
        <time>2011-06-25T13:16:20Z</time>
      </trkpt>
      <trkpt lat="43.372642" lon="-8.398005">
        <ele>91.0</ele>
        <time>2011-06-25T13:16:22Z</time>
      </trkpt>
      <trkpt lat="43.372645" lon="-8.398007">
        <ele>91.0</ele>
        <time>2011-06-25T13:16:23Z</time>
      </trkpt>
      <trkpt lat="43.372645" lon="-8.398010">
        <ele>91.5</ele>
        <time>2011-06-25T13:16:24Z</time>
      </trkpt>
      <trkpt lat="43.372663" lon="-8.398012">
        <ele>91.5</ele>
        <time>2011-06-25T13:16:24Z</time>
      </trkpt>
      <trkpt lat="43.372658" lon="-8.398015">
        <ele>91.5</ele>
        <time>2011-06-25T13:16:25Z</time>
      </trkpt>
      <trkpt lat="43.372657" lon="-8.398017">
        <ele>91.5</ele>
        <time>2011-06-25T13:16:27Z</time>
      </trkpt>
      <trkpt lat="43.372662" lon="-8.398017">
        <ele>91.5</ele>
        <time>2011-06-25T13:16:27Z</time>
      </trkpt>
      <trkpt lat="43.372673" lon="-8.398017">
        <ele>91.5</ele>
        <time>2011-06-25T13:16:29Z</time>
      </trkpt>
      <trkpt lat="43.372697" lon="-8.398017">
        <ele>91.5</ele>
        <time>2011-06-25T13:16:30Z</time>
      </trkpt>
      <trkpt lat="43.372712" lon="-8.398018">
        <ele>91.5</ele>
        <time>2011-06-25T13:16:32Z</time>
      </trkpt>
      <trkpt lat="43.372687" lon="-8.398020">
        <ele>92.0</ele>
        <time>2011-06-25T13:16:33Z</time>
      </trkpt>
      <trkpt lat="43.372678" lon="-8.398022">
        <ele>92.5</ele>
        <time>2011-06-25T13:16:33Z</time>
      </trkpt>
      <trkpt lat="43.372668" lon="-8.398023">
        <ele>92.5</ele>
        <time>2011-06-25T13:16:35Z</time>
      </trkpt>
      <trkpt lat="43.372668" lon="-8.398025">
        <ele>92.5</ele>
        <time>2011-06-25T13:16:36Z</time>
      </trkpt>
      <trkpt lat="43.372668" lon="-8.398025">
        <ele>92.5</ele>
        <time>2011-06-25T13:16:37Z</time>
      </trkpt>
      <trkpt lat="43.372663" lon="-8.398023">
        <ele>92.0</ele>
        <time>2011-06-25T13:16:38Z</time>
      </trkpt>
      <trkpt lat="43.372658" lon="-8.398025">
        <ele>92.0</ele>
        <time>2011-06-25T13:16:39Z</time>
      </trkpt>
      <trkpt lat="43.372655" lon="-8.398027">
        <ele>92.0</ele>
        <time>2011-06-25T13:16:39Z</time>
      </trkpt>
      <trkpt lat="43.372647" lon="-8.398028">
        <ele>92.0</ele>
        <time>2011-06-25T13:16:40Z</time>
      </trkpt>
      <trkpt lat="43.372648" lon="-8.398028">
        <ele>92.0</ele>
        <time>2011-06-25T13:16:42Z</time>
      </trkpt>
      <trkpt lat="43.372642" lon="-8.398030">
        <ele>92.5</ele>
        <time>2011-06-25T13:16:43Z</time>
      </trkpt>
      <trkpt lat="43.372642" lon="-8.398030">
        <ele>92.5</ele>
        <time>2011-06-25T13:16:44Z</time>
      </trkpt>
      <trkpt lat="43.372640" lon="-8.398032">
        <ele>92.5</ele>
        <time>2011-06-25T13:16:45Z</time>
      </trkpt>
      <trkpt lat="43.372640" lon="-8.398032">
        <ele>92.5</ele>
        <time>2011-06-25T13:16:46Z</time>
      </trkpt>
      <trkpt lat="43.372637" lon="-8.398032">
        <ele>92.5</ele>
        <time>2011-06-25T13:16:47Z</time>
      </trkpt>
      <trkpt lat="43.372633" lon="-8.398033">
        <ele>92.5</ele>
        <time>2011-06-25T13:16:47Z</time>
      </trkpt>
      <trkpt lat="43.372630" lon="-8.398033">
        <ele>92.5</ele>
        <time>2011-06-25T13:16:48Z</time>
      </trkpt>
      <trkpt lat="43.372623" lon="-8.398035">
        <ele>93.0</ele>
        <time>2011-06-25T13:16:50Z</time>
      </trkpt>
      <trkpt lat="43.372618" lon="-8.398035">
        <ele>93.0</ele>
        <time>2011-06-25T13:16:51Z</time>
      </trkpt>
      <trkpt lat="43.372610" lon="-8.398038">
        <ele>92.5</ele>
        <time>2011-06-25T13:16:52Z</time>
      </trkpt>
      <trkpt lat="43.372603" lon="-8.398038">
        <ele>92.5</ele>
        <time>2011-06-25T13:16:53Z</time>
      </trkpt>
      <trkpt lat="43.372608" lon="-8.398042">
        <ele>92.5</ele>
        <time>2011-06-25T13:16:54Z</time>
      </trkpt>
      <trkpt lat="43.372627" lon="-8.398055">
        <ele>93.0</ele>
        <time>2011-06-25T13:16:56Z</time>
      </trkpt>
      <trkpt lat="43.372612" lon="-8.398055">
        <ele>93.0</ele>
        <time>2011-06-25T13:16:57Z</time>
      </trkpt>
      <trkpt lat="43.372613" lon="-8.398058">
        <ele>93.0</ele>
        <time>2011-06-25T13:16:57Z</time>
      </trkpt>
      <trkpt lat="43.372618" lon="-8.398062">
        <ele>93.0</ele>
        <time>2011-06-25T13:16:59Z</time>
      </trkpt>
      <trkpt lat="43.372637" lon="-8.398072">
        <ele>93.0</ele>
        <time>2011-06-25T13:16:59Z</time>
      </trkpt>
      <trkpt lat="43.372613" lon="-8.398060">
        <ele>93.0</ele>
        <time>2011-06-25T13:17:01Z</time>
      </trkpt>
      <trkpt lat="43.372600" lon="-8.398053">
        <ele>93.0</ele>
        <time>2011-06-25T13:17:01Z</time>
      </trkpt>
      <trkpt lat="43.372605" lon="-8.398055">
        <ele>93.0</ele>
        <time>2011-06-25T13:17:03Z</time>
      </trkpt>
      <trkpt lat="43.372602" lon="-8.398055">
        <ele>93.5</ele>
        <time>2011-06-25T13:17:03Z</time>
      </trkpt>
      <trkpt lat="43.372605" lon="-8.398055">
        <ele>93.5</ele>
        <time>2011-06-25T13:17:05Z</time>
      </trkpt>
      <trkpt lat="43.372605" lon="-8.398053">
        <ele>93.5</ele>
        <time>2011-06-25T13:17:06Z</time>
      </trkpt>
      <trkpt lat="43.372513" lon="-8.398008">
        <ele>94.0</ele>
        <time>2011-06-25T13:17:09Z</time>
      </trkpt>
      <trkpt lat="43.372502" lon="-8.398002">
        <ele>94.0</ele>
        <time>2011-06-25T13:17:10Z</time>
      </trkpt>
      <trkpt lat="43.372498" lon="-8.397998">
        <ele>94.0</ele>
        <time>2011-06-25T13:17:11Z</time>
      </trkpt>
      <trkpt lat="43.372498" lon="-8.397997">
        <ele>94.0</ele>
        <time>2011-06-25T13:17:11Z</time>
      </trkpt>
      <trkpt lat="43.372487" lon="-8.397992">
        <ele>94.5</ele>
        <time>2011-06-25T13:17:12Z</time>
      </trkpt>
      <trkpt lat="43.372487" lon="-8.397988">
        <ele>94.5</ele>
        <time>2011-06-25T13:17:14Z</time>
      </trkpt>
      <trkpt lat="43.372480" lon="-8.397982">
        <ele>94.5</ele>
        <time>2011-06-25T13:17:14Z</time>
      </trkpt>
      <trkpt lat="43.372465" lon="-8.397972">
        <ele>94.5</ele>
        <time>2011-06-25T13:17:15Z</time>
      </trkpt>
      <trkpt lat="43.372470" lon="-8.397973">
        <ele>94.5</ele>
        <time>2011-06-25T13:17:16Z</time>
      </trkpt>
      <trkpt lat="43.372473" lon="-8.397973">
        <ele>94.5</ele>
        <time>2011-06-25T13:17:18Z</time>
      </trkpt>
      <trkpt lat="43.372467" lon="-8.397970">
        <ele>94.5</ele>
        <time>2011-06-25T13:17:19Z</time>
      </trkpt>
      <trkpt lat="43.372462" lon="-8.397968">
        <ele>94.5</ele>
        <time>2011-06-25T13:17:20Z</time>
      </trkpt>
      <trkpt lat="43.372463" lon="-8.397970">
        <ele>94.5</ele>
        <time>2011-06-25T13:17:21Z</time>
      </trkpt>
      <trkpt lat="43.372477" lon="-8.397973">
        <ele>94.0</ele>
        <time>2011-06-25T13:17:22Z</time>
      </trkpt>
      <trkpt lat="43.372477" lon="-8.397973">
        <ele>94.0</ele>
        <time>2011-06-25T13:17:23Z</time>
      </trkpt>
      <trkpt lat="43.372492" lon="-8.397973">
        <ele>94.0</ele>
        <time>2011-06-25T13:17:24Z</time>
      </trkpt>
      <trkpt lat="43.372493" lon="-8.397975">
        <ele>94.0</ele>
        <time>2011-06-25T13:17:25Z</time>
      </trkpt>
      <trkpt lat="43.372498" lon="-8.397977">
        <ele>94.0</ele>
        <time>2011-06-25T13:17:26Z</time>
      </trkpt>
      <trkpt lat="43.372508" lon="-8.397983">
        <ele>94.0</ele>
        <time>2011-06-25T13:17:26Z</time>
      </trkpt>
      <trkpt lat="43.372522" lon="-8.397992">
        <ele>94.0</ele>
        <time>2011-06-25T13:17:28Z</time>
      </trkpt>
      <trkpt lat="43.372537" lon="-8.397998">
        <ele>94.0</ele>
        <time>2011-06-25T13:17:28Z</time>
      </trkpt>
      <trkpt lat="43.372537" lon="-8.397998">
        <ele>94.0</ele>
        <time>2011-06-25T13:17:30Z</time>
      </trkpt>
      <trkpt lat="43.372538" lon="-8.398000">
        <ele>93.5</ele>
        <time>2011-06-25T13:17:30Z</time>
      </trkpt>
      <trkpt lat="43.372543" lon="-8.398003">
        <ele>93.5</ele>
        <time>2011-06-25T13:17:32Z</time>
      </trkpt>
      <trkpt lat="43.372547" lon="-8.398003">
        <ele>93.5</ele>
        <time>2011-06-25T13:17:33Z</time>
      </trkpt>
      <trkpt lat="43.372548" lon="-8.398003">
        <ele>93.5</ele>
        <time>2011-06-25T13:17:33Z</time>
      </trkpt>
      <trkpt lat="43.372553" lon="-8.398003">
        <ele>93.5</ele>
        <time>2011-06-25T13:17:35Z</time>
      </trkpt>
      <trkpt lat="43.372567" lon="-8.398003">
        <ele>93.5</ele>
        <time>2011-06-25T13:17:36Z</time>
      </trkpt>
      <trkpt lat="43.372568" lon="-8.398003">
        <ele>93.5</ele>
        <time>2011-06-25T13:17:37Z</time>
      </trkpt>
      <trkpt lat="43.372575" lon="-8.398003">
        <ele>93.5</ele>
        <time>2011-06-25T13:17:38Z</time>
      </trkpt>
      <trkpt lat="43.372577" lon="-8.398005">
        <ele>93.5</ele>
        <time>2011-06-25T13:17:38Z</time>
      </trkpt>
      <trkpt lat="43.372587" lon="-8.398007">
        <ele>93.0</ele>
        <time>2011-06-25T13:17:39Z</time>
      </trkpt>
      <trkpt lat="43.372597" lon="-8.398008">
        <ele>93.0</ele>
        <time>2011-06-25T13:17:40Z</time>
      </trkpt>
      <trkpt lat="43.372605" lon="-8.398012">
        <ele>92.5</ele>
        <time>2011-06-25T13:17:42Z</time>
      </trkpt>
      <trkpt lat="43.372607" lon="-8.398012">
        <ele>92.5</ele>
        <time>2011-06-25T13:17:42Z</time>
      </trkpt>
      <trkpt lat="43.372607" lon="-8.398017">
        <ele>92.5</ele>
        <time>2011-06-25T13:17:43Z</time>
      </trkpt>
      <trkpt lat="43.372612" lon="-8.398017">
        <ele>92.5</ele>
        <time>2011-06-25T13:17:44Z</time>
      </trkpt>
      <trkpt lat="43.372615" lon="-8.398017">
        <ele>92.5</ele>
        <time>2011-06-25T13:17:46Z</time>
      </trkpt>
      <trkpt lat="43.372622" lon="-8.398017">
        <ele>92.5</ele>
        <time>2011-06-25T13:17:47Z</time>
      </trkpt>
      <trkpt lat="43.372627" lon="-8.398017">
        <ele>92.0</ele>
        <time>2011-06-25T13:17:47Z</time>
      </trkpt>
      <trkpt lat="43.372633" lon="-8.398020">
        <ele>91.5</ele>
        <time>2011-06-25T13:17:49Z</time>
      </trkpt>
      <trkpt lat="43.372633" lon="-8.398020">
        <ele>91.5</ele>
        <time>2011-06-25T13:17:50Z</time>
      </trkpt>
      <trkpt lat="43.372637" lon="-8.398020">
        <ele>91.5</ele>
        <time>2011-06-25T13:17:51Z</time>
      </trkpt>
      <trkpt lat="43.372640" lon="-8.398020">
        <ele>91.5</ele>
        <time>2011-06-25T13:17:52Z</time>
      </trkpt>
      <trkpt lat="43.372647" lon="-8.398023">
        <ele>91.0</ele>
        <time>2011-06-25T13:17:53Z</time>
      </trkpt>
      <trkpt lat="43.372647" lon="-8.398023">
        <ele>91.0</ele>
        <time>2011-06-25T13:17:54Z</time>
      </trkpt>
      <trkpt lat="43.372652" lon="-8.398028">
        <ele>91.0</ele>
        <time>2011-06-25T13:17:54Z</time>
      </trkpt>
      <trkpt lat="43.372657" lon="-8.398033">
        <ele>91.0</ele>
        <time>2011-06-25T13:17:56Z</time>
      </trkpt>
      <trkpt lat="43.372657" lon="-8.398033">
        <ele>91.0</ele>
        <time>2011-06-25T13:17:57Z</time>
      </trkpt>
      <trkpt lat="43.372663" lon="-8.398040">
        <ele>91.0</ele>
        <time>2011-06-25T13:17:58Z</time>
      </trkpt>
      <trkpt lat="43.372667" lon="-8.398045">
        <ele>91.5</ele>
        <time>2011-06-25T13:17:59Z</time>
      </trkpt>
      <trkpt lat="43.372700" lon="-8.398045">
        <ele>91.0</ele>
        <time>2011-06-25T13:18:01Z</time>
      </trkpt>
      <trkpt lat="43.372698" lon="-8.398043">
        <ele>91.0</ele>
        <time>2011-06-25T13:18:02Z</time>
      </trkpt>
      <trkpt lat="43.372698" lon="-8.398047">
        <ele>91.0</ele>
        <time>2011-06-25T13:18:03Z</time>
      </trkpt>
      <trkpt lat="43.372698" lon="-8.398048">
        <ele>91.0</ele>
        <time>2011-06-25T13:18:04Z</time>
      </trkpt>
      <trkpt lat="43.372697" lon="-8.398050">
        <ele>91.0</ele>
        <time>2011-06-25T13:18:05Z</time>
      </trkpt>
      <trkpt lat="43.372697" lon="-8.398052">
        <ele>91.0</ele>
        <time>2011-06-25T13:18:06Z</time>
      </trkpt>
      <trkpt lat="43.372697" lon="-8.398053">
        <ele>91.0</ele>
        <time>2011-06-25T13:18:06Z</time>
      </trkpt>
      <trkpt lat="43.372698" lon="-8.398055">
        <ele>91.0</ele>
        <time>2011-06-25T13:18:08Z</time>
      </trkpt>
      <trkpt lat="43.372698" lon="-8.398057">
        <ele>91.0</ele>
        <time>2011-06-25T13:18:08Z</time>
      </trkpt>
      <trkpt lat="43.372702" lon="-8.398058">
        <ele>91.0</ele>
        <time>2011-06-25T13:18:10Z</time>
      </trkpt>
      <trkpt lat="43.372707" lon="-8.398063">
        <ele>91.0</ele>
        <time>2011-06-25T13:18:10Z</time>
      </trkpt>
      <trkpt lat="43.372695" lon="-8.398057">
        <ele>91.0</ele>
        <time>2011-06-25T13:18:12Z</time>
      </trkpt>
      <trkpt lat="43.372668" lon="-8.398057">
        <ele>91.0</ele>
        <time>2011-06-25T13:18:14Z</time>
      </trkpt>
      <trkpt lat="43.372653" lon="-8.398055">
        <ele>91.5</ele>
        <time>2011-06-25T13:18:15Z</time>
      </trkpt>
      <trkpt lat="43.372637" lon="-8.398052">
        <ele>92.0</ele>
        <time>2011-06-25T13:18:16Z</time>
      </trkpt>
      <trkpt lat="43.372627" lon="-8.398047">
        <ele>92.0</ele>
        <time>2011-06-25T13:18:17Z</time>
      </trkpt>
      <trkpt lat="43.372622" lon="-8.398042">
        <ele>92.0</ele>
        <time>2011-06-25T13:18:18Z</time>
      </trkpt>
      <trkpt lat="43.372608" lon="-8.398040">
        <ele>92.5</ele>
        <time>2011-06-25T13:18:18Z</time>
      </trkpt>
      <trkpt lat="43.372598" lon="-8.398042">
        <ele>92.5</ele>
        <time>2011-06-25T13:18:20Z</time>
      </trkpt>
      <trkpt lat="43.372593" lon="-8.398043">
        <ele>93.0</ele>
        <time>2011-06-25T13:18:21Z</time>
      </trkpt>
      <trkpt lat="43.372605" lon="-8.398048">
        <ele>93.0</ele>
        <time>2011-06-25T13:18:22Z</time>
      </trkpt>
      <trkpt lat="43.372612" lon="-8.398055">
        <ele>93.0</ele>
        <time>2011-06-25T13:18:28Z</time>
      </trkpt>
      <trkpt lat="43.372613" lon="-8.398057">
        <ele>93.0</ele>
        <time>2011-06-25T13:18:29Z</time>
      </trkpt>
      <trkpt lat="43.372633" lon="-8.398065">
        <ele>93.0</ele>
        <time>2011-06-25T13:18:30Z</time>
      </trkpt>
      <trkpt lat="43.372647" lon="-8.398072">
        <ele>93.0</ele>
        <time>2011-06-25T13:18:31Z</time>
      </trkpt>
      <trkpt lat="43.372660" lon="-8.398078">
        <ele>93.0</ele>
        <time>2011-06-25T13:18:32Z</time>
      </trkpt>
      <trkpt lat="43.372675" lon="-8.398087">
        <ele>93.5</ele>
        <time>2011-06-25T13:18:33Z</time>
      </trkpt>
      <trkpt lat="43.372687" lon="-8.398093">
        <ele>94.0</ele>
        <time>2011-06-25T13:18:34Z</time>
      </trkpt>
      <trkpt lat="43.372688" lon="-8.398098">
        <ele>94.5</ele>
        <time>2011-06-25T13:18:35Z</time>
      </trkpt>
      <trkpt lat="43.372687" lon="-8.398100">
        <ele>95.0</ele>
        <time>2011-06-25T13:18:36Z</time>
      </trkpt>
      <trkpt lat="43.372688" lon="-8.398100">
        <ele>95.0</ele>
        <time>2011-06-25T13:18:37Z</time>
      </trkpt>
      <trkpt lat="43.372692" lon="-8.398102">
        <ele>95.0</ele>
        <time>2011-06-25T13:18:38Z</time>
      </trkpt>
      <trkpt lat="43.372693" lon="-8.398103">
        <ele>95.0</ele>
        <time>2011-06-25T13:18:39Z</time>
      </trkpt>
      <trkpt lat="43.372693" lon="-8.398103">
        <ele>95.5</ele>
        <time>2011-06-25T13:18:40Z</time>
      </trkpt>
      <trkpt lat="43.372693" lon="-8.398103">
        <ele>95.5</ele>
        <time>2011-06-25T13:18:41Z</time>
      </trkpt>
      <trkpt lat="43.372692" lon="-8.398103">
        <ele>95.5</ele>
        <time>2011-06-25T13:18:42Z</time>
      </trkpt>
      <trkpt lat="43.372688" lon="-8.398103">
        <ele>95.5</ele>
        <time>2011-06-25T13:18:43Z</time>
      </trkpt>
      <trkpt lat="43.372673" lon="-8.398103">
        <ele>96.0</ele>
        <time>2011-06-25T13:18:44Z</time>
      </trkpt>
      <trkpt lat="43.372672" lon="-8.398105">
        <ele>96.0</ele>
        <time>2011-06-25T13:18:45Z</time>
      </trkpt>
      <trkpt lat="43.372668" lon="-8.398105">
        <ele>96.0</ele>
        <time>2011-06-25T13:18:46Z</time>
      </trkpt>
      <trkpt lat="43.372675" lon="-8.398108">
        <ele>96.0</ele>
        <time>2011-06-25T13:18:47Z</time>
      </trkpt>
      <trkpt lat="43.372682" lon="-8.398110">
        <ele>96.0</ele>
        <time>2011-06-25T13:18:48Z</time>
      </trkpt>
      <trkpt lat="43.372695" lon="-8.398115">
        <ele>96.0</ele>
        <time>2011-06-25T13:18:49Z</time>
      </trkpt>
      <trkpt lat="43.372688" lon="-8.398113">
        <ele>96.0</ele>
        <time>2011-06-25T13:18:50Z</time>
      </trkpt>
      <trkpt lat="43.372698" lon="-8.398117">
        <ele>96.0</ele>
        <time>2011-06-25T13:18:51Z</time>
      </trkpt>
      <trkpt lat="43.372702" lon="-8.398117">
        <ele>95.5</ele>
        <time>2011-06-25T13:18:52Z</time>
      </trkpt>
      <trkpt lat="43.372707" lon="-8.398118">
        <ele>95.5</ele>
        <time>2011-06-25T13:18:53Z</time>
      </trkpt>
      <trkpt lat="43.372708" lon="-8.398120">
        <ele>95.5</ele>
        <time>2011-06-25T13:18:54Z</time>
      </trkpt>
      <trkpt lat="43.372702" lon="-8.398118">
        <ele>95.5</ele>
        <time>2011-06-25T13:18:55Z</time>
      </trkpt>
      <trkpt lat="43.372695" lon="-8.398115">
        <ele>95.5</ele>
        <time>2011-06-25T13:18:56Z</time>
      </trkpt>
      <trkpt lat="43.372725" lon="-8.398135">
        <ele>94.5</ele>
        <time>2011-06-25T13:18:58Z</time>
      </trkpt>
      <trkpt lat="43.372727" lon="-8.398135">
        <ele>94.5</ele>
        <time>2011-06-25T13:18:59Z</time>
      </trkpt>
      <trkpt lat="43.372748" lon="-8.398135">
        <ele>94.0</ele>
        <time>2011-06-25T13:19:01Z</time>
      </trkpt>
      <trkpt lat="43.372733" lon="-8.398125">
        <ele>94.0</ele>
        <time>2011-06-25T13:19:02Z</time>
      </trkpt>
      <trkpt lat="43.372717" lon="-8.398113">
        <ele>94.5</ele>
        <time>2011-06-25T13:19:03Z</time>
      </trkpt>
      <trkpt lat="43.372700" lon="-8.398100">
        <ele>94.0</ele>
        <time>2011-06-25T13:19:04Z</time>
      </trkpt>
      <trkpt lat="43.372702" lon="-8.398097">
        <ele>93.5</ele>
        <time>2011-06-25T13:19:05Z</time>
      </trkpt>
      <trkpt lat="43.372705" lon="-8.398090">
        <ele>93.0</ele>
        <time>2011-06-25T13:19:06Z</time>
      </trkpt>
      <trkpt lat="43.372702" lon="-8.398087">
        <ele>93.0</ele>
        <time>2011-06-25T13:19:07Z</time>
      </trkpt>
      <trkpt lat="43.372700" lon="-8.398082">
        <ele>93.0</ele>
        <time>2011-06-25T13:19:08Z</time>
      </trkpt>
      <trkpt lat="43.372707" lon="-8.398075">
        <ele>91.5</ele>
        <time>2011-06-25T13:19:09Z</time>
      </trkpt>
      <trkpt lat="43.372712" lon="-8.398070">
        <ele>91.0</ele>
        <time>2011-06-25T13:19:10Z</time>
      </trkpt>
      <trkpt lat="43.372718" lon="-8.398065">
        <ele>89.5</ele>
        <time>2011-06-25T13:19:11Z</time>
      </trkpt>
      <trkpt lat="43.372712" lon="-8.398060">
        <ele>89.5</ele>
        <time>2011-06-25T13:19:12Z</time>
      </trkpt>
      <trkpt lat="43.372717" lon="-8.398053">
        <ele>88.5</ele>
        <time>2011-06-25T13:19:13Z</time>
      </trkpt>
      <trkpt lat="43.372723" lon="-8.398052">
        <ele>87.5</ele>
        <time>2011-06-25T13:19:14Z</time>
      </trkpt>
      <trkpt lat="43.372730" lon="-8.398047">
        <ele>86.0</ele>
        <time>2011-06-25T13:19:15Z</time>
      </trkpt>
      <trkpt lat="43.372728" lon="-8.398042">
        <ele>86.0</ele>
        <time>2011-06-25T13:19:16Z</time>
      </trkpt>
      <trkpt lat="43.372673" lon="-8.398057">
        <ele>91.5</ele>
        <time>2011-06-25T13:19:18Z</time>
      </trkpt>
      <trkpt lat="43.372678" lon="-8.398055">
        <ele>91.5</ele>
        <time>2011-06-25T13:19:19Z</time>
      </trkpt>
      <trkpt lat="43.372645" lon="-8.398040">
        <ele>91.0</ele>
        <time>2011-06-25T13:19:21Z</time>
      </trkpt>
      <trkpt lat="43.372643" lon="-8.398038">
        <ele>91.0</ele>
        <time>2011-06-25T13:19:22Z</time>
      </trkpt>
      <trkpt lat="43.372638" lon="-8.398040">
        <ele>91.5</ele>
        <time>2011-06-25T13:19:23Z</time>
      </trkpt>
      <trkpt lat="43.372638" lon="-8.398040">
        <ele>92.0</ele>
        <time>2011-06-25T13:19:24Z</time>
      </trkpt>
      <trkpt lat="43.372640" lon="-8.398040">
        <ele>92.0</ele>
        <time>2011-06-25T13:19:25Z</time>
      </trkpt>
      <trkpt lat="43.372642" lon="-8.398042">
        <ele>92.5</ele>
        <time>2011-06-25T13:19:26Z</time>
      </trkpt>
      <trkpt lat="43.372643" lon="-8.398043">
        <ele>92.5</ele>
        <time>2011-06-25T13:19:27Z</time>
      </trkpt>
      <trkpt lat="43.372652" lon="-8.398047">
        <ele>92.0</ele>
        <time>2011-06-25T13:19:28Z</time>
      </trkpt>
      <trkpt lat="43.372655" lon="-8.398052">
        <ele>92.5</ele>
        <time>2011-06-25T13:19:29Z</time>
      </trkpt>
      <trkpt lat="43.372637" lon="-8.398055">
        <ele>92.5</ele>
        <time>2011-06-25T13:19:30Z</time>
      </trkpt>
      <trkpt lat="43.372637" lon="-8.398058">
        <ele>93.0</ele>
        <time>2011-06-25T13:19:31Z</time>
      </trkpt>
      <trkpt lat="43.372638" lon="-8.398060">
        <ele>93.0</ele>
        <time>2011-06-25T13:19:32Z</time>
      </trkpt>
      <trkpt lat="43.372642" lon="-8.398062">
        <ele>93.0</ele>
        <time>2011-06-25T13:19:33Z</time>
      </trkpt>
      <trkpt lat="43.372645" lon="-8.398065">
        <ele>93.5</ele>
        <time>2011-06-25T13:19:34Z</time>
      </trkpt>
      <trkpt lat="43.372648" lon="-8.398068">
        <ele>93.5</ele>
        <time>2011-06-25T13:19:35Z</time>
      </trkpt>
      <trkpt lat="43.372653" lon="-8.398070">
        <ele>93.5</ele>
        <time>2011-06-25T13:19:36Z</time>
      </trkpt>
      <trkpt lat="43.372658" lon="-8.398072">
        <ele>94.0</ele>
        <time>2011-06-25T13:19:37Z</time>
      </trkpt>
      <trkpt lat="43.372660" lon="-8.398072">
        <ele>94.0</ele>
        <time>2011-06-25T13:19:38Z</time>
      </trkpt>
      <trkpt lat="43.372662" lon="-8.398073">
        <ele>94.0</ele>
        <time>2011-06-25T13:19:39Z</time>
      </trkpt>
      <trkpt lat="43.372665" lon="-8.398073">
        <ele>94.0</ele>
        <time>2011-06-25T13:19:40Z</time>
      </trkpt>
      <trkpt lat="43.372668" lon="-8.398075">
        <ele>94.0</ele>
        <time>2011-06-25T13:19:41Z</time>
      </trkpt>
      <trkpt lat="43.372670" lon="-8.398075">
        <ele>94.0</ele>
        <time>2011-06-25T13:19:42Z</time>
      </trkpt>
      <trkpt lat="43.372672" lon="-8.398077">
        <ele>94.0</ele>
        <time>2011-06-25T13:19:43Z</time>
      </trkpt>
      <trkpt lat="43.372672" lon="-8.398077">
        <ele>94.0</ele>
        <time>2011-06-25T13:19:44Z</time>
      </trkpt>
      <trkpt lat="43.372667" lon="-8.398075">
        <ele>93.5</ele>
        <time>2011-06-25T13:19:45Z</time>
      </trkpt>
      <trkpt lat="43.372667" lon="-8.398077">
        <ele>93.5</ele>
        <time>2011-06-25T13:19:46Z</time>
      </trkpt>
      <trkpt lat="43.372665" lon="-8.398077">
        <ele>93.5</ele>
        <time>2011-06-25T13:19:47Z</time>
      </trkpt>
      <trkpt lat="43.372663" lon="-8.398075">
        <ele>93.0</ele>
        <time>2011-06-25T13:19:48Z</time>
      </trkpt>
      <trkpt lat="43.372662" lon="-8.398075">
        <ele>93.0</ele>
        <time>2011-06-25T13:19:49Z</time>
      </trkpt>
      <trkpt lat="43.372655" lon="-8.398072">
        <ele>93.0</ele>
        <time>2011-06-25T13:19:50Z</time>
      </trkpt>
      <trkpt lat="43.372642" lon="-8.398067">
        <ele>93.0</ele>
        <time>2011-06-25T13:19:51Z</time>
      </trkpt>
      <trkpt lat="43.372638" lon="-8.398065">
        <ele>93.0</ele>
        <time>2011-06-25T13:19:52Z</time>
      </trkpt>
      <trkpt lat="43.372635" lon="-8.398063">
        <ele>93.0</ele>
        <time>2011-06-25T13:19:53Z</time>
      </trkpt>
      <trkpt lat="43.372627" lon="-8.398060">
        <ele>93.0</ele>
        <time>2011-06-25T13:19:54Z</time>
      </trkpt>
      <trkpt lat="43.372615" lon="-8.398053">
        <ele>92.5</ele>
        <time>2011-06-25T13:19:55Z</time>
      </trkpt>
      <trkpt lat="43.372605" lon="-8.398053">
        <ele>93.0</ele>
        <time>2011-06-25T13:19:56Z</time>
      </trkpt>
      <trkpt lat="43.372593" lon="-8.398047">
        <ele>93.0</ele>
        <time>2011-06-25T13:19:57Z</time>
      </trkpt>
      <trkpt lat="43.372595" lon="-8.398047">
        <ele>93.0</ele>
        <time>2011-06-25T13:19:58Z</time>
      </trkpt>
      <trkpt lat="43.372587" lon="-8.398043">
        <ele>93.0</ele>
        <time>2011-06-25T13:19:59Z</time>
      </trkpt>
      <trkpt lat="43.372588" lon="-8.398045">
        <ele>93.0</ele>
        <time>2011-06-25T13:20:00Z</time>
      </trkpt>
      <trkpt lat="43.372572" lon="-8.398033">
        <ele>93.0</ele>
        <time>2011-06-25T13:20:01Z</time>
      </trkpt>
      <trkpt lat="43.372658" lon="-8.398067">
        <ele>93.5</ele>
        <time>2011-06-25T13:20:03Z</time>
      </trkpt>
      <trkpt lat="43.372665" lon="-8.398068">
        <ele>93.5</ele>
        <time>2011-06-25T13:20:04Z</time>
      </trkpt>
      <trkpt lat="43.372663" lon="-8.398068">
        <ele>93.5</ele>
        <time>2011-06-25T13:20:05Z</time>
      </trkpt>
      <trkpt lat="43.372670" lon="-8.398070">
        <ele>93.5</ele>
        <time>2011-06-25T13:20:06Z</time>
      </trkpt>
      <trkpt lat="43.372685" lon="-8.398080">
        <ele>93.5</ele>
        <time>2011-06-25T13:20:07Z</time>
      </trkpt>
      <trkpt lat="43.372690" lon="-8.398082">
        <ele>93.5</ele>
        <time>2011-06-25T13:20:08Z</time>
      </trkpt>
      <trkpt lat="43.372693" lon="-8.398085">
        <ele>93.5</ele>
        <time>2011-06-25T13:20:09Z</time>
      </trkpt>
      <trkpt lat="43.372698" lon="-8.398088">
        <ele>93.5</ele>
        <time>2011-06-25T13:20:10Z</time>
      </trkpt>
      <trkpt lat="43.372708" lon="-8.398097">
        <ele>93.5</ele>
        <time>2011-06-25T13:20:11Z</time>
      </trkpt>
      <trkpt lat="43.372717" lon="-8.398098">
        <ele>93.0</ele>
        <time>2011-06-25T13:20:12Z</time>
      </trkpt>
      <trkpt lat="43.372718" lon="-8.398100">
        <ele>93.0</ele>
        <time>2011-06-25T13:20:13Z</time>
      </trkpt>
      <trkpt lat="43.372717" lon="-8.398103">
        <ele>93.0</ele>
        <time>2011-06-25T13:20:14Z</time>
      </trkpt>
      <trkpt lat="43.372717" lon="-8.398103">
        <ele>93.0</ele>
        <time>2011-06-25T13:20:15Z</time>
      </trkpt>
      <trkpt lat="43.372725" lon="-8.398103">
        <ele>92.5</ele>
        <time>2011-06-25T13:20:16Z</time>
      </trkpt>
      <trkpt lat="43.372725" lon="-8.398103">
        <ele>92.5</ele>
        <time>2011-06-25T13:20:17Z</time>
      </trkpt>
      <trkpt lat="43.372723" lon="-8.398110">
        <ele>92.5</ele>
        <time>2011-06-25T13:20:18Z</time>
      </trkpt>
      <trkpt lat="43.372722" lon="-8.398112">
        <ele>92.5</ele>
        <time>2011-06-25T13:20:19Z</time>
      </trkpt>
      <trkpt lat="43.372720" lon="-8.398115">
        <ele>92.5</ele>
        <time>2011-06-25T13:20:20Z</time>
      </trkpt>
      <trkpt lat="43.372718" lon="-8.398115">
        <ele>92.5</ele>
        <time>2011-06-25T13:20:21Z</time>
      </trkpt>
      <trkpt lat="43.372723" lon="-8.398120">
        <ele>92.5</ele>
        <time>2011-06-25T13:20:22Z</time>
      </trkpt>
      <trkpt lat="43.372717" lon="-8.398118">
        <ele>92.5</ele>
        <time>2011-06-25T13:20:23Z</time>
      </trkpt>
      <trkpt lat="43.372712" lon="-8.398115">
        <ele>92.5</ele>
        <time>2011-06-25T13:20:24Z</time>
      </trkpt>
      <trkpt lat="43.372715" lon="-8.398118">
        <ele>92.5</ele>
        <time>2011-06-25T13:20:25Z</time>
      </trkpt>
      <trkpt lat="43.372712" lon="-8.398118">
        <ele>92.5</ele>
        <time>2011-06-25T13:20:26Z</time>
      </trkpt>
      <trkpt lat="43.372725" lon="-8.398132">
        <ele>92.5</ele>
        <time>2011-06-25T13:20:27Z</time>
      </trkpt>
      <trkpt lat="43.372730" lon="-8.398133">
        <ele>92.5</ele>
        <time>2011-06-25T13:20:28Z</time>
      </trkpt>
      <trkpt lat="43.372735" lon="-8.398140">
        <ele>92.5</ele>
        <time>2011-06-25T13:20:29Z</time>
      </trkpt>
      <trkpt lat="43.372753" lon="-8.398155">
        <ele>92.5</ele>
        <time>2011-06-25T13:20:31Z</time>
      </trkpt>
      <trkpt lat="43.372758" lon="-8.398155">
        <ele>92.0</ele>
        <time>2011-06-25T13:20:32Z</time>
      </trkpt>
      <trkpt lat="43.372762" lon="-8.398157">
        <ele>92.0</ele>
        <time>2011-06-25T13:20:33Z</time>
      </trkpt>
      <trkpt lat="43.372765" lon="-8.398158">
        <ele>92.0</ele>
        <time>2011-06-25T13:20:34Z</time>
      </trkpt>
      <trkpt lat="43.372755" lon="-8.398153">
        <ele>92.0</ele>
        <time>2011-06-25T13:20:35Z</time>
      </trkpt>
      <trkpt lat="43.372758" lon="-8.398152">
        <ele>92.0</ele>
        <time>2011-06-25T13:20:36Z</time>
      </trkpt>
      <trkpt lat="43.372692" lon="-8.398112">
        <ele>91.5</ele>
        <time>2011-06-25T13:20:38Z</time>
      </trkpt>
      <trkpt lat="43.372677" lon="-8.398107">
        <ele>91.5</ele>
        <time>2011-06-25T13:20:39Z</time>
      </trkpt>
      <trkpt lat="43.372677" lon="-8.398107">
        <ele>91.5</ele>
        <time>2011-06-25T13:20:40Z</time>
      </trkpt>
      <trkpt lat="43.372618" lon="-8.398075">
        <ele>90.5</ele>
        <time>2011-06-25T13:20:42Z</time>
      </trkpt>
      <trkpt lat="43.372612" lon="-8.398092">
        <ele>90.5</ele>
        <time>2011-06-25T13:20:43Z</time>
      </trkpt>
      <trkpt lat="43.372598" lon="-8.398087">
        <ele>90.5</ele>
        <time>2011-06-25T13:20:44Z</time>
      </trkpt>
      <trkpt lat="43.372592" lon="-8.398082">
        <ele>91.0</ele>
        <time>2011-06-25T13:20:45Z</time>
      </trkpt>
      <trkpt lat="43.372585" lon="-8.398077">
        <ele>91.0</ele>
        <time>2011-06-25T13:20:46Z</time>
      </trkpt>
      <trkpt lat="43.372578" lon="-8.398072">
        <ele>91.0</ele>
        <time>2011-06-25T13:20:47Z</time>
      </trkpt>
      <trkpt lat="43.372577" lon="-8.398070">
        <ele>91.0</ele>
        <time>2011-06-25T13:20:48Z</time>
      </trkpt>
      <trkpt lat="43.372570" lon="-8.398067">
        <ele>91.5</ele>
        <time>2011-06-25T13:20:49Z</time>
      </trkpt>
      <trkpt lat="43.372567" lon="-8.398065">
        <ele>91.5</ele>
        <time>2011-06-25T13:20:50Z</time>
      </trkpt>
      <trkpt lat="43.372562" lon="-8.398062">
        <ele>91.5</ele>
        <time>2011-06-25T13:20:51Z</time>
      </trkpt>
      <trkpt lat="43.372558" lon="-8.398058">
        <ele>91.5</ele>
        <time>2011-06-25T13:20:52Z</time>
      </trkpt>
      <trkpt lat="43.372557" lon="-8.398057">
        <ele>91.5</ele>
        <time>2011-06-25T13:20:53Z</time>
      </trkpt>
      <trkpt lat="43.372553" lon="-8.398055">
        <ele>91.5</ele>
        <time>2011-06-25T13:20:54Z</time>
      </trkpt>
      <trkpt lat="43.372535" lon="-8.398052">
        <ele>92.0</ele>
        <time>2011-06-25T13:20:56Z</time>
      </trkpt>
      <trkpt lat="43.372518" lon="-8.398045">
        <ele>92.5</ele>
        <time>2011-06-25T13:20:57Z</time>
      </trkpt>
      <trkpt lat="43.372517" lon="-8.398038">
        <ele>91.5</ele>
        <time>2011-06-25T13:20:58Z</time>
      </trkpt>
      <trkpt lat="43.372515" lon="-8.398038">
        <ele>92.0</ele>
        <time>2011-06-25T13:20:59Z</time>
      </trkpt>
      <trkpt lat="43.372515" lon="-8.398033">
        <ele>91.0</ele>
        <time>2011-06-25T13:21:00Z</time>
      </trkpt>
      <trkpt lat="43.372523" lon="-8.398035">
        <ele>91.0</ele>
        <time>2011-06-25T13:21:01Z</time>
      </trkpt>
      <trkpt lat="43.372533" lon="-8.398038">
        <ele>90.5</ele>
        <time>2011-06-25T13:21:02Z</time>
      </trkpt>
      <trkpt lat="43.372537" lon="-8.398037">
        <ele>90.5</ele>
        <time>2011-06-25T13:21:03Z</time>
      </trkpt>
      <trkpt lat="43.372540" lon="-8.398037">
        <ele>90.5</ele>
        <time>2011-06-25T13:21:04Z</time>
      </trkpt>
      <trkpt lat="43.372545" lon="-8.398037">
        <ele>90.5</ele>
        <time>2011-06-25T13:21:05Z</time>
      </trkpt>
      <trkpt lat="43.372547" lon="-8.398037">
        <ele>90.5</ele>
        <time>2011-06-25T13:21:06Z</time>
      </trkpt>
      <trkpt lat="43.372553" lon="-8.398037">
        <ele>90.0</ele>
        <time>2011-06-25T13:21:07Z</time>
      </trkpt>
      <trkpt lat="43.372560" lon="-8.398037">
        <ele>90.0</ele>
        <time>2011-06-25T13:21:08Z</time>
      </trkpt>
      <trkpt lat="43.372562" lon="-8.398035">
        <ele>90.0</ele>
        <time>2011-06-25T13:21:09Z</time>
      </trkpt>
      <trkpt lat="43.372562" lon="-8.398033">
        <ele>90.0</ele>
        <time>2011-06-25T13:21:10Z</time>
      </trkpt>
      <trkpt lat="43.372563" lon="-8.398033">
        <ele>90.0</ele>
        <time>2011-06-25T13:21:11Z</time>
      </trkpt>
      <trkpt lat="43.372565" lon="-8.398033">
        <ele>90.5</ele>
        <time>2011-06-25T13:21:12Z</time>
      </trkpt>
      <trkpt lat="43.372575" lon="-8.398035">
        <ele>90.5</ele>
        <time>2011-06-25T13:21:13Z</time>
      </trkpt>
      <trkpt lat="43.372577" lon="-8.398033">
        <ele>90.5</ele>
        <time>2011-06-25T13:21:14Z</time>
      </trkpt>
      <trkpt lat="43.372583" lon="-8.398023">
        <ele>90.5</ele>
        <time>2011-06-25T13:21:15Z</time>
      </trkpt>
      <trkpt lat="43.372590" lon="-8.398012">
        <ele>91.0</ele>
        <time>2011-06-25T13:21:16Z</time>
      </trkpt>
      <trkpt lat="43.372595" lon="-8.397997">
        <ele>91.0</ele>
        <time>2011-06-25T13:21:17Z</time>
      </trkpt>
      <trkpt lat="43.372608" lon="-8.397980">
        <ele>91.0</ele>
        <time>2011-06-25T13:21:18Z</time>
      </trkpt>
      <trkpt lat="43.372622" lon="-8.397957">
        <ele>91.0</ele>
        <time>2011-06-25T13:21:19Z</time>
      </trkpt>
      <trkpt lat="43.372632" lon="-8.397933">
        <ele>91.0</ele>
        <time>2011-06-25T13:21:20Z</time>
      </trkpt>
      <trkpt lat="43.372655" lon="-8.397907">
        <ele>91.0</ele>
        <time>2011-06-25T13:21:21Z</time>
      </trkpt>
      <trkpt lat="43.372678" lon="-8.397882">
        <ele>91.0</ele>
        <time>2011-06-25T13:21:22Z</time>
      </trkpt>
      <trkpt lat="43.372697" lon="-8.397852">
        <ele>91.0</ele>
        <time>2011-06-25T13:21:23Z</time>
      </trkpt>
      <trkpt lat="43.372703" lon="-8.397832">
        <ele>92.5</ele>
        <time>2011-06-25T13:21:24Z</time>
      </trkpt>
      <trkpt lat="43.372693" lon="-8.397805">
        <ele>92.5</ele>
        <time>2011-06-25T13:21:25Z</time>
      </trkpt>
      <trkpt lat="43.372678" lon="-8.397778">
        <ele>92.5</ele>
        <time>2011-06-25T13:21:26Z</time>
      </trkpt>
      <trkpt lat="43.372657" lon="-8.397750">
        <ele>92.5</ele>
        <time>2011-06-25T13:21:27Z</time>
      </trkpt>
      <trkpt lat="43.372645" lon="-8.397722">
        <ele>92.5</ele>
        <time>2011-06-25T13:21:28Z</time>
      </trkpt>
      <trkpt lat="43.372630" lon="-8.397697">
        <ele>92.5</ele>
        <time>2011-06-25T13:21:29Z</time>
      </trkpt>
      <trkpt lat="43.372618" lon="-8.397672">
        <ele>92.0</ele>
        <time>2011-06-25T13:21:30Z</time>
      </trkpt>
      <trkpt lat="43.372615" lon="-8.397648">
        <ele>91.5</ele>
        <time>2011-06-25T13:21:31Z</time>
      </trkpt>
      <trkpt lat="43.372593" lon="-8.397625">
        <ele>91.5</ele>
        <time>2011-06-25T13:21:32Z</time>
      </trkpt>
      <trkpt lat="43.372573" lon="-8.397602">
        <ele>91.0</ele>
        <time>2011-06-25T13:21:33Z</time>
      </trkpt>
      <trkpt lat="43.372553" lon="-8.397602">
        <ele>91.0</ele>
        <time>2011-06-25T13:21:34Z</time>
      </trkpt>
      <trkpt lat="43.372532" lon="-8.397615">
        <ele>89.5</ele>
        <time>2011-06-25T13:21:36Z</time>
      </trkpt>
      <trkpt lat="43.372503" lon="-8.397622">
        <ele>89.5</ele>
        <time>2011-06-25T13:21:37Z</time>
      </trkpt>
      <trkpt lat="43.372477" lon="-8.397612">
        <ele>89.5</ele>
        <time>2011-06-25T13:21:38Z</time>
      </trkpt>
      <trkpt lat="43.372452" lon="-8.397597">
        <ele>89.0</ele>
        <time>2011-06-25T13:21:39Z</time>
      </trkpt>
      <trkpt lat="43.372453" lon="-8.397580">
        <ele>88.5</ele>
        <time>2011-06-25T13:21:40Z</time>
      </trkpt>
      <trkpt lat="43.372450" lon="-8.397563">
        <ele>88.5</ele>
        <time>2011-06-25T13:21:41Z</time>
      </trkpt>
      <trkpt lat="43.372467" lon="-8.397538">
        <ele>89.5</ele>
        <time>2011-06-25T13:21:42Z</time>
      </trkpt>
      <trkpt lat="43.372478" lon="-8.397515">
        <ele>90.5</ele>
        <time>2011-06-25T13:21:43Z</time>
      </trkpt>
      <trkpt lat="43.372482" lon="-8.397487">
        <ele>92.0</ele>
        <time>2011-06-25T13:21:44Z</time>
      </trkpt>
      <trkpt lat="43.372473" lon="-8.397455">
        <ele>92.0</ele>
        <time>2011-06-25T13:21:45Z</time>
      </trkpt>
      <trkpt lat="43.372478" lon="-8.397417">
        <ele>92.0</ele>
        <time>2011-06-25T13:21:46Z</time>
      </trkpt>
      <trkpt lat="43.372493" lon="-8.397390">
        <ele>92.0</ele>
        <time>2011-06-25T13:21:47Z</time>
      </trkpt>
      <trkpt lat="43.372512" lon="-8.397363">
        <ele>92.5</ele>
        <time>2011-06-25T13:21:48Z</time>
      </trkpt>
      <trkpt lat="43.372532" lon="-8.397338">
        <ele>93.5</ele>
        <time>2011-06-25T13:21:49Z</time>
      </trkpt>
      <trkpt lat="43.372545" lon="-8.397315">
        <ele>94.5</ele>
        <time>2011-06-25T13:21:50Z</time>
      </trkpt>
      <trkpt lat="43.372563" lon="-8.397292">
        <ele>95.0</ele>
        <time>2011-06-25T13:21:51Z</time>
      </trkpt>
      <trkpt lat="43.372593" lon="-8.397268">
        <ele>96.0</ele>
        <time>2011-06-25T13:21:52Z</time>
      </trkpt>
      <trkpt lat="43.372782" lon="-8.397183">
        <ele>96.5</ele>
        <time>2011-06-25T13:21:55Z</time>
      </trkpt>
      <trkpt lat="43.372843" lon="-8.397115">
        <ele>99.0</ele>
        <time>2011-06-25T13:21:57Z</time>
      </trkpt>
      <trkpt lat="43.372868" lon="-8.397080">
        <ele>100.5</ele>
        <time>2011-06-25T13:21:58Z</time>
      </trkpt>
      <trkpt lat="43.373042" lon="-8.396947">
        <ele>104.5</ele>
        <time>2011-06-25T13:22:01Z</time>
      </trkpt>
      <trkpt lat="43.373117" lon="-8.396848">
        <ele>103.5</ele>
        <time>2011-06-25T13:22:03Z</time>
      </trkpt>
      <trkpt lat="43.373160" lon="-8.396802">
        <ele>103.5</ele>
        <time>2011-06-25T13:22:04Z</time>
      </trkpt>
      <trkpt lat="43.373205" lon="-8.396765">
        <ele>103.5</ele>
        <time>2011-06-25T13:22:05Z</time>
      </trkpt>
      <trkpt lat="43.373323" lon="-8.396708">
        <ele>104.0</ele>
        <time>2011-06-25T13:22:07Z</time>
      </trkpt>
      <trkpt lat="43.373393" lon="-8.396602">
        <ele>102.0</ele>
        <time>2011-06-25T13:22:09Z</time>
      </trkpt>
      <trkpt lat="43.373688" lon="-8.396335">
        <ele>90.5</ele>
        <time>2011-06-25T13:22:13Z</time>
      </trkpt>
      <trkpt lat="43.373728" lon="-8.396275">
        <ele>90.5</ele>
        <time>2011-06-25T13:22:14Z</time>
      </trkpt>
    </trkseg>
  </trk>
  <trk>
    <name>T2067676-29</name>
    <cmt>saida con compañeiros do C.C.Arteixo polos arredores da Coruña</cmt>
    <desc>saida con compañeiros do C.C.Arteixo polos arredores da Coruña</desc>
    <trkseg>
      <trkpt lat="43.373762" lon="-8.396210">
        <ele>89.5</ele>
        <time>2011-06-25T13:22:15Z</time>
      </trkpt>
      <trkpt lat="43.373782" lon="-8.396148">
        <ele>90.0</ele>
        <time>2011-06-25T13:22:16Z</time>
      </trkpt>
      <trkpt lat="43.373803" lon="-8.396090">
        <ele>90.5</ele>
        <time>2011-06-25T13:22:17Z</time>
      </trkpt>
      <trkpt lat="43.373825" lon="-8.396052">
        <ele>90.5</ele>
        <time>2011-06-25T13:22:18Z</time>
      </trkpt>
      <trkpt lat="43.373753" lon="-8.395913">
        <ele>91.5</ele>
        <time>2011-06-25T13:22:20Z</time>
      </trkpt>
      <trkpt lat="43.373782" lon="-8.395858">
        <ele>91.0</ele>
        <time>2011-06-25T13:22:21Z</time>
      </trkpt>
      <trkpt lat="43.373813" lon="-8.395812">
        <ele>92.0</ele>
        <time>2011-06-25T13:22:22Z</time>
      </trkpt>
      <trkpt lat="43.373917" lon="-8.395710">
        <ele>91.0</ele>
        <time>2011-06-25T13:22:24Z</time>
      </trkpt>
      <trkpt lat="43.374000" lon="-8.395612">
        <ele>90.0</ele>
        <time>2011-06-25T13:22:26Z</time>
      </trkpt>
      <trkpt lat="43.373942" lon="-8.395512">
        <ele>90.5</ele>
        <time>2011-06-25T13:22:28Z</time>
      </trkpt>
      <trkpt lat="43.373907" lon="-8.395482">
        <ele>90.5</ele>
        <time>2011-06-25T13:22:29Z</time>
      </trkpt>
      <trkpt lat="43.373932" lon="-8.395453">
        <ele>90.5</ele>
        <time>2011-06-25T13:22:30Z</time>
      </trkpt>
      <trkpt lat="43.373962" lon="-8.395423">
        <ele>90.5</ele>
        <time>2011-06-25T13:22:31Z</time>
      </trkpt>
      <trkpt lat="43.374002" lon="-8.395388">
        <ele>91.0</ele>
        <time>2011-06-25T13:22:32Z</time>
      </trkpt>
      <trkpt lat="43.374032" lon="-8.395363">
        <ele>91.0</ele>
        <time>2011-06-25T13:22:33Z</time>
      </trkpt>
      <trkpt lat="43.374063" lon="-8.395340">
        <ele>91.5</ele>
        <time>2011-06-25T13:22:34Z</time>
      </trkpt>
      <trkpt lat="43.374087" lon="-8.395322">
        <ele>92.0</ele>
        <time>2011-06-25T13:22:35Z</time>
      </trkpt>
      <trkpt lat="43.374102" lon="-8.395297">
        <ele>92.0</ele>
        <time>2011-06-25T13:22:36Z</time>
      </trkpt>
      <trkpt lat="43.374117" lon="-8.395283">
        <ele>92.0</ele>
        <time>2011-06-25T13:22:37Z</time>
      </trkpt>
      <trkpt lat="43.374143" lon="-8.395292">
        <ele>93.5</ele>
        <time>2011-06-25T13:22:38Z</time>
      </trkpt>
      <trkpt lat="43.374172" lon="-8.395297">
        <ele>94.5</ele>
        <time>2011-06-25T13:22:39Z</time>
      </trkpt>
      <trkpt lat="43.374193" lon="-8.395303">
        <ele>95.0</ele>
        <time>2011-06-25T13:22:40Z</time>
      </trkpt>
      <trkpt lat="43.374178" lon="-8.395292">
        <ele>95.0</ele>
        <time>2011-06-25T13:22:41Z</time>
      </trkpt>
      <trkpt lat="43.374223" lon="-8.395332">
        <ele>97.0</ele>
        <time>2011-06-25T13:22:44Z</time>
      </trkpt>
      <trkpt lat="43.374240" lon="-8.395332">
        <ele>97.0</ele>
        <time>2011-06-25T13:22:45Z</time>
      </trkpt>
      <trkpt lat="43.374310" lon="-8.395312">
        <ele>97.0</ele>
        <time>2011-06-25T13:22:47Z</time>
      </trkpt>
      <trkpt lat="43.374327" lon="-8.395315">
        <ele>97.0</ele>
        <time>2011-06-25T13:22:48Z</time>
      </trkpt>
      <trkpt lat="43.374167" lon="-8.395165">
        <ele>98.0</ele>
        <time>2011-06-25T13:22:52Z</time>
      </trkpt>
      <trkpt lat="43.374142" lon="-8.395115">
        <ele>98.5</ele>
        <time>2011-06-25T13:22:53Z</time>
      </trkpt>
      <trkpt lat="43.374085" lon="-8.394948">
        <ele>99.5</ele>
        <time>2011-06-25T13:22:54Z</time>
      </trkpt>
      <trkpt lat="43.374082" lon="-8.394848">
        <ele>101.0</ele>
        <time>2011-06-25T13:22:57Z</time>
      </trkpt>
      <trkpt lat="43.374087" lon="-8.394838">
        <ele>101.0</ele>
        <time>2011-06-25T13:22:59Z</time>
      </trkpt>
      <trkpt lat="43.374308" lon="-8.394782">
        <ele>105.5</ele>
        <time>2011-06-25T13:23:03Z</time>
      </trkpt>
      <trkpt lat="43.374343" lon="-8.394697">
        <ele>106.0</ele>
        <time>2011-06-25T13:23:05Z</time>
      </trkpt>
      <trkpt lat="43.374343" lon="-8.394672">
        <ele>106.0</ele>
        <time>2011-06-25T13:23:06Z</time>
      </trkpt>
      <trkpt lat="43.374338" lon="-8.394652">
        <ele>106.0</ele>
        <time>2011-06-25T13:23:07Z</time>
      </trkpt>
      <trkpt lat="43.374572" lon="-8.394480">
        <ele>106.0</ele>
        <time>2011-06-25T13:23:11Z</time>
      </trkpt>
      <trkpt lat="43.374512" lon="-8.394463">
        <ele>106.5</ele>
        <time>2011-06-25T13:23:12Z</time>
      </trkpt>
      <trkpt lat="43.374573" lon="-8.394430">
        <ele>106.0</ele>
        <time>2011-06-25T13:23:14Z</time>
      </trkpt>
      <trkpt lat="43.374577" lon="-8.394425">
        <ele>106.5</ele>
        <time>2011-06-25T13:23:16Z</time>
      </trkpt>
      <trkpt lat="43.374570" lon="-8.394430">
        <ele>106.0</ele>
        <time>2011-06-25T13:23:17Z</time>
      </trkpt>
      <trkpt lat="43.374577" lon="-8.394433">
        <ele>104.5</ele>
        <time>2011-06-25T13:23:18Z</time>
      </trkpt>
      <trkpt lat="43.374577" lon="-8.394433">
        <ele>104.5</ele>
        <time>2011-06-25T13:23:18Z</time>
      </trkpt>
      <trkpt lat="43.374573" lon="-8.394433">
        <ele>104.0</ele>
        <time>2011-06-25T13:23:19Z</time>
      </trkpt>
      <trkpt lat="43.374577" lon="-8.394430">
        <ele>104.0</ele>
        <time>2011-06-25T13:23:21Z</time>
      </trkpt>
      <trkpt lat="43.374583" lon="-8.394423">
        <ele>104.5</ele>
        <time>2011-06-25T13:23:22Z</time>
      </trkpt>
      <trkpt lat="43.374590" lon="-8.394420">
        <ele>104.0</ele>
        <time>2011-06-25T13:23:23Z</time>
      </trkpt>
      <trkpt lat="43.374600" lon="-8.394412">
        <ele>104.0</ele>
        <time>2011-06-25T13:23:23Z</time>
      </trkpt>
      <trkpt lat="43.374618" lon="-8.394402">
        <ele>103.5</ele>
        <time>2011-06-25T13:23:25Z</time>
      </trkpt>
      <trkpt lat="43.374632" lon="-8.394395">
        <ele>103.0</ele>
        <time>2011-06-25T13:23:25Z</time>
      </trkpt>
      <trkpt lat="43.374645" lon="-8.394387">
        <ele>103.0</ele>
        <time>2011-06-25T13:23:27Z</time>
      </trkpt>
      <trkpt lat="43.374648" lon="-8.394382">
        <ele>103.0</ele>
        <time>2011-06-25T13:23:28Z</time>
      </trkpt>
      <trkpt lat="43.374650" lon="-8.394375">
        <ele>103.5</ele>
        <time>2011-06-25T13:23:29Z</time>
      </trkpt>
      <trkpt lat="43.374652" lon="-8.394373">
        <ele>103.5</ele>
        <time>2011-06-25T13:23:30Z</time>
      </trkpt>
      <trkpt lat="43.374653" lon="-8.394370">
        <ele>103.5</ele>
        <time>2011-06-25T13:23:31Z</time>
      </trkpt>
      <trkpt lat="43.374708" lon="-8.394333">
        <ele>109.5</ele>
        <time>2011-06-25T13:23:33Z</time>
      </trkpt>
      <trkpt lat="43.374712" lon="-8.394330">
        <ele>109.5</ele>
        <time>2011-06-25T13:23:34Z</time>
      </trkpt>
      <trkpt lat="43.374712" lon="-8.394328">
        <ele>109.5</ele>
        <time>2011-06-25T13:23:35Z</time>
      </trkpt>
      <trkpt lat="43.374715" lon="-8.394327">
        <ele>110.5</ele>
        <time>2011-06-25T13:23:35Z</time>
      </trkpt>
      <trkpt lat="43.374717" lon="-8.394325">
        <ele>110.5</ele>
        <time>2011-06-25T13:23:37Z</time>
      </trkpt>
      <trkpt lat="43.374720" lon="-8.394325">
        <ele>111.5</ele>
        <time>2011-06-25T13:23:38Z</time>
      </trkpt>
      <trkpt lat="43.374722" lon="-8.394323">
        <ele>111.5</ele>
        <time>2011-06-25T13:23:39Z</time>
      </trkpt>
      <trkpt lat="43.374723" lon="-8.394323">
        <ele>112.0</ele>
        <time>2011-06-25T13:23:40Z</time>
      </trkpt>
      <trkpt lat="43.374725" lon="-8.394323">
        <ele>112.5</ele>
        <time>2011-06-25T13:23:41Z</time>
      </trkpt>
      <trkpt lat="43.374728" lon="-8.394322">
        <ele>113.0</ele>
        <time>2011-06-25T13:23:42Z</time>
      </trkpt>
      <trkpt lat="43.374733" lon="-8.394320">
        <ele>113.5</ele>
        <time>2011-06-25T13:23:43Z</time>
      </trkpt>
      <trkpt lat="43.374733" lon="-8.394320">
        <ele>113.5</ele>
        <time>2011-06-25T13:23:44Z</time>
      </trkpt>
      <trkpt lat="43.374733" lon="-8.394320">
        <ele>113.0</ele>
        <time>2011-06-25T13:23:45Z</time>
      </trkpt>
      <trkpt lat="43.374733" lon="-8.394320">
        <ele>113.0</ele>
        <time>2011-06-25T13:23:45Z</time>
      </trkpt>
      <trkpt lat="43.374735" lon="-8.394320">
        <ele>113.5</ele>
        <time>2011-06-25T13:23:47Z</time>
      </trkpt>
      <trkpt lat="43.374760" lon="-8.394317">
        <ele>115.0</ele>
        <time>2011-06-25T13:23:49Z</time>
      </trkpt>
      <trkpt lat="43.374767" lon="-8.394315">
        <ele>115.0</ele>
        <time>2011-06-25T13:23:50Z</time>
      </trkpt>
      <trkpt lat="43.374775" lon="-8.394315">
        <ele>114.5</ele>
        <time>2011-06-25T13:23:51Z</time>
      </trkpt>
      <trkpt lat="43.374775" lon="-8.394310">
        <ele>115.0</ele>
        <time>2011-06-25T13:23:52Z</time>
      </trkpt>
      <trkpt lat="43.374775" lon="-8.394312">
        <ele>115.5</ele>
        <time>2011-06-25T13:23:53Z</time>
      </trkpt>
      <trkpt lat="43.374777" lon="-8.394312">
        <ele>115.5</ele>
        <time>2011-06-25T13:23:54Z</time>
      </trkpt>
      <trkpt lat="43.374777" lon="-8.394308">
        <ele>116.5</ele>
        <time>2011-06-25T13:23:55Z</time>
      </trkpt>
      <trkpt lat="43.374775" lon="-8.394305">
        <ele>118.5</ele>
        <time>2011-06-25T13:23:55Z</time>
      </trkpt>
      <trkpt lat="43.374785" lon="-8.394305">
        <ele>118.0</ele>
        <time>2011-06-25T13:23:56Z</time>
      </trkpt>
      <trkpt lat="43.374792" lon="-8.394305">
        <ele>118.0</ele>
        <time>2011-06-25T13:23:58Z</time>
      </trkpt>
      <trkpt lat="43.374792" lon="-8.394305">
        <ele>118.0</ele>
        <time>2011-06-25T13:23:59Z</time>
      </trkpt>
      <trkpt lat="43.374793" lon="-8.394305">
        <ele>118.0</ele>
        <time>2011-06-25T13:23:59Z</time>
      </trkpt>
      <trkpt lat="43.374797" lon="-8.394303">
        <ele>118.0</ele>
        <time>2011-06-25T13:24:00Z</time>
      </trkpt>
      <trkpt lat="43.374798" lon="-8.394305">
        <ele>118.5</ele>
        <time>2011-06-25T13:24:01Z</time>
      </trkpt>
      <trkpt lat="43.374800" lon="-8.394303">
        <ele>118.5</ele>
        <time>2011-06-25T13:24:02Z</time>
      </trkpt>
      <trkpt lat="43.374802" lon="-8.394303">
        <ele>118.5</ele>
        <time>2011-06-25T13:24:04Z</time>
      </trkpt>
      <trkpt lat="43.374802" lon="-8.394303">
        <ele>118.5</ele>
        <time>2011-06-25T13:24:04Z</time>
      </trkpt>
      <trkpt lat="43.374802" lon="-8.394303">
        <ele>118.5</ele>
        <time>2011-06-25T13:24:06Z</time>
      </trkpt>
      <trkpt lat="43.374803" lon="-8.394303">
        <ele>118.5</ele>
        <time>2011-06-25T13:24:07Z</time>
      </trkpt>
      <trkpt lat="43.374803" lon="-8.394305">
        <ele>118.5</ele>
        <time>2011-06-25T13:24:08Z</time>
      </trkpt>
      <trkpt lat="43.374805" lon="-8.394305">
        <ele>118.5</ele>
        <time>2011-06-25T13:24:09Z</time>
      </trkpt>
      <trkpt lat="43.374807" lon="-8.394305">
        <ele>118.5</ele>
        <time>2011-06-25T13:24:10Z</time>
      </trkpt>
      <trkpt lat="43.374808" lon="-8.394305">
        <ele>118.0</ele>
        <time>2011-06-25T13:24:11Z</time>
      </trkpt>
      <trkpt lat="43.374808" lon="-8.394303">
        <ele>118.0</ele>
        <time>2011-06-25T13:24:12Z</time>
      </trkpt>
      <trkpt lat="43.374808" lon="-8.394303">
        <ele>118.0</ele>
        <time>2011-06-25T13:24:12Z</time>
      </trkpt>
      <trkpt lat="43.374808" lon="-8.394303">
        <ele>118.0</ele>
        <time>2011-06-25T13:24:14Z</time>
      </trkpt>
      <trkpt lat="43.374810" lon="-8.394303">
        <ele>118.0</ele>
        <time>2011-06-25T13:24:14Z</time>
      </trkpt>
      <trkpt lat="43.374810" lon="-8.394303">
        <ele>118.0</ele>
        <time>2011-06-25T13:24:15Z</time>
      </trkpt>
      <trkpt lat="43.374810" lon="-8.394303">
        <ele>118.0</ele>
        <time>2011-06-25T13:24:16Z</time>
      </trkpt>
      <trkpt lat="43.374810" lon="-8.394302">
        <ele>118.0</ele>
        <time>2011-06-25T13:24:17Z</time>
      </trkpt>
      <trkpt lat="43.374812" lon="-8.394302">
        <ele>118.0</ele>
        <time>2011-06-25T13:24:19Z</time>
      </trkpt>
      <trkpt lat="43.374813" lon="-8.394302">
        <ele>117.5</ele>
        <time>2011-06-25T13:24:20Z</time>
      </trkpt>
      <trkpt lat="43.374815" lon="-8.394302">
        <ele>117.5</ele>
        <time>2011-06-25T13:24:20Z</time>
      </trkpt>
      <trkpt lat="43.374815" lon="-8.394300">
        <ele>117.5</ele>
        <time>2011-06-25T13:24:22Z</time>
      </trkpt>
      <trkpt lat="43.374817" lon="-8.394300">
        <ele>117.5</ele>
        <time>2011-06-25T13:24:23Z</time>
      </trkpt>
      <trkpt lat="43.374817" lon="-8.394300">
        <ele>117.0</ele>
        <time>2011-06-25T13:24:24Z</time>
      </trkpt>
      <trkpt lat="43.374817" lon="-8.394300">
        <ele>117.0</ele>
        <time>2011-06-25T13:24:25Z</time>
      </trkpt>
      <trkpt lat="43.374817" lon="-8.394298">
        <ele>117.0</ele>
        <time>2011-06-25T13:24:26Z</time>
      </trkpt>
      <trkpt lat="43.374818" lon="-8.394298">
        <ele>117.0</ele>
        <time>2011-06-25T13:24:26Z</time>
      </trkpt>
      <trkpt lat="43.374818" lon="-8.394298">
        <ele>117.0</ele>
        <time>2011-06-25T13:24:27Z</time>
      </trkpt>
      <trkpt lat="43.374820" lon="-8.394298">
        <ele>117.0</ele>
        <time>2011-06-25T13:24:28Z</time>
      </trkpt>
      <trkpt lat="43.374820" lon="-8.394298">
        <ele>117.0</ele>
        <time>2011-06-25T13:24:29Z</time>
      </trkpt>
      <trkpt lat="43.374820" lon="-8.394298">
        <ele>117.0</ele>
        <time>2011-06-25T13:24:30Z</time>
      </trkpt>
      <trkpt lat="43.374820" lon="-8.394298">
        <ele>117.0</ele>
        <time>2011-06-25T13:24:32Z</time>
      </trkpt>
      <trkpt lat="43.374820" lon="-8.394298">
        <ele>116.5</ele>
        <time>2011-06-25T13:24:32Z</time>
      </trkpt>
      <trkpt lat="43.374820" lon="-8.394298">
        <ele>116.5</ele>
        <time>2011-06-25T13:24:33Z</time>
      </trkpt>
      <trkpt lat="43.374822" lon="-8.394298">
        <ele>116.5</ele>
        <time>2011-06-25T13:24:34Z</time>
      </trkpt>
      <trkpt lat="43.374823" lon="-8.394297">
        <ele>116.5</ele>
        <time>2011-06-25T13:24:35Z</time>
      </trkpt>
      <trkpt lat="43.374823" lon="-8.394297">
        <ele>116.5</ele>
        <time>2011-06-25T13:24:36Z</time>
      </trkpt>
      <trkpt lat="43.374823" lon="-8.394297">
        <ele>116.5</ele>
        <time>2011-06-25T13:24:37Z</time>
      </trkpt>
      <trkpt lat="43.374823" lon="-8.394297">
        <ele>116.5</ele>
        <time>2011-06-25T13:24:39Z</time>
      </trkpt>
      <trkpt lat="43.374825" lon="-8.394297">
        <ele>116.0</ele>
        <time>2011-06-25T13:24:40Z</time>
      </trkpt>
      <trkpt lat="43.374825" lon="-8.394297">
        <ele>116.0</ele>
        <time>2011-06-25T13:24:41Z</time>
      </trkpt>
      <trkpt lat="43.374827" lon="-8.394297">
        <ele>116.0</ele>
        <time>2011-06-25T13:24:42Z</time>
      </trkpt>
      <trkpt lat="43.374827" lon="-8.394297">
        <ele>116.0</ele>
        <time>2011-06-25T13:24:42Z</time>
      </trkpt>
      <trkpt lat="43.374827" lon="-8.394297">
        <ele>116.0</ele>
        <time>2011-06-25T13:24:44Z</time>
      </trkpt>
      <trkpt lat="43.374827" lon="-8.394295">
        <ele>116.0</ele>
        <time>2011-06-25T13:24:44Z</time>
      </trkpt>
      <trkpt lat="43.374827" lon="-8.394295">
        <ele>116.0</ele>
        <time>2011-06-25T13:24:46Z</time>
      </trkpt>
      <trkpt lat="43.374827" lon="-8.394295">
        <ele>116.0</ele>
        <time>2011-06-25T13:24:47Z</time>
      </trkpt>
      <trkpt lat="43.374828" lon="-8.394287">
        <ele>115.5</ele>
        <time>2011-06-25T13:24:48Z</time>
      </trkpt>
      <trkpt lat="43.374833" lon="-8.394288">
        <ele>115.5</ele>
        <time>2011-06-25T13:24:48Z</time>
      </trkpt>
      <trkpt lat="43.374835" lon="-8.394288">
        <ele>116.0</ele>
        <time>2011-06-25T13:24:50Z</time>
      </trkpt>
      <trkpt lat="43.374838" lon="-8.394290">
        <ele>116.5</ele>
        <time>2011-06-25T13:24:51Z</time>
      </trkpt>
      <trkpt lat="43.374840" lon="-8.394290">
        <ele>116.5</ele>
        <time>2011-06-25T13:24:52Z</time>
      </trkpt>
      <trkpt lat="43.374840" lon="-8.394288">
        <ele>116.5</ele>
        <time>2011-06-25T13:24:53Z</time>
      </trkpt>
      <trkpt lat="43.374840" lon="-8.394288">
        <ele>116.5</ele>
        <time>2011-06-25T13:24:54Z</time>
      </trkpt>
      <trkpt lat="43.374842" lon="-8.394287">
        <ele>116.5</ele>
        <time>2011-06-25T13:24:55Z</time>
      </trkpt>
      <trkpt lat="43.374843" lon="-8.394287">
        <ele>117.0</ele>
        <time>2011-06-25T13:24:56Z</time>
      </trkpt>
      <trkpt lat="43.374843" lon="-8.394287">
        <ele>117.0</ele>
        <time>2011-06-25T13:24:57Z</time>
      </trkpt>
      <trkpt lat="43.374843" lon="-8.394285">
        <ele>117.0</ele>
        <time>2011-06-25T13:24:57Z</time>
      </trkpt>
      <trkpt lat="43.374843" lon="-8.394285">
        <ele>117.0</ele>
        <time>2011-06-25T13:24:59Z</time>
      </trkpt>
      <trkpt lat="43.374843" lon="-8.394283">
        <ele>117.0</ele>
        <time>2011-06-25T13:25:00Z</time>
      </trkpt>
      <trkpt lat="43.374843" lon="-8.394283">
        <ele>117.0</ele>
        <time>2011-06-25T13:25:01Z</time>
      </trkpt>
      <trkpt lat="43.374843" lon="-8.394283">
        <ele>117.0</ele>
        <time>2011-06-25T13:25:02Z</time>
      </trkpt>
      <trkpt lat="43.374843" lon="-8.394283">
        <ele>117.5</ele>
        <time>2011-06-25T13:25:03Z</time>
      </trkpt>
      <trkpt lat="43.374842" lon="-8.394283">
        <ele>117.5</ele>
        <time>2011-06-25T13:25:04Z</time>
      </trkpt>
      <trkpt lat="43.374842" lon="-8.394283">
        <ele>117.5</ele>
        <time>2011-06-25T13:25:05Z</time>
      </trkpt>
      <trkpt lat="43.374842" lon="-8.394283">
        <ele>117.5</ele>
        <time>2011-06-25T13:25:05Z</time>
      </trkpt>
      <trkpt lat="43.374842" lon="-8.394283">
        <ele>118.0</ele>
        <time>2011-06-25T13:25:07Z</time>
      </trkpt>
      <trkpt lat="43.374842" lon="-8.394283">
        <ele>118.0</ele>
        <time>2011-06-25T13:25:07Z</time>
      </trkpt>
      <trkpt lat="43.374842" lon="-8.394283">
        <ele>118.0</ele>
        <time>2011-06-25T13:25:08Z</time>
      </trkpt>
      <trkpt lat="43.374842" lon="-8.394283">
        <ele>118.0</ele>
        <time>2011-06-25T13:25:10Z</time>
      </trkpt>
      <trkpt lat="43.374840" lon="-8.394283">
        <ele>118.0</ele>
        <time>2011-06-25T13:25:11Z</time>
      </trkpt>
      <trkpt lat="43.374840" lon="-8.394278">
        <ele>118.0</ele>
        <time>2011-06-25T13:25:12Z</time>
      </trkpt>
      <trkpt lat="43.374838" lon="-8.394278">
        <ele>118.5</ele>
        <time>2011-06-25T13:25:13Z</time>
      </trkpt>
      <trkpt lat="43.374837" lon="-8.394277">
        <ele>119.0</ele>
        <time>2011-06-25T13:25:14Z</time>
      </trkpt>
      <trkpt lat="43.374837" lon="-8.394278">
        <ele>119.0</ele>
        <time>2011-06-25T13:25:15Z</time>
      </trkpt>
      <trkpt lat="43.374835" lon="-8.394280">
        <ele>119.5</ele>
        <time>2011-06-25T13:25:16Z</time>
      </trkpt>
      <trkpt lat="43.374835" lon="-8.394280">
        <ele>120.0</ele>
        <time>2011-06-25T13:25:17Z</time>
      </trkpt>
      <trkpt lat="43.374828" lon="-8.394262">
        <ele>117.5</ele>
        <time>2011-06-25T13:25:18Z</time>
      </trkpt>
      <trkpt lat="43.374828" lon="-8.394262">
        <ele>117.5</ele>
        <time>2011-06-25T13:25:19Z</time>
      </trkpt>
      <trkpt lat="43.374828" lon="-8.394260">
        <ele>117.5</ele>
        <time>2011-06-25T13:25:20Z</time>
      </trkpt>
      <trkpt lat="43.374827" lon="-8.394258">
        <ele>117.5</ele>
        <time>2011-06-25T13:25:21Z</time>
      </trkpt>
      <trkpt lat="43.374827" lon="-8.394258">
        <ele>117.5</ele>
        <time>2011-06-25T13:25:22Z</time>
      </trkpt>
      <trkpt lat="43.374827" lon="-8.394257">
        <ele>117.5</ele>
        <time>2011-06-25T13:25:23Z</time>
      </trkpt>
      <trkpt lat="43.374825" lon="-8.394255">
        <ele>117.5</ele>
        <time>2011-06-25T13:25:24Z</time>
      </trkpt>
      <trkpt lat="43.374825" lon="-8.394252">
        <ele>117.0</ele>
        <time>2011-06-25T13:25:25Z</time>
      </trkpt>
      <trkpt lat="43.374823" lon="-8.394248">
        <ele>117.0</ele>
        <time>2011-06-25T13:25:26Z</time>
      </trkpt>
      <trkpt lat="43.374823" lon="-8.394247">
        <ele>117.0</ele>
        <time>2011-06-25T13:25:27Z</time>
      </trkpt>
      <trkpt lat="43.374822" lon="-8.394245">
        <ele>117.0</ele>
        <time>2011-06-25T13:25:28Z</time>
      </trkpt>
      <trkpt lat="43.374822" lon="-8.394245">
        <ele>117.0</ele>
        <time>2011-06-25T13:25:28Z</time>
      </trkpt>
      <trkpt lat="43.374820" lon="-8.394243">
        <ele>117.0</ele>
        <time>2011-06-25T13:25:30Z</time>
      </trkpt>
      <trkpt lat="43.374820" lon="-8.394243">
        <ele>117.0</ele>
        <time>2011-06-25T13:25:31Z</time>
      </trkpt>
      <trkpt lat="43.374820" lon="-8.394242">
        <ele>117.0</ele>
        <time>2011-06-25T13:25:32Z</time>
      </trkpt>
      <trkpt lat="43.374820" lon="-8.394242">
        <ele>117.0</ele>
        <time>2011-06-25T13:25:33Z</time>
      </trkpt>
      <trkpt lat="43.374820" lon="-8.394242">
        <ele>117.0</ele>
        <time>2011-06-25T13:25:33Z</time>
      </trkpt>
      <trkpt lat="43.374820" lon="-8.394242">
        <ele>117.0</ele>
        <time>2011-06-25T13:25:35Z</time>
      </trkpt>
      <trkpt lat="43.374820" lon="-8.394242">
        <ele>117.0</ele>
        <time>2011-06-25T13:25:36Z</time>
      </trkpt>
      <trkpt lat="43.374818" lon="-8.394242">
        <ele>117.0</ele>
        <time>2011-06-25T13:25:37Z</time>
      </trkpt>
      <trkpt lat="43.374818" lon="-8.394242">
        <ele>117.0</ele>
        <time>2011-06-25T13:25:38Z</time>
      </trkpt>
      <trkpt lat="43.374818" lon="-8.394240">
        <ele>117.0</ele>
        <time>2011-06-25T13:25:38Z</time>
      </trkpt>
      <trkpt lat="43.374818" lon="-8.394240">
        <ele>117.0</ele>
        <time>2011-06-25T13:25:40Z</time>
      </trkpt>
      <trkpt lat="43.374818" lon="-8.394240">
        <ele>117.0</ele>
        <time>2011-06-25T13:25:41Z</time>
      </trkpt>
      <trkpt lat="43.374812" lon="-8.394235">
        <ele>117.0</ele>
        <time>2011-06-25T13:25:42Z</time>
      </trkpt>
      <trkpt lat="43.374808" lon="-8.394230">
        <ele>117.5</ele>
        <time>2011-06-25T13:25:43Z</time>
      </trkpt>
      <trkpt lat="43.374798" lon="-8.394225">
        <ele>117.0</ele>
        <time>2011-06-25T13:25:44Z</time>
      </trkpt>
      <trkpt lat="43.374795" lon="-8.394223">
        <ele>117.0</ele>
        <time>2011-06-25T13:25:45Z</time>
      </trkpt>
      <trkpt lat="43.374795" lon="-8.394223">
        <ele>117.0</ele>
        <time>2011-06-25T13:25:46Z</time>
      </trkpt>
      <trkpt lat="43.374793" lon="-8.394233">
        <ele>118.5</ele>
        <time>2011-06-25T13:25:47Z</time>
      </trkpt>
      <trkpt lat="43.374800" lon="-8.394253">
        <ele>118.5</ele>
        <time>2011-06-25T13:25:48Z</time>
      </trkpt>
      <trkpt lat="43.374805" lon="-8.394282">
        <ele>118.5</ele>
        <time>2011-06-25T13:25:49Z</time>
      </trkpt>
      <trkpt lat="43.374808" lon="-8.394303">
        <ele>120.0</ele>
        <time>2011-06-25T13:25:50Z</time>
      </trkpt>
      <trkpt lat="43.374813" lon="-8.394328">
        <ele>122.0</ele>
        <time>2011-06-25T13:25:51Z</time>
      </trkpt>
      <trkpt lat="43.374818" lon="-8.394352">
        <ele>123.5</ele>
        <time>2011-06-25T13:25:51Z</time>
      </trkpt>
      <trkpt lat="43.374822" lon="-8.394380">
        <ele>123.5</ele>
        <time>2011-06-25T13:25:53Z</time>
      </trkpt>
      <trkpt lat="43.374832" lon="-8.394415">
        <ele>124.0</ele>
        <time>2011-06-25T13:25:54Z</time>
      </trkpt>
      <trkpt lat="43.374842" lon="-8.394443">
        <ele>124.0</ele>
        <time>2011-06-25T13:25:54Z</time>
      </trkpt>
      <trkpt lat="43.374848" lon="-8.394468">
        <ele>125.0</ele>
        <time>2011-06-25T13:25:56Z</time>
      </trkpt>
      <trkpt lat="43.374852" lon="-8.394485">
        <ele>126.0</ele>
        <time>2011-06-25T13:25:57Z</time>
      </trkpt>
      <trkpt lat="43.374850" lon="-8.394493">
        <ele>126.5</ele>
        <time>2011-06-25T13:25:57Z</time>
      </trkpt>
      <trkpt lat="43.374847" lon="-8.394498">
        <ele>126.5</ele>
        <time>2011-06-25T13:25:59Z</time>
      </trkpt>
      <trkpt lat="43.374845" lon="-8.394502">
        <ele>126.5</ele>
        <time>2011-06-25T13:26:00Z</time>
      </trkpt>
      <trkpt lat="43.374845" lon="-8.394505">
        <ele>126.5</ele>
        <time>2011-06-25T13:26:01Z</time>
      </trkpt>
      <trkpt lat="43.374843" lon="-8.394508">
        <ele>126.5</ele>
        <time>2011-06-25T13:26:01Z</time>
      </trkpt>
      <trkpt lat="43.374842" lon="-8.394510">
        <ele>126.5</ele>
        <time>2011-06-25T13:26:02Z</time>
      </trkpt>
      <trkpt lat="43.374788" lon="-8.394223">
        <ele>125.5</ele>
        <time>2011-06-25T13:26:07Z</time>
      </trkpt>
      <trkpt lat="43.374730" lon="-8.394415">
        <ele>124.5</ele>
        <time>2011-06-25T13:26:09Z</time>
      </trkpt>
      <trkpt lat="43.374637" lon="-8.394438">
        <ele>124.0</ele>
        <time>2011-06-25T13:26:12Z</time>
      </trkpt>
      <trkpt lat="43.374593" lon="-8.394473">
        <ele>123.0</ele>
        <time>2011-06-25T13:26:14Z</time>
      </trkpt>
      <trkpt lat="43.374575" lon="-8.394478">
        <ele>122.5</ele>
        <time>2011-06-25T13:26:15Z</time>
      </trkpt>
      <trkpt lat="43.374572" lon="-8.394482">
        <ele>122.5</ele>
        <time>2011-06-25T13:26:17Z</time>
      </trkpt>
      <trkpt lat="43.374568" lon="-8.394478">
        <ele>122.5</ele>
        <time>2011-06-25T13:26:18Z</time>
      </trkpt>
      <trkpt lat="43.374563" lon="-8.394475">
        <ele>122.0</ele>
        <time>2011-06-25T13:26:18Z</time>
      </trkpt>
      <trkpt lat="43.374558" lon="-8.394473">
        <ele>122.0</ele>
        <time>2011-06-25T13:26:19Z</time>
      </trkpt>
      <trkpt lat="43.374577" lon="-8.394473">
        <ele>122.0</ele>
        <time>2011-06-25T13:26:20Z</time>
      </trkpt>
      <trkpt lat="43.374588" lon="-8.394463">
        <ele>122.0</ele>
        <time>2011-06-25T13:26:21Z</time>
      </trkpt>
      <trkpt lat="43.374592" lon="-8.394460">
        <ele>121.5</ele>
        <time>2011-06-25T13:26:22Z</time>
      </trkpt>
      <trkpt lat="43.374588" lon="-8.394460">
        <ele>121.5</ele>
        <time>2011-06-25T13:26:23Z</time>
      </trkpt>
      <trkpt lat="43.374588" lon="-8.394460">
        <ele>121.5</ele>
        <time>2011-06-25T13:26:24Z</time>
      </trkpt>
      <trkpt lat="43.374598" lon="-8.394457">
        <ele>121.5</ele>
        <time>2011-06-25T13:26:25Z</time>
      </trkpt>
      <trkpt lat="43.374602" lon="-8.394455">
        <ele>121.5</ele>
        <time>2011-06-25T13:26:26Z</time>
      </trkpt>
      <trkpt lat="43.374603" lon="-8.394455">
        <ele>121.5</ele>
        <time>2011-06-25T13:26:27Z</time>
      </trkpt>
      <trkpt lat="43.374610" lon="-8.394557">
        <ele>121.5</ele>
        <time>2011-06-25T13:26:29Z</time>
      </trkpt>
      <trkpt lat="43.374612" lon="-8.394588">
        <ele>121.5</ele>
        <time>2011-06-25T13:26:30Z</time>
      </trkpt>
      <trkpt lat="43.374458" lon="-8.394593">
        <ele>121.0</ele>
        <time>2011-06-25T13:26:34Z</time>
      </trkpt>
      <trkpt lat="43.374457" lon="-8.394595">
        <ele>121.0</ele>
        <time>2011-06-25T13:26:35Z</time>
      </trkpt>
      <trkpt lat="43.374452" lon="-8.394590">
        <ele>121.0</ele>
        <time>2011-06-25T13:26:36Z</time>
      </trkpt>
      <trkpt lat="43.374448" lon="-8.394587">
        <ele>121.0</ele>
        <time>2011-06-25T13:26:37Z</time>
      </trkpt>
      <trkpt lat="43.374447" lon="-8.394587">
        <ele>121.0</ele>
        <time>2011-06-25T13:26:37Z</time>
      </trkpt>
      <trkpt lat="43.374447" lon="-8.394585">
        <ele>121.0</ele>
        <time>2011-06-25T13:26:38Z</time>
      </trkpt>
      <trkpt lat="43.374443" lon="-8.394583">
        <ele>121.0</ele>
        <time>2011-06-25T13:26:39Z</time>
      </trkpt>
      <trkpt lat="43.374443" lon="-8.394582">
        <ele>121.0</ele>
        <time>2011-06-25T13:26:40Z</time>
      </trkpt>
      <trkpt lat="43.374287" lon="-8.394503">
        <ele>121.0</ele>
        <time>2011-06-25T13:26:48Z</time>
      </trkpt>
      <trkpt lat="43.374492" lon="-8.394138">
        <ele>121.0</ele>
        <time>2011-06-25T13:28:16Z</time>
      </trkpt>
      <trkpt lat="43.374528" lon="-8.394260">
        <ele>119.5</ele>
        <time>2011-06-25T13:28:20Z</time>
      </trkpt>
      <trkpt lat="43.374512" lon="-8.394258">
        <ele>119.5</ele>
        <time>2011-06-25T13:28:21Z</time>
      </trkpt>
      <trkpt lat="43.374512" lon="-8.394273">
        <ele>118.5</ele>
        <time>2011-06-25T13:28:22Z</time>
      </trkpt>
      <trkpt lat="43.374497" lon="-8.394247">
        <ele>117.0</ele>
        <time>2011-06-25T13:28:23Z</time>
      </trkpt>
      <trkpt lat="43.374517" lon="-8.394265">
        <ele>112.0</ele>
        <time>2011-06-25T13:28:24Z</time>
      </trkpt>
      <trkpt lat="43.374533" lon="-8.394277">
        <ele>110.5</ele>
        <time>2011-06-25T13:28:25Z</time>
      </trkpt>
      <trkpt lat="43.374555" lon="-8.394295">
        <ele>109.0</ele>
        <time>2011-06-25T13:28:26Z</time>
      </trkpt>
      <trkpt lat="43.374563" lon="-8.394270">
        <ele>109.0</ele>
        <time>2011-06-25T13:28:27Z</time>
      </trkpt>
      <trkpt lat="43.374567" lon="-8.394258">
        <ele>108.5</ele>
        <time>2011-06-25T13:28:28Z</time>
      </trkpt>
      <trkpt lat="43.374563" lon="-8.394253">
        <ele>106.0</ele>
        <time>2011-06-25T13:28:29Z</time>
      </trkpt>
      <trkpt lat="43.374558" lon="-8.394238">
        <ele>105.0</ele>
        <time>2011-06-25T13:28:30Z</time>
      </trkpt>
      <trkpt lat="43.374490" lon="-8.394253">
        <ele>104.5</ele>
        <time>2011-06-25T13:28:32Z</time>
      </trkpt>
      <trkpt lat="43.374482" lon="-8.394237">
        <ele>100.5</ele>
        <time>2011-06-25T13:28:33Z</time>
      </trkpt>
      <trkpt lat="43.374480" lon="-8.394232">
        <ele>99.5</ele>
        <time>2011-06-25T13:28:34Z</time>
      </trkpt>
      <trkpt lat="43.374493" lon="-8.394245">
        <ele>99.5</ele>
        <time>2011-06-25T13:28:35Z</time>
      </trkpt>
      <trkpt lat="43.374500" lon="-8.394248">
        <ele>99.5</ele>
        <time>2011-06-25T13:28:36Z</time>
      </trkpt>
      <trkpt lat="43.374507" lon="-8.394250">
        <ele>99.5</ele>
        <time>2011-06-25T13:28:37Z</time>
      </trkpt>
      <trkpt lat="43.374510" lon="-8.394252">
        <ele>99.5</ele>
        <time>2011-06-25T13:28:38Z</time>
      </trkpt>
      <trkpt lat="43.374517" lon="-8.394238">
        <ele>99.5</ele>
        <time>2011-06-25T13:28:39Z</time>
      </trkpt>
      <trkpt lat="43.374508" lon="-8.394237">
        <ele>99.0</ele>
        <time>2011-06-25T13:28:40Z</time>
      </trkpt>
      <trkpt lat="43.374520" lon="-8.394243">
        <ele>96.5</ele>
        <time>2011-06-25T13:28:41Z</time>
      </trkpt>
      <trkpt lat="43.374527" lon="-8.394252">
        <ele>96.5</ele>
        <time>2011-06-25T13:28:42Z</time>
      </trkpt>
      <trkpt lat="43.374527" lon="-8.394258">
        <ele>95.5</ele>
        <time>2011-06-25T13:28:43Z</time>
      </trkpt>
      <trkpt lat="43.374525" lon="-8.394260">
        <ele>95.5</ele>
        <time>2011-06-25T13:28:44Z</time>
      </trkpt>
      <trkpt lat="43.374527" lon="-8.394263">
        <ele>95.0</ele>
        <time>2011-06-25T13:28:45Z</time>
      </trkpt>
      <trkpt lat="43.374515" lon="-8.394245">
        <ele>95.5</ele>
        <time>2011-06-25T13:28:46Z</time>
      </trkpt>
      <trkpt lat="43.374502" lon="-8.394252">
        <ele>96.0</ele>
        <time>2011-06-25T13:28:47Z</time>
      </trkpt>
      <trkpt lat="43.374493" lon="-8.394250">
        <ele>96.0</ele>
        <time>2011-06-25T13:28:48Z</time>
      </trkpt>
      <trkpt lat="43.374488" lon="-8.394247">
        <ele>96.0</ele>
        <time>2011-06-25T13:28:49Z</time>
      </trkpt>
      <trkpt lat="43.374478" lon="-8.394238">
        <ele>96.0</ele>
        <time>2011-06-25T13:28:50Z</time>
      </trkpt>
      <trkpt lat="43.374463" lon="-8.394242">
        <ele>95.5</ele>
        <time>2011-06-25T13:28:51Z</time>
      </trkpt>
      <trkpt lat="43.374455" lon="-8.394230">
        <ele>95.5</ele>
        <time>2011-06-25T13:28:52Z</time>
      </trkpt>
      <trkpt lat="43.374455" lon="-8.394230">
        <ele>95.5</ele>
        <time>2011-06-25T13:28:52Z</time>
      </trkpt>
    </trkseg>
  </trk></gpx>